<?xml version='1.0' encoding='UTF-8'?><gpx version="1.1" creator="JPX - https://github.com/jenetics/jpx" xmlns="http://www.topografix.com/GPX/1/1"><trk><trkseg><trkpt lat="36.79973916618845" lon="-108.18524684785568"><ele>1723.0000000000002</ele><time>2026-03-29T14:47:32Z</time></trkpt><trkpt lat="36.79979692287743" lon="-108.18529102838532"><ele>1723.0</ele><time>2026-03-29T14:47:41Z</time></trkpt><trkpt lat="36.799732663038505" lon="-108.18524592037289"><ele>1723.0</ele><time>2026-03-29T14:49:36Z</time></trkpt><trkpt lat="36.79974071032877" lon="-108.1851508715631"><ele>1723.0</ele><time>2026-03-29T14:50:15Z</time></trkpt><trkpt lat="36.799821426107734" lon="-108.18508228707735"><ele>1723.0000000000002</ele><time>2026-03-29T14:50:17Z</time></trkpt><trkpt lat="36.799902876643294" lon="-108.18497958190305"><ele>1723.0</ele><time>2026-03-29T14:50:19Z</time></trkpt><trkpt lat="36.79996993938696" lon="-108.18484971824024"><ele>1723.0</ele><time>2026-03-29T14:50:21Z</time></trkpt><trkpt lat="36.80004396955677" lon="-108.18473689208183"><ele>1723.0</ele><time>2026-03-29T14:50:23Z</time></trkpt><trkpt lat="36.80011368609206" lon="-108.18460122535812"><ele>1723.0</ele><time>2026-03-29T14:50:25Z</time></trkpt><trkpt lat="36.80015819170847" lon="-108.18445546692251"><ele>1723.0</ele><time>2026-03-29T14:50:27Z</time></trkpt><trkpt lat="36.80020545402783" lon="-108.18433538162665"><ele>1723.0000000000002</ele><time>2026-03-29T14:50:29Z</time></trkpt><trkpt lat="36.800186895485055" lon="-108.18420878523789"><ele>1723.0</ele><time>2026-03-29T14:50:31Z</time></trkpt><trkpt lat="36.80011447456091" lon="-108.18420225474031"><ele>1723.0</ele><time>2026-03-29T14:50:34Z</time></trkpt><trkpt lat="36.800052499219795" lon="-108.1842706868282"><ele>1723.0</ele><time>2026-03-29T14:50:36Z</time></trkpt><trkpt lat="36.80000918613463" lon="-108.18435489606628"><ele>1723.0000000000002</ele><time>2026-03-29T14:50:40Z</time></trkpt><trkpt lat="36.79994362606594" lon="-108.18436048712208"><ele>1723.0</ele><time>2026-03-29T14:50:43Z</time></trkpt><trkpt lat="36.79985663148322" lon="-108.18431806534566"><ele>1723.1666666666667</ele><time>2026-03-29T14:50:48Z</time></trkpt><trkpt lat="36.7998190892289" lon="-108.18423683557248"><ele>1723.3333333333335</ele><time>2026-03-29T14:50:51Z</time></trkpt><trkpt lat="36.79980267747714" lon="-108.18415906203441"><ele>1723.5</ele><time>2026-03-29T14:50:52Z</time></trkpt><trkpt lat="36.79986295936462" lon="-108.18412408679177"><ele>1723.6666666666665</ele><time>2026-03-29T14:50:57Z</time></trkpt><trkpt lat="36.799837158770494" lon="-108.18423549298313"><ele>1723.8333333333333</ele><time>2026-03-29T14:51:00Z</time></trkpt><trkpt lat="36.799815441720064" lon="-108.18435104484239"><ele>1724.0</ele><time>2026-03-29T14:51:02Z</time></trkpt><trkpt lat="36.79985367513906" lon="-108.184447931098"><ele>1723.9999999999998</ele><time>2026-03-29T14:51:05Z</time></trkpt><trkpt lat="36.79981762625417" lon="-108.18459453745479"><ele>1724.0</ele><time>2026-03-29T14:51:07Z</time></trkpt><trkpt lat="36.79976505275176" lon="-108.18465764884034"><ele>1724.0</ele><time>2026-03-29T14:51:08Z</time></trkpt><trkpt lat="36.79969752088722" lon="-108.18472571366878"><ele>1724.0</ele><time>2026-03-29T14:51:09Z</time></trkpt><trkpt lat="36.7996349711073" lon="-108.18480976044634"><ele>1723.9999999999998</ele><time>2026-03-29T14:51:10Z</time></trkpt><trkpt lat="36.79959898830433" lon="-108.1848783256442"><ele>1724.0</ele><time>2026-03-29T14:51:11Z</time></trkpt><trkpt lat="36.79957349288013" lon="-108.18495339768694"><ele>1723.8333333333333</ele><time>2026-03-29T14:51:12Z</time></trkpt><trkpt lat="36.79955233135758" lon="-108.18503432546817"><ele>1723.6666666666665</ele><time>2026-03-29T14:51:13Z</time></trkpt><trkpt lat="36.7995626038075" lon="-108.18516678917275"><ele>1723.5</ele><time>2026-03-29T14:51:15Z</time></trkpt><trkpt lat="36.79968657092078" lon="-108.18521668411947"><ele>1723.3333333333335</ele><time>2026-03-29T14:51:17Z</time></trkpt><trkpt lat="36.7997362901048" lon="-108.18526814446203"><ele>1723.1666666666667</ele><time>2026-03-29T14:51:19Z</time></trkpt><trkpt lat="36.79976539420733" lon="-108.18518510168968"><ele>1723.0</ele><time>2026-03-29T14:53:47Z</time></trkpt><trkpt lat="36.79982527270907" lon="-108.18507156791865"><ele>1723.0</ele><time>2026-03-29T14:53:49Z</time></trkpt><trkpt lat="36.799900840462755" lon="-108.18496245064408"><ele>1723.0000000000002</ele><time>2026-03-29T14:53:51Z</time></trkpt><trkpt lat="36.79994458914161" lon="-108.18488323192216"><ele>1723.0000000000002</ele><time>2026-03-29T14:53:52Z</time></trkpt><trkpt lat="36.799990608608084" lon="-108.1848116436515"><ele>1723.0</ele><time>2026-03-29T14:53:53Z</time></trkpt><trkpt lat="36.80002182130138" lon="-108.18472698799049"><ele>1723.0</ele><time>2026-03-29T14:53:55Z</time></trkpt><trkpt lat="36.80009203274431" lon="-108.18462286653072"><ele>1723.0</ele><time>2026-03-29T14:53:57Z</time></trkpt><trkpt lat="36.800124990635545" lon="-108.18451967541137"><ele>1723.0000000000002</ele><time>2026-03-29T14:53:59Z</time></trkpt><trkpt lat="36.80016451134145" lon="-108.18439009134805"><ele>1723.0000000000002</ele><time>2026-03-29T14:54:01Z</time></trkpt><trkpt lat="36.80020834508692" lon="-108.18424521825166"><ele>1723.0</ele><time>2026-03-29T14:54:03Z</time></trkpt><trkpt lat="36.80020965607762" lon="-108.18415195634155"><ele>1723.0</ele><time>2026-03-29T14:54:04Z</time></trkpt><trkpt lat="36.80021673352788" lon="-108.18406528943231"><ele>1723.3333333333335</ele><time>2026-03-29T14:54:05Z</time></trkpt><trkpt lat="36.8002313341316" lon="-108.18396012432889"><ele>1723.6666666666667</ele><time>2026-03-29T14:54:06Z</time></trkpt><trkpt lat="36.80024449128659" lon="-108.18383509388207"><ele>1724.0</ele><time>2026-03-29T14:54:07Z</time></trkpt><trkpt lat="36.800238115387494" lon="-108.18374490902102"><ele>1724.3333333333335</ele><time>2026-03-29T14:54:08Z</time></trkpt><trkpt lat="36.80022860458928" lon="-108.18364619189018"><ele>1724.6666666666667</ele><time>2026-03-29T14:54:09Z</time></trkpt><trkpt lat="36.800232374446836" lon="-108.1835441650308"><ele>1725.0</ele><time>2026-03-29T14:54:10Z</time></trkpt><trkpt lat="36.80025818573904" lon="-108.18346181790751"><ele>1725.0</ele><time>2026-03-29T14:54:11Z</time></trkpt><trkpt lat="36.80032960913926" lon="-108.18338776621594"><ele>1725.0</ele><time>2026-03-29T14:54:13Z</time></trkpt><trkpt lat="36.80038163420453" lon="-108.18332193200807"><ele>1725.0</ele><time>2026-03-29T14:54:15Z</time></trkpt><trkpt lat="36.80044244438148" lon="-108.18323670177527"><ele>1725.0</ele><time>2026-03-29T14:54:17Z</time></trkpt><trkpt lat="36.800492941237806" lon="-108.18318058525851"><ele>1725.0</ele><time>2026-03-29T14:54:19Z</time></trkpt><trkpt lat="36.800544525885364" lon="-108.18311067543101"><ele>1725.0</ele><time>2026-03-29T14:54:20Z</time></trkpt><trkpt lat="36.80064176137466" lon="-108.1829965410006"><ele>1724.8</ele><time>2026-03-29T14:54:22Z</time></trkpt><trkpt lat="36.80069979925443" lon="-108.1829158768038"><ele>1724.6</ele><time>2026-03-29T14:54:23Z</time></trkpt><trkpt lat="36.80077434561937" lon="-108.1828512188063"><ele>1724.4</ele><time>2026-03-29T14:54:25Z</time></trkpt><trkpt lat="36.80085014974538" lon="-108.18277102575819"><ele>1724.2</ele><time>2026-03-29T14:54:27Z</time></trkpt><trkpt lat="36.8009560238946" lon="-108.18268437487272"><ele>1724.0</ele><time>2026-03-29T14:54:29Z</time></trkpt><trkpt lat="36.801016956692166" lon="-108.18265887045867"><ele>1724.0</ele><time>2026-03-29T14:54:30Z</time></trkpt><trkpt lat="36.80110696667105" lon="-108.18256663192811"><ele>1724.0</ele><time>2026-03-29T14:54:32Z</time></trkpt><trkpt lat="36.80118354619049" lon="-108.18251366252437"><ele>1724.0</ele><time>2026-03-29T14:54:34Z</time></trkpt><trkpt lat="36.801249450615714" lon="-108.18246467709662"><ele>1724.0</ele><time>2026-03-29T14:54:36Z</time></trkpt><trkpt lat="36.80130212706344" lon="-108.18239746884255"><ele>1724.0</ele><time>2026-03-29T14:54:38Z</time></trkpt><trkpt lat="36.80125833573402" lon="-108.18221988930607"><ele>1724.1666666666665</ele><time>2026-03-29T14:54:40Z</time></trkpt><trkpt lat="36.801261997547726" lon="-108.1821137292799"><ele>1724.3333333333333</ele><time>2026-03-29T14:54:42Z</time></trkpt><trkpt lat="36.80127348136868" lon="-108.18199047931445"><ele>1724.5</ele><time>2026-03-29T14:54:44Z</time></trkpt><trkpt lat="36.80129618926032" lon="-108.18191386418692"><ele>1724.6666666666665</ele><time>2026-03-29T14:54:45Z</time></trkpt><trkpt lat="36.80132249301423" lon="-108.18183537520693"><ele>1724.8333333333333</ele><time>2026-03-29T14:54:46Z</time></trkpt><trkpt lat="36.801349800087564" lon="-108.18175612954711"><ele>1725.0</ele><time>2026-03-29T14:54:47Z</time></trkpt><trkpt lat="36.8013763390974" lon="-108.18168377635172"><ele>1725.0</ele><time>2026-03-29T14:54:48Z</time></trkpt><trkpt lat="36.8013979177735" lon="-108.18155612596213"><ele>1725.0</ele><time>2026-03-29T14:54:50Z</time></trkpt><trkpt lat="36.801417974982165" lon="-108.18145813421424"><ele>1725.0</ele><time>2026-03-29T14:54:52Z</time></trkpt><trkpt lat="36.8014473170567" lon="-108.18136307233932"><ele>1725.0</ele><time>2026-03-29T14:54:57Z</time></trkpt><trkpt lat="36.801507686887874" lon="-108.18131776648477"><ele>1725.0</ele><time>2026-03-29T14:55:04Z</time></trkpt><trkpt lat="36.80145133205374" lon="-108.1812821892415"><ele>1725.0</ele><time>2026-03-29T14:55:08Z</time></trkpt><trkpt lat="36.80141987307125" lon="-108.18140872089207"><ele>1725.0</ele><time>2026-03-29T15:07:44Z</time></trkpt><trkpt lat="36.80138136334872" lon="-108.18152426318971"><ele>1725.0</ele><time>2026-03-29T15:07:45Z</time></trkpt><trkpt lat="36.80134713172888" lon="-108.18165260666215"><ele>1725.0</ele><time>2026-03-29T15:07:46Z</time></trkpt><trkpt lat="36.8013223472915" lon="-108.18180669253805"><ele>1725.0</ele><time>2026-03-29T15:07:47Z</time></trkpt><trkpt lat="36.801273907300946" lon="-108.18199268473417"><ele>1725.0</ele><time>2026-03-29T15:07:48Z</time></trkpt><trkpt lat="36.80120794852238" lon="-108.18218753430595"><ele>1725.0</ele><time>2026-03-29T15:07:49Z</time></trkpt><trkpt lat="36.80113580499206" lon="-108.18240247717485"><ele>1725.0</ele><time>2026-03-29T15:07:50Z</time></trkpt><trkpt lat="36.801058579192635" lon="-108.18261820108597"><ele>1725.0</ele><time>2026-03-29T15:07:51Z</time></trkpt><trkpt lat="36.80099680866024" lon="-108.18278225009193"><ele>1725.0</ele><time>2026-03-29T15:07:52Z</time></trkpt><trkpt lat="36.80096462121767" lon="-108.18296377235471"><ele>1725.0</ele><time>2026-03-29T15:07:53Z</time></trkpt><trkpt lat="36.800928864138235" lon="-108.18319116995444"><ele>1725.0</ele><time>2026-03-29T15:07:54Z</time></trkpt><trkpt lat="36.80088579512623" lon="-108.18344610706549"><ele>1725.0</ele><time>2026-03-29T15:07:55Z</time></trkpt><trkpt lat="36.80082479843732" lon="-108.18372143753795"><ele>1725.0</ele><time>2026-03-29T15:07:56Z</time></trkpt><trkpt lat="36.8007586153438" lon="-108.18399691098939"><ele>1724.0</ele><time>2026-03-29T15:07:57Z</time></trkpt><trkpt lat="36.800681402712485" lon="-108.18427897548418"><ele>1723.0</ele><time>2026-03-29T15:07:58Z</time></trkpt><trkpt lat="36.80060037946379" lon="-108.18457883945845"><ele>1723.3333333333335</ele><time>2026-03-29T15:07:59Z</time></trkpt><trkpt lat="36.80052117527559" lon="-108.18485370950476"><ele>1723.6666666666665</ele><time>2026-03-29T15:08:00Z</time></trkpt><trkpt lat="36.80043799364183" lon="-108.18506380009983"><ele>1724.0</ele><time>2026-03-29T15:08:01Z</time></trkpt><trkpt lat="36.800346810989964" lon="-108.18527651397105"><ele>1724.0</ele><time>2026-03-29T15:08:02Z</time></trkpt><trkpt lat="36.80022138278968" lon="-108.18551939575173"><ele>1724.0</ele><time>2026-03-29T15:08:03Z</time></trkpt><trkpt lat="36.80006863549119" lon="-108.18577011595559"><ele>1722.5</ele><time>2026-03-29T15:08:04Z</time></trkpt><trkpt lat="36.7998996433481" lon="-108.18600675063738"><ele>1721.0</ele><time>2026-03-29T15:08:04.999Z</time></trkpt><trkpt lat="36.79971345353439" lon="-108.1862285816978"><ele>1721.0</ele><time>2026-03-29T15:08:05.999Z</time></trkpt><trkpt lat="36.79953108902041" lon="-108.1864347266924"><ele>1721.0</ele><time>2026-03-29T15:08:06.999Z</time></trkpt><trkpt lat="36.79939755461736" lon="-108.18659282093981"><ele>1721.0</ele><time>2026-03-29T15:08:07.999Z</time></trkpt><trkpt lat="36.799299439453335" lon="-108.18670739938736"><ele>1722.0</ele><time>2026-03-29T15:08:08.999Z</time></trkpt><trkpt lat="36.799176397087926" lon="-108.18680315846868"><ele>1723.0</ele><time>2026-03-29T15:08:09.999Z</time></trkpt><trkpt lat="36.79900903302175" lon="-108.18688491647396"><ele>1724.0</ele><time>2026-03-29T15:08:10.999Z</time></trkpt><trkpt lat="36.7988124193821" lon="-108.18694339070785"><ele>1724.0</ele><time>2026-03-29T15:08:11.999Z</time></trkpt><trkpt lat="36.79860886579256" lon="-108.18700859874396"><ele>1724.0</ele><time>2026-03-29T15:08:12.999Z</time></trkpt><trkpt lat="36.79845584570882" lon="-108.1870577725354"><ele>1724.0</ele><time>2026-03-29T15:08:13.999Z</time></trkpt><trkpt lat="36.79833010434621" lon="-108.18712965996927"><ele>1724.0</ele><time>2026-03-29T15:08:14.999Z</time></trkpt><trkpt lat="36.79818106046234" lon="-108.187213060314"><ele>1724.0</ele><time>2026-03-29T15:08:15.999Z</time></trkpt><trkpt lat="36.798040296928235" lon="-108.18730655172499"><ele>1724.0</ele><time>2026-03-29T15:08:16.999Z</time></trkpt><trkpt lat="36.79794511259002" lon="-108.18737136046"><ele>1724.0</ele><time>2026-03-29T15:08:17.999Z</time></trkpt><trkpt lat="36.797869641063144" lon="-108.18743066234795"><ele>1724.0</ele><time>2026-03-29T15:08:18.999Z</time></trkpt><trkpt lat="36.79784906710702" lon="-108.18754247148026"><ele>1724.0</ele><time>2026-03-29T15:08:20.999Z</time></trkpt><trkpt lat="36.7979321777882" lon="-108.18761871610029"><ele>1724.0</ele><time>2026-03-29T15:08:21.999Z</time></trkpt><trkpt lat="36.79801801571396" lon="-108.18772660158089"><ele>1724.0</ele><time>2026-03-29T15:08:22.999Z</time></trkpt><trkpt lat="36.798087987996084" lon="-108.187848677975"><ele>1724.0</ele><time>2026-03-29T15:08:23.999Z</time></trkpt><trkpt lat="36.79813137579474" lon="-108.1879153028761"><ele>1723.9999999999998</ele><time>2026-03-29T15:08:24.999Z</time></trkpt><trkpt lat="36.79821678088754" lon="-108.18799621703411"><ele>1724.0</ele><time>2026-03-29T15:08:26.999Z</time></trkpt><trkpt lat="36.798296294696804" lon="-108.18803023152176"><ele>1724.0</ele><time>2026-03-29T15:08:27.999Z</time></trkpt><trkpt lat="36.798371509353984" lon="-108.18808232934481"><ele>1724.0</ele><time>2026-03-29T15:08:28.999Z</time></trkpt><trkpt lat="36.798443744093" lon="-108.18813976261376"><ele>1723.9999999999998</ele><time>2026-03-29T15:08:29.999Z</time></trkpt><trkpt lat="36.798513917246545" lon="-108.18818206977667"><ele>1724.0</ele><time>2026-03-29T15:08:30.999Z</time></trkpt><trkpt lat="36.79854790206148" lon="-108.18831912597244"><ele>1726.0</ele><time>2026-03-29T15:08:32.999Z</time></trkpt><trkpt lat="36.798564147447806" lon="-108.18840206923802"><ele>1728.0</ele><time>2026-03-29T15:08:33.999Z</time></trkpt><trkpt lat="36.798593230941755" lon="-108.18847820203935"><ele>1730.0</ele><time>2026-03-29T15:08:34.999Z</time></trkpt><trkpt lat="36.798676436638836" lon="-108.18852645714456"><ele>1732.0</ele><time>2026-03-29T15:08:36.999Z</time></trkpt><trkpt lat="36.798711370865966" lon="-108.18865502336234"><ele>1734.0</ele><time>2026-03-29T15:08:38.999Z</time></trkpt><trkpt lat="36.79878223716906" lon="-108.1887810071682"><ele>1734.0</ele><time>2026-03-29T15:08:40.999Z</time></trkpt><trkpt lat="36.798839071058744" lon="-108.18882111973713"><ele>1734.0</ele><time>2026-03-29T15:08:41.999Z</time></trkpt><trkpt lat="36.79894680127179" lon="-108.18883449430153"><ele>1734.0</ele><time>2026-03-29T15:08:42.999Z</time></trkpt><trkpt lat="36.79903254927846" lon="-108.18881532580535"><ele>1734.0</ele><time>2026-03-29T15:08:43.999Z</time></trkpt><trkpt lat="36.7991151301194" lon="-108.1888094793795"><ele>1734.0</ele><time>2026-03-29T15:08:45.999Z</time></trkpt><trkpt lat="36.79920914925739" lon="-108.18876508221526"><ele>1734.0</ele><time>2026-03-29T15:08:46.999Z</time></trkpt><trkpt lat="36.79930547164859" lon="-108.18872500407396"><ele>1735.4</ele><time>2026-03-29T15:08:47.999Z</time></trkpt><trkpt lat="36.79940229530963" lon="-108.18872318944489"><ele>1736.8000000000002</ele><time>2026-03-29T15:08:48.999Z</time></trkpt><trkpt lat="36.799496626133546" lon="-108.1887123919516"><ele>1738.1999999999998</ele><time>2026-03-29T15:08:50.999Z</time></trkpt><trkpt lat="36.799562128563984" lon="-108.1887444746528"><ele>1739.6</ele><time>2026-03-29T15:08:51.999Z</time></trkpt><trkpt lat="36.799668159159964" lon="-108.18876705039142"><ele>1741.0</ele><time>2026-03-29T15:08:52.999Z</time></trkpt><trkpt lat="36.79976799879341" lon="-108.18874897491891"><ele>1741.0000000000002</ele><time>2026-03-29T15:08:53.999Z</time></trkpt><trkpt lat="36.799866679917365" lon="-108.188765747527"><ele>1741.0</ele><time>2026-03-29T15:08:55.999Z</time></trkpt><trkpt lat="36.799921301820575" lon="-108.18881961753046"><ele>1741.0</ele><time>2026-03-29T15:08:56.999Z</time></trkpt><trkpt lat="36.80000704937019" lon="-108.1888795148566"><ele>1741.0</ele><time>2026-03-29T15:08:57.999Z</time></trkpt><trkpt lat="36.80009676703467" lon="-108.18889237346987"><ele>1741.0000000000002</ele><time>2026-03-29T15:08:58.999Z</time></trkpt><trkpt lat="36.80015907480007" lon="-108.1888760734357"><ele>1741.0</ele><time>2026-03-29T15:08:59.999Z</time></trkpt><trkpt lat="36.800212363817934" lon="-108.18881958726205"><ele>1742.6</ele><time>2026-03-29T15:09:00.999Z</time></trkpt><trkpt lat="36.800317987115434" lon="-108.1887760269837"><ele>1744.1999999999998</ele><time>2026-03-29T15:09:02.999Z</time></trkpt><trkpt lat="36.800392850512914" lon="-108.18881930759058"><ele>1745.8000000000002</ele><time>2026-03-29T15:09:03.999Z</time></trkpt><trkpt lat="36.80048904401667" lon="-108.18884661741914"><ele>1747.4</ele><time>2026-03-29T15:09:04.999Z</time></trkpt><trkpt lat="36.80059651710216" lon="-108.18885824941778"><ele>1749.0</ele><time>2026-03-29T15:09:05.999Z</time></trkpt><trkpt lat="36.80070785793257" lon="-108.18885429577006"><ele>1749.0</ele><time>2026-03-29T15:09:06.999Z</time></trkpt><trkpt lat="36.800819154619326" lon="-108.18880350979207"><ele>1749.0</ele><time>2026-03-29T15:09:07.999Z</time></trkpt><trkpt lat="36.80095614307327" lon="-108.18871101853244"><ele>1749.0</ele><time>2026-03-29T15:09:08.999Z</time></trkpt><trkpt lat="36.80109299953763" lon="-108.18858873926199"><ele>1749.0</ele><time>2026-03-29T15:09:09.999Z</time></trkpt><trkpt lat="36.801229059013764" lon="-108.18847531268811"><ele>1749.25</ele><time>2026-03-29T15:09:10.999Z</time></trkpt><trkpt lat="36.80135106666665" lon="-108.1883613780006"><ele>1749.5</ele><time>2026-03-29T15:09:11.999Z</time></trkpt><trkpt lat="36.801464078235654" lon="-108.18826588972898"><ele>1749.75</ele><time>2026-03-29T15:09:12.999Z</time></trkpt><trkpt lat="36.801567115702014" lon="-108.188222102436"><ele>1750.0</ele><time>2026-03-29T15:09:13.999Z</time></trkpt><trkpt lat="36.8017072163289" lon="-108.18820436749756"><ele>1749.6666666666667</ele><time>2026-03-29T15:09:15Z</time></trkpt><trkpt lat="36.80186069645682" lon="-108.18817872059026"><ele>1749.3333333333335</ele><time>2026-03-29T15:09:16Z</time></trkpt><trkpt lat="36.8019936189511" lon="-108.18808860023388"><ele>1749.0</ele><time>2026-03-29T15:09:17Z</time></trkpt><trkpt lat="36.80210857644593" lon="-108.18794898084134"><ele>1749.0</ele><time>2026-03-29T15:09:18Z</time></trkpt><trkpt lat="36.8022425631273" lon="-108.187782924223"><ele>1749.0</ele><time>2026-03-29T15:09:19Z</time></trkpt><trkpt lat="36.8023930785987" lon="-108.18763852335198"><ele>1749.0</ele><time>2026-03-29T15:09:20Z</time></trkpt><trkpt lat="36.80254996911781" lon="-108.18750922935371"><ele>1749.0</ele><time>2026-03-29T15:09:21Z</time></trkpt><trkpt lat="36.80270812124538" lon="-108.18738460750606"><ele>1749.0</ele><time>2026-03-29T15:09:22Z</time></trkpt><trkpt lat="36.8028593376668" lon="-108.18728250274074"><ele>1749.0</ele><time>2026-03-29T15:09:23Z</time></trkpt><trkpt lat="36.80301088854079" lon="-108.18720624002029"><ele>1749.5</ele><time>2026-03-29T15:09:24Z</time></trkpt><trkpt lat="36.803153950556585" lon="-108.18714719684529"><ele>1750.0</ele><time>2026-03-29T15:09:25Z</time></trkpt><trkpt lat="36.80326288310947" lon="-108.18708117961778"><ele>1750.5</ele><time>2026-03-29T15:09:26Z</time></trkpt><trkpt lat="36.80334693253778" lon="-108.18698642076444"><ele>1751.0</ele><time>2026-03-29T15:09:27Z</time></trkpt><trkpt lat="36.80342099484772" lon="-108.18687219077124"><ele>1751.0</ele><time>2026-03-29T15:09:28Z</time></trkpt><trkpt lat="36.80349534154011" lon="-108.18675807140606"><ele>1751.0</ele><time>2026-03-29T15:09:29Z</time></trkpt><trkpt lat="36.803598299496386" lon="-108.18663540293484"><ele>1751.0</ele><time>2026-03-29T15:09:30Z</time></trkpt><trkpt lat="36.80369582317109" lon="-108.18652573196937"><ele>1751.0</ele><time>2026-03-29T15:09:31Z</time></trkpt><trkpt lat="36.803789589151634" lon="-108.18639807401175"><ele>1751.25</ele><time>2026-03-29T15:09:32Z</time></trkpt><trkpt lat="36.80384725927147" lon="-108.18626938924106"><ele>1751.5</ele><time>2026-03-29T15:09:33Z</time></trkpt><trkpt lat="36.80391487115674" lon="-108.18613080916415"><ele>1751.75</ele><time>2026-03-29T15:09:34Z</time></trkpt><trkpt lat="36.803996083239284" lon="-108.18603610854335"><ele>1752.0</ele><time>2026-03-29T15:09:35Z</time></trkpt><trkpt lat="36.80409077536614" lon="-108.18596280979588"><ele>1752.0</ele><time>2026-03-29T15:09:36Z</time></trkpt><trkpt lat="36.804192353900085" lon="-108.1858790776225"><ele>1752.0</ele><time>2026-03-29T15:09:37Z</time></trkpt><trkpt lat="36.804300340051924" lon="-108.18577246279506"><ele>1752.0</ele><time>2026-03-29T15:09:39Z</time></trkpt><trkpt lat="36.80442341154195" lon="-108.18568194219061"><ele>1752.0</ele><time>2026-03-29T15:09:40Z</time></trkpt><trkpt lat="36.804538046792466" lon="-108.18561084024563"><ele>1753.0</ele><time>2026-03-29T15:09:41Z</time></trkpt><trkpt lat="36.80465369553352" lon="-108.1855117285313"><ele>1754.0</ele><time>2026-03-29T15:09:42Z</time></trkpt><trkpt lat="36.804767254512846" lon="-108.1853919875387"><ele>1755.0</ele><time>2026-03-29T15:09:43Z</time></trkpt><trkpt lat="36.80490143559367" lon="-108.1852772354631"><ele>1755.0</ele><time>2026-03-29T15:09:44Z</time></trkpt><trkpt lat="36.80503824277633" lon="-108.18515876471392"><ele>1755.0</ele><time>2026-03-29T15:09:45Z</time></trkpt><trkpt lat="36.80519635411382" lon="-108.18502221242713"><ele>1755.0</ele><time>2026-03-29T15:09:46Z</time></trkpt><trkpt lat="36.80534125075722" lon="-108.18486120696964"><ele>1754.3333333333335</ele><time>2026-03-29T15:09:47Z</time></trkpt><trkpt lat="36.80549464637538" lon="-108.1846977740387"><ele>1753.6666666666667</ele><time>2026-03-29T15:09:48Z</time></trkpt><trkpt lat="36.80561850479266" lon="-108.18456790788784"><ele>1753.0</ele><time>2026-03-29T15:09:49Z</time></trkpt><trkpt lat="36.80570912032578" lon="-108.1844729169748"><ele>1753.0</ele><time>2026-03-29T15:09:50Z</time></trkpt><trkpt lat="36.80580195709453" lon="-108.18434865355027"><ele>1753.0</ele><time>2026-03-29T15:09:51Z</time></trkpt><trkpt lat="36.80588244325156" lon="-108.18418369295425"><ele>1753.0</ele><time>2026-03-29T15:09:52Z</time></trkpt><trkpt lat="36.80596627046382" lon="-108.18400813219618"><ele>1754.0</ele><time>2026-03-29T15:09:53Z</time></trkpt><trkpt lat="36.8060764167318" lon="-108.1838291955982"><ele>1755.0</ele><time>2026-03-29T15:09:54Z</time></trkpt><trkpt lat="36.806179047935515" lon="-108.18369047352093"><ele>1756.0</ele><time>2026-03-29T15:09:55Z</time></trkpt><trkpt lat="36.80628720593504" lon="-108.18360092352489"><ele>1756.0</ele><time>2026-03-29T15:09:56Z</time></trkpt><trkpt lat="36.80640793541595" lon="-108.18351864503468"><ele>1756.0</ele><time>2026-03-29T15:09:57Z</time></trkpt><trkpt lat="36.80650652171721" lon="-108.18339217629651"><ele>1756.0</ele><time>2026-03-29T15:09:58Z</time></trkpt><trkpt lat="36.80661428107582" lon="-108.18327004274059"><ele>1756.0</ele><time>2026-03-29T15:09:59Z</time></trkpt><trkpt lat="36.806724884466206" lon="-108.18318585540338"><ele>1758.0</ele><time>2026-03-29T15:10:00Z</time></trkpt><trkpt lat="36.80687632709701" lon="-108.18308274095253"><ele>1760.0</ele><time>2026-03-29T15:10:01Z</time></trkpt><trkpt lat="36.8070110676272" lon="-108.18296915307967"><ele>1762.0</ele><time>2026-03-29T15:10:02Z</time></trkpt><trkpt lat="36.807136138126786" lon="-108.1828294041083"><ele>1762.0</ele><time>2026-03-29T15:10:03Z</time></trkpt><trkpt lat="36.80726952720644" lon="-108.18267437490712"><ele>1762.0</ele><time>2026-03-29T15:10:04Z</time></trkpt><trkpt lat="36.80739935936367" lon="-108.1825303228923"><ele>1762.0</ele><time>2026-03-29T15:10:05Z</time></trkpt><trkpt lat="36.80748412903379" lon="-108.18242323060453"><ele>1762.0000000000002</ele><time>2026-03-29T15:10:06Z</time></trkpt><trkpt lat="36.807541186687935" lon="-108.18233079980061"><ele>1762.0</ele><time>2026-03-29T15:10:07Z</time></trkpt><trkpt lat="36.807582430803684" lon="-108.18222739463926"><ele>1762.0</ele><time>2026-03-29T15:10:08Z</time></trkpt><trkpt lat="36.80761456393836" lon="-108.18211859229739"><ele>1762.0</ele><time>2026-03-29T15:10:09Z</time></trkpt><trkpt lat="36.807640227043684" lon="-108.18203400637232"><ele>1762.0000000000002</ele><time>2026-03-29T15:10:10Z</time></trkpt><trkpt lat="36.807672495113756" lon="-108.18192838780789"><ele>1762.0</ele><time>2026-03-29T15:10:11Z</time></trkpt><trkpt lat="36.80772395359046" lon="-108.18185143689816"><ele>1763.75</ele><time>2026-03-29T15:10:13Z</time></trkpt><trkpt lat="36.80786938501878" lon="-108.18182445829693"><ele>1765.5</ele><time>2026-03-29T15:10:15Z</time></trkpt><trkpt lat="36.80796882703585" lon="-108.18178720824932"><ele>1767.25</ele><time>2026-03-29T15:10:16Z</time></trkpt><trkpt lat="36.80806907648011" lon="-108.18180876604639"><ele>1769.0</ele><time>2026-03-29T15:10:17Z</time></trkpt><trkpt lat="36.80817456117871" lon="-108.18189139451299"><ele>1769.0</ele><time>2026-03-29T15:10:18Z</time></trkpt><trkpt lat="36.808274269068434" lon="-108.1819795947449"><ele>1769.0</ele><time>2026-03-29T15:10:19Z</time></trkpt><trkpt lat="36.808378041789" lon="-108.18202531824491"><ele>1769.0</ele><time>2026-03-29T15:10:20Z</time></trkpt><trkpt lat="36.808500006932455" lon="-108.18208198346859"><ele>1769.0</ele><time>2026-03-29T15:10:21Z</time></trkpt><trkpt lat="36.808619863149076" lon="-108.18213045449151"><ele>1769.2</ele><time>2026-03-29T15:10:22Z</time></trkpt><trkpt lat="36.808701850050426" lon="-108.18211217292937"><ele>1769.4</ele><time>2026-03-29T15:10:23Z</time></trkpt><trkpt lat="36.80880549571559" lon="-108.18207221599104"><ele>1769.6</ele><time>2026-03-29T15:10:24Z</time></trkpt><trkpt lat="36.80887725140286" lon="-108.18199759135473"><ele>1769.8</ele><time>2026-03-29T15:10:25Z</time></trkpt><trkpt lat="36.80893603898164" lon="-108.18188432108748"><ele>1770.0</ele><time>2026-03-29T15:10:26Z</time></trkpt><trkpt lat="36.80901649446985" lon="-108.18178820406818"><ele>1770.0</ele><time>2026-03-29T15:10:27Z</time></trkpt><trkpt lat="36.80910517081851" lon="-108.18169795849255"><ele>1770.0</ele><time>2026-03-29T15:10:28Z</time></trkpt><trkpt lat="36.80921356524087" lon="-108.18160392613339"><ele>1770.0</ele><time>2026-03-29T15:10:29Z</time></trkpt><trkpt lat="36.8093612011186" lon="-108.18151476530257"><ele>1770.0</ele><time>2026-03-29T15:10:30Z</time></trkpt><trkpt lat="36.809478200877294" lon="-108.18147599357589"><ele>1771.0</ele><time>2026-03-29T15:10:31Z</time></trkpt><trkpt lat="36.80960993055356" lon="-108.1814333000353"><ele>1772.0</ele><time>2026-03-29T15:10:32Z</time></trkpt><trkpt lat="36.809741264916745" lon="-108.18137486639516"><ele>1773.0</ele><time>2026-03-29T15:10:33Z</time></trkpt><trkpt lat="36.80984299307092" lon="-108.18125899264383"><ele>1774.0</ele><time>2026-03-29T15:10:34Z</time></trkpt><trkpt lat="36.80994863718604" lon="-108.18114404321324"><ele>1774.0</ele><time>2026-03-29T15:10:35Z</time></trkpt><trkpt lat="36.810093120376976" lon="-108.18105917367468"><ele>1774.0</ele><time>2026-03-29T15:10:36Z</time></trkpt><trkpt lat="36.81023044219539" lon="-108.18096648963137"><ele>1774.0</ele><time>2026-03-29T15:10:37Z</time></trkpt><trkpt lat="36.8103467915936" lon="-108.18087398181314"><ele>1774.6666666666667</ele><time>2026-03-29T15:10:38Z</time></trkpt><trkpt lat="36.81043337761299" lon="-108.18076596158491"><ele>1775.3333333333335</ele><time>2026-03-29T15:10:39Z</time></trkpt><trkpt lat="36.81053532445194" lon="-108.18061561626654"><ele>1776.0</ele><time>2026-03-29T15:10:40Z</time></trkpt><trkpt lat="36.81065891220993" lon="-108.18046505959987"><ele>1775.6</ele><time>2026-03-29T15:10:41Z</time></trkpt><trkpt lat="36.81076065494958" lon="-108.18036203385124"><ele>1775.1999999999998</ele><time>2026-03-29T15:10:42Z</time></trkpt><trkpt lat="36.81086271066327" lon="-108.18029916666333"><ele>1774.8000000000002</ele><time>2026-03-29T15:10:43Z</time></trkpt><trkpt lat="36.810961139536644" lon="-108.18029007958283"><ele>1774.4</ele><time>2026-03-29T15:10:44Z</time></trkpt><trkpt lat="36.81105920534372" lon="-108.18032633734714"><ele>1774.0</ele><time>2026-03-29T15:10:44.999Z</time></trkpt><trkpt lat="36.81115199300757" lon="-108.1804190370369"><ele>1774.0</ele><time>2026-03-29T15:10:45.999Z</time></trkpt><trkpt lat="36.811269829020375" lon="-108.18053087970507"><ele>1774.0</ele><time>2026-03-29T15:10:46.999Z</time></trkpt><trkpt lat="36.811366685967435" lon="-108.18058245447473"><ele>1774.0</ele><time>2026-03-29T15:10:47.999Z</time></trkpt><trkpt lat="36.81146612933735" lon="-108.18059455758595"><ele>1774.0</ele><time>2026-03-29T15:10:48.999Z</time></trkpt><trkpt lat="36.81159426749137" lon="-108.18060564503843"><ele>1774.0</ele><time>2026-03-29T15:10:49.999Z</time></trkpt><trkpt lat="36.811707441336026" lon="-108.18058307786254"><ele>1774.0</ele><time>2026-03-29T15:10:50.999Z</time></trkpt><trkpt lat="36.811806083289916" lon="-108.18059490215198"><ele>1774.0</ele><time>2026-03-29T15:10:51.999Z</time></trkpt><trkpt lat="36.81193994410456" lon="-108.1806188263608"><ele>1774.0</ele><time>2026-03-29T15:10:52.999Z</time></trkpt><trkpt lat="36.81208748874985" lon="-108.18067140712199"><ele>1774.2</ele><time>2026-03-29T15:10:53.999Z</time></trkpt><trkpt lat="36.81220769242708" lon="-108.18074221073644"><ele>1774.4</ele><time>2026-03-29T15:10:54.999Z</time></trkpt><trkpt lat="36.81228977908138" lon="-108.18075494257566"><ele>1774.6</ele><time>2026-03-29T15:10:55.999Z</time></trkpt><trkpt lat="36.81238930968044" lon="-108.18075491836214"><ele>1774.8</ele><time>2026-03-29T15:10:56.999Z</time></trkpt><trkpt lat="36.81252070615129" lon="-108.18076081273867"><ele>1775.0</ele><time>2026-03-29T15:10:57.999Z</time></trkpt><trkpt lat="36.812659023568365" lon="-108.18079943580791"><ele>1776.0</ele><time>2026-03-29T15:10:58.999Z</time></trkpt><trkpt lat="36.812781649819605" lon="-108.18085756370057"><ele>1777.0</ele><time>2026-03-29T15:10:59.999Z</time></trkpt><trkpt lat="36.81289402687185" lon="-108.18092940871834"><ele>1778.0</ele><time>2026-03-29T15:11:00.999Z</time></trkpt><trkpt lat="36.8130264681785" lon="-108.18102281000125"><ele>1779.0</ele><time>2026-03-29T15:11:01.999Z</time></trkpt><trkpt lat="36.813158078131245" lon="-108.18108936599988"><ele>1779.0</ele><time>2026-03-29T15:11:02.999Z</time></trkpt><trkpt lat="36.81328060266769" lon="-108.18114585006512"><ele>1779.0</ele><time>2026-03-29T15:11:03.999Z</time></trkpt><trkpt lat="36.81339902332921" lon="-108.18122320891693"><ele>1779.0</ele><time>2026-03-29T15:11:04.999Z</time></trkpt><trkpt lat="36.81353059377907" lon="-108.1812880462534"><ele>1779.0</ele><time>2026-03-29T15:11:05.999Z</time></trkpt><trkpt lat="36.81365565464136" lon="-108.18138725425318"><ele>1779.0</ele><time>2026-03-29T15:11:06.999Z</time></trkpt><trkpt lat="36.81377570511019" lon="-108.18148565382616"><ele>1779.0</ele><time>2026-03-29T15:11:07.999Z</time></trkpt><trkpt lat="36.8139137147085" lon="-108.18153633491617"><ele>1779.0</ele><time>2026-03-29T15:11:08.999Z</time></trkpt><trkpt lat="36.81405707627962" lon="-108.18152468394082"><ele>1779.0</ele><time>2026-03-29T15:11:09.999Z</time></trkpt><trkpt lat="36.81418868228421" lon="-108.1815227885872"><ele>1779.0</ele><time>2026-03-29T15:11:10.999Z</time></trkpt><trkpt lat="36.81430084873432" lon="-108.18154755227081"><ele>1779.0</ele><time>2026-03-29T15:11:11.999Z</time></trkpt><trkpt lat="36.81435621241939" lon="-108.18160885891449"><ele>1779.0</ele><time>2026-03-29T15:11:13.999Z</time></trkpt><trkpt lat="36.814330469566286" lon="-108.18170578731674"><ele>1779.0</ele><time>2026-03-29T15:11:15.999Z</time></trkpt><trkpt lat="36.81431526435286" lon="-108.18180119572256"><ele>1779.0</ele><time>2026-03-29T15:11:16.999Z</time></trkpt><trkpt lat="36.81429940483676" lon="-108.1819205660908"><ele>1779.0</ele><time>2026-03-29T15:11:17.999Z</time></trkpt><trkpt lat="36.81433704269903" lon="-108.18208619614605"><ele>1779.25</ele><time>2026-03-29T15:11:18.999Z</time></trkpt><trkpt lat="36.81438885361334" lon="-108.1822587185276"><ele>1779.5</ele><time>2026-03-29T15:11:19.999Z</time></trkpt><trkpt lat="36.81443422604725" lon="-108.18243449927866"><ele>1779.75</ele><time>2026-03-29T15:11:21Z</time></trkpt><trkpt lat="36.814483123671856" lon="-108.18260791957957"><ele>1780.0</ele><time>2026-03-29T15:11:22Z</time></trkpt><trkpt lat="36.81453896842195" lon="-108.18279285276773"><ele>1779.5</ele><time>2026-03-29T15:11:23Z</time></trkpt><trkpt lat="36.81457937403644" lon="-108.18296826030648"><ele>1779.0</ele><time>2026-03-29T15:11:24Z</time></trkpt><trkpt lat="36.81460866352043" lon="-108.18315746154808"><ele>1778.5</ele><time>2026-03-29T15:11:25Z</time></trkpt><trkpt lat="36.81465083560705" lon="-108.18332470012899"><ele>1778.0</ele><time>2026-03-29T15:11:26Z</time></trkpt><trkpt lat="36.81470190093535" lon="-108.18350873678486"><ele>1777.0</ele><time>2026-03-29T15:11:27Z</time></trkpt><trkpt lat="36.81473758686938" lon="-108.18366308535578"><ele>1776.0</ele><time>2026-03-29T15:11:28Z</time></trkpt><trkpt lat="36.8147655514737" lon="-108.1838068449815"><ele>1775.0</ele><time>2026-03-29T15:11:29Z</time></trkpt><trkpt lat="36.81478756046321" lon="-108.18394413808358"><ele>1774.0</ele><time>2026-03-29T15:11:30Z</time></trkpt><trkpt lat="36.81481804816006" lon="-108.18409972166818"><ele>1773.0</ele><time>2026-03-29T15:11:31Z</time></trkpt><trkpt lat="36.81485406885435" lon="-108.18427205780716"><ele>1772.0</ele><time>2026-03-29T15:11:32Z</time></trkpt><trkpt lat="36.81489537737954" lon="-108.18440973495626"><ele>1771.0</ele><time>2026-03-29T15:11:33Z</time></trkpt><trkpt lat="36.81494154496454" lon="-108.18451869173246"><ele>1770.0</ele><time>2026-03-29T15:11:34Z</time></trkpt><trkpt lat="36.814967034716716" lon="-108.18463283733234"><ele>1770.0</ele><time>2026-03-29T15:11:35Z</time></trkpt><trkpt lat="36.81499724619727" lon="-108.18478444654562"><ele>1770.0</ele><time>2026-03-29T15:11:36Z</time></trkpt><trkpt lat="36.815027279086586" lon="-108.18497032023701"><ele>1770.0</ele><time>2026-03-29T15:11:37Z</time></trkpt><trkpt lat="36.815057975865116" lon="-108.18511581195818"><ele>1770.0</ele><time>2026-03-29T15:11:38Z</time></trkpt><trkpt lat="36.81507900885308" lon="-108.18522096984786"><ele>1769.0</ele><time>2026-03-29T15:11:39Z</time></trkpt><trkpt lat="36.81505924801435" lon="-108.18535952763166"><ele>1768.0</ele><time>2026-03-29T15:11:41Z</time></trkpt><trkpt lat="36.81502874250258" lon="-108.18543979458026"><ele>1767.0</ele><time>2026-03-29T15:11:42Z</time></trkpt><trkpt lat="36.81500817700065" lon="-108.18556295317153"><ele>1766.0</ele><time>2026-03-29T15:11:43Z</time></trkpt><trkpt lat="36.814982260584166" lon="-108.18572609193072"><ele>1765.0</ele><time>2026-03-29T15:11:44Z</time></trkpt><trkpt lat="36.81496810505223" lon="-108.18589913641333"><ele>1764.2</ele><time>2026-03-29T15:11:45Z</time></trkpt><trkpt lat="36.814979216168304" lon="-108.18604353663139"><ele>1763.4</ele><time>2026-03-29T15:11:46Z</time></trkpt><trkpt lat="36.81497561421337" lon="-108.18613694362477"><ele>1762.6</ele><time>2026-03-29T15:11:47Z</time></trkpt><trkpt lat="36.81494638645927" lon="-108.18621347713788"><ele>1761.8</ele><time>2026-03-29T15:11:48Z</time></trkpt><trkpt lat="36.81490189708358" lon="-108.18632738038772"><ele>1761.0</ele><time>2026-03-29T15:11:49Z</time></trkpt><trkpt lat="36.81484396551428" lon="-108.186484561536"><ele>1760.0</ele><time>2026-03-29T15:11:50Z</time></trkpt><trkpt lat="36.81481023752842" lon="-108.18664210820708"><ele>1759.0</ele><time>2026-03-29T15:11:51Z</time></trkpt><trkpt lat="36.814795211536484" lon="-108.18681290205537"><ele>1758.0</ele><time>2026-03-29T15:11:52Z</time></trkpt><trkpt lat="36.81478977331673" lon="-108.18699229932048"><ele>1757.0</ele><time>2026-03-29T15:11:53Z</time></trkpt><trkpt lat="36.8148020077347" lon="-108.18716216234345"><ele>1757.0</ele><time>2026-03-29T15:11:54Z</time></trkpt><trkpt lat="36.8148307255001" lon="-108.18733780156975"><ele>1757.0</ele><time>2026-03-29T15:11:55Z</time></trkpt><trkpt lat="36.814849523389945" lon="-108.18747117842985"><ele>1757.0</ele><time>2026-03-29T15:11:56Z</time></trkpt><trkpt lat="36.814879953485594" lon="-108.18759411495151"><ele>1757.0</ele><time>2026-03-29T15:11:57Z</time></trkpt><trkpt lat="36.814956497578414" lon="-108.18769276855814"><ele>1756.6</ele><time>2026-03-29T15:11:58Z</time></trkpt><trkpt lat="36.81503858787529" lon="-108.18780735478096"><ele>1756.1999999999998</ele><time>2026-03-29T15:11:59Z</time></trkpt><trkpt lat="36.815108077049835" lon="-108.18792995990363"><ele>1755.8</ele><time>2026-03-29T15:12:00Z</time></trkpt><trkpt lat="36.81515499732124" lon="-108.18803521395417"><ele>1755.4</ele><time>2026-03-29T15:12:01Z</time></trkpt><trkpt lat="36.815197492662925" lon="-108.18813896534918"><ele>1755.0</ele><time>2026-03-29T15:12:02Z</time></trkpt><trkpt lat="36.81524651718984" lon="-108.18824013004"><ele>1754.6</ele><time>2026-03-29T15:12:03Z</time></trkpt><trkpt lat="36.81530266741144" lon="-108.18833085442841"><ele>1754.2</ele><time>2026-03-29T15:12:04Z</time></trkpt><trkpt lat="36.815353235584354" lon="-108.18843219965656"><ele>1753.8000000000002</ele><time>2026-03-29T15:12:05Z</time></trkpt><trkpt lat="36.81541354190465" lon="-108.18855025506733"><ele>1753.4</ele><time>2026-03-29T15:12:06Z</time></trkpt><trkpt lat="36.81549557679197" lon="-108.18866555124194"><ele>1753.0</ele><time>2026-03-29T15:12:07Z</time></trkpt><trkpt lat="36.81555914594328" lon="-108.1887889828608"><ele>1753.0</ele><time>2026-03-29T15:12:08Z</time></trkpt><trkpt lat="36.81559285836345" lon="-108.18892367135719"><ele>1753.0000000000002</ele><time>2026-03-29T15:12:09Z</time></trkpt><trkpt lat="36.81562664572308" lon="-108.18904754175891"><ele>1753.0000000000002</ele><time>2026-03-29T15:12:10Z</time></trkpt><trkpt lat="36.81564924352038" lon="-108.1891401864722"><ele>1753.0</ele><time>2026-03-29T15:12:11Z</time></trkpt><trkpt lat="36.815633596615044" lon="-108.18923321630209"><ele>1753.0</ele><time>2026-03-29T15:12:12Z</time></trkpt><trkpt lat="36.815587330378335" lon="-108.18936693104177"><ele>1752.6000000000001</ele><time>2026-03-29T15:12:13Z</time></trkpt><trkpt lat="36.8155549243867" lon="-108.18949424887565"><ele>1752.2000000000003</ele><time>2026-03-29T15:12:14Z</time></trkpt><trkpt lat="36.81552836210249" lon="-108.18961358773606"><ele>1751.8</ele><time>2026-03-29T15:12:15Z</time></trkpt><trkpt lat="36.81551548209226" lon="-108.18972309168548"><ele>1751.4</ele><time>2026-03-29T15:12:16Z</time></trkpt><trkpt lat="36.81553147365202" lon="-108.1898332737072"><ele>1751.0</ele><time>2026-03-29T15:12:17Z</time></trkpt><trkpt lat="36.81553366033335" lon="-108.18995641076073"><ele>1750.8</ele><time>2026-03-29T15:12:18Z</time></trkpt><trkpt lat="36.81554259620482" lon="-108.19007116336023"><ele>1750.6</ele><time>2026-03-29T15:12:19Z</time></trkpt><trkpt lat="36.815566569255616" lon="-108.19019408836341"><ele>1750.4</ele><time>2026-03-29T15:12:20Z</time></trkpt><trkpt lat="36.815596956791396" lon="-108.19032650301625"><ele>1750.2</ele><time>2026-03-29T15:12:21Z</time></trkpt><trkpt lat="36.8156340955862" lon="-108.19042713283321"><ele>1750.0</ele><time>2026-03-29T15:12:22Z</time></trkpt><trkpt lat="36.81567781861601" lon="-108.19052494942596"><ele>1750.0</ele><time>2026-03-29T15:12:23Z</time></trkpt><trkpt lat="36.8156769250408" lon="-108.19064399288105"><ele>1750.0</ele><time>2026-03-29T15:12:24Z</time></trkpt><trkpt lat="36.81564529125575" lon="-108.19075347728993"><ele>1750.0</ele><time>2026-03-29T15:12:25Z</time></trkpt><trkpt lat="36.81563210358138" lon="-108.19087425835839"><ele>1750.0</ele><time>2026-03-29T15:12:26Z</time></trkpt><trkpt lat="36.81564673709214" lon="-108.19097885488638"><ele>1750.0</ele><time>2026-03-29T15:12:27Z</time></trkpt><trkpt lat="36.81567807314358" lon="-108.19107991882353"><ele>1749.75</ele><time>2026-03-29T15:12:28Z</time></trkpt><trkpt lat="36.81573287919512" lon="-108.19116405775205"><ele>1749.5</ele><time>2026-03-29T15:12:29Z</time></trkpt><trkpt lat="36.81581114736283" lon="-108.19127319798903"><ele>1749.25</ele><time>2026-03-29T15:12:30Z</time></trkpt><trkpt lat="36.815874417858986" lon="-108.19143282051174"><ele>1749.0</ele><time>2026-03-29T15:12:31Z</time></trkpt><trkpt lat="36.815928169935674" lon="-108.19157313485533"><ele>1749.4</ele><time>2026-03-29T15:12:32Z</time></trkpt><trkpt lat="36.81598840537331" lon="-108.19168748375454"><ele>1749.8000000000002</ele><time>2026-03-29T15:12:33Z</time></trkpt><trkpt lat="36.81606579805096" lon="-108.1917468423822"><ele>1750.1999999999998</ele><time>2026-03-29T15:12:34Z</time></trkpt><trkpt lat="36.81617153909469" lon="-108.19179088668191"><ele>1750.6</ele><time>2026-03-29T15:12:35Z</time></trkpt><trkpt lat="36.816264434254435" lon="-108.1918727380429"><ele>1751.0</ele><time>2026-03-29T15:12:36Z</time></trkpt><trkpt lat="36.816282940110895" lon="-108.19199098959473"><ele>1750.9999999999998</ele><time>2026-03-29T15:12:37Z</time></trkpt><trkpt lat="36.81630687966378" lon="-108.1920957545281"><ele>1751.0</ele><time>2026-03-29T15:12:38Z</time></trkpt><trkpt lat="36.81633043874721" lon="-108.19221106554146"><ele>1751.0</ele><time>2026-03-29T15:12:39Z</time></trkpt><trkpt lat="36.81635332101001" lon="-108.19231363907441"><ele>1751.0</ele><time>2026-03-29T15:12:39.999Z</time></trkpt><trkpt lat="36.81640682532132" lon="-108.19237129418472"><ele>1750.9999999999998</ele><time>2026-03-29T15:12:40.999Z</time></trkpt><trkpt lat="36.81650646181897" lon="-108.19240189665662"><ele>1751.0</ele><time>2026-03-29T15:12:41.999Z</time></trkpt><trkpt lat="36.81663619683704" lon="-108.19245615493418"><ele>1750.8</ele><time>2026-03-29T15:12:42.999Z</time></trkpt><trkpt lat="36.81669924458503" lon="-108.19254563971336"><ele>1750.6</ele><time>2026-03-29T15:12:43.999Z</time></trkpt><trkpt lat="36.81674530824221" lon="-108.19265546151048"><ele>1750.4</ele><time>2026-03-29T15:12:44.999Z</time></trkpt><trkpt lat="36.816791277875765" lon="-108.19274584812732"><ele>1750.2</ele><time>2026-03-29T15:12:45.999Z</time></trkpt><trkpt lat="36.81679331155121" lon="-108.1928949813159"><ele>1750.0</ele><time>2026-03-29T15:12:47.999Z</time></trkpt><trkpt lat="36.81675964033496" lon="-108.19301812093087"><ele>1750.0</ele><time>2026-03-29T15:12:48.999Z</time></trkpt><trkpt lat="36.81674169029911" lon="-108.1931488835862"><ele>1750.0</ele><time>2026-03-29T15:12:49.999Z</time></trkpt><trkpt lat="36.8167675424647" lon="-108.19326524323036"><ele>1750.0</ele><time>2026-03-29T15:12:50.999Z</time></trkpt><trkpt lat="36.816819805137406" lon="-108.193353311109"><ele>1750.0</ele><time>2026-03-29T15:12:51.999Z</time></trkpt><trkpt lat="36.81690026641599" lon="-108.19344231880413"><ele>1750.0</ele><time>2026-03-29T15:12:52.999Z</time></trkpt><trkpt lat="36.816970647473774" lon="-108.19353734292994"><ele>1750.0</ele><time>2026-03-29T15:12:53.999Z</time></trkpt><trkpt lat="36.81702995505664" lon="-108.19364232245701"><ele>1750.0</ele><time>2026-03-29T15:12:54.999Z</time></trkpt><trkpt lat="36.817068963588" lon="-108.19375793628848"><ele>1750.0</ele><time>2026-03-29T15:12:55.999Z</time></trkpt><trkpt lat="36.81710831231135" lon="-108.19387572844734"><ele>1750.0</ele><time>2026-03-29T15:12:56.999Z</time></trkpt><trkpt lat="36.81710312284294" lon="-108.19396439971888"><ele>1750.0</ele><time>2026-03-29T15:12:57.999Z</time></trkpt><trkpt lat="36.81710571774622" lon="-108.19409356619762"><ele>1749.25</ele><time>2026-03-29T15:12:58.999Z</time></trkpt><trkpt lat="36.817182156560136" lon="-108.19419713309844"><ele>1748.5</ele><time>2026-03-29T15:12:59.999Z</time></trkpt><trkpt lat="36.81730058095312" lon="-108.19430537155714"><ele>1747.75</ele><time>2026-03-29T15:13:00.999Z</time></trkpt><trkpt lat="36.81737846531491" lon="-108.19442586644793"><ele>1747.0</ele><time>2026-03-29T15:13:01.999Z</time></trkpt><trkpt lat="36.81742537717222" lon="-108.1945400322301"><ele>1747.0</ele><time>2026-03-29T15:13:02.999Z</time></trkpt><trkpt lat="36.81746668475577" lon="-108.19464288338843"><ele>1747.0</ele><time>2026-03-29T15:13:03.999Z</time></trkpt><trkpt lat="36.817526252744436" lon="-108.19478944763868"><ele>1747.0</ele><time>2026-03-29T15:13:04.999Z</time></trkpt><trkpt lat="36.81758277357023" lon="-108.19496382214868"><ele>1747.0</ele><time>2026-03-29T15:13:05.999Z</time></trkpt><trkpt lat="36.81762130313909" lon="-108.19511330512941"><ele>1746.3999999999999</ele><time>2026-03-29T15:13:06.999Z</time></trkpt><trkpt lat="36.81765166435734" lon="-108.19523168883497"><ele>1745.7999999999997</ele><time>2026-03-29T15:13:07.999Z</time></trkpt><trkpt lat="36.81770850538014" lon="-108.19533778367963"><ele>1745.2</ele><time>2026-03-29T15:13:08.999Z</time></trkpt><trkpt lat="36.81778332666181" lon="-108.195412096659"><ele>1744.6</ele><time>2026-03-29T15:13:09.999Z</time></trkpt><trkpt lat="36.81788786521607" lon="-108.19548267011868"><ele>1744.0</ele><time>2026-03-29T15:13:10.999Z</time></trkpt><trkpt lat="36.817968815841404" lon="-108.19558657181368"><ele>1743.4</ele><time>2026-03-29T15:13:11.999Z</time></trkpt><trkpt lat="36.817984384654544" lon="-108.19569145870943"><ele>1742.8000000000002</ele><time>2026-03-29T15:13:12.999Z</time></trkpt><trkpt lat="36.81796009950409" lon="-108.19581146169712"><ele>1742.1999999999998</ele><time>2026-03-29T15:13:13.999Z</time></trkpt><trkpt lat="36.817942374068714" lon="-108.19595705277418"><ele>1741.6</ele><time>2026-03-29T15:13:14.999Z</time></trkpt><trkpt lat="36.81795094950075" lon="-108.19610335079362"><ele>1741.0</ele><time>2026-03-29T15:13:15.999Z</time></trkpt><trkpt lat="36.81794505394703" lon="-108.19626729533046"><ele>1741.0</ele><time>2026-03-29T15:13:16.999Z</time></trkpt><trkpt lat="36.817930997236196" lon="-108.19643766495847"><ele>1741.0</ele><time>2026-03-29T15:13:17.999Z</time></trkpt><trkpt lat="36.8179221371687" lon="-108.19656684759894"><ele>1741.0</ele><time>2026-03-29T15:13:18.999Z</time></trkpt><trkpt lat="36.81792694525984" lon="-108.19668319858002"><ele>1741.0</ele><time>2026-03-29T15:13:19.999Z</time></trkpt><trkpt lat="36.817923862754924" lon="-108.19682217807066"><ele>1741.0</ele><time>2026-03-29T15:13:20.999Z</time></trkpt><trkpt lat="36.8178776172642" lon="-108.19696658108526"><ele>1740.6666666666667</ele><time>2026-03-29T15:13:21.999Z</time></trkpt><trkpt lat="36.81789079495641" lon="-108.19710015306384"><ele>1740.3333333333335</ele><time>2026-03-29T15:13:22.999Z</time></trkpt><trkpt lat="36.81791943710523" lon="-108.1972130280054"><ele>1740.0</ele><time>2026-03-29T15:13:23.999Z</time></trkpt><trkpt lat="36.81792539305141" lon="-108.1973077091527"><ele>1739.6666666666665</ele><time>2026-03-29T15:13:24.999Z</time></trkpt><trkpt lat="36.81793399880058" lon="-108.19739383756061"><ele>1739.3333333333333</ele><time>2026-03-29T15:13:25.999Z</time></trkpt><trkpt lat="36.817944598020134" lon="-108.1974949316545"><ele>1739.0</ele><time>2026-03-29T15:13:27Z</time></trkpt><trkpt lat="36.81796211184052" lon="-108.19766076609292"><ele>1738.4</ele><time>2026-03-29T15:13:28Z</time></trkpt><trkpt lat="36.81794931468128" lon="-108.19781981519141"><ele>1737.8000000000002</ele><time>2026-03-29T15:13:29Z</time></trkpt><trkpt lat="36.81796412852622" lon="-108.19793987817656"><ele>1737.1999999999998</ele><time>2026-03-29T15:13:30Z</time></trkpt><trkpt lat="36.817995575391706" lon="-108.19801416491173"><ele>1736.6</ele><time>2026-03-29T15:13:31Z</time></trkpt><trkpt lat="36.818103159084316" lon="-108.1981121552555"><ele>1736.0</ele><time>2026-03-29T15:13:33Z</time></trkpt><trkpt lat="36.81817088132532" lon="-108.19817564763304"><ele>1736.1999999999998</ele><time>2026-03-29T15:13:34Z</time></trkpt><trkpt lat="36.818227948398075" lon="-108.19822116676004"><ele>1736.3999999999999</ele><time>2026-03-29T15:13:35Z</time></trkpt><trkpt lat="36.81830975060022" lon="-108.19830533044835"><ele>1736.6</ele><time>2026-03-29T15:13:37Z</time></trkpt><trkpt lat="36.81844855899846" lon="-108.19838635261162"><ele>1736.8</ele><time>2026-03-29T15:13:39Z</time></trkpt><trkpt lat="36.81853983925144" lon="-108.19845803689212"><ele>1737.0</ele><time>2026-03-29T15:13:40Z</time></trkpt><trkpt lat="36.818617226017665" lon="-108.19848778111607"><ele>1737.0</ele><time>2026-03-29T15:13:41Z</time></trkpt><trkpt lat="36.818721833856415" lon="-108.1985209053166"><ele>1737.0</ele><time>2026-03-29T15:13:42Z</time></trkpt><trkpt lat="36.81882877894968" lon="-108.19857835923521"><ele>1737.0</ele><time>2026-03-29T15:13:43Z</time></trkpt><trkpt lat="36.8189324827069" lon="-108.19860292646011"><ele>1737.0</ele><time>2026-03-29T15:13:44Z</time></trkpt><trkpt lat="36.81905364986336" lon="-108.19863961683808"><ele>1737.0</ele><time>2026-03-29T15:13:45Z</time></trkpt><trkpt lat="36.81917031748385" lon="-108.19867592158025"><ele>1737.0</ele><time>2026-03-29T15:13:46Z</time></trkpt><trkpt lat="36.81924847518892" lon="-108.19869886200202"><ele>1737.0</ele><time>2026-03-29T15:13:47Z</time></trkpt><trkpt lat="36.81932448769432" lon="-108.19873052244736"><ele>1737.0</ele><time>2026-03-29T15:13:48Z</time></trkpt><trkpt lat="36.81940207058014" lon="-108.19875844422918"><ele>1737.0</ele><time>2026-03-29T15:13:49Z</time></trkpt><trkpt lat="36.81946681166162" lon="-108.19872858992925"><ele>1737.0</ele><time>2026-03-29T15:13:50Z</time></trkpt><trkpt lat="36.81956062173215" lon="-108.19866934408282"><ele>1737.1999999999998</ele><time>2026-03-29T15:13:51Z</time></trkpt><trkpt lat="36.819673009376835" lon="-108.19862548556206"><ele>1737.3999999999999</ele><time>2026-03-29T15:13:52Z</time></trkpt><trkpt lat="36.81979134562139" lon="-108.19859747195538"><ele>1737.6000000000001</ele><time>2026-03-29T15:13:53Z</time></trkpt><trkpt lat="36.819885025447725" lon="-108.19855930948803"><ele>1737.8000000000002</ele><time>2026-03-29T15:13:54Z</time></trkpt><trkpt lat="36.819977952669205" lon="-108.19851276578126"><ele>1738.0</ele><time>2026-03-29T15:13:55Z</time></trkpt><trkpt lat="36.820074235506404" lon="-108.19850913881554"><ele>1738.0</ele><time>2026-03-29T15:13:56Z</time></trkpt><trkpt lat="36.820164530972136" lon="-108.1984969324461"><ele>1738.0000000000002</ele><time>2026-03-29T15:13:57Z</time></trkpt><trkpt lat="36.820241963363515" lon="-108.19845400713143"><ele>1738.0000000000002</ele><time>2026-03-29T15:13:58Z</time></trkpt><trkpt lat="36.82030949946968" lon="-108.19838187946777"><ele>1738.0</ele><time>2026-03-29T15:13:59Z</time></trkpt><trkpt lat="36.820409772389034" lon="-108.19834104084424"><ele>1738.0</ele><time>2026-03-29T15:14:00Z</time></trkpt><trkpt lat="36.820516355273114" lon="-108.19834183684867"><ele>1738.0000000000002</ele><time>2026-03-29T15:14:01Z</time></trkpt><trkpt lat="36.82062370913804" lon="-108.19835762043874"><ele>1738.0</ele><time>2026-03-29T15:14:02Z</time></trkpt><trkpt lat="36.820710122722026" lon="-108.1983962738206"><ele>1738.0</ele><time>2026-03-29T15:14:03Z</time></trkpt><trkpt lat="36.820784414363814" lon="-108.19840885167137"><ele>1738.0</ele><time>2026-03-29T15:14:04Z</time></trkpt><trkpt lat="36.82086349715353" lon="-108.19839648097667"><ele>1738.0000000000002</ele><time>2026-03-29T15:14:05Z</time></trkpt><trkpt lat="36.82095368037827" lon="-108.19838779349975"><ele>1738.0</ele><time>2026-03-29T15:14:06Z</time></trkpt><trkpt lat="36.821026185520196" lon="-108.19839018413855"><ele>1736.3333333333335</ele><time>2026-03-29T15:14:07Z</time></trkpt><trkpt lat="36.82108901170085" lon="-108.19841185135606"><ele>1734.6666666666667</ele><time>2026-03-29T15:14:08Z</time></trkpt><trkpt lat="36.821157179122764" lon="-108.19842756862037"><ele>1733.0</ele><time>2026-03-29T15:14:09Z</time></trkpt><trkpt lat="36.82123441958028" lon="-108.19840054396391"><ele>1731.3333333333335</ele><time>2026-03-29T15:14:10Z</time></trkpt><trkpt lat="36.821325425004275" lon="-108.19833395488571"><ele>1729.6666666666667</ele><time>2026-03-29T15:14:11Z</time></trkpt><trkpt lat="36.82141467477944" lon="-108.1982991576571"><ele>1728.0</ele><time>2026-03-29T15:14:12Z</time></trkpt><trkpt lat="36.82149973104783" lon="-108.19830420780976"><ele>1728.0</ele><time>2026-03-29T15:14:13Z</time></trkpt><trkpt lat="36.8215736645288" lon="-108.19829930712987"><ele>1728.0</ele><time>2026-03-29T15:14:14Z</time></trkpt><trkpt lat="36.82166596701372" lon="-108.19831502104084"><ele>1728.0</ele><time>2026-03-29T15:14:15Z</time></trkpt><trkpt lat="36.821750758275364" lon="-108.1983247500634"><ele>1728.0</ele><time>2026-03-29T15:14:16Z</time></trkpt><trkpt lat="36.821843810518764" lon="-108.19830998914837"><ele>1728.0</ele><time>2026-03-29T15:14:17Z</time></trkpt><trkpt lat="36.821934589105204" lon="-108.19825996489992"><ele>1728.0</ele><time>2026-03-29T15:14:18Z</time></trkpt><trkpt lat="36.822027623288854" lon="-108.19820547680332"><ele>1728.0</ele><time>2026-03-29T15:14:19Z</time></trkpt><trkpt lat="36.82209316610505" lon="-108.19818742770714"><ele>1728.0</ele><time>2026-03-29T15:14:20Z</time></trkpt><trkpt lat="36.822165206879056" lon="-108.19817712597049"><ele>1728.0</ele><time>2026-03-29T15:14:21Z</time></trkpt><trkpt lat="36.822246239670626" lon="-108.19818747445206"><ele>1728.0</ele><time>2026-03-29T15:14:22Z</time></trkpt><trkpt lat="36.8223341338679" lon="-108.19819413268732"><ele>1728.0</ele><time>2026-03-29T15:14:23Z</time></trkpt><trkpt lat="36.8224274787377" lon="-108.19817185907146"><ele>1728.0</ele><time>2026-03-29T15:14:24Z</time></trkpt><trkpt lat="36.8225191580576" lon="-108.1981601224474"><ele>1728.0</ele><time>2026-03-29T15:14:25Z</time></trkpt><trkpt lat="36.82259337573278" lon="-108.198124943493"><ele>1728.0</ele><time>2026-03-29T15:14:26Z</time></trkpt><trkpt lat="36.82264455408798" lon="-108.19807207915326"><ele>1728.0</ele><time>2026-03-29T15:14:27Z</time></trkpt><trkpt lat="36.82269135756005" lon="-108.19801009652961"><ele>1728.0</ele><time>2026-03-29T15:14:28Z</time></trkpt><trkpt lat="36.82277042098208" lon="-108.19801694080896"><ele>1728.0</ele><time>2026-03-29T15:14:29Z</time></trkpt><trkpt lat="36.82286993214668" lon="-108.19803864903264"><ele>1728.0</ele><time>2026-03-29T15:14:30Z</time></trkpt><trkpt lat="36.82293812038658" lon="-108.19806998258736"><ele>1728.8333333333333</ele><time>2026-03-29T15:14:31Z</time></trkpt><trkpt lat="36.82300909233289" lon="-108.19809383743389"><ele>1729.6666666666665</ele><time>2026-03-29T15:14:33Z</time></trkpt><trkpt lat="36.82308429783348" lon="-108.1980380528265"><ele>1730.5</ele><time>2026-03-29T15:14:34Z</time></trkpt><trkpt lat="36.82317084119199" lon="-108.19798980031776"><ele>1731.3333333333333</ele><time>2026-03-29T15:14:35Z</time></trkpt><trkpt lat="36.823260128043515" lon="-108.19800118971499"><ele>1732.1666666666665</ele><time>2026-03-29T15:14:36Z</time></trkpt><trkpt lat="36.82333906478542" lon="-108.19803334250845"><ele>1733.0</ele><time>2026-03-29T15:14:37Z</time></trkpt><trkpt lat="36.823403793276114" lon="-108.19802358651852"><ele>1733.0</ele><time>2026-03-29T15:14:38Z</time></trkpt><trkpt lat="36.82346640098372" lon="-108.19796189125374"><ele>1733.0000000000002</ele><time>2026-03-29T15:14:39Z</time></trkpt><trkpt lat="36.82354790042209" lon="-108.1979831212282"><ele>1733.0000000000002</ele><time>2026-03-29T15:14:40Z</time></trkpt><trkpt lat="36.823634851388334" lon="-108.19805665964753"><ele>1733.0</ele><time>2026-03-29T15:14:41Z</time></trkpt><trkpt lat="36.82374164176644" lon="-108.1981500705355"><ele>1733.0</ele><time>2026-03-29T15:14:42Z</time></trkpt><trkpt lat="36.823851706669636" lon="-108.19827442634731"><ele>1733.3333333333333</ele><time>2026-03-29T15:14:43Z</time></trkpt><trkpt lat="36.82397006919832" lon="-108.19842870871227"><ele>1733.6666666666665</ele><time>2026-03-29T15:14:44Z</time></trkpt><trkpt lat="36.82409271468178" lon="-108.19857796806131"><ele>1734.0</ele><time>2026-03-29T15:14:45Z</time></trkpt><trkpt lat="36.82421159430434" lon="-108.1987011185302"><ele>1734.0</ele><time>2026-03-29T15:14:46Z</time></trkpt><trkpt lat="36.82428425598207" lon="-108.19878259652265"><ele>1734.0</ele><time>2026-03-29T15:14:47Z</time></trkpt><trkpt lat="36.82438975515044" lon="-108.19880815576965"><ele>1734.0</ele><time>2026-03-29T15:14:49Z</time></trkpt><trkpt lat="36.824485455215765" lon="-108.19881262702067"><ele>1734.0</ele><time>2026-03-29T15:14:50Z</time></trkpt><trkpt lat="36.82456594762609" lon="-108.19877286925703"><ele>1734.0</ele><time>2026-03-29T15:14:51Z</time></trkpt><trkpt lat="36.82461540533489" lon="-108.19867000080741"><ele>1735.0</ele><time>2026-03-29T15:14:52Z</time></trkpt><trkpt lat="36.82466565797325" lon="-108.1985895260425"><ele>1736.0</ele><time>2026-03-29T15:14:53Z</time></trkpt><trkpt lat="36.82473308646248" lon="-108.19860767270947"><ele>1737.0</ele><time>2026-03-29T15:14:54Z</time></trkpt><trkpt lat="36.82479474575263" lon="-108.19863119321694"><ele>1738.0</ele><time>2026-03-29T15:14:55Z</time></trkpt><trkpt lat="36.82484328618361" lon="-108.19868750905466"><ele>1739.0</ele><time>2026-03-29T15:14:56Z</time></trkpt><trkpt lat="36.82487722924399" lon="-108.1987563732802"><ele>1740.0</ele><time>2026-03-29T15:14:57Z</time></trkpt><trkpt lat="36.824957164391556" lon="-108.19878965888714"><ele>1741.0</ele><time>2026-03-29T15:14:59Z</time></trkpt><trkpt lat="36.82510958338632" lon="-108.19872638304042"><ele>1740.8</ele><time>2026-03-29T15:15:01Z</time></trkpt><trkpt lat="36.82521395618329" lon="-108.19870545139713"><ele>1740.6</ele><time>2026-03-29T15:15:02Z</time></trkpt><trkpt lat="36.82532698692728" lon="-108.1986652590426"><ele>1740.4</ele><time>2026-03-29T15:15:03Z</time></trkpt><trkpt lat="36.825438238553915" lon="-108.19859709380782"><ele>1740.2</ele><time>2026-03-29T15:15:04Z</time></trkpt><trkpt lat="36.825520434501684" lon="-108.19855019933992"><ele>1740.0</ele><time>2026-03-29T15:15:05Z</time></trkpt><trkpt lat="36.825580653888906" lon="-108.1984799341912"><ele>1740.0</ele><time>2026-03-29T15:15:06Z</time></trkpt><trkpt lat="36.82564498124195" lon="-108.19837404835536"><ele>1740.0</ele><time>2026-03-29T15:15:07Z</time></trkpt><trkpt lat="36.82571073261466" lon="-108.19828917491763"><ele>1740.0</ele><time>2026-03-29T15:15:08Z</time></trkpt><trkpt lat="36.82577508556368" lon="-108.19822495684639"><ele>1740.0</ele><time>2026-03-29T15:15:09Z</time></trkpt><trkpt lat="36.82582481489482" lon="-108.19813700084792"><ele>1740.0</ele><time>2026-03-29T15:15:10Z</time></trkpt><trkpt lat="36.82590021713745" lon="-108.19807973828816"><ele>1738.4</ele><time>2026-03-29T15:15:11Z</time></trkpt><trkpt lat="36.8259975343931" lon="-108.19800571648607"><ele>1736.8</ele><time>2026-03-29T15:15:12Z</time></trkpt><trkpt lat="36.826084302545304" lon="-108.19791038576521"><ele>1735.1999999999998</ele><time>2026-03-29T15:15:13Z</time></trkpt><trkpt lat="36.82614677740414" lon="-108.1978473728704"><ele>1733.6</ele><time>2026-03-29T15:15:14Z</time></trkpt><trkpt lat="36.826202117223055" lon="-108.19776107197887"><ele>1732.0</ele><time>2026-03-29T15:15:15Z</time></trkpt><trkpt lat="36.82626576265791" lon="-108.19767403494046"><ele>1732.0</ele><time>2026-03-29T15:15:16Z</time></trkpt><trkpt lat="36.82634842922639" lon="-108.19761373465796"><ele>1731.9999999999998</ele><time>2026-03-29T15:15:17Z</time></trkpt><trkpt lat="36.82643451992876" lon="-108.1975295128189"><ele>1731.9999999999998</ele><time>2026-03-29T15:15:18Z</time></trkpt><trkpt lat="36.826508963507735" lon="-108.19743421969488"><ele>1732.0</ele><time>2026-03-29T15:15:19Z</time></trkpt><trkpt lat="36.826611656534595" lon="-108.19734683335625"><ele>1732.0</ele><time>2026-03-29T15:15:20Z</time></trkpt><trkpt lat="36.826694047089696" lon="-108.19725973939966"><ele>1731.6</ele><time>2026-03-29T15:15:21Z</time></trkpt><trkpt lat="36.8267474352092" lon="-108.1971708123608"><ele>1731.1999999999998</ele><time>2026-03-29T15:15:22Z</time></trkpt><trkpt lat="36.82681424866622" lon="-108.19706052942308"><ele>1730.8</ele><time>2026-03-29T15:15:23Z</time></trkpt><trkpt lat="36.826911127145976" lon="-108.19696611167588"><ele>1730.4</ele><time>2026-03-29T15:15:24Z</time></trkpt><trkpt lat="36.82698382032282" lon="-108.1969134972822"><ele>1730.0</ele><time>2026-03-29T15:15:25Z</time></trkpt><trkpt lat="36.826971161019856" lon="-108.19680255257026"><ele>1729.9999999999998</ele><time>2026-03-29T15:15:27Z</time></trkpt><trkpt lat="36.82695543363207" lon="-108.19672457736645"><ele>1730.0</ele><time>2026-03-29T15:15:28Z</time></trkpt><trkpt lat="36.82695422672125" lon="-108.19661249343454"><ele>1730.0</ele><time>2026-03-29T15:15:29Z</time></trkpt><trkpt lat="36.82697646302166" lon="-108.1965085358101"><ele>1730.0</ele><time>2026-03-29T15:15:30Z</time></trkpt><trkpt lat="36.82695814589788" lon="-108.1963883617419"><ele>1729.9999999999998</ele><time>2026-03-29T15:15:30.999Z</time></trkpt><trkpt lat="36.82696477645898" lon="-108.19625729447273"><ele>1730.0</ele><time>2026-03-29T15:15:31.999Z</time></trkpt><trkpt lat="36.82700599287722" lon="-108.19614111309882"><ele>1731.0</ele><time>2026-03-29T15:15:33Z</time></trkpt><trkpt lat="36.827000152605706" lon="-108.19602609329216"><ele>1732.0</ele><time>2026-03-29T15:15:34Z</time></trkpt><trkpt lat="36.82696224263127" lon="-108.19589533687936"><ele>1733.0</ele><time>2026-03-29T15:15:35Z</time></trkpt><trkpt lat="36.826926336450356" lon="-108.19578158238203"><ele>1734.0</ele><time>2026-03-29T15:15:36Z</time></trkpt><trkpt lat="36.82692218715987" lon="-108.1956880936241"><ele>1735.0</ele><time>2026-03-29T15:15:37Z</time></trkpt><trkpt lat="36.826947983879876" lon="-108.19558597562693"><ele>1735.4</ele><time>2026-03-29T15:15:38Z</time></trkpt><trkpt lat="36.82698867811835" lon="-108.19546596083788"><ele>1735.8</ele><time>2026-03-29T15:15:39Z</time></trkpt><trkpt lat="36.827033965455705" lon="-108.19532965811369"><ele>1736.1999999999998</ele><time>2026-03-29T15:15:40Z</time></trkpt><trkpt lat="36.82709159192117" lon="-108.19524955701505"><ele>1736.6</ele><time>2026-03-29T15:15:41Z</time></trkpt><trkpt lat="36.827188507229714" lon="-108.19518727333892"><ele>1737.0</ele><time>2026-03-29T15:15:43Z</time></trkpt><trkpt lat="36.827333676199764" lon="-108.19521363944828"><ele>1737.0</ele><time>2026-03-29T15:15:45Z</time></trkpt><trkpt lat="36.82742610557639" lon="-108.19521960221952"><ele>1737.0</ele><time>2026-03-29T15:15:46Z</time></trkpt><trkpt lat="36.82755304071577" lon="-108.19517486953778"><ele>1737.0</ele><time>2026-03-29T15:15:47Z</time></trkpt><trkpt lat="36.827679067591085" lon="-108.19514192111595"><ele>1737.0</ele><time>2026-03-29T15:15:48Z</time></trkpt><trkpt lat="36.82780693653195" lon="-108.19513736081285"><ele>1737.6</ele><time>2026-03-29T15:15:49Z</time></trkpt><trkpt lat="36.827915390886304" lon="-108.19513174329356"><ele>1738.1999999999998</ele><time>2026-03-29T15:15:50Z</time></trkpt><trkpt lat="36.828000446724175" lon="-108.19517726767245"><ele>1738.8</ele><time>2026-03-29T15:15:51Z</time></trkpt><trkpt lat="36.82812488693536" lon="-108.19524546245711"><ele>1739.4</ele><time>2026-03-29T15:15:52Z</time></trkpt><trkpt lat="36.82821139326238" lon="-108.19526612579257"><ele>1740.0</ele><time>2026-03-29T15:15:53Z</time></trkpt><trkpt lat="36.82828928961382" lon="-108.19524801081167"><ele>1740.0</ele><time>2026-03-29T15:15:54Z</time></trkpt><trkpt lat="36.82840365528212" lon="-108.19523280120981"><ele>1740.0</ele><time>2026-03-29T15:15:55Z</time></trkpt><trkpt lat="36.82852250406678" lon="-108.1952623559617"><ele>1740.0</ele><time>2026-03-29T15:15:56Z</time></trkpt><trkpt lat="36.82861916079887" lon="-108.19530827144787"><ele>1740.0</ele><time>2026-03-29T15:15:57Z</time></trkpt><trkpt lat="36.82869882406148" lon="-108.19531943054125"><ele>1740.0</ele><time>2026-03-29T15:15:58Z</time></trkpt><trkpt lat="36.82879332793624" lon="-108.19528215752717"><ele>1740.0</ele><time>2026-03-29T15:15:59Z</time></trkpt><trkpt lat="36.82889636784735" lon="-108.19525859857016"><ele>1740.0</ele><time>2026-03-29T15:16:00Z</time></trkpt><trkpt lat="36.828987313453" lon="-108.19527227977345"><ele>1740.0</ele><time>2026-03-29T15:16:01Z</time></trkpt><trkpt lat="36.829070268445534" lon="-108.19521236117156"><ele>1740.0</ele><time>2026-03-29T15:16:02Z</time></trkpt><trkpt lat="36.82915386336034" lon="-108.19508075510919"><ele>1740.0</ele><time>2026-03-29T15:16:03Z</time></trkpt><trkpt lat="36.82923612124966" lon="-108.1949631104921"><ele>1740.0</ele><time>2026-03-29T15:16:04Z</time></trkpt><trkpt lat="36.82929290314575" lon="-108.19490331868022"><ele>1740.0</ele><time>2026-03-29T15:16:05Z</time></trkpt><trkpt lat="36.82934625294565" lon="-108.1948519661284"><ele>1740.0</ele><time>2026-03-29T15:16:06Z</time></trkpt><trkpt lat="36.82942358535057" lon="-108.19479660327156"><ele>1740.0</ele><time>2026-03-29T15:16:07Z</time></trkpt><trkpt lat="36.8294649205911" lon="-108.19467971593727"><ele>1740.0</ele><time>2026-03-29T15:16:08Z</time></trkpt><trkpt lat="36.82951572148366" lon="-108.19452350532784"><ele>1740.6</ele><time>2026-03-29T15:16:09Z</time></trkpt><trkpt lat="36.82957670798409" lon="-108.1944467114807"><ele>1741.2</ele><time>2026-03-29T15:16:10Z</time></trkpt><trkpt lat="36.82965560763785" lon="-108.19438737978801"><ele>1741.8000000000002</ele><time>2026-03-29T15:16:11Z</time></trkpt><trkpt lat="36.82970575011643" lon="-108.19427848864846"><ele>1742.4</ele><time>2026-03-29T15:16:12Z</time></trkpt><trkpt lat="36.829777369664185" lon="-108.19421855139286"><ele>1743.0</ele><time>2026-03-29T15:16:13Z</time></trkpt><trkpt lat="36.82988158221638" lon="-108.19415695804977"><ele>1743.0</ele><time>2026-03-29T15:16:14Z</time></trkpt><trkpt lat="36.82999359498422" lon="-108.1940663857752"><ele>1743.0</ele><time>2026-03-29T15:16:15Z</time></trkpt><trkpt lat="36.83010338445683" lon="-108.19397954818776"><ele>1743.0</ele><time>2026-03-29T15:16:16Z</time></trkpt><trkpt lat="36.83020800392447" lon="-108.19388404235029"><ele>1743.0</ele><time>2026-03-29T15:16:17Z</time></trkpt><trkpt lat="36.83029315959971" lon="-108.19376239479698"><ele>1743.0</ele><time>2026-03-29T15:16:18Z</time></trkpt><trkpt lat="36.830374080841665" lon="-108.19365303828188"><ele>1743.0</ele><time>2026-03-29T15:16:19Z</time></trkpt><trkpt lat="36.830463697074336" lon="-108.19357351167405"><ele>1743.0</ele><time>2026-03-29T15:16:20Z</time></trkpt><trkpt lat="36.83056842259147" lon="-108.193531564986"><ele>1743.0</ele><time>2026-03-29T15:16:21Z</time></trkpt><trkpt lat="36.83068596239585" lon="-108.1935250444521"><ele>1743.0</ele><time>2026-03-29T15:16:22Z</time></trkpt><trkpt lat="36.83082354159201" lon="-108.19352340920071"><ele>1743.0000000000002</ele><time>2026-03-29T15:16:23Z</time></trkpt><trkpt lat="36.83093481741781" lon="-108.19349351132551"><ele>1743.0000000000002</ele><time>2026-03-29T15:16:24Z</time></trkpt><trkpt lat="36.830991240026826" lon="-108.19341815201372"><ele>1743.0</ele><time>2026-03-29T15:16:25Z</time></trkpt><trkpt lat="36.83102148467708" lon="-108.19333118099934"><ele>1743.0</ele><time>2026-03-29T15:16:26Z</time></trkpt><trkpt lat="36.831110187271946" lon="-108.19326015007168"><ele>1742.75</ele><time>2026-03-29T15:16:28Z</time></trkpt><trkpt lat="36.83121171996324" lon="-108.193261487743"><ele>1742.5</ele><time>2026-03-29T15:16:29Z</time></trkpt><trkpt lat="36.83132142670306" lon="-108.19321470017444"><ele>1742.25</ele><time>2026-03-29T15:16:30Z</time></trkpt><trkpt lat="36.831439669685146" lon="-108.193165089577"><ele>1742.0</ele><time>2026-03-29T15:16:31Z</time></trkpt><trkpt lat="36.83156721716029" lon="-108.19310712207151"><ele>1742.3999999999999</ele><time>2026-03-29T15:16:32Z</time></trkpt><trkpt lat="36.831665989838285" lon="-108.19306006499366"><ele>1742.7999999999997</ele><time>2026-03-29T15:16:33Z</time></trkpt><trkpt lat="36.83176862398809" lon="-108.19303204669225"><ele>1743.2</ele><time>2026-03-29T15:16:34Z</time></trkpt><trkpt lat="36.8318834793655" lon="-108.19301487998118"><ele>1743.6</ele><time>2026-03-29T15:16:35Z</time></trkpt><trkpt lat="36.83197484604871" lon="-108.19298786439693"><ele>1744.0</ele><time>2026-03-29T15:16:36Z</time></trkpt><trkpt lat="36.832030620139825" lon="-108.19291553117016"><ele>1744.0</ele><time>2026-03-29T15:16:37Z</time></trkpt><trkpt lat="36.83207761612008" lon="-108.19282724073105"><ele>1744.0</ele><time>2026-03-29T15:16:38Z</time></trkpt><trkpt lat="36.832161937611154" lon="-108.19275751371327"><ele>1744.0</ele><time>2026-03-29T15:16:39Z</time></trkpt><trkpt lat="36.832277202579974" lon="-108.19270622868251"><ele>1744.0</ele><time>2026-03-29T15:16:40Z</time></trkpt><trkpt lat="36.8323554236955" lon="-108.19263412686584"><ele>1744.0</ele><time>2026-03-29T15:16:41Z</time></trkpt><trkpt lat="36.832407032057354" lon="-108.19253789183323"><ele>1744.0</ele><time>2026-03-29T15:16:42Z</time></trkpt><trkpt lat="36.83245665729716" lon="-108.1924034036614"><ele>1744.0</ele><time>2026-03-29T15:16:43Z</time></trkpt><trkpt lat="36.83252519077095" lon="-108.19229491883581"><ele>1744.0</ele><time>2026-03-29T15:16:44Z</time></trkpt><trkpt lat="36.83260815189122" lon="-108.19223455652711"><ele>1744.0</ele><time>2026-03-29T15:16:45Z</time></trkpt><trkpt lat="36.83268951525622" lon="-108.19219001078207"><ele>1744.0</ele><time>2026-03-29T15:16:46Z</time></trkpt><trkpt lat="36.832776139640536" lon="-108.19214463519351"><ele>1745.2</ele><time>2026-03-29T15:16:47Z</time></trkpt><trkpt lat="36.832884681382545" lon="-108.19208461437631"><ele>1746.4</ele><time>2026-03-29T15:16:48Z</time></trkpt><trkpt lat="36.83300187168972" lon="-108.19202641260343"><ele>1747.6</ele><time>2026-03-29T15:16:49Z</time></trkpt><trkpt lat="36.83309737977448" lon="-108.19196936820649"><ele>1748.8</ele><time>2026-03-29T15:16:50Z</time></trkpt><trkpt lat="36.83317879056875" lon="-108.19192841019823"><ele>1750.0</ele><time>2026-03-29T15:16:51Z</time></trkpt><trkpt lat="36.833247009439525" lon="-108.19191843701839"><ele>1750.0</ele><time>2026-03-29T15:16:52Z</time></trkpt><trkpt lat="36.83332918374575" lon="-108.19193731181134"><ele>1750.0</ele><time>2026-03-29T15:16:53Z</time></trkpt><trkpt lat="36.83346825925413" lon="-108.19198233524443"><ele>1750.0</ele><time>2026-03-29T15:16:55Z</time></trkpt><trkpt lat="36.83358486814701" lon="-108.19198177747364"><ele>1750.0</ele><time>2026-03-29T15:16:56Z</time></trkpt><trkpt lat="36.8336818551348" lon="-108.19200731661317"><ele>1750.0</ele><time>2026-03-29T15:16:57Z</time></trkpt><trkpt lat="36.833783710182104" lon="-108.19206315424572"><ele>1749.8</ele><time>2026-03-29T15:16:58Z</time></trkpt><trkpt lat="36.833866155023884" lon="-108.19214829928623"><ele>1749.6</ele><time>2026-03-29T15:16:59Z</time></trkpt><trkpt lat="36.83392593588504" lon="-108.1922182426829"><ele>1749.4</ele><time>2026-03-29T15:17:00Z</time></trkpt><trkpt lat="36.833963314074275" lon="-108.19231197951628"><ele>1749.2</ele><time>2026-03-29T15:17:01Z</time></trkpt><trkpt lat="36.833990974864555" lon="-108.19243305153954"><ele>1749.0</ele><time>2026-03-29T15:17:02Z</time></trkpt><trkpt lat="36.8340160805883" lon="-108.1925405478772"><ele>1748.0</ele><time>2026-03-29T15:17:03Z</time></trkpt><trkpt lat="36.834151571436564" lon="-108.19262525978468"><ele>1747.0</ele><time>2026-03-29T15:17:05Z</time></trkpt><trkpt lat="36.83422460599348" lon="-108.19272273592992"><ele>1746.0</ele><time>2026-03-29T15:17:06Z</time></trkpt><trkpt lat="36.83428740344945" lon="-108.1927884674231"><ele>1745.0</ele><time>2026-03-29T15:17:07Z</time></trkpt><trkpt lat="36.83438983398032" lon="-108.19294322594222"><ele>1743.4</ele><time>2026-03-29T15:17:09Z</time></trkpt><trkpt lat="36.83449581215729" lon="-108.19303388314104"><ele>1741.8</ele><time>2026-03-29T15:17:10Z</time></trkpt><trkpt lat="36.83458030724287" lon="-108.19303637555875"><ele>1740.1999999999998</ele><time>2026-03-29T15:17:11Z</time></trkpt><trkpt lat="36.83467173860488" lon="-108.1930145811899"><ele>1738.6</ele><time>2026-03-29T15:17:12Z</time></trkpt><trkpt lat="36.83477334331985" lon="-108.19303618176477"><ele>1737.0</ele><time>2026-03-29T15:17:13Z</time></trkpt><trkpt lat="36.8348977347055" lon="-108.1931039176844"><ele>1737.0</ele><time>2026-03-29T15:17:14Z</time></trkpt><trkpt lat="36.83502725427149" lon="-108.19314669224012"><ele>1736.9999999999998</ele><time>2026-03-29T15:17:15Z</time></trkpt><trkpt lat="36.835115519429124" lon="-108.19319111600787"><ele>1736.9999999999998</ele><time>2026-03-29T15:17:16Z</time></trkpt><trkpt lat="36.835203145869734" lon="-108.19322680375306"><ele>1737.0</ele><time>2026-03-29T15:17:17Z</time></trkpt><trkpt lat="36.83530944230539" lon="-108.19324837919383"><ele>1737.0</ele><time>2026-03-29T15:17:18Z</time></trkpt><trkpt lat="36.8353996684777" lon="-108.19327444506722"><ele>1737.0</ele><time>2026-03-29T15:17:19Z</time></trkpt><trkpt lat="36.835483877981126" lon="-108.1932810144234"><ele>1736.9999999999998</ele><time>2026-03-29T15:17:20Z</time></trkpt><trkpt lat="36.835591065212334" lon="-108.19328076399758"><ele>1736.9999999999998</ele><time>2026-03-29T15:17:21Z</time></trkpt><trkpt lat="36.835697952867136" lon="-108.19328929704584"><ele>1737.0</ele><time>2026-03-29T15:17:22Z</time></trkpt><trkpt lat="36.83583141952596" lon="-108.19330546752357"><ele>1737.0</ele><time>2026-03-29T15:17:23Z</time></trkpt><trkpt lat="36.835978610860934" lon="-108.19326602283331"><ele>1739.0</ele><time>2026-03-29T15:17:24Z</time></trkpt><trkpt lat="36.83611970864212" lon="-108.19321073262536"><ele>1741.0</ele><time>2026-03-29T15:17:25Z</time></trkpt><trkpt lat="36.83626039886174" lon="-108.19314468023487"><ele>1743.0</ele><time>2026-03-29T15:17:26Z</time></trkpt><trkpt lat="36.83639456084336" lon="-108.19310129027436"><ele>1745.0</ele><time>2026-03-29T15:17:27Z</time></trkpt><trkpt lat="36.83652042378571" lon="-108.19309663490725"><ele>1745.2</ele><time>2026-03-29T15:17:28Z</time></trkpt><trkpt lat="36.83662745728692" lon="-108.19307662790312"><ele>1745.4</ele><time>2026-03-29T15:17:29Z</time></trkpt><trkpt lat="36.836729683144874" lon="-108.1930408624193"><ele>1745.6</ele><time>2026-03-29T15:17:30Z</time></trkpt><trkpt lat="36.83683468190519" lon="-108.1930236614409"><ele>1745.8</ele><time>2026-03-29T15:17:31Z</time></trkpt><trkpt lat="36.83692351570137" lon="-108.1930213315481"><ele>1746.0</ele><time>2026-03-29T15:17:32Z</time></trkpt><trkpt lat="36.83701175413362" lon="-108.19303751919219"><ele>1747.0</ele><time>2026-03-29T15:17:33Z</time></trkpt><trkpt lat="36.837125392056926" lon="-108.19307173578734"><ele>1748.0</ele><time>2026-03-29T15:17:34Z</time></trkpt><trkpt lat="36.83723027902757" lon="-108.19310672382497"><ele>1749.0</ele><time>2026-03-29T15:17:35Z</time></trkpt><trkpt lat="36.83732551458843" lon="-108.19313785317424"><ele>1750.0</ele><time>2026-03-29T15:17:36Z</time></trkpt><trkpt lat="36.83744046320119" lon="-108.19315934008982"><ele>1751.0</ele><time>2026-03-29T15:17:37Z</time></trkpt><trkpt lat="36.837559317596686" lon="-108.19316827700293"><ele>1752.3333333333333</ele><time>2026-03-29T15:17:38Z</time></trkpt><trkpt lat="36.837655565236325" lon="-108.19317908902666"><ele>1753.6666666666665</ele><time>2026-03-29T15:17:39Z</time></trkpt><trkpt lat="36.83772451254818" lon="-108.19321170241665"><ele>1755.0</ele><time>2026-03-29T15:17:40Z</time></trkpt><trkpt lat="36.8377660249203" lon="-108.19328220507903"><ele>1756.3333333333335</ele><time>2026-03-29T15:17:41Z</time></trkpt><trkpt lat="36.83777398120133" lon="-108.1933790675988"><ele>1757.6666666666667</ele><time>2026-03-29T15:17:42Z</time></trkpt><trkpt lat="36.837785104049104" lon="-108.19347926907416"><ele>1759.0</ele><time>2026-03-29T15:17:43Z</time></trkpt><trkpt lat="36.83788100650747" lon="-108.19352404238239"><ele>1759.0</ele><time>2026-03-29T15:17:45Z</time></trkpt><trkpt lat="36.837948252284825" lon="-108.19352958311099"><ele>1759.0</ele><time>2026-03-29T15:17:46Z</time></trkpt><trkpt lat="36.83803123220618" lon="-108.19366121827478"><ele>1759.0</ele><time>2026-03-29T15:17:48Z</time></trkpt><trkpt lat="36.83804697729006" lon="-108.19375877791403"><ele>1759.0</ele><time>2026-03-29T15:17:49Z</time></trkpt><trkpt lat="36.83815320871514" lon="-108.19381460509736"><ele>1759.0</ele><time>2026-03-29T15:17:51Z</time></trkpt><trkpt lat="36.83825566413728" lon="-108.19384296035689"><ele>1759.0</ele><time>2026-03-29T15:17:52Z</time></trkpt><trkpt lat="36.83836819120951" lon="-108.19389476283821"><ele>1759.0</ele><time>2026-03-29T15:17:53Z</time></trkpt><trkpt lat="36.83845567459296" lon="-108.19398891030814"><ele>1759.0</ele><time>2026-03-29T15:17:54Z</time></trkpt><trkpt lat="36.838538581122485" lon="-108.19402908678047"><ele>1759.0</ele><time>2026-03-29T15:17:55Z</time></trkpt><trkpt lat="36.83862392028945" lon="-108.19405886227683"><ele>1759.0</ele><time>2026-03-29T15:17:56Z</time></trkpt><trkpt lat="36.83870028791176" lon="-108.19408029514562"><ele>1759.0</ele><time>2026-03-29T15:17:57Z</time></trkpt><trkpt lat="36.83879975974405" lon="-108.19408519005277"><ele>1759.0</ele><time>2026-03-29T15:17:58Z</time></trkpt><trkpt lat="36.838934288486975" lon="-108.19409616837859"><ele>1759.0</ele><time>2026-03-29T15:17:59Z</time></trkpt><trkpt lat="36.8390450855742" lon="-108.19413030573152"><ele>1759.0</ele><time>2026-03-29T15:18:00Z</time></trkpt><trkpt lat="36.83912062322655" lon="-108.19419967240353"><ele>1759.0</ele><time>2026-03-29T15:18:01Z</time></trkpt><trkpt lat="36.83920903737351" lon="-108.19426954094544"><ele>1759.0</ele><time>2026-03-29T15:18:02Z</time></trkpt><trkpt lat="36.839295399758306" lon="-108.19431004327988"><ele>1759.0</ele><time>2026-03-29T15:18:03Z</time></trkpt><trkpt lat="36.839371606094545" lon="-108.19436299167539"><ele>1759.0</ele><time>2026-03-29T15:18:04Z</time></trkpt><trkpt lat="36.8394560073626" lon="-108.19441721751295"><ele>1759.0</ele><time>2026-03-29T15:18:05Z</time></trkpt><trkpt lat="36.8395456061444" lon="-108.1944755535473"><ele>1759.0</ele><time>2026-03-29T15:18:06Z</time></trkpt><trkpt lat="36.83961158086208" lon="-108.19452821149363"><ele>1759.4</ele><time>2026-03-29T15:18:07Z</time></trkpt><trkpt lat="36.839669708615595" lon="-108.19461050888563"><ele>1759.8000000000002</ele><time>2026-03-29T15:18:08Z</time></trkpt><trkpt lat="36.83972532310061" lon="-108.19471386593267"><ele>1760.1999999999998</ele><time>2026-03-29T15:18:09Z</time></trkpt><trkpt lat="36.83977149583577" lon="-108.1947774588714"><ele>1760.6</ele><time>2026-03-29T15:18:10Z</time></trkpt><trkpt lat="36.839907091995386" lon="-108.19474952316018"><ele>1761.0</ele><time>2026-03-29T15:18:12Z</time></trkpt><trkpt lat="36.840029783535144" lon="-108.1947564691419"><ele>1761.0</ele><time>2026-03-29T15:18:13Z</time></trkpt><trkpt lat="36.840104864229346" lon="-108.19482651868569"><ele>1761.0</ele><time>2026-03-29T15:18:14Z</time></trkpt><trkpt lat="36.84012091555792" lon="-108.19495751941987"><ele>1761.0</ele><time>2026-03-29T15:18:15Z</time></trkpt><trkpt lat="36.84012072298271" lon="-108.1951029240164"><ele>1761.0</ele><time>2026-03-29T15:18:16Z</time></trkpt><trkpt lat="36.8401370195998" lon="-108.19523445563772"><ele>1761.0</ele><time>2026-03-29T15:18:17Z</time></trkpt><trkpt lat="36.84014580746775" lon="-108.19536753118508"><ele>1760.5</ele><time>2026-03-29T15:18:18Z</time></trkpt><trkpt lat="36.8401025903057" lon="-108.19552318731147"><ele>1760.0</ele><time>2026-03-29T15:18:19Z</time></trkpt><trkpt lat="36.84006066477534" lon="-108.19564766735665"><ele>1759.5</ele><time>2026-03-29T15:18:20Z</time></trkpt><trkpt lat="36.8400189214172" lon="-108.19580830942184"><ele>1759.0</ele><time>2026-03-29T15:18:21Z</time></trkpt><trkpt lat="36.83996854763947" lon="-108.19595782695707"><ele>1758.8000000000002</ele><time>2026-03-29T15:18:22Z</time></trkpt><trkpt lat="36.83994049879599" lon="-108.19609249903975"><ele>1758.6000000000001</ele><time>2026-03-29T15:18:23Z</time></trkpt><trkpt lat="36.839931684764025" lon="-108.19621335051924"><ele>1758.4</ele><time>2026-03-29T15:18:24Z</time></trkpt><trkpt lat="36.83992279886578" lon="-108.19633541731251"><ele>1758.2</ele><time>2026-03-29T15:18:25Z</time></trkpt><trkpt lat="36.839943658539816" lon="-108.19645175859796"><ele>1758.0</ele><time>2026-03-29T15:18:26Z</time></trkpt><trkpt lat="36.839934028115074" lon="-108.19656945122945"><ele>1757.8000000000002</ele><time>2026-03-29T15:18:27Z</time></trkpt><trkpt lat="36.83988544670877" lon="-108.19667568851834"><ele>1757.6000000000001</ele><time>2026-03-29T15:18:28Z</time></trkpt><trkpt lat="36.839852364990904" lon="-108.19682941411415"><ele>1757.3999999999999</ele><time>2026-03-29T15:18:29Z</time></trkpt><trkpt lat="36.839836671370215" lon="-108.1969475603334"><ele>1757.1999999999998</ele><time>2026-03-29T15:18:30Z</time></trkpt><trkpt lat="36.839792855205914" lon="-108.19702605482165"><ele>1757.0</ele><time>2026-03-29T15:18:31Z</time></trkpt><trkpt lat="36.83974061685982" lon="-108.19709195175116"><ele>1756.9999999999998</ele><time>2026-03-29T15:18:32Z</time></trkpt><trkpt lat="36.83970638130688" lon="-108.1971788775685"><ele>1757.0</ele><time>2026-03-29T15:18:33Z</time></trkpt><trkpt lat="36.83965611495247" lon="-108.19729328631892"><ele>1757.0</ele><time>2026-03-29T15:18:34Z</time></trkpt><trkpt lat="36.83961965369018" lon="-108.19737863982887"><ele>1757.0</ele><time>2026-03-29T15:18:35Z</time></trkpt><trkpt lat="36.8396192077783" lon="-108.19747248258768"><ele>1756.9999999999998</ele><time>2026-03-29T15:18:36Z</time></trkpt><trkpt lat="36.83962409980678" lon="-108.19759816681726"><ele>1757.0</ele><time>2026-03-29T15:18:37Z</time></trkpt><trkpt lat="36.83962731424112" lon="-108.1977362667244"><ele>1756.8</ele><time>2026-03-29T15:18:38Z</time></trkpt><trkpt lat="36.83965029555676" lon="-108.19784926309003"><ele>1756.6</ele><time>2026-03-29T15:18:39Z</time></trkpt><trkpt lat="36.83966683386412" lon="-108.19796022798097"><ele>1756.3999999999999</ele><time>2026-03-29T15:18:40Z</time></trkpt><trkpt lat="36.839654697129" lon="-108.19806717296318"><ele>1756.1999999999998</ele><time>2026-03-29T15:18:41Z</time></trkpt><trkpt lat="36.83962382973612" lon="-108.19817195709847"><ele>1756.0</ele><time>2026-03-29T15:18:42Z</time></trkpt><trkpt lat="36.83958380411751" lon="-108.19829479627697"><ele>1755.6</ele><time>2026-03-29T15:18:43Z</time></trkpt><trkpt lat="36.83952738445315" lon="-108.19842591536484"><ele>1755.1999999999998</ele><time>2026-03-29T15:18:44Z</time></trkpt><trkpt lat="36.8394663641837" lon="-108.19853195150598"><ele>1754.8000000000002</ele><time>2026-03-29T15:18:45Z</time></trkpt><trkpt lat="36.83943581586661" lon="-108.19863672038926"><ele>1754.4</ele><time>2026-03-29T15:18:47Z</time></trkpt><trkpt lat="36.83945923681065" lon="-108.19872217383237"><ele>1754.0</ele><time>2026-03-29T15:18:48Z</time></trkpt><trkpt lat="36.839481669454365" lon="-108.19882300307529"><ele>1754.0</ele><time>2026-03-29T15:18:49Z</time></trkpt><trkpt lat="36.83949057746192" lon="-108.19894969159925"><ele>1754.0</ele><time>2026-03-29T15:18:50Z</time></trkpt><trkpt lat="36.83947707421849" lon="-108.19908798220439"><ele>1754.0</ele><time>2026-03-29T15:18:51Z</time></trkpt><trkpt lat="36.83942424783515" lon="-108.1991938905358"><ele>1754.0</ele><time>2026-03-29T15:18:52Z</time></trkpt><trkpt lat="36.839374437444526" lon="-108.19929834615205"><ele>1754.0</ele><time>2026-03-29T15:18:53Z</time></trkpt><trkpt lat="36.83931303167423" lon="-108.19939861239354"><ele>1753.0</ele><time>2026-03-29T15:18:54Z</time></trkpt><trkpt lat="36.83926428778724" lon="-108.19948211103375"><ele>1752.0</ele><time>2026-03-29T15:18:55Z</time></trkpt><trkpt lat="36.839236472109015" lon="-108.19957704105174"><ele>1751.0</ele><time>2026-03-29T15:18:56Z</time></trkpt><trkpt lat="36.83919737891235" lon="-108.19967841535261"><ele>1750.0</ele><time>2026-03-29T15:18:57Z</time></trkpt><trkpt lat="36.8391946605503" lon="-108.19980443844689"><ele>1749.0</ele><time>2026-03-29T15:18:58Z</time></trkpt><trkpt lat="36.83916777293818" lon="-108.19993682424195"><ele>1749.0</ele><time>2026-03-29T15:18:59Z</time></trkpt><trkpt lat="36.83914668711728" lon="-108.20008237570475"><ele>1749.0</ele><time>2026-03-29T15:19:00Z</time></trkpt><trkpt lat="36.83912506975089" lon="-108.200221815447"><ele>1749.0</ele><time>2026-03-29T15:19:01Z</time></trkpt><trkpt lat="36.839098260716945" lon="-108.20033178339449"><ele>1749.0</ele><time>2026-03-29T15:19:02Z</time></trkpt><trkpt lat="36.83907850280963" lon="-108.2004303259022"><ele>1749.0</ele><time>2026-03-29T15:19:03Z</time></trkpt><trkpt lat="36.839060027599864" lon="-108.20056166787026"><ele>1748.6</ele><time>2026-03-29T15:19:04Z</time></trkpt><trkpt lat="36.83905477019702" lon="-108.20070385630486"><ele>1748.2</ele><time>2026-03-29T15:19:05Z</time></trkpt><trkpt lat="36.8390433872743" lon="-108.20084230346134"><ele>1747.7999999999997</ele><time>2026-03-29T15:19:06Z</time></trkpt><trkpt lat="36.83902363772616" lon="-108.20093621492434"><ele>1747.3999999999999</ele><time>2026-03-29T15:19:07Z</time></trkpt><trkpt lat="36.83896497928648" lon="-108.20102428168926"><ele>1747.0</ele><time>2026-03-29T15:19:08Z</time></trkpt><trkpt lat="36.838886229110734" lon="-108.20114223034045"><ele>1747.0</ele><time>2026-03-29T15:19:09Z</time></trkpt><trkpt lat="36.8388429341564" lon="-108.2012312681104"><ele>1746.9999999999998</ele><time>2026-03-29T15:19:10Z</time></trkpt><trkpt lat="36.83888421400241" lon="-108.20134300714496"><ele>1746.9999999999998</ele><time>2026-03-29T15:19:12Z</time></trkpt><trkpt lat="36.83894457294188" lon="-108.20138111070972"><ele>1747.0</ele><time>2026-03-29T15:19:13Z</time></trkpt><trkpt lat="36.83903487285641" lon="-108.20148935226145"><ele>1747.0</ele><time>2026-03-29T15:19:15Z</time></trkpt><trkpt lat="36.83913170230262" lon="-108.20156538427463"><ele>1746.75</ele><time>2026-03-29T15:19:16Z</time></trkpt><trkpt lat="36.83921272208853" lon="-108.20169484079857"><ele>1746.5</ele><time>2026-03-29T15:19:17Z</time></trkpt><trkpt lat="36.83928532403631" lon="-108.20182332741402"><ele>1746.25</ele><time>2026-03-29T15:19:18Z</time></trkpt><trkpt lat="36.83939093067509" lon="-108.20192452008254"><ele>1746.0</ele><time>2026-03-29T15:19:19Z</time></trkpt><trkpt lat="36.83949434636861" lon="-108.20205180464217"><ele>1745.8</ele><time>2026-03-29T15:19:20Z</time></trkpt><trkpt lat="36.83958554008207" lon="-108.20215095105875"><ele>1745.6</ele><time>2026-03-29T15:19:21Z</time></trkpt><trkpt lat="36.83965452173337" lon="-108.20224230354852"><ele>1745.4</ele><time>2026-03-29T15:19:22Z</time></trkpt><trkpt lat="36.83970172561295" lon="-108.20232112530462"><ele>1745.2</ele><time>2026-03-29T15:19:23Z</time></trkpt><trkpt lat="36.83965968050918" lon="-108.20245395486884"><ele>1745.0</ele><time>2026-03-29T15:19:25Z</time></trkpt><trkpt lat="36.83961677261018" lon="-108.20254061664065"><ele>1744.6</ele><time>2026-03-29T15:19:26Z</time></trkpt><trkpt lat="36.839701168401525" lon="-108.20269128846724"><ele>1744.2</ele><time>2026-03-29T15:19:28Z</time></trkpt><trkpt lat="36.839726071867354" lon="-108.20279317774272"><ele>1743.8000000000002</ele><time>2026-03-29T15:19:29Z</time></trkpt><trkpt lat="36.83970221945612" lon="-108.20291430585097"><ele>1743.4</ele><time>2026-03-29T15:19:30Z</time></trkpt><trkpt lat="36.83967685864014" lon="-108.20301030848407"><ele>1743.0</ele><time>2026-03-29T15:19:31Z</time></trkpt><trkpt lat="36.83978334106219" lon="-108.20310164139266"><ele>1742.2</ele><time>2026-03-29T15:19:33Z</time></trkpt><trkpt lat="36.83987457455782" lon="-108.2031836448619"><ele>1741.4</ele><time>2026-03-29T15:19:34Z</time></trkpt><trkpt lat="36.83995045228014" lon="-108.2032659017257"><ele>1740.6000000000001</ele><time>2026-03-29T15:19:35Z</time></trkpt><trkpt lat="36.840021634958426" lon="-108.20333782014313"><ele>1739.8000000000002</ele><time>2026-03-29T15:19:36Z</time></trkpt><trkpt lat="36.840109491325585" lon="-108.20336991027831"><ele>1739.0</ele><time>2026-03-29T15:19:37Z</time></trkpt><trkpt lat="36.8401782342598" lon="-108.20344308854196"><ele>1739.0</ele><time>2026-03-29T15:19:38Z</time></trkpt><trkpt lat="36.84024381849456" lon="-108.20349236860199"><ele>1739.0</ele><time>2026-03-29T15:19:39Z</time></trkpt><trkpt lat="36.84029826056686" lon="-108.20354230465024"><ele>1739.0</ele><time>2026-03-29T15:19:40Z</time></trkpt><trkpt lat="36.8403302860422" lon="-108.20361512277836"><ele>1739.0</ele><time>2026-03-29T15:19:41Z</time></trkpt><trkpt lat="36.84044895309818" lon="-108.20369685789652"><ele>1739.0</ele><time>2026-03-29T15:19:43Z</time></trkpt><trkpt lat="36.840546897912986" lon="-108.20378216101274"><ele>1739.0</ele><time>2026-03-29T15:19:45Z</time></trkpt><trkpt lat="36.84064101064669" lon="-108.20379615062123"><ele>1739.0</ele><time>2026-03-29T15:19:47Z</time></trkpt><trkpt lat="36.84074440736721" lon="-108.20372426451249"><ele>1739.0</ele><time>2026-03-29T15:19:49Z</time></trkpt><trkpt lat="36.8408484569026" lon="-108.2037391895392"><ele>1739.0</ele><time>2026-03-29T15:19:50Z</time></trkpt><trkpt lat="36.84090083674813" lon="-108.2038144719061"><ele>1739.0</ele><time>2026-03-29T15:19:51Z</time></trkpt><trkpt lat="36.84092665860455" lon="-108.20393541103186"><ele>1738.0</ele><time>2026-03-29T15:19:52Z</time></trkpt><trkpt lat="36.840951111754634" lon="-108.20403789427348"><ele>1737.0</ele><time>2026-03-29T15:19:53Z</time></trkpt><trkpt lat="36.84095113878263" lon="-108.20414722889093"><ele>1736.0</ele><time>2026-03-29T15:19:54Z</time></trkpt><trkpt lat="36.84096361491458" lon="-108.20428691836759"><ele>1735.0</ele><time>2026-03-29T15:19:55Z</time></trkpt><trkpt lat="36.84100761995267" lon="-108.20438235379652"><ele>1734.0</ele><time>2026-03-29T15:19:56Z</time></trkpt><trkpt lat="36.84100104413879" lon="-108.20449169869403"><ele>1734.0</ele><time>2026-03-29T15:19:57Z</time></trkpt><trkpt lat="36.840960822599705" lon="-108.20460533987992"><ele>1734.0</ele><time>2026-03-29T15:19:58Z</time></trkpt><trkpt lat="36.840952369149825" lon="-108.20471190177125"><ele>1734.0</ele><time>2026-03-29T15:19:59Z</time></trkpt><trkpt lat="36.84099013326252" lon="-108.20479688933109"><ele>1734.0</ele><time>2026-03-29T15:20:00Z</time></trkpt><trkpt lat="36.8410204847513" lon="-108.20488198225615"><ele>1734.0</ele><time>2026-03-29T15:20:01Z</time></trkpt><trkpt lat="36.84100847440132" lon="-108.20499715045898"><ele>1734.0</ele><time>2026-03-29T15:20:02Z</time></trkpt><trkpt lat="36.840973973243955" lon="-108.2050990963761"><ele>1732.25</ele><time>2026-03-29T15:20:03Z</time></trkpt><trkpt lat="36.84094789860529" lon="-108.20522989718437"><ele>1730.5</ele><time>2026-03-29T15:20:04Z</time></trkpt><trkpt lat="36.84094660881795" lon="-108.20537882642675"><ele>1728.75</ele><time>2026-03-29T15:20:05Z</time></trkpt><trkpt lat="36.840915087625426" lon="-108.20551323599474"><ele>1727.0</ele><time>2026-03-29T15:20:06Z</time></trkpt><trkpt lat="36.84086661502447" lon="-108.2056513456673"><ele>1726.1999999999998</ele><time>2026-03-29T15:20:07Z</time></trkpt><trkpt lat="36.84083721960257" lon="-108.20574979231556"><ele>1725.3999999999999</ele><time>2026-03-29T15:20:08Z</time></trkpt><trkpt lat="36.84083927305316" lon="-108.20587831049865"><ele>1724.6000000000001</ele><time>2026-03-29T15:20:09Z</time></trkpt><trkpt lat="36.84085221349961" lon="-108.20601588512599"><ele>1723.8000000000002</ele><time>2026-03-29T15:20:10Z</time></trkpt><trkpt lat="36.84085023895556" lon="-108.20613522495003"><ele>1723.0</ele><time>2026-03-29T15:20:11Z</time></trkpt><trkpt lat="36.8408267188196" lon="-108.20621818139156"><ele>1723.0000000000002</ele><time>2026-03-29T15:20:12Z</time></trkpt><trkpt lat="36.8407687687161" lon="-108.20629982034788"><ele>1723.0</ele><time>2026-03-29T15:20:13Z</time></trkpt><trkpt lat="36.840702519348284" lon="-108.20636752471809"><ele>1723.0</ele><time>2026-03-29T15:20:14Z</time></trkpt><trkpt lat="36.84062492708478" lon="-108.20642471571064"><ele>1723.0</ele><time>2026-03-29T15:20:15Z</time></trkpt><trkpt lat="36.840572359031455" lon="-108.20648406910317"><ele>1723.0000000000002</ele><time>2026-03-29T15:20:17Z</time></trkpt><trkpt lat="36.840613341899044" lon="-108.20659593722031"><ele>1723.0</ele><time>2026-03-29T15:20:19Z</time></trkpt><trkpt lat="36.84065793466443" lon="-108.20667786360168"><ele>1722.2</ele><time>2026-03-29T15:20:20Z</time></trkpt><trkpt lat="36.84067022723953" lon="-108.2067666659914"><ele>1721.4</ele><time>2026-03-29T15:20:21Z</time></trkpt><trkpt lat="36.840613839922284" lon="-108.2068454976752"><ele>1720.6000000000001</ele><time>2026-03-29T15:20:22Z</time></trkpt><trkpt lat="36.84055138033185" lon="-108.20695648993338"><ele>1719.8000000000002</ele><time>2026-03-29T15:20:23Z</time></trkpt><trkpt lat="36.84049223048514" lon="-108.20704832573881"><ele>1719.0</ele><time>2026-03-29T15:20:24Z</time></trkpt><trkpt lat="36.84041204972266" lon="-108.20711166077194"><ele>1719.0</ele><time>2026-03-29T15:20:25Z</time></trkpt><trkpt lat="36.840360827096475" lon="-108.20718895204304"><ele>1719.0</ele><time>2026-03-29T15:20:26Z</time></trkpt><trkpt lat="36.840327096971585" lon="-108.20729255218531"><ele>1719.0</ele><time>2026-03-29T15:20:27Z</time></trkpt><trkpt lat="36.84028157466151" lon="-108.20736425139688"><ele>1719.0</ele><time>2026-03-29T15:20:28Z</time></trkpt><trkpt lat="36.84017614882703" lon="-108.20744669242286"><ele>1719.0</ele><time>2026-03-29T15:20:30Z</time></trkpt><trkpt lat="36.84011533491468" lon="-108.20752213593158"><ele>1718.2</ele><time>2026-03-29T15:20:31Z</time></trkpt><trkpt lat="36.84010469901986" lon="-108.2076614556581"><ele>1717.4</ele><time>2026-03-29T15:20:33Z</time></trkpt><trkpt lat="36.84014493345585" lon="-108.20777094781934"><ele>1716.6</ele><time>2026-03-29T15:20:34Z</time></trkpt><trkpt lat="36.84017404833463" lon="-108.20785140600569"><ele>1715.8</ele><time>2026-03-29T15:20:35Z</time></trkpt><trkpt lat="36.84022854786386" lon="-108.208004817971"><ele>1715.0</ele><time>2026-03-29T15:20:37Z</time></trkpt><trkpt lat="36.840253688824426" lon="-108.20808775513174"><ele>1715.0</ele><time>2026-03-29T15:20:38Z</time></trkpt><trkpt lat="36.84033058069938" lon="-108.20814481137427"><ele>1715.0</ele><time>2026-03-29T15:20:39Z</time></trkpt><trkpt lat="36.840450841344555" lon="-108.20818643268287"><ele>1715.0</ele><time>2026-03-29T15:20:40Z</time></trkpt><trkpt lat="36.840577053313815" lon="-108.20819829828446"><ele>1715.0</ele><time>2026-03-29T15:20:41Z</time></trkpt><trkpt lat="36.84071210614524" lon="-108.20817670254483"><ele>1715.0</ele><time>2026-03-29T15:20:42Z</time></trkpt><trkpt lat="36.840848477776476" lon="-108.20813871670515"><ele>1715.0</ele><time>2026-03-29T15:20:43Z</time></trkpt><trkpt lat="36.84100025508981" lon="-108.20807300261323"><ele>1715.0</ele><time>2026-03-29T15:20:44Z</time></trkpt><trkpt lat="36.84116049729419" lon="-108.20795908305931"><ele>1716.0</ele><time>2026-03-29T15:20:45Z</time></trkpt><trkpt lat="36.841307490393376" lon="-108.20782364069655"><ele>1717.0</ele><time>2026-03-29T15:20:46Z</time></trkpt><trkpt lat="36.84145022875039" lon="-108.20764714350871"><ele>1718.0</ele><time>2026-03-29T15:20:47Z</time></trkpt><trkpt lat="36.841596186167926" lon="-108.20746498470459"><ele>1718.3333333333333</ele><time>2026-03-29T15:20:48Z</time></trkpt><trkpt lat="36.84175913186723" lon="-108.20729469417465"><ele>1718.6666666666665</ele><time>2026-03-29T15:20:49Z</time></trkpt><trkpt lat="36.84192664891226" lon="-108.20712580823633"><ele>1719.0</ele><time>2026-03-29T15:20:50Z</time></trkpt><trkpt lat="36.84208879221253" lon="-108.20699227119138"><ele>1719.0</ele><time>2026-03-29T15:20:51Z</time></trkpt><trkpt lat="36.84219789558239" lon="-108.2068835007476"><ele>1719.0</ele><time>2026-03-29T15:20:52Z</time></trkpt><trkpt lat="36.842299381749875" lon="-108.2067516025216"><ele>1719.0</ele><time>2026-03-29T15:20:53Z</time></trkpt><trkpt lat="36.84235069155999" lon="-108.20659745122764"><ele>1719.0</ele><time>2026-03-29T15:20:54Z</time></trkpt><trkpt lat="36.84239491729009" lon="-108.20645287500437"><ele>1719.6666666666665</ele><time>2026-03-29T15:20:55Z</time></trkpt><trkpt lat="36.84240304994817" lon="-108.20627364742943"><ele>1720.3333333333333</ele><time>2026-03-29T15:20:56Z</time></trkpt><trkpt lat="36.84238141141245" lon="-108.20605421965473"><ele>1721.0</ele><time>2026-03-29T15:20:57Z</time></trkpt><trkpt lat="36.84233435523606" lon="-108.2058337646988"><ele>1721.6666666666665</ele><time>2026-03-29T15:20:58Z</time></trkpt><trkpt lat="36.842337861343545" lon="-108.20560561886214"><ele>1722.3333333333335</ele><time>2026-03-29T15:20:59Z</time></trkpt><trkpt lat="36.84236168187736" lon="-108.20537065595867"><ele>1723.0</ele><time>2026-03-29T15:21:00Z</time></trkpt><trkpt lat="36.84237655681735" lon="-108.2051350462824"><ele>1723.0</ele><time>2026-03-29T15:21:01Z</time></trkpt><trkpt lat="36.84241421160675" lon="-108.20492129695192"><ele>1723.0</ele><time>2026-03-29T15:21:02Z</time></trkpt><trkpt lat="36.842486628305416" lon="-108.20471234182351"><ele>1723.0</ele><time>2026-03-29T15:21:03Z</time></trkpt><trkpt lat="36.84259160722841" lon="-108.20447931627733"><ele>1723.6666666666667</ele><time>2026-03-29T15:21:04Z</time></trkpt><trkpt lat="36.84272639689392" lon="-108.20426708276496"><ele>1724.3333333333335</ele><time>2026-03-29T15:21:05Z</time></trkpt><trkpt lat="36.84286062651928" lon="-108.20404882603138"><ele>1725.0</ele><time>2026-03-29T15:21:06Z</time></trkpt><trkpt lat="36.842986916620525" lon="-108.20382869945685"><ele>1726.3333333333335</ele><time>2026-03-29T15:21:07Z</time></trkpt><trkpt lat="36.8430765489217" lon="-108.20363882298295"><ele>1727.6666666666667</ele><time>2026-03-29T15:21:08Z</time></trkpt><trkpt lat="36.84314408131127" lon="-108.20346582020706"><ele>1729.0</ele><time>2026-03-29T15:21:09Z</time></trkpt><trkpt lat="36.843223904749" lon="-108.20323992024966"><ele>1730.0</ele><time>2026-03-29T15:21:10Z</time></trkpt><trkpt lat="36.84325753979298" lon="-108.2029980420174"><ele>1731.0</ele><time>2026-03-29T15:21:11Z</time></trkpt><trkpt lat="36.84323285972919" lon="-108.20274364071987"><ele>1732.0</ele><time>2026-03-29T15:21:12Z</time></trkpt><trkpt lat="36.84321898156224" lon="-108.20248697964863"><ele>1732.6666666666667</ele><time>2026-03-29T15:21:13Z</time></trkpt><trkpt lat="36.843203573676305" lon="-108.20222460565525"><ele>1733.3333333333335</ele><time>2026-03-29T15:21:14Z</time></trkpt><trkpt lat="36.84319719370386" lon="-108.20192623163805"><ele>1734.0</ele><time>2026-03-29T15:21:15Z</time></trkpt><trkpt lat="36.843194394164314" lon="-108.20162786305963"><ele>1734.5</ele><time>2026-03-29T15:21:16Z</time></trkpt><trkpt lat="36.8431815700485" lon="-108.20132708808357"><ele>1735.0</ele><time>2026-03-29T15:21:17Z</time></trkpt><trkpt lat="36.84316804544549" lon="-108.20104185560288"><ele>1735.0</ele><time>2026-03-29T15:21:18Z</time></trkpt><trkpt lat="36.84316576612419" lon="-108.20075794475433"><ele>1735.0</ele><time>2026-03-29T15:21:19Z</time></trkpt><trkpt lat="36.84316628546956" lon="-108.20047108601956"><ele>1735.0</ele><time>2026-03-29T15:21:20Z</time></trkpt><trkpt lat="36.843144423914545" lon="-108.2002046172771"><ele>1735.0</ele><time>2026-03-29T15:21:21Z</time></trkpt><trkpt lat="36.84309027463961" lon="-108.19992896203931"><ele>1735.0</ele><time>2026-03-29T15:21:22Z</time></trkpt><trkpt lat="36.84306151782901" lon="-108.19963643354457"><ele>1735.0</ele><time>2026-03-29T15:21:23Z</time></trkpt><trkpt lat="36.8430483393592" lon="-108.19938329984159"><ele>1735.0</ele><time>2026-03-29T15:21:24Z</time></trkpt><trkpt lat="36.843056834464335" lon="-108.19916813389203"><ele>1735.0</ele><time>2026-03-29T15:21:25Z</time></trkpt><trkpt lat="36.84308670860776" lon="-108.19898988550065"><ele>1735.6666666666667</ele><time>2026-03-29T15:21:26Z</time></trkpt><trkpt lat="36.843157585889685" lon="-108.19883163698576"><ele>1736.3333333333335</ele><time>2026-03-29T15:21:27Z</time></trkpt><trkpt lat="36.843265802006826" lon="-108.1986363519072"><ele>1737.0</ele><time>2026-03-29T15:21:28Z</time></trkpt><trkpt lat="36.84339840224254" lon="-108.19847483557291"><ele>1737.6666666666665</ele><time>2026-03-29T15:21:29Z</time></trkpt><trkpt lat="36.84350467446158" lon="-108.19830649447965"><ele>1738.3333333333333</ele><time>2026-03-29T15:21:30Z</time></trkpt><trkpt lat="36.8436008753452" lon="-108.19809062809475"><ele>1739.0</ele><time>2026-03-29T15:21:31Z</time></trkpt><trkpt lat="36.84366735987843" lon="-108.19787756741803"><ele>1739.0</ele><time>2026-03-29T15:21:32Z</time></trkpt><trkpt lat="36.843702186850294" lon="-108.1976613559631"><ele>1739.0</ele><time>2026-03-29T15:21:33Z</time></trkpt><trkpt lat="36.843754648565415" lon="-108.1973907140663"><ele>1739.0</ele><time>2026-03-29T15:21:34Z</time></trkpt><trkpt lat="36.8438288363539" lon="-108.19712445932237"><ele>1740.3333333333333</ele><time>2026-03-29T15:21:35Z</time></trkpt><trkpt lat="36.8439070232691" lon="-108.19686677867928"><ele>1741.6666666666665</ele><time>2026-03-29T15:21:36Z</time></trkpt><trkpt lat="36.843995175684455" lon="-108.19661320846556"><ele>1743.0</ele><time>2026-03-29T15:21:37Z</time></trkpt><trkpt lat="36.84408061864123" lon="-108.19635433539177"><ele>1743.0</ele><time>2026-03-29T15:21:38Z</time></trkpt><trkpt lat="36.844172576342274" lon="-108.19607346912632"><ele>1743.0</ele><time>2026-03-29T15:21:39Z</time></trkpt><trkpt lat="36.84422979159579" lon="-108.19579855317963"><ele>1743.6666666666665</ele><time>2026-03-29T15:21:40Z</time></trkpt><trkpt lat="36.84426629137777" lon="-108.19551552642424"><ele>1744.3333333333333</ele><time>2026-03-29T15:21:41Z</time></trkpt><trkpt lat="36.844276194947376" lon="-108.19526770698239"><ele>1745.0</ele><time>2026-03-29T15:21:42Z</time></trkpt><trkpt lat="36.84427846416115" lon="-108.19501026075268"><ele>1746.3333333333333</ele><time>2026-03-29T15:21:43Z</time></trkpt><trkpt lat="36.8442755396599" lon="-108.19474724878951"><ele>1747.6666666666665</ele><time>2026-03-29T15:21:44Z</time></trkpt><trkpt lat="36.84429401544831" lon="-108.19451181148497"><ele>1749.0</ele><time>2026-03-29T15:21:45Z</time></trkpt><trkpt lat="36.84433634024089" lon="-108.19429955927018"><ele>1749.0</ele><time>2026-03-29T15:21:46Z</time></trkpt><trkpt lat="36.84440115333602" lon="-108.19408442622684"><ele>1749.0</ele><time>2026-03-29T15:21:47Z</time></trkpt><trkpt lat="36.84448416826526" lon="-108.1938812677771"><ele>1749.0</ele><time>2026-03-29T15:21:48Z</time></trkpt><trkpt lat="36.8445660507253" lon="-108.19368381434232"><ele>1749.3333333333335</ele><time>2026-03-29T15:21:49Z</time></trkpt><trkpt lat="36.84462504936514" lon="-108.19351193322439"><ele>1749.6666666666667</ele><time>2026-03-29T15:21:50Z</time></trkpt><trkpt lat="36.84467438134983" lon="-108.1932963373103"><ele>1750.0</ele><time>2026-03-29T15:21:51Z</time></trkpt><trkpt lat="36.84471574185406" lon="-108.19306800701732"><ele>1750.6666666666667</ele><time>2026-03-29T15:21:52Z</time></trkpt><trkpt lat="36.84474330399334" lon="-108.1928189503483"><ele>1751.3333333333335</ele><time>2026-03-29T15:21:53Z</time></trkpt><trkpt lat="36.844769436362526" lon="-108.1925475417405"><ele>1752.0</ele><time>2026-03-29T15:21:54Z</time></trkpt><trkpt lat="36.844814814916006" lon="-108.19229068005252"><ele>1754.0</ele><time>2026-03-29T15:21:55Z</time></trkpt><trkpt lat="36.844878745037654" lon="-108.19203016045414"><ele>1756.0</ele><time>2026-03-29T15:21:56Z</time></trkpt><trkpt lat="36.8449680121329" lon="-108.191758609294"><ele>1756.0</ele><time>2026-03-29T15:21:57Z</time></trkpt><trkpt lat="36.84503912388559" lon="-108.19151386729415"><ele>1756.0</ele><time>2026-03-29T15:21:58Z</time></trkpt><trkpt lat="36.84507560549798" lon="-108.19128489379172"><ele>1756.0</ele><time>2026-03-29T15:21:59Z</time></trkpt><trkpt lat="36.84508078123168" lon="-108.19102982367906"><ele>1757.0</ele><time>2026-03-29T15:22:00Z</time></trkpt><trkpt lat="36.84508718575816" lon="-108.19079346807455"><ele>1758.0</ele><time>2026-03-29T15:22:01Z</time></trkpt><trkpt lat="36.84511456585672" lon="-108.19059110869813"><ele>1759.0</ele><time>2026-03-29T15:22:02Z</time></trkpt><trkpt lat="36.84518150633587" lon="-108.19043232211716"><ele>1760.0</ele><time>2026-03-29T15:22:03Z</time></trkpt><trkpt lat="36.84528143499821" lon="-108.19024785242853"><ele>1761.0</ele><time>2026-03-29T15:22:04Z</time></trkpt><trkpt lat="36.84541650298625" lon="-108.19006447594037"><ele>1762.0</ele><time>2026-03-29T15:22:05Z</time></trkpt><trkpt lat="36.8455530341868" lon="-108.18988007938282"><ele>1762.3333333333335</ele><time>2026-03-29T15:22:06Z</time></trkpt><trkpt lat="36.84566694441056" lon="-108.18970039641249"><ele>1762.6666666666665</ele><time>2026-03-29T15:22:07Z</time></trkpt><trkpt lat="36.84580200552806" lon="-108.18951345783613"><ele>1763.0</ele><time>2026-03-29T15:22:08Z</time></trkpt><trkpt lat="36.84596898755251" lon="-108.18933604370838"><ele>1763.6666666666665</ele><time>2026-03-29T15:22:09Z</time></trkpt><trkpt lat="36.84615337480454" lon="-108.18918551428737"><ele>1764.3333333333335</ele><time>2026-03-29T15:22:10Z</time></trkpt><trkpt lat="36.84635481518781" lon="-108.18906444179514"><ele>1765.0</ele><time>2026-03-29T15:22:11Z</time></trkpt><trkpt lat="36.846575968753896" lon="-108.18896381531877"><ele>1765.3333333333335</ele><time>2026-03-29T15:22:12Z</time></trkpt><trkpt lat="36.84677717135641" lon="-108.18887935301157"><ele>1765.6666666666665</ele><time>2026-03-29T15:22:13Z</time></trkpt><trkpt lat="36.846940730463935" lon="-108.18877413650407"><ele>1766.0</ele><time>2026-03-29T15:22:14Z</time></trkpt><trkpt lat="36.847123425429324" lon="-108.18862313655835"><ele>1766.5</ele><time>2026-03-29T15:22:15Z</time></trkpt><trkpt lat="36.847316557848835" lon="-108.18847068058211"><ele>1767.0</ele><time>2026-03-29T15:22:16Z</time></trkpt><trkpt lat="36.84751104798437" lon="-108.18832109634344"><ele>1769.5</ele><time>2026-03-29T15:22:17Z</time></trkpt><trkpt lat="36.84769735111968" lon="-108.18814670909786"><ele>1772.0</ele><time>2026-03-29T15:22:18Z</time></trkpt><trkpt lat="36.847883392155104" lon="-108.18795356837678"><ele>1772.0</ele><time>2026-03-29T15:22:19Z</time></trkpt><trkpt lat="36.84805757893821" lon="-108.18774966896866"><ele>1772.0</ele><time>2026-03-29T15:22:20Z</time></trkpt><trkpt lat="36.84821237012416" lon="-108.18753466383849"><ele>1772.0</ele><time>2026-03-29T15:22:21Z</time></trkpt><trkpt lat="36.84837059417361" lon="-108.18731767531423"><ele>1772.0</ele><time>2026-03-29T15:22:22Z</time></trkpt><trkpt lat="36.84852633955625" lon="-108.18709667609865"><ele>1773.6666666666665</ele><time>2026-03-29T15:22:23Z</time></trkpt><trkpt lat="36.848641774706955" lon="-108.18689149555499"><ele>1775.3333333333335</ele><time>2026-03-29T15:22:24Z</time></trkpt><trkpt lat="36.848723275554285" lon="-108.18668172132925"><ele>1777.0</ele><time>2026-03-29T15:22:25Z</time></trkpt><trkpt lat="36.848783628155445" lon="-108.18644531573788"><ele>1777.0</ele><time>2026-03-29T15:22:26Z</time></trkpt><trkpt lat="36.84884430569098" lon="-108.18619311116548"><ele>1777.0</ele><time>2026-03-29T15:22:27Z</time></trkpt><trkpt lat="36.84889437038612" lon="-108.18592260851732"><ele>1777.0</ele><time>2026-03-29T15:22:28Z</time></trkpt><trkpt lat="36.84893752579416" lon="-108.18565730476188"><ele>1776.6666666666667</ele><time>2026-03-29T15:22:29Z</time></trkpt><trkpt lat="36.849002819979724" lon="-108.18540636894826"><ele>1776.3333333333335</ele><time>2026-03-29T15:22:30Z</time></trkpt><trkpt lat="36.84906789548128" lon="-108.18520644219909"><ele>1776.0</ele><time>2026-03-29T15:22:31Z</time></trkpt><trkpt lat="36.84915819594353" lon="-108.18504507031687"><ele>1776.0</ele><time>2026-03-29T15:22:32Z</time></trkpt><trkpt lat="36.849287110169755" lon="-108.18487337496707"><ele>1776.0</ele><time>2026-03-29T15:22:33Z</time></trkpt><trkpt lat="36.849435450253026" lon="-108.18470406649759"><ele>1776.0</ele><time>2026-03-29T15:22:34Z</time></trkpt><trkpt lat="36.849571952162826" lon="-108.1845372302869"><ele>1776.3333333333335</ele><time>2026-03-29T15:22:35Z</time></trkpt><trkpt lat="36.849718927106224" lon="-108.1843463643843"><ele>1776.6666666666667</ele><time>2026-03-29T15:22:36Z</time></trkpt><trkpt lat="36.84986384448874" lon="-108.18414987291534"><ele>1777.0</ele><time>2026-03-29T15:22:37Z</time></trkpt><trkpt lat="36.850008332262924" lon="-108.18395620267334"><ele>1778.3333333333335</ele><time>2026-03-29T15:22:38Z</time></trkpt><trkpt lat="36.85016497375557" lon="-108.18375995832078"><ele>1779.6666666666665</ele><time>2026-03-29T15:22:39Z</time></trkpt><trkpt lat="36.85032916872535" lon="-108.18356357104398"><ele>1781.0</ele><time>2026-03-29T15:22:40Z</time></trkpt><trkpt lat="36.850496017950825" lon="-108.18335169518872"><ele>1782.0</ele><time>2026-03-29T15:22:41Z</time></trkpt><trkpt lat="36.85065136392308" lon="-108.18315247675807"><ele>1783.0</ele><time>2026-03-29T15:22:42Z</time></trkpt><trkpt lat="36.85078537209686" lon="-108.18294754420292"><ele>1784.0</ele><time>2026-03-29T15:22:43Z</time></trkpt><trkpt lat="36.85089110634578" lon="-108.18271503290195"><ele>1784.6666666666665</ele><time>2026-03-29T15:22:44Z</time></trkpt><trkpt lat="36.851005736973356" lon="-108.1825045854829"><ele>1785.3333333333335</ele><time>2026-03-29T15:22:45Z</time></trkpt><trkpt lat="36.85109984662144" lon="-108.18235545769645"><ele>1786.0</ele><time>2026-03-29T15:22:46Z</time></trkpt><trkpt lat="36.85117223446816" lon="-108.18220271130616"><ele>1786.0</ele><time>2026-03-29T15:22:47Z</time></trkpt><trkpt lat="36.85124215296635" lon="-108.1820328567672"><ele>1786.0</ele><time>2026-03-29T15:22:48Z</time></trkpt><trkpt lat="36.851312688518895" lon="-108.18180411731505"><ele>1786.0</ele><time>2026-03-29T15:22:49Z</time></trkpt><trkpt lat="36.851351191920784" lon="-108.18155007486253"><ele>1787.0</ele><time>2026-03-29T15:22:50Z</time></trkpt><trkpt lat="36.85132657726922" lon="-108.18133183997277"><ele>1788.0</ele><time>2026-03-29T15:22:51Z</time></trkpt><trkpt lat="36.85124460822982" lon="-108.18114743473949"><ele>1789.0</ele><time>2026-03-29T15:22:52Z</time></trkpt><trkpt lat="36.85118619947608" lon="-108.18094156335623"><ele>1789.0</ele><time>2026-03-29T15:22:53Z</time></trkpt><trkpt lat="36.85117307054409" lon="-108.1807135855845"><ele>1789.0</ele><time>2026-03-29T15:22:54Z</time></trkpt><trkpt lat="36.85117092646296" lon="-108.1804486937372"><ele>1789.0</ele><time>2026-03-29T15:22:55Z</time></trkpt><trkpt lat="36.851158107788244" lon="-108.18018555601164"><ele>1789.0</ele><time>2026-03-29T15:22:56Z</time></trkpt><trkpt lat="36.851137419433115" lon="-108.17993866458121"><ele>1789.0</ele><time>2026-03-29T15:22:57Z</time></trkpt><trkpt lat="36.851120407437776" lon="-108.1797270156226"><ele>1789.0</ele><time>2026-03-29T15:22:58Z</time></trkpt><trkpt lat="36.85112440054354" lon="-108.17959436927272"><ele>1789.4</ele><time>2026-03-29T15:22:59Z</time></trkpt><trkpt lat="36.85113415982997" lon="-108.1794976159268"><ele>1789.8000000000002</ele><time>2026-03-29T15:23:00Z</time></trkpt><trkpt lat="36.85121574582562" lon="-108.17935786508818"><ele>1790.1999999999998</ele><time>2026-03-29T15:23:02Z</time></trkpt><trkpt lat="36.85132330128195" lon="-108.17929788286544"><ele>1790.6</ele><time>2026-03-29T15:23:03Z</time></trkpt><trkpt lat="36.85142930331072" lon="-108.17927673621271"><ele>1791.0</ele><time>2026-03-29T15:23:04Z</time></trkpt><trkpt lat="36.851567137458794" lon="-108.17926402377145"><ele>1791.0</ele><time>2026-03-29T15:23:05Z</time></trkpt><trkpt lat="36.851715002897485" lon="-108.17922489608063"><ele>1791.0</ele><time>2026-03-29T15:23:06Z</time></trkpt><trkpt lat="36.85184084009113" lon="-108.17920642431548"><ele>1791.0</ele><time>2026-03-29T15:23:07Z</time></trkpt><trkpt lat="36.85194330070564" lon="-108.17910975237076"><ele>1791.0</ele><time>2026-03-29T15:23:09Z</time></trkpt><trkpt lat="36.852027156519405" lon="-108.17897241531305"><ele>1792.0</ele><time>2026-03-29T15:23:10Z</time></trkpt><trkpt lat="36.85210902565457" lon="-108.17887351632771"><ele>1793.0</ele><time>2026-03-29T15:23:11Z</time></trkpt><trkpt lat="36.85223787991901" lon="-108.17880164220753"><ele>1794.0</ele><time>2026-03-29T15:23:12Z</time></trkpt><trkpt lat="36.85234523719244" lon="-108.17875512201446"><ele>1795.0</ele><time>2026-03-29T15:23:13Z</time></trkpt><trkpt lat="36.852463313989716" lon="-108.17870049720234"><ele>1795.0</ele><time>2026-03-29T15:23:14Z</time></trkpt><trkpt lat="36.852543972490054" lon="-108.1786247319206"><ele>1795.0</ele><time>2026-03-29T15:23:15Z</time></trkpt><trkpt lat="36.85260068308907" lon="-108.1784852550346"><ele>1795.0</ele><time>2026-03-29T15:23:16Z</time></trkpt><trkpt lat="36.85268489261445" lon="-108.17833785021229"><ele>1795.0</ele><time>2026-03-29T15:23:17Z</time></trkpt><trkpt lat="36.85276694028371" lon="-108.17820171855254"><ele>1796.0</ele><time>2026-03-29T15:23:18Z</time></trkpt><trkpt lat="36.852812394313354" lon="-108.17804647430825"><ele>1797.0</ele><time>2026-03-29T15:23:19Z</time></trkpt><trkpt lat="36.852891490265044" lon="-108.17792033495921"><ele>1798.0</ele><time>2026-03-29T15:23:20Z</time></trkpt><trkpt lat="36.852987384595934" lon="-108.17784897716908"><ele>1799.0</ele><time>2026-03-29T15:23:21Z</time></trkpt><trkpt lat="36.8531262453505" lon="-108.17783510391877"><ele>1799.0</ele><time>2026-03-29T15:23:22Z</time></trkpt><trkpt lat="36.85327820441065" lon="-108.17782176686606"><ele>1799.0</ele><time>2026-03-29T15:23:23Z</time></trkpt><trkpt lat="36.85338372405743" lon="-108.17778434660887"><ele>1799.0</ele><time>2026-03-29T15:23:24Z</time></trkpt><trkpt lat="36.85344816859046" lon="-108.17771595139511"><ele>1799.0</ele><time>2026-03-29T15:23:25Z</time></trkpt><trkpt lat="36.85349659052691" lon="-108.17764385845066"><ele>1799.0</ele><time>2026-03-29T15:23:26Z</time></trkpt><trkpt lat="36.853495049871356" lon="-108.17753002084599"><ele>1799.6</ele><time>2026-03-29T15:23:27Z</time></trkpt><trkpt lat="36.85353264333485" lon="-108.17740201739922"><ele>1800.2</ele><time>2026-03-29T15:23:28Z</time></trkpt><trkpt lat="36.85355170800933" lon="-108.17727256452025"><ele>1800.7999999999997</ele><time>2026-03-29T15:23:29Z</time></trkpt><trkpt lat="36.85355602811248" lon="-108.17717156457833"><ele>1801.3999999999999</ele><time>2026-03-29T15:23:30Z</time></trkpt><trkpt lat="36.85352226059861" lon="-108.1770418385965"><ele>1802.0</ele><time>2026-03-29T15:23:32Z</time></trkpt><trkpt lat="36.85351806573316" lon="-108.17695877275435"><ele>1802.1999999999998</ele><time>2026-03-29T15:23:33Z</time></trkpt><trkpt lat="36.85352799819242" lon="-108.17685326772741"><ele>1802.3999999999999</ele><time>2026-03-29T15:23:34Z</time></trkpt><trkpt lat="36.85354603379362" lon="-108.17675958036817"><ele>1802.6000000000001</ele><time>2026-03-29T15:23:35Z</time></trkpt><trkpt lat="36.85358740630345" lon="-108.1765869101565"><ele>1802.8000000000002</ele><time>2026-03-29T15:23:37Z</time></trkpt><trkpt lat="36.853560484984556" lon="-108.17647703202793"><ele>1803.0</ele><time>2026-03-29T15:23:38Z</time></trkpt><trkpt lat="36.85355239697863" lon="-108.17635603414932"><ele>1803.1666666666667</ele><time>2026-03-29T15:23:39Z</time></trkpt><trkpt lat="36.85351920096401" lon="-108.17626923529122"><ele>1803.3333333333335</ele><time>2026-03-29T15:23:40Z</time></trkpt><trkpt lat="36.85347143568861" lon="-108.17619432525403"><ele>1803.5</ele><time>2026-03-29T15:23:41Z</time></trkpt><trkpt lat="36.853464559947135" lon="-108.1760598060533"><ele>1803.6666666666667</ele><time>2026-03-29T15:23:43Z</time></trkpt><trkpt lat="36.85352847882296" lon="-108.17597830081738"><ele>1803.8333333333335</ele><time>2026-03-29T15:23:44Z</time></trkpt><trkpt lat="36.85358772678323" lon="-108.17588570041613"><ele>1804.0</ele><time>2026-03-29T15:23:45Z</time></trkpt><trkpt lat="36.853639034605536" lon="-108.17576381188275"><ele>1804.75</ele><time>2026-03-29T15:23:46Z</time></trkpt><trkpt lat="36.85368781635865" lon="-108.17564130721938"><ele>1805.5</ele><time>2026-03-29T15:23:47Z</time></trkpt><trkpt lat="36.85376939622169" lon="-108.17553941751653"><ele>1806.25</ele><time>2026-03-29T15:23:48Z</time></trkpt><trkpt lat="36.85385713835374" lon="-108.17544472896631"><ele>1807.0</ele><time>2026-03-29T15:23:49Z</time></trkpt><trkpt lat="36.853951447780354" lon="-108.17534397123478"><ele>1807.0</ele><time>2026-03-29T15:23:50Z</time></trkpt><trkpt lat="36.85403722391683" lon="-108.17523419246862"><ele>1806.9999999999998</ele><time>2026-03-29T15:23:51Z</time></trkpt><trkpt lat="36.85411454848363" lon="-108.17515363783828"><ele>1806.9999999999998</ele><time>2026-03-29T15:23:52Z</time></trkpt><trkpt lat="36.854175504058006" lon="-108.175079007662"><ele>1807.0</ele><time>2026-03-29T15:23:53Z</time></trkpt><trkpt lat="36.854229156788286" lon="-108.17499887669034"><ele>1807.0</ele><time>2026-03-29T15:23:54Z</time></trkpt><trkpt lat="36.854286343226974" lon="-108.17487520756511"><ele>1807.5</ele><time>2026-03-29T15:23:55Z</time></trkpt><trkpt lat="36.85438378126087" lon="-108.17480479943244"><ele>1808.0</ele><time>2026-03-29T15:23:56Z</time></trkpt><trkpt lat="36.85449923004089" lon="-108.17475387167114"><ele>1808.5</ele><time>2026-03-29T15:23:57Z</time></trkpt><trkpt lat="36.85460162996081" lon="-108.17469943713792"><ele>1809.0</ele><time>2026-03-29T15:23:58Z</time></trkpt><trkpt lat="36.854701418579005" lon="-108.17464891660472"><ele>1809.0</ele><time>2026-03-29T15:23:59Z</time></trkpt><trkpt lat="36.85475395277946" lon="-108.17459802325747"><ele>1809.0</ele><time>2026-03-29T15:24:00Z</time></trkpt><trkpt lat="36.85477332302152" lon="-108.17450598440239"><ele>1809.0</ele><time>2026-03-29T15:24:01Z</time></trkpt><trkpt lat="36.85479551046553" lon="-108.17438947398317"><ele>1809.0</ele><time>2026-03-29T15:24:02Z</time></trkpt><trkpt lat="36.85479467763853" lon="-108.1742549736548"><ele>1809.0</ele><time>2026-03-29T15:24:03Z</time></trkpt><trkpt lat="36.854809094070035" lon="-108.17412967801124"><ele>1809.0</ele><time>2026-03-29T15:24:04Z</time></trkpt><trkpt lat="36.85483499249627" lon="-108.17400552425279"><ele>1810.0</ele><time>2026-03-29T15:24:05Z</time></trkpt><trkpt lat="36.85486517807742" lon="-108.17389416860428"><ele>1811.0</ele><time>2026-03-29T15:24:06Z</time></trkpt><trkpt lat="36.85489619707502" lon="-108.17377161802979"><ele>1812.0</ele><time>2026-03-29T15:24:07Z</time></trkpt><trkpt lat="36.85494924490668" lon="-108.17364237112267"><ele>1813.0</ele><time>2026-03-29T15:24:08Z</time></trkpt><trkpt lat="36.85503201462747" lon="-108.17350081037553"><ele>1813.0</ele><time>2026-03-29T15:24:09Z</time></trkpt><trkpt lat="36.85511612818288" lon="-108.17334639964893"><ele>1813.0</ele><time>2026-03-29T15:24:10Z</time></trkpt><trkpt lat="36.85518126378589" lon="-108.17316764608296"><ele>1813.0</ele><time>2026-03-29T15:24:11Z</time></trkpt><trkpt lat="36.85522720580434" lon="-108.17299987692552"><ele>1813.0</ele><time>2026-03-29T15:24:12Z</time></trkpt><trkpt lat="36.85528791067083" lon="-108.17289242018626"><ele>1813.4</ele><time>2026-03-29T15:24:13Z</time></trkpt><trkpt lat="36.855366831242456" lon="-108.17286242715767"><ele>1813.8000000000002</ele><time>2026-03-29T15:24:14Z</time></trkpt><trkpt lat="36.85545866547944" lon="-108.1728567990936"><ele>1814.2</ele><time>2026-03-29T15:24:15Z</time></trkpt><trkpt lat="36.855585481223294" lon="-108.17284055414693"><ele>1814.6</ele><time>2026-03-29T15:24:16Z</time></trkpt><trkpt lat="36.85570280893652" lon="-108.17279774936401"><ele>1815.0</ele><time>2026-03-29T15:24:17Z</time></trkpt><trkpt lat="36.85584507919227" lon="-108.1727564388386"><ele>1815.6</ele><time>2026-03-29T15:24:18Z</time></trkpt><trkpt lat="36.85597103229905" lon="-108.17271636522449"><ele>1816.2</ele><time>2026-03-29T15:24:19Z</time></trkpt><trkpt lat="36.85605195941973" lon="-108.17267889866056"><ele>1816.8000000000002</ele><time>2026-03-29T15:24:20Z</time></trkpt><trkpt lat="36.85610451670339" lon="-108.17261713924896"><ele>1817.4</ele><time>2026-03-29T15:24:21Z</time></trkpt><trkpt lat="36.85614144801474" lon="-108.17252192934892"><ele>1818.0</ele><time>2026-03-29T15:24:22Z</time></trkpt><trkpt lat="36.85617587473906" lon="-108.17237529858323"><ele>1818.5</ele><time>2026-03-29T15:24:23Z</time></trkpt><trkpt lat="36.85623520772666" lon="-108.17221857245363"><ele>1819.0</ele><time>2026-03-29T15:24:24Z</time></trkpt><trkpt lat="36.85630331660786" lon="-108.17207643828706"><ele>1819.5</ele><time>2026-03-29T15:24:25Z</time></trkpt><trkpt lat="36.856368960431666" lon="-108.17187363224934"><ele>1820.0</ele><time>2026-03-29T15:24:26Z</time></trkpt><trkpt lat="36.85641265868643" lon="-108.17168934310679"><ele>1820.0</ele><time>2026-03-29T15:24:27Z</time></trkpt><trkpt lat="36.856428898930055" lon="-108.17154849425792"><ele>1820.0</ele><time>2026-03-29T15:24:28Z</time></trkpt><trkpt lat="36.85649626373087" lon="-108.17138061265796"><ele>1820.0</ele><time>2026-03-29T15:24:29Z</time></trkpt><trkpt lat="36.856562398332834" lon="-108.17122990568389"><ele>1820.0</ele><time>2026-03-29T15:24:30Z</time></trkpt><trkpt lat="36.85657891142528" lon="-108.17111443488056"><ele>1820.75</ele><time>2026-03-29T15:24:31Z</time></trkpt><trkpt lat="36.85661521245019" lon="-108.17099097431023"><ele>1821.5</ele><time>2026-03-29T15:24:32Z</time></trkpt><trkpt lat="36.856687532350485" lon="-108.17087044105251"><ele>1822.25</ele><time>2026-03-29T15:24:33Z</time></trkpt><trkpt lat="36.856763840877235" lon="-108.1707357632602"><ele>1823.0</ele><time>2026-03-29T15:24:34Z</time></trkpt><trkpt lat="36.85679797005818" lon="-108.17057797589499"><ele>1823.75</ele><time>2026-03-29T15:24:35Z</time></trkpt><trkpt lat="36.8568177418724" lon="-108.17040462087155"><ele>1824.5</ele><time>2026-03-29T15:24:36Z</time></trkpt><trkpt lat="36.856843815727146" lon="-108.17024886655413"><ele>1825.25</ele><time>2026-03-29T15:24:37Z</time></trkpt><trkpt lat="36.85689941643905" lon="-108.17008087751023"><ele>1826.0</ele><time>2026-03-29T15:24:38Z</time></trkpt><trkpt lat="36.856933476484556" lon="-108.16991653480089"><ele>1827.0</ele><time>2026-03-29T15:24:39Z</time></trkpt><trkpt lat="36.85694206872012" lon="-108.16977514360292"><ele>1828.0</ele><time>2026-03-29T15:24:40Z</time></trkpt><trkpt lat="36.856897252306766" lon="-108.16965346465362"><ele>1829.0</ele><time>2026-03-29T15:24:41Z</time></trkpt><trkpt lat="36.85681054635993" lon="-108.16952360420728"><ele>1830.0</ele><time>2026-03-29T15:24:42Z</time></trkpt><trkpt lat="36.856741518018126" lon="-108.16938117632132"><ele>1830.0</ele><time>2026-03-29T15:24:43Z</time></trkpt><trkpt lat="36.856708639739246" lon="-108.16923905680679"><ele>1830.0</ele><time>2026-03-29T15:24:44Z</time></trkpt><trkpt lat="36.856724257923226" lon="-108.16912784477907"><ele>1830.0</ele><time>2026-03-29T15:24:45Z</time></trkpt><trkpt lat="36.856676117667234" lon="-108.16907458753089"><ele>1830.0</ele><time>2026-03-29T15:24:47Z</time></trkpt><trkpt lat="36.856593146836055" lon="-108.16897517503311"><ele>1830.0</ele><time>2026-03-29T15:24:49Z</time></trkpt><trkpt lat="36.856550068585264" lon="-108.16882254277114"><ele>1830.8</ele><time>2026-03-29T15:24:51Z</time></trkpt><trkpt lat="36.8566038780521" lon="-108.16869747098627"><ele>1831.6</ele><time>2026-03-29T15:24:52Z</time></trkpt><trkpt lat="36.856643162560765" lon="-108.16858811531222"><ele>1832.4</ele><time>2026-03-29T15:24:53Z</time></trkpt><trkpt lat="36.85667038510479" lon="-108.16848799296616"><ele>1833.2</ele><time>2026-03-29T15:24:54Z</time></trkpt><trkpt lat="36.85674361327253" lon="-108.16839898595488"><ele>1834.0</ele><time>2026-03-29T15:24:56Z</time></trkpt><trkpt lat="36.85669922638178" lon="-108.16828396970546"><ele>1834.75</ele><time>2026-03-29T15:24:58Z</time></trkpt><trkpt lat="36.856724384924036" lon="-108.1680293488255"><ele>1835.5</ele><time>2026-03-29T15:25:00Z</time></trkpt><trkpt lat="36.85674536406399" lon="-108.1679197187521"><ele>1836.25</ele><time>2026-03-29T15:25:01Z</time></trkpt><trkpt lat="36.85676224761649" lon="-108.16780835775664"><ele>1837.0</ele><time>2026-03-29T15:25:02Z</time></trkpt><trkpt lat="36.856772405888115" lon="-108.16770468846553"><ele>1837.0000000000002</ele><time>2026-03-29T15:25:03Z</time></trkpt><trkpt lat="36.856743365941966" lon="-108.16762734377042"><ele>1837.0</ele><time>2026-03-29T15:25:04Z</time></trkpt><trkpt lat="36.856755953279844" lon="-108.16750524911167"><ele>1837.0</ele><time>2026-03-29T15:25:06Z</time></trkpt><trkpt lat="36.856798872507945" lon="-108.16738410879702"><ele>1837.0</ele><time>2026-03-29T15:25:08Z</time></trkpt><trkpt lat="36.85682546423622" lon="-108.1672966181649"><ele>1837.0000000000002</ele><time>2026-03-29T15:25:09Z</time></trkpt><trkpt lat="36.85684089791845" lon="-108.16718515930768"><ele>1837.0</ele><time>2026-03-29T15:25:10Z</time></trkpt><trkpt lat="36.85683687878221" lon="-108.16707687125758"><ele>1836.6</ele><time>2026-03-29T15:25:11Z</time></trkpt><trkpt lat="36.856792841811526" lon="-108.16692959234922"><ele>1836.1999999999998</ele><time>2026-03-29T15:25:12Z</time></trkpt><trkpt lat="36.85676032466782" lon="-108.1667921144214"><ele>1835.8</ele><time>2026-03-29T15:25:13Z</time></trkpt><trkpt lat="36.85677041948734" lon="-108.16669026979076"><ele>1835.4</ele><time>2026-03-29T15:25:14Z</time></trkpt><trkpt lat="36.856808400570635" lon="-108.1666146621019"><ele>1835.0</ele><time>2026-03-29T15:25:15Z</time></trkpt><trkpt lat="36.85684587630683" lon="-108.16653473255717"><ele>1835.0</ele><time>2026-03-29T15:25:16Z</time></trkpt><trkpt lat="36.85684709335238" lon="-108.16639086261817"><ele>1835.0</ele><time>2026-03-29T15:25:18Z</time></trkpt><trkpt lat="36.856638476661615" lon="-108.16628927842497"><ele>1835.0</ele><time>2026-03-29T15:25:20Z</time></trkpt><trkpt lat="36.85663514538576" lon="-108.16612768362441"><ele>1836.4</ele><time>2026-03-29T15:25:22Z</time></trkpt><trkpt lat="36.85666009540231" lon="-108.16603070729712"><ele>1837.8</ele><time>2026-03-29T15:25:23Z</time></trkpt><trkpt lat="36.8566805319757" lon="-108.16594076380802"><ele>1839.1999999999998</ele><time>2026-03-29T15:25:24Z</time></trkpt><trkpt lat="36.85661920471893" lon="-108.16582586881518"><ele>1840.6</ele><time>2026-03-29T15:25:26Z</time></trkpt><trkpt lat="36.85652309795022" lon="-108.16577805627533"><ele>1842.0</ele><time>2026-03-29T15:25:27Z</time></trkpt><trkpt lat="36.85644248369506" lon="-108.16569205285438"><ele>1842.3999999999999</ele><time>2026-03-29T15:25:28Z</time></trkpt><trkpt lat="36.85639009804067" lon="-108.1655761444786"><ele>1842.7999999999997</ele><time>2026-03-29T15:25:29Z</time></trkpt><trkpt lat="36.856332357843186" lon="-108.16546668540597"><ele>1843.2</ele><time>2026-03-29T15:25:30Z</time></trkpt><trkpt lat="36.856267530886704" lon="-108.16533520886294"><ele>1843.6</ele><time>2026-03-29T15:25:31Z</time></trkpt><trkpt lat="36.85621913121735" lon="-108.16520647214996"><ele>1844.0</ele><time>2026-03-29T15:25:32Z</time></trkpt><trkpt lat="36.85618987800331" lon="-108.16509290918707"><ele>1843.9999999999998</ele><time>2026-03-29T15:25:33Z</time></trkpt><trkpt lat="36.85615511151714" lon="-108.16502579470696"><ele>1844.0</ele><time>2026-03-29T15:25:34Z</time></trkpt><trkpt lat="36.856163604328735" lon="-108.16490001970463"><ele>1844.0</ele><time>2026-03-29T15:25:36Z</time></trkpt><trkpt lat="36.85623450768593" lon="-108.16486100157972"><ele>1844.0</ele><time>2026-03-29T15:25:37Z</time></trkpt><trkpt lat="36.85629837699176" lon="-108.16486995121798"><ele>1843.9999999999998</ele><time>2026-03-29T15:25:38Z</time></trkpt><trkpt lat="36.85638405951492" lon="-108.16488680056077"><ele>1844.0</ele><time>2026-03-29T15:25:39Z</time></trkpt><trkpt lat="36.856462428845546" lon="-108.16485414424227"><ele>1844.2</ele><time>2026-03-29T15:25:40Z</time></trkpt><trkpt lat="36.856549537562735" lon="-108.16484026162865"><ele>1844.4</ele><time>2026-03-29T15:25:41Z</time></trkpt><trkpt lat="36.85664209793624" lon="-108.16483359508672"><ele>1844.6</ele><time>2026-03-29T15:25:42Z</time></trkpt><trkpt lat="36.856721881994815" lon="-108.1648477312494"><ele>1844.8</ele><time>2026-03-29T15:25:44Z</time></trkpt><trkpt lat="36.85686393790764" lon="-108.16482086030892"><ele>1845.0</ele><time>2026-03-29T15:25:47Z</time></trkpt><trkpt lat="36.85696080690823" lon="-108.16482890851607"><ele>1844.5</ele><time>2026-03-29T15:25:48Z</time></trkpt><trkpt lat="36.857062342992485" lon="-108.16483524688172"><ele>1844.0</ele><time>2026-03-29T15:25:49Z</time></trkpt><trkpt lat="36.857147897438566" lon="-108.16482517043842"><ele>1843.5</ele><time>2026-03-29T15:25:50Z</time></trkpt><trkpt lat="36.85727878109784" lon="-108.16484193509345"><ele>1843.0</ele><time>2026-03-29T15:25:52Z</time></trkpt><trkpt lat="36.85741176130114" lon="-108.16484861275612"><ele>1843.0000000000002</ele><time>2026-03-29T15:25:54Z</time></trkpt><trkpt lat="36.857492269015246" lon="-108.16485566860715"><ele>1843.0</ele><time>2026-03-29T15:25:55Z</time></trkpt><trkpt lat="36.8575618041791" lon="-108.16489674239543"><ele>1843.0</ele><time>2026-03-29T15:25:56Z</time></trkpt><trkpt lat="36.85762624140251" lon="-108.16493345741053"><ele>1843.0</ele><time>2026-03-29T15:25:57Z</time></trkpt><trkpt lat="36.857706060166954" lon="-108.16493279728925"><ele>1843.0000000000002</ele><time>2026-03-29T15:25:58Z</time></trkpt><trkpt lat="36.85776596565416" lon="-108.16487706527893"><ele>1843.0</ele><time>2026-03-29T15:25:59Z</time></trkpt><trkpt lat="36.85785593460299" lon="-108.16485070255672"><ele>1842.1666666666667</ele><time>2026-03-29T15:26:00Z</time></trkpt><trkpt lat="36.857944145336404" lon="-108.1648738988929"><ele>1841.3333333333335</ele><time>2026-03-29T15:26:01Z</time></trkpt><trkpt lat="36.858041117136196" lon="-108.16490598228887"><ele>1840.5</ele><time>2026-03-29T15:26:02Z</time></trkpt><trkpt lat="36.858129760994004" lon="-108.16491310165196"><ele>1839.6666666666665</ele><time>2026-03-29T15:26:03Z</time></trkpt><trkpt lat="36.85821173084681" lon="-108.16491943746054"><ele>1838.8333333333333</ele><time>2026-03-29T15:26:04Z</time></trkpt><trkpt lat="36.85828739623597" lon="-108.16493524233815"><ele>1838.0</ele><time>2026-03-29T15:26:05Z</time></trkpt><trkpt lat="36.85836063563959" lon="-108.1649451584164"><ele>1839.0</ele><time>2026-03-29T15:26:06Z</time></trkpt><trkpt lat="36.85848619106709" lon="-108.16499887590987"><ele>1840.0000000000002</ele><time>2026-03-29T15:26:08Z</time></trkpt><trkpt lat="36.85857410424353" lon="-108.16498139975754"><ele>1841.0000000000002</ele><time>2026-03-29T15:26:09Z</time></trkpt><trkpt lat="36.858662843761" lon="-108.16491824319081"><ele>1842.0</ele><time>2026-03-29T15:26:10Z</time></trkpt><trkpt lat="36.85874322837678" lon="-108.16485838370185"><ele>1843.0</ele><time>2026-03-29T15:26:11Z</time></trkpt><trkpt lat="36.85883713814835" lon="-108.164829201179"><ele>1843.0</ele><time>2026-03-29T15:26:12Z</time></trkpt><trkpt lat="36.85892802881582" lon="-108.16481546432125"><ele>1843.0000000000002</ele><time>2026-03-29T15:26:13Z</time></trkpt><trkpt lat="36.85900122873964" lon="-108.16483469679537"><ele>1843.0000000000002</ele><time>2026-03-29T15:26:14Z</time></trkpt><trkpt lat="36.859047068789245" lon="-108.16492020437408"><ele>1843.0</ele><time>2026-03-29T15:26:16Z</time></trkpt><trkpt lat="36.85913379856039" lon="-108.16500504067957"><ele>1843.0</ele><time>2026-03-29T15:26:18Z</time></trkpt><trkpt lat="36.85919021858488" lon="-108.16509491550849"><ele>1843.0000000000002</ele><time>2026-03-29T15:26:19Z</time></trkpt><trkpt lat="36.859233015383346" lon="-108.16518119773343"><ele>1843.0</ele><time>2026-03-29T15:26:20Z</time></trkpt><trkpt lat="36.85928735766629" lon="-108.16522644535236"><ele>1843.0</ele><time>2026-03-29T15:26:21Z</time></trkpt><trkpt lat="36.85935112409679" lon="-108.1652185194121"><ele>1843.0</ele><time>2026-03-29T15:26:22Z</time></trkpt><trkpt lat="36.85947553590704" lon="-108.16524401903212"><ele>1843.0000000000002</ele><time>2026-03-29T15:26:24Z</time></trkpt><trkpt lat="36.85954948831674" lon="-108.16521505177003"><ele>1843.0</ele><time>2026-03-29T15:26:25Z</time></trkpt><trkpt lat="36.85961975757669" lon="-108.16516634268784"><ele>1842.6666666666667</ele><time>2026-03-29T15:26:26Z</time></trkpt><trkpt lat="36.859686763714436" lon="-108.16517190134698"><ele>1842.3333333333335</ele><time>2026-03-29T15:26:27Z</time></trkpt><trkpt lat="36.8597427045604" lon="-108.16521157710744"><ele>1842.0</ele><time>2026-03-29T15:26:28Z</time></trkpt><trkpt lat="36.859817243539304" lon="-108.16523987344756"><ele>1841.6666666666665</ele><time>2026-03-29T15:26:29Z</time></trkpt><trkpt lat="36.85989341111362" lon="-108.16524588095892"><ele>1841.3333333333333</ele><time>2026-03-29T15:26:30Z</time></trkpt><trkpt lat="36.85996777731596" lon="-108.16520985558508"><ele>1841.0</ele><time>2026-03-29T15:26:31Z</time></trkpt><trkpt lat="36.8600411751991" lon="-108.16515340877085"><ele>1840.9999999999998</ele><time>2026-03-29T15:26:32Z</time></trkpt><trkpt lat="36.860101901710806" lon="-108.16513246708507"><ele>1841.0</ele><time>2026-03-29T15:26:33Z</time></trkpt><trkpt lat="36.860215049026614" lon="-108.16514500776755"><ele>1841.0</ele><time>2026-03-29T15:26:35Z</time></trkpt><trkpt lat="36.86029074952902" lon="-108.16516456437047"><ele>1841.0</ele><time>2026-03-29T15:26:36Z</time></trkpt><trkpt lat="36.86039157231845" lon="-108.1651655843193"><ele>1840.9999999999998</ele><time>2026-03-29T15:26:37Z</time></trkpt><trkpt lat="36.86047629663692" lon="-108.16515758187688"><ele>1841.0</ele><time>2026-03-29T15:26:38Z</time></trkpt><trkpt lat="36.8605421142406" lon="-108.16513163693563"><ele>1839.6666666666665</ele><time>2026-03-29T15:26:39Z</time></trkpt><trkpt lat="36.86063608780093" lon="-108.16512075962508"><ele>1838.3333333333333</ele><time>2026-03-29T15:26:40Z</time></trkpt><trkpt lat="36.86074735694976" lon="-108.165124931513"><ele>1837.0</ele><time>2026-03-29T15:26:41Z</time></trkpt><trkpt lat="36.860823638771244" lon="-108.16516058797336"><ele>1835.6666666666665</ele><time>2026-03-29T15:26:42Z</time></trkpt><trkpt lat="36.86089395163642" lon="-108.16521658491625"><ele>1834.3333333333333</ele><time>2026-03-29T15:26:43Z</time></trkpt><trkpt lat="36.86095431985303" lon="-108.16527590647623"><ele>1833.0</ele><time>2026-03-29T15:26:44Z</time></trkpt><trkpt lat="36.861032311597285" lon="-108.16529422910023"><ele>1833.0</ele><time>2026-03-29T15:26:45Z</time></trkpt><trkpt lat="36.86110588841116" lon="-108.16526580521833"><ele>1833.0</ele><time>2026-03-29T15:26:46Z</time></trkpt><trkpt lat="36.86116286251669" lon="-108.16514887452968"><ele>1833.0</ele><time>2026-03-29T15:26:48Z</time></trkpt><trkpt lat="36.86124350744249" lon="-108.16519279279406"><ele>1833.0</ele><time>2026-03-29T15:26:50Z</time></trkpt><trkpt lat="36.861285220190986" lon="-108.165255873802"><ele>1833.0</ele><time>2026-03-29T15:26:57Z</time></trkpt><trkpt lat="36.861359643210726" lon="-108.1652606002491"><ele>1833.0</ele><time>2026-03-29T15:27:04Z</time></trkpt><trkpt lat="36.861427741853916" lon="-108.16529516588318"><ele>1833.0</ele><time>2026-03-29T15:27:06Z</time></trkpt><trkpt lat="36.86149726916379" lon="-108.16527207837855"><ele>1833.0</ele><time>2026-03-29T15:27:08Z</time></trkpt><trkpt lat="36.86185043971145" lon="-108.16513753166349"><ele>1833.0</ele><time>2026-03-29T15:27:13Z</time></trkpt><trkpt lat="36.86193440944621" lon="-108.16510264782215"><ele>1833.5</ele><time>2026-03-29T15:27:14Z</time></trkpt><trkpt lat="36.86201700132975" lon="-108.1650510820807"><ele>1834.0</ele><time>2026-03-29T15:27:15Z</time></trkpt><trkpt lat="36.86210633289622" lon="-108.16500245423188"><ele>1834.5</ele><time>2026-03-29T15:27:16Z</time></trkpt><trkpt lat="36.86217961038247" lon="-108.1649415347787"><ele>1835.0</ele><time>2026-03-29T15:27:17Z</time></trkpt><trkpt lat="36.862228712008665" lon="-108.16488132361097"><ele>1835.5</ele><time>2026-03-29T15:27:18Z</time></trkpt><trkpt lat="36.86227938641916" lon="-108.16483127527516"><ele>1836.0</ele><time>2026-03-29T15:27:19Z</time></trkpt><trkpt lat="36.862392179120796" lon="-108.1649151324565"><ele>1836.0</ele><time>2026-03-29T15:27:21Z</time></trkpt><trkpt lat="36.862449077612496" lon="-108.16499618990215"><ele>1836.0</ele><time>2026-03-29T15:27:22Z</time></trkpt><trkpt lat="36.86248736937369" lon="-108.1650943942526"><ele>1836.0</ele><time>2026-03-29T15:27:23Z</time></trkpt><trkpt lat="36.862552224325434" lon="-108.16519532917378"><ele>1836.0</ele><time>2026-03-29T15:27:24Z</time></trkpt><trkpt lat="36.86261858127109" lon="-108.16528811076009"><ele>1836.0</ele><time>2026-03-29T15:27:25Z</time></trkpt><trkpt lat="36.86268675343585" lon="-108.16536216581395"><ele>1835.6666666666667</ele><time>2026-03-29T15:27:26Z</time></trkpt><trkpt lat="36.86275412102347" lon="-108.1654305723163"><ele>1835.3333333333335</ele><time>2026-03-29T15:27:27Z</time></trkpt><trkpt lat="36.86280686427382" lon="-108.16549909012609"><ele>1835.0</ele><time>2026-03-29T15:27:28Z</time></trkpt><trkpt lat="36.86285507699067" lon="-108.16556929445395"><ele>1834.6666666666667</ele><time>2026-03-29T15:27:29Z</time></trkpt><trkpt lat="36.86289280107521" lon="-108.16563339848346"><ele>1834.3333333333335</ele><time>2026-03-29T15:27:30Z</time></trkpt><trkpt lat="36.862941613943896" lon="-108.16570206228096"><ele>1834.0</ele><time>2026-03-29T15:27:31Z</time></trkpt><trkpt lat="36.86296127393289" lon="-108.16585273192382"><ele>1834.0000000000002</ele><time>2026-03-29T15:27:33Z</time></trkpt><trkpt lat="36.86301238607786" lon="-108.16592376828758"><ele>1834.0</ele><time>2026-03-29T15:27:34Z</time></trkpt><trkpt lat="36.86308370449145" lon="-108.16596045249157"><ele>1834.0</ele><time>2026-03-29T15:27:35Z</time></trkpt><trkpt lat="36.86314677230076" lon="-108.16602159107262"><ele>1834.0</ele><time>2026-03-29T15:27:36Z</time></trkpt><trkpt lat="36.86316073070475" lon="-108.16612619487377"><ele>1834.0000000000002</ele><time>2026-03-29T15:27:37Z</time></trkpt><trkpt lat="36.86315557075995" lon="-108.16626405047879"><ele>1834.0</ele><time>2026-03-29T15:27:38Z</time></trkpt><trkpt lat="36.863166737874565" lon="-108.16635634584314"><ele>1834.0000000000002</ele><time>2026-03-29T15:27:39Z</time></trkpt><trkpt lat="36.86322373611009" lon="-108.16642056816748"><ele>1834.0</ele><time>2026-03-29T15:27:40Z</time></trkpt><trkpt lat="36.863266830132844" lon="-108.16648807459055"><ele>1834.0</ele><time>2026-03-29T15:27:41Z</time></trkpt><trkpt lat="36.86331790941054" lon="-108.16654372534839"><ele>1834.0</ele><time>2026-03-29T15:27:42Z</time></trkpt><trkpt lat="36.86336655922934" lon="-108.1666208803122"><ele>1834.0000000000002</ele><time>2026-03-29T15:27:43Z</time></trkpt><trkpt lat="36.863401507376786" lon="-108.1667202143852"><ele>1834.0</ele><time>2026-03-29T15:27:44Z</time></trkpt><trkpt lat="36.86348578862323" lon="-108.1667933890142"><ele>1833.0</ele><time>2026-03-29T15:27:45Z</time></trkpt><trkpt lat="36.863585783047235" lon="-108.16682398363616"><ele>1832.0</ele><time>2026-03-29T15:27:46Z</time></trkpt><trkpt lat="36.863696560431976" lon="-108.16679481088931"><ele>1831.0</ele><time>2026-03-29T15:27:47Z</time></trkpt><trkpt lat="36.863800383717" lon="-108.16674240414096"><ele>1830.0</ele><time>2026-03-29T15:27:48Z</time></trkpt><trkpt lat="36.86384936013321" lon="-108.16668112293937"><ele>1829.0</ele><time>2026-03-29T15:27:49Z</time></trkpt><trkpt lat="36.863914714565084" lon="-108.16662030399694"><ele>1828.9999999999998</ele><time>2026-03-29T15:27:51Z</time></trkpt><trkpt lat="36.863979185565974" lon="-108.16658054073285"><ele>1829.0</ele><time>2026-03-29T15:27:55Z</time></trkpt><trkpt lat="36.864064570477424" lon="-108.16660565514455"><ele>1829.0</ele><time>2026-03-29T15:27:57Z</time></trkpt><trkpt lat="36.864123013859405" lon="-108.16665628618824"><ele>1829.0</ele><time>2026-03-29T15:27:58Z</time></trkpt><trkpt lat="36.86419989681473" lon="-108.16670529091161"><ele>1828.9999999999998</ele><time>2026-03-29T15:27:59Z</time></trkpt><trkpt lat="36.8642659633046" lon="-108.16674600045022"><ele>1829.0</ele><time>2026-03-29T15:28:00Z</time></trkpt><trkpt lat="36.864361449516274" lon="-108.16685334779199"><ele>1826.8333333333333</ele><time>2026-03-29T15:28:02Z</time></trkpt><trkpt lat="36.86443370236727" lon="-108.16686088274864"><ele>1824.6666666666665</ele><time>2026-03-29T15:28:03Z</time></trkpt><trkpt lat="36.86448626724666" lon="-108.16691226499951"><ele>1822.5</ele><time>2026-03-29T15:28:04Z</time></trkpt><trkpt lat="36.8645511887076" lon="-108.16690847328668"><ele>1820.3333333333335</ele><time>2026-03-29T15:28:05Z</time></trkpt><trkpt lat="36.8646312163917" lon="-108.16685048368377"><ele>1818.1666666666667</ele><time>2026-03-29T15:28:06Z</time></trkpt><trkpt lat="36.86470694164439" lon="-108.16676467115602"><ele>1816.0</ele><time>2026-03-29T15:28:07Z</time></trkpt><trkpt lat="36.864776922785104" lon="-108.16669015751428"><ele>1816.0</ele><time>2026-03-29T15:28:08Z</time></trkpt><trkpt lat="36.86483345589454" lon="-108.16662894087767"><ele>1816.0</ele><time>2026-03-29T15:28:09Z</time></trkpt><trkpt lat="36.86495209425972" lon="-108.16658699820528"><ele>1816.0</ele><time>2026-03-29T15:28:11Z</time></trkpt><trkpt lat="36.86505446222509" lon="-108.16658874628214"><ele>1816.0</ele><time>2026-03-29T15:28:12Z</time></trkpt><trkpt lat="36.86514933296148" lon="-108.16658968836987"><ele>1816.0</ele><time>2026-03-29T15:28:13Z</time></trkpt><trkpt lat="36.86522687084528" lon="-108.16660666954718"><ele>1815.4</ele><time>2026-03-29T15:28:14Z</time></trkpt><trkpt lat="36.865304400424755" lon="-108.16662079354325"><ele>1814.8</ele><time>2026-03-29T15:28:15Z</time></trkpt><trkpt lat="36.865386999165295" lon="-108.16659987240236"><ele>1814.2000000000003</ele><time>2026-03-29T15:28:16Z</time></trkpt><trkpt lat="36.8654467453194" lon="-108.16653300168578"><ele>1813.6000000000001</ele><time>2026-03-29T15:28:17Z</time></trkpt><trkpt lat="36.865536448496734" lon="-108.16642802467949"><ele>1813.0</ele><time>2026-03-29T15:28:18Z</time></trkpt><trkpt lat="36.86564301426879" lon="-108.16638124359689"><ele>1812.4</ele><time>2026-03-29T15:28:19Z</time></trkpt><trkpt lat="36.86575589647021" lon="-108.16635676150405"><ele>1811.8000000000002</ele><time>2026-03-29T15:28:20Z</time></trkpt><trkpt lat="36.8658260633375" lon="-108.16634630072379"><ele>1811.2</ele><time>2026-03-29T15:28:21Z</time></trkpt><trkpt lat="36.86589775397781" lon="-108.16636132353175"><ele>1810.6</ele><time>2026-03-29T15:28:22Z</time></trkpt><trkpt lat="36.86600559774159" lon="-108.16631996962248"><ele>1810.0</ele><time>2026-03-29T15:28:23Z</time></trkpt><trkpt lat="36.86612427970832" lon="-108.16626897587896"><ele>1809.8</ele><time>2026-03-29T15:28:24Z</time></trkpt><trkpt lat="36.86621663177793" lon="-108.16622740882272"><ele>1809.6</ele><time>2026-03-29T15:28:25Z</time></trkpt><trkpt lat="36.86633435110861" lon="-108.16620364231379"><ele>1809.4</ele><time>2026-03-29T15:28:27Z</time></trkpt><trkpt lat="36.86641821172377" lon="-108.16619213697858"><ele>1809.2</ele><time>2026-03-29T15:28:28Z</time></trkpt><trkpt lat="36.86649988633165" lon="-108.16618447318822"><ele>1809.0</ele><time>2026-03-29T15:28:29Z</time></trkpt><trkpt lat="36.86657767883583" lon="-108.16615416033524"><ele>1809.0</ele><time>2026-03-29T15:28:30Z</time></trkpt><trkpt lat="36.86667065484216" lon="-108.16609629376858"><ele>1809.0</ele><time>2026-03-29T15:28:31Z</time></trkpt><trkpt lat="36.86677467749319" lon="-108.16603961002633"><ele>1809.0</ele><time>2026-03-29T15:28:32Z</time></trkpt><trkpt lat="36.8669054018677" lon="-108.16597312559178"><ele>1809.0</ele><time>2026-03-29T15:28:33Z</time></trkpt><trkpt lat="36.8669970638746" lon="-108.16590191679356"><ele>1809.2</ele><time>2026-03-29T15:28:35Z</time></trkpt><trkpt lat="36.8670811801491" lon="-108.16587013345774"><ele>1809.4</ele><time>2026-03-29T15:28:36Z</time></trkpt><trkpt lat="36.86718856974835" lon="-108.16585997160325"><ele>1809.6</ele><time>2026-03-29T15:28:37Z</time></trkpt><trkpt lat="36.86728963073281" lon="-108.16587879165537"><ele>1809.8</ele><time>2026-03-29T15:28:38Z</time></trkpt><trkpt lat="36.86738334699228" lon="-108.16590118064877"><ele>1810.0</ele><time>2026-03-29T15:28:39Z</time></trkpt><trkpt lat="36.8674768240437" lon="-108.16592323753609"><ele>1810.0</ele><time>2026-03-29T15:28:40Z</time></trkpt><trkpt lat="36.867610272676885" lon="-108.165978609146"><ele>1810.0</ele><time>2026-03-29T15:28:42Z</time></trkpt><trkpt lat="36.86772346431624" lon="-108.16601881341315"><ele>1810.0</ele><time>2026-03-29T15:28:43Z</time></trkpt><trkpt lat="36.86783112236269" lon="-108.16606434606338"><ele>1810.0</ele><time>2026-03-29T15:28:44Z</time></trkpt><trkpt lat="36.8679176205919" lon="-108.1660759826679"><ele>1809.8</ele><time>2026-03-29T15:28:45Z</time></trkpt><trkpt lat="36.86800848668993" lon="-108.1660948080017"><ele>1809.6</ele><time>2026-03-29T15:28:46Z</time></trkpt><trkpt lat="36.86810218597465" lon="-108.16612175459382"><ele>1809.4</ele><time>2026-03-29T15:28:47Z</time></trkpt><trkpt lat="36.86818287826635" lon="-108.166139437587"><ele>1809.2</ele><time>2026-03-29T15:28:48Z</time></trkpt><trkpt lat="36.86827624734229" lon="-108.16613505574318"><ele>1809.0</ele><time>2026-03-29T15:28:49Z</time></trkpt><trkpt lat="36.868383121011405" lon="-108.16610483718117"><ele>1808.4</ele><time>2026-03-29T15:28:50Z</time></trkpt><trkpt lat="36.868490658479494" lon="-108.1660756981122"><ele>1807.8000000000002</ele><time>2026-03-29T15:28:51Z</time></trkpt><trkpt lat="36.86859167011789" lon="-108.1660553989552"><ele>1807.1999999999998</ele><time>2026-03-29T15:28:52Z</time></trkpt><trkpt lat="36.86870014682557" lon="-108.16606224084956"><ele>1806.6</ele><time>2026-03-29T15:28:53Z</time></trkpt><trkpt lat="36.86879815599624" lon="-108.16608213293745"><ele>1806.0</ele><time>2026-03-29T15:28:54Z</time></trkpt><trkpt lat="36.86888224896716" lon="-108.16607494572081"><ele>1806.0</ele><time>2026-03-29T15:28:55Z</time></trkpt><trkpt lat="36.868956318685676" lon="-108.16604073170589"><ele>1806.0</ele><time>2026-03-29T15:28:56Z</time></trkpt><trkpt lat="36.86903024572576" lon="-108.16602115869745"><ele>1806.0</ele><time>2026-03-29T15:28:57Z</time></trkpt><trkpt lat="36.86910956338064" lon="-108.1660498742245"><ele>1806.0</ele><time>2026-03-29T15:28:58Z</time></trkpt><trkpt lat="36.86919842826292" lon="-108.16608686817092"><ele>1806.0</ele><time>2026-03-29T15:28:59Z</time></trkpt><trkpt lat="36.86929337629462" lon="-108.16609059285354"><ele>1806.0</ele><time>2026-03-29T15:29:00Z</time></trkpt><trkpt lat="36.869393355714486" lon="-108.16610535728685"><ele>1806.0</ele><time>2026-03-29T15:29:01Z</time></trkpt><trkpt lat="36.86948792945007" lon="-108.1661446138227"><ele>1806.0</ele><time>2026-03-29T15:29:02Z</time></trkpt><trkpt lat="36.86955703714812" lon="-108.16615634872363"><ele>1806.0</ele><time>2026-03-29T15:29:03Z</time></trkpt><trkpt lat="36.86961864581603" lon="-108.16610729134902"><ele>1806.0</ele><time>2026-03-29T15:29:04Z</time></trkpt><trkpt lat="36.8696982321682" lon="-108.16610751538612"><ele>1806.0</ele><time>2026-03-29T15:29:05Z</time></trkpt><trkpt lat="36.869780413884584" lon="-108.16615450771229"><ele>1806.0</ele><time>2026-03-29T15:29:06Z</time></trkpt><trkpt lat="36.869861111244845" lon="-108.16621316429051"><ele>1806.0</ele><time>2026-03-29T15:29:07Z</time></trkpt><trkpt lat="36.86993417150752" lon="-108.16626332122883"><ele>1806.0</ele><time>2026-03-29T15:29:08Z</time></trkpt><trkpt lat="36.87000354735991" lon="-108.16630522085308"><ele>1806.0</ele><time>2026-03-29T15:29:09Z</time></trkpt><trkpt lat="36.87008180663159" lon="-108.1663296119751"><ele>1806.0</ele><time>2026-03-29T15:29:10Z</time></trkpt><trkpt lat="36.87017522619629" lon="-108.166374019602"><ele>1806.0</ele><time>2026-03-29T15:29:11Z</time></trkpt><trkpt lat="36.87025998849888" lon="-108.16644442386166"><ele>1806.0</ele><time>2026-03-29T15:29:12Z</time></trkpt><trkpt lat="36.870341948231975" lon="-108.16649726743894"><ele>1805.6666666666667</ele><time>2026-03-29T15:29:13Z</time></trkpt><trkpt lat="36.87042439275516" lon="-108.16650936525237"><ele>1805.3333333333335</ele><time>2026-03-29T15:29:14Z</time></trkpt><trkpt lat="36.870521612584085" lon="-108.16652747920904"><ele>1805.0</ele><time>2026-03-29T15:29:16Z</time></trkpt><trkpt lat="36.87060295215106" lon="-108.16650919952662"><ele>1804.6666666666667</ele><time>2026-03-29T15:29:17Z</time></trkpt><trkpt lat="36.870653723236536" lon="-108.16645867144565"><ele>1804.3333333333335</ele><time>2026-03-29T15:29:18Z</time></trkpt><trkpt lat="36.87072901706419" lon="-108.16644865886039"><ele>1804.0</ele><time>2026-03-29T15:29:19Z</time></trkpt><trkpt lat="36.8708017934642" lon="-108.16637621776451"><ele>1803.8000000000002</ele><time>2026-03-29T15:29:21Z</time></trkpt><trkpt lat="36.87094218107057" lon="-108.1663382597212"><ele>1803.6000000000001</ele><time>2026-03-29T15:29:23Z</time></trkpt><trkpt lat="36.871033807554284" lon="-108.16635651547112"><ele>1803.4</ele><time>2026-03-29T15:29:24Z</time></trkpt><trkpt lat="36.87110995262048" lon="-108.16635475501221"><ele>1803.2</ele><time>2026-03-29T15:29:25Z</time></trkpt><trkpt lat="36.871231812421875" lon="-108.16635705205992"><ele>1803.0</ele><time>2026-03-29T15:29:27Z</time></trkpt><trkpt lat="36.871322362827996" lon="-108.16641707759894"><ele>1803.0</ele><time>2026-03-29T15:29:29Z</time></trkpt><trkpt lat="36.87138308006982" lon="-108.16643857695611"><ele>1803.0</ele><time>2026-03-29T15:29:30Z</time></trkpt><trkpt lat="36.87147235941993" lon="-108.16642006089782"><ele>1803.0</ele><time>2026-03-29T15:29:31Z</time></trkpt><trkpt lat="36.87156174422752" lon="-108.1663540181814"><ele>1803.0</ele><time>2026-03-29T15:29:32Z</time></trkpt><trkpt lat="36.87164728194058" lon="-108.16631707999034"><ele>1803.0</ele><time>2026-03-29T15:29:33Z</time></trkpt><trkpt lat="36.87172983338743" lon="-108.16633087984374"><ele>1803.0</ele><time>2026-03-29T15:29:34Z</time></trkpt><trkpt lat="36.871829062495536" lon="-108.16640570089473"><ele>1802.3333333333333</ele><time>2026-03-29T15:29:36Z</time></trkpt><trkpt lat="36.87191505146645" lon="-108.16638365392842"><ele>1801.6666666666665</ele><time>2026-03-29T15:29:37Z</time></trkpt><trkpt lat="36.871986693633126" lon="-108.16636825594239"><ele>1801.0</ele><time>2026-03-29T15:29:38Z</time></trkpt><trkpt lat="36.87205404087049" lon="-108.16636757163232"><ele>1800.3333333333333</ele><time>2026-03-29T15:29:39Z</time></trkpt><trkpt lat="36.872185469261964" lon="-108.16637782305867"><ele>1799.6666666666665</ele><time>2026-03-29T15:29:41Z</time></trkpt><trkpt lat="36.87224712336856" lon="-108.16639779483009"><ele>1799.0</ele><time>2026-03-29T15:29:42Z</time></trkpt><trkpt lat="36.87229927062426" lon="-108.16646215245324"><ele>1798.9999999999998</ele><time>2026-03-29T15:29:43Z</time></trkpt><trkpt lat="36.872352915071666" lon="-108.16654273928452"><ele>1799.0</ele><time>2026-03-29T15:29:44Z</time></trkpt><trkpt lat="36.87242822236101" lon="-108.16659757839453"><ele>1799.0</ele><time>2026-03-29T15:29:45Z</time></trkpt><trkpt lat="36.872504400502585" lon="-108.16665022342457"><ele>1799.0</ele><time>2026-03-29T15:29:46Z</time></trkpt><trkpt lat="36.8725784490203" lon="-108.16671595593233"><ele>1798.9999999999998</ele><time>2026-03-29T15:29:47Z</time></trkpt><trkpt lat="36.8726560741954" lon="-108.16676226794998"><ele>1799.0</ele><time>2026-03-29T15:29:48Z</time></trkpt><trkpt lat="36.872733395273755" lon="-108.16680373622519"><ele>1798.9999999999998</ele><time>2026-03-29T15:29:49Z</time></trkpt><trkpt lat="36.87279407066956" lon="-108.16684648079368"><ele>1799.0</ele><time>2026-03-29T15:29:50Z</time></trkpt><trkpt lat="36.87285036149899" lon="-108.16688914188008"><ele>1799.0</ele><time>2026-03-29T15:29:51Z</time></trkpt><trkpt lat="36.872929248831745" lon="-108.16690246565301"><ele>1799.0</ele><time>2026-03-29T15:29:53Z</time></trkpt><trkpt lat="36.873025355179095" lon="-108.16683490468748"><ele>1798.9999999999998</ele><time>2026-03-29T15:29:54Z</time></trkpt><trkpt lat="36.87310644950054" lon="-108.16682475643171"><ele>1799.0</ele><time>2026-03-29T15:29:55Z</time></trkpt><trkpt lat="36.873188220795825" lon="-108.16680786690296"><ele>1798.9999999999998</ele><time>2026-03-29T15:29:56Z</time></trkpt><trkpt lat="36.87326541193556" lon="-108.16671508093482"><ele>1799.0</ele><time>2026-03-29T15:29:57Z</time></trkpt><trkpt lat="36.87332870541953" lon="-108.16665262791325"><ele>1799.0</ele><time>2026-03-29T15:29:58Z</time></trkpt><trkpt lat="36.87338541061843" lon="-108.16659615130443"><ele>1799.0</ele><time>2026-03-29T15:29:59Z</time></trkpt><trkpt lat="36.873458435969745" lon="-108.16653594999099"><ele>1798.9999999999998</ele><time>2026-03-29T15:30:00Z</time></trkpt><trkpt lat="36.873532977433925" lon="-108.16645241519765"><ele>1799.0</ele><time>2026-03-29T15:30:01Z</time></trkpt><trkpt lat="36.87359729396283" lon="-108.1663789428415"><ele>1797.9999999999998</ele><time>2026-03-29T15:30:02Z</time></trkpt><trkpt lat="36.87364494730237" lon="-108.16631043439324"><ele>1797.0</ele><time>2026-03-29T15:30:03Z</time></trkpt><trkpt lat="36.87370765445463" lon="-108.16621984701293"><ele>1796.0</ele><time>2026-03-29T15:30:04Z</time></trkpt><trkpt lat="36.873770925317736" lon="-108.1661551400054"><ele>1795.0</ele><time>2026-03-29T15:30:05Z</time></trkpt><trkpt lat="36.87384654328785" lon="-108.16608292632544"><ele>1793.9999999999998</ele><time>2026-03-29T15:30:06Z</time></trkpt><trkpt lat="36.8739146661033" lon="-108.16599238737638"><ele>1793.0</ele><time>2026-03-29T15:30:07Z</time></trkpt><trkpt lat="36.87396458273539" lon="-108.16592328093239"><ele>1793.0</ele><time>2026-03-29T15:30:08Z</time></trkpt><trkpt lat="36.87409416997662" lon="-108.16593187395272"><ele>1793.0</ele><time>2026-03-29T15:30:10Z</time></trkpt><trkpt lat="36.87418948668794" lon="-108.16594761606177"><ele>1793.0</ele><time>2026-03-29T15:30:11Z</time></trkpt><trkpt lat="36.87431442120162" lon="-108.16592967159194"><ele>1793.0</ele><time>2026-03-29T15:30:12Z</time></trkpt><trkpt lat="36.874414662032734" lon="-108.16592668739146"><ele>1792.4999999999998</ele><time>2026-03-29T15:30:13Z</time></trkpt><trkpt lat="36.87450174211031" lon="-108.1659396896175"><ele>1792.0</ele><time>2026-03-29T15:30:14Z</time></trkpt><trkpt lat="36.87458044798003" lon="-108.16594709579735"><ele>1791.5</ele><time>2026-03-29T15:30:15Z</time></trkpt><trkpt lat="36.874639296460316" lon="-108.16590178294928"><ele>1791.0</ele><time>2026-03-29T15:30:16Z</time></trkpt><trkpt lat="36.87470432449001" lon="-108.16578656450264"><ele>1790.4999999999998</ele><time>2026-03-29T15:30:17Z</time></trkpt><trkpt lat="36.87476745053317" lon="-108.16570533680841"><ele>1790.0</ele><time>2026-03-29T15:30:18Z</time></trkpt><trkpt lat="36.87481739242142" lon="-108.16560790740876"><ele>1789.4</ele><time>2026-03-29T15:30:19Z</time></trkpt><trkpt lat="36.87486649942553" lon="-108.16549502552549"><ele>1788.8</ele><time>2026-03-29T15:30:20Z</time></trkpt><trkpt lat="36.87492983208982" lon="-108.16537921468114"><ele>1788.1999999999998</ele><time>2026-03-29T15:30:21Z</time></trkpt><trkpt lat="36.874996614152586" lon="-108.16529360848806"><ele>1787.6</ele><time>2026-03-29T15:30:22Z</time></trkpt><trkpt lat="36.87505748622105" lon="-108.16522422033323"><ele>1787.0</ele><time>2026-03-29T15:30:23Z</time></trkpt><trkpt lat="36.87512760091419" lon="-108.1651619224127"><ele>1786.8</ele><time>2026-03-29T15:30:24Z</time></trkpt><trkpt lat="36.875229638377874" lon="-108.16510483826426"><ele>1786.6</ele><time>2026-03-29T15:30:25Z</time></trkpt><trkpt lat="36.87533870774737" lon="-108.1650699539821"><ele>1786.3999999999999</ele><time>2026-03-29T15:30:26Z</time></trkpt><trkpt lat="36.87542848127898" lon="-108.16501975116586"><ele>1786.1999999999998</ele><time>2026-03-29T15:30:27Z</time></trkpt><trkpt lat="36.87549751494399" lon="-108.16494554349828"><ele>1786.0</ele><time>2026-03-29T15:30:28Z</time></trkpt><trkpt lat="36.87556044800337" lon="-108.16487154421797"><ele>1785.1666666666667</ele><time>2026-03-29T15:30:29Z</time></trkpt><trkpt lat="36.87561987628645" lon="-108.16480348947047"><ele>1784.3333333333335</ele><time>2026-03-29T15:30:30Z</time></trkpt><trkpt lat="36.87567823612338" lon="-108.1647241030561"><ele>1783.5</ele><time>2026-03-29T15:30:31Z</time></trkpt><trkpt lat="36.875718251976146" lon="-108.16465226101852"><ele>1782.6666666666665</ele><time>2026-03-29T15:30:32Z</time></trkpt><trkpt lat="36.87576286516317" lon="-108.16457433403528"><ele>1781.8333333333333</ele><time>2026-03-29T15:30:33Z</time></trkpt><trkpt lat="36.875834552095384" lon="-108.1645178530089"><ele>1781.0</ele><time>2026-03-29T15:30:34Z</time></trkpt><trkpt lat="36.87589882995269" lon="-108.16444607810719"><ele>1779.9999999999998</ele><time>2026-03-29T15:30:35Z</time></trkpt><trkpt lat="36.87595955939953" lon="-108.1643765970988"><ele>1779.0</ele><time>2026-03-29T15:30:36Z</time></trkpt><trkpt lat="36.87604290214609" lon="-108.16435407318174"><ele>1778.0</ele><time>2026-03-29T15:30:37Z</time></trkpt><trkpt lat="36.87612550447924" lon="-108.16434940010629"><ele>1777.0</ele><time>2026-03-29T15:30:38Z</time></trkpt><trkpt lat="36.87617625721916" lon="-108.16430217521962"><ele>1775.9999999999998</ele><time>2026-03-29T15:30:39Z</time></trkpt><trkpt lat="36.876229612515175" lon="-108.16418863458605"><ele>1775.0</ele><time>2026-03-29T15:30:40Z</time></trkpt><trkpt lat="36.876286061586775" lon="-108.16409532061252"><ele>1774.0</ele><time>2026-03-29T15:30:41Z</time></trkpt><trkpt lat="36.87635674698726" lon="-108.16402816655278"><ele>1773.0</ele><time>2026-03-29T15:30:42Z</time></trkpt><trkpt lat="36.87643953435803" lon="-108.16395916073715"><ele>1772.0</ele><time>2026-03-29T15:30:43Z</time></trkpt><trkpt lat="36.87651596597294" lon="-108.16391350472797"><ele>1771.0</ele><time>2026-03-29T15:30:44Z</time></trkpt><trkpt lat="36.87662064341676" lon="-108.16386854258539"><ele>1770.0</ele><time>2026-03-29T15:30:46Z</time></trkpt><trkpt lat="36.87668399345205" lon="-108.1638380437983"><ele>1770.0</ele><time>2026-03-29T15:30:47Z</time></trkpt><trkpt lat="36.876751396592766" lon="-108.1638410306019"><ele>1770.0</ele><time>2026-03-29T15:30:48Z</time></trkpt><trkpt lat="36.876822347030924" lon="-108.16383903710057"><ele>1770.0</ele><time>2026-03-29T15:30:49Z</time></trkpt><trkpt lat="36.87691842900638" lon="-108.16374545236454"><ele>1770.0</ele><time>2026-03-29T15:30:51Z</time></trkpt><trkpt lat="36.8769667873152" lon="-108.16366896120363"><ele>1770.0</ele><time>2026-03-29T15:30:52Z</time></trkpt><trkpt lat="36.8770125885993" lon="-108.16359290084353"><ele>1770.0</ele><time>2026-03-29T15:30:53Z</time></trkpt><trkpt lat="36.87709234605801" lon="-108.16349438859555"><ele>1769.3333333333333</ele><time>2026-03-29T15:30:55Z</time></trkpt><trkpt lat="36.87712657774802" lon="-108.1634166419687"><ele>1768.6666666666665</ele><time>2026-03-29T15:30:56Z</time></trkpt><trkpt lat="36.877175734308615" lon="-108.1633312294027"><ele>1768.0</ele><time>2026-03-29T15:30:57Z</time></trkpt><trkpt lat="36.87722868809133" lon="-108.16325055441672"><ele>1767.3333333333333</ele><time>2026-03-29T15:30:58Z</time></trkpt><trkpt lat="36.877268762262496" lon="-108.1631544625186"><ele>1766.6666666666665</ele><time>2026-03-29T15:30:59Z</time></trkpt><trkpt lat="36.87730985062925" lon="-108.1630310489012"><ele>1766.0</ele><time>2026-03-29T15:31:00Z</time></trkpt><trkpt lat="36.877378604536645" lon="-108.16291491290467"><ele>1765.1666666666665</ele><time>2026-03-29T15:31:01Z</time></trkpt><trkpt lat="36.877426193397504" lon="-108.16283506864676"><ele>1764.3333333333333</ele><time>2026-03-29T15:31:02Z</time></trkpt><trkpt lat="36.87748351200473" lon="-108.16278046870333"><ele>1763.5</ele><time>2026-03-29T15:31:03Z</time></trkpt><trkpt lat="36.87757601197358" lon="-108.16276094242541"><ele>1762.6666666666665</ele><time>2026-03-29T15:31:04Z</time></trkpt><trkpt lat="36.87769053384684" lon="-108.1627134936235"><ele>1761.8333333333333</ele><time>2026-03-29T15:31:05Z</time></trkpt><trkpt lat="36.87775861685977" lon="-108.16266183120128"><ele>1761.0</ele><time>2026-03-29T15:31:06Z</time></trkpt><trkpt lat="36.87783020350977" lon="-108.16266096709842"><ele>1760.6</ele><time>2026-03-29T15:31:07Z</time></trkpt><trkpt lat="36.87792749191834" lon="-108.1627383327321"><ele>1760.1999999999998</ele><time>2026-03-29T15:31:08Z</time></trkpt><trkpt lat="36.8780340296802" lon="-108.16281888109347"><ele>1759.8000000000002</ele><time>2026-03-29T15:31:09Z</time></trkpt><trkpt lat="36.878104119750866" lon="-108.16284680400194"><ele>1759.4</ele><time>2026-03-29T15:31:10Z</time></trkpt><trkpt lat="36.87816531445032" lon="-108.16279125386758"><ele>1759.0</ele><time>2026-03-29T15:31:11Z</time></trkpt><trkpt lat="36.878206798100116" lon="-108.16267781878824"><ele>1759.0</ele><time>2026-03-29T15:31:12Z</time></trkpt><trkpt lat="36.87826268628512" lon="-108.16259679791305"><ele>1759.0</ele><time>2026-03-29T15:31:13Z</time></trkpt><trkpt lat="36.87836821535998" lon="-108.16252890705232"><ele>1759.0</ele><time>2026-03-29T15:31:14Z</time></trkpt><trkpt lat="36.8784930824769" lon="-108.16247062514917"><ele>1759.0</ele><time>2026-03-29T15:31:15Z</time></trkpt><trkpt lat="36.87863616844287" lon="-108.16243038180131"><ele>1758.0</ele><time>2026-03-29T15:31:16Z</time></trkpt><trkpt lat="36.878785869678126" lon="-108.16242477603191"><ele>1757.0</ele><time>2026-03-29T15:31:17Z</time></trkpt><trkpt lat="36.87894736718611" lon="-108.16245203819695"><ele>1756.0</ele><time>2026-03-29T15:31:18Z</time></trkpt><trkpt lat="36.879113679555154" lon="-108.16250711238635"><ele>1756.0</ele><time>2026-03-29T15:31:19Z</time></trkpt><trkpt lat="36.87926571475883" lon="-108.16260728935245"><ele>1756.0</ele><time>2026-03-29T15:31:20Z</time></trkpt><trkpt lat="36.87942379006811" lon="-108.16271984624188"><ele>1756.0</ele><time>2026-03-29T15:31:21Z</time></trkpt><trkpt lat="36.87958642642843" lon="-108.1628092042168"><ele>1754.6666666666667</ele><time>2026-03-29T15:31:22Z</time></trkpt><trkpt lat="36.87976331035203" lon="-108.16283793638387"><ele>1753.3333333333335</ele><time>2026-03-29T15:31:23Z</time></trkpt><trkpt lat="36.8799611847354" lon="-108.1628294350299"><ele>1752.0</ele><time>2026-03-29T15:31:24Z</time></trkpt><trkpt lat="36.88016686234737" lon="-108.1627960802022"><ele>1751.6666666666665</ele><time>2026-03-29T15:31:25Z</time></trkpt><trkpt lat="36.88036536230352" lon="-108.16277145581554"><ele>1751.3333333333333</ele><time>2026-03-29T15:31:26Z</time></trkpt><trkpt lat="36.88055959135942" lon="-108.16274944851483"><ele>1751.0</ele><time>2026-03-29T15:31:27Z</time></trkpt><trkpt lat="36.880751799403875" lon="-108.16272233433638"><ele>1751.0</ele><time>2026-03-29T15:31:28Z</time></trkpt><trkpt lat="36.88091332305395" lon="-108.16270135000018"><ele>1751.0</ele><time>2026-03-29T15:31:29Z</time></trkpt><trkpt lat="36.881075735378495" lon="-108.16272635328363"><ele>1751.0</ele><time>2026-03-29T15:31:30Z</time></trkpt><trkpt lat="36.88123593178479" lon="-108.16278248551299"><ele>1751.6666666666665</ele><time>2026-03-29T15:31:31Z</time></trkpt><trkpt lat="36.88139284434919" lon="-108.16286806840687"><ele>1752.3333333333335</ele><time>2026-03-29T15:31:32Z</time></trkpt><trkpt lat="36.881541741665814" lon="-108.16298351602083"><ele>1753.0</ele><time>2026-03-29T15:31:33Z</time></trkpt><trkpt lat="36.88167351121051" lon="-108.16313669305646"><ele>1752.0</ele><time>2026-03-29T15:31:34Z</time></trkpt><trkpt lat="36.88178986408613" lon="-108.16331622484766"><ele>1751.0</ele><time>2026-03-29T15:31:35Z</time></trkpt><trkpt lat="36.881877280574216" lon="-108.16349977834582"><ele>1750.0</ele><time>2026-03-29T15:31:36Z</time></trkpt><trkpt lat="36.88192294699191" lon="-108.16366819638161"><ele>1750.0</ele><time>2026-03-29T15:31:37Z</time></trkpt><trkpt lat="36.8819297679784" lon="-108.1638230971986"><ele>1750.0</ele><time>2026-03-29T15:31:38Z</time></trkpt><trkpt lat="36.88191037841977" lon="-108.16398476687648"><ele>1750.0</ele><time>2026-03-29T15:31:39Z</time></trkpt><trkpt lat="36.88189161738099" lon="-108.16417404335365"><ele>1750.0</ele><time>2026-03-29T15:31:40Z</time></trkpt><trkpt lat="36.881868036303835" lon="-108.1643820234378"><ele>1749.0</ele><time>2026-03-29T15:31:41Z</time></trkpt><trkpt lat="36.881863265455685" lon="-108.16460576167627"><ele>1748.0</ele><time>2026-03-29T15:31:42Z</time></trkpt><trkpt lat="36.88188220333184" lon="-108.16480276446516"><ele>1747.0</ele><time>2026-03-29T15:31:43Z</time></trkpt><trkpt lat="36.8819006929927" lon="-108.16494213509864"><ele>1747.0</ele><time>2026-03-29T15:31:44Z</time></trkpt><trkpt lat="36.88191118723534" lon="-108.16504828276787"><ele>1746.9999999999998</ele><time>2026-03-29T15:31:45Z</time></trkpt><trkpt lat="36.88201380882984" lon="-108.16510092149785"><ele>1746.9999999999998</ele><time>2026-03-29T15:31:48Z</time></trkpt><trkpt lat="36.88210609969537" lon="-108.16505551075277"><ele>1747.0</ele><time>2026-03-29T15:31:49Z</time></trkpt><trkpt lat="36.882195864534545" lon="-108.16499009841246"><ele>1747.0</ele><time>2026-03-29T15:31:50Z</time></trkpt><trkpt lat="36.88228980858967" lon="-108.16491240667185"><ele>1747.0</ele><time>2026-03-29T15:31:51Z</time></trkpt><trkpt lat="36.88238610273475" lon="-108.16481755079869"><ele>1747.0</ele><time>2026-03-29T15:31:52Z</time></trkpt><trkpt lat="36.882486038989626" lon="-108.16470716393762"><ele>1747.0</ele><time>2026-03-29T15:31:53Z</time></trkpt><trkpt lat="36.88258460339721" lon="-108.16457973609396"><ele>1747.0</ele><time>2026-03-29T15:31:54Z</time></trkpt><trkpt lat="36.88265807305064" lon="-108.16445094732097"><ele>1747.5</ele><time>2026-03-29T15:31:55Z</time></trkpt><trkpt lat="36.88269434160222" lon="-108.1643178419294"><ele>1748.0</ele><time>2026-03-29T15:31:56Z</time></trkpt><trkpt lat="36.88268304630998" lon="-108.16416259016073"><ele>1748.5</ele><time>2026-03-29T15:31:57Z</time></trkpt><trkpt lat="36.882667794788404" lon="-108.16395541715441"><ele>1749.0</ele><time>2026-03-29T15:31:58Z</time></trkpt><trkpt lat="36.882642975880415" lon="-108.16375108230285"><ele>1749.0</ele><time>2026-03-29T15:31:59Z</time></trkpt><trkpt lat="36.88264256324345" lon="-108.16354167330164"><ele>1749.0</ele><time>2026-03-29T15:32:00Z</time></trkpt><trkpt lat="36.88268897451108" lon="-108.16331313332324"><ele>1749.0</ele><time>2026-03-29T15:32:01Z</time></trkpt><trkpt lat="36.88274193020137" lon="-108.16308411581562"><ele>1749.6666666666665</ele><time>2026-03-29T15:32:02Z</time></trkpt><trkpt lat="36.88280209096112" lon="-108.16287328839331"><ele>1750.3333333333333</ele><time>2026-03-29T15:32:03Z</time></trkpt><trkpt lat="36.88287613610764" lon="-108.16269240216246"><ele>1751.0</ele><time>2026-03-29T15:32:04Z</time></trkpt><trkpt lat="36.88293520847324" lon="-108.16254907741828"><ele>1751.0</ele><time>2026-03-29T15:32:05Z</time></trkpt><trkpt lat="36.88301843352804" lon="-108.16239563482603"><ele>1751.0</ele><time>2026-03-29T15:32:06Z</time></trkpt><trkpt lat="36.88311689413096" lon="-108.16226475576867"><ele>1751.0</ele><time>2026-03-29T15:32:07Z</time></trkpt><trkpt lat="36.88321896112395" lon="-108.16212216790098"><ele>1751.0</ele><time>2026-03-29T15:32:08Z</time></trkpt><trkpt lat="36.883318263912024" lon="-108.16195834534396"><ele>1751.8</ele><time>2026-03-29T15:32:09Z</time></trkpt><trkpt lat="36.88338753179065" lon="-108.16183338455853"><ele>1752.6</ele><time>2026-03-29T15:32:10Z</time></trkpt><trkpt lat="36.88340692938395" lon="-108.16171847235272"><ele>1753.4</ele><time>2026-03-29T15:32:11Z</time></trkpt><trkpt lat="36.88337953684066" lon="-108.1616183071165"><ele>1754.2</ele><time>2026-03-29T15:32:12Z</time></trkpt><trkpt lat="36.88333624870148" lon="-108.16151031694052"><ele>1755.0</ele><time>2026-03-29T15:32:13Z</time></trkpt><trkpt lat="36.88326589443041" lon="-108.1613528727112"><ele>1755.5</ele><time>2026-03-29T15:32:14Z</time></trkpt><trkpt lat="36.883225023131466" lon="-108.16118725252606"><ele>1756.0</ele><time>2026-03-29T15:32:15Z</time></trkpt><trkpt lat="36.88320084119932" lon="-108.16101433408058"><ele>1756.5</ele><time>2026-03-29T15:32:16Z</time></trkpt><trkpt lat="36.88319842904635" lon="-108.16083113067799"><ele>1757.0</ele><time>2026-03-29T15:32:17Z</time></trkpt><trkpt lat="36.883214381277995" lon="-108.16063421775489"><ele>1757.25</ele><time>2026-03-29T15:32:18Z</time></trkpt><trkpt lat="36.8832334998597" lon="-108.16046947719528"><ele>1757.5</ele><time>2026-03-29T15:32:19Z</time></trkpt><trkpt lat="36.88324045643934" lon="-108.16033012934695"><ele>1757.75</ele><time>2026-03-29T15:32:20Z</time></trkpt><trkpt lat="36.88330504217213" lon="-108.16022209370195"><ele>1758.0</ele><time>2026-03-29T15:32:21Z</time></trkpt><trkpt lat="36.88341686986408" lon="-108.16009156793133"><ele>1758.6666666666665</ele><time>2026-03-29T15:32:22Z</time></trkpt><trkpt lat="36.883525131833025" lon="-108.1599581407235"><ele>1759.3333333333333</ele><time>2026-03-29T15:32:23Z</time></trkpt><trkpt lat="36.88360387219002" lon="-108.15978008345736"><ele>1760.0</ele><time>2026-03-29T15:32:24Z</time></trkpt><trkpt lat="36.88369411328836" lon="-108.15960797531658"><ele>1760.25</ele><time>2026-03-29T15:32:25Z</time></trkpt><trkpt lat="36.88375898882222" lon="-108.15942951976577"><ele>1760.5</ele><time>2026-03-29T15:32:26Z</time></trkpt><trkpt lat="36.88376403970045" lon="-108.15928186644533"><ele>1760.75</ele><time>2026-03-29T15:32:27Z</time></trkpt><trkpt lat="36.883728307715145" lon="-108.15914007169876"><ele>1761.0</ele><time>2026-03-29T15:32:28Z</time></trkpt><trkpt lat="36.88367209744332" lon="-108.15903520350062"><ele>1761.0</ele><time>2026-03-29T15:32:29Z</time></trkpt><trkpt lat="36.88357052834816" lon="-108.15897966755455"><ele>1761.0</ele><time>2026-03-29T15:32:30Z</time></trkpt><trkpt lat="36.88346030923883" lon="-108.15892218792256"><ele>1761.0</ele><time>2026-03-29T15:32:31Z</time></trkpt><trkpt lat="36.88335147381179" lon="-108.15883111575812"><ele>1761.0</ele><time>2026-03-29T15:32:32Z</time></trkpt><trkpt lat="36.88324111774173" lon="-108.15876968507358"><ele>1761.0</ele><time>2026-03-29T15:32:33Z</time></trkpt><trkpt lat="36.88321740401013" lon="-108.158614205102"><ele>1761.0</ele><time>2026-03-29T15:32:35Z</time></trkpt><trkpt lat="36.883207096491844" lon="-108.15849156245645"><ele>1761.0</ele><time>2026-03-29T15:32:36Z</time></trkpt><trkpt lat="36.883192659772384" lon="-108.1583359641425"><ele>1761.0</ele><time>2026-03-29T15:32:37Z</time></trkpt><trkpt lat="36.88317478066082" lon="-108.15815162857304"><ele>1761.25</ele><time>2026-03-29T15:32:38Z</time></trkpt><trkpt lat="36.88317211431901" lon="-108.15798303151995"><ele>1761.5</ele><time>2026-03-29T15:32:39Z</time></trkpt><trkpt lat="36.883189014068314" lon="-108.15784575073015"><ele>1761.75</ele><time>2026-03-29T15:32:40Z</time></trkpt><trkpt lat="36.883237074316376" lon="-108.1577025325379"><ele>1762.0</ele><time>2026-03-29T15:32:41Z</time></trkpt><trkpt lat="36.88331874378319" lon="-108.1575617914262"><ele>1762.0</ele><time>2026-03-29T15:32:42Z</time></trkpt><trkpt lat="36.88341776983575" lon="-108.15742443144198"><ele>1762.0</ele><time>2026-03-29T15:32:43Z</time></trkpt><trkpt lat="36.883536494843426" lon="-108.1572907028825"><ele>1762.0</ele><time>2026-03-29T15:32:44Z</time></trkpt><trkpt lat="36.883660852058526" lon="-108.15717447129543"><ele>1762.3333333333335</ele><time>2026-03-29T15:32:45Z</time></trkpt><trkpt lat="36.88380882566742" lon="-108.15704897493971"><ele>1762.6666666666665</ele><time>2026-03-29T15:32:46Z</time></trkpt><trkpt lat="36.883956208343236" lon="-108.15690414867949"><ele>1763.0</ele><time>2026-03-29T15:32:47Z</time></trkpt><trkpt lat="36.88406834555016" lon="-108.15675551466923"><ele>1763.0</ele><time>2026-03-29T15:32:48Z</time></trkpt><trkpt lat="36.884121376266066" lon="-108.1566316919934"><ele>1763.0</ele><time>2026-03-29T15:32:49Z</time></trkpt><trkpt lat="36.8841486567729" lon="-108.15649152588163"><ele>1763.0</ele><time>2026-03-29T15:32:50Z</time></trkpt><trkpt lat="36.88419619118165" lon="-108.15635431858837"><ele>1763.0</ele><time>2026-03-29T15:32:51Z</time></trkpt><trkpt lat="36.88421951891394" lon="-108.15621729997777"><ele>1763.5</ele><time>2026-03-29T15:32:52Z</time></trkpt><trkpt lat="36.88420995995186" lon="-108.15605317588326"><ele>1764.0</ele><time>2026-03-29T15:32:53Z</time></trkpt><trkpt lat="36.884221430681215" lon="-108.1558814207532"><ele>1764.5</ele><time>2026-03-29T15:32:54Z</time></trkpt><trkpt lat="36.88423287755387" lon="-108.15571138792603"><ele>1765.0</ele><time>2026-03-29T15:32:55Z</time></trkpt><trkpt lat="36.88422341982519" lon="-108.15552974341988"><ele>1766.25</ele><time>2026-03-29T15:32:56Z</time></trkpt><trkpt lat="36.88417791029431" lon="-108.15537851973734"><ele>1767.5</ele><time>2026-03-29T15:32:57Z</time></trkpt><trkpt lat="36.88414820099812" lon="-108.1552579950997"><ele>1768.75</ele><time>2026-03-29T15:32:58Z</time></trkpt><trkpt lat="36.8841606230291" lon="-108.15513833501352"><ele>1770.0</ele><time>2026-03-29T15:32:59Z</time></trkpt><trkpt lat="36.884208753722646" lon="-108.1549687966802"><ele>1770.3333333333335</ele><time>2026-03-29T15:33:00Z</time></trkpt><trkpt lat="36.88426120833471" lon="-108.15479672969145"><ele>1770.6666666666667</ele><time>2026-03-29T15:33:01Z</time></trkpt><trkpt lat="36.884311508943625" lon="-108.15461009172708"><ele>1771.0</ele><time>2026-03-29T15:33:02Z</time></trkpt><trkpt lat="36.884364709419586" lon="-108.15438313994345"><ele>1771.0</ele><time>2026-03-29T15:33:03Z</time></trkpt><trkpt lat="36.88440402641797" lon="-108.15417109070071"><ele>1771.0</ele><time>2026-03-29T15:33:04Z</time></trkpt><trkpt lat="36.88443981673861" lon="-108.1539643711599"><ele>1771.0</ele><time>2026-03-29T15:33:05Z</time></trkpt><trkpt lat="36.88448104188464" lon="-108.15376261516305"><ele>1771.0</ele><time>2026-03-29T15:33:06Z</time></trkpt><trkpt lat="36.88450442815291" lon="-108.15359437696054"><ele>1771.0</ele><time>2026-03-29T15:33:07Z</time></trkpt><trkpt lat="36.88452505146457" lon="-108.15342419783852"><ele>1771.0</ele><time>2026-03-29T15:33:08Z</time></trkpt><trkpt lat="36.884563916187545" lon="-108.15327814919559"><ele>1771.0</ele><time>2026-03-29T15:33:09Z</time></trkpt><trkpt lat="36.88465488814082" lon="-108.153161461901"><ele>1771.6666666666667</ele><time>2026-03-29T15:33:10Z</time></trkpt><trkpt lat="36.884773862209336" lon="-108.15303366102766"><ele>1772.3333333333335</ele><time>2026-03-29T15:33:11Z</time></trkpt><trkpt lat="36.88488196242786" lon="-108.15288106691048"><ele>1773.0</ele><time>2026-03-29T15:33:12Z</time></trkpt><trkpt lat="36.88497397548503" lon="-108.15272106990892"><ele>1773.0</ele><time>2026-03-29T15:33:13Z</time></trkpt><trkpt lat="36.88507712661718" lon="-108.15255302120241"><ele>1773.0</ele><time>2026-03-29T15:33:14Z</time></trkpt><trkpt lat="36.88521433235642" lon="-108.15239499572634"><ele>1773.0</ele><time>2026-03-29T15:33:15Z</time></trkpt><trkpt lat="36.88535054500627" lon="-108.15225064546993"><ele>1773.5</ele><time>2026-03-29T15:33:16Z</time></trkpt><trkpt lat="36.885459010318854" lon="-108.15213544254367"><ele>1774.0</ele><time>2026-03-29T15:33:17Z</time></trkpt><trkpt lat="36.88551172021016" lon="-108.15199439563592"><ele>1774.5</ele><time>2026-03-29T15:33:18Z</time></trkpt><trkpt lat="36.88555111541415" lon="-108.15182907564589"><ele>1775.0</ele><time>2026-03-29T15:33:19Z</time></trkpt><trkpt lat="36.8855665626976" lon="-108.15169591478522"><ele>1775.0</ele><time>2026-03-29T15:33:20Z</time></trkpt><trkpt lat="36.885514320582885" lon="-108.15165145845882"><ele>1775.0</ele><time>2026-03-29T15:33:22Z</time></trkpt><trkpt lat="36.885409599771116" lon="-108.15160574951203"><ele>1775.0</ele><time>2026-03-29T15:33:23Z</time></trkpt><trkpt lat="36.885326012262816" lon="-108.15150065134199"><ele>1775.0</ele><time>2026-03-29T15:33:24Z</time></trkpt><trkpt lat="36.88527143325606" lon="-108.15138048485512"><ele>1775.0</ele><time>2026-03-29T15:33:25Z</time></trkpt><trkpt lat="36.8852479412458" lon="-108.15128155881581"><ele>1775.6</ele><time>2026-03-29T15:33:26Z</time></trkpt><trkpt lat="36.88524803058798" lon="-108.15118674856473"><ele>1776.2</ele><time>2026-03-29T15:33:27Z</time></trkpt><trkpt lat="36.88525905209453" lon="-108.15108004101816"><ele>1776.8000000000002</ele><time>2026-03-29T15:33:28Z</time></trkpt><trkpt lat="36.885278773089055" lon="-108.150940880362"><ele>1777.4</ele><time>2026-03-29T15:33:29Z</time></trkpt><trkpt lat="36.88537253540992" lon="-108.15084002429329"><ele>1778.0</ele><time>2026-03-29T15:33:30Z</time></trkpt><trkpt lat="36.885478807263496" lon="-108.15075290758668"><ele>1778.0</ele><time>2026-03-29T15:33:31Z</time></trkpt><trkpt lat="36.88558810277262" lon="-108.15066153962462"><ele>1778.0</ele><time>2026-03-29T15:33:32Z</time></trkpt><trkpt lat="36.88568923818613" lon="-108.15054727186912"><ele>1778.0</ele><time>2026-03-29T15:33:33Z</time></trkpt><trkpt lat="36.88577078158506" lon="-108.1504221246086"><ele>1778.0</ele><time>2026-03-29T15:33:34Z</time></trkpt><trkpt lat="36.88582246667997" lon="-108.15031164911893"><ele>1778.0</ele><time>2026-03-29T15:33:35Z</time></trkpt><trkpt lat="36.88583978548329" lon="-108.15013990800851"><ele>1778.0000000000002</ele><time>2026-03-29T15:33:36Z</time></trkpt><trkpt lat="36.885857480368635" lon="-108.14999819618139"><ele>1778.0000000000002</ele><time>2026-03-29T15:33:37Z</time></trkpt><trkpt lat="36.88590119525988" lon="-108.14993108737838"><ele>1778.0</ele><time>2026-03-29T15:33:38Z</time></trkpt><trkpt lat="36.88599848454192" lon="-108.14994300158688"><ele>1778.0</ele><time>2026-03-29T15:33:39Z</time></trkpt><trkpt lat="36.886092908039814" lon="-108.14996539401872"><ele>1777.75</ele><time>2026-03-29T15:33:40Z</time></trkpt><trkpt lat="36.886194094360256" lon="-108.15000703302294"><ele>1777.5</ele><time>2026-03-29T15:33:41Z</time></trkpt><trkpt lat="36.88631997550657" lon="-108.15001065927471"><ele>1777.25</ele><time>2026-03-29T15:33:42Z</time></trkpt><trkpt lat="36.886457433701224" lon="-108.14996263770234"><ele>1777.0</ele><time>2026-03-29T15:33:43Z</time></trkpt><trkpt lat="36.88660246667833" lon="-108.14988444602831"><ele>1777.6666666666667</ele><time>2026-03-29T15:33:44Z</time></trkpt><trkpt lat="36.886737869906845" lon="-108.14978698724437"><ele>1778.3333333333335</ele><time>2026-03-29T15:33:45Z</time></trkpt><trkpt lat="36.88685741806592" lon="-108.14967713343214"><ele>1779.0</ele><time>2026-03-29T15:33:46Z</time></trkpt><trkpt lat="36.886973324674386" lon="-108.14953260001175"><ele>1779.5</ele><time>2026-03-29T15:33:47Z</time></trkpt><trkpt lat="36.88709771584765" lon="-108.14941972385796"><ele>1780.0</ele><time>2026-03-29T15:33:48Z</time></trkpt><trkpt lat="36.88723159918888" lon="-108.14935405535827"><ele>1780.5</ele><time>2026-03-29T15:33:49Z</time></trkpt><trkpt lat="36.88736335175186" lon="-108.1493114835614"><ele>1781.0</ele><time>2026-03-29T15:33:50Z</time></trkpt><trkpt lat="36.887447858551184" lon="-108.14925426103905"><ele>1781.0</ele><time>2026-03-29T15:33:51Z</time></trkpt><trkpt lat="36.88752709938323" lon="-108.14917970818902"><ele>1781.0</ele><time>2026-03-29T15:33:52Z</time></trkpt><trkpt lat="36.88757729753804" lon="-108.14907906806931"><ele>1781.0</ele><time>2026-03-29T15:33:53Z</time></trkpt><trkpt lat="36.88760588419502" lon="-108.14890388009756"><ele>1781.0</ele><time>2026-03-29T15:33:54Z</time></trkpt><trkpt lat="36.88764268729985" lon="-108.14874489486951"><ele>1781.5</ele><time>2026-03-29T15:33:55Z</time></trkpt><trkpt lat="36.887732320180056" lon="-108.14865457637286"><ele>1782.0</ele><time>2026-03-29T15:33:56Z</time></trkpt><trkpt lat="36.88786875712314" lon="-108.14856573644921"><ele>1782.5</ele><time>2026-03-29T15:33:57Z</time></trkpt><trkpt lat="36.888005612516416" lon="-108.14851140936089"><ele>1783.0</ele><time>2026-03-29T15:33:58Z</time></trkpt><trkpt lat="36.888107506151506" lon="-108.14843081319724"><ele>1783.0</ele><time>2026-03-29T15:33:59Z</time></trkpt><trkpt lat="36.88819752474872" lon="-108.14840087876863"><ele>1783.0000000000002</ele><time>2026-03-29T15:34:00Z</time></trkpt><trkpt lat="36.88828376227934" lon="-108.14835893284139"><ele>1783.0000000000002</ele><time>2026-03-29T15:34:01Z</time></trkpt><trkpt lat="36.888381160549294" lon="-108.14828573481671"><ele>1783.0</ele><time>2026-03-29T15:34:02Z</time></trkpt><trkpt lat="36.88845711748616" lon="-108.1481678315638"><ele>1783.0</ele><time>2026-03-29T15:34:03Z</time></trkpt><trkpt lat="36.888512295971196" lon="-108.14803479057701"><ele>1784.5</ele><time>2026-03-29T15:34:04Z</time></trkpt><trkpt lat="36.88859387616294" lon="-108.14792314716709"><ele>1786.0</ele><time>2026-03-29T15:34:05Z</time></trkpt><trkpt lat="36.88871135617848" lon="-108.14790343355585"><ele>1787.5</ele><time>2026-03-29T15:34:06Z</time></trkpt><trkpt lat="36.888870467221736" lon="-108.14792201760687"><ele>1789.0</ele><time>2026-03-29T15:34:07Z</time></trkpt><trkpt lat="36.88901409580218" lon="-108.14795648860549"><ele>1789.0</ele><time>2026-03-29T15:34:08Z</time></trkpt><trkpt lat="36.889127538634405" lon="-108.14794384608092"><ele>1789.0</ele><time>2026-03-29T15:34:09Z</time></trkpt><trkpt lat="36.88919246357501" lon="-108.1479098140942"><ele>1789.0</ele><time>2026-03-29T15:34:10Z</time></trkpt><trkpt lat="36.889247032639034" lon="-108.1478408436082"><ele>1789.0</ele><time>2026-03-29T15:34:11Z</time></trkpt><trkpt lat="36.88931061883832" lon="-108.14771885761287"><ele>1789.0</ele><time>2026-03-29T15:34:12Z</time></trkpt><trkpt lat="36.88938273475822" lon="-108.14755296079105"><ele>1791.0</ele><time>2026-03-29T15:34:13Z</time></trkpt><trkpt lat="36.88947946036591" lon="-108.14737638515717"><ele>1793.0</ele><time>2026-03-29T15:34:14Z</time></trkpt><trkpt lat="36.889563802681714" lon="-108.14721463749038"><ele>1795.0</ele><time>2026-03-29T15:34:15Z</time></trkpt><trkpt lat="36.88968677881537" lon="-108.14701009733545"><ele>1795.0</ele><time>2026-03-29T15:34:16Z</time></trkpt><trkpt lat="36.88982469800113" lon="-108.14679415642011"><ele>1795.0</ele><time>2026-03-29T15:34:17Z</time></trkpt><trkpt lat="36.88997075082888" lon="-108.14656421571063"><ele>1795.6666666666667</ele><time>2026-03-29T15:34:18Z</time></trkpt><trkpt lat="36.890091217314406" lon="-108.14636371373894"><ele>1796.3333333333335</ele><time>2026-03-29T15:34:19Z</time></trkpt><trkpt lat="36.89020717542966" lon="-108.14615705953817"><ele>1797.0</ele><time>2026-03-29T15:34:20Z</time></trkpt><trkpt lat="36.89033655786334" lon="-108.14595006554683"><ele>1800.0</ele><time>2026-03-29T15:34:21Z</time></trkpt><trkpt lat="36.890480625898995" lon="-108.14571158750509"><ele>1803.0</ele><time>2026-03-29T15:34:22Z</time></trkpt><trkpt lat="36.89060067972174" lon="-108.14550222090305"><ele>1806.0</ele><time>2026-03-29T15:34:23Z</time></trkpt><trkpt lat="36.89068364598871" lon="-108.1453247967219"><ele>1806.0</ele><time>2026-03-29T15:34:24Z</time></trkpt><trkpt lat="36.890780564598586" lon="-108.14509694975685"><ele>1806.0</ele><time>2026-03-29T15:34:25Z</time></trkpt><trkpt lat="36.8908228705789" lon="-108.14488225088833"><ele>1806.0</ele><time>2026-03-29T15:34:26Z</time></trkpt><trkpt lat="36.8908844000224" lon="-108.14464536695296"><ele>1805.6666666666665</ele><time>2026-03-29T15:34:27Z</time></trkpt><trkpt lat="36.89095746599569" lon="-108.14442552996067"><ele>1805.3333333333333</ele><time>2026-03-29T15:34:28Z</time></trkpt><trkpt lat="36.891012609453036" lon="-108.14422551143842"><ele>1805.0</ele><time>2026-03-29T15:34:29Z</time></trkpt><trkpt lat="36.89104388823584" lon="-108.14402955207227"><ele>1805.0</ele><time>2026-03-29T15:34:30Z</time></trkpt><trkpt lat="36.8910674984675" lon="-108.14388715288453"><ele>1805.0</ele><time>2026-03-29T15:34:31Z</time></trkpt><trkpt lat="36.89109747838618" lon="-108.14377158214486"><ele>1805.0</ele><time>2026-03-29T15:34:32Z</time></trkpt><trkpt lat="36.89109570137716" lon="-108.14364481521652"><ele>1805.0</ele><time>2026-03-29T15:34:33Z</time></trkpt><trkpt lat="36.8910864258378" lon="-108.14348521639594"><ele>1805.0</ele><time>2026-03-29T15:34:34Z</time></trkpt><trkpt lat="36.89105529567154" lon="-108.1433437172051"><ele>1804.9999999999998</ele><time>2026-03-29T15:34:35Z</time></trkpt><trkpt lat="36.89105518752289" lon="-108.14323308053635"><ele>1805.0</ele><time>2026-03-29T15:34:36Z</time></trkpt><trkpt lat="36.89104771130089" lon="-108.14311503342293"><ele>1805.0</ele><time>2026-03-29T15:34:37Z</time></trkpt><trkpt lat="36.89105956024393" lon="-108.14301123525517"><ele>1805.0</ele><time>2026-03-29T15:34:38Z</time></trkpt><trkpt lat="36.89110562994553" lon="-108.1429501239226"><ele>1804.9999999999998</ele><time>2026-03-29T15:34:39Z</time></trkpt><trkpt lat="36.891143290044674" lon="-108.14283584859015"><ele>1805.0</ele><time>2026-03-29T15:34:40Z</time></trkpt><trkpt lat="36.89108694199882" lon="-108.14276660762447"><ele>1805.0</ele><time>2026-03-29T15:34:42Z</time></trkpt><trkpt lat="36.891003220455644" lon="-108.14271975801299"><ele>1805.0</ele><time>2026-03-29T15:34:43Z</time></trkpt><trkpt lat="36.89092551662027" lon="-108.14264726508073"><ele>1805.0</ele><time>2026-03-29T15:34:44Z</time></trkpt><trkpt lat="36.890903718293664" lon="-108.14256092239819"><ele>1805.0</ele><time>2026-03-29T15:34:45Z</time></trkpt><trkpt lat="36.89104793457032" lon="-108.1424644110837"><ele>1805.0</ele><time>2026-03-29T15:34:47Z</time></trkpt><trkpt lat="36.89113847954997" lon="-108.14239942627425"><ele>1804.1666666666665</ele><time>2026-03-29T15:34:48Z</time></trkpt><trkpt lat="36.891189815205045" lon="-108.14229854028653"><ele>1803.3333333333333</ele><time>2026-03-29T15:34:49Z</time></trkpt><trkpt lat="36.89122816359847" lon="-108.14220775956241"><ele>1802.5</ele><time>2026-03-29T15:34:50Z</time></trkpt><trkpt lat="36.891251064100246" lon="-108.14212227410161"><ele>1801.6666666666665</ele><time>2026-03-29T15:34:51Z</time></trkpt><trkpt lat="36.8912685296778" lon="-108.14203138662369"><ele>1800.8333333333333</ele><time>2026-03-29T15:34:52Z</time></trkpt><trkpt lat="36.89130970254259" lon="-108.14192860575878"><ele>1800.0</ele><time>2026-03-29T15:34:53Z</time></trkpt><trkpt lat="36.89138977457594" lon="-108.1418679850266"><ele>1800.0</ele><time>2026-03-29T15:34:54Z</time></trkpt><trkpt lat="36.89145571607989" lon="-108.14183555122239"><ele>1800.0</ele><time>2026-03-29T15:34:55Z</time></trkpt><trkpt lat="36.89149664966395" lon="-108.14177040793753"><ele>1800.0</ele><time>2026-03-29T15:34:56Z</time></trkpt><trkpt lat="36.89158416198386" lon="-108.14165528619775"><ele>1800.0</ele><time>2026-03-29T15:34:58Z</time></trkpt><trkpt lat="36.89162260222799" lon="-108.14155690402205"><ele>1800.0</ele><time>2026-03-29T15:34:59Z</time></trkpt><trkpt lat="36.89166357173032" lon="-108.14147483454728"><ele>1800.0</ele><time>2026-03-29T15:35:00Z</time></trkpt><trkpt lat="36.891685725850245" lon="-108.14136845669125"><ele>1800.75</ele><time>2026-03-29T15:35:01Z</time></trkpt><trkpt lat="36.891665633728" lon="-108.14124913481287"><ele>1801.5</ele><time>2026-03-29T15:35:02Z</time></trkpt><trkpt lat="36.891621108698665" lon="-108.14109792896937"><ele>1802.25</ele><time>2026-03-29T15:35:03Z</time></trkpt><trkpt lat="36.891573140225006" lon="-108.14094483159292"><ele>1803.0</ele><time>2026-03-29T15:35:04Z</time></trkpt><trkpt lat="36.891560193722064" lon="-108.14081887630985"><ele>1803.0</ele><time>2026-03-29T15:35:05Z</time></trkpt><trkpt lat="36.89157838969017" lon="-108.14070855686066"><ele>1803.0000000000002</ele><time>2026-03-29T15:35:06Z</time></trkpt><trkpt lat="36.89156121357215" lon="-108.14063147963284"><ele>1803.0000000000002</ele><time>2026-03-29T15:35:07Z</time></trkpt><trkpt lat="36.891447360517404" lon="-108.14051129252957"><ele>1803.0</ele><time>2026-03-29T15:35:09Z</time></trkpt><trkpt lat="36.891357260330835" lon="-108.14044003381939"><ele>1803.0</ele><time>2026-03-29T15:35:10Z</time></trkpt><trkpt lat="36.891292133393506" lon="-108.1402998876921"><ele>1803.0</ele><time>2026-03-29T15:35:11Z</time></trkpt><trkpt lat="36.891245511798935" lon="-108.1401527793388"><ele>1803.0</ele><time>2026-03-29T15:35:12Z</time></trkpt><trkpt lat="36.89119393152556" lon="-108.14001049088147"><ele>1803.0</ele><time>2026-03-29T15:35:13Z</time></trkpt><trkpt lat="36.89117175026664" lon="-108.1398716874016"><ele>1803.0</ele><time>2026-03-29T15:35:14Z</time></trkpt><trkpt lat="36.891189248928406" lon="-108.13969860915485"><ele>1802.5</ele><time>2026-03-29T15:35:15Z</time></trkpt><trkpt lat="36.8912208757059" lon="-108.13950305673025"><ele>1802.0</ele><time>2026-03-29T15:35:16Z</time></trkpt><trkpt lat="36.89123427088115" lon="-108.13932056062914"><ele>1801.5</ele><time>2026-03-29T15:35:17Z</time></trkpt><trkpt lat="36.89124227918781" lon="-108.13921160765955"><ele>1801.0</ele><time>2026-03-29T15:35:18Z</time></trkpt><trkpt lat="36.89127404672422" lon="-108.1391184961893"><ele>1801.0000000000002</ele><time>2026-03-29T15:35:19Z</time></trkpt><trkpt lat="36.89132309445012" lon="-108.13904217106975"><ele>1801.0</ele><time>2026-03-29T15:35:20Z</time></trkpt><trkpt lat="36.89137679350321" lon="-108.13897040952327"><ele>1801.0</ele><time>2026-03-29T15:35:21Z</time></trkpt><trkpt lat="36.89141884822778" lon="-108.13886912681575"><ele>1801.0</ele><time>2026-03-29T15:35:22Z</time></trkpt><trkpt lat="36.89144646457028" lon="-108.13875726095462"><ele>1801.0000000000002</ele><time>2026-03-29T15:35:23Z</time></trkpt><trkpt lat="36.89149324380404" lon="-108.13865551427001"><ele>1801.0</ele><time>2026-03-29T15:35:24Z</time></trkpt><trkpt lat="36.89158065332502" lon="-108.13854614673048"><ele>1801.0</ele><time>2026-03-29T15:35:25Z</time></trkpt><trkpt lat="36.89159767805591" lon="-108.13844152236285"><ele>1801.0</ele><time>2026-03-29T15:35:26Z</time></trkpt><trkpt lat="36.891541526589634" lon="-108.13835710045755"><ele>1801.0</ele><time>2026-03-29T15:35:27Z</time></trkpt><trkpt lat="36.89151884442659" lon="-108.13823972610369"><ele>1801.0</ele><time>2026-03-29T15:35:28Z</time></trkpt><trkpt lat="36.89155880478832" lon="-108.13812085614379"><ele>1801.0</ele><time>2026-03-29T15:35:29Z</time></trkpt><trkpt lat="36.89157548081296" lon="-108.13798459812355"><ele>1801.6</ele><time>2026-03-29T15:35:30Z</time></trkpt><trkpt lat="36.89153268091886" lon="-108.13784197190046"><ele>1802.1999999999998</ele><time>2026-03-29T15:35:31Z</time></trkpt><trkpt lat="36.89152866946779" lon="-108.13771190493279"><ele>1802.8000000000002</ele><time>2026-03-29T15:35:32Z</time></trkpt><trkpt lat="36.891559575644465" lon="-108.13759817581628"><ele>1803.4</ele><time>2026-03-29T15:35:33Z</time></trkpt><trkpt lat="36.89161818086917" lon="-108.13751012666921"><ele>1804.0</ele><time>2026-03-29T15:35:34Z</time></trkpt><trkpt lat="36.89170769318489" lon="-108.13742771557541"><ele>1804.8000000000002</ele><time>2026-03-29T15:35:35Z</time></trkpt><trkpt lat="36.891777805957446" lon="-108.13735517848426"><ele>1805.6000000000001</ele><time>2026-03-29T15:35:36Z</time></trkpt><trkpt lat="36.89184078688041" lon="-108.137309403766"><ele>1806.4</ele><time>2026-03-29T15:35:37Z</time></trkpt><trkpt lat="36.89194919519443" lon="-108.1372535221146"><ele>1807.2</ele><time>2026-03-29T15:35:38Z</time></trkpt><trkpt lat="36.89203750475798" lon="-108.13716968848507"><ele>1808.0</ele><time>2026-03-29T15:35:39Z</time></trkpt><trkpt lat="36.892107774439886" lon="-108.13709801195272"><ele>1808.0</ele><time>2026-03-29T15:35:40Z</time></trkpt><trkpt lat="36.892186035567235" lon="-108.13703756184158"><ele>1808.0000000000002</ele><time>2026-03-29T15:35:41Z</time></trkpt><trkpt lat="36.892277248229206" lon="-108.13700061941437"><ele>1808.0000000000002</ele><time>2026-03-29T15:35:42Z</time></trkpt><trkpt lat="36.89238797675549" lon="-108.13699177423173"><ele>1808.0</ele><time>2026-03-29T15:35:44Z</time></trkpt><trkpt lat="36.89246344006186" lon="-108.13695907084987"><ele>1808.0</ele><time>2026-03-29T15:35:45Z</time></trkpt><trkpt lat="36.892545864412696" lon="-108.13689199476154"><ele>1807.4</ele><time>2026-03-29T15:35:46Z</time></trkpt><trkpt lat="36.89262552150002" lon="-108.1368140134093"><ele>1806.8000000000002</ele><time>2026-03-29T15:35:47Z</time></trkpt><trkpt lat="36.892687144303366" lon="-108.13676446500207"><ele>1806.2</ele><time>2026-03-29T15:35:48Z</time></trkpt><trkpt lat="36.89274030138622" lon="-108.13669855143749"><ele>1805.6</ele><time>2026-03-29T15:35:49Z</time></trkpt><trkpt lat="36.89277748659875" lon="-108.13662565662015"><ele>1805.0</ele><time>2026-03-29T15:35:50Z</time></trkpt><trkpt lat="36.8926905589954" lon="-108.13648947380973"><ele>1805.1666666666665</ele><time>2026-03-29T15:35:52Z</time></trkpt><trkpt lat="36.8926165687476" lon="-108.13645014186855"><ele>1805.3333333333333</ele><time>2026-03-29T15:35:53Z</time></trkpt><trkpt lat="36.89258447754383" lon="-108.13637352890215"><ele>1805.5</ele><time>2026-03-29T15:35:54Z</time></trkpt><trkpt lat="36.89251920809088" lon="-108.13627564462185"><ele>1805.6666666666665</ele><time>2026-03-29T15:35:55Z</time></trkpt><trkpt lat="36.892449595314304" lon="-108.13620810432704"><ele>1805.8333333333333</ele><time>2026-03-29T15:35:56Z</time></trkpt><trkpt lat="36.89239390656864" lon="-108.13614320328283"><ele>1806.0</ele><time>2026-03-29T15:35:57Z</time></trkpt><trkpt lat="36.89235746081479" lon="-108.1360685236719"><ele>1806.0</ele><time>2026-03-29T15:35:58Z</time></trkpt><trkpt lat="36.89231289028182" lon="-108.13594625086498"><ele>1806.0</ele><time>2026-03-29T15:35:59Z</time></trkpt><trkpt lat="36.892288488167715" lon="-108.13579340044376"><ele>1806.0</ele><time>2026-03-29T15:36:00Z</time></trkpt><trkpt lat="36.8922281456278" lon="-108.13565248471389"><ele>1806.0</ele><time>2026-03-29T15:36:01Z</time></trkpt><trkpt lat="36.89212663796533" lon="-108.135568325536"><ele>1805.75</ele><time>2026-03-29T15:36:02Z</time></trkpt><trkpt lat="36.89196811793927" lon="-108.13547183784912"><ele>1805.5</ele><time>2026-03-29T15:36:03Z</time></trkpt><trkpt lat="36.89184534218387" lon="-108.13538029926167"><ele>1805.25</ele><time>2026-03-29T15:36:04Z</time></trkpt><trkpt lat="36.891775637311326" lon="-108.13529763331489"><ele>1805.0</ele><time>2026-03-29T15:36:05Z</time></trkpt><trkpt lat="36.89172320408703" lon="-108.13521232397306"><ele>1805.5</ele><time>2026-03-29T15:36:06Z</time></trkpt><trkpt lat="36.89166705900671" lon="-108.13514612953601"><ele>1806.0</ele><time>2026-03-29T15:36:07Z</time></trkpt><trkpt lat="36.89156161054442" lon="-108.13516992037442"><ele>1806.5</ele><time>2026-03-29T15:36:08Z</time></trkpt><trkpt lat="36.89141831124" lon="-108.13517635958242"><ele>1807.0</ele><time>2026-03-29T15:36:09Z</time></trkpt><trkpt lat="36.89129767174181" lon="-108.13512455246993"><ele>1807.0</ele><time>2026-03-29T15:36:10Z</time></trkpt><trkpt lat="36.89114637831912" lon="-108.13504575374277"><ele>1807.0</ele><time>2026-03-29T15:36:11Z</time></trkpt><trkpt lat="36.891023912311844" lon="-108.13496296063074"><ele>1807.0</ele><time>2026-03-29T15:36:12Z</time></trkpt><trkpt lat="36.89089476473633" lon="-108.13487133451702"><ele>1808.6666666666667</ele><time>2026-03-29T15:36:13Z</time></trkpt><trkpt lat="36.89072563726815" lon="-108.13475081793949"><ele>1810.3333333333335</ele><time>2026-03-29T15:36:14Z</time></trkpt><trkpt lat="36.890547633753656" lon="-108.13463957625581"><ele>1812.0</ele><time>2026-03-29T15:36:15Z</time></trkpt><trkpt lat="36.89042270358526" lon="-108.13456630170515"><ele>1812.0</ele><time>2026-03-29T15:36:16Z</time></trkpt><trkpt lat="36.89029437457793" lon="-108.13448148635646"><ele>1812.0</ele><time>2026-03-29T15:36:17Z</time></trkpt><trkpt lat="36.89015822953635" lon="-108.13439032869073"><ele>1812.0</ele><time>2026-03-29T15:36:18Z</time></trkpt><trkpt lat="36.89002272524252" lon="-108.13428733619081"><ele>1813.25</ele><time>2026-03-29T15:36:19Z</time></trkpt><trkpt lat="36.88989206436321" lon="-108.13418721629341"><ele>1814.5</ele><time>2026-03-29T15:36:20Z</time></trkpt><trkpt lat="36.88978056144412" lon="-108.13410244824885"><ele>1815.75</ele><time>2026-03-29T15:36:21Z</time></trkpt><trkpt lat="36.88969278695477" lon="-108.13401354071566"><ele>1817.0</ele><time>2026-03-29T15:36:22Z</time></trkpt><trkpt lat="36.889637299254595" lon="-108.13391932634387"><ele>1817.0</ele><time>2026-03-29T15:36:23Z</time></trkpt><trkpt lat="36.88957358347556" lon="-108.13382975698491"><ele>1816.9999999999998</ele><time>2026-03-29T15:36:24Z</time></trkpt><trkpt lat="36.88949216030817" lon="-108.13377900039872"><ele>1816.9999999999998</ele><time>2026-03-29T15:36:25Z</time></trkpt><trkpt lat="36.889384581995465" lon="-108.13372999430679"><ele>1817.0</ele><time>2026-03-29T15:36:26Z</time></trkpt><trkpt lat="36.889303208048595" lon="-108.13370082331225"><ele>1817.0</ele><time>2026-03-29T15:36:27Z</time></trkpt><trkpt lat="36.889212061557124" lon="-108.13362021264456"><ele>1818.8</ele><time>2026-03-29T15:36:28Z</time></trkpt><trkpt lat="36.889178569508594" lon="-108.1335273860275"><ele>1820.6</ele><time>2026-03-29T15:36:29Z</time></trkpt><trkpt lat="36.88918860225324" lon="-108.13339862919644"><ele>1822.3999999999999</ele><time>2026-03-29T15:36:30Z</time></trkpt><trkpt lat="36.88918330750266" lon="-108.13327199372064"><ele>1824.1999999999998</ele><time>2026-03-29T15:36:31Z</time></trkpt><trkpt lat="36.88915446567249" lon="-108.13314304428384"><ele>1826.0</ele><time>2026-03-29T15:36:32Z</time></trkpt><trkpt lat="36.88913105045322" lon="-108.13302115878993"><ele>1826.6</ele><time>2026-03-29T15:36:33Z</time></trkpt><trkpt lat="36.88913527838129" lon="-108.13290707860322"><ele>1827.1999999999998</ele><time>2026-03-29T15:36:34Z</time></trkpt><trkpt lat="36.88915598431783" lon="-108.13277429882928"><ele>1827.8000000000002</ele><time>2026-03-29T15:36:35Z</time></trkpt><trkpt lat="36.88918008058545" lon="-108.13262263244287"><ele>1828.4</ele><time>2026-03-29T15:36:36Z</time></trkpt><trkpt lat="36.889196030262234" lon="-108.13250042163185"><ele>1829.0</ele><time>2026-03-29T15:36:37Z</time></trkpt><trkpt lat="36.889201607259736" lon="-108.13237556388599"><ele>1829.2</ele><time>2026-03-29T15:36:38Z</time></trkpt><trkpt lat="36.88922175670645" lon="-108.13225491488708"><ele>1829.4</ele><time>2026-03-29T15:36:39Z</time></trkpt><trkpt lat="36.88924146638609" lon="-108.1321204806065"><ele>1829.6</ele><time>2026-03-29T15:36:40Z</time></trkpt><trkpt lat="36.88923414207231" lon="-108.13200523342262"><ele>1829.8</ele><time>2026-03-29T15:36:41Z</time></trkpt><trkpt lat="36.88919775387439" lon="-108.13188137522309"><ele>1830.0</ele><time>2026-03-29T15:36:42Z</time></trkpt><trkpt lat="36.88918093252394" lon="-108.13170464795027"><ele>1830.0</ele><time>2026-03-29T15:36:43Z</time></trkpt><trkpt lat="36.88919114613382" lon="-108.13155520708787"><ele>1830.0</ele><time>2026-03-29T15:36:44Z</time></trkpt><trkpt lat="36.889209776167206" lon="-108.13141164607731"><ele>1830.0</ele><time>2026-03-29T15:36:45Z</time></trkpt><trkpt lat="36.889206411468614" lon="-108.13128109233233"><ele>1830.0</ele><time>2026-03-29T15:36:46Z</time></trkpt><trkpt lat="36.889186740966856" lon="-108.13114611681901"><ele>1830.0</ele><time>2026-03-29T15:36:47Z</time></trkpt><trkpt lat="36.88918705685432" lon="-108.13101099324142"><ele>1830.0</ele><time>2026-03-29T15:36:48Z</time></trkpt><trkpt lat="36.889183466398464" lon="-108.13089682562196"><ele>1830.0</ele><time>2026-03-29T15:36:49Z</time></trkpt><trkpt lat="36.88915473898421" lon="-108.13076550143163"><ele>1830.0</ele><time>2026-03-29T15:36:50Z</time></trkpt><trkpt lat="36.88910081386311" lon="-108.13061932514292"><ele>1830.0</ele><time>2026-03-29T15:36:51Z</time></trkpt><trkpt lat="36.889073042959744" lon="-108.13046789114414"><ele>1829.8</ele><time>2026-03-29T15:36:52Z</time></trkpt><trkpt lat="36.88904757004605" lon="-108.13035070685412"><ele>1829.6</ele><time>2026-03-29T15:36:53Z</time></trkpt><trkpt lat="36.889017885934194" lon="-108.13025184771892"><ele>1829.4</ele><time>2026-03-29T15:36:54Z</time></trkpt><trkpt lat="36.88897460835369" lon="-108.13015174333722"><ele>1829.2</ele><time>2026-03-29T15:36:55Z</time></trkpt><trkpt lat="36.88892838859682" lon="-108.13007355478732"><ele>1829.0</ele><time>2026-03-29T15:36:56Z</time></trkpt><trkpt lat="36.88891203328757" lon="-108.12994908946165"><ele>1828.8000000000002</ele><time>2026-03-29T15:36:57Z</time></trkpt><trkpt lat="36.888902433969" lon="-108.12983665336708"><ele>1828.6000000000001</ele><time>2026-03-29T15:36:58Z</time></trkpt><trkpt lat="36.888974258829414" lon="-108.12976170322989"><ele>1828.4</ele><time>2026-03-29T15:37:01Z</time></trkpt><trkpt lat="36.889044710146194" lon="-108.12970932739871"><ele>1828.2</ele><time>2026-03-29T15:37:02Z</time></trkpt><trkpt lat="36.88909346212007" lon="-108.12962803563698"><ele>1828.0</ele><time>2026-03-29T15:37:03Z</time></trkpt><trkpt lat="36.88908758105646" lon="-108.12942789724961"><ele>1828.0</ele><time>2026-03-29T15:37:05Z</time></trkpt><trkpt lat="36.88912463618597" lon="-108.12928670090339"><ele>1828.0000000000002</ele><time>2026-03-29T15:37:06Z</time></trkpt><trkpt lat="36.88915222396585" lon="-108.12915731496798"><ele>1828.0000000000002</ele><time>2026-03-29T15:37:07Z</time></trkpt><trkpt lat="36.889193041559" lon="-108.12903444058158"><ele>1828.0</ele><time>2026-03-29T15:37:08Z</time></trkpt><trkpt lat="36.889231087159295" lon="-108.1289121075749"><ele>1828.0</ele><time>2026-03-29T15:37:09Z</time></trkpt><trkpt lat="36.88925663912672" lon="-108.12879040849973"><ele>1826.5</ele><time>2026-03-29T15:37:10Z</time></trkpt><trkpt lat="36.889289135169285" lon="-108.12860707736257"><ele>1825.0</ele><time>2026-03-29T15:37:11Z</time></trkpt><trkpt lat="36.88932441237331" lon="-108.12841332152058"><ele>1823.5</ele><time>2026-03-29T15:37:12Z</time></trkpt><trkpt lat="36.889355704338655" lon="-108.12827315105059"><ele>1822.0</ele><time>2026-03-29T15:37:13Z</time></trkpt><trkpt lat="36.88938468931172" lon="-108.12810778823645"><ele>1822.0</ele><time>2026-03-29T15:37:14Z</time></trkpt><trkpt lat="36.8894363165109" lon="-108.12795185448304"><ele>1822.0</ele><time>2026-03-29T15:37:15Z</time></trkpt><trkpt lat="36.889490613712965" lon="-108.12779265720457"><ele>1822.0</ele><time>2026-03-29T15:37:16Z</time></trkpt><trkpt lat="36.88958429111523" lon="-108.12776725606497"><ele>1822.0</ele><time>2026-03-29T15:37:18Z</time></trkpt><trkpt lat="36.88969860793035" lon="-108.12779002634271"><ele>1822.0</ele><time>2026-03-29T15:37:19Z</time></trkpt><trkpt lat="36.889840149273624" lon="-108.12771250589816"><ele>1822.0</ele><time>2026-03-29T15:37:20Z</time></trkpt><trkpt lat="36.889981362246765" lon="-108.12765558032437"><ele>1822.0</ele><time>2026-03-29T15:37:21Z</time></trkpt><trkpt lat="36.8901099084437" lon="-108.12761276239478"><ele>1822.0</ele><time>2026-03-29T15:37:22Z</time></trkpt><trkpt lat="36.89020080105105" lon="-108.12751740100404"><ele>1822.5</ele><time>2026-03-29T15:37:23Z</time></trkpt><trkpt lat="36.89026839086552" lon="-108.1273811131951"><ele>1823.0</ele><time>2026-03-29T15:37:24Z</time></trkpt><trkpt lat="36.890315087759525" lon="-108.12730204773057"><ele>1823.5</ele><time>2026-03-29T15:37:25Z</time></trkpt><trkpt lat="36.89025121438064" lon="-108.12712165132818"><ele>1824.0</ele><time>2026-03-29T15:37:27Z</time></trkpt><trkpt lat="36.89020481540111" lon="-108.12693711686958"><ele>1824.0</ele><time>2026-03-29T15:37:28Z</time></trkpt><trkpt lat="36.890192565827746" lon="-108.12674445455019"><ele>1824.0</ele><time>2026-03-29T15:37:29Z</time></trkpt><trkpt lat="36.89020610837106" lon="-108.12658158030177"><ele>1824.0</ele><time>2026-03-29T15:37:30Z</time></trkpt><trkpt lat="36.89025939112182" lon="-108.12645339919085"><ele>1824.0</ele><time>2026-03-29T15:37:31Z</time></trkpt><trkpt lat="36.89031496969899" lon="-108.1263382671123"><ele>1824.0</ele><time>2026-03-29T15:37:32Z</time></trkpt><trkpt lat="36.8903874262239" lon="-108.12627712007905"><ele>1824.0</ele><time>2026-03-29T15:37:33Z</time></trkpt><trkpt lat="36.89046871839806" lon="-108.1262611936708"><ele>1824.0</ele><time>2026-03-29T15:37:34Z</time></trkpt><trkpt lat="36.89057923445373" lon="-108.12623443208248"><ele>1824.0</ele><time>2026-03-29T15:37:35Z</time></trkpt><trkpt lat="36.8907238602765" lon="-108.12615702857322"><ele>1824.0</ele><time>2026-03-29T15:37:36Z</time></trkpt><trkpt lat="36.89082835301964" lon="-108.12608333479346"><ele>1824.0</ele><time>2026-03-29T15:37:37Z</time></trkpt><trkpt lat="36.89089485469007" lon="-108.12600928906332"><ele>1824.0</ele><time>2026-03-29T15:37:38Z</time></trkpt><trkpt lat="36.89099701914275" lon="-108.1259702589226"><ele>1824.0</ele><time>2026-03-29T15:37:39Z</time></trkpt><trkpt lat="36.89111830107545" lon="-108.12591246239349"><ele>1824.0</ele><time>2026-03-29T15:37:40Z</time></trkpt><trkpt lat="36.89126222463267" lon="-108.12588242884583"><ele>1823.2</ele><time>2026-03-29T15:37:41Z</time></trkpt><trkpt lat="36.89137410974895" lon="-108.125851185589"><ele>1822.4</ele><time>2026-03-29T15:37:42Z</time></trkpt><trkpt lat="36.89145485272934" lon="-108.12581727425787"><ele>1821.6</ele><time>2026-03-29T15:37:43Z</time></trkpt><trkpt lat="36.89151228556307" lon="-108.12576477817842"><ele>1820.8</ele><time>2026-03-29T15:37:44Z</time></trkpt><trkpt lat="36.891608948670196" lon="-108.1257077400423"><ele>1820.0</ele><time>2026-03-29T15:37:45Z</time></trkpt><trkpt lat="36.89174654794608" lon="-108.12566174073362"><ele>1818.6666666666665</ele><time>2026-03-29T15:37:46Z</time></trkpt><trkpt lat="36.891927765765075" lon="-108.12558908733791"><ele>1817.3333333333335</ele><time>2026-03-29T15:37:47Z</time></trkpt><trkpt lat="36.89210730474643" lon="-108.12551827416031"><ele>1816.0</ele><time>2026-03-29T15:37:48Z</time></trkpt><trkpt lat="36.892276789214854" lon="-108.12548696838861"><ele>1816.0</ele><time>2026-03-29T15:37:49Z</time></trkpt><trkpt lat="36.89244484530819" lon="-108.12549348164715"><ele>1816.0</ele><time>2026-03-29T15:37:50Z</time></trkpt><trkpt lat="36.892635409248804" lon="-108.12550179222764"><ele>1816.0</ele><time>2026-03-29T15:37:51Z</time></trkpt><trkpt lat="36.89288235609798" lon="-108.12551983376488"><ele>1816.0</ele><time>2026-03-29T15:37:52Z</time></trkpt><trkpt lat="36.89313435648448" lon="-108.12552657493485"><ele>1816.0</ele><time>2026-03-29T15:37:53Z</time></trkpt><trkpt lat="36.89333704779369" lon="-108.12549918454799"><ele>1815.75</ele><time>2026-03-29T15:37:54Z</time></trkpt><trkpt lat="36.893491162978" lon="-108.12546106387866"><ele>1815.5</ele><time>2026-03-29T15:37:55Z</time></trkpt><trkpt lat="36.89362185169764" lon="-108.1254216924285"><ele>1815.25</ele><time>2026-03-29T15:37:56Z</time></trkpt><trkpt lat="36.89373302299759" lon="-108.12537223921281"><ele>1815.0</ele><time>2026-03-29T15:37:57Z</time></trkpt><trkpt lat="36.8938520043826" lon="-108.12529757402012"><ele>1815.0</ele><time>2026-03-29T15:37:58Z</time></trkpt><trkpt lat="36.8939972589382" lon="-108.12523564074685"><ele>1815.0</ele><time>2026-03-29T15:37:59Z</time></trkpt><trkpt lat="36.89414917027617" lon="-108.12517495213719"><ele>1815.0</ele><time>2026-03-29T15:38:00Z</time></trkpt><trkpt lat="36.894283623535685" lon="-108.12511089753612"><ele>1814.3333333333335</ele><time>2026-03-29T15:38:01Z</time></trkpt><trkpt lat="36.89447001913515" lon="-108.1250452349973"><ele>1813.6666666666667</ele><time>2026-03-29T15:38:02Z</time></trkpt><trkpt lat="36.894683573637" lon="-108.12498033644023"><ele>1813.0</ele><time>2026-03-29T15:38:03Z</time></trkpt><trkpt lat="36.894890726915044" lon="-108.12493968293414"><ele>1813.0</ele><time>2026-03-29T15:38:04Z</time></trkpt><trkpt lat="36.89503243303392" lon="-108.12489996236658"><ele>1813.0</ele><time>2026-03-29T15:38:05Z</time></trkpt><trkpt lat="36.89512955411871" lon="-108.12484907082745"><ele>1813.0</ele><time>2026-03-29T15:38:06Z</time></trkpt><trkpt lat="36.895215861758636" lon="-108.12470301502715"><ele>1813.0</ele><time>2026-03-29T15:38:07Z</time></trkpt><trkpt lat="36.89528942042925" lon="-108.12449950441207"><ele>1814.3333333333335</ele><time>2026-03-29T15:38:08Z</time></trkpt><trkpt lat="36.89532067215395" lon="-108.12428135329021"><ele>1815.6666666666665</ele><time>2026-03-29T15:38:09Z</time></trkpt><trkpt lat="36.89533414501842" lon="-108.12404085126732"><ele>1817.0</ele><time>2026-03-29T15:38:10Z</time></trkpt><trkpt lat="36.89533488018842" lon="-108.1238045868969"><ele>1818.0</ele><time>2026-03-29T15:38:11Z</time></trkpt><trkpt lat="36.89536391438768" lon="-108.12356040742266"><ele>1819.0</ele><time>2026-03-29T15:38:12Z</time></trkpt><trkpt lat="36.89539738702876" lon="-108.12333681008572"><ele>1820.0</ele><time>2026-03-29T15:38:13Z</time></trkpt><trkpt lat="36.8953944121719" lon="-108.12309263902328"><ele>1820.5</ele><time>2026-03-29T15:38:14Z</time></trkpt><trkpt lat="36.89538724986063" lon="-108.12290453363205"><ele>1821.0</ele><time>2026-03-29T15:38:15Z</time></trkpt><trkpt lat="36.89540620517281" lon="-108.12275956070124"><ele>1821.5</ele><time>2026-03-29T15:38:16Z</time></trkpt><trkpt lat="36.89543493973846" lon="-108.12265026805777"><ele>1822.0</ele><time>2026-03-29T15:38:17Z</time></trkpt><trkpt lat="36.8955427318027" lon="-108.12259146987803"><ele>1822.0</ele><time>2026-03-29T15:38:19Z</time></trkpt><trkpt lat="36.89564497611838" lon="-108.12260384241256"><ele>1822.0</ele><time>2026-03-29T15:38:20Z</time></trkpt><trkpt lat="36.89576676177986" lon="-108.12266014199149"><ele>1822.0</ele><time>2026-03-29T15:38:21Z</time></trkpt><trkpt lat="36.89590483981573" lon="-108.12269291599348"><ele>1822.0</ele><time>2026-03-29T15:38:22Z</time></trkpt><trkpt lat="36.89603979223716" lon="-108.12271168000213"><ele>1822.25</ele><time>2026-03-29T15:38:23Z</time></trkpt><trkpt lat="36.89621247489806" lon="-108.12275004793742"><ele>1822.5</ele><time>2026-03-29T15:38:24Z</time></trkpt><trkpt lat="36.896369686846064" lon="-108.12273076021738"><ele>1822.75</ele><time>2026-03-29T15:38:25Z</time></trkpt><trkpt lat="36.89646183012069" lon="-108.12277059496759"><ele>1823.0</ele><time>2026-03-29T15:38:26Z</time></trkpt><trkpt lat="36.89653538933239" lon="-108.12283088120651"><ele>1822.9999999999998</ele><time>2026-03-29T15:38:27Z</time></trkpt><trkpt lat="36.896608969306406" lon="-108.1228671347302"><ele>1823.0</ele><time>2026-03-29T15:38:28Z</time></trkpt><trkpt lat="36.89667733416261" lon="-108.12286602495593"><ele>1823.0</ele><time>2026-03-29T15:38:30Z</time></trkpt><trkpt lat="36.89666593331634" lon="-108.12273605810294"><ele>1823.0</ele><time>2026-03-29T15:38:32Z</time></trkpt><trkpt lat="36.896617089731805" lon="-108.12265538933798"><ele>1822.9999999999998</ele><time>2026-03-29T15:38:33Z</time></trkpt><trkpt lat="36.896580709646464" lon="-108.12255735083738"><ele>1823.0</ele><time>2026-03-29T15:38:34Z</time></trkpt><trkpt lat="36.89659155463312" lon="-108.12245298515424"><ele>1823.8000000000002</ele><time>2026-03-29T15:38:35Z</time></trkpt><trkpt lat="36.896650539084796" lon="-108.12235607211792"><ele>1824.6000000000001</ele><time>2026-03-29T15:38:36Z</time></trkpt><trkpt lat="36.8966578281321" lon="-108.12225671555807"><ele>1825.3999999999999</ele><time>2026-03-29T15:38:38.001Z</time></trkpt><trkpt lat="36.89656406338292" lon="-108.12217885104569"><ele>1826.1999999999998</ele><time>2026-03-29T15:38:39.001Z</time></trkpt><trkpt lat="36.89647439120803" lon="-108.12209024783643"><ele>1827.0</ele><time>2026-03-29T15:38:40.001Z</time></trkpt><trkpt lat="36.89642249055144" lon="-108.12201410908067"><ele>1827.0</ele><time>2026-03-29T15:38:41.001Z</time></trkpt><trkpt lat="36.8963950107151" lon="-108.12185308820082"><ele>1827.0</ele><time>2026-03-29T15:38:43.001Z</time></trkpt><trkpt lat="36.89645108765387" lon="-108.12171141543537"><ele>1827.0</ele><time>2026-03-29T15:38:45.001Z</time></trkpt><trkpt lat="36.89651808417202" lon="-108.1215982633564"><ele>1827.0</ele><time>2026-03-29T15:38:47Z</time></trkpt><trkpt lat="36.89654557189445" lon="-108.12149792179348"><ele>1827.5</ele><time>2026-03-29T15:38:48Z</time></trkpt><trkpt lat="36.8965999368109" lon="-108.12137703345097"><ele>1828.0</ele><time>2026-03-29T15:38:49Z</time></trkpt><trkpt lat="36.89665595971759" lon="-108.12124794910024"><ele>1828.5</ele><time>2026-03-29T15:38:50Z</time></trkpt><trkpt lat="36.89671762947698" lon="-108.12111054139862"><ele>1829.0</ele><time>2026-03-29T15:38:51Z</time></trkpt><trkpt lat="36.8967742705965" lon="-108.12099404516769"><ele>1829.6666666666665</ele><time>2026-03-29T15:38:52Z</time></trkpt><trkpt lat="36.89681255141068" lon="-108.12090501393901"><ele>1830.3333333333333</ele><time>2026-03-29T15:38:53Z</time></trkpt><trkpt lat="36.896862769721174" lon="-108.12084917015335"><ele>1831.0</ele><time>2026-03-29T15:38:54Z</time></trkpt><trkpt lat="36.89688175714362" lon="-108.12075719386972"><ele>1831.6666666666665</ele><time>2026-03-29T15:38:55Z</time></trkpt><trkpt lat="36.896920652415425" lon="-108.12068984843548"><ele>1832.3333333333333</ele><time>2026-03-29T15:38:56Z</time></trkpt><trkpt lat="36.89703219448016" lon="-108.12069296863064"><ele>1833.0</ele><time>2026-03-29T15:38:58Z</time></trkpt><trkpt lat="36.89710436600045" lon="-108.12059628199778"><ele>1833.25</ele><time>2026-03-29T15:39:00Z</time></trkpt><trkpt lat="36.89722034215945" lon="-108.12040235142713"><ele>1833.5</ele><time>2026-03-29T15:39:02Z</time></trkpt><trkpt lat="36.897280060660066" lon="-108.12025926060838"><ele>1833.75</ele><time>2026-03-29T15:39:03Z</time></trkpt><trkpt lat="36.89731723865082" lon="-108.12014842222086"><ele>1834.0</ele><time>2026-03-29T15:39:04Z</time></trkpt><trkpt lat="36.897343036178285" lon="-108.12004832639316"><ele>1834.0000000000002</ele><time>2026-03-29T15:39:05Z</time></trkpt><trkpt lat="36.897386370760955" lon="-108.11994662371454"><ele>1834.0</ele><time>2026-03-29T15:39:06Z</time></trkpt><trkpt lat="36.89740490368043" lon="-108.11985923569354"><ele>1834.0</ele><time>2026-03-29T15:39:07Z</time></trkpt><trkpt lat="36.89745235150836" lon="-108.11979359214706"><ele>1834.0</ele><time>2026-03-29T15:39:08Z</time></trkpt><trkpt lat="36.897525072768886" lon="-108.11973233737955"><ele>1834.0000000000002</ele><time>2026-03-29T15:39:09Z</time></trkpt><trkpt lat="36.89759347269604" lon="-108.11970093645172"><ele>1834.0</ele><time>2026-03-29T15:39:10Z</time></trkpt><trkpt lat="36.89767779121312" lon="-108.11962400960674"><ele>1834.25</ele><time>2026-03-29T15:39:11Z</time></trkpt><trkpt lat="36.89775738003901" lon="-108.11948395459572"><ele>1834.5</ele><time>2026-03-29T15:39:12Z</time></trkpt><trkpt lat="36.89785957663364" lon="-108.11932750177964"><ele>1834.75</ele><time>2026-03-29T15:39:13Z</time></trkpt><trkpt lat="36.897949671417756" lon="-108.11923208365599"><ele>1835.0</ele><time>2026-03-29T15:39:14Z</time></trkpt><trkpt lat="36.898036908892834" lon="-108.11916597835133"><ele>1835.0</ele><time>2026-03-29T15:39:15Z</time></trkpt><trkpt lat="36.898147518759245" lon="-108.11910240666204"><ele>1835.0</ele><time>2026-03-29T15:39:16Z</time></trkpt><trkpt lat="36.89826380963006" lon="-108.1190661682633"><ele>1835.0</ele><time>2026-03-29T15:39:17Z</time></trkpt><trkpt lat="36.898339330229156" lon="-108.11904408544345"><ele>1835.0</ele><time>2026-03-29T15:39:18Z</time></trkpt><trkpt lat="36.89841480884256" lon="-108.11898067761648"><ele>1835.0</ele><time>2026-03-29T15:39:19Z</time></trkpt><trkpt lat="36.89849204400369" lon="-108.11891540524962"><ele>1834.5</ele><time>2026-03-29T15:39:20Z</time></trkpt><trkpt lat="36.898570730359424" lon="-108.11883064683686"><ele>1834.0</ele><time>2026-03-29T15:39:21Z</time></trkpt><trkpt lat="36.898638210018234" lon="-108.11873079897396"><ele>1833.5</ele><time>2026-03-29T15:39:22Z</time></trkpt><trkpt lat="36.89877227995328" lon="-108.11864856456032"><ele>1833.0</ele><time>2026-03-29T15:39:23Z</time></trkpt><trkpt lat="36.898851709543706" lon="-108.11855119060638"><ele>1833.0</ele><time>2026-03-29T15:39:24Z</time></trkpt><trkpt lat="36.89887898456497" lon="-108.11845870482205"><ele>1833.0000000000002</ele><time>2026-03-29T15:39:24.999Z</time></trkpt><trkpt lat="36.89890377132401" lon="-108.11836985975071"><ele>1833.0000000000002</ele><time>2026-03-29T15:39:25.999Z</time></trkpt><trkpt lat="36.89896119367275" lon="-108.1182680096616"><ele>1833.0</ele><time>2026-03-29T15:39:26.999Z</time></trkpt><trkpt lat="36.89902440750004" lon="-108.11819243781883"><ele>1833.0</ele><time>2026-03-29T15:39:27.999Z</time></trkpt><trkpt lat="36.899120872074924" lon="-108.11807607055775"><ele>1833.0</ele><time>2026-03-29T15:39:29.999Z</time></trkpt><trkpt lat="36.89918327237285" lon="-108.11798055372476"><ele>1833.0000000000002</ele><time>2026-03-29T15:39:30.999Z</time></trkpt><trkpt lat="36.899258952618005" lon="-108.11789951943554"><ele>1833.0000000000002</ele><time>2026-03-29T15:39:31.999Z</time></trkpt><trkpt lat="36.89934285993359" lon="-108.11782796255709"><ele>1833.0</ele><time>2026-03-29T15:39:32.999Z</time></trkpt><trkpt lat="36.8994075065824" lon="-108.1177652170616"><ele>1833.0</ele><time>2026-03-29T15:39:33.999Z</time></trkpt><trkpt lat="36.8994650254478" lon="-108.11770101864309"><ele>1832.75</ele><time>2026-03-29T15:39:34.999Z</time></trkpt><trkpt lat="36.89959289825745" lon="-108.11764161570571"><ele>1832.5</ele><time>2026-03-29T15:39:35.999Z</time></trkpt><trkpt lat="36.899691420235214" lon="-108.11755951724297"><ele>1832.25</ele><time>2026-03-29T15:39:36.999Z</time></trkpt><trkpt lat="36.899739493762965" lon="-108.1174539021156"><ele>1832.0</ele><time>2026-03-29T15:39:37.999Z</time></trkpt><trkpt lat="36.899801705264906" lon="-108.11731631567562"><ele>1832.3999999999999</ele><time>2026-03-29T15:39:38.999Z</time></trkpt><trkpt lat="36.899889595583716" lon="-108.11725636021835"><ele>1832.7999999999997</ele><time>2026-03-29T15:39:39.999Z</time></trkpt><trkpt lat="36.89995638558495" lon="-108.11721164953386"><ele>1833.2</ele><time>2026-03-29T15:39:40.999Z</time></trkpt><trkpt lat="36.90002209506303" lon="-108.11712488163211"><ele>1833.6</ele><time>2026-03-29T15:39:41.999Z</time></trkpt><trkpt lat="36.90008789470085" lon="-108.11701494948642"><ele>1834.0</ele><time>2026-03-29T15:39:42.999Z</time></trkpt><trkpt lat="36.90014594118246" lon="-108.11696631442992"><ele>1834.0</ele><time>2026-03-29T15:39:43.999Z</time></trkpt><trkpt lat="36.90021951345904" lon="-108.11693754051514"><ele>1834.0</ele><time>2026-03-29T15:39:44.999Z</time></trkpt><trkpt lat="36.900301833981224" lon="-108.11689823983819"><ele>1834.0</ele><time>2026-03-29T15:39:45.999Z</time></trkpt><trkpt lat="36.900381120560304" lon="-108.11680417380244"><ele>1834.0</ele><time>2026-03-29T15:39:46.999Z</time></trkpt><trkpt lat="36.90043870820994" lon="-108.11664246110604"><ele>1834.0</ele><time>2026-03-29T15:39:47.999Z</time></trkpt><trkpt lat="36.90048707287858" lon="-108.11645674817515"><ele>1834.75</ele><time>2026-03-29T15:39:48.999Z</time></trkpt><trkpt lat="36.9005638399071" lon="-108.11626960185615"><ele>1835.5</ele><time>2026-03-29T15:39:49.999Z</time></trkpt><trkpt lat="36.900627189132905" lon="-108.11612376773822"><ele>1836.25</ele><time>2026-03-29T15:39:50.999Z</time></trkpt><trkpt lat="36.90066640179778" lon="-108.11600345223208"><ele>1837.0</ele><time>2026-03-29T15:39:51.999Z</time></trkpt><trkpt lat="36.90071661958045" lon="-108.11588006675777"><ele>1837.8</ele><time>2026-03-29T15:39:52.999Z</time></trkpt><trkpt lat="36.900799361263076" lon="-108.11573486780343"><ele>1838.6</ele><time>2026-03-29T15:39:53.999Z</time></trkpt><trkpt lat="36.90084411802456" lon="-108.11561555956827"><ele>1839.3999999999999</ele><time>2026-03-29T15:39:54.999Z</time></trkpt><trkpt lat="36.9008980984295" lon="-108.11550439239764"><ele>1840.1999999999998</ele><time>2026-03-29T15:39:55.999Z</time></trkpt><trkpt lat="36.900900871060294" lon="-108.11538664950572"><ele>1841.0</ele><time>2026-03-29T15:39:56.999Z</time></trkpt><trkpt lat="36.90090979683043" lon="-108.11526376153121"><ele>1841.4</ele><time>2026-03-29T15:39:57.999Z</time></trkpt><trkpt lat="36.90095552277596" lon="-108.11519667493005"><ele>1841.8</ele><time>2026-03-29T15:39:58.999Z</time></trkpt><trkpt lat="36.901036315891965" lon="-108.11517708178133"><ele>1842.2000000000003</ele><time>2026-03-29T15:39:59.999Z</time></trkpt><trkpt lat="36.901143442668584" lon="-108.1151821298153"><ele>1842.6000000000001</ele><time>2026-03-29T15:40:00.999Z</time></trkpt><trkpt lat="36.90124892987287" lon="-108.11521457902128"><ele>1843.0</ele><time>2026-03-29T15:40:01.999Z</time></trkpt><trkpt lat="36.90138661195369" lon="-108.11524843966048"><ele>1843.0</ele><time>2026-03-29T15:40:02.999Z</time></trkpt><trkpt lat="36.901564856943615" lon="-108.11528974765886"><ele>1843.0</ele><time>2026-03-29T15:40:03.999Z</time></trkpt><trkpt lat="36.90176022868179" lon="-108.11532878125416"><ele>1843.0</ele><time>2026-03-29T15:40:04.999Z</time></trkpt><trkpt lat="36.9019803576383" lon="-108.11537485177068"><ele>1843.6666666666667</ele><time>2026-03-29T15:40:05.999Z</time></trkpt><trkpt lat="36.90221300043709" lon="-108.11542446620913"><ele>1844.3333333333335</ele><time>2026-03-29T15:40:06.999Z</time></trkpt><trkpt lat="36.9023813917648" lon="-108.11545340738547"><ele>1845.0</ele><time>2026-03-29T15:40:07.999Z</time></trkpt><trkpt lat="36.90247278115479" lon="-108.11545379433252"><ele>1845.0</ele><time>2026-03-29T15:40:08.999Z</time></trkpt><trkpt lat="36.902556292198994" lon="-108.11545310917508"><ele>1845.0</ele><time>2026-03-29T15:40:10.999Z</time></trkpt><trkpt lat="36.90266515385286" lon="-108.1154839076273"><ele>1845.0</ele><time>2026-03-29T15:40:13.999Z</time></trkpt><trkpt lat="36.90259423614837" lon="-108.11547277889296"><ele>1845.0</ele><time>2026-03-29T15:40:19.999Z</time></trkpt><trkpt lat="36.902505760636295" lon="-108.1154620085621"><ele>1845.0</ele><time>2026-03-29T15:40:20.999Z</time></trkpt><trkpt lat="36.90249017546609" lon="-108.11537414721641"><ele>1845.0</ele><time>2026-03-29T15:40:22.999Z</time></trkpt><trkpt lat="36.90256417011319" lon="-108.11527610081181"><ele>1844.8</ele><time>2026-03-29T15:40:24.999Z</time></trkpt><trkpt lat="36.90267399377923" lon="-108.11522414383036"><ele>1844.6</ele><time>2026-03-29T15:40:26.999Z</time></trkpt><trkpt lat="36.90261769184708" lon="-108.11526433836958"><ele>1844.4</ele><time>2026-03-29T15:40:37.999Z</time></trkpt><trkpt lat="36.90272629007232" lon="-108.1152228556293"><ele>1844.2</ele><time>2026-03-29T15:40:46Z</time></trkpt><trkpt lat="36.90279238891218" lon="-108.11518811533671"><ele>1844.0</ele><time>2026-03-29T15:40:47Z</time></trkpt><trkpt lat="36.90287075567214" lon="-108.11509023053995"><ele>1844.0</ele><time>2026-03-29T15:40:48Z</time></trkpt><trkpt lat="36.90293583818589" lon="-108.11497412622586"><ele>1844.0</ele><time>2026-03-29T15:40:49Z</time></trkpt><trkpt lat="36.90302646745752" lon="-108.11483079650472"><ele>1844.0</ele><time>2026-03-29T15:40:50Z</time></trkpt><trkpt lat="36.90313673791672" lon="-108.11471328868312"><ele>1844.0</ele><time>2026-03-29T15:40:51Z</time></trkpt><trkpt lat="36.903228279741725" lon="-108.11459891398938"><ele>1844.2</ele><time>2026-03-29T15:40:52Z</time></trkpt><trkpt lat="36.90329549312773" lon="-108.1145072235308"><ele>1844.4</ele><time>2026-03-29T15:40:53Z</time></trkpt><trkpt lat="36.903360463198574" lon="-108.11446048533634"><ele>1844.6</ele><time>2026-03-29T15:40:54Z</time></trkpt><trkpt lat="36.90343093943779" lon="-108.11449771285726"><ele>1844.8</ele><time>2026-03-29T15:40:55Z</time></trkpt><trkpt lat="36.90352813063307" lon="-108.11452027920514"><ele>1845.0</ele><time>2026-03-29T15:40:56Z</time></trkpt><trkpt lat="36.90362914727576" lon="-108.11452871058135"><ele>1845.0</ele><time>2026-03-29T15:40:57Z</time></trkpt><trkpt lat="36.903718612487594" lon="-108.11449946774529"><ele>1845.0</ele><time>2026-03-29T15:40:58Z</time></trkpt><trkpt lat="36.90374307512908" lon="-108.11433252965207"><ele>1845.0</ele><time>2026-03-29T15:41:00Z</time></trkpt><trkpt lat="36.903717953871784" lon="-108.1142052025275"><ele>1845.0</ele><time>2026-03-29T15:41:01Z</time></trkpt><trkpt lat="36.903742366156195" lon="-108.11409789795704"><ele>1845.0</ele><time>2026-03-29T15:41:02Z</time></trkpt><trkpt lat="36.90382295085582" lon="-108.11399477537189"><ele>1845.0</ele><time>2026-03-29T15:41:03Z</time></trkpt><trkpt lat="36.9039328076671" lon="-108.11385884876256"><ele>1845.0</ele><time>2026-03-29T15:41:04Z</time></trkpt><trkpt lat="36.90404064300722" lon="-108.11370837467332"><ele>1845.0</ele><time>2026-03-29T15:41:05Z</time></trkpt><trkpt lat="36.90414506759705" lon="-108.11356118135102"><ele>1844.75</ele><time>2026-03-29T15:41:06Z</time></trkpt><trkpt lat="36.90425153411731" lon="-108.11344589973486"><ele>1844.5</ele><time>2026-03-29T15:41:07Z</time></trkpt><trkpt lat="36.904331223242096" lon="-108.11336262726115"><ele>1844.25</ele><time>2026-03-29T15:41:08Z</time></trkpt><trkpt lat="36.90438322611386" lon="-108.11322449690363"><ele>1844.0</ele><time>2026-03-29T15:41:09Z</time></trkpt><trkpt lat="36.90448102401475" lon="-108.11309762491243"><ele>1844.6666666666665</ele><time>2026-03-29T15:41:10Z</time></trkpt><trkpt lat="36.90463270850735" lon="-108.11298402856418"><ele>1845.3333333333335</ele><time>2026-03-29T15:41:11Z</time></trkpt><trkpt lat="36.90475203870914" lon="-108.11288776153165"><ele>1846.0</ele><time>2026-03-29T15:41:12Z</time></trkpt><trkpt lat="36.904882998218966" lon="-108.1127784933281"><ele>1846.0</ele><time>2026-03-29T15:41:13Z</time></trkpt><trkpt lat="36.90502673045632" lon="-108.11264926512538"><ele>1846.0</ele><time>2026-03-29T15:41:14Z</time></trkpt><trkpt lat="36.90520606122368" lon="-108.11256161008471"><ele>1846.0</ele><time>2026-03-29T15:41:15Z</time></trkpt><trkpt lat="36.90539145354287" lon="-108.11252913082609"><ele>1845.5</ele><time>2026-03-29T15:41:16Z</time></trkpt><trkpt lat="36.90553691804072" lon="-108.11247321851961"><ele>1845.0</ele><time>2026-03-29T15:41:17Z</time></trkpt><trkpt lat="36.90567056695199" lon="-108.1123982799832"><ele>1844.5</ele><time>2026-03-29T15:41:18Z</time></trkpt><trkpt lat="36.90579271697529" lon="-108.11231178835367"><ele>1844.0</ele><time>2026-03-29T15:41:19Z</time></trkpt><trkpt lat="36.905896039564105" lon="-108.11219454059301"><ele>1843.6666666666665</ele><time>2026-03-29T15:41:20Z</time></trkpt><trkpt lat="36.90600326529226" lon="-108.11203957154403"><ele>1843.3333333333335</ele><time>2026-03-29T15:41:21Z</time></trkpt><trkpt lat="36.90610505499053" lon="-108.11188374120644"><ele>1843.0</ele><time>2026-03-29T15:41:22Z</time></trkpt><trkpt lat="36.90619098833733" lon="-108.11176186648943"><ele>1843.0</ele><time>2026-03-29T15:41:23Z</time></trkpt><trkpt lat="36.90626051198034" lon="-108.11164214573353"><ele>1843.0</ele><time>2026-03-29T15:41:24Z</time></trkpt><trkpt lat="36.9063101158356" lon="-108.11149436019839"><ele>1843.0</ele><time>2026-03-29T15:41:25Z</time></trkpt><trkpt lat="36.906331683687604" lon="-108.1112988454835"><ele>1843.0</ele><time>2026-03-29T15:41:26Z</time></trkpt><trkpt lat="36.90636876417133" lon="-108.11107142807882"><ele>1843.3333333333335</ele><time>2026-03-29T15:41:27Z</time></trkpt><trkpt lat="36.90640241253271" lon="-108.11085607043069"><ele>1843.6666666666665</ele><time>2026-03-29T15:41:27.999Z</time></trkpt><trkpt lat="36.90642242474591" lon="-108.11063469406521"><ele>1844.0</ele><time>2026-03-29T15:41:28.999Z</time></trkpt><trkpt lat="36.90644875372253" lon="-108.11038436300343"><ele>1845.3333333333333</ele><time>2026-03-29T15:41:29.999Z</time></trkpt><trkpt lat="36.90647872911707" lon="-108.11011483802876"><ele>1846.6666666666665</ele><time>2026-03-29T15:41:30.999Z</time></trkpt><trkpt lat="36.906494304845715" lon="-108.10986570322441"><ele>1848.0</ele><time>2026-03-29T15:41:31.999Z</time></trkpt><trkpt lat="36.90650166374751" lon="-108.10964412958853"><ele>1849.0</ele><time>2026-03-29T15:41:32.999Z</time></trkpt><trkpt lat="36.90650049046876" lon="-108.10944918568329"><ele>1850.0</ele><time>2026-03-29T15:41:33.999Z</time></trkpt><trkpt lat="36.90647666849708" lon="-108.10924118754762"><ele>1851.0</ele><time>2026-03-29T15:41:34.999Z</time></trkpt><trkpt lat="36.9064682065758" lon="-108.1090336335219"><ele>1851.5</ele><time>2026-03-29T15:41:35.999Z</time></trkpt><trkpt lat="36.90646948087466" lon="-108.1088651611085"><ele>1852.0</ele><time>2026-03-29T15:41:36.999Z</time></trkpt><trkpt lat="36.906477832253614" lon="-108.10870684056657"><ele>1852.5</ele><time>2026-03-29T15:41:37.999Z</time></trkpt><trkpt lat="36.9064939948869" lon="-108.10852073192474"><ele>1853.0</ele><time>2026-03-29T15:41:38.999Z</time></trkpt><trkpt lat="36.90646905717578" lon="-108.10831021450073"><ele>1854.5</ele><time>2026-03-29T15:41:39.999Z</time></trkpt><trkpt lat="36.90644519011929" lon="-108.10811630902616"><ele>1856.0</ele><time>2026-03-29T15:41:40.999Z</time></trkpt><trkpt lat="36.906435199300276" lon="-108.10796321042227"><ele>1857.5</ele><time>2026-03-29T15:41:41.999Z</time></trkpt><trkpt lat="36.9064452100089" lon="-108.10783088610755"><ele>1859.0</ele><time>2026-03-29T15:41:42.999Z</time></trkpt><trkpt lat="36.906430048369636" lon="-108.10771217897977"><ele>1859.0</ele><time>2026-03-29T15:41:43.999Z</time></trkpt><trkpt lat="36.906372485140366" lon="-108.1075964444823"><ele>1859.0</ele><time>2026-03-29T15:41:44.999Z</time></trkpt><trkpt lat="36.9063453186307" lon="-108.10747129094865"><ele>1859.0</ele><time>2026-03-29T15:41:45.999Z</time></trkpt><trkpt lat="36.90637446915591" lon="-108.1073241019108"><ele>1859.0</ele><time>2026-03-29T15:41:46.999Z</time></trkpt><trkpt lat="36.906404095352556" lon="-108.10713763092157"><ele>1859.3333333333333</ele><time>2026-03-29T15:41:47.999Z</time></trkpt><trkpt lat="36.906397258089534" lon="-108.10696571760306"><ele>1859.6666666666665</ele><time>2026-03-29T15:41:48.999Z</time></trkpt><trkpt lat="36.906381764394936" lon="-108.10677730363237"><ele>1860.0</ele><time>2026-03-29T15:41:49.999Z</time></trkpt><trkpt lat="36.90636399969099" lon="-108.10656287027555"><ele>1860.0</ele><time>2026-03-29T15:41:50.999Z</time></trkpt><trkpt lat="36.906341921514944" lon="-108.1063844117248"><ele>1860.0</ele><time>2026-03-29T15:41:51.999Z</time></trkpt><trkpt lat="36.906330461514884" lon="-108.1062466622611"><ele>1860.0</ele><time>2026-03-29T15:41:52.999Z</time></trkpt><trkpt lat="36.906330261928254" lon="-108.10608828608248"><ele>1860.0</ele><time>2026-03-29T15:41:53.999Z</time></trkpt><trkpt lat="36.90631624479203" lon="-108.10590582383513"><ele>1860.3333333333335</ele><time>2026-03-29T15:41:54.999Z</time></trkpt><trkpt lat="36.90631035052231" lon="-108.10564587554458"><ele>1860.6666666666667</ele><time>2026-03-29T15:41:55.999Z</time></trkpt><trkpt lat="36.9062932750274" lon="-108.10539902934535"><ele>1861.0</ele><time>2026-03-29T15:41:56.999Z</time></trkpt><trkpt lat="36.90627599298204" lon="-108.10516731076756"><ele>1861.0</ele><time>2026-03-29T15:41:57.999Z</time></trkpt><trkpt lat="36.906262115364015" lon="-108.10496126322067"><ele>1861.0</ele><time>2026-03-29T15:41:58.999Z</time></trkpt><trkpt lat="36.90626158254047" lon="-108.10475357556348"><ele>1861.0</ele><time>2026-03-29T15:41:59.999Z</time></trkpt><trkpt lat="36.906288099806794" lon="-108.10456108580362"><ele>1862.0</ele><time>2026-03-29T15:42:00.999Z</time></trkpt><trkpt lat="36.90629732653525" lon="-108.10435703143976"><ele>1863.0</ele><time>2026-03-29T15:42:01.999Z</time></trkpt><trkpt lat="36.906284770339404" lon="-108.10416235188055"><ele>1864.0</ele><time>2026-03-29T15:42:02.999Z</time></trkpt><trkpt lat="36.90629301316962" lon="-108.10402018667098"><ele>1865.0</ele><time>2026-03-29T15:42:03.999Z</time></trkpt><trkpt lat="36.90628869797516" lon="-108.1038762435161"><ele>1865.5</ele><time>2026-03-29T15:42:04.999Z</time></trkpt><trkpt lat="36.906263756717905" lon="-108.10373039749388"><ele>1866.0</ele><time>2026-03-29T15:42:05.999Z</time></trkpt><trkpt lat="36.90626280630951" lon="-108.10362264569437"><ele>1866.5</ele><time>2026-03-29T15:42:06.999Z</time></trkpt><trkpt lat="36.90628286989143" lon="-108.10345388024733"><ele>1867.0</ele><time>2026-03-29T15:42:08.999Z</time></trkpt><trkpt lat="36.906275311510846" lon="-108.10330772403859"><ele>1867.1666666666667</ele><time>2026-03-29T15:42:09.999Z</time></trkpt><trkpt lat="36.90626707486784" lon="-108.10318774953302"><ele>1867.3333333333335</ele><time>2026-03-29T15:42:10.999Z</time></trkpt><trkpt lat="36.906263215735926" lon="-108.10305857593502"><ele>1867.5</ele><time>2026-03-29T15:42:11.999Z</time></trkpt><trkpt lat="36.90626504219286" lon="-108.10293466174797"><ele>1867.6666666666665</ele><time>2026-03-29T15:42:12.999Z</time></trkpt><trkpt lat="36.9062074302335" lon="-108.1029003594666"><ele>1867.8333333333333</ele><time>2026-03-29T15:42:15.999Z</time></trkpt><trkpt lat="36.906222683599374" lon="-108.10298961403166"><ele>1868.0</ele><time>2026-03-29T15:42:22.999Z</time></trkpt><trkpt lat="36.90626177327019" lon="-108.10292682121784"><ele>1868.0</ele><time>2026-03-29T15:42:28.999Z</time></trkpt><trkpt lat="36.90629660590655" lon="-108.10284126669055"><ele>1868.0000000000002</ele><time>2026-03-29T15:42:30.999Z</time></trkpt><trkpt lat="36.90626442078455" lon="-108.10268971840613"><ele>1868.0000000000002</ele><time>2026-03-29T15:42:32.999Z</time></trkpt><trkpt lat="36.906245148366686" lon="-108.10258126032116"><ele>1868.0</ele><time>2026-03-29T15:42:33.999Z</time></trkpt><trkpt lat="36.90621731444355" lon="-108.10247192919728"><ele>1868.0</ele><time>2026-03-29T15:42:35.999Z</time></trkpt><trkpt lat="36.906233070249165" lon="-108.10256013128156"><ele>1867.9999999999998</ele><time>2026-03-29T15:42:42.999Z</time></trkpt><trkpt lat="36.90616017756904" lon="-108.10260163968134"><ele>1868.0</ele><time>2026-03-29T15:43:13Z</time></trkpt><trkpt lat="36.90617551498754" lon="-108.10269288488246"><ele>1868.0</ele><time>2026-03-29T15:43:21Z</time></trkpt><trkpt lat="36.90624689682196" lon="-108.10269352198455"><ele>1868.0</ele><time>2026-03-29T15:43:24Z</time></trkpt><trkpt lat="36.90623628168057" lon="-108.10259172995345"><ele>1867.9999999999998</ele><time>2026-03-29T15:43:26Z</time></trkpt><trkpt lat="36.90621094098602" lon="-108.10250803193311"><ele>1868.0</ele><time>2026-03-29T15:43:27Z</time></trkpt><trkpt lat="36.9061763107138" lon="-108.10234486174674"><ele>1868.4999999999998</ele><time>2026-03-29T15:43:29Z</time></trkpt><trkpt lat="36.90614447396793" lon="-108.10224933850068"><ele>1869.0</ele><time>2026-03-29T15:43:30Z</time></trkpt><trkpt lat="36.9061067094332" lon="-108.10218483108065"><ele>1869.5</ele><time>2026-03-29T15:43:31Z</time></trkpt><trkpt lat="36.90605855978777" lon="-108.10209717238457"><ele>1870.0</ele><time>2026-03-29T15:43:32Z</time></trkpt><trkpt lat="36.906011912053565" lon="-108.10202693802287"><ele>1870.4999999999998</ele><time>2026-03-29T15:43:33Z</time></trkpt><trkpt lat="36.905919052491" lon="-108.10200278063449"><ele>1871.0</ele><time>2026-03-29T15:43:35Z</time></trkpt><trkpt lat="36.90582219954132" lon="-108.10204206138265"><ele>1872.1999999999998</ele><time>2026-03-29T15:43:37Z</time></trkpt><trkpt lat="36.9057226517329" lon="-108.10193166569918"><ele>1873.3999999999999</ele><time>2026-03-29T15:43:39Z</time></trkpt><trkpt lat="36.905660400309095" lon="-108.1019008784129"><ele>1874.6</ele><time>2026-03-29T15:43:40Z</time></trkpt><trkpt lat="36.90559300706328" lon="-108.10192228108477"><ele>1875.8</ele><time>2026-03-29T15:43:41Z</time></trkpt><trkpt lat="36.90552260835075" lon="-108.1019430772854"><ele>1877.0</ele><time>2026-03-29T15:43:42Z</time></trkpt><trkpt lat="36.90540709787868" lon="-108.10195425828178"><ele>1877.0</ele><time>2026-03-29T15:43:43Z</time></trkpt><trkpt lat="36.90530365091536" lon="-108.10195788570894"><ele>1876.9999999999998</ele><time>2026-03-29T15:43:44Z</time></trkpt><trkpt lat="36.9051935226827" lon="-108.10197344536265"><ele>1876.9999999999998</ele><time>2026-03-29T15:43:45Z</time></trkpt><trkpt lat="36.90511132728634" lon="-108.10197880969461"><ele>1877.0</ele><time>2026-03-29T15:43:46Z</time></trkpt><trkpt lat="36.905042401303795" lon="-108.10196897222211"><ele>1877.0</ele><time>2026-03-29T15:43:47Z</time></trkpt><trkpt lat="36.90494824353852" lon="-108.10196794203246"><ele>1877.8</ele><time>2026-03-29T15:43:48Z</time></trkpt><trkpt lat="36.90484047336324" lon="-108.10196661114827"><ele>1878.6</ele><time>2026-03-29T15:43:49Z</time></trkpt><trkpt lat="36.904731025567415" lon="-108.10200934375919"><ele>1879.3999999999999</ele><time>2026-03-29T15:43:50Z</time></trkpt><trkpt lat="36.904619967780455" lon="-108.10208052431787"><ele>1880.1999999999998</ele><time>2026-03-29T15:43:51Z</time></trkpt><trkpt lat="36.90454269361307" lon="-108.10211866847172"><ele>1881.0</ele><time>2026-03-29T15:43:52Z</time></trkpt><trkpt lat="36.90447906163353" lon="-108.10211655090106"><ele>1881.0</ele><time>2026-03-29T15:43:53Z</time></trkpt><trkpt lat="36.90443807793277" lon="-108.10204626150505"><ele>1881.0</ele><time>2026-03-29T15:43:54Z</time></trkpt><trkpt lat="36.90434990237304" lon="-108.10191769836474"><ele>1881.0</ele><time>2026-03-29T15:43:56Z</time></trkpt><trkpt lat="36.904242798731644" lon="-108.10185819952898"><ele>1881.0</ele><time>2026-03-29T15:43:56.999Z</time></trkpt><trkpt lat="36.90414071647754" lon="-108.10180116076003"><ele>1881.0</ele><time>2026-03-29T15:43:57.999Z</time></trkpt><trkpt lat="36.904050836981526" lon="-108.10171924924329"><ele>1880.5</ele><time>2026-03-29T15:43:58.999Z</time></trkpt><trkpt lat="36.903932737418224" lon="-108.10165259471098"><ele>1880.0</ele><time>2026-03-29T15:43:59.999Z</time></trkpt><trkpt lat="36.90381581200019" lon="-108.10159513163053"><ele>1879.5</ele><time>2026-03-29T15:44:00.999Z</time></trkpt><trkpt lat="36.90370315959777" lon="-108.10153894033523"><ele>1879.0</ele><time>2026-03-29T15:44:01.999Z</time></trkpt><trkpt lat="36.903587713885905" lon="-108.1015286963366"><ele>1879.3333333333335</ele><time>2026-03-29T15:44:02.999Z</time></trkpt><trkpt lat="36.9034347534699" lon="-108.10156346991414"><ele>1879.6666666666665</ele><time>2026-03-29T15:44:03.999Z</time></trkpt><trkpt lat="36.90322890916014" lon="-108.10158802871047"><ele>1880.0</ele><time>2026-03-29T15:44:04.999Z</time></trkpt><trkpt lat="36.90306271548763" lon="-108.1016096781892"><ele>1880.0</ele><time>2026-03-29T15:44:05.999Z</time></trkpt><trkpt lat="36.90294016311742" lon="-108.1015974680459"><ele>1880.0</ele><time>2026-03-29T15:44:06.999Z</time></trkpt><trkpt lat="36.902855104705075" lon="-108.10156888910032"><ele>1880.0</ele><time>2026-03-29T15:44:07.999Z</time></trkpt><trkpt lat="36.902782189661885" lon="-108.10151994137154"><ele>1880.0</ele><time>2026-03-29T15:44:08.999Z</time></trkpt><trkpt lat="36.902767498601925" lon="-108.10133312513149"><ele>1880.0</ele><time>2026-03-29T15:44:10.999Z</time></trkpt><trkpt lat="36.90283697219862" lon="-108.10124239826602"><ele>1881.6</ele><time>2026-03-29T15:44:11.999Z</time></trkpt><trkpt lat="36.9029162146045" lon="-108.10116784303418"><ele>1883.2</ele><time>2026-03-29T15:44:12.999Z</time></trkpt><trkpt lat="36.903004612149445" lon="-108.10110742853445"><ele>1884.8000000000002</ele><time>2026-03-29T15:44:13.999Z</time></trkpt><trkpt lat="36.9031318106534" lon="-108.10106385947424"><ele>1886.4</ele><time>2026-03-29T15:44:14.999Z</time></trkpt><trkpt lat="36.90321046305371" lon="-108.10096068154259"><ele>1888.0</ele><time>2026-03-29T15:44:15.999Z</time></trkpt><trkpt lat="36.90327325048204" lon="-108.10091995557593"><ele>1888.0</ele><time>2026-03-29T15:44:16.999Z</time></trkpt><trkpt lat="36.90334838999009" lon="-108.1009195193765"><ele>1888.0000000000002</ele><time>2026-03-29T15:44:17.999Z</time></trkpt><trkpt lat="36.903471135240544" lon="-108.10095010156104"><ele>1888.0000000000002</ele><time>2026-03-29T15:44:18.999Z</time></trkpt><trkpt lat="36.9035734267193" lon="-108.10097524756547"><ele>1888.0</ele><time>2026-03-29T15:44:19.999Z</time></trkpt><trkpt lat="36.903647526323304" lon="-108.10103253118139"><ele>1888.0</ele><time>2026-03-29T15:44:20.999Z</time></trkpt><trkpt lat="36.903709429632016" lon="-108.10107488558393"><ele>1888.4</ele><time>2026-03-29T15:44:21.999Z</time></trkpt><trkpt lat="36.90388454503555" lon="-108.10106527676189"><ele>1888.8000000000002</ele><time>2026-03-29T15:44:23.999Z</time></trkpt><trkpt lat="36.90399165191495" lon="-108.10101732707365"><ele>1889.2</ele><time>2026-03-29T15:44:25.999Z</time></trkpt><trkpt lat="36.90403020062935" lon="-108.10095311640542"><ele>1889.6</ele><time>2026-03-29T15:44:26.999Z</time></trkpt><trkpt lat="36.9040794792711" lon="-108.10085483672006"><ele>1890.0</ele><time>2026-03-29T15:44:27.999Z</time></trkpt><trkpt lat="36.904125432943694" lon="-108.10073951714155"><ele>1890.4</ele><time>2026-03-29T15:44:28.999Z</time></trkpt><trkpt lat="36.904154446231864" lon="-108.10066942139525"><ele>1890.8</ele><time>2026-03-29T15:44:29.999Z</time></trkpt><trkpt lat="36.90414624586158" lon="-108.10057596843583"><ele>1891.1999999999998</ele><time>2026-03-29T15:44:30.999Z</time></trkpt><trkpt lat="36.9041379442422" lon="-108.1004380881811"><ele>1891.6</ele><time>2026-03-29T15:44:31.999Z</time></trkpt><trkpt lat="36.9041796946501" lon="-108.10032789124864"><ele>1892.0</ele><time>2026-03-29T15:44:32.999Z</time></trkpt><trkpt lat="36.904298787034485" lon="-108.10033498892179"><ele>1892.0</ele><time>2026-03-29T15:44:34.999Z</time></trkpt><trkpt lat="36.904403827693585" lon="-108.10024068405134"><ele>1891.9999999999998</ele><time>2026-03-29T15:44:36.999Z</time></trkpt><trkpt lat="36.904448967426376" lon="-108.10016028525904"><ele>1891.9999999999998</ele><time>2026-03-29T15:44:37.999Z</time></trkpt><trkpt lat="36.904471442995934" lon="-108.10006722428453"><ele>1892.0</ele><time>2026-03-29T15:44:38.999Z</time></trkpt><trkpt lat="36.90451294222409" lon="-108.0999700640525"><ele>1892.0</ele><time>2026-03-29T15:44:39.999Z</time></trkpt><trkpt lat="36.90457900634799" lon="-108.09986530240295"><ele>1892.6</ele><time>2026-03-29T15:44:40.999Z</time></trkpt><trkpt lat="36.904571179299985" lon="-108.09967410465495"><ele>1893.1999999999998</ele><time>2026-03-29T15:44:42.999Z</time></trkpt><trkpt lat="36.90458960519436" lon="-108.09957457171342"><ele>1893.8</ele><time>2026-03-29T15:44:43.999Z</time></trkpt><trkpt lat="36.90455770236293" lon="-108.09947040191678"><ele>1894.4</ele><time>2026-03-29T15:44:44.999Z</time></trkpt><trkpt lat="36.90453245630783" lon="-108.09936059623222"><ele>1895.0</ele><time>2026-03-29T15:44:45.999Z</time></trkpt><trkpt lat="36.90453463654814" lon="-108.0992587011397"><ele>1895.0</ele><time>2026-03-29T15:44:46.999Z</time></trkpt><trkpt lat="36.90453490856084" lon="-108.09916507314773"><ele>1895.0</ele><time>2026-03-29T15:44:47.999Z</time></trkpt><trkpt lat="36.90459424583979" lon="-108.09905765955394"><ele>1895.0</ele><time>2026-03-29T15:44:49.999Z</time></trkpt><trkpt lat="36.90470009022679" lon="-108.09904889770019"><ele>1895.0</ele><time>2026-03-29T15:44:50.999Z</time></trkpt><trkpt lat="36.904823196683495" lon="-108.09906302971007"><ele>1895.0</ele><time>2026-03-29T15:44:51.999Z</time></trkpt><trkpt lat="36.90493071149556" lon="-108.09900836014032"><ele>1895.0</ele><time>2026-03-29T15:44:52.999Z</time></trkpt><trkpt lat="36.90502675265547" lon="-108.09891713887382"><ele>1895.0</ele><time>2026-03-29T15:44:54Z</time></trkpt><trkpt lat="36.90511613711932" lon="-108.09884093340511"><ele>1895.0</ele><time>2026-03-29T15:44:55Z</time></trkpt><trkpt lat="36.90521625249878" lon="-108.09883177985449"><ele>1895.0</ele><time>2026-03-29T15:44:56Z</time></trkpt><trkpt lat="36.905344315614826" lon="-108.09885538119063"><ele>1894.4</ele><time>2026-03-29T15:44:57Z</time></trkpt><trkpt lat="36.90542675648856" lon="-108.09881364219248"><ele>1893.8</ele><time>2026-03-29T15:44:58Z</time></trkpt><trkpt lat="36.905453194758856" lon="-108.098691647281"><ele>1893.1999999999998</ele><time>2026-03-29T15:44:59Z</time></trkpt><trkpt lat="36.90549854644033" lon="-108.09857521106935"><ele>1892.6</ele><time>2026-03-29T15:45:00Z</time></trkpt><trkpt lat="36.905575259682394" lon="-108.09848975421632"><ele>1892.0</ele><time>2026-03-29T15:45:01Z</time></trkpt><trkpt lat="36.90567264030723" lon="-108.09844104306937"><ele>1892.0</ele><time>2026-03-29T15:45:02Z</time></trkpt><trkpt lat="36.90576877235099" lon="-108.09839758513773"><ele>1891.9999999999998</ele><time>2026-03-29T15:45:03Z</time></trkpt><trkpt lat="36.905861091650884" lon="-108.09835707155916"><ele>1891.9999999999998</ele><time>2026-03-29T15:45:04Z</time></trkpt><trkpt lat="36.905936703292554" lon="-108.09828078637416"><ele>1892.0</ele><time>2026-03-29T15:45:05Z</time></trkpt><trkpt lat="36.90598220497761" lon="-108.09819653801078"><ele>1892.0</ele><time>2026-03-29T15:45:06Z</time></trkpt><trkpt lat="36.90600098940577" lon="-108.09809762117939"><ele>1892.0</ele><time>2026-03-29T15:45:07Z</time></trkpt><trkpt lat="36.905982084772084" lon="-108.09799021323633"><ele>1891.9999999999998</ele><time>2026-03-29T15:45:08Z</time></trkpt><trkpt lat="36.90604474183939" lon="-108.09793338890607"><ele>1891.9999999999998</ele><time>2026-03-29T15:45:09Z</time></trkpt><trkpt lat="36.90613171851088" lon="-108.0978783295715"><ele>1892.0</ele><time>2026-03-29T15:45:10Z</time></trkpt><trkpt lat="36.906194787551" lon="-108.09777451292065"><ele>1892.0</ele><time>2026-03-29T15:45:11Z</time></trkpt><trkpt lat="36.90625771888565" lon="-108.09769790072168"><ele>1892.0</ele><time>2026-03-29T15:45:12Z</time></trkpt><trkpt lat="36.90635388534348" lon="-108.09769040697172"><ele>1891.9999999999998</ele><time>2026-03-29T15:45:13Z</time></trkpt><trkpt lat="36.90642753314476" lon="-108.09767449122268"><ele>1891.9999999999998</ele><time>2026-03-29T15:45:14Z</time></trkpt><trkpt lat="36.906520890112354" lon="-108.09762254385748"><ele>1892.0</ele><time>2026-03-29T15:45:15Z</time></trkpt><trkpt lat="36.90663389670821" lon="-108.09754084633974"><ele>1892.0</ele><time>2026-03-29T15:45:16Z</time></trkpt><trkpt lat="36.90674683395175" lon="-108.09747867886605"><ele>1892.0</ele><time>2026-03-29T15:45:17Z</time></trkpt><trkpt lat="36.90686874367706" lon="-108.09743928715164"><ele>1892.0</ele><time>2026-03-29T15:45:18Z</time></trkpt><trkpt lat="36.906979376360866" lon="-108.09740847183029"><ele>1892.0</ele><time>2026-03-29T15:45:19Z</time></trkpt><trkpt lat="36.90707761115354" lon="-108.09735948849442"><ele>1892.0</ele><time>2026-03-29T15:45:20Z</time></trkpt><trkpt lat="36.90717230215458" lon="-108.09728431027696"><ele>1893.75</ele><time>2026-03-29T15:45:21Z</time></trkpt><trkpt lat="36.907244271444334" lon="-108.09723141357848"><ele>1895.5</ele><time>2026-03-29T15:45:22Z</time></trkpt><trkpt lat="36.90739801329723" lon="-108.09727316409148"><ele>1897.25</ele><time>2026-03-29T15:45:24Z</time></trkpt><trkpt lat="36.907521507842524" lon="-108.09732812309551"><ele>1899.0</ele><time>2026-03-29T15:45:25Z</time></trkpt><trkpt lat="36.90761884815868" lon="-108.09732932141918"><ele>1899.75</ele><time>2026-03-29T15:45:26Z</time></trkpt><trkpt lat="36.90771141604776" lon="-108.0972422263174"><ele>1900.5</ele><time>2026-03-29T15:45:27Z</time></trkpt><trkpt lat="36.90779324958445" lon="-108.09712945895093"><ele>1901.25</ele><time>2026-03-29T15:45:28Z</time></trkpt><trkpt lat="36.90791903558038" lon="-108.09703896826352"><ele>1902.0</ele><time>2026-03-29T15:45:29Z</time></trkpt><trkpt lat="36.90807527719711" lon="-108.09693045880762"><ele>1902.0</ele><time>2026-03-29T15:45:30Z</time></trkpt><trkpt lat="36.90819558878761" lon="-108.09679759528622"><ele>1902.0</ele><time>2026-03-29T15:45:31Z</time></trkpt><trkpt lat="36.90828826376797" lon="-108.09670488461961"><ele>1902.0</ele><time>2026-03-29T15:45:32Z</time></trkpt><trkpt lat="36.90838102871486" lon="-108.09666989255504"><ele>1902.0</ele><time>2026-03-29T15:45:33Z</time></trkpt><trkpt lat="36.90847429827212" lon="-108.09662455688698"><ele>1904.8</ele><time>2026-03-29T15:45:34Z</time></trkpt><trkpt lat="36.90852770075678" lon="-108.0965207600043"><ele>1907.6</ele><time>2026-03-29T15:45:35Z</time></trkpt><trkpt lat="36.90858501286856" lon="-108.096438973909"><ele>1910.3999999999999</ele><time>2026-03-29T15:45:36Z</time></trkpt><trkpt lat="36.90869339390494" lon="-108.09638980004075"><ele>1913.1999999999998</ele><time>2026-03-29T15:45:37Z</time></trkpt><trkpt lat="36.90879194829805" lon="-108.09631977602018"><ele>1916.0</ele><time>2026-03-29T15:45:38Z</time></trkpt><trkpt lat="36.90885823825274" lon="-108.09626712910095"><ele>1916.0</ele><time>2026-03-29T15:45:39Z</time></trkpt><trkpt lat="36.9089795821787" lon="-108.0962082398829"><ele>1916.0</ele><time>2026-03-29T15:45:40Z</time></trkpt><trkpt lat="36.90910475519265" lon="-108.09615408463421"><ele>1916.0</ele><time>2026-03-29T15:45:41Z</time></trkpt><trkpt lat="36.90920654543592" lon="-108.09610688477504"><ele>1916.0</ele><time>2026-03-29T15:45:42Z</time></trkpt><trkpt lat="36.909291194676136" lon="-108.0960604669517"><ele>1916.3333333333333</ele><time>2026-03-29T15:45:43Z</time></trkpt><trkpt lat="36.90936336774527" lon="-108.09607353711212"><ele>1916.6666666666665</ele><time>2026-03-29T15:45:44Z</time></trkpt><trkpt lat="36.90943501024323" lon="-108.09605654713647"><ele>1917.0</ele><time>2026-03-29T15:45:45Z</time></trkpt><trkpt lat="36.909484839529156" lon="-108.09597626395983"><ele>1917.3333333333335</ele><time>2026-03-29T15:45:46Z</time></trkpt><trkpt lat="36.909546081170625" lon="-108.09588598623426"><ele>1917.6666666666667</ele><time>2026-03-29T15:45:47Z</time></trkpt><trkpt lat="36.90962037157183" lon="-108.09582309240197"><ele>1918.0</ele><time>2026-03-29T15:45:48Z</time></trkpt><trkpt lat="36.909704599671755" lon="-108.09571744438497"><ele>1918.4</ele><time>2026-03-29T15:45:49Z</time></trkpt><trkpt lat="36.909777488758365" lon="-108.0956113749785"><ele>1918.8000000000002</ele><time>2026-03-29T15:45:50Z</time></trkpt><trkpt lat="36.90986935087388" lon="-108.09553870514573"><ele>1919.2</ele><time>2026-03-29T15:45:51Z</time></trkpt><trkpt lat="36.909941473824816" lon="-108.09549372016686"><ele>1919.6</ele><time>2026-03-29T15:45:52Z</time></trkpt><trkpt lat="36.910056872246514" lon="-108.09553560339528"><ele>1920.0</ele><time>2026-03-29T15:45:54Z</time></trkpt><trkpt lat="36.91011627804761" lon="-108.09562493858266"><ele>1920.0</ele><time>2026-03-29T15:45:55Z</time></trkpt><trkpt lat="36.91021423320937" lon="-108.0957340629503"><ele>1920.0</ele><time>2026-03-29T15:45:56Z</time></trkpt><trkpt lat="36.91029918728169" lon="-108.09581520060647"><ele>1920.0</ele><time>2026-03-29T15:45:57Z</time></trkpt><trkpt lat="36.910379481501394" lon="-108.09587758799574"><ele>1920.0</ele><time>2026-03-29T15:45:58Z</time></trkpt><trkpt lat="36.91046066434285" lon="-108.0959073409831"><ele>1920.0</ele><time>2026-03-29T15:45:59Z</time></trkpt><trkpt lat="36.91057253911335" lon="-108.09591924083325"><ele>1920.1666666666667</ele><time>2026-03-29T15:46:00Z</time></trkpt><trkpt lat="36.91066490040964" lon="-108.09594584725365"><ele>1920.3333333333335</ele><time>2026-03-29T15:46:01Z</time></trkpt><trkpt lat="36.910764552730946" lon="-108.0959930228388"><ele>1920.5</ele><time>2026-03-29T15:46:02Z</time></trkpt><trkpt lat="36.91082775597101" lon="-108.09595691505965"><ele>1920.6666666666667</ele><time>2026-03-29T15:46:03Z</time></trkpt><trkpt lat="36.91089348514522" lon="-108.09591136034074"><ele>1920.8333333333335</ele><time>2026-03-29T15:46:04Z</time></trkpt><trkpt lat="36.91095818105761" lon="-108.09584217822447"><ele>1921.0</ele><time>2026-03-29T15:46:05Z</time></trkpt><trkpt lat="36.910992818213046" lon="-108.0957408300924"><ele>1920.5000000000002</ele><time>2026-03-29T15:46:06Z</time></trkpt><trkpt lat="36.91101216766731" lon="-108.09562911362435"><ele>1920.0</ele><time>2026-03-29T15:46:07Z</time></trkpt><trkpt lat="36.911053899743095" lon="-108.09555229362626"><ele>1919.5</ele><time>2026-03-29T15:46:08Z</time></trkpt><trkpt lat="36.91113031894118" lon="-108.09549033383037"><ele>1919.0</ele><time>2026-03-29T15:46:09Z</time></trkpt><trkpt lat="36.911160235366346" lon="-108.09540685702734"><ele>1918.5000000000002</ele><time>2026-03-29T15:46:10Z</time></trkpt><trkpt lat="36.91119603958735" lon="-108.09530161723504"><ele>1918.0</ele><time>2026-03-29T15:46:11Z</time></trkpt><trkpt lat="36.91126659393297" lon="-108.09520996747563"><ele>1918.0</ele><time>2026-03-29T15:46:12Z</time></trkpt><trkpt lat="36.91133235098779" lon="-108.0950946751519"><ele>1918.0</ele><time>2026-03-29T15:46:13Z</time></trkpt><trkpt lat="36.911387970892996" lon="-108.09497696815151"><ele>1918.0</ele><time>2026-03-29T15:46:14Z</time></trkpt><trkpt lat="36.911440723837345" lon="-108.09485578832548"><ele>1918.0</ele><time>2026-03-29T15:46:15Z</time></trkpt><trkpt lat="36.91151484606711" lon="-108.09473455373157"><ele>1918.4</ele><time>2026-03-29T15:46:16Z</time></trkpt><trkpt lat="36.91158864525457" lon="-108.09465200778583"><ele>1918.8000000000002</ele><time>2026-03-29T15:46:17Z</time></trkpt><trkpt lat="36.91167781263729" lon="-108.09458095531531"><ele>1919.2</ele><time>2026-03-29T15:46:17.999Z</time></trkpt><trkpt lat="36.91176061784205" lon="-108.09450637958844"><ele>1919.6</ele><time>2026-03-29T15:46:18.999Z</time></trkpt><trkpt lat="36.911862322025236" lon="-108.09444042673735"><ele>1920.0</ele><time>2026-03-29T15:46:19.999Z</time></trkpt><trkpt lat="36.91194022830275" lon="-108.09434702388215"><ele>1918.8</ele><time>2026-03-29T15:46:20.999Z</time></trkpt><trkpt lat="36.91200006335671" lon="-108.09428076823241"><ele>1917.6</ele><time>2026-03-29T15:46:21.999Z</time></trkpt><trkpt lat="36.91210145254364" lon="-108.0942485755033"><ele>1916.4</ele><time>2026-03-29T15:46:22.999Z</time></trkpt><trkpt lat="36.91222130098442" lon="-108.09421123180793"><ele>1915.2</ele><time>2026-03-29T15:46:23.999Z</time></trkpt><trkpt lat="36.91226079474064" lon="-108.0941366070121"><ele>1914.0</ele><time>2026-03-29T15:46:24.999Z</time></trkpt><trkpt lat="36.912265533162234" lon="-108.09401122072249"><ele>1914.0</ele><time>2026-03-29T15:46:25.999Z</time></trkpt><trkpt lat="36.91228741874278" lon="-108.09387584226802"><ele>1914.0</ele><time>2026-03-29T15:46:26.999Z</time></trkpt><trkpt lat="36.91231030997646" lon="-108.0937770337389"><ele>1914.0</ele><time>2026-03-29T15:46:27.999Z</time></trkpt><trkpt lat="36.91233399381258" lon="-108.09365652893666"><ele>1914.0</ele><time>2026-03-29T15:46:28.999Z</time></trkpt><trkpt lat="36.912327459999595" lon="-108.09351550160689"><ele>1914.0</ele><time>2026-03-29T15:46:29.999Z</time></trkpt><trkpt lat="36.91234482755875" lon="-108.09339317518486"><ele>1914.0</ele><time>2026-03-29T15:46:30.999Z</time></trkpt><trkpt lat="36.91234653254151" lon="-108.0932718780191"><ele>1914.0</ele><time>2026-03-29T15:46:31.999Z</time></trkpt><trkpt lat="36.91232896815197" lon="-108.09315819786758"><ele>1914.0</ele><time>2026-03-29T15:46:32.999Z</time></trkpt><trkpt lat="36.91232201763544" lon="-108.09303224385748"><ele>1914.0</ele><time>2026-03-29T15:46:33.999Z</time></trkpt><trkpt lat="36.9123235318864" lon="-108.09291853944534"><ele>1914.0</ele><time>2026-03-29T15:46:34.999Z</time></trkpt><trkpt lat="36.912318194466565" lon="-108.0928169300379"><ele>1914.0</ele><time>2026-03-29T15:46:35.999Z</time></trkpt><trkpt lat="36.912305170852584" lon="-108.09272184744981"><ele>1914.0</ele><time>2026-03-29T15:46:36.999Z</time></trkpt><trkpt lat="36.91230779083459" lon="-108.09261896908703"><ele>1914.0</ele><time>2026-03-29T15:46:37.999Z</time></trkpt><trkpt lat="36.91232135362429" lon="-108.0925072772728"><ele>1914.0</ele><time>2026-03-29T15:46:38.999Z</time></trkpt><trkpt lat="36.91232488623762" lon="-108.09239577442814"><ele>1914.0</ele><time>2026-03-29T15:46:39.999Z</time></trkpt><trkpt lat="36.91233315836936" lon="-108.09229659927463"><ele>1914.0</ele><time>2026-03-29T15:46:40.999Z</time></trkpt><trkpt lat="36.91237987054652" lon="-108.09220255696721"><ele>1914.6</ele><time>2026-03-29T15:46:41.999Z</time></trkpt><trkpt lat="36.91244101449729" lon="-108.09211830540207"><ele>1915.2</ele><time>2026-03-29T15:46:42.999Z</time></trkpt><trkpt lat="36.91247377908838" lon="-108.09201802957077"><ele>1915.7999999999997</ele><time>2026-03-29T15:46:43.999Z</time></trkpt><trkpt lat="36.91248374494929" lon="-108.09189021827733"><ele>1916.3999999999999</ele><time>2026-03-29T15:46:44.999Z</time></trkpt><trkpt lat="36.91250408682456" lon="-108.09174710454027"><ele>1917.0</ele><time>2026-03-29T15:46:45.999Z</time></trkpt><trkpt lat="36.912507999088334" lon="-108.09159725970791"><ele>1917.1999999999998</ele><time>2026-03-29T15:46:46.999Z</time></trkpt><trkpt lat="36.912510518092105" lon="-108.09147888834626"><ele>1917.3999999999999</ele><time>2026-03-29T15:46:47.999Z</time></trkpt><trkpt lat="36.91253971463597" lon="-108.09134714598694"><ele>1917.6000000000001</ele><time>2026-03-29T15:46:48.999Z</time></trkpt><trkpt lat="36.91258086450891" lon="-108.09122652821883"><ele>1917.8000000000002</ele><time>2026-03-29T15:46:49.999Z</time></trkpt><trkpt lat="36.912618862020764" lon="-108.0910963187981"><ele>1918.0</ele><time>2026-03-29T15:46:50.999Z</time></trkpt><trkpt lat="36.91264402855362" lon="-108.09097595069174"><ele>1917.6000000000001</ele><time>2026-03-29T15:46:51.999Z</time></trkpt><trkpt lat="36.9126826034274" lon="-108.0908581689939"><ele>1917.2000000000003</ele><time>2026-03-29T15:46:52.999Z</time></trkpt><trkpt lat="36.912721986635106" lon="-108.0907535568334"><ele>1916.8</ele><time>2026-03-29T15:46:53.999Z</time></trkpt><trkpt lat="36.91271200502704" lon="-108.09062170593853"><ele>1916.4</ele><time>2026-03-29T15:46:54.999Z</time></trkpt><trkpt lat="36.9126995078214" lon="-108.09050083907331"><ele>1916.0</ele><time>2026-03-29T15:46:55.999Z</time></trkpt><trkpt lat="36.9127054329566" lon="-108.09039424676395"><ele>1916.0</ele><time>2026-03-29T15:46:56.999Z</time></trkpt><trkpt lat="36.91271706093477" lon="-108.09027222572875"><ele>1916.0</ele><time>2026-03-29T15:46:57.999Z</time></trkpt><trkpt lat="36.912703509777074" lon="-108.09019256715928"><ele>1916.0</ele><time>2026-03-29T15:46:58.999Z</time></trkpt><trkpt lat="36.91265256594166" lon="-108.09012896617155"><ele>1916.0</ele><time>2026-03-29T15:47:01Z</time></trkpt><trkpt lat="36.91252535432371" lon="-108.09000957679972"><ele>1916.0</ele><time>2026-03-29T15:47:03Z</time></trkpt><trkpt lat="36.912430901426596" lon="-108.08991520359604"><ele>1916.4</ele><time>2026-03-29T15:47:04Z</time></trkpt><trkpt lat="36.912371843862196" lon="-108.08985808780503"><ele>1916.8</ele><time>2026-03-29T15:47:05Z</time></trkpt><trkpt lat="36.91228856487472" lon="-108.08983632380676"><ele>1917.2000000000003</ele><time>2026-03-29T15:47:06Z</time></trkpt><trkpt lat="36.91219652495165" lon="-108.08974077411375"><ele>1917.6000000000001</ele><time>2026-03-29T15:47:07Z</time></trkpt><trkpt lat="36.912102643764676" lon="-108.08963224458813"><ele>1918.0</ele><time>2026-03-29T15:47:08Z</time></trkpt><trkpt lat="36.911966049074906" lon="-108.08955204471332"><ele>1918.0</ele><time>2026-03-29T15:47:09Z</time></trkpt><trkpt lat="36.91184091031051" lon="-108.08949596757587"><ele>1918.0000000000002</ele><time>2026-03-29T15:47:10Z</time></trkpt><trkpt lat="36.911732543316226" lon="-108.08944690245703"><ele>1918.0000000000002</ele><time>2026-03-29T15:47:11Z</time></trkpt><trkpt lat="36.911673676630734" lon="-108.0893819372875"><ele>1918.0</ele><time>2026-03-29T15:47:12Z</time></trkpt><trkpt lat="36.911620520047336" lon="-108.08928624227522"><ele>1918.0</ele><time>2026-03-29T15:47:13Z</time></trkpt><trkpt lat="36.91152273925102" lon="-108.08917793198952"><ele>1917.6000000000001</ele><time>2026-03-29T15:47:14Z</time></trkpt><trkpt lat="36.91143529329279" lon="-108.08912228725323"><ele>1917.2000000000003</ele><time>2026-03-29T15:47:15Z</time></trkpt><trkpt lat="36.91133151549811" lon="-108.08905442238955"><ele>1916.8</ele><time>2026-03-29T15:47:16Z</time></trkpt><trkpt lat="36.91123807045239" lon="-108.08901992025582"><ele>1916.4</ele><time>2026-03-29T15:47:17Z</time></trkpt><trkpt lat="36.91116153735547" lon="-108.08897693056751"><ele>1916.0</ele><time>2026-03-29T15:47:18Z</time></trkpt><trkpt lat="36.91110433631794" lon="-108.08888717917151"><ele>1915.0</ele><time>2026-03-29T15:47:19Z</time></trkpt><trkpt lat="36.91106243767146" lon="-108.08881787121281"><ele>1914.0</ele><time>2026-03-29T15:47:20Z</time></trkpt><trkpt lat="36.911085447530176" lon="-108.08871984884203"><ele>1913.0</ele><time>2026-03-29T15:47:21Z</time></trkpt><trkpt lat="36.91110167600104" lon="-108.08859390864339"><ele>1912.0</ele><time>2026-03-29T15:47:22Z</time></trkpt><trkpt lat="36.91108608056791" lon="-108.08845958110398"><ele>1911.0</ele><time>2026-03-29T15:47:23Z</time></trkpt><trkpt lat="36.91105717590604" lon="-108.08831830090008"><ele>1910.0</ele><time>2026-03-29T15:47:24Z</time></trkpt><trkpt lat="36.91102268752012" lon="-108.0882055300816"><ele>1909.0</ele><time>2026-03-29T15:47:25Z</time></trkpt><trkpt lat="36.910978276660806" lon="-108.0880798461919"><ele>1908.0</ele><time>2026-03-29T15:47:26Z</time></trkpt><trkpt lat="36.910930447959494" lon="-108.08796977810265"><ele>1907.0</ele><time>2026-03-29T15:47:27Z</time></trkpt><trkpt lat="36.91088563900905" lon="-108.08789993630411"><ele>1906.0</ele><time>2026-03-29T15:47:28Z</time></trkpt><trkpt lat="36.91081293712457" lon="-108.08785633790392"><ele>1905.6</ele><time>2026-03-29T15:47:29Z</time></trkpt><trkpt lat="36.910718703292815" lon="-108.08779576728854"><ele>1905.1999999999998</ele><time>2026-03-29T15:47:30Z</time></trkpt><trkpt lat="36.910657463495866" lon="-108.0877142434078"><ele>1904.8000000000002</ele><time>2026-03-29T15:47:31Z</time></trkpt><trkpt lat="36.91062931917885" lon="-108.08762078984329"><ele>1904.4</ele><time>2026-03-29T15:47:32Z</time></trkpt><trkpt lat="36.91057658006272" lon="-108.08753628327001"><ele>1904.0</ele><time>2026-03-29T15:47:33Z</time></trkpt><trkpt lat="36.91053524107808" lon="-108.08738056763126"><ele>1902.8000000000002</ele><time>2026-03-29T15:47:35Z</time></trkpt><trkpt lat="36.91050301168116" lon="-108.08724825791045"><ele>1901.6000000000001</ele><time>2026-03-29T15:47:36Z</time></trkpt><trkpt lat="36.910443450445804" lon="-108.08709293426209"><ele>1900.4</ele><time>2026-03-29T15:47:37Z</time></trkpt><trkpt lat="36.91039253546512" lon="-108.08700893815283"><ele>1899.2</ele><time>2026-03-29T15:47:38Z</time></trkpt><trkpt lat="36.91032908832617" lon="-108.08690822915055"><ele>1898.0</ele><time>2026-03-29T15:47:39Z</time></trkpt><trkpt lat="36.91025910146606" lon="-108.08684328603042"><ele>1898.0</ele><time>2026-03-29T15:47:40Z</time></trkpt><trkpt lat="36.91013419396787" lon="-108.08683547505763"><ele>1898.0</ele><time>2026-03-29T15:47:41Z</time></trkpt><trkpt lat="36.90998192569004" lon="-108.08688234733482"><ele>1898.0</ele><time>2026-03-29T15:47:42Z</time></trkpt><trkpt lat="36.90983314018698" lon="-108.0869130791134"><ele>1898.0</ele><time>2026-03-29T15:47:43Z</time></trkpt><trkpt lat="36.90969712497146" lon="-108.08690397057902"><ele>1897.2</ele><time>2026-03-29T15:47:44Z</time></trkpt><trkpt lat="36.90959545413153" lon="-108.08689018765412"><ele>1896.4</ele><time>2026-03-29T15:47:45Z</time></trkpt><trkpt lat="36.909497404944176" lon="-108.08689215558073"><ele>1895.6000000000001</ele><time>2026-03-29T15:47:46Z</time></trkpt><trkpt lat="36.909386637047476" lon="-108.08686466686777"><ele>1894.8000000000002</ele><time>2026-03-29T15:47:47Z</time></trkpt><trkpt lat="36.90928074011586" lon="-108.08678738673657"><ele>1894.0</ele><time>2026-03-29T15:47:48Z</time></trkpt><trkpt lat="36.9091885147955" lon="-108.08673372308606"><ele>1892.4</ele><time>2026-03-29T15:47:49Z</time></trkpt><trkpt lat="36.90910295306971" lon="-108.08672767941496"><ele>1890.8000000000002</ele><time>2026-03-29T15:47:50Z</time></trkpt><trkpt lat="36.90903966484816" lon="-108.08672300260531"><ele>1889.1999999999998</ele><time>2026-03-29T15:47:51Z</time></trkpt><trkpt lat="36.90896340738764" lon="-108.08665855263115"><ele>1887.6</ele><time>2026-03-29T15:47:52Z</time></trkpt><trkpt lat="36.90886086762749" lon="-108.08661144356778"><ele>1886.0</ele><time>2026-03-29T15:47:53Z</time></trkpt><trkpt lat="36.908744282951325" lon="-108.08663133410911"><ele>1885.9999999999998</ele><time>2026-03-29T15:47:54Z</time></trkpt><trkpt lat="36.90865216569014" lon="-108.08661232471911"><ele>1886.0</ele><time>2026-03-29T15:47:55Z</time></trkpt><trkpt lat="36.908587641101" lon="-108.08659425120753"><ele>1886.0</ele><time>2026-03-29T15:47:56Z</time></trkpt><trkpt lat="36.908526833513115" lon="-108.08652478627782"><ele>1886.0</ele><time>2026-03-29T15:47:57Z</time></trkpt><trkpt lat="36.90844315286084" lon="-108.08656006074504"><ele>1885.9999999999998</ele><time>2026-03-29T15:47:58Z</time></trkpt><trkpt lat="36.908334022940274" lon="-108.08660487400584"><ele>1886.0</ele><time>2026-03-29T15:47:59Z</time></trkpt><trkpt lat="36.908261077890344" lon="-108.08657682417306"><ele>1884.8</ele><time>2026-03-29T15:48:00Z</time></trkpt><trkpt lat="36.90824606226167" lon="-108.08647932422137"><ele>1883.6</ele><time>2026-03-29T15:48:01Z</time></trkpt><trkpt lat="36.90820723231467" lon="-108.08635233874188"><ele>1882.4</ele><time>2026-03-29T15:48:02Z</time></trkpt><trkpt lat="36.90812959652561" lon="-108.086201295245"><ele>1881.2</ele><time>2026-03-29T15:48:03Z</time></trkpt><trkpt lat="36.90804881918048" lon="-108.08609659313393"><ele>1880.0</ele><time>2026-03-29T15:48:04Z</time></trkpt><trkpt lat="36.90793415120558" lon="-108.08603035644852"><ele>1880.0</ele><time>2026-03-29T15:48:05Z</time></trkpt><trkpt lat="36.90780789009337" lon="-108.0859496469168"><ele>1880.0</ele><time>2026-03-29T15:48:06Z</time></trkpt><trkpt lat="36.90768904695627" lon="-108.08582385611315"><ele>1880.0</ele><time>2026-03-29T15:48:07Z</time></trkpt><trkpt lat="36.90760371362865" lon="-108.0857181147092"><ele>1880.0</ele><time>2026-03-29T15:48:08Z</time></trkpt><trkpt lat="36.907517813322094" lon="-108.08563123222535"><ele>1879.5</ele><time>2026-03-29T15:48:09Z</time></trkpt><trkpt lat="36.907412349871805" lon="-108.08555378899672"><ele>1879.0</ele><time>2026-03-29T15:48:10Z</time></trkpt><trkpt lat="36.90729924687456" lon="-108.08552802391448"><ele>1878.5</ele><time>2026-03-29T15:48:11Z</time></trkpt><trkpt lat="36.90717577909803" lon="-108.08557362934296"><ele>1878.0</ele><time>2026-03-29T15:48:12Z</time></trkpt><trkpt lat="36.90702527322939" lon="-108.08561322600754"><ele>1878.0</ele><time>2026-03-29T15:48:13Z</time></trkpt><trkpt lat="36.90688228330415" lon="-108.08560924463919"><ele>1878.0000000000002</ele><time>2026-03-29T15:48:14Z</time></trkpt><trkpt lat="36.90677839815085" lon="-108.08559491297451"><ele>1878.0000000000002</ele><time>2026-03-29T15:48:15Z</time></trkpt><trkpt lat="36.90668956897422" lon="-108.085581848362"><ele>1878.0</ele><time>2026-03-29T15:48:16Z</time></trkpt><trkpt lat="36.90658716837545" lon="-108.0855704639498"><ele>1878.0</ele><time>2026-03-29T15:48:17Z</time></trkpt><trkpt lat="36.906489733816294" lon="-108.08554463950988"><ele>1877.6000000000001</ele><time>2026-03-29T15:48:18Z</time></trkpt><trkpt lat="36.90642649248067" lon="-108.08541832798329"><ele>1877.2000000000003</ele><time>2026-03-29T15:48:20Z</time></trkpt><trkpt lat="36.90636906823534" lon="-108.08533745239018"><ele>1876.8</ele><time>2026-03-29T15:48:22Z</time></trkpt><trkpt lat="36.906301671694976" lon="-108.0853683253424"><ele>1876.4</ele><time>2026-03-29T15:48:23Z</time></trkpt><trkpt lat="36.90623802182096" lon="-108.08541149788604"><ele>1876.0</ele><time>2026-03-29T15:48:24Z</time></trkpt><trkpt lat="36.906143299874586" lon="-108.08549469955095"><ele>1876.0</ele><time>2026-03-29T15:48:26Z</time></trkpt><trkpt lat="36.9060664742917" lon="-108.08554202361753"><ele>1876.0</ele><time>2026-03-29T15:48:27Z</time></trkpt><trkpt lat="36.905988325701564" lon="-108.08557835211248"><ele>1876.0</ele><time>2026-03-29T15:48:28Z</time></trkpt><trkpt lat="36.90588629599989" lon="-108.08562146787605"><ele>1876.0</ele><time>2026-03-29T15:48:29Z</time></trkpt><trkpt lat="36.90579535154875" lon="-108.08571608791082"><ele>1876.0</ele><time>2026-03-29T15:48:30Z</time></trkpt><trkpt lat="36.90572349359256" lon="-108.0858548145032"><ele>1875.5</ele><time>2026-03-29T15:48:31Z</time></trkpt><trkpt lat="36.905655309739686" lon="-108.08600183883263"><ele>1875.0</ele><time>2026-03-29T15:48:32Z</time></trkpt><trkpt lat="36.90556089783802" lon="-108.08611458020962"><ele>1874.5</ele><time>2026-03-29T15:48:33Z</time></trkpt><trkpt lat="36.90544206300986" lon="-108.08617231634037"><ele>1874.0</ele><time>2026-03-29T15:48:34Z</time></trkpt><trkpt lat="36.90531099447896" lon="-108.08619720585774"><ele>1874.0</ele><time>2026-03-29T15:48:35Z</time></trkpt><trkpt lat="36.90519327389584" lon="-108.08622177819598"><ele>1874.0</ele><time>2026-03-29T15:48:35.999Z</time></trkpt><trkpt lat="36.90509723076573" lon="-108.08628051609121"><ele>1874.0</ele><time>2026-03-29T15:48:36.999Z</time></trkpt><trkpt lat="36.90501786673829" lon="-108.08637432252166"><ele>1874.0</ele><time>2026-03-29T15:48:37.999Z</time></trkpt><trkpt lat="36.90495612789836" lon="-108.08648285990289"><ele>1874.0</ele><time>2026-03-29T15:48:38.999Z</time></trkpt><trkpt lat="36.904945645025386" lon="-108.08657856079863"><ele>1874.0</ele><time>2026-03-29T15:48:39.999Z</time></trkpt><trkpt lat="36.904887275744706" lon="-108.08670333461197"><ele>1874.0</ele><time>2026-03-29T15:48:40.999Z</time></trkpt><trkpt lat="36.90477965198384" lon="-108.08680807759363"><ele>1874.0</ele><time>2026-03-29T15:48:41.999Z</time></trkpt><trkpt lat="36.90466985209243" lon="-108.08692063996136"><ele>1874.0</ele><time>2026-03-29T15:48:42.999Z</time></trkpt><trkpt lat="36.90456879602178" lon="-108.08705214375"><ele>1874.0</ele><time>2026-03-29T15:48:43.999Z</time></trkpt><trkpt lat="36.90446110365541" lon="-108.0872160509631"><ele>1874.0</ele><time>2026-03-29T15:48:44.999Z</time></trkpt><trkpt lat="36.90436084536053" lon="-108.08741017660742"><ele>1874.0</ele><time>2026-03-29T15:48:45.999Z</time></trkpt><trkpt lat="36.904266681906044" lon="-108.08760509228148"><ele>1874.0</ele><time>2026-03-29T15:48:46.999Z</time></trkpt><trkpt lat="36.90417199878973" lon="-108.08776966914695"><ele>1874.0</ele><time>2026-03-29T15:48:47.999Z</time></trkpt><trkpt lat="36.904073981932804" lon="-108.08790048965518"><ele>1874.0</ele><time>2026-03-29T15:48:48.999Z</time></trkpt><trkpt lat="36.90395319064099" lon="-108.0880324213724"><ele>1874.0</ele><time>2026-03-29T15:48:49.999Z</time></trkpt><trkpt lat="36.90380039960877" lon="-108.08818351024503"><ele>1874.0</ele><time>2026-03-29T15:48:50.999Z</time></trkpt><trkpt lat="36.903707740604816" lon="-108.08832170253955"><ele>1874.0</ele><time>2026-03-29T15:48:51.999Z</time></trkpt><trkpt lat="36.90364969319616" lon="-108.0884584585221"><ele>1873.25</ele><time>2026-03-29T15:48:52.999Z</time></trkpt><trkpt lat="36.90358988947861" lon="-108.08858012241697"><ele>1872.5</ele><time>2026-03-29T15:48:53.999Z</time></trkpt><trkpt lat="36.903536936483746" lon="-108.0886593491214"><ele>1871.75</ele><time>2026-03-29T15:48:54.999Z</time></trkpt><trkpt lat="36.903393766058905" lon="-108.08868776106532"><ele>1871.0</ele><time>2026-03-29T15:48:56.999Z</time></trkpt><trkpt lat="36.90328377888057" lon="-108.08870538817403"><ele>1870.75</ele><time>2026-03-29T15:48:57.999Z</time></trkpt><trkpt lat="36.90318559900257" lon="-108.08876261789251"><ele>1870.5</ele><time>2026-03-29T15:48:58.999Z</time></trkpt><trkpt lat="36.90311633390066" lon="-108.08888657554554"><ele>1870.25</ele><time>2026-03-29T15:48:59.999Z</time></trkpt><trkpt lat="36.90303756567165" lon="-108.08902056508501"><ele>1870.0</ele><time>2026-03-29T15:49:00.999Z</time></trkpt><trkpt lat="36.902959083085385" lon="-108.08913268615707"><ele>1869.6666666666667</ele><time>2026-03-29T15:49:01.999Z</time></trkpt><trkpt lat="36.90289284811265" lon="-108.08922138157628"><ele>1869.3333333333335</ele><time>2026-03-29T15:49:02.999Z</time></trkpt><trkpt lat="36.90287935388493" lon="-108.08931215015629"><ele>1869.0</ele><time>2026-03-29T15:49:03.999Z</time></trkpt><trkpt lat="36.90297007639296" lon="-108.08937450686597"><ele>1868.6666666666665</ele><time>2026-03-29T15:49:06Z</time></trkpt><trkpt lat="36.90303449050962" lon="-108.08936820605662"><ele>1868.3333333333333</ele><time>2026-03-29T15:49:07Z</time></trkpt><trkpt lat="36.903106611009484" lon="-108.08931480606783"><ele>1868.0</ele><time>2026-03-29T15:49:08Z</time></trkpt><trkpt lat="36.90317323037508" lon="-108.08924047568537"><ele>1868.0</ele><time>2026-03-29T15:49:09Z</time></trkpt><trkpt lat="36.90323786725985" lon="-108.08921911091453"><ele>1868.0000000000002</ele><time>2026-03-29T15:49:11Z</time></trkpt><trkpt lat="36.9032287814492" lon="-108.08931300058723"><ele>1868.0000000000002</ele><time>2026-03-29T15:49:14Z</time></trkpt><trkpt lat="36.90318710127184" lon="-108.0894121330219"><ele>1868.0</ele><time>2026-03-29T15:49:16Z</time></trkpt><trkpt lat="36.90311869540621" lon="-108.08954149424433"><ele>1868.0</ele><time>2026-03-29T15:49:17Z</time></trkpt><trkpt lat="36.9030546957821" lon="-108.08967388688069"><ele>1868.0</ele><time>2026-03-29T15:49:18Z</time></trkpt><trkpt lat="36.90299491878948" lon="-108.08980568009693"><ele>1868.0</ele><time>2026-03-29T15:49:19Z</time></trkpt><trkpt lat="36.90292765184319" lon="-108.08990333095775"><ele>1868.0</ele><time>2026-03-29T15:49:20Z</time></trkpt><trkpt lat="36.90283555314984" lon="-108.08994982904544"><ele>1868.0</ele><time>2026-03-29T15:49:21Z</time></trkpt><trkpt lat="36.90270412128741" lon="-108.089971711793"><ele>1867.8000000000002</ele><time>2026-03-29T15:49:22Z</time></trkpt><trkpt lat="36.9025660284197" lon="-108.08996554479816"><ele>1867.6000000000001</ele><time>2026-03-29T15:49:23Z</time></trkpt><trkpt lat="36.90245687298356" lon="-108.08998322145293"><ele>1867.3999999999999</ele><time>2026-03-29T15:49:24Z</time></trkpt><trkpt lat="36.90238408465016" lon="-108.09004154441845"><ele>1867.1999999999998</ele><time>2026-03-29T15:49:25Z</time></trkpt><trkpt lat="36.902331082990514" lon="-108.09015303443425"><ele>1867.0</ele><time>2026-03-29T15:49:26Z</time></trkpt><trkpt lat="36.90227348882081" lon="-108.09030471563577"><ele>1867.0</ele><time>2026-03-29T15:49:27Z</time></trkpt><trkpt lat="36.902218826927964" lon="-108.09044429846868"><ele>1867.0</ele><time>2026-03-29T15:49:28Z</time></trkpt><trkpt lat="36.90216369535021" lon="-108.09060049787152"><ele>1867.0</ele><time>2026-03-29T15:49:29Z</time></trkpt><trkpt lat="36.90209687662563" lon="-108.09079943284527"><ele>1867.0</ele><time>2026-03-29T15:49:30Z</time></trkpt><trkpt lat="36.902059624680746" lon="-108.09098122220274"><ele>1867.0</ele><time>2026-03-29T15:49:31Z</time></trkpt><trkpt lat="36.90201243033544" lon="-108.09113023064495"><ele>1866.9999999999998</ele><time>2026-03-29T15:49:32Z</time></trkpt><trkpt lat="36.90195256427688" lon="-108.09122057274782"><ele>1866.9999999999998</ele><time>2026-03-29T15:49:33Z</time></trkpt><trkpt lat="36.90189096211333" lon="-108.09131766670212"><ele>1867.0</ele><time>2026-03-29T15:49:34Z</time></trkpt><trkpt lat="36.90180304045802" lon="-108.09137897361744"><ele>1867.0</ele><time>2026-03-29T15:49:35Z</time></trkpt><trkpt lat="36.90168655723738" lon="-108.09140019448645"><ele>1867.0</ele><time>2026-03-29T15:49:36Z</time></trkpt><trkpt lat="36.901595479947474" lon="-108.09138231342133"><ele>1866.9999999999998</ele><time>2026-03-29T15:49:37Z</time></trkpt><trkpt lat="36.90149061768969" lon="-108.0914031777084"><ele>1866.9999999999998</ele><time>2026-03-29T15:49:38Z</time></trkpt><trkpt lat="36.90143067732587" lon="-108.09146622370109"><ele>1867.0</ele><time>2026-03-29T15:49:39Z</time></trkpt><trkpt lat="36.90145869211838" lon="-108.09157841037275"><ele>1867.0</ele><time>2026-03-29T15:49:41Z</time></trkpt><trkpt lat="36.90153366086936" lon="-108.09166964191866"><ele>1867.0</ele><time>2026-03-29T15:49:43Z</time></trkpt><trkpt lat="36.901642648516244" lon="-108.09170709782579"><ele>1866.9999999999998</ele><time>2026-03-29T15:49:44Z</time></trkpt><trkpt lat="36.90172917508985" lon="-108.0917236341932"><ele>1866.9999999999998</ele><time>2026-03-29T15:49:45Z</time></trkpt><trkpt lat="36.90181536746517" lon="-108.09172145363318"><ele>1867.0</ele><time>2026-03-29T15:49:46Z</time></trkpt><trkpt lat="36.90183363542585" lon="-108.09184240583625"><ele>1867.0</ele><time>2026-03-29T15:49:48Z</time></trkpt><trkpt lat="36.90180153334059" lon="-108.0919275687876"><ele>1867.0</ele><time>2026-03-29T15:49:49Z</time></trkpt><trkpt lat="36.90173389904583" lon="-108.09200527517808"><ele>1866.9999999999998</ele><time>2026-03-29T15:49:50Z</time></trkpt><trkpt lat="36.90163864176068" lon="-108.09205732028487"><ele>1866.9999999999998</ele><time>2026-03-29T15:49:51Z</time></trkpt><trkpt lat="36.9015307897985" lon="-108.09208554773338"><ele>1867.0</ele><time>2026-03-29T15:49:52Z</time></trkpt><trkpt lat="36.901435419860626" lon="-108.09207385988962"><ele>1867.0</ele><time>2026-03-29T15:49:53Z</time></trkpt><trkpt lat="36.901335770084344" lon="-108.09210753386745"><ele>1867.0000000000002</ele><time>2026-03-29T15:49:54Z</time></trkpt><trkpt lat="36.901218399293214" lon="-108.0921859712039"><ele>1867.0</ele><time>2026-03-29T15:49:55Z</time></trkpt><trkpt lat="36.90112157798707" lon="-108.09221296192315"><ele>1867.0</ele><time>2026-03-29T15:49:56Z</time></trkpt><trkpt lat="36.90104483591433" lon="-108.0922254429818"><ele>1867.0</ele><time>2026-03-29T15:49:57Z</time></trkpt><trkpt lat="36.90099200231507" lon="-108.0922730174218"><ele>1867.0000000000002</ele><time>2026-03-29T15:49:58Z</time></trkpt><trkpt lat="36.90095060260476" lon="-108.09233766324267"><ele>1867.0</ele><time>2026-03-29T15:50:00Z</time></trkpt><trkpt lat="36.90089982732789" lon="-108.0924706259915"><ele>1866.1999999999998</ele><time>2026-03-29T15:50:02Z</time></trkpt><trkpt lat="36.90087840399936" lon="-108.092652544554"><ele>1865.3999999999999</ele><time>2026-03-29T15:50:05Z</time></trkpt><trkpt lat="36.90089092851104" lon="-108.09280195040164"><ele>1864.6000000000001</ele><time>2026-03-29T15:50:07Z</time></trkpt><trkpt lat="36.90086617946149" lon="-108.09288674126317"><ele>1863.8000000000002</ele><time>2026-03-29T15:50:08Z</time></trkpt><trkpt lat="36.90085297877049" lon="-108.09297590806206"><ele>1863.0</ele><time>2026-03-29T15:50:09Z</time></trkpt><trkpt lat="36.90079181253436" lon="-108.09305665126637"><ele>1863.0</ele><time>2026-03-29T15:50:10Z</time></trkpt><trkpt lat="36.900748398855754" lon="-108.0931260196105"><ele>1863.0000000000002</ele><time>2026-03-29T15:50:11Z</time></trkpt><trkpt lat="36.900687970299394" lon="-108.09320089052613"><ele>1863.0000000000002</ele><time>2026-03-29T15:50:12Z</time></trkpt><trkpt lat="36.900582377167" lon="-108.09330274212996"><ele>1863.0</ele><time>2026-03-29T15:50:13Z</time></trkpt><trkpt lat="36.90048573752298" lon="-108.0934085042281"><ele>1863.0</ele><time>2026-03-29T15:50:14Z</time></trkpt><trkpt lat="36.900395420963555" lon="-108.09350584518685"><ele>1862.8000000000002</ele><time>2026-03-29T15:50:15Z</time></trkpt><trkpt lat="36.900314707491454" lon="-108.09360598372315"><ele>1862.6000000000001</ele><time>2026-03-29T15:50:16Z</time></trkpt><trkpt lat="36.900223368718756" lon="-108.09370603162407"><ele>1862.3999999999999</ele><time>2026-03-29T15:50:17Z</time></trkpt><trkpt lat="36.900178655615385" lon="-108.09379722344812"><ele>1862.1999999999998</ele><time>2026-03-29T15:50:18Z</time></trkpt><trkpt lat="36.900162904290056" lon="-108.09389823259288"><ele>1862.0</ele><time>2026-03-29T15:50:20Z</time></trkpt><trkpt lat="36.90023387241511" lon="-108.09397899459027"><ele>1861.6666666666665</ele><time>2026-03-29T15:50:21Z</time></trkpt><trkpt lat="36.900498961222326" lon="-108.09409876646586"><ele>1861.3333333333335</ele><time>2026-03-29T15:50:23Z</time></trkpt><trkpt lat="36.90042604963903" lon="-108.09421215097784"><ele>1861.0</ele><time>2026-03-29T15:50:25Z</time></trkpt><trkpt lat="36.90034238708829" lon="-108.09426011670475"><ele>1861.0</ele><time>2026-03-29T15:50:26Z</time></trkpt><trkpt lat="36.90020963387796" lon="-108.09429208964599"><ele>1861.0</ele><time>2026-03-29T15:50:27Z</time></trkpt><trkpt lat="36.90008632416731" lon="-108.09432830275563"><ele>1861.0</ele><time>2026-03-29T15:50:28Z</time></trkpt><trkpt lat="36.89995429181681" lon="-108.09434600993877"><ele>1861.0</ele><time>2026-03-29T15:50:29Z</time></trkpt><trkpt lat="36.8998487188663" lon="-108.09437674508955"><ele>1861.1999999999998</ele><time>2026-03-29T15:50:30Z</time></trkpt><trkpt lat="36.899768303265176" lon="-108.09444923295824"><ele>1861.3999999999999</ele><time>2026-03-29T15:50:32Z</time></trkpt><trkpt lat="36.89979379207549" lon="-108.0945477966073"><ele>1861.6</ele><time>2026-03-29T15:50:34Z</time></trkpt><trkpt lat="36.899723500478096" lon="-108.09467634305079"><ele>1861.8</ele><time>2026-03-29T15:50:36Z</time></trkpt><trkpt lat="36.899623915055" lon="-108.09473961488463"><ele>1862.0</ele><time>2026-03-29T15:50:37Z</time></trkpt><trkpt lat="36.89953203957455" lon="-108.09480664909289"><ele>1861.6666666666665</ele><time>2026-03-29T15:50:38Z</time></trkpt><trkpt lat="36.89949509865642" lon="-108.09493693047986"><ele>1861.3333333333333</ele><time>2026-03-29T15:50:40Z</time></trkpt><trkpt lat="36.89947805463028" lon="-108.09502202255985"><ele>1861.0</ele><time>2026-03-29T15:50:41Z</time></trkpt><trkpt lat="36.89947526580432" lon="-108.09510913239204"><ele>1860.6666666666665</ele><time>2026-03-29T15:50:42Z</time></trkpt><trkpt lat="36.89950316072587" lon="-108.0952126852945"><ele>1860.3333333333333</ele><time>2026-03-29T15:50:43Z</time></trkpt><trkpt lat="36.89950821056688" lon="-108.09531626205785"><ele>1860.0</ele><time>2026-03-29T15:50:44Z</time></trkpt><trkpt lat="36.89946551006648" lon="-108.09544382326433"><ele>1860.0</ele><time>2026-03-29T15:50:45Z</time></trkpt><trkpt lat="36.899386378854075" lon="-108.09557571337864"><ele>1860.0</ele><time>2026-03-29T15:50:46Z</time></trkpt><trkpt lat="36.899317962335616" lon="-108.09567737781705"><ele>1860.0</ele><time>2026-03-29T15:50:47Z</time></trkpt><trkpt lat="36.89925639952517" lon="-108.09571300905797"><ele>1860.0</ele><time>2026-03-29T15:50:48Z</time></trkpt><trkpt lat="36.89916354799906" lon="-108.09566372376582"><ele>1860.0</ele><time>2026-03-29T15:50:50Z</time></trkpt><trkpt lat="36.89911868300409" lon="-108.09559857288833"><ele>1860.2</ele><time>2026-03-29T15:50:51Z</time></trkpt><trkpt lat="36.89910408453536" lon="-108.09548873715786"><ele>1860.4</ele><time>2026-03-29T15:50:52Z</time></trkpt><trkpt lat="36.89906516736214" lon="-108.0953507850905"><ele>1860.6</ele><time>2026-03-29T15:50:53Z</time></trkpt><trkpt lat="36.89899320743397" lon="-108.09521675891753"><ele>1860.8</ele><time>2026-03-29T15:50:54Z</time></trkpt><trkpt lat="36.89890616757204" lon="-108.09513362691544"><ele>1861.0</ele><time>2026-03-29T15:50:55Z</time></trkpt><trkpt lat="36.89883881781946" lon="-108.095102763704"><ele>1861.0</ele><time>2026-03-29T15:50:56Z</time></trkpt><trkpt lat="36.89877283205217" lon="-108.0951103913245"><ele>1861.0</ele><time>2026-03-29T15:50:57Z</time></trkpt><trkpt lat="36.89869804367678" lon="-108.09515194953532"><ele>1861.0</ele><time>2026-03-29T15:50:58Z</time></trkpt><trkpt lat="36.898651382128044" lon="-108.0952102154745"><ele>1861.0</ele><time>2026-03-29T15:50:59Z</time></trkpt><trkpt lat="36.89872657232012" lon="-108.0953744400336"><ele>1861.0</ele><time>2026-03-29T15:51:01Z</time></trkpt><trkpt lat="36.89881076106129" lon="-108.09547057908954"><ele>1861.0</ele><time>2026-03-29T15:51:02Z</time></trkpt><trkpt lat="36.898870540333554" lon="-108.09555868330119"><ele>1861.0</ele><time>2026-03-29T15:51:03Z</time></trkpt><trkpt lat="36.8989081919757" lon="-108.09564986806213"><ele>1861.0</ele><time>2026-03-29T15:51:04Z</time></trkpt><trkpt lat="36.89893940347336" lon="-108.09580540356761"><ele>1861.0</ele><time>2026-03-29T15:51:06Z</time></trkpt><trkpt lat="36.89894496578166" lon="-108.09595305197466"><ele>1861.0</ele><time>2026-03-29T15:51:08Z</time></trkpt><trkpt lat="36.89880970986966" lon="-108.09598374320676"><ele>1861.1999999999998</ele><time>2026-03-29T15:51:10Z</time></trkpt><trkpt lat="36.89871524431089" lon="-108.09596379927754"><ele>1861.3999999999999</ele><time>2026-03-29T15:51:11Z</time></trkpt><trkpt lat="36.89863206554549" lon="-108.09592909743223"><ele>1861.6</ele><time>2026-03-29T15:51:12Z</time></trkpt><trkpt lat="36.8985176275856" lon="-108.09595187016417"><ele>1861.8</ele><time>2026-03-29T15:51:13Z</time></trkpt><trkpt lat="36.89840480299386" lon="-108.0959836828147"><ele>1862.0</ele><time>2026-03-29T15:51:14Z</time></trkpt><trkpt lat="36.89832968714796" lon="-108.09605383140534"><ele>1861.5</ele><time>2026-03-29T15:51:15Z</time></trkpt><trkpt lat="36.89827292008034" lon="-108.09613618740256"><ele>1861.0</ele><time>2026-03-29T15:51:16Z</time></trkpt><trkpt lat="36.89819013015918" lon="-108.09623548999176"><ele>1860.5</ele><time>2026-03-29T15:51:17Z</time></trkpt><trkpt lat="36.89813244750995" lon="-108.09637395577137"><ele>1860.0</ele><time>2026-03-29T15:51:18Z</time></trkpt><trkpt lat="36.898045863905274" lon="-108.09651585305096"><ele>1859.75</ele><time>2026-03-29T15:51:19Z</time></trkpt><trkpt lat="36.89793775380738" lon="-108.0966362900738"><ele>1859.5</ele><time>2026-03-29T15:51:20Z</time></trkpt><trkpt lat="36.89784096211932" lon="-108.09673643103065"><ele>1859.25</ele><time>2026-03-29T15:51:21Z</time></trkpt><trkpt lat="36.89771270674575" lon="-108.09684213394307"><ele>1859.0</ele><time>2026-03-29T15:51:22Z</time></trkpt><trkpt lat="36.89757721435756" lon="-108.09690344959563"><ele>1859.0</ele><time>2026-03-29T15:51:23Z</time></trkpt><trkpt lat="36.89744434270326" lon="-108.09697373074486"><ele>1859.0</ele><time>2026-03-29T15:51:24Z</time></trkpt><trkpt lat="36.897302393659984" lon="-108.09701061258836"><ele>1859.0</ele><time>2026-03-29T15:51:25Z</time></trkpt><trkpt lat="36.89714575019391" lon="-108.09701364837682"><ele>1859.0</ele><time>2026-03-29T15:51:26Z</time></trkpt><trkpt lat="36.89698622500873" lon="-108.0970283251145"><ele>1859.0</ele><time>2026-03-29T15:51:27Z</time></trkpt><trkpt lat="36.89682952748123" lon="-108.09707942725049"><ele>1859.0</ele><time>2026-03-29T15:51:28Z</time></trkpt><trkpt lat="36.896682959420495" lon="-108.09714089133001"><ele>1859.0</ele><time>2026-03-29T15:51:29Z</time></trkpt><trkpt lat="36.89655552454426" lon="-108.0972435032362"><ele>1859.0</ele><time>2026-03-29T15:51:30Z</time></trkpt><trkpt lat="36.89642041735772" lon="-108.09735750276836"><ele>1859.0</ele><time>2026-03-29T15:51:31Z</time></trkpt><trkpt lat="36.89627198702339" lon="-108.09749130056706"><ele>1859.0</ele><time>2026-03-29T15:51:32Z</time></trkpt><trkpt lat="36.89616532487514" lon="-108.09760960425149"><ele>1858.25</ele><time>2026-03-29T15:51:33Z</time></trkpt><trkpt lat="36.89610631227644" lon="-108.09772676707675"><ele>1857.5</ele><time>2026-03-29T15:51:34Z</time></trkpt><trkpt lat="36.89607478282797" lon="-108.09787765411129"><ele>1856.75</ele><time>2026-03-29T15:51:35Z</time></trkpt><trkpt lat="36.896053388097464" lon="-108.09807785131224"><ele>1856.0</ele><time>2026-03-29T15:51:36Z</time></trkpt><trkpt lat="36.89604575054801" lon="-108.09830514783908"><ele>1856.0</ele><time>2026-03-29T15:51:37Z</time></trkpt><trkpt lat="36.89607630996319" lon="-108.09850541664453"><ele>1856.0</ele><time>2026-03-29T15:51:38Z</time></trkpt><trkpt lat="36.896108606899205" lon="-108.09871189231185"><ele>1856.0</ele><time>2026-03-29T15:51:39Z</time></trkpt><trkpt lat="36.896096974606806" lon="-108.09889513362683"><ele>1856.0</ele><time>2026-03-29T15:51:40Z</time></trkpt><trkpt lat="36.89607487695834" lon="-108.099044135856"><ele>1856.0</ele><time>2026-03-29T15:51:41Z</time></trkpt><trkpt lat="36.89602971026139" lon="-108.09920099536757"><ele>1856.0</ele><time>2026-03-29T15:51:42Z</time></trkpt><trkpt lat="36.89596175987555" lon="-108.0993535651466"><ele>1856.0</ele><time>2026-03-29T15:51:43Z</time></trkpt><trkpt lat="36.895845589206495" lon="-108.09948454623337"><ele>1855.6666666666665</ele><time>2026-03-29T15:51:44Z</time></trkpt><trkpt lat="36.89570659778048" lon="-108.09959961445338"><ele>1855.3333333333335</ele><time>2026-03-29T15:51:45Z</time></trkpt><trkpt lat="36.89556664745675" lon="-108.09965228853557"><ele>1855.0</ele><time>2026-03-29T15:51:46Z</time></trkpt><trkpt lat="36.89542082913162" lon="-108.0996594904981"><ele>1855.0</ele><time>2026-03-29T15:51:47Z</time></trkpt><trkpt lat="36.895279347760635" lon="-108.09967817121421"><ele>1855.0</ele><time>2026-03-29T15:51:48Z</time></trkpt><trkpt lat="36.895193210495044" lon="-108.09970783617523"><ele>1855.0</ele><time>2026-03-29T15:51:49Z</time></trkpt><trkpt lat="36.89511380752176" lon="-108.09977849784084"><ele>1855.0</ele><time>2026-03-29T15:51:50Z</time></trkpt><trkpt lat="36.895063658684926" lon="-108.09991222158556"><ele>1855.0</ele><time>2026-03-29T15:51:51Z</time></trkpt><trkpt lat="36.89495280351332" lon="-108.1000587440576"><ele>1854.5</ele><time>2026-03-29T15:51:52Z</time></trkpt><trkpt lat="36.89484363423068" lon="-108.10016414550881"><ele>1854.0</ele><time>2026-03-29T15:51:53Z</time></trkpt><trkpt lat="36.89474902969991" lon="-108.10023897190887"><ele>1853.5</ele><time>2026-03-29T15:51:54Z</time></trkpt><trkpt lat="36.89464098465996" lon="-108.10026092863669"><ele>1853.0</ele><time>2026-03-29T15:51:55Z</time></trkpt><trkpt lat="36.89453440462912" lon="-108.10022318710413"><ele>1853.0</ele><time>2026-03-29T15:51:56Z</time></trkpt><trkpt lat="36.894426355766846" lon="-108.10020945498817"><ele>1853.0000000000002</ele><time>2026-03-29T15:51:57Z</time></trkpt><trkpt lat="36.89433595077756" lon="-108.10026048380132"><ele>1853.0000000000002</ele><time>2026-03-29T15:51:58Z</time></trkpt><trkpt lat="36.894282262259104" lon="-108.10037511854874"><ele>1853.0</ele><time>2026-03-29T15:51:59Z</time></trkpt><trkpt lat="36.89427555883987" lon="-108.10048434886407"><ele>1853.0</ele><time>2026-03-29T15:52:00Z</time></trkpt><trkpt lat="36.89425449592227" lon="-108.10059250107302"><ele>1852.9999999999998</ele><time>2026-03-29T15:52:01Z</time></trkpt><trkpt lat="36.89419969715621" lon="-108.10068821698118"><ele>1853.0</ele><time>2026-03-29T15:52:03Z</time></trkpt><trkpt lat="36.894116848606544" lon="-108.10066493225733"><ele>1853.0</ele><time>2026-03-29T15:52:05Z</time></trkpt><trkpt lat="36.8940524745911" lon="-108.10060249113394"><ele>1853.0</ele><time>2026-03-29T15:52:06Z</time></trkpt><trkpt lat="36.894001837533665" lon="-108.10050669187949"><ele>1852.9999999999998</ele><time>2026-03-29T15:52:07Z</time></trkpt><trkpt lat="36.893948789639474" lon="-108.10041795413478"><ele>1853.0</ele><time>2026-03-29T15:52:08Z</time></trkpt><trkpt lat="36.89384113915264" lon="-108.10033446388613"><ele>1852.9999999999998</ele><time>2026-03-29T15:52:09Z</time></trkpt><trkpt lat="36.89373251880888" lon="-108.10029477172104"><ele>1853.0</ele><time>2026-03-29T15:52:10Z</time></trkpt><trkpt lat="36.89364161416002" lon="-108.1003003180852"><ele>1853.0</ele><time>2026-03-29T15:52:11Z</time></trkpt><trkpt lat="36.89357213659572" lon="-108.10034594052375"><ele>1853.0</ele><time>2026-03-29T15:52:13Z</time></trkpt><trkpt lat="36.89358143692401" lon="-108.10042879035713"><ele>1852.9999999999998</ele><time>2026-03-29T15:52:17Z</time></trkpt><trkpt lat="36.89360920478833" lon="-108.10051186184519"><ele>1853.0</ele><time>2026-03-29T15:52:18Z</time></trkpt><trkpt lat="36.8936270245274" lon="-108.10065196714908"><ele>1853.0</ele><time>2026-03-29T15:52:19Z</time></trkpt><trkpt lat="36.893597564465885" lon="-108.1007779098875"><ele>1853.0</ele><time>2026-03-29T15:52:20Z</time></trkpt><trkpt lat="36.8935193091207" lon="-108.10087439282758"><ele>1853.0</ele><time>2026-03-29T15:52:21Z</time></trkpt><trkpt lat="36.89341191392127" lon="-108.10095724893678"><ele>1853.0</ele><time>2026-03-29T15:52:22Z</time></trkpt><trkpt lat="36.89329549975676" lon="-108.1010462146008"><ele>1853.0</ele><time>2026-03-29T15:52:23Z</time></trkpt><trkpt lat="36.89317347805528" lon="-108.10112947283118"><ele>1853.0</ele><time>2026-03-29T15:52:24Z</time></trkpt><trkpt lat="36.893046245152966" lon="-108.10121598607181"><ele>1853.0</ele><time>2026-03-29T15:52:25Z</time></trkpt><trkpt lat="36.89290584982485" lon="-108.1012913268765"><ele>1853.0</ele><time>2026-03-29T15:52:26Z</time></trkpt><trkpt lat="36.892756394674635" lon="-108.10137627563866"><ele>1853.0</ele><time>2026-03-29T15:52:27Z</time></trkpt><trkpt lat="36.892599449849556" lon="-108.10146395589504"><ele>1853.0</ele><time>2026-03-29T15:52:28Z</time></trkpt><trkpt lat="36.892423991327995" lon="-108.10156023379605"><ele>1853.0</ele><time>2026-03-29T15:52:29Z</time></trkpt><trkpt lat="36.892274595237346" lon="-108.10163356121998"><ele>1852.3333333333333</ele><time>2026-03-29T15:52:30Z</time></trkpt><trkpt lat="36.892143786213765" lon="-108.10167978253321"><ele>1851.6666666666665</ele><time>2026-03-29T15:52:31Z</time></trkpt><trkpt lat="36.891992452762544" lon="-108.10168731439536"><ele>1851.0</ele><time>2026-03-29T15:52:32Z</time></trkpt><trkpt lat="36.89179331938221" lon="-108.1016863215284"><ele>1850.3333333333335</ele><time>2026-03-29T15:52:33Z</time></trkpt><trkpt lat="36.891583895538254" lon="-108.10166447168174"><ele>1849.6666666666667</ele><time>2026-03-29T15:52:34Z</time></trkpt><trkpt lat="36.891411975444434" lon="-108.10167613320053"><ele>1849.0</ele><time>2026-03-29T15:52:35Z</time></trkpt><trkpt lat="36.891264429529485" lon="-108.10171258528496"><ele>1849.0</ele><time>2026-03-29T15:52:36Z</time></trkpt><trkpt lat="36.891166851861634" lon="-108.10178014197878"><ele>1849.0</ele><time>2026-03-29T15:52:37Z</time></trkpt><trkpt lat="36.89107314600771" lon="-108.10189047038062"><ele>1849.0</ele><time>2026-03-29T15:52:38Z</time></trkpt><trkpt lat="36.89098717490604" lon="-108.10194545096053"><ele>1849.0</ele><time>2026-03-29T15:52:39Z</time></trkpt><trkpt lat="36.890918934235614" lon="-108.10195851625728"><ele>1849.0</ele><time>2026-03-29T15:52:40Z</time></trkpt><trkpt lat="36.89082775237739" lon="-108.10190009566435"><ele>1849.0</ele><time>2026-03-29T15:52:41Z</time></trkpt><trkpt lat="36.890703689939954" lon="-108.10184359300291"><ele>1849.0</ele><time>2026-03-29T15:52:42Z</time></trkpt><trkpt lat="36.890571864631085" lon="-108.1018243010897"><ele>1849.0</ele><time>2026-03-29T15:52:43Z</time></trkpt><trkpt lat="36.89042637767828" lon="-108.10180972391939"><ele>1849.0</ele><time>2026-03-29T15:52:44Z</time></trkpt><trkpt lat="36.89030633367503" lon="-108.10179570665939"><ele>1849.0000000000002</ele><time>2026-03-29T15:52:45Z</time></trkpt><trkpt lat="36.89021315115769" lon="-108.10180769027278"><ele>1849.0</ele><time>2026-03-29T15:52:46Z</time></trkpt><trkpt lat="36.890124300745484" lon="-108.10183457941774"><ele>1849.0</ele><time>2026-03-29T15:52:47Z</time></trkpt><trkpt lat="36.890064990039726" lon="-108.10188168298446"><ele>1849.0</ele><time>2026-03-29T15:52:48Z</time></trkpt><trkpt lat="36.89005397077031" lon="-108.10196049097961"><ele>1849.0000000000002</ele><time>2026-03-29T15:52:49Z</time></trkpt><trkpt lat="36.890063251777676" lon="-108.10205408000644"><ele>1849.0</ele><time>2026-03-29T15:52:50Z</time></trkpt><trkpt lat="36.89003671938038" lon="-108.10216915894738"><ele>1849.0</ele><time>2026-03-29T15:52:51Z</time></trkpt><trkpt lat="36.889976441297584" lon="-108.10226652944536"><ele>1849.0</ele><time>2026-03-29T15:52:52Z</time></trkpt><trkpt lat="36.889891139729315" lon="-108.10230298920295"><ele>1849.0</ele><time>2026-03-29T15:52:53Z</time></trkpt><trkpt lat="36.88978895099767" lon="-108.10228616796859"><ele>1849.0</ele><time>2026-03-29T15:52:54Z</time></trkpt><trkpt lat="36.88965510327124" lon="-108.10228976318693"><ele>1849.0</ele><time>2026-03-29T15:52:55Z</time></trkpt><trkpt lat="36.889514716223296" lon="-108.10232823790943"><ele>1848.6666666666667</ele><time>2026-03-29T15:52:56Z</time></trkpt><trkpt lat="36.889354992586426" lon="-108.10242922052709"><ele>1848.3333333333335</ele><time>2026-03-29T15:52:57Z</time></trkpt><trkpt lat="36.889210232167734" lon="-108.10257642200777"><ele>1848.0</ele><time>2026-03-29T15:52:58Z</time></trkpt><trkpt lat="36.889055028317124" lon="-108.10270053283483"><ele>1848.0</ele><time>2026-03-29T15:52:59Z</time></trkpt><trkpt lat="36.888882868982165" lon="-108.10278742470189"><ele>1848.0</ele><time>2026-03-29T15:53:00Z</time></trkpt><trkpt lat="36.88869731036764" lon="-108.10281755358578"><ele>1848.0</ele><time>2026-03-29T15:53:01Z</time></trkpt><trkpt lat="36.88854538320581" lon="-108.10282216728869"><ele>1847.75</ele><time>2026-03-29T15:53:02Z</time></trkpt><trkpt lat="36.88836714813972" lon="-108.10280420797707"><ele>1847.5</ele><time>2026-03-29T15:53:03Z</time></trkpt><trkpt lat="36.88821450962375" lon="-108.1028167179383"><ele>1847.25</ele><time>2026-03-29T15:53:04Z</time></trkpt><trkpt lat="36.88811482723805" lon="-108.10287905795889"><ele>1847.0</ele><time>2026-03-29T15:53:05Z</time></trkpt><trkpt lat="36.88802542728825" lon="-108.10297359212"><ele>1847.0</ele><time>2026-03-29T15:53:06Z</time></trkpt><trkpt lat="36.88794134183296" lon="-108.10306739710039"><ele>1846.9999999999998</ele><time>2026-03-29T15:53:07Z</time></trkpt><trkpt lat="36.88783902051867" lon="-108.1031374966766"><ele>1846.9999999999998</ele><time>2026-03-29T15:53:08Z</time></trkpt><trkpt lat="36.88774474969685" lon="-108.10317168841107"><ele>1847.0</ele><time>2026-03-29T15:53:09Z</time></trkpt><trkpt lat="36.88766671952521" lon="-108.1031385129643"><ele>1847.0</ele><time>2026-03-29T15:53:10Z</time></trkpt><trkpt lat="36.88759063491983" lon="-108.10306895754067"><ele>1847.3999999999999</ele><time>2026-03-29T15:53:11Z</time></trkpt><trkpt lat="36.88751839079653" lon="-108.10304439814362"><ele>1847.7999999999997</ele><time>2026-03-29T15:53:12Z</time></trkpt><trkpt lat="36.88743629703806" lon="-108.10312144650464"><ele>1848.2</ele><time>2026-03-29T15:53:13Z</time></trkpt><trkpt lat="36.88734214129366" lon="-108.10322079082333"><ele>1848.6</ele><time>2026-03-29T15:53:14Z</time></trkpt><trkpt lat="36.88726215364218" lon="-108.1033438257018"><ele>1849.0</ele><time>2026-03-29T15:53:15Z</time></trkpt><trkpt lat="36.88716590282989" lon="-108.10346041532958"><ele>1848.0</ele><time>2026-03-29T15:53:16Z</time></trkpt><trkpt lat="36.887038247323126" lon="-108.1035365616275"><ele>1847.0</ele><time>2026-03-29T15:53:17Z</time></trkpt><trkpt lat="36.88686805282164" lon="-108.10354586057971"><ele>1846.0</ele><time>2026-03-29T15:53:18Z</time></trkpt><trkpt lat="36.88672624674286" lon="-108.10359454881605"><ele>1846.0</ele><time>2026-03-29T15:53:19Z</time></trkpt><trkpt lat="36.886596509335234" lon="-108.10366673802483"><ele>1846.0</ele><time>2026-03-29T15:53:20Z</time></trkpt><trkpt lat="36.886511683546125" lon="-108.10373191259963"><ele>1846.0</ele><time>2026-03-29T15:53:21Z</time></trkpt><trkpt lat="36.88643164819997" lon="-108.10382362242507"><ele>1846.0</ele><time>2026-03-29T15:53:23Z</time></trkpt><trkpt lat="36.88648447765714" lon="-108.10395795116561"><ele>1846.0</ele><time>2026-03-29T15:53:25Z</time></trkpt><trkpt lat="36.88655282019082" lon="-108.10403382030151"><ele>1846.0</ele><time>2026-03-29T15:53:26Z</time></trkpt><trkpt lat="36.88662093100742" lon="-108.10410708192501"><ele>1846.0</ele><time>2026-03-29T15:53:27Z</time></trkpt><trkpt lat="36.88666078408043" lon="-108.10420382526063"><ele>1846.0</ele><time>2026-03-29T15:53:29Z</time></trkpt><trkpt lat="36.88633342525282" lon="-108.10439052647276"><ele>1845.8</ele><time>2026-03-29T15:53:32Z</time></trkpt><trkpt lat="36.88628457970799" lon="-108.10451881911098"><ele>1845.6</ele><time>2026-03-29T15:53:34Z</time></trkpt><trkpt lat="36.88621805865884" lon="-108.1045717925522"><ele>1845.4</ele><time>2026-03-29T15:53:35Z</time></trkpt><trkpt lat="36.88612710609344" lon="-108.10462731328887"><ele>1845.2</ele><time>2026-03-29T15:53:36Z</time></trkpt><trkpt lat="36.88602221413069" lon="-108.10468445936537"><ele>1845.0</ele><time>2026-03-29T15:53:37Z</time></trkpt><trkpt lat="36.885908982535256" lon="-108.10476215399162"><ele>1845.0</ele><time>2026-03-29T15:53:38Z</time></trkpt><trkpt lat="36.88579876076809" lon="-108.10485347440208"><ele>1845.0</ele><time>2026-03-29T15:53:39Z</time></trkpt><trkpt lat="36.88567938703715" lon="-108.10495641565385"><ele>1845.0</ele><time>2026-03-29T15:53:40Z</time></trkpt><trkpt lat="36.88554123319304" lon="-108.10509759879231"><ele>1844.0</ele><time>2026-03-29T15:53:41Z</time></trkpt><trkpt lat="36.88535785568328" lon="-108.1052201070788"><ele>1843.0</ele><time>2026-03-29T15:53:42Z</time></trkpt><trkpt lat="36.88523484672536" lon="-108.10538195758018"><ele>1842.0</ele><time>2026-03-29T15:53:43Z</time></trkpt><trkpt lat="36.885137643772026" lon="-108.10552815660598"><ele>1842.0</ele><time>2026-03-29T15:53:44Z</time></trkpt><trkpt lat="36.885073564734526" lon="-108.10569374502859"><ele>1842.0</ele><time>2026-03-29T15:53:45Z</time></trkpt><trkpt lat="36.88498666446409" lon="-108.10583426226893"><ele>1842.0</ele><time>2026-03-29T15:53:46Z</time></trkpt><trkpt lat="36.884890588760044" lon="-108.10591608185025"><ele>1842.0</ele><time>2026-03-29T15:53:47Z</time></trkpt><trkpt lat="36.884799158485635" lon="-108.10599431997443"><ele>1842.0</ele><time>2026-03-29T15:53:48Z</time></trkpt><trkpt lat="36.88469864790431" lon="-108.10604858756187"><ele>1842.0</ele><time>2026-03-29T15:53:49Z</time></trkpt><trkpt lat="36.88456704383512" lon="-108.10608104985606"><ele>1842.0</ele><time>2026-03-29T15:53:50Z</time></trkpt><trkpt lat="36.88444732859759" lon="-108.10613042407896"><ele>1842.0</ele><time>2026-03-29T15:53:51Z</time></trkpt><trkpt lat="36.88433424045875" lon="-108.10602966152193"><ele>1842.0</ele><time>2026-03-29T15:53:52Z</time></trkpt><trkpt lat="36.88429595936863" lon="-108.10613357505096"><ele>1841.9999999999998</ele><time>2026-03-29T15:53:53Z</time></trkpt><trkpt lat="36.88428433617846" lon="-108.10627253325617"><ele>1841.9999999999998</ele><time>2026-03-29T15:53:54Z</time></trkpt><trkpt lat="36.88430308772539" lon="-108.10640295672235"><ele>1842.0</ele><time>2026-03-29T15:53:55Z</time></trkpt><trkpt lat="36.884320034770134" lon="-108.10655736369073"><ele>1842.0</ele><time>2026-03-29T15:53:56Z</time></trkpt><trkpt lat="36.88431147303455" lon="-108.10668163390851"><ele>1842.3999999999999</ele><time>2026-03-29T15:53:57Z</time></trkpt><trkpt lat="36.884299356002465" lon="-108.10676646087879"><ele>1842.7999999999997</ele><time>2026-03-29T15:53:58Z</time></trkpt><trkpt lat="36.8842419841217" lon="-108.10686050809124"><ele>1843.2</ele><time>2026-03-29T15:53:59Z</time></trkpt><trkpt lat="36.88417258445012" lon="-108.1069622577627"><ele>1843.6</ele><time>2026-03-29T15:54:00Z</time></trkpt><trkpt lat="36.88405650439341" lon="-108.10700936602794"><ele>1844.0</ele><time>2026-03-29T15:54:01Z</time></trkpt><trkpt lat="36.883913035769794" lon="-108.1070263465695"><ele>1842.6666666666665</ele><time>2026-03-29T15:54:02Z</time></trkpt><trkpt lat="36.88377193007937" lon="-108.10706075817338"><ele>1841.3333333333335</ele><time>2026-03-29T15:54:03Z</time></trkpt><trkpt lat="36.88359824406213" lon="-108.1071004080482"><ele>1840.0</ele><time>2026-03-29T15:54:04Z</time></trkpt><trkpt lat="36.88342727468897" lon="-108.1071348067126"><ele>1840.0</ele><time>2026-03-29T15:54:05Z</time></trkpt><trkpt lat="36.883277885171715" lon="-108.10719432318544"><ele>1840.0</ele><time>2026-03-29T15:54:06Z</time></trkpt><trkpt lat="36.88313020556542" lon="-108.10727070876632"><ele>1840.0</ele><time>2026-03-29T15:54:07Z</time></trkpt><trkpt lat="36.88299306969197" lon="-108.10737405553589"><ele>1840.0</ele><time>2026-03-29T15:54:08Z</time></trkpt><trkpt lat="36.88288931539343" lon="-108.1074787478696"><ele>1840.0</ele><time>2026-03-29T15:54:09Z</time></trkpt><trkpt lat="36.8828108531691" lon="-108.10758210051684"><ele>1840.0</ele><time>2026-03-29T15:54:10Z</time></trkpt><trkpt lat="36.88275990034419" lon="-108.10768347012238"><ele>1840.0</ele><time>2026-03-29T15:54:11Z</time></trkpt><trkpt lat="36.882745231236434" lon="-108.10778484576363"><ele>1840.0</ele><time>2026-03-29T15:54:12Z</time></trkpt><trkpt lat="36.88277365113364" lon="-108.10787659241429"><ele>1840.0</ele><time>2026-03-29T15:54:13Z</time></trkpt><trkpt lat="36.88283171611997" lon="-108.10798903819234"><ele>1840.0</ele><time>2026-03-29T15:54:14Z</time></trkpt><trkpt lat="36.88289142086234" lon="-108.10807069112799"><ele>1840.0</ele><time>2026-03-29T15:54:15Z</time></trkpt><trkpt lat="36.88301344870953" lon="-108.10803951100723"><ele>1840.0</ele><time>2026-03-29T15:54:17Z</time></trkpt><trkpt lat="36.883119362285065" lon="-108.10801687479051"><ele>1840.0</ele><time>2026-03-29T15:54:18Z</time></trkpt><trkpt lat="36.88321690752329" lon="-108.10803956496328"><ele>1840.0</ele><time>2026-03-29T15:54:19Z</time></trkpt><trkpt lat="36.88326562640542" lon="-108.10817519918542"><ele>1840.0</ele><time>2026-03-29T15:54:21Z</time></trkpt><trkpt lat="36.88329569732362" lon="-108.10828196798657"><ele>1840.0</ele><time>2026-03-29T15:54:22Z</time></trkpt><trkpt lat="36.88330713755455" lon="-108.10837399036991"><ele>1840.0</ele><time>2026-03-29T15:54:23Z</time></trkpt><trkpt lat="36.88325606758107" lon="-108.10842559530307"><ele>1840.0</ele><time>2026-03-29T15:54:24Z</time></trkpt><trkpt lat="36.883153027497166" lon="-108.10845852772165"><ele>1839.75</ele><time>2026-03-29T15:54:25Z</time></trkpt><trkpt lat="36.88305144077217" lon="-108.10852560808718"><ele>1839.5</ele><time>2026-03-29T15:54:26Z</time></trkpt><trkpt lat="36.88293286998671" lon="-108.10860715429479"><ele>1839.25</ele><time>2026-03-29T15:54:27Z</time></trkpt><trkpt lat="36.88283794550229" lon="-108.10870201410208"><ele>1839.0</ele><time>2026-03-29T15:54:28Z</time></trkpt><trkpt lat="36.88276014447768" lon="-108.10878362822511"><ele>1839.0</ele><time>2026-03-29T15:54:29Z</time></trkpt><trkpt lat="36.88271820829824" lon="-108.10890613559506"><ele>1839.0</ele><time>2026-03-29T15:54:30Z</time></trkpt><trkpt lat="36.88269489086431" lon="-108.10908356033687"><ele>1839.0</ele><time>2026-03-29T15:54:31Z</time></trkpt><trkpt lat="36.882663486102295" lon="-108.10924188914028"><ele>1839.0</ele><time>2026-03-29T15:54:32Z</time></trkpt><trkpt lat="36.8826065205258" lon="-108.10934955551255"><ele>1838.75</ele><time>2026-03-29T15:54:33Z</time></trkpt><trkpt lat="36.882518817495736" lon="-108.10943984312543"><ele>1838.5</ele><time>2026-03-29T15:54:34Z</time></trkpt><trkpt lat="36.88241675793917" lon="-108.10950916092945"><ele>1838.25</ele><time>2026-03-29T15:54:35Z</time></trkpt><trkpt lat="36.882332283468095" lon="-108.1095906050462"><ele>1838.0</ele><time>2026-03-29T15:54:36Z</time></trkpt><trkpt lat="36.88225383272165" lon="-108.10971930985528"><ele>1838.0</ele><time>2026-03-29T15:54:37Z</time></trkpt><trkpt lat="36.88216463297534" lon="-108.10986869760742"><ele>1838.0</ele><time>2026-03-29T15:54:38Z</time></trkpt><trkpt lat="36.88209484783544" lon="-108.11003170811985"><ele>1838.0</ele><time>2026-03-29T15:54:39Z</time></trkpt><trkpt lat="36.88206415387273" lon="-108.11023813170628"><ele>1837.8000000000002</ele><time>2026-03-29T15:54:40Z</time></trkpt><trkpt lat="36.88202053254304" lon="-108.11040464121426"><ele>1837.6000000000001</ele><time>2026-03-29T15:54:41Z</time></trkpt><trkpt lat="36.88198511321504" lon="-108.11048406391808"><ele>1837.3999999999999</ele><time>2026-03-29T15:54:42Z</time></trkpt><trkpt lat="36.88192135771469" lon="-108.11054724552665"><ele>1837.1999999999998</ele><time>2026-03-29T15:54:43Z</time></trkpt><trkpt lat="36.881824169440875" lon="-108.11057983878484"><ele>1837.0</ele><time>2026-03-29T15:54:44Z</time></trkpt><trkpt lat="36.881715708025844" lon="-108.11065492138582"><ele>1837.0</ele><time>2026-03-29T15:54:45Z</time></trkpt><trkpt lat="36.88160915037671" lon="-108.11079733171765"><ele>1837.0</ele><time>2026-03-29T15:54:46Z</time></trkpt><trkpt lat="36.88150094081989" lon="-108.11093335012683"><ele>1837.0</ele><time>2026-03-29T15:54:47Z</time></trkpt><trkpt lat="36.88137548798582" lon="-108.11104759338905"><ele>1837.0</ele><time>2026-03-29T15:54:48Z</time></trkpt><trkpt lat="36.881256897828614" lon="-108.11116562268325"><ele>1837.0</ele><time>2026-03-29T15:54:49Z</time></trkpt><trkpt lat="36.88116485706697" lon="-108.11128240097764"><ele>1837.0</ele><time>2026-03-29T15:54:50Z</time></trkpt><trkpt lat="36.881092375949386" lon="-108.11141951922357"><ele>1837.0</ele><time>2026-03-29T15:54:51Z</time></trkpt><trkpt lat="36.8810295647262" lon="-108.11158320259484"><ele>1837.0</ele><time>2026-03-29T15:54:52Z</time></trkpt><trkpt lat="36.8809526414265" lon="-108.11176628067308"><ele>1837.0</ele><time>2026-03-29T15:54:53Z</time></trkpt><trkpt lat="36.880844412305294" lon="-108.1119352314519"><ele>1837.0</ele><time>2026-03-29T15:54:54Z</time></trkpt><trkpt lat="36.88075123609954" lon="-108.11208119471243"><ele>1836.6</ele><time>2026-03-29T15:54:55Z</time></trkpt><trkpt lat="36.88071788917915" lon="-108.11220601564104"><ele>1836.1999999999998</ele><time>2026-03-29T15:54:56Z</time></trkpt><trkpt lat="36.880731116552894" lon="-108.11234379886442"><ele>1835.8</ele><time>2026-03-29T15:54:57Z</time></trkpt><trkpt lat="36.88073636089025" lon="-108.1124697045587"><ele>1835.4</ele><time>2026-03-29T15:54:58Z</time></trkpt><trkpt lat="36.8807219706756" lon="-108.11258506750895"><ele>1835.0</ele><time>2026-03-29T15:54:59Z</time></trkpt><trkpt lat="36.88067239248306" lon="-108.11268273615818"><ele>1835.0</ele><time>2026-03-29T15:55:00Z</time></trkpt><trkpt lat="36.88058008420739" lon="-108.11273355281766"><ele>1835.0</ele><time>2026-03-29T15:55:01Z</time></trkpt><trkpt lat="36.880456879249934" lon="-108.11275916031457"><ele>1835.0</ele><time>2026-03-29T15:55:02Z</time></trkpt><trkpt lat="36.880342145893394" lon="-108.11278439514084"><ele>1835.0</ele><time>2026-03-29T15:55:03Z</time></trkpt><trkpt lat="36.88023742995382" lon="-108.1127819773818"><ele>1835.0</ele><time>2026-03-29T15:55:04Z</time></trkpt><trkpt lat="36.88017810237255" lon="-108.11273251189253"><ele>1835.0</ele><time>2026-03-29T15:55:05Z</time></trkpt><trkpt lat="36.880111113723146" lon="-108.11264689942789"><ele>1835.0</ele><time>2026-03-29T15:55:06Z</time></trkpt><trkpt lat="36.87999007378184" lon="-108.11258840321884"><ele>1835.0</ele><time>2026-03-29T15:55:07Z</time></trkpt><trkpt lat="36.879862001329066" lon="-108.11260576150148"><ele>1835.0</ele><time>2026-03-29T15:55:08Z</time></trkpt><trkpt lat="36.87974780439974" lon="-108.11269637158507"><ele>1835.6</ele><time>2026-03-29T15:55:09Z</time></trkpt><trkpt lat="36.879665920989545" lon="-108.11275922991373"><ele>1836.2</ele><time>2026-03-29T15:55:10Z</time></trkpt><trkpt lat="36.87961773542199" lon="-108.11284461578039"><ele>1836.8000000000002</ele><time>2026-03-29T15:55:11Z</time></trkpt><trkpt lat="36.87958142319674" lon="-108.11291452457426"><ele>1837.4</ele><time>2026-03-29T15:55:12Z</time></trkpt><trkpt lat="36.87968825891682" lon="-108.11291915306548"><ele>1838.0</ele><time>2026-03-29T15:55:14Z</time></trkpt><trkpt lat="36.8798299840731" lon="-108.11293150979733"><ele>1838.0</ele><time>2026-03-29T15:55:16Z</time></trkpt><trkpt lat="36.87992293963929" lon="-108.11291891757652"><ele>1838.0000000000002</ele><time>2026-03-29T15:55:17Z</time></trkpt><trkpt lat="36.87996211855472" lon="-108.11302065536685"><ele>1838.0000000000002</ele><time>2026-03-29T15:55:19Z</time></trkpt><trkpt lat="36.879911779616585" lon="-108.11308432431589"><ele>1838.0</ele><time>2026-03-29T15:55:20Z</time></trkpt><trkpt lat="36.87983765165635" lon="-108.11315904331856"><ele>1838.0</ele><time>2026-03-29T15:55:21Z</time></trkpt><trkpt lat="36.87977001394011" lon="-108.1132599691642"><ele>1837.25</ele><time>2026-03-29T15:55:22Z</time></trkpt><trkpt lat="36.879654818258956" lon="-108.11337223001449"><ele>1836.5</ele><time>2026-03-29T15:55:23Z</time></trkpt><trkpt lat="36.87953004535784" lon="-108.11345036471185"><ele>1835.75</ele><time>2026-03-29T15:55:24Z</time></trkpt><trkpt lat="36.87940590539522" lon="-108.11353147455712"><ele>1835.0</ele><time>2026-03-29T15:55:25Z</time></trkpt><trkpt lat="36.87927068642508" lon="-108.11363008922635"><ele>1835.0</ele><time>2026-03-29T15:55:26Z</time></trkpt><trkpt lat="36.87913394021983" lon="-108.11376587544633"><ele>1835.0</ele><time>2026-03-29T15:55:27Z</time></trkpt><trkpt lat="36.879005625445" lon="-108.1139327839323"><ele>1835.0</ele><time>2026-03-29T15:55:28Z</time></trkpt><trkpt lat="36.87893298308267" lon="-108.11408561908917"><ele>1834.0</ele><time>2026-03-29T15:55:29Z</time></trkpt><trkpt lat="36.87888856448168" lon="-108.11424209400685"><ele>1833.0</ele><time>2026-03-29T15:55:30Z</time></trkpt><trkpt lat="36.87887952933314" lon="-108.11437965431243"><ele>1832.0</ele><time>2026-03-29T15:55:31Z</time></trkpt><trkpt lat="36.878924580506926" lon="-108.11445258362731"><ele>1831.0</ele><time>2026-03-29T15:55:32Z</time></trkpt><trkpt lat="36.87900631745344" lon="-108.11453058339458"><ele>1830.0</ele><time>2026-03-29T15:55:34Z</time></trkpt><trkpt lat="36.87907886515892" lon="-108.11454726926945"><ele>1830.0</ele><time>2026-03-29T15:55:35Z</time></trkpt><trkpt lat="36.87909456577322" lon="-108.1146805746789"><ele>1830.0</ele><time>2026-03-29T15:55:37Z</time></trkpt><trkpt lat="36.879027461154" lon="-108.11474914482227"><ele>1830.0</ele><time>2026-03-29T15:55:38Z</time></trkpt><trkpt lat="36.878931405021724" lon="-108.11478325394309"><ele>1830.0</ele><time>2026-03-29T15:55:39Z</time></trkpt><trkpt lat="36.87882287154219" lon="-108.11481221040302"><ele>1830.0</ele><time>2026-03-29T15:55:40Z</time></trkpt><trkpt lat="36.878715851231206" lon="-108.11486037255665"><ele>1830.5</ele><time>2026-03-29T15:55:41Z</time></trkpt><trkpt lat="36.878610824503006" lon="-108.1149307076713"><ele>1831.0</ele><time>2026-03-29T15:55:42Z</time></trkpt><trkpt lat="36.87851335789715" lon="-108.11503405859973"><ele>1831.5</ele><time>2026-03-29T15:55:43Z</time></trkpt><trkpt lat="36.87844696869731" lon="-108.11518014596899"><ele>1832.0</ele><time>2026-03-29T15:55:44Z</time></trkpt><trkpt lat="36.878382112436135" lon="-108.11536200915603"><ele>1832.0</ele><time>2026-03-29T15:55:45Z</time></trkpt><trkpt lat="36.8783074794252" lon="-108.11553693684021"><ele>1832.0</ele><time>2026-03-29T15:55:46Z</time></trkpt><trkpt lat="36.87820249325804" lon="-108.11570228771869"><ele>1832.0</ele><time>2026-03-29T15:55:47Z</time></trkpt><trkpt lat="36.87807630319429" lon="-108.1158551194935"><ele>1831.0</ele><time>2026-03-29T15:55:48Z</time></trkpt><trkpt lat="36.87792857923792" lon="-108.1160037587337"><ele>1830.0</ele><time>2026-03-29T15:55:49Z</time></trkpt><trkpt lat="36.87777106116598" lon="-108.11614573581396"><ele>1829.0</ele><time>2026-03-29T15:55:50Z</time></trkpt><trkpt lat="36.87762078724471" lon="-108.11629633580395"><ele>1829.5</ele><time>2026-03-29T15:55:51Z</time></trkpt><trkpt lat="36.87749752535703" lon="-108.1164210667562"><ele>1830.0</ele><time>2026-03-29T15:55:52Z</time></trkpt><trkpt lat="36.87739336731244" lon="-108.11649235708494"><ele>1830.5</ele><time>2026-03-29T15:55:53Z</time></trkpt><trkpt lat="36.8772995590209" lon="-108.11652930681146"><ele>1831.0</ele><time>2026-03-29T15:55:54Z</time></trkpt><trkpt lat="36.877223521476445" lon="-108.1165581611345"><ele>1830.8</ele><time>2026-03-29T15:55:55Z</time></trkpt><trkpt lat="36.87714550950619" lon="-108.1166485928109"><ele>1830.6</ele><time>2026-03-29T15:55:57Z</time></trkpt><trkpt lat="36.877229133802444" lon="-108.11672790627543"><ele>1830.4</ele><time>2026-03-29T15:56:00Z</time></trkpt><trkpt lat="36.877304426259386" lon="-108.11676647491113"><ele>1830.2</ele><time>2026-03-29T15:56:01Z</time></trkpt><trkpt lat="36.87739742677816" lon="-108.11681154785586"><ele>1830.0</ele><time>2026-03-29T15:56:02Z</time></trkpt><trkpt lat="36.877474217750525" lon="-108.11687258997038"><ele>1830.0</ele><time>2026-03-29T15:56:03Z</time></trkpt><trkpt lat="36.87759757454753" lon="-108.11695886902372"><ele>1830.0</ele><time>2026-03-29T15:56:04Z</time></trkpt><trkpt lat="36.877721406259546" lon="-108.11705236085275"><ele>1830.0</ele><time>2026-03-29T15:56:05Z</time></trkpt><trkpt lat="36.87788326530177" lon="-108.11713899408062"><ele>1830.0</ele><time>2026-03-29T15:56:06Z</time></trkpt><trkpt lat="36.8780260492688" lon="-108.11723736379767"><ele>1830.0</ele><time>2026-03-29T15:56:07Z</time></trkpt><trkpt lat="36.87816280377027" lon="-108.11734947356017"><ele>1830.0</ele><time>2026-03-29T15:56:08Z</time></trkpt><trkpt lat="36.878277802958294" lon="-108.11744905664519"><ele>1830.6</ele><time>2026-03-29T15:56:09Z</time></trkpt><trkpt lat="36.878359117362834" lon="-108.11751057024424"><ele>1831.2</ele><time>2026-03-29T15:56:10Z</time></trkpt><trkpt lat="36.87843146888895" lon="-108.1175687391266"><ele>1831.8000000000002</ele><time>2026-03-29T15:56:11Z</time></trkpt><trkpt lat="36.87850738273873" lon="-108.1175317194364"><ele>1832.4</ele><time>2026-03-29T15:56:12Z</time></trkpt><trkpt lat="36.8785942455735" lon="-108.11748950047112"><ele>1833.0</ele><time>2026-03-29T15:56:13Z</time></trkpt><trkpt lat="36.87868637073388" lon="-108.11746164078255"><ele>1834.0</ele><time>2026-03-29T15:56:14Z</time></trkpt><trkpt lat="36.878774136338215" lon="-108.11747264299603"><ele>1835.0</ele><time>2026-03-29T15:56:15Z</time></trkpt><trkpt lat="36.878873204002964" lon="-108.1175354419797"><ele>1836.0</ele><time>2026-03-29T15:56:16Z</time></trkpt><trkpt lat="36.87897511501378" lon="-108.11762023828533"><ele>1837.0</ele><time>2026-03-29T15:56:17Z</time></trkpt><trkpt lat="36.879095067177445" lon="-108.117697212487"><ele>1837.0000000000002</ele><time>2026-03-29T15:56:18Z</time></trkpt><trkpt lat="36.879186582130416" lon="-108.11774364748453"><ele>1837.0</ele><time>2026-03-29T15:56:19Z</time></trkpt><trkpt lat="36.8792229500356" lon="-108.1178228408392"><ele>1837.0</ele><time>2026-03-29T15:56:20Z</time></trkpt><trkpt lat="36.8792841406595" lon="-108.1179160645367"><ele>1837.0</ele><time>2026-03-29T15:56:21Z</time></trkpt><trkpt lat="36.87934450548918" lon="-108.118008181393"><ele>1837.0000000000002</ele><time>2026-03-29T15:56:22Z</time></trkpt><trkpt lat="36.879404162212744" lon="-108.11807220431876"><ele>1837.0</ele><time>2026-03-29T15:56:23Z</time></trkpt><trkpt lat="36.879470639525685" lon="-108.11816419542244"><ele>1837.8</ele><time>2026-03-29T15:56:24Z</time></trkpt><trkpt lat="36.87955078791631" lon="-108.11821747416165"><ele>1838.6</ele><time>2026-03-29T15:56:25Z</time></trkpt><trkpt lat="36.87964510524276" lon="-108.11829624721146"><ele>1839.3999999999999</ele><time>2026-03-29T15:56:27Z</time></trkpt><trkpt lat="36.87972960451354" lon="-108.11829651756011"><ele>1840.1999999999998</ele><time>2026-03-29T15:56:28Z</time></trkpt><trkpt lat="36.879841968262895" lon="-108.11833231258163"><ele>1841.0</ele><time>2026-03-29T15:56:29Z</time></trkpt><trkpt lat="36.879902635117254" lon="-108.11836653735904"><ele>1842.5</ele><time>2026-03-29T15:56:30Z</time></trkpt><trkpt lat="36.880017512523715" lon="-108.11841923637319"><ele>1844.0</ele><time>2026-03-29T15:56:31Z</time></trkpt><trkpt lat="36.880151120617015" lon="-108.11846604158787"><ele>1845.5</ele><time>2026-03-29T15:56:32Z</time></trkpt><trkpt lat="36.88023298207346" lon="-108.11848522914389"><ele>1847.0</ele><time>2026-03-29T15:56:33Z</time></trkpt><trkpt lat="36.880371015545066" lon="-108.1186022612876"><ele>1847.8333333333333</ele><time>2026-03-29T15:56:35Z</time></trkpt><trkpt lat="36.880432115785965" lon="-108.11864969169812"><ele>1848.6666666666665</ele><time>2026-03-29T15:56:36Z</time></trkpt><trkpt lat="36.88050713903633" lon="-108.1187574744578"><ele>1849.5</ele><time>2026-03-29T15:56:38Z</time></trkpt><trkpt lat="36.880554286414714" lon="-108.11884365864597"><ele>1850.3333333333335</ele><time>2026-03-29T15:56:39Z</time></trkpt><trkpt lat="36.88056178755882" lon="-108.11893918128939"><ele>1851.1666666666667</ele><time>2026-03-29T15:56:40Z</time></trkpt><trkpt lat="36.88062044462317" lon="-108.11900487501563"><ele>1852.0</ele><time>2026-03-29T15:56:41Z</time></trkpt><trkpt lat="36.88069848047623" lon="-108.11906273146668"><ele>1852.8333333333335</ele><time>2026-03-29T15:56:42Z</time></trkpt><trkpt lat="36.88075078431334" lon="-108.11914865850927"><ele>1853.6666666666667</ele><time>2026-03-29T15:56:43Z</time></trkpt><trkpt lat="36.88082038904304" lon="-108.11920901964429"><ele>1854.5</ele><time>2026-03-29T15:56:44Z</time></trkpt><trkpt lat="36.8808566975374" lon="-108.11927897201552"><ele>1855.3333333333335</ele><time>2026-03-29T15:56:45Z</time></trkpt><trkpt lat="36.88090297944092" lon="-108.1193541684029"><ele>1856.1666666666667</ele><time>2026-03-29T15:56:46Z</time></trkpt><trkpt lat="36.88096494766659" lon="-108.11940122849083"><ele>1857.0</ele><time>2026-03-29T15:56:47Z</time></trkpt><trkpt lat="36.88103838014646" lon="-108.11941136889872"><ele>1857.8</ele><time>2026-03-29T15:56:48Z</time></trkpt><trkpt lat="36.88113908230283" lon="-108.1194364402259"><ele>1858.6</ele><time>2026-03-29T15:56:49Z</time></trkpt><trkpt lat="36.88122758156194" lon="-108.11939032846605"><ele>1859.3999999999999</ele><time>2026-03-29T15:56:50Z</time></trkpt><trkpt lat="36.88135010553591" lon="-108.11937611621178"><ele>1860.1999999999998</ele><time>2026-03-29T15:56:51Z</time></trkpt><trkpt lat="36.881466893401225" lon="-108.11937104685902"><ele>1861.0</ele><time>2026-03-29T15:56:52Z</time></trkpt><trkpt lat="36.88153300402185" lon="-108.11939341615445"><ele>1861.0</ele><time>2026-03-29T15:56:53Z</time></trkpt><trkpt lat="36.88163707623497" lon="-108.11940032848767"><ele>1861.0</ele><time>2026-03-29T15:56:54Z</time></trkpt><trkpt lat="36.8817261111405" lon="-108.11936697939291"><ele>1861.0</ele><time>2026-03-29T15:56:55Z</time></trkpt><trkpt lat="36.88179662947767" lon="-108.11938415504817"><ele>1861.0</ele><time>2026-03-29T15:56:56Z</time></trkpt><trkpt lat="36.88188462670911" lon="-108.1194284798113"><ele>1861.0</ele><time>2026-03-29T15:56:57Z</time></trkpt><trkpt lat="36.882010487871504" lon="-108.11943028368314"><ele>1861.8</ele><time>2026-03-29T15:56:58Z</time></trkpt><trkpt lat="36.88209884589918" lon="-108.11938172907763"><ele>1862.6</ele><time>2026-03-29T15:56:59Z</time></trkpt><trkpt lat="36.88218653381231" lon="-108.11934416228856"><ele>1863.4</ele><time>2026-03-29T15:57:00Z</time></trkpt><trkpt lat="36.882270733231294" lon="-108.1193454603588"><ele>1864.2</ele><time>2026-03-29T15:57:01Z</time></trkpt><trkpt lat="36.88236328795477" lon="-108.1193376034832"><ele>1865.0</ele><time>2026-03-29T15:57:02Z</time></trkpt><trkpt lat="36.88246512911977" lon="-108.11931349362602"><ele>1865.0</ele><time>2026-03-29T15:57:03Z</time></trkpt><trkpt lat="36.882560165935686" lon="-108.11939440483599"><ele>1865.0</ele><time>2026-03-29T15:57:05Z</time></trkpt><trkpt lat="36.882548012961124" lon="-108.11951935261908"><ele>1865.0</ele><time>2026-03-29T15:57:07Z</time></trkpt><trkpt lat="36.88249011205031" lon="-108.11963639832723"><ele>1865.0</ele><time>2026-03-29T15:57:08Z</time></trkpt><trkpt lat="36.88245399090891" lon="-108.1197909020078"><ele>1865.0</ele><time>2026-03-29T15:57:09Z</time></trkpt><trkpt lat="36.882461328748775" lon="-108.11995729073784"><ele>1865.0</ele><time>2026-03-29T15:57:10Z</time></trkpt><trkpt lat="36.88244878649297" lon="-108.12015413506339"><ele>1865.0</ele><time>2026-03-29T15:57:11Z</time></trkpt><trkpt lat="36.8824403983439" lon="-108.120363879317"><ele>1865.0</ele><time>2026-03-29T15:57:12Z</time></trkpt><trkpt lat="36.88243895014123" lon="-108.1205798109561"><ele>1865.0</ele><time>2026-03-29T15:57:13Z</time></trkpt><trkpt lat="36.88245642069194" lon="-108.12082769786835"><ele>1865.0</ele><time>2026-03-29T15:57:14Z</time></trkpt><trkpt lat="36.882504526768074" lon="-108.12108828262274"><ele>1866.0</ele><time>2026-03-29T15:57:15Z</time></trkpt><trkpt lat="36.88254692784853" lon="-108.12131961405615"><ele>1867.0</ele><time>2026-03-29T15:57:16Z</time></trkpt><trkpt lat="36.882555508337276" lon="-108.12152533912702"><ele>1868.0</ele><time>2026-03-29T15:57:17Z</time></trkpt><trkpt lat="36.88253542850059" lon="-108.12172470093574"><ele>1868.0</ele><time>2026-03-29T15:57:18Z</time></trkpt><trkpt lat="36.88250465896723" lon="-108.12193623927963"><ele>1868.0</ele><time>2026-03-29T15:57:19Z</time></trkpt><trkpt lat="36.88247272371643" lon="-108.12210161792481"><ele>1868.0</ele><time>2026-03-29T15:57:20Z</time></trkpt><trkpt lat="36.88243599920671" lon="-108.12221866855148"><ele>1868.0</ele><time>2026-03-29T15:57:21Z</time></trkpt><trkpt lat="36.882385682976754" lon="-108.12229211112549"><ele>1868.0</ele><time>2026-03-29T15:57:22Z</time></trkpt><trkpt lat="36.88230758177171" lon="-108.1223779590316"><ele>1868.0</ele><time>2026-03-29T15:57:23Z</time></trkpt><trkpt lat="36.882220338889894" lon="-108.1224786406479"><ele>1868.0</ele><time>2026-03-29T15:57:24Z</time></trkpt><trkpt lat="36.88211344946894" lon="-108.12258248579748"><ele>1868.0</ele><time>2026-03-29T15:57:25Z</time></trkpt><trkpt lat="36.88200615192015" lon="-108.12269247207956"><ele>1868.0</ele><time>2026-03-29T15:57:26Z</time></trkpt><trkpt lat="36.88192162164223" lon="-108.12275617512124"><ele>1868.0000000000002</ele><time>2026-03-29T15:57:27Z</time></trkpt><trkpt lat="36.8818454632889" lon="-108.12278583462233"><ele>1868.0000000000002</ele><time>2026-03-29T15:57:28Z</time></trkpt><trkpt lat="36.88173024851097" lon="-108.12278556970217"><ele>1868.0</ele><time>2026-03-29T15:57:29Z</time></trkpt><trkpt lat="36.88162707800389" lon="-108.12273526305111"><ele>1868.0</ele><time>2026-03-29T15:57:30Z</time></trkpt><trkpt lat="36.881536561762765" lon="-108.12265701440418"><ele>1868.0</ele><time>2026-03-29T15:57:31Z</time></trkpt><trkpt lat="36.8814403481831" lon="-108.12267813670017"><ele>1868.0000000000002</ele><time>2026-03-29T15:57:32Z</time></trkpt><trkpt lat="36.881382366003585" lon="-108.1227573547073"><ele>1868.0000000000002</ele><time>2026-03-29T15:57:33Z</time></trkpt><trkpt lat="36.88133411117624" lon="-108.12287537459902"><ele>1868.0</ele><time>2026-03-29T15:57:34Z</time></trkpt><trkpt lat="36.88126632897414" lon="-108.12294632508289"><ele>1868.0</ele><time>2026-03-29T15:57:35Z</time></trkpt><trkpt lat="36.8811884596112" lon="-108.12298102777264"><ele>1868.0</ele><time>2026-03-29T15:57:36Z</time></trkpt><trkpt lat="36.88108950118707" lon="-108.12299246624745"><ele>1868.0</ele><time>2026-03-29T15:57:37Z</time></trkpt><trkpt lat="36.88099734555953" lon="-108.12298229459469"><ele>1868.0</ele><time>2026-03-29T15:57:38Z</time></trkpt><trkpt lat="36.88085679815239" lon="-108.12306429796523"><ele>1868.0</ele><time>2026-03-29T15:57:40Z</time></trkpt><trkpt lat="36.88074867090833" lon="-108.12314301229614"><ele>1867.4</ele><time>2026-03-29T15:57:41Z</time></trkpt><trkpt lat="36.8806719024132" lon="-108.12320303115109"><ele>1866.8000000000002</ele><time>2026-03-29T15:57:42Z</time></trkpt><trkpt lat="36.88060148645992" lon="-108.12330258416397"><ele>1866.2</ele><time>2026-03-29T15:57:43Z</time></trkpt><trkpt lat="36.88055631960185" lon="-108.12343160645854"><ele>1865.6</ele><time>2026-03-29T15:57:44Z</time></trkpt><trkpt lat="36.88052075285857" lon="-108.12353374902848"><ele>1865.0</ele><time>2026-03-29T15:57:45Z</time></trkpt><trkpt lat="36.88044546780727" lon="-108.12356016358291"><ele>1865.0</ele><time>2026-03-29T15:57:46Z</time></trkpt><trkpt lat="36.88036197664652" lon="-108.12362990312712"><ele>1865.0</ele><time>2026-03-29T15:57:47Z</time></trkpt><trkpt lat="36.880259743334335" lon="-108.12371780027655"><ele>1865.0</ele><time>2026-03-29T15:57:48Z</time></trkpt><trkpt lat="36.880159435605414" lon="-108.1237678575321"><ele>1865.0</ele><time>2026-03-29T15:57:49Z</time></trkpt><trkpt lat="36.880040603814756" lon="-108.12381469635615"><ele>1864.6</ele><time>2026-03-29T15:57:50Z</time></trkpt><trkpt lat="36.87992284229802" lon="-108.12384772740245"><ele>1864.2</ele><time>2026-03-29T15:57:51Z</time></trkpt><trkpt lat="36.87982377937638" lon="-108.12388810021903"><ele>1863.8000000000002</ele><time>2026-03-29T15:57:52Z</time></trkpt><trkpt lat="36.87971572164673" lon="-108.12390578759087"><ele>1863.4</ele><time>2026-03-29T15:57:53Z</time></trkpt><trkpt lat="36.87961794647361" lon="-108.12394781011925"><ele>1863.0</ele><time>2026-03-29T15:57:54Z</time></trkpt><trkpt lat="36.87952494135577" lon="-108.12398737845548"><ele>1863.0</ele><time>2026-03-29T15:57:55Z</time></trkpt><trkpt lat="36.87940184392764" lon="-108.12396828105169"><ele>1863.0000000000002</ele><time>2026-03-29T15:57:56Z</time></trkpt><trkpt lat="36.879303983973045" lon="-108.12391582218105"><ele>1863.0000000000002</ele><time>2026-03-29T15:57:57Z</time></trkpt><trkpt lat="36.87920924540554" lon="-108.12393983760386"><ele>1863.0</ele><time>2026-03-29T15:57:58Z</time></trkpt><trkpt lat="36.87911413678281" lon="-108.1240296646302"><ele>1863.0</ele><time>2026-03-29T15:57:59Z</time></trkpt><trkpt lat="36.878993837094846" lon="-108.12414708187508"><ele>1863.0</ele><time>2026-03-29T15:58:00Z</time></trkpt><trkpt lat="36.87887737065147" lon="-108.1242415196872"><ele>1863.0000000000002</ele><time>2026-03-29T15:58:01Z</time></trkpt><trkpt lat="36.87880656386422" lon="-108.12432402967583"><ele>1863.0000000000002</ele><time>2026-03-29T15:58:02Z</time></trkpt><trkpt lat="36.878740547375635" lon="-108.12439341375465"><ele>1863.0</ele><time>2026-03-29T15:58:03Z</time></trkpt><trkpt lat="36.87865707633051" lon="-108.12448980998872"><ele>1863.0</ele><time>2026-03-29T15:58:04Z</time></trkpt><trkpt lat="36.8785917133569" lon="-108.1245992176777"><ele>1863.0</ele><time>2026-03-29T15:58:05Z</time></trkpt><trkpt lat="36.878537584427015" lon="-108.12470190721375"><ele>1863.0000000000002</ele><time>2026-03-29T15:58:06Z</time></trkpt><trkpt lat="36.87847124508807" lon="-108.12479759019416"><ele>1863.0000000000002</ele><time>2026-03-29T15:58:07Z</time></trkpt><trkpt lat="36.87840152679626" lon="-108.12487348532892"><ele>1863.0</ele><time>2026-03-29T15:58:08Z</time></trkpt><trkpt lat="36.87834391631129" lon="-108.12496471593765"><ele>1863.0</ele><time>2026-03-29T15:58:09Z</time></trkpt><trkpt lat="36.8783055773886" lon="-108.1250523940011"><ele>1862.6666666666667</ele><time>2026-03-29T15:58:10Z</time></trkpt><trkpt lat="36.878270130084495" lon="-108.12515179701212"><ele>1862.3333333333335</ele><time>2026-03-29T15:58:11Z</time></trkpt><trkpt lat="36.87822249192342" lon="-108.12523853672177"><ele>1862.0</ele><time>2026-03-29T15:58:12Z</time></trkpt><trkpt lat="36.87816157465944" lon="-108.1252710944207"><ele>1861.6666666666667</ele><time>2026-03-29T15:58:13Z</time></trkpt><trkpt lat="36.878077161917865" lon="-108.12527102818302"><ele>1861.3333333333335</ele><time>2026-03-29T15:58:14Z</time></trkpt><trkpt lat="36.87796831308929" lon="-108.1252132705434"><ele>1861.0</ele><time>2026-03-29T15:58:15Z</time></trkpt><trkpt lat="36.87787590682668" lon="-108.12519760600553"><ele>1861.0</ele><time>2026-03-29T15:58:16Z</time></trkpt><trkpt lat="36.87779675061887" lon="-108.12520594303854"><ele>1861.0</ele><time>2026-03-29T15:58:17Z</time></trkpt><trkpt lat="36.877695179276685" lon="-108.12524749066259"><ele>1861.0</ele><time>2026-03-29T15:58:18Z</time></trkpt><trkpt lat="36.87759761332573" lon="-108.12532342142616"><ele>1861.0</ele><time>2026-03-29T15:58:19Z</time></trkpt><trkpt lat="36.87753472022875" lon="-108.12542001344862"><ele>1861.0</ele><time>2026-03-29T15:58:20Z</time></trkpt><trkpt lat="36.87744346753907" lon="-108.12551351340406"><ele>1861.0</ele><time>2026-03-29T15:58:21Z</time></trkpt><trkpt lat="36.87736384936992" lon="-108.12559235653272"><ele>1861.0</ele><time>2026-03-29T15:58:22Z</time></trkpt><trkpt lat="36.87729466824929" lon="-108.12567879364286"><ele>1861.0</ele><time>2026-03-29T15:58:23Z</time></trkpt><trkpt lat="36.87724825245546" lon="-108.12579811338738"><ele>1861.0</ele><time>2026-03-29T15:58:24Z</time></trkpt><trkpt lat="36.87722398824739" lon="-108.12589686502233"><ele>1861.0</ele><time>2026-03-29T15:58:25Z</time></trkpt><trkpt lat="36.8771576753549" lon="-108.12601073621063"><ele>1860.8</ele><time>2026-03-29T15:58:26Z</time></trkpt><trkpt lat="36.87708507180376" lon="-108.12610774452881"><ele>1860.6</ele><time>2026-03-29T15:58:27Z</time></trkpt><trkpt lat="36.877016323177166" lon="-108.12621833633156"><ele>1860.4</ele><time>2026-03-29T15:58:28Z</time></trkpt><trkpt lat="36.87696427726183" lon="-108.12633871301801"><ele>1860.2</ele><time>2026-03-29T15:58:29Z</time></trkpt><trkpt lat="36.87690856487828" lon="-108.12642777605566"><ele>1860.0</ele><time>2026-03-29T15:58:30Z</time></trkpt><trkpt lat="36.87682594451185" lon="-108.12650527849556"><ele>1860.2</ele><time>2026-03-29T15:58:31Z</time></trkpt><trkpt lat="36.87674846180273" lon="-108.12656057413898"><ele>1860.4</ele><time>2026-03-29T15:58:32Z</time></trkpt><trkpt lat="36.876653657535726" lon="-108.12660742465998"><ele>1860.6</ele><time>2026-03-29T15:58:33Z</time></trkpt><trkpt lat="36.87654990810226" lon="-108.12664474472047"><ele>1860.8</ele><time>2026-03-29T15:58:34Z</time></trkpt><trkpt lat="36.876450313348656" lon="-108.1266779049231"><ele>1861.0</ele><time>2026-03-29T15:58:35Z</time></trkpt><trkpt lat="36.876359380662194" lon="-108.12671524834438"><ele>1861.0</ele><time>2026-03-29T15:58:36Z</time></trkpt><trkpt lat="36.876293029424446" lon="-108.12674209847056"><ele>1861.0</ele><time>2026-03-29T15:58:37Z</time></trkpt><trkpt lat="36.8762441968251" lon="-108.12681773840873"><ele>1861.0</ele><time>2026-03-29T15:58:38Z</time></trkpt><trkpt lat="36.87616923258187" lon="-108.12689186696241"><ele>1861.0</ele><time>2026-03-29T15:58:39Z</time></trkpt><trkpt lat="36.876086261040314" lon="-108.12698084209731"><ele>1861.0</ele><time>2026-03-29T15:58:40Z</time></trkpt><trkpt lat="36.87601644833881" lon="-108.12708609126042"><ele>1861.0</ele><time>2026-03-29T15:58:41Z</time></trkpt><trkpt lat="36.876034717514486" lon="-108.12719121401271"><ele>1861.0</ele><time>2026-03-29T15:58:43Z</time></trkpt><trkpt lat="36.87611378969365" lon="-108.12722536054872"><ele>1861.0</ele><time>2026-03-29T15:58:44Z</time></trkpt><trkpt lat="36.87616657275678" lon="-108.12731960108306"><ele>1861.0</ele><time>2026-03-29T15:58:45Z</time></trkpt><trkpt lat="36.87621208500008" lon="-108.12746328187484"><ele>1861.0</ele><time>2026-03-29T15:58:46Z</time></trkpt><trkpt lat="36.87623133360482" lon="-108.12758560153162"><ele>1861.0</ele><time>2026-03-29T15:58:47Z</time></trkpt><trkpt lat="36.876239781467675" lon="-108.12773316429548"><ele>1861.0</ele><time>2026-03-29T15:58:48Z</time></trkpt><trkpt lat="36.876248305213785" lon="-108.12786905133794"><ele>1861.0</ele><time>2026-03-29T15:58:49Z</time></trkpt><trkpt lat="36.8762808707945" lon="-108.12797826570721"><ele>1861.0</ele><time>2026-03-29T15:58:50Z</time></trkpt><trkpt lat="36.876301785060775" lon="-108.12810696877219"><ele>1861.0</ele><time>2026-03-29T15:58:51Z</time></trkpt><trkpt lat="36.87628513036099" lon="-108.12821724404499"><ele>1860.6</ele><time>2026-03-29T15:58:52Z</time></trkpt><trkpt lat="36.87624885487566" lon="-108.12833715768994"><ele>1860.1999999999998</ele><time>2026-03-29T15:58:53Z</time></trkpt><trkpt lat="36.87620876841832" lon="-108.12846812058494"><ele>1859.8000000000002</ele><time>2026-03-29T15:58:54Z</time></trkpt><trkpt lat="36.87619096226791" lon="-108.12860252863085"><ele>1859.4</ele><time>2026-03-29T15:58:55Z</time></trkpt><trkpt lat="36.87618699890993" lon="-108.12872199994068"><ele>1859.0</ele><time>2026-03-29T15:58:56Z</time></trkpt><trkpt lat="36.876165757292156" lon="-108.12886492125172"><ele>1858.9999999999998</ele><time>2026-03-29T15:58:57Z</time></trkpt><trkpt lat="36.876128217978064" lon="-108.12896498289619"><ele>1859.0</ele><time>2026-03-29T15:58:58Z</time></trkpt><trkpt lat="36.87609501286488" lon="-108.12904618579803"><ele>1859.0</ele><time>2026-03-29T15:58:59Z</time></trkpt><trkpt lat="36.876100180722275" lon="-108.1291444091578"><ele>1859.0</ele><time>2026-03-29T15:59:00Z</time></trkpt><trkpt lat="36.87610093635593" lon="-108.129249606766"><ele>1858.9999999999998</ele><time>2026-03-29T15:59:01Z</time></trkpt><trkpt lat="36.876057670672395" lon="-108.1293632385358"><ele>1859.0</ele><time>2026-03-29T15:59:02Z</time></trkpt><trkpt lat="36.87599186316254" lon="-108.12946817285017"><ele>1858.9999999999998</ele><time>2026-03-29T15:59:03Z</time></trkpt><trkpt lat="36.875919944025355" lon="-108.12949459763415"><ele>1859.0</ele><time>2026-03-29T15:59:04Z</time></trkpt><trkpt lat="36.875853282419605" lon="-108.1294844121951"><ele>1859.0</ele><time>2026-03-29T15:59:05Z</time></trkpt><trkpt lat="36.87577262509814" lon="-108.12946963680729"><ele>1859.0</ele><time>2026-03-29T15:59:06Z</time></trkpt><trkpt lat="36.87567484854905" lon="-108.12940677573239"><ele>1858.9999999999998</ele><time>2026-03-29T15:59:07Z</time></trkpt><trkpt lat="36.87558966868006" lon="-108.12933492254346"><ele>1859.0</ele><time>2026-03-29T15:59:08Z</time></trkpt><trkpt lat="36.875502307601906" lon="-108.12921051802196"><ele>1859.0</ele><time>2026-03-29T15:59:10Z</time></trkpt><trkpt lat="36.875424404828074" lon="-108.12918846828"><ele>1859.0</ele><time>2026-03-29T15:59:11Z</time></trkpt><trkpt lat="36.875325079234244" lon="-108.12921063682957"><ele>1859.0</ele><time>2026-03-29T15:59:12Z</time></trkpt><trkpt lat="36.8752362869549" lon="-108.12922455781653"><ele>1859.0</ele><time>2026-03-29T15:59:13Z</time></trkpt><trkpt lat="36.87514841693817" lon="-108.12925273892164"><ele>1859.0</ele><time>2026-03-29T15:59:14Z</time></trkpt><trkpt lat="36.87504988403088" lon="-108.1292943505097"><ele>1857.4</ele><time>2026-03-29T15:59:15Z</time></trkpt><trkpt lat="36.87495897445489" lon="-108.12933596631245"><ele>1855.8000000000002</ele><time>2026-03-29T15:59:16Z</time></trkpt><trkpt lat="36.874866755970395" lon="-108.12937209068636"><ele>1854.1999999999998</ele><time>2026-03-29T15:59:17Z</time></trkpt><trkpt lat="36.874766464879" lon="-108.12939519978681"><ele>1852.6</ele><time>2026-03-29T15:59:18Z</time></trkpt><trkpt lat="36.87469686228633" lon="-108.12947388655854"><ele>1851.0</ele><time>2026-03-29T15:59:19Z</time></trkpt><trkpt lat="36.87466730377987" lon="-108.12959176062112"><ele>1851.0</ele><time>2026-03-29T15:59:20Z</time></trkpt><trkpt lat="36.87467976752848" lon="-108.12970689739538"><ele>1851.0</ele><time>2026-03-29T15:59:21Z</time></trkpt><trkpt lat="36.874652740591024" lon="-108.12981738172408"><ele>1851.0</ele><time>2026-03-29T15:59:22Z</time></trkpt><trkpt lat="36.87458007928809" lon="-108.12992126912401"><ele>1851.0</ele><time>2026-03-29T15:59:23Z</time></trkpt><trkpt lat="36.87453095037683" lon="-108.13005694311578"><ele>1851.0</ele><time>2026-03-29T15:59:24Z</time></trkpt><trkpt lat="36.8745151285103" lon="-108.13017895558701"><ele>1850.1666666666667</ele><time>2026-03-29T15:59:25Z</time></trkpt><trkpt lat="36.87448788445222" lon="-108.13027498410278"><ele>1849.3333333333335</ele><time>2026-03-29T15:59:26Z</time></trkpt><trkpt lat="36.87445504010419" lon="-108.13034506123108"><ele>1848.5</ele><time>2026-03-29T15:59:27Z</time></trkpt><trkpt lat="36.87444480891472" lon="-108.13043101978789"><ele>1847.6666666666667</ele><time>2026-03-29T15:59:28Z</time></trkpt><trkpt lat="36.87442518584589" lon="-108.13053749281127"><ele>1846.8333333333335</ele><time>2026-03-29T15:59:29Z</time></trkpt><trkpt lat="36.87442167528221" lon="-108.13066316645859"><ele>1846.0</ele><time>2026-03-29T15:59:30Z</time></trkpt><trkpt lat="36.87440741913866" lon="-108.1307547958917"><ele>1845.0</ele><time>2026-03-29T15:59:31Z</time></trkpt><trkpt lat="36.87443501076242" lon="-108.13086601183575"><ele>1844.0</ele><time>2026-03-29T15:59:32Z</time></trkpt><trkpt lat="36.87446577372497" lon="-108.13097754649701"><ele>1843.0</ele><time>2026-03-29T15:59:33Z</time></trkpt><trkpt lat="36.87446579936144" lon="-108.13110494356647"><ele>1842.0</ele><time>2026-03-29T15:59:34Z</time></trkpt><trkpt lat="36.87444083257666" lon="-108.13124099313353"><ele>1841.0</ele><time>2026-03-29T15:59:35Z</time></trkpt><trkpt lat="36.87443609298276" lon="-108.13135836357316"><ele>1841.0</ele><time>2026-03-29T15:59:36Z</time></trkpt><trkpt lat="36.87449840076246" lon="-108.13148998975211"><ele>1841.0</ele><time>2026-03-29T15:59:37Z</time></trkpt><trkpt lat="36.87454918254656" lon="-108.13163923361034"><ele>1841.0</ele><time>2026-03-29T15:59:38Z</time></trkpt><trkpt lat="36.874592359884446" lon="-108.1317472190149"><ele>1841.0</ele><time>2026-03-29T15:59:39Z</time></trkpt><trkpt lat="36.87464101941276" lon="-108.13182231137539"><ele>1841.0</ele><time>2026-03-29T15:59:40Z</time></trkpt><trkpt lat="36.87463430859372" lon="-108.13192153831754"><ele>1839.0</ele><time>2026-03-29T15:59:41Z</time></trkpt><trkpt lat="36.87453689190751" lon="-108.13203575102101"><ele>1837.0</ele><time>2026-03-29T15:59:42Z</time></trkpt><trkpt lat="36.874430487256504" lon="-108.13216601003896"><ele>1835.0</ele><time>2026-03-29T15:59:43Z</time></trkpt><trkpt lat="36.87437603646798" lon="-108.13231015968577"><ele>1833.0</ele><time>2026-03-29T15:59:44Z</time></trkpt><trkpt lat="36.87436282915396" lon="-108.13245750922758"><ele>1831.6000000000001</ele><time>2026-03-29T15:59:45Z</time></trkpt><trkpt lat="36.87436684566051" lon="-108.13255424253637"><ele>1830.2000000000003</ele><time>2026-03-29T15:59:46Z</time></trkpt><trkpt lat="36.874385522017114" lon="-108.13262982052045"><ele>1828.8</ele><time>2026-03-29T15:59:47Z</time></trkpt><trkpt lat="36.874329072181666" lon="-108.13268257225107"><ele>1827.4</ele><time>2026-03-29T15:59:48Z</time></trkpt><trkpt lat="36.87421292650589" lon="-108.1327634361375"><ele>1826.0</ele><time>2026-03-29T15:59:49Z</time></trkpt><trkpt lat="36.8741444227252" lon="-108.1328688865395"><ele>1826.0</ele><time>2026-03-29T15:59:50Z</time></trkpt><trkpt lat="36.87413214716208" lon="-108.13300768677112"><ele>1826.0</ele><time>2026-03-29T15:59:51Z</time></trkpt><trkpt lat="36.874103289870455" lon="-108.13316554782429"><ele>1826.0</ele><time>2026-03-29T15:59:52Z</time></trkpt><trkpt lat="36.87408643284535" lon="-108.13334476831605"><ele>1826.0</ele><time>2026-03-29T15:59:53Z</time></trkpt><trkpt lat="36.8741138407196" lon="-108.1335183859593"><ele>1825.0</ele><time>2026-03-29T15:59:54Z</time></trkpt><trkpt lat="36.874119844311" lon="-108.13372038590211"><ele>1824.0</ele><time>2026-03-29T15:59:55Z</time></trkpt><trkpt lat="36.87411886061888" lon="-108.1339576235387"><ele>1823.0</ele><time>2026-03-29T15:59:56Z</time></trkpt><trkpt lat="36.87411773877301" lon="-108.13418881711573"><ele>1822.25</ele><time>2026-03-29T15:59:57Z</time></trkpt><trkpt lat="36.87408002894171" lon="-108.13434232664862"><ele>1821.5</ele><time>2026-03-29T15:59:58Z</time></trkpt><trkpt lat="36.874035264030226" lon="-108.1344759292592"><ele>1820.75</ele><time>2026-03-29T15:59:59Z</time></trkpt><trkpt lat="36.873950972528654" lon="-108.13458120808092"><ele>1820.0</ele><time>2026-03-29T16:00:00Z</time></trkpt><trkpt lat="36.87384516303744" lon="-108.1346760763695"><ele>1820.0</ele><time>2026-03-29T16:00:01Z</time></trkpt><trkpt lat="36.873765537179814" lon="-108.1347995543969"><ele>1820.0</ele><time>2026-03-29T16:00:02Z</time></trkpt><trkpt lat="36.87371024348041" lon="-108.13493865751688"><ele>1820.0</ele><time>2026-03-29T16:00:03Z</time></trkpt><trkpt lat="36.873637605989884" lon="-108.13503221048443"><ele>1820.0</ele><time>2026-03-29T16:00:04Z</time></trkpt><trkpt lat="36.873537224494335" lon="-108.1350975989692"><ele>1819.5</ele><time>2026-03-29T16:00:05Z</time></trkpt><trkpt lat="36.87342357874043" lon="-108.1352076316885"><ele>1819.0</ele><time>2026-03-29T16:00:06Z</time></trkpt><trkpt lat="36.8733503399264" lon="-108.13534920687422"><ele>1818.5</ele><time>2026-03-29T16:00:07Z</time></trkpt><trkpt lat="36.87325123459754" lon="-108.13550329940799"><ele>1818.0</ele><time>2026-03-29T16:00:08Z</time></trkpt><trkpt lat="36.873133532461004" lon="-108.13562966955377"><ele>1817.75</ele><time>2026-03-29T16:00:09Z</time></trkpt><trkpt lat="36.873059163134855" lon="-108.13577546209976"><ele>1817.5</ele><time>2026-03-29T16:00:10Z</time></trkpt><trkpt lat="36.87297510097818" lon="-108.13588138530433"><ele>1817.25</ele><time>2026-03-29T16:00:11Z</time></trkpt><trkpt lat="36.87288410423805" lon="-108.13594422327301"><ele>1817.0</ele><time>2026-03-29T16:00:12Z</time></trkpt><trkpt lat="36.872769837359535" lon="-108.13595416804817"><ele>1817.0</ele><time>2026-03-29T16:00:13Z</time></trkpt><trkpt lat="36.872622545015425" lon="-108.13593436674788"><ele>1817.0</ele><time>2026-03-29T16:00:14Z</time></trkpt><trkpt lat="36.87247267314861" lon="-108.13590030450561"><ele>1817.0</ele><time>2026-03-29T16:00:15Z</time></trkpt><trkpt lat="36.8723763000149" lon="-108.13582149233942"><ele>1817.0</ele><time>2026-03-29T16:00:16Z</time></trkpt><trkpt lat="36.872286524787" lon="-108.13578098117507"><ele>1816.75</ele><time>2026-03-29T16:00:17Z</time></trkpt><trkpt lat="36.87216446773787" lon="-108.13584131952248"><ele>1816.5</ele><time>2026-03-29T16:00:18Z</time></trkpt><trkpt lat="36.8720530075249" lon="-108.13592968208488"><ele>1816.25</ele><time>2026-03-29T16:00:19Z</time></trkpt><trkpt lat="36.87197462974556" lon="-108.13598977791997"><ele>1816.0</ele><time>2026-03-29T16:00:20Z</time></trkpt><trkpt lat="36.8718789803786" lon="-108.13597887484939"><ele>1816.0</ele><time>2026-03-29T16:00:21Z</time></trkpt><trkpt lat="36.871775617379" lon="-108.13596393111976"><ele>1816.0</ele><time>2026-03-29T16:00:22Z</time></trkpt><trkpt lat="36.871674378322105" lon="-108.13598428588129"><ele>1816.0</ele><time>2026-03-29T16:00:23Z</time></trkpt><trkpt lat="36.871533480326825" lon="-108.13601196423375"><ele>1816.0</ele><time>2026-03-29T16:00:24Z</time></trkpt><trkpt lat="36.871369088659215" lon="-108.13602738843531"><ele>1815.5</ele><time>2026-03-29T16:00:25Z</time></trkpt><trkpt lat="36.871223924945575" lon="-108.13604595848514"><ele>1815.0</ele><time>2026-03-29T16:00:26Z</time></trkpt><trkpt lat="36.871095757038944" lon="-108.13603585581845"><ele>1814.5</ele><time>2026-03-29T16:00:27Z</time></trkpt><trkpt lat="36.8709579194554" lon="-108.13600372544046"><ele>1814.0</ele><time>2026-03-29T16:00:28Z</time></trkpt><trkpt lat="36.870812547763336" lon="-108.13594831309176"><ele>1813.0</ele><time>2026-03-29T16:00:29Z</time></trkpt><trkpt lat="36.87068813774899" lon="-108.13589492622104"><ele>1812.0</ele><time>2026-03-29T16:00:30Z</time></trkpt><trkpt lat="36.87057810182356" lon="-108.13587058477232"><ele>1811.0</ele><time>2026-03-29T16:00:31Z</time></trkpt><trkpt lat="36.870457688922905" lon="-108.13588667783245"><ele>1810.0</ele><time>2026-03-29T16:00:32Z</time></trkpt><trkpt lat="36.87033527421205" lon="-108.13590695408794"><ele>1810.0</ele><time>2026-03-29T16:00:33Z</time></trkpt><trkpt lat="36.87021910756286" lon="-108.13589718202965"><ele>1810.0</ele><time>2026-03-29T16:00:34Z</time></trkpt><trkpt lat="36.870121913014536" lon="-108.13591773668198"><ele>1810.0</ele><time>2026-03-29T16:00:35Z</time></trkpt><trkpt lat="36.870042624364395" lon="-108.13595280062223"><ele>1810.0</ele><time>2026-03-29T16:00:36Z</time></trkpt><trkpt lat="36.86999423748022" lon="-108.13587218147701"><ele>1810.0</ele><time>2026-03-29T16:00:37Z</time></trkpt><trkpt lat="36.869899450537254" lon="-108.13578808883166"><ele>1810.8</ele><time>2026-03-29T16:00:38Z</time></trkpt><trkpt lat="36.86979361325644" lon="-108.13571702623935"><ele>1811.6</ele><time>2026-03-29T16:00:39Z</time></trkpt><trkpt lat="36.869700344634865" lon="-108.13568852801657"><ele>1812.4</ele><time>2026-03-29T16:00:40Z</time></trkpt><trkpt lat="36.869620359737894" lon="-108.13569319266671"><ele>1813.2</ele><time>2026-03-29T16:00:41Z</time></trkpt><trkpt lat="36.869583481679385" lon="-108.13560121080177"><ele>1814.0</ele><time>2026-03-29T16:00:42Z</time></trkpt><trkpt lat="36.86958942954412" lon="-108.13546070436081"><ele>1814.0</ele><time>2026-03-29T16:00:43Z</time></trkpt><trkpt lat="36.869615358558406" lon="-108.13532519571827"><ele>1814.0</ele><time>2026-03-29T16:00:44Z</time></trkpt><trkpt lat="36.869628026950885" lon="-108.13520288258259"><ele>1814.0</ele><time>2026-03-29T16:00:45Z</time></trkpt><trkpt lat="36.86963353437329" lon="-108.1350715360823"><ele>1814.0</ele><time>2026-03-29T16:00:46Z</time></trkpt><trkpt lat="36.86967103467418" lon="-108.13494927850695"><ele>1814.0</ele><time>2026-03-29T16:00:47Z</time></trkpt><trkpt lat="36.86956376199223" lon="-108.13481696194135"><ele>1814.0</ele><time>2026-03-29T16:00:49Z</time></trkpt><trkpt lat="36.86947622602385" lon="-108.13474561515098"><ele>1814.0</ele><time>2026-03-29T16:00:50Z</time></trkpt><trkpt lat="36.86937477478371" lon="-108.13470336342672"><ele>1814.0</ele><time>2026-03-29T16:00:51Z</time></trkpt><trkpt lat="36.86928962600162" lon="-108.13466126326091"><ele>1814.0</ele><time>2026-03-29T16:00:52Z</time></trkpt><trkpt lat="36.86920875645081" lon="-108.13459211802794"><ele>1814.0</ele><time>2026-03-29T16:00:53Z</time></trkpt><trkpt lat="36.86911757539558" lon="-108.1345500789755"><ele>1815.0</ele><time>2026-03-29T16:00:54Z</time></trkpt><trkpt lat="36.869003620201035" lon="-108.13455888746702"><ele>1816.0</ele><time>2026-03-29T16:00:55Z</time></trkpt><trkpt lat="36.8688847134194" lon="-108.13460226276152"><ele>1817.0</ele><time>2026-03-29T16:00:56Z</time></trkpt><trkpt lat="36.86876842761828" lon="-108.13464751349777"><ele>1818.0</ele><time>2026-03-29T16:00:57Z</time></trkpt><trkpt lat="36.868661155783975" lon="-108.13467352334324"><ele>1818.0</ele><time>2026-03-29T16:00:58Z</time></trkpt><trkpt lat="36.868563857724" lon="-108.13469388473234"><ele>1818.0000000000002</ele><time>2026-03-29T16:00:59Z</time></trkpt><trkpt lat="36.868509738988294" lon="-108.13476469757335"><ele>1818.0000000000002</ele><time>2026-03-29T16:01:00Z</time></trkpt><trkpt lat="36.86849596243634" lon="-108.13488995642831"><ele>1818.0</ele><time>2026-03-29T16:01:01Z</time></trkpt><trkpt lat="36.86848477416424" lon="-108.13502515039336"><ele>1818.0</ele><time>2026-03-29T16:01:02Z</time></trkpt><trkpt lat="36.868422383635846" lon="-108.13513759722369"><ele>1818.1666666666667</ele><time>2026-03-29T16:01:03Z</time></trkpt><trkpt lat="36.86835481483834" lon="-108.1351700296573"><ele>1818.3333333333335</ele><time>2026-03-29T16:01:04Z</time></trkpt><trkpt lat="36.868342733147124" lon="-108.13524766853367"><ele>1818.5</ele><time>2026-03-29T16:01:05Z</time></trkpt><trkpt lat="36.86831285239752" lon="-108.13535701647292"><ele>1818.6666666666667</ele><time>2026-03-29T16:01:06Z</time></trkpt><trkpt lat="36.86821502921283" lon="-108.13541754468812"><ele>1818.8333333333335</ele><time>2026-03-29T16:01:07Z</time></trkpt><trkpt lat="36.86812000949337" lon="-108.1354444780343"><ele>1819.0</ele><time>2026-03-29T16:01:08Z</time></trkpt><trkpt lat="36.86801760196712" lon="-108.13545225139767"><ele>1819.0</ele><time>2026-03-29T16:01:09Z</time></trkpt><trkpt lat="36.86792608336248" lon="-108.13546298680356"><ele>1819.0</ele><time>2026-03-29T16:01:10Z</time></trkpt><trkpt lat="36.86781854373462" lon="-108.1354348651881"><ele>1819.0</ele><time>2026-03-29T16:01:11Z</time></trkpt><trkpt lat="36.86769255596419" lon="-108.13538884947548"><ele>1819.0</ele><time>2026-03-29T16:01:12Z</time></trkpt><trkpt lat="36.86758634066068" lon="-108.13540169222988"><ele>1819.0</ele><time>2026-03-29T16:01:13Z</time></trkpt><trkpt lat="36.867465967876754" lon="-108.13541330546154"><ele>1817.8000000000002</ele><time>2026-03-29T16:01:14Z</time></trkpt><trkpt lat="36.867352429493195" lon="-108.13542397051388"><ele>1816.6000000000001</ele><time>2026-03-29T16:01:15Z</time></trkpt><trkpt lat="36.86725689484229" lon="-108.13546774762527"><ele>1815.4</ele><time>2026-03-29T16:01:16Z</time></trkpt><trkpt lat="36.86716043102989" lon="-108.13545102011918"><ele>1814.2</ele><time>2026-03-29T16:01:17Z</time></trkpt><trkpt lat="36.86706621837754" lon="-108.13541015438747"><ele>1813.0</ele><time>2026-03-29T16:01:18Z</time></trkpt><trkpt lat="36.866982449308544" lon="-108.1354022985775"><ele>1813.0</ele><time>2026-03-29T16:01:19Z</time></trkpt><trkpt lat="36.86692358444084" lon="-108.13543438608887"><ele>1813.0000000000002</ele><time>2026-03-29T16:01:20Z</time></trkpt><trkpt lat="36.866838561972656" lon="-108.13548203796758"><ele>1813.0000000000002</ele><time>2026-03-29T16:01:21Z</time></trkpt><trkpt lat="36.86670674615749" lon="-108.13551671209275"><ele>1813.0</ele><time>2026-03-29T16:01:22Z</time></trkpt><trkpt lat="36.8666059047352" lon="-108.13549722685711"><ele>1813.0</ele><time>2026-03-29T16:01:23Z</time></trkpt><trkpt lat="36.86655267553492" lon="-108.13555185862656"><ele>1813.0</ele><time>2026-03-29T16:01:24Z</time></trkpt><trkpt lat="36.86649250181241" lon="-108.13565225214117"><ele>1813.0000000000002</ele><time>2026-03-29T16:01:25Z</time></trkpt><trkpt lat="36.86640809296197" lon="-108.13575450179435"><ele>1813.0000000000002</ele><time>2026-03-29T16:01:26Z</time></trkpt><trkpt lat="36.86635943941406" lon="-108.13589469566493"><ele>1813.0</ele><time>2026-03-29T16:01:27Z</time></trkpt><trkpt lat="36.86629652212662" lon="-108.13599309935555"><ele>1813.0</ele><time>2026-03-29T16:01:28Z</time></trkpt><trkpt lat="36.866216205369724" lon="-108.13605626264167"><ele>1812.75</ele><time>2026-03-29T16:01:29Z</time></trkpt><trkpt lat="36.866122381199666" lon="-108.1361150556321"><ele>1812.5</ele><time>2026-03-29T16:01:30Z</time></trkpt><trkpt lat="36.86604102799594" lon="-108.1362375093195"><ele>1812.25</ele><time>2026-03-29T16:01:31Z</time></trkpt><trkpt lat="36.86596937815867" lon="-108.13636666859357"><ele>1812.0</ele><time>2026-03-29T16:01:32Z</time></trkpt><trkpt lat="36.86590075833702" lon="-108.13646763722181"><ele>1812.75</ele><time>2026-03-29T16:01:33Z</time></trkpt><trkpt lat="36.86581075360727" lon="-108.13655975838647"><ele>1813.5</ele><time>2026-03-29T16:01:34Z</time></trkpt><trkpt lat="36.865671598629035" lon="-108.13664393906663"><ele>1814.25</ele><time>2026-03-29T16:01:35Z</time></trkpt><trkpt lat="36.86553577414674" lon="-108.1367124166753"><ele>1815.0</ele><time>2026-03-29T16:01:36Z</time></trkpt><trkpt lat="36.86539831317799" lon="-108.13677255580039"><ele>1815.0</ele><time>2026-03-29T16:01:37Z</time></trkpt><trkpt lat="36.86524977827708" lon="-108.1368017354473"><ele>1815.0</ele><time>2026-03-29T16:01:38Z</time></trkpt><trkpt lat="36.865148741279114" lon="-108.13684396325202"><ele>1815.0</ele><time>2026-03-29T16:01:39Z</time></trkpt><trkpt lat="36.86505394535398" lon="-108.1369241555499"><ele>1815.0</ele><time>2026-03-29T16:01:40Z</time></trkpt><trkpt lat="36.86494507540853" lon="-108.13703765957858"><ele>1816.25</ele><time>2026-03-29T16:01:41Z</time></trkpt><trkpt lat="36.86483920304534" lon="-108.13714483382502"><ele>1817.5</ele><time>2026-03-29T16:01:42Z</time></trkpt><trkpt lat="36.864736305331355" lon="-108.13721845912305"><ele>1818.75</ele><time>2026-03-29T16:01:43Z</time></trkpt><trkpt lat="36.86465236636017" lon="-108.1372873283109"><ele>1820.0</ele><time>2026-03-29T16:01:44Z</time></trkpt><trkpt lat="36.86456204410336" lon="-108.13734256122405"><ele>1820.8</ele><time>2026-03-29T16:01:45Z</time></trkpt><trkpt lat="36.86446201339031" lon="-108.13738792221967"><ele>1821.6</ele><time>2026-03-29T16:01:46Z</time></trkpt><trkpt lat="36.86437150144675" lon="-108.13742170385787"><ele>1822.4</ele><time>2026-03-29T16:01:47Z</time></trkpt><trkpt lat="36.86426407159118" lon="-108.13745182354899"><ele>1823.2</ele><time>2026-03-29T16:01:48Z</time></trkpt><trkpt lat="36.864165068156446" lon="-108.13744936474882"><ele>1824.0</ele><time>2026-03-29T16:01:49Z</time></trkpt><trkpt lat="36.86407935089657" lon="-108.13744537762818"><ele>1824.4</ele><time>2026-03-29T16:01:50Z</time></trkpt><trkpt lat="36.86398439014897" lon="-108.13747899405776"><ele>1824.8000000000002</ele><time>2026-03-29T16:01:51Z</time></trkpt><trkpt lat="36.86388172929995" lon="-108.13754843925626"><ele>1825.1999999999998</ele><time>2026-03-29T16:01:52Z</time></trkpt><trkpt lat="36.86380311572486" lon="-108.13758197258544"><ele>1825.6</ele><time>2026-03-29T16:01:53Z</time></trkpt><trkpt lat="36.86372887266601" lon="-108.13760013515538"><ele>1826.0</ele><time>2026-03-29T16:01:54Z</time></trkpt><trkpt lat="36.86363349537333" lon="-108.13763517224194"><ele>1825.9999999999998</ele><time>2026-03-29T16:01:55Z</time></trkpt><trkpt lat="36.86353578754212" lon="-108.13767869765314"><ele>1826.0</ele><time>2026-03-29T16:01:56Z</time></trkpt><trkpt lat="36.86344457779873" lon="-108.13770650604644"><ele>1826.0</ele><time>2026-03-29T16:01:57Z</time></trkpt><trkpt lat="36.86336730879463" lon="-108.13776139382132"><ele>1826.0</ele><time>2026-03-29T16:01:58Z</time></trkpt><trkpt lat="36.863330669335404" lon="-108.13784033751087"><ele>1825.9999999999998</ele><time>2026-03-29T16:01:59Z</time></trkpt><trkpt lat="36.86332185640899" lon="-108.13794687442223"><ele>1826.0</ele><time>2026-03-29T16:02:00Z</time></trkpt><trkpt lat="36.86331723108557" lon="-108.13807325089692"><ele>1825.9999999999998</ele><time>2026-03-29T16:02:01Z</time></trkpt><trkpt lat="36.86333864990846" lon="-108.13817112661155"><ele>1826.0</ele><time>2026-03-29T16:02:02Z</time></trkpt><trkpt lat="36.863384533308995" lon="-108.13826064554289"><ele>1826.0</ele><time>2026-03-29T16:02:03Z</time></trkpt><trkpt lat="36.86338352979484" lon="-108.13835083963977"><ele>1826.0</ele><time>2026-03-29T16:02:04Z</time></trkpt><trkpt lat="36.86333264837627" lon="-108.13846275914594"><ele>1825.9999999999998</ele><time>2026-03-29T16:02:05Z</time></trkpt><trkpt lat="36.86328066785548" lon="-108.1385654334847"><ele>1826.0</ele><time>2026-03-29T16:02:06Z</time></trkpt><trkpt lat="36.863247398963445" lon="-108.13864742292294"><ele>1825.9999999999998</ele><time>2026-03-29T16:02:07Z</time></trkpt><trkpt lat="36.86317952549548" lon="-108.13870314524988"><ele>1826.0</ele><time>2026-03-29T16:02:08Z</time></trkpt><trkpt lat="36.86309153011" lon="-108.13874131684427"><ele>1826.0</ele><time>2026-03-29T16:02:09Z</time></trkpt><trkpt lat="36.86301192853892" lon="-108.13878470893671"><ele>1826.0</ele><time>2026-03-29T16:02:10Z</time></trkpt><trkpt lat="36.86293268769334" lon="-108.13882540633404"><ele>1825.9999999999998</ele><time>2026-03-29T16:02:11Z</time></trkpt><trkpt lat="36.86286041919665" lon="-108.13879710223324"><ele>1826.0</ele><time>2026-03-29T16:02:12Z</time></trkpt><trkpt lat="36.86277190273247" lon="-108.13872027231383"><ele>1826.0</ele><time>2026-03-29T16:02:13Z</time></trkpt><trkpt lat="36.86267562100679" lon="-108.13871955271082"><ele>1826.0</ele><time>2026-03-29T16:02:14Z</time></trkpt><trkpt lat="36.862608123872754" lon="-108.13879743664738"><ele>1826.0</ele><time>2026-03-29T16:02:15Z</time></trkpt><trkpt lat="36.86252066325868" lon="-108.1389016482828"><ele>1826.0</ele><time>2026-03-29T16:02:16Z</time></trkpt><trkpt lat="36.862442252228696" lon="-108.13894901809617"><ele>1826.0</ele><time>2026-03-29T16:02:17Z</time></trkpt><trkpt lat="36.862360921641816" lon="-108.13898765917101"><ele>1827.5</ele><time>2026-03-29T16:02:18Z</time></trkpt><trkpt lat="36.86229337873317" lon="-108.1390803644217"><ele>1829.0</ele><time>2026-03-29T16:02:19Z</time></trkpt><trkpt lat="36.86220022073887" lon="-108.13912822718594"><ele>1830.5</ele><time>2026-03-29T16:02:20Z</time></trkpt><trkpt lat="36.862087066300134" lon="-108.13920131735568"><ele>1832.0</ele><time>2026-03-29T16:02:21Z</time></trkpt><trkpt lat="36.86197437516484" lon="-108.13926776560932"><ele>1832.0</ele><time>2026-03-29T16:02:22Z</time></trkpt><trkpt lat="36.86185238399045" lon="-108.13938309098356"><ele>1832.0</ele><time>2026-03-29T16:02:23Z</time></trkpt><trkpt lat="36.86176992562769" lon="-108.13947165211988"><ele>1832.0</ele><time>2026-03-29T16:02:24Z</time></trkpt><trkpt lat="36.86165001587455" lon="-108.13956369206534"><ele>1832.0</ele><time>2026-03-29T16:02:25Z</time></trkpt><trkpt lat="36.86150781137323" lon="-108.13964962667086"><ele>1831.3333333333333</ele><time>2026-03-29T16:02:26Z</time></trkpt><trkpt lat="36.86138698638673" lon="-108.13976564670426"><ele>1830.6666666666665</ele><time>2026-03-29T16:02:27Z</time></trkpt><trkpt lat="36.86131517973646" lon="-108.13991299483158"><ele>1830.0</ele><time>2026-03-29T16:02:28Z</time></trkpt><trkpt lat="36.861236422911865" lon="-108.14010679279231"><ele>1829.3333333333335</ele><time>2026-03-29T16:02:29Z</time></trkpt><trkpt lat="36.861161436382815" lon="-108.14027271759957"><ele>1828.6666666666667</ele><time>2026-03-29T16:02:30Z</time></trkpt><trkpt lat="36.861098632563575" lon="-108.14047254285863"><ele>1828.0</ele><time>2026-03-29T16:02:31Z</time></trkpt><trkpt lat="36.86102029483599" lon="-108.14062987704351"><ele>1827.75</ele><time>2026-03-29T16:02:32Z</time></trkpt><trkpt lat="36.86095290861143" lon="-108.14080271251039"><ele>1827.5</ele><time>2026-03-29T16:02:33Z</time></trkpt><trkpt lat="36.86090494888023" lon="-108.14097066943485"><ele>1827.25</ele><time>2026-03-29T16:02:34Z</time></trkpt><trkpt lat="36.86087686514138" lon="-108.1411163322577"><ele>1827.0</ele><time>2026-03-29T16:02:35Z</time></trkpt><trkpt lat="36.86085470818496" lon="-108.14125053014956"><ele>1827.0</ele><time>2026-03-29T16:02:36Z</time></trkpt><trkpt lat="36.86083824915215" lon="-108.14142449184315"><ele>1827.0</ele><time>2026-03-29T16:02:37Z</time></trkpt><trkpt lat="36.86081343513702" lon="-108.14159128385263"><ele>1827.0</ele><time>2026-03-29T16:02:38Z</time></trkpt><trkpt lat="36.86076692739918" lon="-108.14172581399409"><ele>1827.0</ele><time>2026-03-29T16:02:39Z</time></trkpt><trkpt lat="36.860858434437354" lon="-108.14185015167412"><ele>1827.0</ele><time>2026-03-29T16:02:41Z</time></trkpt><trkpt lat="36.86095954968471" lon="-108.1419345796028"><ele>1826.9999999999998</ele><time>2026-03-29T16:02:42Z</time></trkpt><trkpt lat="36.860995749354316" lon="-108.14206157704818"><ele>1826.9999999999998</ele><time>2026-03-29T16:02:43Z</time></trkpt><trkpt lat="36.86102306456526" lon="-108.14218258699225"><ele>1827.0</ele><time>2026-03-29T16:02:44Z</time></trkpt><trkpt lat="36.8610476407524" lon="-108.14228072026995"><ele>1827.0</ele><time>2026-03-29T16:02:45Z</time></trkpt><trkpt lat="36.86100775841271" lon="-108.14238087497012"><ele>1828.75</ele><time>2026-03-29T16:02:46Z</time></trkpt><trkpt lat="36.86091163682631" lon="-108.14247659830588"><ele>1830.5</ele><time>2026-03-29T16:02:47Z</time></trkpt><trkpt lat="36.86082092955055" lon="-108.14256684052528"><ele>1832.25</ele><time>2026-03-29T16:02:48Z</time></trkpt><trkpt lat="36.86075398945338" lon="-108.14267050733066"><ele>1834.0</ele><time>2026-03-29T16:02:49Z</time></trkpt><trkpt lat="36.86066524703365" lon="-108.14277269564323"><ele>1834.0</ele><time>2026-03-29T16:02:50Z</time></trkpt><trkpt lat="36.860556093380694" lon="-108.14287966244738"><ele>1834.0</ele><time>2026-03-29T16:02:51Z</time></trkpt><trkpt lat="36.86045187489275" lon="-108.14297091872209"><ele>1834.0</ele><time>2026-03-29T16:02:52Z</time></trkpt><trkpt lat="36.860316743765836" lon="-108.14303590774504"><ele>1834.0</ele><time>2026-03-29T16:02:53Z</time></trkpt><trkpt lat="36.860170640422794" lon="-108.14309504197304"><ele>1834.75</ele><time>2026-03-29T16:02:54Z</time></trkpt><trkpt lat="36.86002578685432" lon="-108.14316837658086"><ele>1835.5</ele><time>2026-03-29T16:02:55Z</time></trkpt><trkpt lat="36.85993179459249" lon="-108.14323771403966"><ele>1836.25</ele><time>2026-03-29T16:02:56Z</time></trkpt><trkpt lat="36.85983039008199" lon="-108.14329591046618"><ele>1837.0</ele><time>2026-03-29T16:02:57Z</time></trkpt><trkpt lat="36.859745820101516" lon="-108.14331428880888"><ele>1837.5000000000002</ele><time>2026-03-29T16:02:58Z</time></trkpt><trkpt lat="36.85967720652886" lon="-108.14331390634997"><ele>1838.0</ele><time>2026-03-29T16:02:59Z</time></trkpt><trkpt lat="36.85963250642313" lon="-108.14337331145643"><ele>1838.5</ele><time>2026-03-29T16:03:00Z</time></trkpt><trkpt lat="36.85964458801968" lon="-108.14348816684499"><ele>1839.0</ele><time>2026-03-29T16:03:01Z</time></trkpt><trkpt lat="36.8596579119202" lon="-108.14361870256417"><ele>1839.5000000000002</ele><time>2026-03-29T16:03:02Z</time></trkpt><trkpt lat="36.859635745157135" lon="-108.143755415805"><ele>1840.0</ele><time>2026-03-29T16:03:03Z</time></trkpt><trkpt lat="36.85964381137997" lon="-108.14385106746519"><ele>1840.0</ele><time>2026-03-29T16:03:04Z</time></trkpt><trkpt lat="36.85966244684604" lon="-108.1439618539206"><ele>1840.0</ele><time>2026-03-29T16:03:05Z</time></trkpt><trkpt lat="36.85966449552736" lon="-108.1441028521054"><ele>1840.0</ele><time>2026-03-29T16:03:06Z</time></trkpt><trkpt lat="36.85968302147354" lon="-108.14420611771524"><ele>1840.0</ele><time>2026-03-29T16:03:07Z</time></trkpt><trkpt lat="36.85963842334399" lon="-108.14429551915569"><ele>1840.0</ele><time>2026-03-29T16:03:08Z</time></trkpt><trkpt lat="36.85957706264834" lon="-108.14441189897966"><ele>1839.5000000000002</ele><time>2026-03-29T16:03:09Z</time></trkpt><trkpt lat="36.8595380732588" lon="-108.14450429661608"><ele>1839.0</ele><time>2026-03-29T16:03:10Z</time></trkpt><trkpt lat="36.859503751242634" lon="-108.14459210737779"><ele>1838.5</ele><time>2026-03-29T16:03:11Z</time></trkpt><trkpt lat="36.859485490520406" lon="-108.14470110335762"><ele>1838.0</ele><time>2026-03-29T16:03:12Z</time></trkpt><trkpt lat="36.8594520293635" lon="-108.14480934915419"><ele>1837.5000000000002</ele><time>2026-03-29T16:03:13Z</time></trkpt><trkpt lat="36.85939300329642" lon="-108.144910076116"><ele>1837.0</ele><time>2026-03-29T16:03:14Z</time></trkpt><trkpt lat="36.859302588723416" lon="-108.14502118868856"><ele>1838.0</ele><time>2026-03-29T16:03:15Z</time></trkpt><trkpt lat="36.859256858389145" lon="-108.14514291915242"><ele>1838.9999999999998</ele><time>2026-03-29T16:03:16Z</time></trkpt><trkpt lat="36.859222739916014" lon="-108.14523869184299"><ele>1839.9999999999998</ele><time>2026-03-29T16:03:17Z</time></trkpt><trkpt lat="36.859166884522956" lon="-108.14533110519835"><ele>1841.0</ele><time>2026-03-29T16:03:18Z</time></trkpt><trkpt lat="36.85914318507083" lon="-108.14543644124238"><ele>1842.0</ele><time>2026-03-29T16:03:19Z</time></trkpt><trkpt lat="36.8591028252418" lon="-108.14554428234877"><ele>1842.0</ele><time>2026-03-29T16:03:20Z</time></trkpt><trkpt lat="36.85908786405728" lon="-108.14563096814972"><ele>1842.0</ele><time>2026-03-29T16:03:21Z</time></trkpt><trkpt lat="36.859053758391646" lon="-108.14573831623309"><ele>1842.0</ele><time>2026-03-29T16:03:22Z</time></trkpt><trkpt lat="36.85900747978471" lon="-108.1458333969408"><ele>1842.0</ele><time>2026-03-29T16:03:23Z</time></trkpt><trkpt lat="36.85894157369179" lon="-108.14589506745072"><ele>1842.0</ele><time>2026-03-29T16:03:24Z</time></trkpt><trkpt lat="36.85884509638755" lon="-108.14594409795617"><ele>1842.0</ele><time>2026-03-29T16:03:25Z</time></trkpt><trkpt lat="36.85874155536776" lon="-108.14600894870499"><ele>1842.1999999999998</ele><time>2026-03-29T16:03:26Z</time></trkpt><trkpt lat="36.858632223545165" lon="-108.14605645590252"><ele>1842.3999999999999</ele><time>2026-03-29T16:03:27Z</time></trkpt><trkpt lat="36.85853141589339" lon="-108.146103069559"><ele>1842.6000000000001</ele><time>2026-03-29T16:03:28Z</time></trkpt><trkpt lat="36.8584437110726" lon="-108.14614157966638"><ele>1842.8000000000002</ele><time>2026-03-29T16:03:29Z</time></trkpt><trkpt lat="36.85837967978995" lon="-108.14617938299322"><ele>1843.0</ele><time>2026-03-29T16:03:30Z</time></trkpt><trkpt lat="36.85843000988183" lon="-108.14635775040294"><ele>1843.0</ele><time>2026-03-29T16:03:32Z</time></trkpt><trkpt lat="36.858464356881846" lon="-108.14647836425979"><ele>1843.0</ele><time>2026-03-29T16:03:33Z</time></trkpt><trkpt lat="36.858497847060754" lon="-108.1466313940728"><ele>1843.0</ele><time>2026-03-29T16:03:34Z</time></trkpt><trkpt lat="36.85851754062634" lon="-108.1467633282326"><ele>1843.0</ele><time>2026-03-29T16:03:35Z</time></trkpt><trkpt lat="36.85849197898015" lon="-108.14690752356061"><ele>1843.0</ele><time>2026-03-29T16:03:37Z</time></trkpt><trkpt lat="36.858499946392925" lon="-108.14702803509476"><ele>1843.0000000000002</ele><time>2026-03-29T16:03:38Z</time></trkpt><trkpt lat="36.85851201290987" lon="-108.14715761037499"><ele>1843.0000000000002</ele><time>2026-03-29T16:03:39Z</time></trkpt><trkpt lat="36.85852508590089" lon="-108.14726377135216"><ele>1843.0</ele><time>2026-03-29T16:03:40Z</time></trkpt><trkpt lat="36.85856914825134" lon="-108.14733970390041"><ele>1843.0</ele><time>2026-03-29T16:03:41Z</time></trkpt><trkpt lat="36.85866700637973" lon="-108.14746897580659"><ele>1843.0</ele><time>2026-03-29T16:03:43Z</time></trkpt><trkpt lat="36.85870767911661" lon="-108.14757539852921"><ele>1843.0000000000002</ele><time>2026-03-29T16:03:44Z</time></trkpt><trkpt lat="36.8587235446293" lon="-108.14769524701309"><ele>1843.0000000000002</ele><time>2026-03-29T16:03:45Z</time></trkpt><trkpt lat="36.85871519008674" lon="-108.14782630154967"><ele>1843.0</ele><time>2026-03-29T16:03:46Z</time></trkpt><trkpt lat="36.858708563035265" lon="-108.14792837336856"><ele>1843.0</ele><time>2026-03-29T16:03:47Z</time></trkpt><trkpt lat="36.85870164213302" lon="-108.14803083818957"><ele>1843.0000000000002</ele><time>2026-03-29T16:03:48Z</time></trkpt><trkpt lat="36.85863426889868" lon="-108.14810002252183"><ele>1843.0</ele><time>2026-03-29T16:03:49Z</time></trkpt><trkpt lat="36.85857629438873" lon="-108.14818513446717"><ele>1843.0</ele><time>2026-03-29T16:03:50Z</time></trkpt><trkpt lat="36.858586278188774" lon="-108.1482733778805"><ele>1843.0</ele><time>2026-03-29T16:03:51Z</time></trkpt><trkpt lat="36.858614162495186" lon="-108.14838872360818"><ele>1843.0000000000002</ele><time>2026-03-29T16:03:52Z</time></trkpt><trkpt lat="36.85863556793861" lon="-108.14848074393552"><ele>1843.0</ele><time>2026-03-29T16:03:53Z</time></trkpt><trkpt lat="36.858648269758326" lon="-108.14858926454554"><ele>1843.1666666666667</ele><time>2026-03-29T16:03:54Z</time></trkpt><trkpt lat="36.8586810006441" lon="-108.14868242006055"><ele>1843.3333333333335</ele><time>2026-03-29T16:03:55Z</time></trkpt><trkpt lat="36.85870995314544" lon="-108.14875789561579"><ele>1843.5</ele><time>2026-03-29T16:03:56Z</time></trkpt><trkpt lat="36.8587198117968" lon="-108.148867684383"><ele>1843.6666666666665</ele><time>2026-03-29T16:03:57Z</time></trkpt><trkpt lat="36.85870868118674" lon="-108.14896638621452"><ele>1843.8333333333333</ele><time>2026-03-29T16:03:58Z</time></trkpt><trkpt lat="36.8587187110845" lon="-108.14906427070953"><ele>1844.0</ele><time>2026-03-29T16:03:59Z</time></trkpt><trkpt lat="36.85876054197505" lon="-108.14915233828117"><ele>1844.6666666666665</ele><time>2026-03-29T16:04:00Z</time></trkpt><trkpt lat="36.858784084755875" lon="-108.14927245053642"><ele>1845.3333333333333</ele><time>2026-03-29T16:04:01Z</time></trkpt><trkpt lat="36.85878489880835" lon="-108.14936315164253"><ele>1846.0</ele><time>2026-03-29T16:04:02Z</time></trkpt><trkpt lat="36.85873443615021" lon="-108.14946361599763"><ele>1846.6666666666665</ele><time>2026-03-29T16:04:03Z</time></trkpt><trkpt lat="36.85866979077323" lon="-108.14956753985307"><ele>1847.3333333333333</ele><time>2026-03-29T16:04:04Z</time></trkpt><trkpt lat="36.85861656722733" lon="-108.14962349440454"><ele>1848.0</ele><time>2026-03-29T16:04:05Z</time></trkpt><trkpt lat="36.85852547783267" lon="-108.1496835629968"><ele>1848.8000000000002</ele><time>2026-03-29T16:04:06Z</time></trkpt><trkpt lat="36.858444864328234" lon="-108.14975053412067"><ele>1849.6000000000001</ele><time>2026-03-29T16:04:07Z</time></trkpt><trkpt lat="36.8583716223255" lon="-108.14984882307893"><ele>1850.3999999999999</ele><time>2026-03-29T16:04:08Z</time></trkpt><trkpt lat="36.85829471096673" lon="-108.14992629828701"><ele>1851.1999999999998</ele><time>2026-03-29T16:04:09Z</time></trkpt><trkpt lat="36.85822771794615" lon="-108.14999458387736"><ele>1852.0</ele><time>2026-03-29T16:04:10Z</time></trkpt><trkpt lat="36.858191509915564" lon="-108.15008298868582"><ele>1852.6</ele><time>2026-03-29T16:04:11Z</time></trkpt><trkpt lat="36.85817880720025" lon="-108.15021176348533"><ele>1853.1999999999998</ele><time>2026-03-29T16:04:12Z</time></trkpt><trkpt lat="36.858163772295036" lon="-108.15034480721151"><ele>1853.8</ele><time>2026-03-29T16:04:13Z</time></trkpt><trkpt lat="36.85812717730067" lon="-108.15049097061409"><ele>1854.4</ele><time>2026-03-29T16:04:14Z</time></trkpt><trkpt lat="36.85806397883857" lon="-108.1505794030308"><ele>1855.0</ele><time>2026-03-29T16:04:15Z</time></trkpt><trkpt lat="36.85799071626405" lon="-108.15065933788095"><ele>1855.1666666666667</ele><time>2026-03-29T16:04:16Z</time></trkpt><trkpt lat="36.857951784585254" lon="-108.15075754377703"><ele>1855.3333333333335</ele><time>2026-03-29T16:04:17Z</time></trkpt><trkpt lat="36.85792827003491" lon="-108.15086276953234"><ele>1855.5</ele><time>2026-03-29T16:04:18Z</time></trkpt><trkpt lat="36.85787662582853" lon="-108.15095910979832"><ele>1855.6666666666665</ele><time>2026-03-29T16:04:19Z</time></trkpt><trkpt lat="36.85782184837341" lon="-108.15105206400311"><ele>1855.8333333333333</ele><time>2026-03-29T16:04:20Z</time></trkpt><trkpt lat="36.85780722218525" lon="-108.15115448834916"><ele>1856.0</ele><time>2026-03-29T16:04:21Z</time></trkpt><trkpt lat="36.85784127341648" lon="-108.15124274921953"><ele>1856.0</ele><time>2026-03-29T16:04:22Z</time></trkpt><trkpt lat="36.85778595726174" lon="-108.15141226545293"><ele>1856.0</ele><time>2026-03-29T16:04:24Z</time></trkpt><trkpt lat="36.85776494525175" lon="-108.15154314364474"><ele>1856.0</ele><time>2026-03-29T16:04:25Z</time></trkpt><trkpt lat="36.85778893099317" lon="-108.15166427754185"><ele>1856.0</ele><time>2026-03-29T16:04:26Z</time></trkpt><trkpt lat="36.85783292232273" lon="-108.15175169353988"><ele>1856.0</ele><time>2026-03-29T16:04:27Z</time></trkpt><trkpt lat="36.85784497076323" lon="-108.1518696113085"><ele>1855.0</ele><time>2026-03-29T16:04:28Z</time></trkpt><trkpt lat="36.85784619078857" lon="-108.1520072617224"><ele>1854.0</ele><time>2026-03-29T16:04:29Z</time></trkpt><trkpt lat="36.857857849136586" lon="-108.15214552846378"><ele>1853.0</ele><time>2026-03-29T16:04:30Z</time></trkpt><trkpt lat="36.857860106526466" lon="-108.15225021058758"><ele>1852.0</ele><time>2026-03-29T16:04:31Z</time></trkpt><trkpt lat="36.85783499301583" lon="-108.15237801102042"><ele>1851.0</ele><time>2026-03-29T16:04:32Z</time></trkpt><trkpt lat="36.85781034908458" lon="-108.15250664334866"><ele>1850.8</ele><time>2026-03-29T16:04:33Z</time></trkpt><trkpt lat="36.85777601808753" lon="-108.15260116606026"><ele>1850.6</ele><time>2026-03-29T16:04:34Z</time></trkpt><trkpt lat="36.85773229176575" lon="-108.15269001593911"><ele>1850.4</ele><time>2026-03-29T16:04:35Z</time></trkpt><trkpt lat="36.857628866848266" lon="-108.15280523702877"><ele>1850.2</ele><time>2026-03-29T16:04:37Z</time></trkpt><trkpt lat="36.857552976766804" lon="-108.15289458834181"><ele>1850.0</ele><time>2026-03-29T16:04:38Z</time></trkpt><trkpt lat="36.85751437570609" lon="-108.15303870075375"><ele>1850.6</ele><time>2026-03-29T16:04:39Z</time></trkpt><trkpt lat="36.85752127208348" lon="-108.15314128671079"><ele>1851.2</ele><time>2026-03-29T16:04:40Z</time></trkpt><trkpt lat="36.85746662245904" lon="-108.15329339273895"><ele>1851.8000000000002</ele><time>2026-03-29T16:04:42Z</time></trkpt><trkpt lat="36.8574222916281" lon="-108.15342256114279"><ele>1852.4</ele><time>2026-03-29T16:04:43Z</time></trkpt><trkpt lat="36.85742157058407" lon="-108.15354112092268"><ele>1853.0</ele><time>2026-03-29T16:04:44Z</time></trkpt><trkpt lat="36.85744848411578" lon="-108.15366730390535"><ele>1853.0</ele><time>2026-03-29T16:04:45Z</time></trkpt><trkpt lat="36.85747486724227" lon="-108.15377952319045"><ele>1853.0000000000002</ele><time>2026-03-29T16:04:46Z</time></trkpt><trkpt lat="36.85748082730182" lon="-108.15389667634736"><ele>1853.0000000000002</ele><time>2026-03-29T16:04:47Z</time></trkpt><trkpt lat="36.857462962410146" lon="-108.15400634042689"><ele>1853.0</ele><time>2026-03-29T16:04:48Z</time></trkpt><trkpt lat="36.85743131759262" lon="-108.15412192170521"><ele>1853.0</ele><time>2026-03-29T16:04:49Z</time></trkpt><trkpt lat="36.85740399139636" lon="-108.15424539192536"><ele>1853.1666666666665</ele><time>2026-03-29T16:04:50Z</time></trkpt><trkpt lat="36.85737663377624" lon="-108.15432228818804"><ele>1853.3333333333333</ele><time>2026-03-29T16:04:51Z</time></trkpt><trkpt lat="36.85732624191968" lon="-108.15441728750154"><ele>1853.5</ele><time>2026-03-29T16:04:52Z</time></trkpt><trkpt lat="36.85727514677468" lon="-108.15452017121207"><ele>1853.6666666666665</ele><time>2026-03-29T16:04:53Z</time></trkpt><trkpt lat="36.85724088806661" lon="-108.15462324879998"><ele>1853.8333333333333</ele><time>2026-03-29T16:04:54Z</time></trkpt><trkpt lat="36.8572155452812" lon="-108.1547282602142"><ele>1854.0</ele><time>2026-03-29T16:04:55Z</time></trkpt><trkpt lat="36.85716960771335" lon="-108.15482371716186"><ele>1854.1666666666667</ele><time>2026-03-29T16:04:56Z</time></trkpt><trkpt lat="36.857136449755" lon="-108.15491536777773"><ele>1854.3333333333335</ele><time>2026-03-29T16:04:57Z</time></trkpt><trkpt lat="36.85713250603732" lon="-108.15503617711427"><ele>1854.5</ele><time>2026-03-29T16:04:58Z</time></trkpt><trkpt lat="36.85711663200566" lon="-108.15513132278807"><ele>1854.6666666666667</ele><time>2026-03-29T16:04:59Z</time></trkpt><trkpt lat="36.85706442804581" lon="-108.15518811525065"><ele>1854.8333333333335</ele><time>2026-03-29T16:05:00Z</time></trkpt><trkpt lat="36.85697220854887" lon="-108.15523681070206"><ele>1855.0</ele><time>2026-03-29T16:05:01Z</time></trkpt><trkpt lat="36.85687976448128" lon="-108.15531584581282"><ele>1855.0</ele><time>2026-03-29T16:05:02Z</time></trkpt><trkpt lat="36.85683475858197" lon="-108.15541277642232"><ele>1855.0</ele><time>2026-03-29T16:05:03Z</time></trkpt><trkpt lat="36.85679941809051" lon="-108.15549877896365"><ele>1855.0</ele><time>2026-03-29T16:05:04Z</time></trkpt><trkpt lat="36.85672622208734" lon="-108.15555004132645"><ele>1855.0</ele><time>2026-03-29T16:05:05Z</time></trkpt><trkpt lat="36.85663578046667" lon="-108.155600973974"><ele>1855.0</ele><time>2026-03-29T16:05:06Z</time></trkpt><trkpt lat="36.8565685127588" lon="-108.15570913371977"><ele>1855.4</ele><time>2026-03-29T16:05:08Z</time></trkpt><trkpt lat="36.85652819320853" lon="-108.15580236251846"><ele>1855.8</ele><time>2026-03-29T16:05:09Z</time></trkpt><trkpt lat="36.85648898691223" lon="-108.1559525470267"><ele>1856.1999999999998</ele><time>2026-03-29T16:05:10Z</time></trkpt><trkpt lat="36.856440405602434" lon="-108.15605989242127"><ele>1856.6</ele><time>2026-03-29T16:05:11Z</time></trkpt><trkpt lat="36.85640560684038" lon="-108.15617766964601"><ele>1857.0</ele><time>2026-03-29T16:05:12Z</time></trkpt><trkpt lat="36.856370898074594" lon="-108.15627295021403"><ele>1857.0</ele><time>2026-03-29T16:05:13Z</time></trkpt><trkpt lat="36.856348258727074" lon="-108.1563850333725"><ele>1856.9999999999998</ele><time>2026-03-29T16:05:14Z</time></trkpt><trkpt lat="36.85634724206729" lon="-108.15648228378154"><ele>1856.9999999999998</ele><time>2026-03-29T16:05:15Z</time></trkpt><trkpt lat="36.85625347765637" lon="-108.15657687573673"><ele>1857.0</ele><time>2026-03-29T16:05:17Z</time></trkpt><trkpt lat="36.856151978987455" lon="-108.15656033819377"><ele>1857.0</ele><time>2026-03-29T16:05:18Z</time></trkpt><trkpt lat="36.856061805436674" lon="-108.15655538523399"><ele>1857.0</ele><time>2026-03-29T16:05:19Z</time></trkpt><trkpt lat="36.856033770424375" lon="-108.15663185369502"><ele>1857.0</ele><time>2026-03-29T16:05:20Z</time></trkpt><trkpt lat="36.856019087167766" lon="-108.15675347042708"><ele>1857.0</ele><time>2026-03-29T16:05:21Z</time></trkpt><trkpt lat="36.855970161137826" lon="-108.15684634138746"><ele>1857.0</ele><time>2026-03-29T16:05:22Z</time></trkpt><trkpt lat="36.85591637722497" lon="-108.15694250732919"><ele>1857.0</ele><time>2026-03-29T16:05:23Z</time></trkpt><trkpt lat="36.855855032705584" lon="-108.15698011350437"><ele>1857.0</ele><time>2026-03-29T16:05:24Z</time></trkpt><trkpt lat="36.855822786202246" lon="-108.15707362346005"><ele>1857.0</ele><time>2026-03-29T16:05:25Z</time></trkpt><trkpt lat="36.85579321132451" lon="-108.15717659748825"><ele>1856.9999999999998</ele><time>2026-03-29T16:05:26Z</time></trkpt><trkpt lat="36.85580053808581" lon="-108.15727702027823"><ele>1856.9999999999998</ele><time>2026-03-29T16:05:27Z</time></trkpt><trkpt lat="36.855782823857645" lon="-108.15741814466398"><ele>1857.0</ele><time>2026-03-29T16:05:28Z</time></trkpt><trkpt lat="36.85577814739498" lon="-108.15754178614432"><ele>1857.0</ele><time>2026-03-29T16:05:29Z</time></trkpt><trkpt lat="36.85575076114813" lon="-108.15765712200648"><ele>1857.1999999999998</ele><time>2026-03-29T16:05:30Z</time></trkpt><trkpt lat="36.8557310838857" lon="-108.1577705988793"><ele>1857.3999999999999</ele><time>2026-03-29T16:05:31Z</time></trkpt><trkpt lat="36.85571344438716" lon="-108.15789298200703"><ele>1857.6000000000001</ele><time>2026-03-29T16:05:32Z</time></trkpt><trkpt lat="36.855675188995406" lon="-108.15798374861214"><ele>1857.8000000000002</ele><time>2026-03-29T16:05:33Z</time></trkpt><trkpt lat="36.855602072203574" lon="-108.15806373227669"><ele>1858.0</ele><time>2026-03-29T16:05:34Z</time></trkpt><trkpt lat="36.855537105388834" lon="-108.15814263440828"><ele>1859.25</ele><time>2026-03-29T16:05:35Z</time></trkpt><trkpt lat="36.855507743292286" lon="-108.15825350802464"><ele>1860.5</ele><time>2026-03-29T16:05:36Z</time></trkpt><trkpt lat="36.855468679630256" lon="-108.15837709092708"><ele>1861.75</ele><time>2026-03-29T16:05:37Z</time></trkpt><trkpt lat="36.85538718417784" lon="-108.15850211333594"><ele>1863.0</ele><time>2026-03-29T16:05:38Z</time></trkpt><trkpt lat="36.85528682880421" lon="-108.15863914562024"><ele>1863.0</ele><time>2026-03-29T16:05:39Z</time></trkpt><trkpt lat="36.855192567399925" lon="-108.15875904994557"><ele>1863.0000000000002</ele><time>2026-03-29T16:05:40Z</time></trkpt><trkpt lat="36.85511486114983" lon="-108.15885364234393"><ele>1863.0000000000002</ele><time>2026-03-29T16:05:41Z</time></trkpt><trkpt lat="36.855075213387614" lon="-108.15893743658634"><ele>1863.0</ele><time>2026-03-29T16:05:42Z</time></trkpt><trkpt lat="36.85501588850892" lon="-108.15902073985929"><ele>1863.0</ele><time>2026-03-29T16:05:43Z</time></trkpt><trkpt lat="36.85494445182812" lon="-108.15907602524074"><ele>1862.5</ele><time>2026-03-29T16:05:44Z</time></trkpt><trkpt lat="36.854838867897485" lon="-108.15907239293894"><ele>1862.0</ele><time>2026-03-29T16:05:45Z</time></trkpt><trkpt lat="36.85472871394258" lon="-108.15907005597182"><ele>1861.5</ele><time>2026-03-29T16:05:46Z</time></trkpt><trkpt lat="36.85460887584201" lon="-108.15903798778051"><ele>1861.0</ele><time>2026-03-29T16:05:47Z</time></trkpt><trkpt lat="36.8544815658135" lon="-108.15903528975177"><ele>1861.0</ele><time>2026-03-29T16:05:48Z</time></trkpt><trkpt lat="36.85437567997742" lon="-108.15909854171431"><ele>1861.0</ele><time>2026-03-29T16:05:49Z</time></trkpt><trkpt lat="36.85429569927402" lon="-108.15919219367797"><ele>1861.0</ele><time>2026-03-29T16:05:50Z</time></trkpt><trkpt lat="36.8541936560211" lon="-108.15924374635766"><ele>1861.0</ele><time>2026-03-29T16:05:51Z</time></trkpt><trkpt lat="36.85407746215311" lon="-108.15924153477346"><ele>1859.8</ele><time>2026-03-29T16:05:52Z</time></trkpt><trkpt lat="36.85396878139056" lon="-108.15919840782757"><ele>1858.6</ele><time>2026-03-29T16:05:53Z</time></trkpt><trkpt lat="36.85387576704394" lon="-108.15915280330289"><ele>1857.4</ele><time>2026-03-29T16:05:54Z</time></trkpt><trkpt lat="36.85377674757286" lon="-108.15917245551087"><ele>1856.2</ele><time>2026-03-29T16:05:55Z</time></trkpt><trkpt lat="36.853664306474585" lon="-108.15924421057858"><ele>1855.0</ele><time>2026-03-29T16:05:56Z</time></trkpt><trkpt lat="36.85355320208739" lon="-108.15927604249319"><ele>1855.0</ele><time>2026-03-29T16:05:57Z</time></trkpt><trkpt lat="36.85348275424531" lon="-108.15926889023017"><ele>1855.0</ele><time>2026-03-29T16:05:58Z</time></trkpt><trkpt lat="36.85340463251099" lon="-108.15922097185691"><ele>1855.0</ele><time>2026-03-29T16:05:59Z</time></trkpt><trkpt lat="36.853302467752115" lon="-108.15922121697189"><ele>1855.0</ele><time>2026-03-29T16:06:00Z</time></trkpt><trkpt lat="36.85320382731214" lon="-108.15926635545189"><ele>1855.0</ele><time>2026-03-29T16:06:01Z</time></trkpt><trkpt lat="36.85309526594938" lon="-108.15928913303155"><ele>1854.0</ele><time>2026-03-29T16:06:02Z</time></trkpt><trkpt lat="36.85300250155049" lon="-108.15933597157579"><ele>1853.0</ele><time>2026-03-29T16:06:03Z</time></trkpt><trkpt lat="36.852918479055944" lon="-108.1593748611434"><ele>1852.0</ele><time>2026-03-29T16:06:04Z</time></trkpt><trkpt lat="36.85282488100469" lon="-108.1594334818756"><ele>1851.0</ele><time>2026-03-29T16:06:05Z</time></trkpt><trkpt lat="36.85272277338535" lon="-108.1594789852208"><ele>1850.0</ele><time>2026-03-29T16:06:06Z</time></trkpt><trkpt lat="36.85263635855056" lon="-108.15954255978737"><ele>1849.4</ele><time>2026-03-29T16:06:07Z</time></trkpt><trkpt lat="36.852537132601505" lon="-108.15959899218993"><ele>1848.8</ele><time>2026-03-29T16:06:08Z</time></trkpt><trkpt lat="36.85244256125311" lon="-108.15957790716146"><ele>1848.1999999999998</ele><time>2026-03-29T16:06:09Z</time></trkpt><trkpt lat="36.85233961672468" lon="-108.1595451713576"><ele>1847.6</ele><time>2026-03-29T16:06:10Z</time></trkpt><trkpt lat="36.852215191436" lon="-108.15948947332645"><ele>1847.0</ele><time>2026-03-29T16:06:11Z</time></trkpt><trkpt lat="36.852083902670856" lon="-108.15941830956103"><ele>1847.0</ele><time>2026-03-29T16:06:12Z</time></trkpt><trkpt lat="36.85195145721101" lon="-108.15934439673056"><ele>1847.0</ele><time>2026-03-29T16:06:13Z</time></trkpt><trkpt lat="36.85183509298638" lon="-108.15928005326421"><ele>1847.0</ele><time>2026-03-29T16:06:14Z</time></trkpt><trkpt lat="36.85173185907912" lon="-108.15924221598036"><ele>1847.0</ele><time>2026-03-29T16:06:15Z</time></trkpt><trkpt lat="36.85163363237889" lon="-108.15921057648696"><ele>1846.3999999999999</ele><time>2026-03-29T16:06:16Z</time></trkpt><trkpt lat="36.851541225684024" lon="-108.15919983367954"><ele>1845.7999999999997</ele><time>2026-03-29T16:06:17Z</time></trkpt><trkpt lat="36.851469718904134" lon="-108.15919317568824"><ele>1845.2</ele><time>2026-03-29T16:06:18Z</time></trkpt><trkpt lat="36.85141478530545" lon="-108.15928671228636"><ele>1844.6</ele><time>2026-03-29T16:06:19Z</time></trkpt><trkpt lat="36.851331312597296" lon="-108.15937393816166"><ele>1844.0</ele><time>2026-03-29T16:06:20Z</time></trkpt><trkpt lat="36.85123551612884" lon="-108.15934660353616"><ele>1844.0</ele><time>2026-03-29T16:06:21Z</time></trkpt><trkpt lat="36.85115563245938" lon="-108.15930335985507"><ele>1844.0</ele><time>2026-03-29T16:06:22Z</time></trkpt><trkpt lat="36.851081211532204" lon="-108.15922815962931"><ele>1844.0</ele><time>2026-03-29T16:06:23Z</time></trkpt><trkpt lat="36.850997156166144" lon="-108.15915938427786"><ele>1844.0</ele><time>2026-03-29T16:06:24Z</time></trkpt><trkpt lat="36.85089697473046" lon="-108.15926964999495"><ele>1844.0</ele><time>2026-03-29T16:06:26Z</time></trkpt><trkpt lat="36.850859130070255" lon="-108.15936287413841"><ele>1843.5</ele><time>2026-03-29T16:06:27Z</time></trkpt><trkpt lat="36.85073721798548" lon="-108.15921825026307"><ele>1843.0</ele><time>2026-03-29T16:06:29Z</time></trkpt><trkpt lat="36.85064673902781" lon="-108.15910780039592"><ele>1842.5</ele><time>2026-03-29T16:06:30Z</time></trkpt><trkpt lat="36.85059354066974" lon="-108.1589682861262"><ele>1842.0</ele><time>2026-03-29T16:06:31Z</time></trkpt><trkpt lat="36.85056590875205" lon="-108.1588700616942"><ele>1841.25</ele><time>2026-03-29T16:06:32Z</time></trkpt><trkpt lat="36.85042936071567" lon="-108.15883547104227"><ele>1840.5</ele><time>2026-03-29T16:06:34Z</time></trkpt><trkpt lat="36.85028173468873" lon="-108.15884324575349"><ele>1839.75</ele><time>2026-03-29T16:06:35Z</time></trkpt><trkpt lat="36.85014962268528" lon="-108.15882143098891"><ele>1839.0</ele><time>2026-03-29T16:06:36Z</time></trkpt><trkpt lat="36.85004901302713" lon="-108.15880301219599"><ele>1838.0</ele><time>2026-03-29T16:06:37Z</time></trkpt><trkpt lat="36.849941886438806" lon="-108.15876744601522"><ele>1837.0</ele><time>2026-03-29T16:06:38Z</time></trkpt><trkpt lat="36.84981784913408" lon="-108.15873889732457"><ele>1836.0</ele><time>2026-03-29T16:06:39Z</time></trkpt><trkpt lat="36.84970848079841" lon="-108.1587153882384"><ele>1835.0</ele><time>2026-03-29T16:06:40Z</time></trkpt><trkpt lat="36.84960082615118" lon="-108.1586973586347"><ele>1835.0</ele><time>2026-03-29T16:06:41Z</time></trkpt><trkpt lat="36.84948733987586" lon="-108.15868385770948"><ele>1835.0</ele><time>2026-03-29T16:06:42Z</time></trkpt><trkpt lat="36.84939866189692" lon="-108.15865589395234"><ele>1835.0</ele><time>2026-03-29T16:06:43Z</time></trkpt><trkpt lat="36.849265520716514" lon="-108.15863427755338"><ele>1835.0</ele><time>2026-03-29T16:06:45Z</time></trkpt><trkpt lat="36.84915349577501" lon="-108.1586140767085"><ele>1833.8</ele><time>2026-03-29T16:06:46Z</time></trkpt><trkpt lat="36.8490678030161" lon="-108.15859346114202"><ele>1832.6</ele><time>2026-03-29T16:06:47Z</time></trkpt><trkpt lat="36.84901853568086" lon="-108.15846266985098"><ele>1831.4</ele><time>2026-03-29T16:06:49Z</time></trkpt><trkpt lat="36.84903019822706" lon="-108.1583346778338"><ele>1830.2</ele><time>2026-03-29T16:06:50Z</time></trkpt><trkpt lat="36.8490588523259" lon="-108.1582186755663"><ele>1829.0</ele><time>2026-03-29T16:06:51Z</time></trkpt><trkpt lat="36.84909838432391" lon="-108.15809783120538"><ele>1828.2</ele><time>2026-03-29T16:06:52Z</time></trkpt><trkpt lat="36.84912609180092" lon="-108.1579773066039"><ele>1827.4</ele><time>2026-03-29T16:06:53Z</time></trkpt><trkpt lat="36.8491444328665" lon="-108.15782998986896"><ele>1826.6</ele><time>2026-03-29T16:06:54Z</time></trkpt><trkpt lat="36.84914709688786" lon="-108.15769715130486"><ele>1825.8</ele><time>2026-03-29T16:06:55Z</time></trkpt><trkpt lat="36.84913943239033" lon="-108.1575788872633"><ele>1825.0</ele><time>2026-03-29T16:06:56Z</time></trkpt><trkpt lat="36.849133319538595" lon="-108.15747935092038"><ele>1825.0000000000002</ele><time>2026-03-29T16:06:57Z</time></trkpt><trkpt lat="36.849088440369414" lon="-108.15741243336814"><ele>1825.0</ele><time>2026-03-29T16:06:58Z</time></trkpt><trkpt lat="36.84904077887107" lon="-108.15735570226352"><ele>1825.0</ele><time>2026-03-29T16:06:59Z</time></trkpt><trkpt lat="36.848990236586594" lon="-108.15744141354956"><ele>1825.0</ele><time>2026-03-29T16:07:01Z</time></trkpt><trkpt lat="36.849006955399496" lon="-108.15756094188325"><ele>1825.0000000000002</ele><time>2026-03-29T16:07:02Z</time></trkpt><trkpt lat="36.849036834804515" lon="-108.15768995245108"><ele>1825.0</ele><time>2026-03-29T16:07:03Z</time></trkpt><trkpt lat="36.849034659065175" lon="-108.15780580328196"><ele>1825.0</ele><time>2026-03-29T16:07:04Z</time></trkpt><trkpt lat="36.84898526194225" lon="-108.15793382653115"><ele>1825.0</ele><time>2026-03-29T16:07:05Z</time></trkpt><trkpt lat="36.84897522849205" lon="-108.15805414360402"><ele>1825.0</ele><time>2026-03-29T16:07:06Z</time></trkpt><trkpt lat="36.848975694546134" lon="-108.15819648022601"><ele>1825.0</ele><time>2026-03-29T16:07:07Z</time></trkpt><trkpt lat="36.84898429089328" lon="-108.15835151819677"><ele>1825.0</ele><time>2026-03-29T16:07:08Z</time></trkpt><trkpt lat="36.848986957069684" lon="-108.15847941400445"><ele>1825.8</ele><time>2026-03-29T16:07:09Z</time></trkpt><trkpt lat="36.849003630484056" lon="-108.15856111320188"><ele>1826.6</ele><time>2026-03-29T16:07:10Z</time></trkpt><trkpt lat="36.848998021331795" lon="-108.15866338248365"><ele>1827.4</ele><time>2026-03-29T16:07:11Z</time></trkpt><trkpt lat="36.8489552206453" lon="-108.15880000818349"><ele>1828.2</ele><time>2026-03-29T16:07:12Z</time></trkpt><trkpt lat="36.84894761099122" lon="-108.1589317620653"><ele>1829.0</ele><time>2026-03-29T16:07:13Z</time></trkpt><trkpt lat="36.84896346140018" lon="-108.15904687745929"><ele>1829.6</ele><time>2026-03-29T16:07:14Z</time></trkpt><trkpt lat="36.84896049126773" lon="-108.15918791778218"><ele>1830.2</ele><time>2026-03-29T16:07:15Z</time></trkpt><trkpt lat="36.84896557655786" lon="-108.1593336239213"><ele>1830.7999999999997</ele><time>2026-03-29T16:07:16Z</time></trkpt><trkpt lat="36.84896712463333" lon="-108.15944164115892"><ele>1831.3999999999999</ele><time>2026-03-29T16:07:17Z</time></trkpt><trkpt lat="36.848972395870696" lon="-108.15952100120465"><ele>1832.0</ele><time>2026-03-29T16:07:18Z</time></trkpt><trkpt lat="36.84896247075896" lon="-108.15962972388421"><ele>1831.9999999999998</ele><time>2026-03-29T16:07:19Z</time></trkpt><trkpt lat="36.848969646938926" lon="-108.15974129075629"><ele>1832.0</ele><time>2026-03-29T16:07:20Z</time></trkpt><trkpt lat="36.84897842812047" lon="-108.15984976161391"><ele>1832.0</ele><time>2026-03-29T16:07:21Z</time></trkpt><trkpt lat="36.848987178982895" lon="-108.1599616520049"><ele>1832.0</ele><time>2026-03-29T16:07:22Z</time></trkpt><trkpt lat="36.84901558716133" lon="-108.16007905976318"><ele>1831.9999999999998</ele><time>2026-03-29T16:07:23Z</time></trkpt><trkpt lat="36.84901339086582" lon="-108.16016044747147"><ele>1832.0</ele><time>2026-03-29T16:07:24Z</time></trkpt><trkpt lat="36.84896607958861" lon="-108.16033273280803"><ele>1832.1999999999998</ele><time>2026-03-29T16:07:26Z</time></trkpt><trkpt lat="36.84896849527381" lon="-108.1604536768259"><ele>1832.3999999999999</ele><time>2026-03-29T16:07:27Z</time></trkpt><trkpt lat="36.84897973945803" lon="-108.16057475431096"><ele>1832.6000000000001</ele><time>2026-03-29T16:07:28Z</time></trkpt><trkpt lat="36.84901044785138" lon="-108.1606901641666"><ele>1832.8000000000002</ele><time>2026-03-29T16:07:29Z</time></trkpt><trkpt lat="36.84902458792363" lon="-108.16077006006417"><ele>1833.0</ele><time>2026-03-29T16:07:30Z</time></trkpt><trkpt lat="36.8489305474809" lon="-108.16088964171884"><ele>1834.25</ele><time>2026-03-29T16:07:32Z</time></trkpt><trkpt lat="36.848844051140674" lon="-108.16100318388351"><ele>1835.5</ele><time>2026-03-29T16:07:33Z</time></trkpt><trkpt lat="36.84876928386336" lon="-108.16110724982607"><ele>1836.75</ele><time>2026-03-29T16:07:34Z</time></trkpt><trkpt lat="36.848662207502166" lon="-108.16118021740441"><ele>1838.0</ele><time>2026-03-29T16:07:35Z</time></trkpt><trkpt lat="36.8485368985392" lon="-108.161261576674"><ele>1837.5</ele><time>2026-03-29T16:07:36Z</time></trkpt><trkpt lat="36.848428422605565" lon="-108.16135874318351"><ele>1837.0</ele><time>2026-03-29T16:07:37Z</time></trkpt><trkpt lat="36.8483547758208" lon="-108.16144069646298"><ele>1836.5</ele><time>2026-03-29T16:07:38Z</time></trkpt><trkpt lat="36.848288322492" lon="-108.16153606662782"><ele>1836.0</ele><time>2026-03-29T16:07:39Z</time></trkpt><trkpt lat="36.84821031727511" lon="-108.16166480370376"><ele>1836.0</ele><time>2026-03-29T16:07:40Z</time></trkpt><trkpt lat="36.848122592042344" lon="-108.16179128733455"><ele>1836.0</ele><time>2026-03-29T16:07:41Z</time></trkpt><trkpt lat="36.84805700633145" lon="-108.16187107885948"><ele>1836.0</ele><time>2026-03-29T16:07:42Z</time></trkpt><trkpt lat="36.847970892336626" lon="-108.16197122479291"><ele>1836.0</ele><time>2026-03-29T16:07:43Z</time></trkpt><trkpt lat="36.84785640662398" lon="-108.16206400367462"><ele>1836.0</ele><time>2026-03-29T16:07:44Z</time></trkpt><trkpt lat="36.84776899125261" lon="-108.16215021779877"><ele>1836.0</ele><time>2026-03-29T16:07:45Z</time></trkpt><trkpt lat="36.8476748172633" lon="-108.16221190153678"><ele>1836.0</ele><time>2026-03-29T16:07:46Z</time></trkpt><trkpt lat="36.84756411396332" lon="-108.16223844307848"><ele>1836.0</ele><time>2026-03-29T16:07:47Z</time></trkpt><trkpt lat="36.847431920338806" lon="-108.16226887978466"><ele>1835.6</ele><time>2026-03-29T16:07:48Z</time></trkpt><trkpt lat="36.84732613387756" lon="-108.16230865472149"><ele>1835.1999999999998</ele><time>2026-03-29T16:07:49Z</time></trkpt><trkpt lat="36.84721924333419" lon="-108.16231866925412"><ele>1834.8000000000002</ele><time>2026-03-29T16:07:50Z</time></trkpt><trkpt lat="36.84711579595565" lon="-108.16232933410332"><ele>1834.4</ele><time>2026-03-29T16:07:51Z</time></trkpt><trkpt lat="36.847025846834676" lon="-108.1623630710479"><ele>1834.0</ele><time>2026-03-29T16:07:52Z</time></trkpt><trkpt lat="36.84693740034444" lon="-108.16245974449889"><ele>1834.0</ele><time>2026-03-29T16:07:53Z</time></trkpt><trkpt lat="36.84683509419774" lon="-108.16259585846043"><ele>1834.0</ele><time>2026-03-29T16:07:54Z</time></trkpt><trkpt lat="36.84673864663894" lon="-108.16270262921785"><ele>1834.0</ele><time>2026-03-29T16:07:55Z</time></trkpt><trkpt lat="36.84665193964952" lon="-108.16280121362433"><ele>1834.0</ele><time>2026-03-29T16:07:56Z</time></trkpt><trkpt lat="36.846573220826876" lon="-108.1628885481554"><ele>1832.75</ele><time>2026-03-29T16:07:57Z</time></trkpt><trkpt lat="36.84648188822902" lon="-108.16294835212749"><ele>1831.5</ele><time>2026-03-29T16:07:58Z</time></trkpt><trkpt lat="36.846376025664036" lon="-108.16305655008188"><ele>1830.25</ele><time>2026-03-29T16:07:59Z</time></trkpt><trkpt lat="36.84627191737692" lon="-108.1631430141559"><ele>1829.0</ele><time>2026-03-29T16:08:00Z</time></trkpt><trkpt lat="36.84616674827805" lon="-108.16319217333167"><ele>1828.8000000000002</ele><time>2026-03-29T16:08:01Z</time></trkpt><trkpt lat="36.84604991077455" lon="-108.1632547918475"><ele>1828.6000000000001</ele><time>2026-03-29T16:08:02Z</time></trkpt><trkpt lat="36.84593920165678" lon="-108.16328830574196"><ele>1828.4</ele><time>2026-03-29T16:08:03Z</time></trkpt><trkpt lat="36.8458602135397" lon="-108.16331528526732"><ele>1828.2</ele><time>2026-03-29T16:08:04Z</time></trkpt><trkpt lat="36.84574773759344" lon="-108.16336701350919"><ele>1828.0</ele><time>2026-03-29T16:08:05Z</time></trkpt><trkpt lat="36.84564780284625" lon="-108.16346781928266"><ele>1827.75</ele><time>2026-03-29T16:08:06Z</time></trkpt><trkpt lat="36.845542020290736" lon="-108.16355929954833"><ele>1827.5</ele><time>2026-03-29T16:08:07Z</time></trkpt><trkpt lat="36.845456227575085" lon="-108.16364123994941"><ele>1827.25</ele><time>2026-03-29T16:08:08Z</time></trkpt><trkpt lat="36.845375575346054" lon="-108.16376730635297"><ele>1827.0</ele><time>2026-03-29T16:08:09Z</time></trkpt><trkpt lat="36.84527588698722" lon="-108.16390097267059"><ele>1827.0</ele><time>2026-03-29T16:08:10Z</time></trkpt><trkpt lat="36.84517781802883" lon="-108.16400867999712"><ele>1827.0</ele><time>2026-03-29T16:08:11Z</time></trkpt><trkpt lat="36.84507972141064" lon="-108.16404647030409"><ele>1827.0</ele><time>2026-03-29T16:08:12Z</time></trkpt><trkpt lat="36.84498085888735" lon="-108.1640314314954"><ele>1827.0</ele><time>2026-03-29T16:08:13Z</time></trkpt><trkpt lat="36.844834473731495" lon="-108.164013488664"><ele>1826.75</ele><time>2026-03-29T16:08:14Z</time></trkpt><trkpt lat="36.84467315037161" lon="-108.16400894130321"><ele>1826.5</ele><time>2026-03-29T16:08:15Z</time></trkpt><trkpt lat="36.84453256956168" lon="-108.16402634407036"><ele>1826.25</ele><time>2026-03-29T16:08:16Z</time></trkpt><trkpt lat="36.84442564534268" lon="-108.16402153736686"><ele>1826.0</ele><time>2026-03-29T16:08:17Z</time></trkpt><trkpt lat="36.84431486566408" lon="-108.16402760553149"><ele>1825.1999999999998</ele><time>2026-03-29T16:08:18Z</time></trkpt><trkpt lat="36.84420532894176" lon="-108.16406437342577"><ele>1824.3999999999999</ele><time>2026-03-29T16:08:19Z</time></trkpt><trkpt lat="36.84412356062276" lon="-108.16413739142972"><ele>1823.6</ele><time>2026-03-29T16:08:20Z</time></trkpt><trkpt lat="36.84405658531602" lon="-108.16421383591579"><ele>1822.8</ele><time>2026-03-29T16:08:21Z</time></trkpt><trkpt lat="36.84396744210944" lon="-108.16422732357003"><ele>1822.0</ele><time>2026-03-29T16:08:22Z</time></trkpt><trkpt lat="36.843849369366275" lon="-108.16421292688236"><ele>1822.0</ele><time>2026-03-29T16:08:23Z</time></trkpt><trkpt lat="36.84372415036396" lon="-108.16424000679375"><ele>1822.0</ele><time>2026-03-29T16:08:24Z</time></trkpt><trkpt lat="36.84359511319632" lon="-108.16431223151099"><ele>1822.0</ele><time>2026-03-29T16:08:25Z</time></trkpt><trkpt lat="36.843476223857834" lon="-108.16436448918515"><ele>1822.0</ele><time>2026-03-29T16:08:26Z</time></trkpt><trkpt lat="36.84334347076672" lon="-108.16443468950676"><ele>1821.25</ele><time>2026-03-29T16:08:27Z</time></trkpt><trkpt lat="36.843204395902994" lon="-108.16451461394537"><ele>1820.5</ele><time>2026-03-29T16:08:28Z</time></trkpt><trkpt lat="36.843074078029986" lon="-108.16459215802145"><ele>1819.75</ele><time>2026-03-29T16:08:29Z</time></trkpt><trkpt lat="36.842991863142984" lon="-108.16464836903438"><ele>1819.0</ele><time>2026-03-29T16:08:30Z</time></trkpt><trkpt lat="36.842881284947396" lon="-108.1646761561554"><ele>1819.0</ele><time>2026-03-29T16:08:31Z</time></trkpt><trkpt lat="36.842735988964584" lon="-108.16469461956625"><ele>1819.0</ele><time>2026-03-29T16:08:32Z</time></trkpt><trkpt lat="36.842589939346595" lon="-108.16475565033015"><ele>1819.0</ele><time>2026-03-29T16:08:33Z</time></trkpt><trkpt lat="36.84244958294021" lon="-108.16480595356671"><ele>1819.0</ele><time>2026-03-29T16:08:34Z</time></trkpt><trkpt lat="36.84231028559065" lon="-108.16483796028363"><ele>1818.5</ele><time>2026-03-29T16:08:35Z</time></trkpt><trkpt lat="36.84216650007024" lon="-108.1648540526613"><ele>1818.0</ele><time>2026-03-29T16:08:36Z</time></trkpt><trkpt lat="36.84202389778134" lon="-108.16483809463952"><ele>1817.5</ele><time>2026-03-29T16:08:37Z</time></trkpt><trkpt lat="36.8418848185335" lon="-108.16482357159248"><ele>1817.0</ele><time>2026-03-29T16:08:38Z</time></trkpt><trkpt lat="36.84172542658082" lon="-108.16484534370024"><ele>1818.3333333333333</ele><time>2026-03-29T16:08:39Z</time></trkpt><trkpt lat="36.841564857844354" lon="-108.16487746580302"><ele>1819.6666666666665</ele><time>2026-03-29T16:08:40Z</time></trkpt><trkpt lat="36.841403326540416" lon="-108.16490444861536"><ele>1821.0</ele><time>2026-03-29T16:08:41Z</time></trkpt><trkpt lat="36.84125274705945" lon="-108.16491885565212"><ele>1821.0</ele><time>2026-03-29T16:08:42Z</time></trkpt><trkpt lat="36.841116478693294" lon="-108.16494209154249"><ele>1821.0</ele><time>2026-03-29T16:08:43Z</time></trkpt><trkpt lat="36.84099128625149" lon="-108.16495017918221"><ele>1821.0</ele><time>2026-03-29T16:08:44Z</time></trkpt><trkpt lat="36.84085984132681" lon="-108.16495860026228"><ele>1821.0</ele><time>2026-03-29T16:08:45Z</time></trkpt><trkpt lat="36.8407181279996" lon="-108.16494641983809"><ele>1820.5</ele><time>2026-03-29T16:08:46Z</time></trkpt><trkpt lat="36.84058998350976" lon="-108.16491350495365"><ele>1820.0</ele><time>2026-03-29T16:08:47Z</time></trkpt><trkpt lat="36.840469631498266" lon="-108.16488260986216"><ele>1819.5</ele><time>2026-03-29T16:08:48Z</time></trkpt><trkpt lat="36.84033293066699" lon="-108.16488346890324"><ele>1819.0</ele><time>2026-03-29T16:08:49Z</time></trkpt><trkpt lat="36.84019227018611" lon="-108.1649006477483"><ele>1818.5</ele><time>2026-03-29T16:08:50Z</time></trkpt><trkpt lat="36.84004717588283" lon="-108.16490015655484"><ele>1818.0</ele><time>2026-03-29T16:08:51Z</time></trkpt><trkpt lat="36.83992183114673" lon="-108.16488113286508"><ele>1817.5</ele><time>2026-03-29T16:08:52Z</time></trkpt><trkpt lat="36.839797736848034" lon="-108.16485123824073"><ele>1817.0</ele><time>2026-03-29T16:08:53Z</time></trkpt><trkpt lat="36.83964267811675" lon="-108.16482321989032"><ele>1817.0</ele><time>2026-03-29T16:08:54Z</time></trkpt><trkpt lat="36.839488038902736" lon="-108.16480940029481"><ele>1817.0</ele><time>2026-03-29T16:08:55Z</time></trkpt><trkpt lat="36.83938969888767" lon="-108.16478842608575"><ele>1817.0</ele><time>2026-03-29T16:08:56Z</time></trkpt><trkpt lat="36.8392613728884" lon="-108.16482452194087"><ele>1817.0</ele><time>2026-03-29T16:08:58Z</time></trkpt><trkpt lat="36.839150740502134" lon="-108.16487261290635"><ele>1817.0</ele><time>2026-03-29T16:08:59Z</time></trkpt><trkpt lat="36.83905494155272" lon="-108.16495297828371"><ele>1817.0</ele><time>2026-03-29T16:09:00Z</time></trkpt><trkpt lat="36.838930602780344" lon="-108.16507514207645"><ele>1817.0</ele><time>2026-03-29T16:09:01Z</time></trkpt><trkpt lat="36.838806690565285" lon="-108.16520026829578"><ele>1817.0</ele><time>2026-03-29T16:09:02Z</time></trkpt><trkpt lat="36.83869819099089" lon="-108.1652952204973"><ele>1817.0</ele><time>2026-03-29T16:09:03Z</time></trkpt><trkpt lat="36.83859328121845" lon="-108.1653793792559"><ele>1817.0</ele><time>2026-03-29T16:09:04Z</time></trkpt><trkpt lat="36.83851516973945" lon="-108.16551059246507"><ele>1817.0</ele><time>2026-03-29T16:09:05Z</time></trkpt><trkpt lat="36.838427176071455" lon="-108.1656772674711"><ele>1817.0</ele><time>2026-03-29T16:09:06Z</time></trkpt><trkpt lat="36.83833558379857" lon="-108.16579812567512"><ele>1816.0</ele><time>2026-03-29T16:09:07Z</time></trkpt><trkpt lat="36.8382607409161" lon="-108.16590441102173"><ele>1815.0</ele><time>2026-03-29T16:09:08Z</time></trkpt><trkpt lat="36.838152244458" lon="-108.16599889793767"><ele>1814.0</ele><time>2026-03-29T16:09:09Z</time></trkpt><trkpt lat="36.83803231232064" lon="-108.16608028285812"><ele>1813.0</ele><time>2026-03-29T16:09:10Z</time></trkpt><trkpt lat="36.837903078171884" lon="-108.16614624182563"><ele>1813.0</ele><time>2026-03-29T16:09:11Z</time></trkpt><trkpt lat="36.837797821638475" lon="-108.1662046023301"><ele>1813.0</ele><time>2026-03-29T16:09:12Z</time></trkpt><trkpt lat="36.83771619752377" lon="-108.16627831631659"><ele>1813.0</ele><time>2026-03-29T16:09:13Z</time></trkpt><trkpt lat="36.837628667519105" lon="-108.16639649098684"><ele>1813.0</ele><time>2026-03-29T16:09:14Z</time></trkpt><trkpt lat="36.83751747630734" lon="-108.16649409602373"><ele>1812.75</ele><time>2026-03-29T16:09:15Z</time></trkpt><trkpt lat="36.83744360586417" lon="-108.1665846847842"><ele>1812.5</ele><time>2026-03-29T16:09:16Z</time></trkpt><trkpt lat="36.83742109639368" lon="-108.16673144766952"><ele>1812.25</ele><time>2026-03-29T16:09:17Z</time></trkpt><trkpt lat="36.83739173512009" lon="-108.16690453458114"><ele>1812.0</ele><time>2026-03-29T16:09:18Z</time></trkpt><trkpt lat="36.837340791471" lon="-108.16706804076057"><ele>1812.0</ele><time>2026-03-29T16:09:19Z</time></trkpt><trkpt lat="36.83728440363083" lon="-108.16720156460163"><ele>1812.0</ele><time>2026-03-29T16:09:20Z</time></trkpt><trkpt lat="36.83722986391136" lon="-108.16732912329876"><ele>1812.0</ele><time>2026-03-29T16:09:21Z</time></trkpt><trkpt lat="36.83714865581484" lon="-108.16745743360433"><ele>1812.0</ele><time>2026-03-29T16:09:22Z</time></trkpt><trkpt lat="36.837056349767664" lon="-108.16757900526844"><ele>1812.5</ele><time>2026-03-29T16:09:23Z</time></trkpt><trkpt lat="36.83696422885853" lon="-108.1676698169057"><ele>1813.0</ele><time>2026-03-29T16:09:24Z</time></trkpt><trkpt lat="36.83685402430023" lon="-108.16773717317403"><ele>1813.5</ele><time>2026-03-29T16:09:25Z</time></trkpt><trkpt lat="36.83674581093076" lon="-108.16780098687917"><ele>1814.0</ele><time>2026-03-29T16:09:26Z</time></trkpt><trkpt lat="36.83665356460978" lon="-108.16787877422192"><ele>1814.0</ele><time>2026-03-29T16:09:27Z</time></trkpt><trkpt lat="36.8365889515744" lon="-108.16796240122595"><ele>1814.0</ele><time>2026-03-29T16:09:28Z</time></trkpt><trkpt lat="36.83648949288032" lon="-108.16803546398586"><ele>1814.0</ele><time>2026-03-29T16:09:29Z</time></trkpt><trkpt lat="36.83636066293269" lon="-108.16809284847189"><ele>1814.0</ele><time>2026-03-29T16:09:30Z</time></trkpt><trkpt lat="36.83624027244203" lon="-108.1681756899496"><ele>1814.25</ele><time>2026-03-29T16:09:31Z</time></trkpt><trkpt lat="36.836140367230065" lon="-108.16826535618326"><ele>1814.5</ele><time>2026-03-29T16:09:32Z</time></trkpt><trkpt lat="36.83605543817217" lon="-108.16834572459192"><ele>1814.75</ele><time>2026-03-29T16:09:33Z</time></trkpt><trkpt lat="36.83596092749546" lon="-108.16846558359154"><ele>1815.0</ele><time>2026-03-29T16:09:34Z</time></trkpt><trkpt lat="36.83589089697046" lon="-108.16858122068608"><ele>1814.4</ele><time>2026-03-29T16:09:35Z</time></trkpt><trkpt lat="36.83585830587938" lon="-108.16869175165934"><ele>1813.8</ele><time>2026-03-29T16:09:36Z</time></trkpt><trkpt lat="36.8358533472444" lon="-108.16879612405815"><ele>1813.1999999999998</ele><time>2026-03-29T16:09:37Z</time></trkpt><trkpt lat="36.83586182163068" lon="-108.16893962488165"><ele>1812.6</ele><time>2026-03-29T16:09:38Z</time></trkpt><trkpt lat="36.83585170653634" lon="-108.16910606583282"><ele>1812.0</ele><time>2026-03-29T16:09:39Z</time></trkpt><trkpt lat="36.83583429287344" lon="-108.16928613893883"><ele>1812.0</ele><time>2026-03-29T16:09:40Z</time></trkpt><trkpt lat="36.835831146052136" lon="-108.16944817420485"><ele>1812.0</ele><time>2026-03-29T16:09:41Z</time></trkpt><trkpt lat="36.83584309959656" lon="-108.16958075656245"><ele>1812.0</ele><time>2026-03-29T16:09:42Z</time></trkpt><trkpt lat="36.83582246578" lon="-108.16970645793798"><ele>1812.0</ele><time>2026-03-29T16:09:43Z</time></trkpt><trkpt lat="36.835774286818214" lon="-108.16984512952622"><ele>1811.25</ele><time>2026-03-29T16:09:44Z</time></trkpt><trkpt lat="36.835736072539554" lon="-108.16994785907113"><ele>1810.5</ele><time>2026-03-29T16:09:45Z</time></trkpt><trkpt lat="36.83558277001218" lon="-108.16989540958926"><ele>1809.75</ele><time>2026-03-29T16:09:47Z</time></trkpt><trkpt lat="36.83543709967976" lon="-108.16991079546503"><ele>1809.0</ele><time>2026-03-29T16:09:48Z</time></trkpt><trkpt lat="36.83533284018833" lon="-108.16999908418006"><ele>1809.0</ele><time>2026-03-29T16:09:49Z</time></trkpt><trkpt lat="36.83524621727214" lon="-108.17002302962459"><ele>1809.0</ele><time>2026-03-29T16:09:50Z</time></trkpt><trkpt lat="36.835146443247496" lon="-108.17003798142241"><ele>1809.0</ele><time>2026-03-29T16:09:51Z</time></trkpt><trkpt lat="36.83502751359047" lon="-108.17005426661213"><ele>1809.0</ele><time>2026-03-29T16:09:52Z</time></trkpt><trkpt lat="36.834943192709574" lon="-108.1700805933794"><ele>1809.0</ele><time>2026-03-29T16:09:53Z</time></trkpt><trkpt lat="36.8348416004252" lon="-108.1701307662764"><ele>1809.0</ele><time>2026-03-29T16:09:54Z</time></trkpt><trkpt lat="36.8347415270579" lon="-108.17016509528838"><ele>1809.0</ele><time>2026-03-29T16:09:55Z</time></trkpt><trkpt lat="36.83462659940335" lon="-108.17017164408807"><ele>1809.0</ele><time>2026-03-29T16:09:56Z</time></trkpt><trkpt lat="36.834483726698174" lon="-108.170166104327"><ele>1809.0</ele><time>2026-03-29T16:09:57Z</time></trkpt><trkpt lat="36.834321410960094" lon="-108.17010139760242"><ele>1808.6</ele><time>2026-03-29T16:09:58Z</time></trkpt><trkpt lat="36.83419206148471" lon="-108.17007674050008"><ele>1808.2</ele><time>2026-03-29T16:09:59Z</time></trkpt><trkpt lat="36.8341233286864" lon="-108.17009866734749"><ele>1807.7999999999997</ele><time>2026-03-29T16:10:00Z</time></trkpt><trkpt lat="36.83406805235553" lon="-108.17017180361958"><ele>1807.3999999999999</ele><time>2026-03-29T16:10:01Z</time></trkpt><trkpt lat="36.83399984723925" lon="-108.17027760009297"><ele>1807.0</ele><time>2026-03-29T16:10:02Z</time></trkpt><trkpt lat="36.83391083609743" lon="-108.17039184603546"><ele>1807.0</ele><time>2026-03-29T16:10:03Z</time></trkpt><trkpt lat="36.833820722814714" lon="-108.17053039205624"><ele>1807.0</ele><time>2026-03-29T16:10:04Z</time></trkpt><trkpt lat="36.83375229879003" lon="-108.17065438835732"><ele>1807.0</ele><time>2026-03-29T16:10:05Z</time></trkpt><trkpt lat="36.833681108457064" lon="-108.17076838510702"><ele>1807.0</ele><time>2026-03-29T16:10:06Z</time></trkpt><trkpt lat="36.83359098359553" lon="-108.17084951629604"><ele>1806.75</ele><time>2026-03-29T16:10:07Z</time></trkpt><trkpt lat="36.83345934697028" lon="-108.1709380160941"><ele>1806.5</ele><time>2026-03-29T16:10:08Z</time></trkpt><trkpt lat="36.833335386127985" lon="-108.17102902253987"><ele>1806.25</ele><time>2026-03-29T16:10:09Z</time></trkpt><trkpt lat="36.83328647391536" lon="-108.17112983404681"><ele>1806.0</ele><time>2026-03-29T16:10:10Z</time></trkpt><trkpt lat="36.83327917251038" lon="-108.17125755799312"><ele>1806.0</ele><time>2026-03-29T16:10:11Z</time></trkpt><trkpt lat="36.83323942867183" lon="-108.1714338643394"><ele>1806.0</ele><time>2026-03-29T16:10:12Z</time></trkpt><trkpt lat="36.83315491175951" lon="-108.17161610182885"><ele>1806.0</ele><time>2026-03-29T16:10:13Z</time></trkpt><trkpt lat="36.833047401069315" lon="-108.17173294883558"><ele>1806.0</ele><time>2026-03-29T16:10:14Z</time></trkpt><trkpt lat="36.832960839416835" lon="-108.17183000695262"><ele>1806.0</ele><time>2026-03-29T16:10:15Z</time></trkpt><trkpt lat="36.83286573885785" lon="-108.17193718619264"><ele>1806.0</ele><time>2026-03-29T16:10:16Z</time></trkpt><trkpt lat="36.83275853299557" lon="-108.17208392107572"><ele>1806.0</ele><time>2026-03-29T16:10:17Z</time></trkpt><trkpt lat="36.83264303565888" lon="-108.17221749596382"><ele>1805.25</ele><time>2026-03-29T16:10:18Z</time></trkpt><trkpt lat="36.83258409852916" lon="-108.17236242953207"><ele>1804.5</ele><time>2026-03-29T16:10:19Z</time></trkpt><trkpt lat="36.83251152316923" lon="-108.17246114128345"><ele>1803.75</ele><time>2026-03-29T16:10:20Z</time></trkpt><trkpt lat="36.832406543795344" lon="-108.17252266043165"><ele>1803.0</ele><time>2026-03-29T16:10:21Z</time></trkpt><trkpt lat="36.832266295580716" lon="-108.17251974712318"><ele>1803.0</ele><time>2026-03-29T16:10:22Z</time></trkpt><trkpt lat="36.832076659374415" lon="-108.17255064278686"><ele>1803.0</ele><time>2026-03-29T16:10:23Z</time></trkpt><trkpt lat="36.83192327126857" lon="-108.17262335522058"><ele>1803.0</ele><time>2026-03-29T16:10:24Z</time></trkpt><trkpt lat="36.83178525737711" lon="-108.17268988620897"><ele>1802.25</ele><time>2026-03-29T16:10:25Z</time></trkpt><trkpt lat="36.83165115722822" lon="-108.17273477692301"><ele>1801.5</ele><time>2026-03-29T16:10:26Z</time></trkpt><trkpt lat="36.831515970359725" lon="-108.17278229136133"><ele>1800.75</ele><time>2026-03-29T16:10:27Z</time></trkpt><trkpt lat="36.83136755805852" lon="-108.17284869672335"><ele>1800.0</ele><time>2026-03-29T16:10:28Z</time></trkpt><trkpt lat="36.83123099039047" lon="-108.17291923363558"><ele>1800.0</ele><time>2026-03-29T16:10:29Z</time></trkpt><trkpt lat="36.83111789545172" lon="-108.17303596830162"><ele>1800.0</ele><time>2026-03-29T16:10:30Z</time></trkpt><trkpt lat="36.83097506746045" lon="-108.17322328225617"><ele>1800.0</ele><time>2026-03-29T16:10:31Z</time></trkpt><trkpt lat="36.83084866360516" lon="-108.17336656572851"><ele>1800.25</ele><time>2026-03-29T16:10:32Z</time></trkpt><trkpt lat="36.83077107902406" lon="-108.17349244363044"><ele>1800.5</ele><time>2026-03-29T16:10:33Z</time></trkpt><trkpt lat="36.83072445618705" lon="-108.17365680211415"><ele>1800.75</ele><time>2026-03-29T16:10:34Z</time></trkpt><trkpt lat="36.83064436048468" lon="-108.17381794426711"><ele>1801.0</ele><time>2026-03-29T16:10:35Z</time></trkpt><trkpt lat="36.83054059391846" lon="-108.1740013971364"><ele>1801.25</ele><time>2026-03-29T16:10:36Z</time></trkpt><trkpt lat="36.83047744412652" lon="-108.17419109768656"><ele>1801.5</ele><time>2026-03-29T16:10:37Z</time></trkpt><trkpt lat="36.8304213134277" lon="-108.1743270386724"><ele>1801.75</ele><time>2026-03-29T16:10:38Z</time></trkpt><trkpt lat="36.83029648852909" lon="-108.17441515418099"><ele>1802.0</ele><time>2026-03-29T16:10:39Z</time></trkpt><trkpt lat="36.83016406595217" lon="-108.17452917966183"><ele>1802.0</ele><time>2026-03-29T16:10:40Z</time></trkpt><trkpt lat="36.83002476720186" lon="-108.17463695935209"><ele>1802.0</ele><time>2026-03-29T16:10:41Z</time></trkpt><trkpt lat="36.82987091322205" lon="-108.1747263500119"><ele>1802.0</ele><time>2026-03-29T16:10:42Z</time></trkpt><trkpt lat="36.829718002900904" lon="-108.17479225031572"><ele>1802.0</ele><time>2026-03-29T16:10:43Z</time></trkpt><trkpt lat="36.829599769794875" lon="-108.1748492929439"><ele>1802.0</ele><time>2026-03-29T16:10:44Z</time></trkpt><trkpt lat="36.829489689299045" lon="-108.1748829276153"><ele>1802.0</ele><time>2026-03-29T16:10:45Z</time></trkpt><trkpt lat="36.82937683215587" lon="-108.17487456782439"><ele>1802.0</ele><time>2026-03-29T16:10:46Z</time></trkpt><trkpt lat="36.82922861018419" lon="-108.17485378276241"><ele>1801.5</ele><time>2026-03-29T16:10:47Z</time></trkpt><trkpt lat="36.82909859000846" lon="-108.17485869461817"><ele>1801.0</ele><time>2026-03-29T16:10:48Z</time></trkpt><trkpt lat="36.82897563797907" lon="-108.17493167714143"><ele>1800.5</ele><time>2026-03-29T16:10:49Z</time></trkpt><trkpt lat="36.82881914547725" lon="-108.17502889838445"><ele>1800.0</ele><time>2026-03-29T16:10:50Z</time></trkpt><trkpt lat="36.82865603952185" lon="-108.1750845563905"><ele>1800.0</ele><time>2026-03-29T16:10:51Z</time></trkpt><trkpt lat="36.82852767740548" lon="-108.1751163557987"><ele>1800.0</ele><time>2026-03-29T16:10:52Z</time></trkpt><trkpt lat="36.828406009073795" lon="-108.17513474973471"><ele>1800.0</ele><time>2026-03-29T16:10:53Z</time></trkpt><trkpt lat="36.828297407605305" lon="-108.17517169882198"><ele>1800.0</ele><time>2026-03-29T16:10:54Z</time></trkpt><trkpt lat="36.828192466637475" lon="-108.17527661012784"><ele>1799.25</ele><time>2026-03-29T16:10:55Z</time></trkpt><trkpt lat="36.828066786444445" lon="-108.17539581604512"><ele>1798.5</ele><time>2026-03-29T16:10:56Z</time></trkpt><trkpt lat="36.82794409376647" lon="-108.17545304541991"><ele>1797.75</ele><time>2026-03-29T16:10:57Z</time></trkpt><trkpt lat="36.82786328814871" lon="-108.17552402810684"><ele>1797.0</ele><time>2026-03-29T16:10:58Z</time></trkpt><trkpt lat="36.827805397650614" lon="-108.17567627430181"><ele>1797.0</ele><time>2026-03-29T16:10:59Z</time></trkpt><trkpt lat="36.82776050659534" lon="-108.17585240027496"><ele>1797.0</ele><time>2026-03-29T16:11:00Z</time></trkpt><trkpt lat="36.827706022525255" lon="-108.17596609901827"><ele>1797.0</ele><time>2026-03-29T16:11:01Z</time></trkpt><trkpt lat="36.82762237024777" lon="-108.17607127738329"><ele>1797.0</ele><time>2026-03-29T16:11:02Z</time></trkpt><trkpt lat="36.82755246017161" lon="-108.17624784833146"><ele>1796.75</ele><time>2026-03-29T16:11:03Z</time></trkpt><trkpt lat="36.82753868830497" lon="-108.17642822258141"><ele>1796.5</ele><time>2026-03-29T16:11:04Z</time></trkpt><trkpt lat="36.82747257799593" lon="-108.17657074948173"><ele>1796.25</ele><time>2026-03-29T16:11:05Z</time></trkpt><trkpt lat="36.827361158683274" lon="-108.176695096709"><ele>1796.0</ele><time>2026-03-29T16:11:06Z</time></trkpt><trkpt lat="36.827222188200274" lon="-108.17684122869923"><ele>1796.0</ele><time>2026-03-29T16:11:07Z</time></trkpt><trkpt lat="36.827093265777435" lon="-108.17697932890493"><ele>1796.0</ele><time>2026-03-29T16:11:08Z</time></trkpt><trkpt lat="36.82696893983477" lon="-108.1770438087414"><ele>1796.0</ele><time>2026-03-29T16:11:09Z</time></trkpt><trkpt lat="36.82681628474142" lon="-108.17711065811157"><ele>1795.75</ele><time>2026-03-29T16:11:10Z</time></trkpt><trkpt lat="36.82668034470419" lon="-108.17720980773063"><ele>1795.5</ele><time>2026-03-29T16:11:11Z</time></trkpt><trkpt lat="36.82657244139216" lon="-108.17726281890165"><ele>1795.25</ele><time>2026-03-29T16:11:12Z</time></trkpt><trkpt lat="36.82645104770607" lon="-108.17724935252437"><ele>1795.0</ele><time>2026-03-29T16:11:13Z</time></trkpt><trkpt lat="36.82629447653772" lon="-108.17724621035396"><ele>1795.0</ele><time>2026-03-29T16:11:14Z</time></trkpt><trkpt lat="36.82614120025162" lon="-108.17728354912212"><ele>1795.0</ele><time>2026-03-29T16:11:15Z</time></trkpt><trkpt lat="36.826024785838094" lon="-108.17735820358327"><ele>1795.0</ele><time>2026-03-29T16:11:16Z</time></trkpt><trkpt lat="36.82593751385461" lon="-108.1774568129819"><ele>1795.0</ele><time>2026-03-29T16:11:17Z</time></trkpt><trkpt lat="36.825828184584104" lon="-108.1775690123651"><ele>1795.25</ele><time>2026-03-29T16:11:18Z</time></trkpt><trkpt lat="36.82570776005669" lon="-108.17762617992742"><ele>1795.5</ele><time>2026-03-29T16:11:19Z</time></trkpt><trkpt lat="36.82560222657601" lon="-108.17766295923663"><ele>1795.75</ele><time>2026-03-29T16:11:20Z</time></trkpt><trkpt lat="36.82545927575807" lon="-108.17769234117428"><ele>1796.0</ele><time>2026-03-29T16:11:21Z</time></trkpt><trkpt lat="36.82529578578253" lon="-108.17774566895243"><ele>1795.6666666666665</ele><time>2026-03-29T16:11:22Z</time></trkpt><trkpt lat="36.825125375980484" lon="-108.17782112387437"><ele>1795.3333333333335</ele><time>2026-03-29T16:11:23Z</time></trkpt><trkpt lat="36.82499250684109" lon="-108.17787705815493"><ele>1795.0</ele><time>2026-03-29T16:11:24Z</time></trkpt><trkpt lat="36.824848028787585" lon="-108.17792020947778"><ele>1795.0</ele><time>2026-03-29T16:11:25Z</time></trkpt><trkpt lat="36.82468440363688" lon="-108.17796685622741"><ele>1795.0</ele><time>2026-03-29T16:11:26Z</time></trkpt><trkpt lat="36.82452035531138" lon="-108.17800460281816"><ele>1795.0</ele><time>2026-03-29T16:11:27Z</time></trkpt><trkpt lat="36.82433357188599" lon="-108.17803655190765"><ele>1795.0</ele><time>2026-03-29T16:11:28Z</time></trkpt><trkpt lat="36.824157501048" lon="-108.17806782077753"><ele>1795.0</ele><time>2026-03-29T16:11:29Z</time></trkpt><trkpt lat="36.82403776898782" lon="-108.1781033536304"><ele>1795.0</ele><time>2026-03-29T16:11:30Z</time></trkpt><trkpt lat="36.82394325323343" lon="-108.17816507581186"><ele>1795.0</ele><time>2026-03-29T16:11:31Z</time></trkpt><trkpt lat="36.82386310883872" lon="-108.17825510046896"><ele>1795.0</ele><time>2026-03-29T16:11:32Z</time></trkpt><trkpt lat="36.82378041902984" lon="-108.1783236869416"><ele>1795.0</ele><time>2026-03-29T16:11:33Z</time></trkpt><trkpt lat="36.82363715614631" lon="-108.17834259308565"><ele>1795.0</ele><time>2026-03-29T16:11:34Z</time></trkpt><trkpt lat="36.82343837737881" lon="-108.1782888424129"><ele>1795.0</ele><time>2026-03-29T16:11:35Z</time></trkpt><trkpt lat="36.82326784247468" lon="-108.17822398184953"><ele>1794.75</ele><time>2026-03-29T16:11:36Z</time></trkpt><trkpt lat="36.823116607456676" lon="-108.17815812496154"><ele>1794.5</ele><time>2026-03-29T16:11:37Z</time></trkpt><trkpt lat="36.82299684653485" lon="-108.1781546750263"><ele>1794.25</ele><time>2026-03-29T16:11:38Z</time></trkpt><trkpt lat="36.82289967258952" lon="-108.17819748791592"><ele>1794.0</ele><time>2026-03-29T16:11:39Z</time></trkpt><trkpt lat="36.822768906941" lon="-108.17827263115012"><ele>1794.3333333333335</ele><time>2026-03-29T16:11:40Z</time></trkpt><trkpt lat="36.82258916129415" lon="-108.17833117556816"><ele>1794.6666666666667</ele><time>2026-03-29T16:11:41Z</time></trkpt><trkpt lat="36.82241976169693" lon="-108.17838311215894"><ele>1795.0</ele><time>2026-03-29T16:11:42Z</time></trkpt><trkpt lat="36.822313341306604" lon="-108.17847557218698"><ele>1795.0</ele><time>2026-03-29T16:11:43Z</time></trkpt><trkpt lat="36.82218690968321" lon="-108.1785917867437"><ele>1795.0</ele><time>2026-03-29T16:11:44Z</time></trkpt><trkpt lat="36.82203802567712" lon="-108.17866318635775"><ele>1795.0</ele><time>2026-03-29T16:11:45Z</time></trkpt><trkpt lat="36.82186953395772" lon="-108.17869467402238"><ele>1794.3333333333335</ele><time>2026-03-29T16:11:46Z</time></trkpt><trkpt lat="36.821721915161255" lon="-108.17876054451155"><ele>1793.6666666666665</ele><time>2026-03-29T16:11:47Z</time></trkpt><trkpt lat="36.82158426523753" lon="-108.1788403705615"><ele>1793.0</ele><time>2026-03-29T16:11:48Z</time></trkpt><trkpt lat="36.82144874112903" lon="-108.1789358544251"><ele>1793.0</ele><time>2026-03-29T16:11:49Z</time></trkpt><trkpt lat="36.821320242727296" lon="-108.17901223361676"><ele>1793.0</ele><time>2026-03-29T16:11:50Z</time></trkpt><trkpt lat="36.82117668798182" lon="-108.17909177781861"><ele>1793.0</ele><time>2026-03-29T16:11:51Z</time></trkpt><trkpt lat="36.821035805956086" lon="-108.17915417839329"><ele>1793.0</ele><time>2026-03-29T16:11:52Z</time></trkpt><trkpt lat="36.820884667685114" lon="-108.17924770338165"><ele>1792.0</ele><time>2026-03-29T16:11:53Z</time></trkpt><trkpt lat="36.820756868832866" lon="-108.1793670714682"><ele>1791.0</ele><time>2026-03-29T16:11:54Z</time></trkpt><trkpt lat="36.8206267872472" lon="-108.17948933220784"><ele>1790.0</ele><time>2026-03-29T16:11:55Z</time></trkpt><trkpt lat="36.82048719862281" lon="-108.17959610265464"><ele>1790.0</ele><time>2026-03-29T16:11:56Z</time></trkpt><trkpt lat="36.82034491316794" lon="-108.17969046602059"><ele>1790.0</ele><time>2026-03-29T16:11:57Z</time></trkpt><trkpt lat="36.82024135197748" lon="-108.17974697246427"><ele>1790.0</ele><time>2026-03-29T16:11:58Z</time></trkpt><trkpt lat="36.82016018408027" lon="-108.17982519375121"><ele>1790.0</ele><time>2026-03-29T16:11:59Z</time></trkpt><trkpt lat="36.82009177226766" lon="-108.17994793659376"><ele>1789.5</ele><time>2026-03-29T16:12:00Z</time></trkpt><trkpt lat="36.82001235425883" lon="-108.18011623052838"><ele>1789.0</ele><time>2026-03-29T16:12:01Z</time></trkpt><trkpt lat="36.81995818356712" lon="-108.18023406380443"><ele>1788.5</ele><time>2026-03-29T16:12:02Z</time></trkpt><trkpt lat="36.81993054619636" lon="-108.18037353078537"><ele>1788.0</ele><time>2026-03-29T16:12:03Z</time></trkpt><trkpt lat="36.81991083486305" lon="-108.1805377019107"><ele>1788.25</ele><time>2026-03-29T16:12:04Z</time></trkpt><trkpt lat="36.819849542993694" lon="-108.18068989803984"><ele>1788.5</ele><time>2026-03-29T16:12:05Z</time></trkpt><trkpt lat="36.81972244820704" lon="-108.1807613564524"><ele>1788.75</ele><time>2026-03-29T16:12:06Z</time></trkpt><trkpt lat="36.8195860116527" lon="-108.18076576917352"><ele>1789.0</ele><time>2026-03-29T16:12:07Z</time></trkpt><trkpt lat="36.81946032515114" lon="-108.18071130592023"><ele>1788.75</ele><time>2026-03-29T16:12:08Z</time></trkpt><trkpt lat="36.8193349477384" lon="-108.1806148048744"><ele>1788.5</ele><time>2026-03-29T16:12:09Z</time></trkpt><trkpt lat="36.81921551544251" lon="-108.18052116207492"><ele>1788.25</ele><time>2026-03-29T16:12:10Z</time></trkpt><trkpt lat="36.81910465223382" lon="-108.18052929904127"><ele>1788.0</ele><time>2026-03-29T16:12:11Z</time></trkpt><trkpt lat="36.81895207993526" lon="-108.1805374905772"><ele>1787.0</ele><time>2026-03-29T16:12:12Z</time></trkpt><trkpt lat="36.81878704398699" lon="-108.18051952911998"><ele>1786.0</ele><time>2026-03-29T16:12:13Z</time></trkpt><trkpt lat="36.81863029329836" lon="-108.1804966926357"><ele>1785.0</ele><time>2026-03-29T16:12:14Z</time></trkpt><trkpt lat="36.81846761034998" lon="-108.18047694491672"><ele>1785.0</ele><time>2026-03-29T16:12:15Z</time></trkpt><trkpt lat="36.81832570204642" lon="-108.18045812789792"><ele>1785.0</ele><time>2026-03-29T16:12:16Z</time></trkpt><trkpt lat="36.818210233024004" lon="-108.18044097444543"><ele>1785.0</ele><time>2026-03-29T16:12:17Z</time></trkpt><trkpt lat="36.8180779303558" lon="-108.18044573501723"><ele>1785.0</ele><time>2026-03-29T16:12:18Z</time></trkpt><trkpt lat="36.817926465777056" lon="-108.18043857313842"><ele>1785.0</ele><time>2026-03-29T16:12:19Z</time></trkpt><trkpt lat="36.81775664772747" lon="-108.1804332885967"><ele>1785.0</ele><time>2026-03-29T16:12:20Z</time></trkpt><trkpt lat="36.81758431168939" lon="-108.18044620501945"><ele>1785.0</ele><time>2026-03-29T16:12:21Z</time></trkpt><trkpt lat="36.81741200261247" lon="-108.18045299915671"><ele>1784.5</ele><time>2026-03-29T16:12:22Z</time></trkpt><trkpt lat="36.81727464313107" lon="-108.18045847644673"><ele>1784.0</ele><time>2026-03-29T16:12:23Z</time></trkpt><trkpt lat="36.817161010035065" lon="-108.1804658784523"><ele>1783.5</ele><time>2026-03-29T16:12:24Z</time></trkpt><trkpt lat="36.817049196662914" lon="-108.1804881540556"><ele>1783.0</ele><time>2026-03-29T16:12:25Z</time></trkpt><trkpt lat="36.816919220221266" lon="-108.18054061041165"><ele>1782.75</ele><time>2026-03-29T16:12:26Z</time></trkpt><trkpt lat="36.816761387896626" lon="-108.18057285104011"><ele>1782.5</ele><time>2026-03-29T16:12:27Z</time></trkpt><trkpt lat="36.81664009843222" lon="-108.18059653923672"><ele>1782.25</ele><time>2026-03-29T16:12:28Z</time></trkpt><trkpt lat="36.81653648286842" lon="-108.1806357697807"><ele>1782.0</ele><time>2026-03-29T16:12:29Z</time></trkpt><trkpt lat="36.81643634690674" lon="-108.18064644408551"><ele>1782.0</ele><time>2026-03-29T16:12:30Z</time></trkpt><trkpt lat="36.81632854712347" lon="-108.18069313923925"><ele>1781.9999999999998</ele><time>2026-03-29T16:12:31Z</time></trkpt><trkpt lat="36.816224583192465" lon="-108.18075988648847"><ele>1781.9999999999998</ele><time>2026-03-29T16:12:32Z</time></trkpt><trkpt lat="36.816114393673956" lon="-108.18080152206768"><ele>1782.0</ele><time>2026-03-29T16:12:33Z</time></trkpt><trkpt lat="36.81601126181544" lon="-108.1808047207029"><ele>1782.0</ele><time>2026-03-29T16:12:34Z</time></trkpt><trkpt lat="36.81587007321037" lon="-108.18079279095069"><ele>1781.75</ele><time>2026-03-29T16:12:35Z</time></trkpt><trkpt lat="36.81574668371303" lon="-108.18078057822986"><ele>1781.5</ele><time>2026-03-29T16:12:36Z</time></trkpt><trkpt lat="36.815633657436514" lon="-108.18077824386864"><ele>1781.25</ele><time>2026-03-29T16:12:37Z</time></trkpt><trkpt lat="36.81553432913673" lon="-108.180837876805"><ele>1781.0</ele><time>2026-03-29T16:12:38Z</time></trkpt><trkpt lat="36.815434570495874" lon="-108.18093337433376"><ele>1781.0</ele><time>2026-03-29T16:12:39Z</time></trkpt><trkpt lat="36.81535871356412" lon="-108.18102479748586"><ele>1781.0</ele><time>2026-03-29T16:12:40Z</time></trkpt><trkpt lat="36.81528573146434" lon="-108.18109572430633"><ele>1781.0</ele><time>2026-03-29T16:12:41Z</time></trkpt><trkpt lat="36.815210201851855" lon="-108.1811481873856"><ele>1781.0</ele><time>2026-03-29T16:12:42Z</time></trkpt><trkpt lat="36.81512228537523" lon="-108.18115860666518"><ele>1781.0</ele><time>2026-03-29T16:12:43Z</time></trkpt><trkpt lat="36.81499799109204" lon="-108.18117824810705"><ele>1781.0</ele><time>2026-03-29T16:12:44Z</time></trkpt><trkpt lat="36.814873586982394" lon="-108.18124283636307"><ele>1781.0</ele><time>2026-03-29T16:12:45Z</time></trkpt><trkpt lat="36.81476250016641" lon="-108.18129644350152"><ele>1781.0</ele><time>2026-03-29T16:12:46Z</time></trkpt><trkpt lat="36.81466886681596" lon="-108.18135354910265"><ele>1781.0</ele><time>2026-03-29T16:12:47Z</time></trkpt><trkpt lat="36.81458691278519" lon="-108.18140948870678"><ele>1781.0</ele><time>2026-03-29T16:12:48Z</time></trkpt><trkpt lat="36.81448271508344" lon="-108.18142967157526"><ele>1781.0</ele><time>2026-03-29T16:12:49Z</time></trkpt><trkpt lat="36.814362533101026" lon="-108.18142328561414"><ele>1781.0</ele><time>2026-03-29T16:12:50Z</time></trkpt><trkpt lat="36.814271732061016" lon="-108.18139967182279"><ele>1781.0</ele><time>2026-03-29T16:12:51Z</time></trkpt><trkpt lat="36.814194510856" lon="-108.18132676092455"><ele>1781.0</ele><time>2026-03-29T16:12:52Z</time></trkpt><trkpt lat="36.81412409270213" lon="-108.18119570826588"><ele>1780.0</ele><time>2026-03-29T16:12:53Z</time></trkpt><trkpt lat="36.81403603149089" lon="-108.18104428297262"><ele>1779.0</ele><time>2026-03-29T16:12:54Z</time></trkpt><trkpt lat="36.813906527087724" lon="-108.18088960422739"><ele>1778.0</ele><time>2026-03-29T16:12:55Z</time></trkpt><trkpt lat="36.81375818199137" lon="-108.1807523341058"><ele>1776.6666666666665</ele><time>2026-03-29T16:12:56Z</time></trkpt><trkpt lat="36.81359436915093" lon="-108.18059197165626"><ele>1775.3333333333335</ele><time>2026-03-29T16:12:57Z</time></trkpt><trkpt lat="36.813435227376935" lon="-108.18041676427065"><ele>1774.0</ele><time>2026-03-29T16:12:58Z</time></trkpt><trkpt lat="36.813281709152875" lon="-108.18026761036124"><ele>1773.6666666666667</ele><time>2026-03-29T16:12:59Z</time></trkpt><trkpt lat="36.81314817490192" lon="-108.18012263366951"><ele>1773.3333333333335</ele><time>2026-03-29T16:13:00Z</time></trkpt><trkpt lat="36.81303392730898" lon="-108.179995693466"><ele>1773.0</ele><time>2026-03-29T16:13:01Z</time></trkpt><trkpt lat="36.812927412369255" lon="-108.17987989744132"><ele>1771.25</ele><time>2026-03-29T16:13:02Z</time></trkpt><trkpt lat="36.81283971353361" lon="-108.17977352204689"><ele>1769.5</ele><time>2026-03-29T16:13:03Z</time></trkpt><trkpt lat="36.812771699387824" lon="-108.17964937408537"><ele>1767.75</ele><time>2026-03-29T16:13:04Z</time></trkpt><trkpt lat="36.81271998176189" lon="-108.1795109400749"><ele>1766.0</ele><time>2026-03-29T16:13:05Z</time></trkpt><trkpt lat="36.81269784960372" lon="-108.17935320159526"><ele>1766.0</ele><time>2026-03-29T16:13:06Z</time></trkpt><trkpt lat="36.8127014154038" lon="-108.1791748635339"><ele>1766.0</ele><time>2026-03-29T16:13:07Z</time></trkpt><trkpt lat="36.812714257373365" lon="-108.179011921908"><ele>1766.0</ele><time>2026-03-29T16:13:08Z</time></trkpt><trkpt lat="36.812725008401905" lon="-108.17886667152416"><ele>1766.0</ele><time>2026-03-29T16:13:09Z</time></trkpt><trkpt lat="36.81272880126302" lon="-108.17870721421576"><ele>1765.0</ele><time>2026-03-29T16:13:10Z</time></trkpt><trkpt lat="36.8127336473117" lon="-108.17850875784171"><ele>1764.0</ele><time>2026-03-29T16:13:11Z</time></trkpt><trkpt lat="36.812737760832654" lon="-108.17829517709235"><ele>1763.0</ele><time>2026-03-29T16:13:12Z</time></trkpt><trkpt lat="36.812744656658154" lon="-108.17809550143163"><ele>1760.75</ele><time>2026-03-29T16:13:13Z</time></trkpt><trkpt lat="36.81273515250872" lon="-108.1779271081043"><ele>1758.5</ele><time>2026-03-29T16:13:14Z</time></trkpt><trkpt lat="36.81273173363546" lon="-108.17776862948915"><ele>1756.25</ele><time>2026-03-29T16:13:15Z</time></trkpt><trkpt lat="36.81272967337172" lon="-108.1775530537869"><ele>1754.0</ele><time>2026-03-29T16:13:16Z</time></trkpt><trkpt lat="36.81273573842339" lon="-108.17734903953901"><ele>1753.25</ele><time>2026-03-29T16:13:17Z</time></trkpt><trkpt lat="36.81274454750292" lon="-108.1771781506135"><ele>1752.5</ele><time>2026-03-29T16:13:18Z</time></trkpt><trkpt lat="36.81274894365298" lon="-108.17701503920964"><ele>1751.75</ele><time>2026-03-29T16:13:19Z</time></trkpt><trkpt lat="36.81274618633951" lon="-108.17688340590603"><ele>1751.0</ele><time>2026-03-29T16:13:20Z</time></trkpt><trkpt lat="36.8127446972841" lon="-108.1767634709069"><ele>1751.0</ele><time>2026-03-29T16:13:21Z</time></trkpt><trkpt lat="36.81274509369069" lon="-108.17664067467994"><ele>1751.0</ele><time>2026-03-29T16:13:22Z</time></trkpt><trkpt lat="36.81274359597009" lon="-108.17651280607338"><ele>1751.0</ele><time>2026-03-29T16:13:23Z</time></trkpt><trkpt lat="36.81272916545266" lon="-108.17639936247764"><ele>1751.0</ele><time>2026-03-29T16:13:24Z</time></trkpt><trkpt lat="36.812701028269075" lon="-108.17630320750216"><ele>1751.0</ele><time>2026-03-29T16:13:25Z</time></trkpt><trkpt lat="36.8126504799508" lon="-108.17622128808"><ele>1749.8</ele><time>2026-03-29T16:13:26Z</time></trkpt><trkpt lat="36.81257637679879" lon="-108.17619009059642"><ele>1748.6</ele><time>2026-03-29T16:13:27Z</time></trkpt><trkpt lat="36.81248667292445" lon="-108.1762485162143"><ele>1747.4</ele><time>2026-03-29T16:13:28Z</time></trkpt><trkpt lat="36.81237402572998" lon="-108.17632391761157"><ele>1746.2</ele><time>2026-03-29T16:13:29Z</time></trkpt><trkpt lat="36.81225647370816" lon="-108.17637179087572"><ele>1745.0</ele><time>2026-03-29T16:13:30Z</time></trkpt><trkpt lat="36.812119827240444" lon="-108.17639073795529"><ele>1745.0</ele><time>2026-03-29T16:13:31Z</time></trkpt><trkpt lat="36.81195602925613" lon="-108.17644146581362"><ele>1745.0</ele><time>2026-03-29T16:13:32Z</time></trkpt><trkpt lat="36.81179621394052" lon="-108.17648723426028"><ele>1745.0</ele><time>2026-03-29T16:13:33Z</time></trkpt><trkpt lat="36.8116331020646" lon="-108.1765373181698"><ele>1745.0</ele><time>2026-03-29T16:13:34Z</time></trkpt><trkpt lat="36.8114885907811" lon="-108.17658310105442"><ele>1745.0</ele><time>2026-03-29T16:13:35Z</time></trkpt><trkpt lat="36.811347349729026" lon="-108.17661607730847"><ele>1745.0</ele><time>2026-03-29T16:13:36Z</time></trkpt><trkpt lat="36.81123436210037" lon="-108.17664292967059"><ele>1745.0</ele><time>2026-03-29T16:13:37Z</time></trkpt><trkpt lat="36.811118840974906" lon="-108.17666188982402"><ele>1744.5</ele><time>2026-03-29T16:13:38Z</time></trkpt><trkpt lat="36.81098999643514" lon="-108.17667762764059"><ele>1744.0</ele><time>2026-03-29T16:13:39Z</time></trkpt><trkpt lat="36.81085742968713" lon="-108.17671569267848"><ele>1743.5</ele><time>2026-03-29T16:13:40Z</time></trkpt><trkpt lat="36.810726530014" lon="-108.1767494363993"><ele>1743.0</ele><time>2026-03-29T16:13:41Z</time></trkpt><trkpt lat="36.81057080970596" lon="-108.17677198529226"><ele>1743.0</ele><time>2026-03-29T16:13:42Z</time></trkpt><trkpt lat="36.810411592343684" lon="-108.17680178919647"><ele>1743.0</ele><time>2026-03-29T16:13:43Z</time></trkpt><trkpt lat="36.81024796490498" lon="-108.17683204093153"><ele>1743.0</ele><time>2026-03-29T16:13:44Z</time></trkpt><trkpt lat="36.81009683126561" lon="-108.17683198962288"><ele>1742.75</ele><time>2026-03-29T16:13:45Z</time></trkpt><trkpt lat="36.80996093744817" lon="-108.176845679152"><ele>1742.5</ele><time>2026-03-29T16:13:46Z</time></trkpt><trkpt lat="36.809814199146025" lon="-108.17687248761578"><ele>1742.25</ele><time>2026-03-29T16:13:47Z</time></trkpt><trkpt lat="36.809669333117306" lon="-108.17690355534938"><ele>1742.0</ele><time>2026-03-29T16:13:48Z</time></trkpt><trkpt lat="36.809517442845376" lon="-108.17694054662394"><ele>1742.0</ele><time>2026-03-29T16:13:49Z</time></trkpt><trkpt lat="36.809366056540185" lon="-108.17694981238836"><ele>1742.0</ele><time>2026-03-29T16:13:50Z</time></trkpt><trkpt lat="36.809242141030325" lon="-108.1769686603626"><ele>1742.0</ele><time>2026-03-29T16:13:51Z</time></trkpt><trkpt lat="36.80914267054001" lon="-108.17700450430634"><ele>1742.0</ele><time>2026-03-29T16:13:52Z</time></trkpt><trkpt lat="36.80905125263077" lon="-108.17707565419953"><ele>1741.8</ele><time>2026-03-29T16:13:53Z</time></trkpt><trkpt lat="36.808961022358716" lon="-108.17714992658756"><ele>1741.6</ele><time>2026-03-29T16:13:54Z</time></trkpt><trkpt lat="36.80887130336216" lon="-108.17718519859439"><ele>1741.3999999999999</ele><time>2026-03-29T16:13:55Z</time></trkpt><trkpt lat="36.80876128823602" lon="-108.177191013803"><ele>1741.1999999999998</ele><time>2026-03-29T16:13:56Z</time></trkpt><trkpt lat="36.808634717172644" lon="-108.1771287927794"><ele>1741.0</ele><time>2026-03-29T16:13:57Z</time></trkpt><trkpt lat="36.808531373330005" lon="-108.17704808122716"><ele>1739.75</ele><time>2026-03-29T16:13:58Z</time></trkpt><trkpt lat="36.80844735841945" lon="-108.17697341758759"><ele>1738.5</ele><time>2026-03-29T16:13:59Z</time></trkpt><trkpt lat="36.80839382019121" lon="-108.17685394795397"><ele>1737.25</ele><time>2026-03-29T16:14:00Z</time></trkpt><trkpt lat="36.80835713126619" lon="-108.17667455906465"><ele>1736.0</ele><time>2026-03-29T16:14:01Z</time></trkpt><trkpt lat="36.8083110112277" lon="-108.17650498749663"><ele>1736.0</ele><time>2026-03-29T16:14:02Z</time></trkpt><trkpt lat="36.80824899923971" lon="-108.17640773076324"><ele>1736.0</ele><time>2026-03-29T16:14:03Z</time></trkpt><trkpt lat="36.80816270538879" lon="-108.17641365872474"><ele>1736.0</ele><time>2026-03-29T16:14:04Z</time></trkpt><trkpt lat="36.80807192324271" lon="-108.17642985013389"><ele>1736.0</ele><time>2026-03-29T16:14:05Z</time></trkpt><trkpt lat="36.80795759431095" lon="-108.17646509360127"><ele>1736.0</ele><time>2026-03-29T16:14:06Z</time></trkpt><trkpt lat="36.80781681375826" lon="-108.17652213780806"><ele>1736.0</ele><time>2026-03-29T16:14:07Z</time></trkpt><trkpt lat="36.80766604393756" lon="-108.17655611077855"><ele>1736.0</ele><time>2026-03-29T16:14:08Z</time></trkpt><trkpt lat="36.80755373779111" lon="-108.1765551628452"><ele>1736.0</ele><time>2026-03-29T16:14:09Z</time></trkpt><trkpt lat="36.80748373140579" lon="-108.17651601290949"><ele>1736.0</ele><time>2026-03-29T16:14:10Z</time></trkpt><trkpt lat="36.807394946857215" lon="-108.17640766212561"><ele>1735.8</ele><time>2026-03-29T16:14:12Z</time></trkpt><trkpt lat="36.80733137842736" lon="-108.1763378082715"><ele>1735.6</ele><time>2026-03-29T16:14:13Z</time></trkpt><trkpt lat="36.80721817946681" lon="-108.17633536416203"><ele>1735.4</ele><time>2026-03-29T16:14:14Z</time></trkpt><trkpt lat="36.80709142003703" lon="-108.17635270696438"><ele>1735.2</ele><time>2026-03-29T16:14:15Z</time></trkpt><trkpt lat="36.80696798827454" lon="-108.17634411152001"><ele>1735.0</ele><time>2026-03-29T16:14:16Z</time></trkpt><trkpt lat="36.80682901153778" lon="-108.1763310273258"><ele>1734.6666666666667</ele><time>2026-03-29T16:14:17Z</time></trkpt><trkpt lat="36.806677894076806" lon="-108.17630874490024"><ele>1734.3333333333335</ele><time>2026-03-29T16:14:18Z</time></trkpt><trkpt lat="36.806521491588306" lon="-108.17628398471051"><ele>1734.0</ele><time>2026-03-29T16:14:19Z</time></trkpt><trkpt lat="36.80635206790015" lon="-108.17624911284774"><ele>1734.0</ele><time>2026-03-29T16:14:20Z</time></trkpt><trkpt lat="36.80616540613784" lon="-108.1762260321432"><ele>1734.0</ele><time>2026-03-29T16:14:21Z</time></trkpt><trkpt lat="36.80600985243278" lon="-108.17625523011712"><ele>1734.0</ele><time>2026-03-29T16:14:22Z</time></trkpt><trkpt lat="36.80582618219788" lon="-108.17631820694511"><ele>1733.3333333333335</ele><time>2026-03-29T16:14:23Z</time></trkpt><trkpt lat="36.805629149867684" lon="-108.17642039107237"><ele>1732.6666666666667</ele><time>2026-03-29T16:14:24Z</time></trkpt><trkpt lat="36.805461227824374" lon="-108.17653027168272"><ele>1732.0</ele><time>2026-03-29T16:14:25Z</time></trkpt><trkpt lat="36.80530611736977" lon="-108.1766639686728"><ele>1732.3333333333335</ele><time>2026-03-29T16:14:26Z</time></trkpt><trkpt lat="36.8051429262771" lon="-108.17683198003614"><ele>1732.6666666666665</ele><time>2026-03-29T16:14:27Z</time></trkpt><trkpt lat="36.804981595961" lon="-108.1769559515983"><ele>1733.0</ele><time>2026-03-29T16:14:28Z</time></trkpt><trkpt lat="36.804840094064595" lon="-108.1770323274316"><ele>1733.0</ele><time>2026-03-29T16:14:29Z</time></trkpt><trkpt lat="36.8046631908468" lon="-108.17707754832396"><ele>1733.0</ele><time>2026-03-29T16:14:30Z</time></trkpt><trkpt lat="36.804478186103466" lon="-108.1770932843204"><ele>1733.0</ele><time>2026-03-29T16:14:31Z</time></trkpt><trkpt lat="36.80427332555666" lon="-108.17709291749821"><ele>1732.6666666666665</ele><time>2026-03-29T16:14:32Z</time></trkpt><trkpt lat="36.804078564248535" lon="-108.17707500868256"><ele>1732.3333333333335</ele><time>2026-03-29T16:14:33Z</time></trkpt><trkpt lat="36.80390634700814" lon="-108.17706164241496"><ele>1732.0</ele><time>2026-03-29T16:14:34Z</time></trkpt><trkpt lat="36.80375668355407" lon="-108.17708980713617"><ele>1732.0</ele><time>2026-03-29T16:14:35Z</time></trkpt><trkpt lat="36.80360784996065" lon="-108.1771483938468"><ele>1732.0</ele><time>2026-03-29T16:14:36Z</time></trkpt><trkpt lat="36.8034561818979" lon="-108.1772348604683"><ele>1732.0</ele><time>2026-03-29T16:14:37Z</time></trkpt><trkpt lat="36.80333951524921" lon="-108.1773774432803"><ele>1731.3333333333335</ele><time>2026-03-29T16:14:38Z</time></trkpt><trkpt lat="36.80322056584567" lon="-108.17757128487375"><ele>1730.6666666666665</ele><time>2026-03-29T16:14:39Z</time></trkpt><trkpt lat="36.80309561402832" lon="-108.17777890239834"><ele>1730.0</ele><time>2026-03-29T16:14:40Z</time></trkpt><trkpt lat="36.80297531724522" lon="-108.17799072264394"><ele>1730.0</ele><time>2026-03-29T16:14:41Z</time></trkpt><trkpt lat="36.802852812312786" lon="-108.17822522677234"><ele>1730.0</ele><time>2026-03-29T16:14:42Z</time></trkpt><trkpt lat="36.80274355287261" lon="-108.17846094835379"><ele>1730.0</ele><time>2026-03-29T16:14:43Z</time></trkpt><trkpt lat="36.80260912934602" lon="-108.17869656487058"><ele>1730.0</ele><time>2026-03-29T16:14:44Z</time></trkpt><trkpt lat="36.802486403423366" lon="-108.17890116629674"><ele>1730.0</ele><time>2026-03-29T16:14:45Z</time></trkpt><trkpt lat="36.802354464479556" lon="-108.17909260648698"><ele>1730.0</ele><time>2026-03-29T16:14:46Z</time></trkpt><trkpt lat="36.80221172072897" lon="-108.17927162292092"><ele>1729.3333333333333</ele><time>2026-03-29T16:14:47Z</time></trkpt><trkpt lat="36.802088720754064" lon="-108.1794292450356"><ele>1728.6666666666665</ele><time>2026-03-29T16:14:48Z</time></trkpt><trkpt lat="36.80201485153059" lon="-108.1795928645581"><ele>1728.0</ele><time>2026-03-29T16:14:49Z</time></trkpt><trkpt lat="36.80195636818423" lon="-108.1797860168172"><ele>1728.3333333333335</ele><time>2026-03-29T16:14:50Z</time></trkpt><trkpt lat="36.80191179586232" lon="-108.18001894959853"><ele>1728.6666666666667</ele><time>2026-03-29T16:14:51Z</time></trkpt><trkpt lat="36.8018438567295" lon="-108.18024469889184"><ele>1729.0</ele><time>2026-03-29T16:14:52Z</time></trkpt><trkpt lat="36.80176808631283" lon="-108.18047564131847"><ele>1729.0</ele><time>2026-03-29T16:14:53Z</time></trkpt><trkpt lat="36.80167139054325" lon="-108.18072299472337"><ele>1729.0</ele><time>2026-03-29T16:14:54Z</time></trkpt><trkpt lat="36.80155572266212" lon="-108.18099049079007"><ele>1729.0</ele><time>2026-03-29T16:14:55Z</time></trkpt><trkpt lat="36.80144563674065" lon="-108.18126299884743"><ele>1729.0</ele><time>2026-03-29T16:14:56Z</time></trkpt><trkpt lat="36.80133928133175" lon="-108.18153014963765"><ele>1727.6666666666667</ele><time>2026-03-29T16:14:56.999Z</time></trkpt><trkpt lat="36.80125188577472" lon="-108.18176471383137"><ele>1726.3333333333335</ele><time>2026-03-29T16:14:57.999Z</time></trkpt><trkpt lat="36.80118354250447" lon="-108.18196357029508"><ele>1725.0</ele><time>2026-03-29T16:14:58.999Z</time></trkpt><trkpt lat="36.80112137178334" lon="-108.18216436390796"><ele>1725.0</ele><time>2026-03-29T16:14:59.999Z</time></trkpt><trkpt lat="36.80108173810593" lon="-108.18234571742826"><ele>1725.0</ele><time>2026-03-29T16:15:00.999Z</time></trkpt><trkpt lat="36.80105553287946" lon="-108.1825006180197"><ele>1725.0</ele><time>2026-03-29T16:15:01.999Z</time></trkpt><trkpt lat="36.801026842023454" lon="-108.1826233108723"><ele>1725.0</ele><time>2026-03-29T16:15:02.999Z</time></trkpt><trkpt lat="36.80098191128161" lon="-108.18273495077096"><ele>1725.0</ele><time>2026-03-29T16:15:03.999Z</time></trkpt><trkpt lat="36.8009291841274" lon="-108.18284972403069"><ele>1725.0</ele><time>2026-03-29T16:15:04.999Z</time></trkpt><trkpt lat="36.80088527357045" lon="-108.18294678788521"><ele>1725.0</ele><time>2026-03-29T16:15:05.999Z</time></trkpt><trkpt lat="36.80082872533628" lon="-108.1830248975169"><ele>1725.0</ele><time>2026-03-29T16:15:06.999Z</time></trkpt><trkpt lat="36.80076461221911" lon="-108.18309709477839"><ele>1725.0</ele><time>2026-03-29T16:15:07.999Z</time></trkpt><trkpt lat="36.80071287598599" lon="-108.18316594853808"><ele>1725.0</ele><time>2026-03-29T16:15:08.999Z</time></trkpt><trkpt lat="36.800679130558585" lon="-108.18332644088794"><ele>1725.0</ele><time>2026-03-29T16:15:10.999Z</time></trkpt><trkpt lat="36.80066108841411" lon="-108.18340760457572"><ele>1725.0</ele><time>2026-03-29T16:15:11.999Z</time></trkpt><trkpt lat="36.800648467196574" lon="-108.18356045562274"><ele>1725.0</ele><time>2026-03-29T16:15:13.999Z</time></trkpt><trkpt lat="36.80063230911129" lon="-108.18365148506082"><ele>1725.0</ele><time>2026-03-29T16:15:14.999Z</time></trkpt><trkpt lat="36.80061441845807" lon="-108.18373853428112"><ele>1725.0</ele><time>2026-03-29T16:15:15.999Z</time></trkpt><trkpt lat="36.80059916331514" lon="-108.18382233442777"><ele>1725.0</ele><time>2026-03-29T16:15:16.999Z</time></trkpt><trkpt lat="36.80058045988826" lon="-108.18390322211603"><ele>1725.0</ele><time>2026-03-29T16:15:17.999Z</time></trkpt><trkpt lat="36.8005580026926" lon="-108.18398470553015"><ele>1725.0</ele><time>2026-03-29T16:15:18.999Z</time></trkpt><trkpt lat="36.800537908901624" lon="-108.18406654987785"><ele>1725.0</ele><time>2026-03-29T16:15:19.999Z</time></trkpt><trkpt lat="36.800520567332725" lon="-108.18414846973575"><ele>1725.0</ele><time>2026-03-29T16:15:20.999Z</time></trkpt><trkpt lat="36.800504606465616" lon="-108.18422899897539"><ele>1725.0</ele><time>2026-03-29T16:15:21.999Z</time></trkpt><trkpt lat="36.80046532811183" lon="-108.18436180281168"><ele>1725.0</ele><time>2026-03-29T16:15:23.999Z</time></trkpt><trkpt lat="36.800437003711664" lon="-108.18446635664804"><ele>1724.8</ele><time>2026-03-29T16:15:25.999Z</time></trkpt><trkpt lat="36.8004063449502" lon="-108.1845768440611"><ele>1724.6</ele><time>2026-03-29T16:15:27.999Z</time></trkpt><trkpt lat="36.800369376064715" lon="-108.18470953990398"><ele>1724.4</ele><time>2026-03-29T16:15:29.999Z</time></trkpt><trkpt lat="36.80034617740125" lon="-108.18481386327618"><ele>1724.2</ele><time>2026-03-29T16:15:31.999Z</time></trkpt><trkpt lat="36.800308490924856" lon="-108.18489323880763"><ele>1724.0</ele><time>2026-03-29T16:15:34.999Z</time></trkpt><trkpt lat="36.80022331639481" lon="-108.18507680516181"><ele>1723.8000000000002</ele><time>2026-03-29T16:15:37.999Z</time></trkpt><trkpt lat="36.80015766659445" lon="-108.18519042378247"><ele>1723.6000000000001</ele><time>2026-03-29T16:15:39.999Z</time></trkpt><trkpt lat="36.80008586746786" lon="-108.18528975856884"><ele>1723.4</ele><time>2026-03-29T16:15:41.999Z</time></trkpt><trkpt lat="36.800014452738715" lon="-108.18537369890515"><ele>1723.2</ele><time>2026-03-29T16:15:44.999Z</time></trkpt><trkpt lat="36.79993105563373" lon="-108.18547135523652"><ele>1723.0</ele><time>2026-03-29T16:15:46.999Z</time></trkpt><trkpt lat="36.79987933042531" lon="-108.18553135708314"><ele>1723.0000000000002</ele><time>2026-03-29T16:15:48.999Z</time></trkpt><trkpt lat="36.79983861822663" lon="-108.1856167811108"><ele>1723.0</ele><time>2026-03-29T16:16:23.999Z</time></trkpt><trkpt lat="36.79980003000428" lon="-108.18568310277253"><ele>1723.0</ele><time>2026-03-29T16:16:24.999Z</time></trkpt><trkpt lat="36.79970401290737" lon="-108.18578402492471"><ele>1723.0</ele><time>2026-03-29T16:16:26.999Z</time></trkpt><trkpt lat="36.79967653490337" lon="-108.18589094139382"><ele>1723.0000000000002</ele><time>2026-03-29T16:16:31.999Z</time></trkpt><trkpt lat="36.79968460257253" lon="-108.18597464631485"><ele>1723.0</ele><time>2026-03-29T16:16:32.999Z</time></trkpt><trkpt lat="36.799701000065475" lon="-108.18606813526212"><ele>1722.6000000000001</ele><time>2026-03-29T16:16:33.999Z</time></trkpt><trkpt lat="36.799703820814756" lon="-108.18617244354752"><ele>1722.2000000000003</ele><time>2026-03-29T16:16:34.999Z</time></trkpt><trkpt lat="36.79967169643106" lon="-108.18627571918277"><ele>1721.8</ele><time>2026-03-29T16:16:35.999Z</time></trkpt><trkpt lat="36.79960577222349" lon="-108.18638052172393"><ele>1721.4</ele><time>2026-03-29T16:16:36.999Z</time></trkpt><trkpt lat="36.79952634338235" lon="-108.18649078878431"><ele>1721.0</ele><time>2026-03-29T16:16:37.999Z</time></trkpt><trkpt lat="36.79943138211898" lon="-108.18659389017151"><ele>1722.0</ele><time>2026-03-29T16:16:38.999Z</time></trkpt><trkpt lat="36.799307509020636" lon="-108.18668440595056"><ele>1723.0</ele><time>2026-03-29T16:16:39.999Z</time></trkpt><trkpt lat="36.799155905940886" lon="-108.18675480334983"><ele>1724.0</ele><time>2026-03-29T16:16:40.999Z</time></trkpt><trkpt lat="36.79899933498263" lon="-108.18681530777633"><ele>1724.0</ele><time>2026-03-29T16:16:41.999Z</time></trkpt><trkpt lat="36.79884158994685" lon="-108.1868787690077"><ele>1724.0</ele><time>2026-03-29T16:16:42.999Z</time></trkpt><trkpt lat="36.798644154044524" lon="-108.18697016167548"><ele>1724.0</ele><time>2026-03-29T16:16:43.999Z</time></trkpt><trkpt lat="36.798431675626226" lon="-108.18706757440391"><ele>1722.6666666666665</ele><time>2026-03-29T16:16:44.999Z</time></trkpt><trkpt lat="36.79824503003762" lon="-108.18713812886388"><ele>1721.3333333333335</ele><time>2026-03-29T16:16:45.999Z</time></trkpt><trkpt lat="36.79812772753693" lon="-108.18722247426923"><ele>1720.0</ele><time>2026-03-29T16:16:46.999Z</time></trkpt><trkpt lat="36.79801973550735" lon="-108.18729805610377"><ele>1720.6666666666667</ele><time>2026-03-29T16:16:47.999Z</time></trkpt><trkpt lat="36.79793084291209" lon="-108.18737078380207"><ele>1721.3333333333335</ele><time>2026-03-29T16:16:48.999Z</time></trkpt><trkpt lat="36.7978701046297" lon="-108.18743846357549"><ele>1722.0</ele><time>2026-03-29T16:16:49.999Z</time></trkpt><trkpt lat="36.79789937543466" lon="-108.1875464220015"><ele>1722.6666666666665</ele><time>2026-03-29T16:16:51.999Z</time></trkpt><trkpt lat="36.797951094883324" lon="-108.18761393947625"><ele>1723.3333333333333</ele><time>2026-03-29T16:16:52.999Z</time></trkpt><trkpt lat="36.79800606179814" lon="-108.18770769019811"><ele>1724.0</ele><time>2026-03-29T16:16:53.999Z</time></trkpt><trkpt lat="36.79807308010323" lon="-108.18781559432243"><ele>1724.0</ele><time>2026-03-29T16:16:54.999Z</time></trkpt><trkpt lat="36.7981237713405" lon="-108.18791235537485"><ele>1724.0</ele><time>2026-03-29T16:16:55.999Z</time></trkpt><trkpt lat="36.798131705708734" lon="-108.18801527560363"><ele>1724.0</ele><time>2026-03-29T16:16:56.999Z</time></trkpt><trkpt lat="36.79814249422884" lon="-108.18812913183876"><ele>1724.0</ele><time>2026-03-29T16:16:57.999Z</time></trkpt><trkpt lat="36.79817895698044" lon="-108.18824418310061"><ele>1724.0</ele><time>2026-03-29T16:16:58.999Z</time></trkpt><trkpt lat="36.798232811105194" lon="-108.18838192613786"><ele>1724.6666666666665</ele><time>2026-03-29T16:16:59.999Z</time></trkpt><trkpt lat="36.79827513487029" lon="-108.18846127609282"><ele>1725.3333333333333</ele><time>2026-03-29T16:17:00.999Z</time></trkpt><trkpt lat="36.798312660486665" lon="-108.18852537889249"><ele>1726.0</ele><time>2026-03-29T16:17:01.999Z</time></trkpt><trkpt lat="36.798398887708345" lon="-108.18858415203798"><ele>1726.6666666666665</ele><time>2026-03-29T16:17:04.999Z</time></trkpt><trkpt lat="36.79844925826005" lon="-108.18867211676047"><ele>1727.3333333333333</ele><time>2026-03-29T16:17:05.999Z</time></trkpt><trkpt lat="36.79856382989148" lon="-108.18871814510976"><ele>1728.0</ele><time>2026-03-29T16:17:07.999Z</time></trkpt><trkpt lat="36.798598593016756" lon="-108.18879284125744"><ele>1729.2</ele><time>2026-03-29T16:17:09.999Z</time></trkpt><trkpt lat="36.79869014255956" lon="-108.18877916279786"><ele>1730.4</ele><time>2026-03-29T16:17:12.999Z</time></trkpt><trkpt lat="36.79876074727779" lon="-108.18879185429533"><ele>1731.6000000000001</ele><time>2026-03-29T16:17:14.999Z</time></trkpt><trkpt lat="36.79886497980763" lon="-108.18893764607732"><ele>1732.8000000000002</ele><time>2026-03-29T16:17:15.999Z</time></trkpt><trkpt lat="36.798943797464524" lon="-108.1889238653071"><ele>1734.0</ele><time>2026-03-29T16:17:16.999Z</time></trkpt><trkpt lat="36.79905045576623" lon="-108.18887194219147"><ele>1734.0</ele><time>2026-03-29T16:17:17.999Z</time></trkpt><trkpt lat="36.79913532242812" lon="-108.18884645873507"><ele>1734.0</ele><time>2026-03-29T16:17:18.999Z</time></trkpt><trkpt lat="36.79922632403979" lon="-108.18883382235394"><ele>1734.0</ele><time>2026-03-29T16:17:19.999Z</time></trkpt><trkpt lat="36.79932528001912" lon="-108.18881021945167"><ele>1734.0</ele><time>2026-03-29T16:17:20.999Z</time></trkpt><trkpt lat="36.79943097078175" lon="-108.1887750635474"><ele>1734.0</ele><time>2026-03-29T16:17:21.999Z</time></trkpt><trkpt lat="36.79951496788148" lon="-108.18874377731542"><ele>1735.1666666666667</ele><time>2026-03-29T16:17:22.999Z</time></trkpt><trkpt lat="36.799587893526486" lon="-108.18873213112445"><ele>1736.3333333333335</ele><time>2026-03-29T16:17:23.999Z</time></trkpt><trkpt lat="36.799700470565845" lon="-108.18878452172424"><ele>1737.5</ele><time>2026-03-29T16:17:25.999Z</time></trkpt><trkpt lat="36.79977176304085" lon="-108.18878742437467"><ele>1738.6666666666667</ele><time>2026-03-29T16:17:26.999Z</time></trkpt><trkpt lat="36.799845136427294" lon="-108.18877811852168"><ele>1739.8333333333335</ele><time>2026-03-29T16:17:27.999Z</time></trkpt><trkpt lat="36.799919417021236" lon="-108.18877533387867"><ele>1741.0</ele><time>2026-03-29T16:17:28.999Z</time></trkpt><trkpt lat="36.79998724906767" lon="-108.1887916019661"><ele>1741.0000000000002</ele><time>2026-03-29T16:17:29.999Z</time></trkpt><trkpt lat="36.80005010454313" lon="-108.18884346541246"><ele>1741.0</ele><time>2026-03-29T16:17:30.999Z</time></trkpt><trkpt lat="36.80012119972711" lon="-108.1888781308432"><ele>1741.0</ele><time>2026-03-29T16:17:31.999Z</time></trkpt><trkpt lat="36.80019279131454" lon="-108.18889357186964"><ele>1741.0</ele><time>2026-03-29T16:17:32.999Z</time></trkpt><trkpt lat="36.800258609844654" lon="-108.18887501320566"><ele>1741.0000000000002</ele><time>2026-03-29T16:17:33.999Z</time></trkpt><trkpt lat="36.80026941137438" lon="-108.18877653665871"><ele>1741.0</ele><time>2026-03-29T16:17:34.999Z</time></trkpt><trkpt lat="36.80041829979006" lon="-108.18881912839332"><ele>1743.0</ele><time>2026-03-29T16:17:36.999Z</time></trkpt><trkpt lat="36.800529532888426" lon="-108.1888600996009"><ele>1745.0</ele><time>2026-03-29T16:17:37.999Z</time></trkpt><trkpt lat="36.800663024620995" lon="-108.18888965998848"><ele>1747.0</ele><time>2026-03-29T16:17:38.999Z</time></trkpt><trkpt lat="36.800777592962056" lon="-108.18888199827965"><ele>1749.0</ele><time>2026-03-29T16:17:39.999Z</time></trkpt><trkpt lat="36.80089745474384" lon="-108.18881701064426"><ele>1749.3333333333335</ele><time>2026-03-29T16:17:40.999Z</time></trkpt><trkpt lat="36.80101373357275" lon="-108.18869743214498"><ele>1749.6666666666667</ele><time>2026-03-29T16:17:41.999Z</time></trkpt><trkpt lat="36.80114959070255" lon="-108.18857637133316"><ele>1750.0</ele><time>2026-03-29T16:17:42.999Z</time></trkpt><trkpt lat="36.80128609068478" lon="-108.18846130510514"><ele>1750.0</ele><time>2026-03-29T16:17:43.999Z</time></trkpt><trkpt lat="36.80140713724889" lon="-108.18833825109347"><ele>1750.0</ele><time>2026-03-29T16:17:44.999Z</time></trkpt><trkpt lat="36.80151577766261" lon="-108.18823748704611"><ele>1750.0</ele><time>2026-03-29T16:17:45.999Z</time></trkpt><trkpt lat="36.80163127367304" lon="-108.18818820107373"><ele>1750.0</ele><time>2026-03-29T16:17:46.999Z</time></trkpt><trkpt lat="36.801770304213164" lon="-108.18818762982885"><ele>1749.6666666666667</ele><time>2026-03-29T16:17:47.999Z</time></trkpt><trkpt lat="36.80190592313202" lon="-108.18815047272321"><ele>1749.3333333333335</ele><time>2026-03-29T16:17:48.999Z</time></trkpt><trkpt lat="36.802015639335245" lon="-108.18804614677998"><ele>1749.0</ele><time>2026-03-29T16:17:49.999Z</time></trkpt><trkpt lat="36.80214152517174" lon="-108.18787671264626"><ele>1749.0</ele><time>2026-03-29T16:17:50.999Z</time></trkpt><trkpt lat="36.80229541193187" lon="-108.18769476807748"><ele>1749.0</ele><time>2026-03-29T16:17:51.999Z</time></trkpt><trkpt lat="36.802470334170565" lon="-108.18755578615813"><ele>1749.0</ele><time>2026-03-29T16:17:52.999Z</time></trkpt><trkpt lat="36.80267670785618" lon="-108.18742127374966"><ele>1749.6666666666665</ele><time>2026-03-29T16:17:53.999Z</time></trkpt><trkpt lat="36.80285191468783" lon="-108.18729062587495"><ele>1750.3333333333333</ele><time>2026-03-29T16:17:54.999Z</time></trkpt><trkpt lat="36.80300107398416" lon="-108.18720083599928"><ele>1751.0</ele><time>2026-03-29T16:17:55.999Z</time></trkpt><trkpt lat="36.803151521876934" lon="-108.18713398666384"><ele>1751.0</ele><time>2026-03-29T16:17:56.999Z</time></trkpt><trkpt lat="36.803276648174624" lon="-108.18706284350884"><ele>1751.0</ele><time>2026-03-29T16:17:57.999Z</time></trkpt><trkpt lat="36.8033671961958" lon="-108.18696530295044"><ele>1751.0</ele><time>2026-03-29T16:17:58.999Z</time></trkpt><trkpt lat="36.80343614491188" lon="-108.18683870056861"><ele>1751.0</ele><time>2026-03-29T16:17:59.999Z</time></trkpt><trkpt lat="36.80351276339073" lon="-108.18670622969151"><ele>1751.25</ele><time>2026-03-29T16:18:00.999Z</time></trkpt><trkpt lat="36.803613896941734" lon="-108.18659466621872"><ele>1751.5</ele><time>2026-03-29T16:18:01.999Z</time></trkpt><trkpt lat="36.80371476787564" lon="-108.18647142089574"><ele>1751.75</ele><time>2026-03-29T16:18:02.999Z</time></trkpt><trkpt lat="36.803806867481136" lon="-108.18633486500877"><ele>1752.0</ele><time>2026-03-29T16:18:03.999Z</time></trkpt><trkpt lat="36.80387376748523" lon="-108.18618951480471"><ele>1752.0</ele><time>2026-03-29T16:18:04.999Z</time></trkpt><trkpt lat="36.80395484025613" lon="-108.18606245929044"><ele>1752.0</ele><time>2026-03-29T16:18:05.999Z</time></trkpt><trkpt lat="36.804045809938195" lon="-108.18596865172495"><ele>1752.0</ele><time>2026-03-29T16:18:06.999Z</time></trkpt><trkpt lat="36.80415884117989" lon="-108.18586958407407"><ele>1752.0</ele><time>2026-03-29T16:18:07.999Z</time></trkpt><trkpt lat="36.804234959074115" lon="-108.18579564665251"><ele>1752.0</ele><time>2026-03-29T16:18:08.999Z</time></trkpt><trkpt lat="36.80430108677974" lon="-108.18573375667457"><ele>1752.0</ele><time>2026-03-29T16:18:09.999Z</time></trkpt><trkpt lat="36.80441815377736" lon="-108.1856578546787"><ele>1752.0</ele><time>2026-03-29T16:18:10.999Z</time></trkpt><trkpt lat="36.804547458233365" lon="-108.18559611214535"><ele>1752.0</ele><time>2026-03-29T16:18:11.999Z</time></trkpt><trkpt lat="36.80466125393363" lon="-108.18549593063253"><ele>1753.0</ele><time>2026-03-29T16:18:12.999Z</time></trkpt><trkpt lat="36.80478995059219" lon="-108.18537010206865"><ele>1754.0</ele><time>2026-03-29T16:18:13.999Z</time></trkpt><trkpt lat="36.80492776881078" lon="-108.18526599098277"><ele>1755.0</ele><time>2026-03-29T16:18:14.999Z</time></trkpt><trkpt lat="36.805046609595195" lon="-108.18514797242591"><ele>1754.6666666666665</ele><time>2026-03-29T16:18:15.999Z</time></trkpt><trkpt lat="36.80518636752557" lon="-108.18501007087957"><ele>1754.3333333333333</ele><time>2026-03-29T16:18:16.999Z</time></trkpt><trkpt lat="36.80534587602196" lon="-108.18485781533711"><ele>1754.0</ele><time>2026-03-29T16:18:17.999Z</time></trkpt><trkpt lat="36.805483001809684" lon="-108.18471460285404"><ele>1753.6666666666665</ele><time>2026-03-29T16:18:18.999Z</time></trkpt><trkpt lat="36.80561385258406" lon="-108.18458397154363"><ele>1753.3333333333335</ele><time>2026-03-29T16:18:19.999Z</time></trkpt><trkpt lat="36.80572863217862" lon="-108.18447286913431"><ele>1753.0</ele><time>2026-03-29T16:18:20.999Z</time></trkpt><trkpt lat="36.80582632905369" lon="-108.18434487629203"><ele>1753.0</ele><time>2026-03-29T16:18:21.999Z</time></trkpt><trkpt lat="36.8059100123993" lon="-108.18417476149618"><ele>1753.0</ele><time>2026-03-29T16:18:22.999Z</time></trkpt><trkpt lat="36.80598602755096" lon="-108.18399225378913"><ele>1753.0</ele><time>2026-03-29T16:18:23.999Z</time></trkpt><trkpt lat="36.80607406251272" lon="-108.18383373000651"><ele>1753.75</ele><time>2026-03-29T16:18:24.999Z</time></trkpt><trkpt lat="36.806173980358416" lon="-108.18371346748867"><ele>1754.5</ele><time>2026-03-29T16:18:25.999Z</time></trkpt><trkpt lat="36.8062849536829" lon="-108.1836215976149"><ele>1755.25</ele><time>2026-03-29T16:18:26.999Z</time></trkpt><trkpt lat="36.80642379138249" lon="-108.18353220111433"><ele>1756.0</ele><time>2026-03-29T16:18:27.999Z</time></trkpt><trkpt lat="36.80653162633805" lon="-108.18340283295434"><ele>1756.0</ele><time>2026-03-29T16:18:28.999Z</time></trkpt><trkpt lat="36.80663815941405" lon="-108.18327219800489"><ele>1756.0</ele><time>2026-03-29T16:18:29.999Z</time></trkpt><trkpt lat="36.80676947303004" lon="-108.18317558450991"><ele>1756.0</ele><time>2026-03-29T16:18:30.999Z</time></trkpt><trkpt lat="36.80691579742066" lon="-108.18307509857169"><ele>1758.0</ele><time>2026-03-29T16:18:31.999Z</time></trkpt><trkpt lat="36.807066955161375" lon="-108.18293530717278"><ele>1760.0</ele><time>2026-03-29T16:18:32.999Z</time></trkpt><trkpt lat="36.807208570521546" lon="-108.18277253472846"><ele>1762.0</ele><time>2026-03-29T16:18:33.999Z</time></trkpt><trkpt lat="36.807353458263314" lon="-108.1826112568446"><ele>1762.0</ele><time>2026-03-29T16:18:34.999Z</time></trkpt><trkpt lat="36.807478351060745" lon="-108.1824699341297"><ele>1762.0</ele><time>2026-03-29T16:18:35.999Z</time></trkpt><trkpt lat="36.80756336547252" lon="-108.18236504880747"><ele>1762.0</ele><time>2026-03-29T16:18:36.999Z</time></trkpt><trkpt lat="36.80760707864008" lon="-108.18227302811692"><ele>1762.0</ele><time>2026-03-29T16:18:37.999Z</time></trkpt><trkpt lat="36.8076104090447" lon="-108.18214914100724"><ele>1762.0</ele><time>2026-03-29T16:18:38.999Z</time></trkpt><trkpt lat="36.80763103842473" lon="-108.1820569304531"><ele>1761.9999999999998</ele><time>2026-03-29T16:18:39.999Z</time></trkpt><trkpt lat="36.80759128610138" lon="-108.18195803146288"><ele>1761.9999999999998</ele><time>2026-03-29T16:18:42.999Z</time></trkpt><trkpt lat="36.80765468730036" lon="-108.1818826708029"><ele>1762.0</ele><time>2026-03-29T16:18:44.999Z</time></trkpt><trkpt lat="36.8077503485386" lon="-108.18184175558909"><ele>1762.0</ele><time>2026-03-29T16:18:45.999Z</time></trkpt><trkpt lat="36.807836832649016" lon="-108.18179026026786"><ele>1763.3999999999999</ele><time>2026-03-29T16:18:46.999Z</time></trkpt><trkpt lat="36.80792197112601" lon="-108.18176149126656"><ele>1764.7999999999997</ele><time>2026-03-29T16:18:47.999Z</time></trkpt><trkpt lat="36.808050591881035" lon="-108.18181226639362"><ele>1766.2</ele><time>2026-03-29T16:18:48.999Z</time></trkpt><trkpt lat="36.808159334470254" lon="-108.18187680338367"><ele>1767.6</ele><time>2026-03-29T16:18:49.999Z</time></trkpt><trkpt lat="36.80824861508618" lon="-108.1819442218831"><ele>1769.0</ele><time>2026-03-29T16:18:50.999Z</time></trkpt><trkpt lat="36.808325882456984" lon="-108.18199749593903"><ele>1769.0</ele><time>2026-03-29T16:18:51.999Z</time></trkpt><trkpt lat="36.80842178857262" lon="-108.18201659182223"><ele>1769.0</ele><time>2026-03-29T16:18:52.999Z</time></trkpt><trkpt lat="36.80853463164437" lon="-108.18207619733997"><ele>1769.0</ele><time>2026-03-29T16:18:53.999Z</time></trkpt><trkpt lat="36.808641233201634" lon="-108.18210058101965"><ele>1769.0</ele><time>2026-03-29T16:18:54.999Z</time></trkpt><trkpt lat="36.8087240322024" lon="-108.18212723378502"><ele>1769.0</ele><time>2026-03-29T16:18:55.999Z</time></trkpt><trkpt lat="36.8088056325685" lon="-108.18208209316806"><ele>1769.25</ele><time>2026-03-29T16:18:56.999Z</time></trkpt><trkpt lat="36.80888392634973" lon="-108.1819546896584"><ele>1769.5</ele><time>2026-03-29T16:18:57.999Z</time></trkpt><trkpt lat="36.80896196880317" lon="-108.18183948463214"><ele>1769.75</ele><time>2026-03-29T16:18:58.999Z</time></trkpt><trkpt lat="36.80903328396962" lon="-108.18175233172443"><ele>1770.0</ele><time>2026-03-29T16:18:59.999Z</time></trkpt><trkpt lat="36.809135496793324" lon="-108.18166171342573"><ele>1770.0</ele><time>2026-03-29T16:19:00.999Z</time></trkpt><trkpt lat="36.80925275171493" lon="-108.18159239318909"><ele>1770.0</ele><time>2026-03-29T16:19:01.999Z</time></trkpt><trkpt lat="36.80937635439866" lon="-108.1815117949229"><ele>1770.0</ele><time>2026-03-29T16:19:02.999Z</time></trkpt><trkpt lat="36.80947222403117" lon="-108.18147324303249"><ele>1770.0</ele><time>2026-03-29T16:19:03.999Z</time></trkpt><trkpt lat="36.809597968866925" lon="-108.18141473026198"><ele>1771.0</ele><time>2026-03-29T16:19:04.999Z</time></trkpt><trkpt lat="36.809723276454534" lon="-108.18137802093031"><ele>1772.0</ele><time>2026-03-29T16:19:05.999Z</time></trkpt><trkpt lat="36.80984342880103" lon="-108.18131453207687"><ele>1773.0</ele><time>2026-03-29T16:19:06.999Z</time></trkpt><trkpt lat="36.80994317887099" lon="-108.18119806153754"><ele>1774.0</ele><time>2026-03-29T16:19:07.999Z</time></trkpt><trkpt lat="36.81007258702387" lon="-108.18107745088263"><ele>1774.5</ele><time>2026-03-29T16:19:08.999Z</time></trkpt><trkpt lat="36.81021617530636" lon="-108.18097760878604"><ele>1775.0</ele><time>2026-03-29T16:19:09.999Z</time></trkpt><trkpt lat="36.81032578270711" lon="-108.18088946845322"><ele>1775.5</ele><time>2026-03-29T16:19:10.999Z</time></trkpt><trkpt lat="36.810423391731455" lon="-108.18079710383572"><ele>1776.0</ele><time>2026-03-29T16:19:11.999Z</time></trkpt><trkpt lat="36.810524289522775" lon="-108.18065529053676"><ele>1775.0</ele><time>2026-03-29T16:19:12.999Z</time></trkpt><trkpt lat="36.81061250835571" lon="-108.18049749222119"><ele>1774.0</ele><time>2026-03-29T16:19:13.999Z</time></trkpt><trkpt lat="36.81072565697186" lon="-108.18037445355871"><ele>1773.0</ele><time>2026-03-29T16:19:14.999Z</time></trkpt><trkpt lat="36.81084232492485" lon="-108.18030175990356"><ele>1772.0</ele><time>2026-03-29T16:19:15.999Z</time></trkpt><trkpt lat="36.81095427093282" lon="-108.1802885701533"><ele>1772.5</ele><time>2026-03-29T16:19:16.999Z</time></trkpt><trkpt lat="36.81107112666624" lon="-108.18033256730575"><ele>1773.0</ele><time>2026-03-29T16:19:17.999Z</time></trkpt><trkpt lat="36.811186110733786" lon="-108.1804299684502"><ele>1773.5</ele><time>2026-03-29T16:19:18.999Z</time></trkpt><trkpt lat="36.81128344459834" lon="-108.18054138478581"><ele>1774.0</ele><time>2026-03-29T16:19:19.999Z</time></trkpt><trkpt lat="36.81135698806294" lon="-108.18058241030114"><ele>1774.0</ele><time>2026-03-29T16:19:20.999Z</time></trkpt><trkpt lat="36.81145382250064" lon="-108.18057086025053"><ele>1774.0</ele><time>2026-03-29T16:19:21.999Z</time></trkpt><trkpt lat="36.81159637315098" lon="-108.18058974028233"><ele>1774.0</ele><time>2026-03-29T16:19:22.999Z</time></trkpt><trkpt lat="36.811731036306185" lon="-108.18059114998114"><ele>1774.0</ele><time>2026-03-29T16:19:23.999Z</time></trkpt><trkpt lat="36.81185292372643" lon="-108.18060477117766"><ele>1773.75</ele><time>2026-03-29T16:19:24.999Z</time></trkpt><trkpt lat="36.811983855570695" lon="-108.18062633241442"><ele>1773.5</ele><time>2026-03-29T16:19:25.999Z</time></trkpt><trkpt lat="36.81212281040838" lon="-108.18069746029664"><ele>1773.25</ele><time>2026-03-29T16:19:26.999Z</time></trkpt><trkpt lat="36.81223176119807" lon="-108.18075028862377"><ele>1773.0</ele><time>2026-03-29T16:19:27.999Z</time></trkpt><trkpt lat="36.812329674867186" lon="-108.18075528702576"><ele>1773.5</ele><time>2026-03-29T16:19:28.999Z</time></trkpt><trkpt lat="36.81244163386647" lon="-108.18075574405768"><ele>1774.0</ele><time>2026-03-29T16:19:29.999Z</time></trkpt><trkpt lat="36.81260579335674" lon="-108.18078525541146"><ele>1774.5</ele><time>2026-03-29T16:19:30.999Z</time></trkpt><trkpt lat="36.81272614442073" lon="-108.18085550216531"><ele>1775.0</ele><time>2026-03-29T16:19:31.999Z</time></trkpt><trkpt lat="36.8128390261744" lon="-108.1809253772276"><ele>1776.3333333333333</ele><time>2026-03-29T16:19:32.999Z</time></trkpt><trkpt lat="36.81297640711704" lon="-108.18100354514266"><ele>1777.6666666666665</ele><time>2026-03-29T16:19:33.999Z</time></trkpt><trkpt lat="36.81312019883804" lon="-108.18107647674833"><ele>1779.0</ele><time>2026-03-29T16:19:34.999Z</time></trkpt><trkpt lat="36.813258843704496" lon="-108.18113885817067"><ele>1779.0</ele><time>2026-03-29T16:19:35.999Z</time></trkpt><trkpt lat="36.81337989179718" lon="-108.1812121355615"><ele>1779.0</ele><time>2026-03-29T16:19:36.999Z</time></trkpt><trkpt lat="36.813506767203364" lon="-108.18128333973294"><ele>1779.0</ele><time>2026-03-29T16:19:37.999Z</time></trkpt><trkpt lat="36.81362375884278" lon="-108.18136349602696"><ele>1779.0</ele><time>2026-03-29T16:19:38.999Z</time></trkpt><trkpt lat="36.81373281014615" lon="-108.181451865036"><ele>1779.0</ele><time>2026-03-29T16:19:39.999Z</time></trkpt><trkpt lat="36.8138476192448" lon="-108.18150252582451"><ele>1779.0</ele><time>2026-03-29T16:19:40.999Z</time></trkpt><trkpt lat="36.81396567838216" lon="-108.18151851502915"><ele>1779.0</ele><time>2026-03-29T16:19:41.999Z</time></trkpt><trkpt lat="36.81408254650847" lon="-108.18153034551665"><ele>1779.0</ele><time>2026-03-29T16:19:42.999Z</time></trkpt><trkpt lat="36.81420111328846" lon="-108.18153542079416"><ele>1779.0</ele><time>2026-03-29T16:19:43.999Z</time></trkpt><trkpt lat="36.81428896762218" lon="-108.18154439497529"><ele>1779.0</ele><time>2026-03-29T16:19:44.999Z</time></trkpt><trkpt lat="36.814345971933086" lon="-108.18159072566074"><ele>1779.0</ele><time>2026-03-29T16:19:45.999Z</time></trkpt><trkpt lat="36.81434953581884" lon="-108.1816867779958"><ele>1779.0</ele><time>2026-03-29T16:19:46.999Z</time></trkpt><trkpt lat="36.81449739459177" lon="-108.18174001865432"><ele>1779.0</ele><time>2026-03-29T16:19:47.999Z</time></trkpt><trkpt lat="36.81454438944775" lon="-108.18187341206745"><ele>1779.25</ele><time>2026-03-29T16:19:48.999Z</time></trkpt><trkpt lat="36.81459589462013" lon="-108.18201960797705"><ele>1779.5</ele><time>2026-03-29T16:19:49.999Z</time></trkpt><trkpt lat="36.81466291280395" lon="-108.18220983706718"><ele>1779.75</ele><time>2026-03-29T16:19:50.999Z</time></trkpt><trkpt lat="36.81472155118771" lon="-108.18237626991724"><ele>1780.0</ele><time>2026-03-29T16:19:51.999Z</time></trkpt><trkpt lat="36.81478206820622" lon="-108.18254995920171"><ele>1779.3333333333335</ele><time>2026-03-29T16:19:52.999Z</time></trkpt><trkpt lat="36.81484008904944" lon="-108.18271681826803"><ele>1778.6666666666665</ele><time>2026-03-29T16:19:53.999Z</time></trkpt><trkpt lat="36.814892475225165" lon="-108.18286747287537"><ele>1778.0</ele><time>2026-03-29T16:19:54.999Z</time></trkpt><trkpt lat="36.814632537559305" lon="-108.18318968463788"><ele>1777.0</ele><time>2026-03-29T16:19:55.999Z</time></trkpt><trkpt lat="36.81467532741463" lon="-108.18337121743491"><ele>1776.0</ele><time>2026-03-29T16:19:56.999Z</time></trkpt><trkpt lat="36.81471215533227" lon="-108.18353731781451"><ele>1775.0</ele><time>2026-03-29T16:19:57.999Z</time></trkpt><trkpt lat="36.814746855667416" lon="-108.18369386378"><ele>1774.0</ele><time>2026-03-29T16:19:58.999Z</time></trkpt><trkpt lat="36.81477765357373" lon="-108.18385282599591"><ele>1773.0</ele><time>2026-03-29T16:19:59.999Z</time></trkpt><trkpt lat="36.814805277174926" lon="-108.18401482164164"><ele>1772.0</ele><time>2026-03-29T16:20:00.999Z</time></trkpt><trkpt lat="36.81483726745898" lon="-108.18416064883942"><ele>1771.0</ele><time>2026-03-29T16:20:01.999Z</time></trkpt><trkpt lat="36.81487690072748" lon="-108.18432280612988"><ele>1770.0</ele><time>2026-03-29T16:20:02.999Z</time></trkpt><trkpt lat="36.81492108569677" lon="-108.18445938620059"><ele>1770.0</ele><time>2026-03-29T16:20:03.999Z</time></trkpt><trkpt lat="36.81495912276844" lon="-108.1845792853265"><ele>1770.0</ele><time>2026-03-29T16:20:04.999Z</time></trkpt><trkpt lat="36.81498888793072" lon="-108.18469910188395"><ele>1770.0</ele><time>2026-03-29T16:20:05.999Z</time></trkpt><trkpt lat="36.81501169046559" lon="-108.1848569618164"><ele>1770.0</ele><time>2026-03-29T16:20:06.999Z</time></trkpt><trkpt lat="36.81503664427356" lon="-108.18502383002127"><ele>1769.0</ele><time>2026-03-29T16:20:07.999Z</time></trkpt><trkpt lat="36.81506628831726" lon="-108.18516718274256"><ele>1768.0</ele><time>2026-03-29T16:20:08.999Z</time></trkpt><trkpt lat="36.81508683809118" lon="-108.18528074526202"><ele>1767.0</ele><time>2026-03-29T16:20:09.999Z</time></trkpt><trkpt lat="36.81507856079831" lon="-108.1853637778995"><ele>1766.0</ele><time>2026-03-29T16:20:10.999Z</time></trkpt><trkpt lat="36.815049542298425" lon="-108.18544652050566"><ele>1765.0</ele><time>2026-03-29T16:20:11.999Z</time></trkpt><trkpt lat="36.81501056997032" lon="-108.18557950544519"><ele>1764.0</ele><time>2026-03-29T16:20:12.999Z</time></trkpt><trkpt lat="36.81498197557191" lon="-108.18576806717662"><ele>1763.0</ele><time>2026-03-29T16:20:13.999Z</time></trkpt><trkpt lat="36.81497939444817" lon="-108.18592753497795"><ele>1762.0</ele><time>2026-03-29T16:20:14.999Z</time></trkpt><trkpt lat="36.814979622505945" lon="-108.18608210210049"><ele>1761.0</ele><time>2026-03-29T16:20:15.999Z</time></trkpt><trkpt lat="36.81494704843313" lon="-108.18621900866263"><ele>1761.0</ele><time>2026-03-29T16:20:16.999Z</time></trkpt><trkpt lat="36.81488431265356" lon="-108.18635886388745"><ele>1761.0</ele><time>2026-03-29T16:20:17.999Z</time></trkpt><trkpt lat="36.81484858075045" lon="-108.18650642739108"><ele>1761.0</ele><time>2026-03-29T16:20:18.999Z</time></trkpt><trkpt lat="36.81482845720053" lon="-108.18667256936943"><ele>1761.0</ele><time>2026-03-29T16:20:19.999Z</time></trkpt><trkpt lat="36.81481187565807" lon="-108.18682898362833"><ele>1760.0</ele><time>2026-03-29T16:20:20.999Z</time></trkpt><trkpt lat="36.814800633398235" lon="-108.18697191462107"><ele>1759.0</ele><time>2026-03-29T16:20:21.999Z</time></trkpt><trkpt lat="36.814836251925385" lon="-108.18714099739265"><ele>1758.0</ele><time>2026-03-29T16:20:22.999Z</time></trkpt><trkpt lat="36.81485388215049" lon="-108.18731652657013"><ele>1757.0</ele><time>2026-03-29T16:20:23.999Z</time></trkpt><trkpt lat="36.81487197603796" lon="-108.18746938632465"><ele>1756.5</ele><time>2026-03-29T16:20:24.999Z</time></trkpt><trkpt lat="36.81490135858643" lon="-108.18760731752347"><ele>1756.0</ele><time>2026-03-29T16:20:25.999Z</time></trkpt><trkpt lat="36.814962912243956" lon="-108.18770766757928"><ele>1755.5</ele><time>2026-03-29T16:20:26.999Z</time></trkpt><trkpt lat="36.81505514955855" lon="-108.18780137451401"><ele>1755.0</ele><time>2026-03-29T16:20:27.999Z</time></trkpt><trkpt lat="36.815124870422224" lon="-108.18793182927982"><ele>1755.0</ele><time>2026-03-29T16:20:28.999Z</time></trkpt><trkpt lat="36.81516846749418" lon="-108.1880453713424"><ele>1755.0</ele><time>2026-03-29T16:20:29.999Z</time></trkpt><trkpt lat="36.8152149853865" lon="-108.18815271410654"><ele>1755.0</ele><time>2026-03-29T16:20:30.999Z</time></trkpt><trkpt lat="36.815271508872584" lon="-108.18827642531117"><ele>1755.0</ele><time>2026-03-29T16:20:31.999Z</time></trkpt><trkpt lat="36.81534165127529" lon="-108.18838426392439"><ele>1755.0</ele><time>2026-03-29T16:20:32.999Z</time></trkpt><trkpt lat="36.81540003924281" lon="-108.18851511352197"><ele>1754.5</ele><time>2026-03-29T16:20:33.999Z</time></trkpt><trkpt lat="36.81547667113129" lon="-108.18865784780792"><ele>1754.0</ele><time>2026-03-29T16:20:35Z</time></trkpt><trkpt lat="36.81554157973812" lon="-108.18878043476587"><ele>1753.5</ele><time>2026-03-29T16:20:36Z</time></trkpt><trkpt lat="36.815582837476434" lon="-108.18891759467544"><ele>1753.0</ele><time>2026-03-29T16:20:37Z</time></trkpt><trkpt lat="36.815625262110366" lon="-108.18904528190508"><ele>1752.6666666666667</ele><time>2026-03-29T16:20:38Z</time></trkpt><trkpt lat="36.81564924225402" lon="-108.18913176653763"><ele>1752.3333333333335</ele><time>2026-03-29T16:20:39Z</time></trkpt><trkpt lat="36.81563330471842" lon="-108.18923234576938"><ele>1752.0</ele><time>2026-03-29T16:20:40Z</time></trkpt><trkpt lat="36.81559131378554" lon="-108.18936080903717"><ele>1751.6666666666665</ele><time>2026-03-29T16:20:41Z</time></trkpt><trkpt lat="36.815553216545695" lon="-108.18949888722028"><ele>1751.3333333333333</ele><time>2026-03-29T16:20:42Z</time></trkpt><trkpt lat="36.81553201216722" lon="-108.18957562009685"><ele>1751.0</ele><time>2026-03-29T16:20:43Z</time></trkpt><trkpt lat="36.81555072029329" lon="-108.18966136303504"><ele>1751.0</ele><time>2026-03-29T16:20:44Z</time></trkpt><trkpt lat="36.81555741179237" lon="-108.1897957214435"><ele>1751.0</ele><time>2026-03-29T16:20:45Z</time></trkpt><trkpt lat="36.815552209767176" lon="-108.18994167486464"><ele>1751.0</ele><time>2026-03-29T16:20:46Z</time></trkpt><trkpt lat="36.815571091371105" lon="-108.19006740178621"><ele>1751.0</ele><time>2026-03-29T16:20:47Z</time></trkpt><trkpt lat="36.815584374180375" lon="-108.19017228180451"><ele>1751.0</ele><time>2026-03-29T16:20:48Z</time></trkpt><trkpt lat="36.815611951959966" lon="-108.19029979271447"><ele>1750.8</ele><time>2026-03-29T16:20:49Z</time></trkpt><trkpt lat="36.81565171838282" lon="-108.19040562559337"><ele>1750.6</ele><time>2026-03-29T16:20:50Z</time></trkpt><trkpt lat="36.815694979388454" lon="-108.19050448195804"><ele>1750.4</ele><time>2026-03-29T16:20:51Z</time></trkpt><trkpt lat="36.8156969192457" lon="-108.19062777398082"><ele>1750.2</ele><time>2026-03-29T16:20:52Z</time></trkpt><trkpt lat="36.81566343678625" lon="-108.19075095457383"><ele>1750.0</ele><time>2026-03-29T16:20:53Z</time></trkpt><trkpt lat="36.815638161585845" lon="-108.1908619448686"><ele>1749.6</ele><time>2026-03-29T16:20:54Z</time></trkpt><trkpt lat="36.81564817302404" lon="-108.19098452179132"><ele>1749.2</ele><time>2026-03-29T16:20:55Z</time></trkpt><trkpt lat="36.81569390843351" lon="-108.19108845018019"><ele>1748.8000000000002</ele><time>2026-03-29T16:20:56Z</time></trkpt><trkpt lat="36.8157598016581" lon="-108.19117045101517"><ele>1748.4</ele><time>2026-03-29T16:20:57Z</time></trkpt><trkpt lat="36.815808824311944" lon="-108.19125264264318"><ele>1748.0</ele><time>2026-03-29T16:20:58Z</time></trkpt><trkpt lat="36.81585451023672" lon="-108.19138490292221"><ele>1748.2</ele><time>2026-03-29T16:20:59Z</time></trkpt><trkpt lat="36.8159081489596" lon="-108.19152901597354"><ele>1748.4</ele><time>2026-03-29T16:21:00Z</time></trkpt><trkpt lat="36.81597240255604" lon="-108.19164795763969"><ele>1748.6000000000001</ele><time>2026-03-29T16:21:01Z</time></trkpt><trkpt lat="36.81605197462761" lon="-108.19170738316708"><ele>1748.8000000000002</ele><time>2026-03-29T16:21:02Z</time></trkpt><trkpt lat="36.81613532054733" lon="-108.19173534752282"><ele>1749.0</ele><time>2026-03-29T16:21:03Z</time></trkpt><trkpt lat="36.81622109655254" lon="-108.19180182190152"><ele>1749.2</ele><time>2026-03-29T16:21:04Z</time></trkpt><trkpt lat="36.81624333693846" lon="-108.19192893021979"><ele>1749.4</ele><time>2026-03-29T16:21:05Z</time></trkpt><trkpt lat="36.81627406851837" lon="-108.19204626625472"><ele>1749.6</ele><time>2026-03-29T16:21:06Z</time></trkpt><trkpt lat="36.81631180323602" lon="-108.19211674138258"><ele>1749.8</ele><time>2026-03-29T16:21:07Z</time></trkpt><trkpt lat="36.816318619048815" lon="-108.1922405893186"><ele>1750.0</ele><time>2026-03-29T16:21:08Z</time></trkpt><trkpt lat="36.81637983997101" lon="-108.19236756433237"><ele>1750.0</ele><time>2026-03-29T16:21:09Z</time></trkpt><trkpt lat="36.8164454835616" lon="-108.1923652378068"><ele>1750.0</ele><time>2026-03-29T16:21:10Z</time></trkpt><trkpt lat="36.81656727317469" lon="-108.19239890459045"><ele>1750.0</ele><time>2026-03-29T16:21:11Z</time></trkpt><trkpt lat="36.81665568634777" lon="-108.1924544239295"><ele>1750.0</ele><time>2026-03-29T16:21:12Z</time></trkpt><trkpt lat="36.81670795351255" lon="-108.19257511155124"><ele>1750.0</ele><time>2026-03-29T16:21:13Z</time></trkpt><trkpt lat="36.81675385684878" lon="-108.19268430160318"><ele>1750.0</ele><time>2026-03-29T16:21:14Z</time></trkpt><trkpt lat="36.816802225320345" lon="-108.19277694173769"><ele>1750.0</ele><time>2026-03-29T16:21:15Z</time></trkpt><trkpt lat="36.81681710381752" lon="-108.19286756159602"><ele>1750.0</ele><time>2026-03-29T16:21:16Z</time></trkpt><trkpt lat="36.81678521819643" lon="-108.1929841858559"><ele>1750.0</ele><time>2026-03-29T16:21:17Z</time></trkpt><trkpt lat="36.81673656834227" lon="-108.19313249180496"><ele>1750.0</ele><time>2026-03-29T16:21:18Z</time></trkpt><trkpt lat="36.81674758890771" lon="-108.19323879075492"><ele>1750.0</ele><time>2026-03-29T16:21:19Z</time></trkpt><trkpt lat="36.81680478036988" lon="-108.19334841200997"><ele>1750.0</ele><time>2026-03-29T16:21:20Z</time></trkpt><trkpt lat="36.81686627362399" lon="-108.19341102174397"><ele>1750.0</ele><time>2026-03-29T16:21:21Z</time></trkpt><trkpt lat="36.81695472238717" lon="-108.19352366533296"><ele>1750.0</ele><time>2026-03-29T16:21:22Z</time></trkpt><trkpt lat="36.817012756721965" lon="-108.1936100281855"><ele>1750.0</ele><time>2026-03-29T16:21:23Z</time></trkpt><trkpt lat="36.81705574790394" lon="-108.19371067416681"><ele>1750.0</ele><time>2026-03-29T16:21:24Z</time></trkpt><trkpt lat="36.81709444273693" lon="-108.19382332059864"><ele>1750.0</ele><time>2026-03-29T16:21:25Z</time></trkpt><trkpt lat="36.81710643860162" lon="-108.19390797155832"><ele>1750.0</ele><time>2026-03-29T16:21:26Z</time></trkpt><trkpt lat="36.81709893657013" lon="-108.19401033890973"><ele>1750.0</ele><time>2026-03-29T16:21:27Z</time></trkpt><trkpt lat="36.817113536297796" lon="-108.19412159084385"><ele>1750.0</ele><time>2026-03-29T16:21:28Z</time></trkpt><trkpt lat="36.81719928252706" lon="-108.19421684382006"><ele>1749.4</ele><time>2026-03-29T16:21:29Z</time></trkpt><trkpt lat="36.817296436422076" lon="-108.19431896392345"><ele>1748.8</ele><time>2026-03-29T16:21:30Z</time></trkpt><trkpt lat="36.817362987769314" lon="-108.19441778768683"><ele>1748.1999999999998</ele><time>2026-03-29T16:21:31Z</time></trkpt><trkpt lat="36.81741610570086" lon="-108.19453050136941"><ele>1747.6</ele><time>2026-03-29T16:21:32Z</time></trkpt><trkpt lat="36.81746276922379" lon="-108.19463576268505"><ele>1747.0</ele><time>2026-03-29T16:21:33Z</time></trkpt><trkpt lat="36.81751166073145" lon="-108.19476283276283"><ele>1746.25</ele><time>2026-03-29T16:21:34Z</time></trkpt><trkpt lat="36.817557955463144" lon="-108.1949274066202"><ele>1745.5</ele><time>2026-03-29T16:21:35Z</time></trkpt><trkpt lat="36.817596158441226" lon="-108.1950755299881"><ele>1744.75</ele><time>2026-03-29T16:21:36Z</time></trkpt><trkpt lat="36.81763965294772" lon="-108.19520029523511"><ele>1744.0</ele><time>2026-03-29T16:21:37Z</time></trkpt><trkpt lat="36.81769123806606" lon="-108.19531859028793"><ele>1743.8000000000002</ele><time>2026-03-29T16:21:38Z</time></trkpt><trkpt lat="36.8177704836561" lon="-108.19540399173688"><ele>1743.6000000000001</ele><time>2026-03-29T16:21:39Z</time></trkpt><trkpt lat="36.8178758688596" lon="-108.19547703874298"><ele>1743.4</ele><time>2026-03-29T16:21:40Z</time></trkpt><trkpt lat="36.8179607081132" lon="-108.19558309998779"><ele>1743.2</ele><time>2026-03-29T16:21:41Z</time></trkpt><trkpt lat="36.81798701710129" lon="-108.19569160063185"><ele>1743.0</ele><time>2026-03-29T16:21:42Z</time></trkpt><trkpt lat="36.817973694253716" lon="-108.19581245348562"><ele>1742.5</ele><time>2026-03-29T16:21:43Z</time></trkpt><trkpt lat="36.817937585978555" lon="-108.19597745364841"><ele>1742.0</ele><time>2026-03-29T16:21:44Z</time></trkpt><trkpt lat="36.81794243323128" lon="-108.19612950670573"><ele>1741.5</ele><time>2026-03-29T16:21:45Z</time></trkpt><trkpt lat="36.81792740812407" lon="-108.19628534774937"><ele>1741.0</ele><time>2026-03-29T16:21:46Z</time></trkpt><trkpt lat="36.8179100925439" lon="-108.19646009758503"><ele>1740.5</ele><time>2026-03-29T16:21:47Z</time></trkpt><trkpt lat="36.81790959183193" lon="-108.19659237030675"><ele>1740.0</ele><time>2026-03-29T16:21:48Z</time></trkpt><trkpt lat="36.81791218630507" lon="-108.19670950389396"><ele>1739.5</ele><time>2026-03-29T16:21:49Z</time></trkpt><trkpt lat="36.81790879053468" lon="-108.19685505233497"><ele>1739.0</ele><time>2026-03-29T16:21:50Z</time></trkpt><trkpt lat="36.81786813109139" lon="-108.19701926092462"><ele>1738.9999999999998</ele><time>2026-03-29T16:21:51Z</time></trkpt><trkpt lat="36.817893488382616" lon="-108.19714404081793"><ele>1739.0</ele><time>2026-03-29T16:21:52Z</time></trkpt><trkpt lat="36.817920678240036" lon="-108.19725847863032"><ele>1739.0</ele><time>2026-03-29T16:21:53Z</time></trkpt><trkpt lat="36.81792750483724" lon="-108.19734591858864"><ele>1739.0</ele><time>2026-03-29T16:21:54Z</time></trkpt><trkpt lat="36.817920560167664" lon="-108.19743099310786"><ele>1738.9999999999998</ele><time>2026-03-29T16:21:55Z</time></trkpt><trkpt lat="36.81792699413247" lon="-108.19753854666368"><ele>1739.0</ele><time>2026-03-29T16:21:56Z</time></trkpt><trkpt lat="36.8179445013349" lon="-108.19770081354224"><ele>1738.4</ele><time>2026-03-29T16:21:57Z</time></trkpt><trkpt lat="36.81793757768858" lon="-108.19786816039054"><ele>1737.8000000000002</ele><time>2026-03-29T16:21:58Z</time></trkpt><trkpt lat="36.81796757971581" lon="-108.19798766009602"><ele>1737.1999999999998</ele><time>2026-03-29T16:21:59Z</time></trkpt><trkpt lat="36.818047010505374" lon="-108.19806622140251"><ele>1736.6</ele><time>2026-03-29T16:22:01Z</time></trkpt><trkpt lat="36.81813143705426" lon="-108.19813021116015"><ele>1736.0</ele><time>2026-03-29T16:22:10Z</time></trkpt><trkpt lat="36.81820518080592" lon="-108.19819230684644"><ele>1736.1666666666665</ele><time>2026-03-29T16:22:12Z</time></trkpt><trkpt lat="36.8182511845213" lon="-108.19825825681916"><ele>1736.3333333333333</ele><time>2026-03-29T16:22:13Z</time></trkpt><trkpt lat="36.81831787425815" lon="-108.19830266032224"><ele>1736.5</ele><time>2026-03-29T16:22:14Z</time></trkpt><trkpt lat="36.81840148952875" lon="-108.19832627682267"><ele>1736.6666666666665</ele><time>2026-03-29T16:22:15Z</time></trkpt><trkpt lat="36.81849155672913" lon="-108.19840173962054"><ele>1736.8333333333333</ele><time>2026-03-29T16:22:16Z</time></trkpt><trkpt lat="36.81857178325359" lon="-108.1984643873239"><ele>1737.0</ele><time>2026-03-29T16:22:17Z</time></trkpt><trkpt lat="36.81866884787081" lon="-108.19850647783568"><ele>1737.0</ele><time>2026-03-29T16:22:18Z</time></trkpt><trkpt lat="36.818765965197684" lon="-108.19857720789234"><ele>1736.9999999999998</ele><time>2026-03-29T16:22:19Z</time></trkpt><trkpt lat="36.818855504737286" lon="-108.19860044602586"><ele>1736.9999999999998</ele><time>2026-03-29T16:22:20Z</time></trkpt><trkpt lat="36.818929508313815" lon="-108.19862915760815"><ele>1737.0</ele><time>2026-03-29T16:22:21Z</time></trkpt><trkpt lat="36.81905813280682" lon="-108.19865907462965"><ele>1737.0</ele><time>2026-03-29T16:22:22Z</time></trkpt><trkpt lat="36.81918814488776" lon="-108.19871003582873"><ele>1737.0</ele><time>2026-03-29T16:22:23Z</time></trkpt><trkpt lat="36.81926944186274" lon="-108.19875493423882"><ele>1736.9999999999998</ele><time>2026-03-29T16:22:24Z</time></trkpt><trkpt lat="36.8193504013653" lon="-108.19878231184244"><ele>1736.9999999999998</ele><time>2026-03-29T16:22:25Z</time></trkpt><trkpt lat="36.81941869243631" lon="-108.19875563941623"><ele>1737.0</ele><time>2026-03-29T16:22:26Z</time></trkpt><trkpt lat="36.819518134081235" lon="-108.19869355670072"><ele>1737.0</ele><time>2026-03-29T16:22:27Z</time></trkpt><trkpt lat="36.81963749267806" lon="-108.19864110664857"><ele>1737.1999999999998</ele><time>2026-03-29T16:22:28Z</time></trkpt><trkpt lat="36.819725618304986" lon="-108.19861924174391"><ele>1737.3999999999999</ele><time>2026-03-29T16:22:29Z</time></trkpt><trkpt lat="36.819813635910464" lon="-108.19857859821934"><ele>1737.6000000000001</ele><time>2026-03-29T16:22:30Z</time></trkpt><trkpt lat="36.8199121961768" lon="-108.19853656666038"><ele>1737.8000000000002</ele><time>2026-03-29T16:22:31Z</time></trkpt><trkpt lat="36.82000719131607" lon="-108.19851381720838"><ele>1738.0</ele><time>2026-03-29T16:22:32Z</time></trkpt><trkpt lat="36.820088080725796" lon="-108.19849920274642"><ele>1738.0000000000002</ele><time>2026-03-29T16:22:33Z</time></trkpt><trkpt lat="36.820166322449644" lon="-108.19849322194722"><ele>1738.0</ele><time>2026-03-29T16:22:34Z</time></trkpt><trkpt lat="36.820232153271505" lon="-108.19845959195874"><ele>1738.0</ele><time>2026-03-29T16:22:35Z</time></trkpt><trkpt lat="36.82029781145728" lon="-108.198369445519"><ele>1738.0</ele><time>2026-03-29T16:22:36Z</time></trkpt><trkpt lat="36.820390474805585" lon="-108.19834953014528"><ele>1738.0000000000002</ele><time>2026-03-29T16:22:37Z</time></trkpt><trkpt lat="36.82049540702675" lon="-108.19834999646878"><ele>1738.0</ele><time>2026-03-29T16:22:38Z</time></trkpt><trkpt lat="36.82060328768833" lon="-108.19835312550106"><ele>1738.0</ele><time>2026-03-29T16:22:39Z</time></trkpt><trkpt lat="36.82069388459234" lon="-108.19837653219756"><ele>1738.0000000000002</ele><time>2026-03-29T16:22:40Z</time></trkpt><trkpt lat="36.820776329632906" lon="-108.19840888008956"><ele>1738.0000000000002</ele><time>2026-03-29T16:22:41Z</time></trkpt><trkpt lat="36.820870156535015" lon="-108.19841081971941"><ele>1738.0</ele><time>2026-03-29T16:22:42Z</time></trkpt><trkpt lat="36.82098216205244" lon="-108.19839291562761"><ele>1738.0</ele><time>2026-03-29T16:22:43Z</time></trkpt><trkpt lat="36.82107889771935" lon="-108.19839495948462"><ele>1736.3333333333335</ele><time>2026-03-29T16:22:44Z</time></trkpt><trkpt lat="36.82115609355406" lon="-108.19841326630466"><ele>1734.6666666666667</ele><time>2026-03-29T16:22:45Z</time></trkpt><trkpt lat="36.821241986783015" lon="-108.19840096644805"><ele>1733.0</ele><time>2026-03-29T16:22:46Z</time></trkpt><trkpt lat="36.82133703356608" lon="-108.1983419816452"><ele>1731.3333333333335</ele><time>2026-03-29T16:22:47Z</time></trkpt><trkpt lat="36.8214248543679" lon="-108.19830527360558"><ele>1729.6666666666667</ele><time>2026-03-29T16:22:48Z</time></trkpt><trkpt lat="36.82149062000707" lon="-108.19830354739558"><ele>1728.0</ele><time>2026-03-29T16:22:49Z</time></trkpt><trkpt lat="36.82164717184105" lon="-108.19832237337599"><ele>1728.0</ele><time>2026-03-29T16:22:51Z</time></trkpt><trkpt lat="36.82175376151334" lon="-108.19832596194915"><ele>1728.0000000000002</ele><time>2026-03-29T16:22:52Z</time></trkpt><trkpt lat="36.82183028001892" lon="-108.19831540889793"><ele>1728.0000000000002</ele><time>2026-03-29T16:22:53Z</time></trkpt><trkpt lat="36.821917398210424" lon="-108.1982722046675"><ele>1728.0</ele><time>2026-03-29T16:22:54Z</time></trkpt><trkpt lat="36.822040833026826" lon="-108.19820609425986"><ele>1728.0</ele><time>2026-03-29T16:22:55Z</time></trkpt><trkpt lat="36.82213369747685" lon="-108.19817553913045"><ele>1728.0</ele><time>2026-03-29T16:22:56Z</time></trkpt><trkpt lat="36.82221452504518" lon="-108.19817122803373"><ele>1728.0000000000002</ele><time>2026-03-29T16:22:57Z</time></trkpt><trkpt lat="36.822307620816545" lon="-108.19819986753645"><ele>1728.0000000000002</ele><time>2026-03-29T16:22:58Z</time></trkpt><trkpt lat="36.82240472525252" lon="-108.1981993233915"><ele>1728.0</ele><time>2026-03-29T16:22:59Z</time></trkpt><trkpt lat="36.8225182625591" lon="-108.19815960243372"><ele>1728.0</ele><time>2026-03-29T16:23:00Z</time></trkpt><trkpt lat="36.82260289512781" lon="-108.19813306729272"><ele>1728.0</ele><time>2026-03-29T16:23:01Z</time></trkpt><trkpt lat="36.82264332482572" lon="-108.19806106454492"><ele>1728.0</ele><time>2026-03-29T16:23:02Z</time></trkpt><trkpt lat="36.822739218275785" lon="-108.19801310583787"><ele>1728.0</ele><time>2026-03-29T16:23:04Z</time></trkpt><trkpt lat="36.82282266262858" lon="-108.19802238631569"><ele>1728.0</ele><time>2026-03-29T16:23:05Z</time></trkpt><trkpt lat="36.82290947806867" lon="-108.19804749111188"><ele>1728.0</ele><time>2026-03-29T16:23:06Z</time></trkpt><trkpt lat="36.82297544061173" lon="-108.19809517551361"><ele>1728.0</ele><time>2026-03-29T16:23:07Z</time></trkpt><trkpt lat="36.82311941968031" lon="-108.19803901900144"><ele>1728.8333333333333</ele><time>2026-03-29T16:23:09Z</time></trkpt><trkpt lat="36.82320455197401" lon="-108.19796224862404"><ele>1729.6666666666665</ele><time>2026-03-29T16:23:10Z</time></trkpt><trkpt lat="36.82328854270712" lon="-108.19796761870222"><ele>1730.5</ele><time>2026-03-29T16:23:11Z</time></trkpt><trkpt lat="36.823359010611824" lon="-108.19800649230385"><ele>1731.3333333333333</ele><time>2026-03-29T16:23:12Z</time></trkpt><trkpt lat="36.8234376893963" lon="-108.1979764748622"><ele>1732.1666666666665</ele><time>2026-03-29T16:23:13Z</time></trkpt><trkpt lat="36.82350280063496" lon="-108.19793759220707"><ele>1733.0</ele><time>2026-03-29T16:23:14Z</time></trkpt><trkpt lat="36.823564795821035" lon="-108.19796124732378"><ele>1733.25</ele><time>2026-03-29T16:23:15Z</time></trkpt><trkpt lat="36.823659692032834" lon="-108.1980705204298"><ele>1733.5</ele><time>2026-03-29T16:23:16Z</time></trkpt><trkpt lat="36.82376225934042" lon="-108.19817437565156"><ele>1733.75</ele><time>2026-03-29T16:23:17Z</time></trkpt><trkpt lat="36.82386703065165" lon="-108.19828943305691"><ele>1734.0</ele><time>2026-03-29T16:23:18Z</time></trkpt><trkpt lat="36.82397353583555" lon="-108.19844584131461"><ele>1734.0</ele><time>2026-03-29T16:23:19Z</time></trkpt><trkpt lat="36.8240748859444" lon="-108.19856344442658"><ele>1734.0</ele><time>2026-03-29T16:23:20Z</time></trkpt><trkpt lat="36.82415379334594" lon="-108.19865896304286"><ele>1734.0</ele><time>2026-03-29T16:23:21Z</time></trkpt><trkpt lat="36.82421313831971" lon="-108.1987329421226"><ele>1734.0</ele><time>2026-03-29T16:23:22Z</time></trkpt><trkpt lat="36.824266973588315" lon="-108.19879461260336"><ele>1734.0</ele><time>2026-03-29T16:23:23Z</time></trkpt><trkpt lat="36.82434078442471" lon="-108.19881551761702"><ele>1735.1666666666667</ele><time>2026-03-29T16:23:24Z</time></trkpt><trkpt lat="36.82443885120106" lon="-108.19882176140878"><ele>1736.3333333333335</ele><time>2026-03-29T16:23:25Z</time></trkpt><trkpt lat="36.82450744309106" lon="-108.19882606154896"><ele>1737.5</ele><time>2026-03-29T16:23:26Z</time></trkpt><trkpt lat="36.824570041697676" lon="-108.19875604776091"><ele>1738.6666666666667</ele><time>2026-03-29T16:23:27Z</time></trkpt><trkpt lat="36.824617543943" lon="-108.19865818558884"><ele>1739.8333333333335</ele><time>2026-03-29T16:23:28Z</time></trkpt><trkpt lat="36.824698741859855" lon="-108.19858822362465"><ele>1741.0</ele><time>2026-03-29T16:23:29Z</time></trkpt><trkpt lat="36.82475998056906" lon="-108.1986147333376"><ele>1741.0000000000002</ele><time>2026-03-29T16:23:30Z</time></trkpt><trkpt lat="36.82482079588403" lon="-108.19864137278887"><ele>1741.0</ele><time>2026-03-29T16:23:31Z</time></trkpt><trkpt lat="36.824906953647094" lon="-108.19869017345982"><ele>1741.0</ele><time>2026-03-29T16:23:33Z</time></trkpt><trkpt lat="36.82498802004982" lon="-108.19868274724882"><ele>1741.0</ele><time>2026-03-29T16:23:34Z</time></trkpt><trkpt lat="36.82507088701153" lon="-108.19874164911218"><ele>1741.0000000000002</ele><time>2026-03-29T16:23:35Z</time></trkpt><trkpt lat="36.8251603132816" lon="-108.19875075219502"><ele>1741.0</ele><time>2026-03-29T16:23:36Z</time></trkpt><trkpt lat="36.82528728675952" lon="-108.19868803680107"><ele>1740.8</ele><time>2026-03-29T16:23:37Z</time></trkpt><trkpt lat="36.8253988563174" lon="-108.1986168624835"><ele>1740.6</ele><time>2026-03-29T16:23:38Z</time></trkpt><trkpt lat="36.82549096566959" lon="-108.19857180930444"><ele>1740.4</ele><time>2026-03-29T16:23:39Z</time></trkpt><trkpt lat="36.825562014533205" lon="-108.19851400231111"><ele>1740.2</ele><time>2026-03-29T16:23:40Z</time></trkpt><trkpt lat="36.825636928584444" lon="-108.19840138470886"><ele>1740.0</ele><time>2026-03-29T16:23:41Z</time></trkpt><trkpt lat="36.825710470684804" lon="-108.19831487267074"><ele>1740.0</ele><time>2026-03-29T16:23:42Z</time></trkpt><trkpt lat="36.825769531878066" lon="-108.19824762067637"><ele>1740.0</ele><time>2026-03-29T16:23:43Z</time></trkpt><trkpt lat="36.82581035833607" lon="-108.1981779297916"><ele>1740.0</ele><time>2026-03-29T16:23:44Z</time></trkpt><trkpt lat="36.82588658312802" lon="-108.19812167765254"><ele>1740.0</ele><time>2026-03-29T16:23:45Z</time></trkpt><trkpt lat="36.825992868602725" lon="-108.19806006584159"><ele>1740.0</ele><time>2026-03-29T16:23:46Z</time></trkpt><trkpt lat="36.82605688785709" lon="-108.19794705785013"><ele>1738.4</ele><time>2026-03-29T16:23:47Z</time></trkpt><trkpt lat="36.82613618303243" lon="-108.19788768183238"><ele>1736.8</ele><time>2026-03-29T16:23:48Z</time></trkpt><trkpt lat="36.82619250603183" lon="-108.19778219747427"><ele>1735.1999999999998</ele><time>2026-03-29T16:23:49Z</time></trkpt><trkpt lat="36.82627232012529" lon="-108.1977062538634"><ele>1733.6</ele><time>2026-03-29T16:23:50Z</time></trkpt><trkpt lat="36.82636899457544" lon="-108.19764791556139"><ele>1732.0</ele><time>2026-03-29T16:23:51Z</time></trkpt><trkpt lat="36.82644382289711" lon="-108.1975458455757"><ele>1732.0</ele><time>2026-03-29T16:23:52Z</time></trkpt><trkpt lat="36.826516060015166" lon="-108.19743811408168"><ele>1731.9999999999998</ele><time>2026-03-29T16:23:53Z</time></trkpt><trkpt lat="36.82661652848736" lon="-108.19736425618699"><ele>1731.9999999999998</ele><time>2026-03-29T16:23:54Z</time></trkpt><trkpt lat="36.82668911558489" lon="-108.19728860766018"><ele>1732.0</ele><time>2026-03-29T16:23:55Z</time></trkpt><trkpt lat="36.826749728872684" lon="-108.19720391384372"><ele>1732.0</ele><time>2026-03-29T16:23:56Z</time></trkpt><trkpt lat="36.82681724913749" lon="-108.19708016271213"><ele>1731.6</ele><time>2026-03-29T16:23:57Z</time></trkpt><trkpt lat="36.82689204058062" lon="-108.19700021179315"><ele>1731.1999999999998</ele><time>2026-03-29T16:23:58Z</time></trkpt><trkpt lat="36.826960000299366" lon="-108.19695558854585"><ele>1730.8</ele><time>2026-03-29T16:23:59Z</time></trkpt><trkpt lat="36.826979785246614" lon="-108.1968661344945"><ele>1730.4</ele><time>2026-03-29T16:24:00Z</time></trkpt><trkpt lat="36.82695876286619" lon="-108.19673998041387"><ele>1730.0</ele><time>2026-03-29T16:24:01Z</time></trkpt><trkpt lat="36.826933896234564" lon="-108.1966205910629"><ele>1729.9999999999998</ele><time>2026-03-29T16:24:02Z</time></trkpt><trkpt lat="36.826933445336536" lon="-108.19651159572096"><ele>1730.0</ele><time>2026-03-29T16:24:03Z</time></trkpt><trkpt lat="36.82693129663684" lon="-108.1964235652725"><ele>1730.0</ele><time>2026-03-29T16:24:04Z</time></trkpt><trkpt lat="36.82693005308042" lon="-108.19633924380412"><ele>1730.0</ele><time>2026-03-29T16:24:05Z</time></trkpt><trkpt lat="36.82695170996645" lon="-108.19622638462316"><ele>1729.9999999999998</ele><time>2026-03-29T16:24:06Z</time></trkpt><trkpt lat="36.82698845747322" lon="-108.19612261060018"><ele>1730.0</ele><time>2026-03-29T16:24:07Z</time></trkpt><trkpt lat="36.826987553634176" lon="-108.19599274939743"><ele>1731.0</ele><time>2026-03-29T16:24:08Z</time></trkpt><trkpt lat="36.82695192093803" lon="-108.19586947493319"><ele>1732.0</ele><time>2026-03-29T16:24:09Z</time></trkpt><trkpt lat="36.826903946682656" lon="-108.19576283475395"><ele>1733.0</ele><time>2026-03-29T16:24:10Z</time></trkpt><trkpt lat="36.82689488580819" lon="-108.19567470855554"><ele>1734.0</ele><time>2026-03-29T16:24:11Z</time></trkpt><trkpt lat="36.826938398250306" lon="-108.19555591097509"><ele>1735.0</ele><time>2026-03-29T16:24:12Z</time></trkpt><trkpt lat="36.82698877636599" lon="-108.19540680593752"><ele>1735.3333333333335</ele><time>2026-03-29T16:24:13Z</time></trkpt><trkpt lat="36.8270372891739" lon="-108.195305103921"><ele>1735.6666666666667</ele><time>2026-03-29T16:24:14Z</time></trkpt><trkpt lat="36.82709752250439" lon="-108.19526163283601"><ele>1736.0</ele><time>2026-03-29T16:24:15Z</time></trkpt><trkpt lat="36.82715192428902" lon="-108.19521210510064"><ele>1736.3333333333335</ele><time>2026-03-29T16:24:16Z</time></trkpt><trkpt lat="36.827239992811776" lon="-108.19519025743854"><ele>1736.6666666666667</ele><time>2026-03-29T16:24:17Z</time></trkpt><trkpt lat="36.827351095715954" lon="-108.19521051943111"><ele>1737.0</ele><time>2026-03-29T16:24:18Z</time></trkpt><trkpt lat="36.827434939547636" lon="-108.1952071843512"><ele>1737.0</ele><time>2026-03-29T16:24:19Z</time></trkpt><trkpt lat="36.827522396736434" lon="-108.19517634689042"><ele>1736.9999999999998</ele><time>2026-03-29T16:24:20Z</time></trkpt><trkpt lat="36.82761419342103" lon="-108.195143328883"><ele>1736.9999999999998</ele><time>2026-03-29T16:24:21Z</time></trkpt><trkpt lat="36.827715458402565" lon="-108.195135591875"><ele>1737.0</ele><time>2026-03-29T16:24:22Z</time></trkpt><trkpt lat="36.82782690428066" lon="-108.19513151644185"><ele>1737.0</ele><time>2026-03-29T16:24:23Z</time></trkpt><trkpt lat="36.82791700298463" lon="-108.19513064372487"><ele>1737.6</ele><time>2026-03-29T16:24:24Z</time></trkpt><trkpt lat="36.828004640046416" lon="-108.19518272710046"><ele>1738.1999999999998</ele><time>2026-03-29T16:24:25Z</time></trkpt><trkpt lat="36.828112081917084" lon="-108.19523768938357"><ele>1738.8</ele><time>2026-03-29T16:24:26Z</time></trkpt><trkpt lat="36.8281809335583" lon="-108.19525990500391"><ele>1739.4</ele><time>2026-03-29T16:24:27Z</time></trkpt><trkpt lat="36.82825126656609" lon="-108.19523946578406"><ele>1740.0</ele><time>2026-03-29T16:24:28Z</time></trkpt><trkpt lat="36.82834956384246" lon="-108.1952420210072"><ele>1740.0</ele><time>2026-03-29T16:24:29Z</time></trkpt><trkpt lat="36.82847058380823" lon="-108.19525430536324"><ele>1740.0</ele><time>2026-03-29T16:24:30Z</time></trkpt><trkpt lat="36.82857673196693" lon="-108.19529565856827"><ele>1740.0</ele><time>2026-03-29T16:24:31Z</time></trkpt><trkpt lat="36.828672465765244" lon="-108.19532102026658"><ele>1740.0</ele><time>2026-03-29T16:24:32Z</time></trkpt><trkpt lat="36.828764837028636" lon="-108.19531216127653"><ele>1740.0</ele><time>2026-03-29T16:24:33Z</time></trkpt><trkpt lat="36.82884412490889" lon="-108.19526765584425"><ele>1740.0</ele><time>2026-03-29T16:24:34Z</time></trkpt><trkpt lat="36.828919903854896" lon="-108.19528225380454"><ele>1740.0</ele><time>2026-03-29T16:24:35Z</time></trkpt><trkpt lat="36.82901486150326" lon="-108.19527850888315"><ele>1740.0</ele><time>2026-03-29T16:24:36Z</time></trkpt><trkpt lat="36.829075591836876" lon="-108.19520925171531"><ele>1740.0</ele><time>2026-03-29T16:24:37Z</time></trkpt><trkpt lat="36.82916259704809" lon="-108.1950601581642"><ele>1740.0</ele><time>2026-03-29T16:24:38Z</time></trkpt><trkpt lat="36.82924731240323" lon="-108.19494881691678"><ele>1740.6</ele><time>2026-03-29T16:24:39Z</time></trkpt><trkpt lat="36.82932420950373" lon="-108.19487963033546"><ele>1741.2</ele><time>2026-03-29T16:24:40Z</time></trkpt><trkpt lat="36.82938999175139" lon="-108.19482153876895"><ele>1741.8000000000002</ele><time>2026-03-29T16:24:41Z</time></trkpt><trkpt lat="36.82945395614474" lon="-108.19475267763895"><ele>1742.4</ele><time>2026-03-29T16:24:42Z</time></trkpt><trkpt lat="36.829497607065306" lon="-108.19458606619105"><ele>1743.0</ele><time>2026-03-29T16:24:43Z</time></trkpt><trkpt lat="36.82956221886166" lon="-108.1944687136208"><ele>1743.0</ele><time>2026-03-29T16:24:44Z</time></trkpt><trkpt lat="36.829640624480106" lon="-108.19440225947213"><ele>1743.0000000000002</ele><time>2026-03-29T16:24:45Z</time></trkpt><trkpt lat="36.82970580644501" lon="-108.19431417546258"><ele>1743.0000000000002</ele><time>2026-03-29T16:24:46Z</time></trkpt><trkpt lat="36.82976760988752" lon="-108.19422880124212"><ele>1743.0</ele><time>2026-03-29T16:24:47Z</time></trkpt><trkpt lat="36.82987807041255" lon="-108.19415760234128"><ele>1743.0</ele><time>2026-03-29T16:24:48Z</time></trkpt><trkpt lat="36.83000855166751" lon="-108.19408376422027"><ele>1743.0</ele><time>2026-03-29T16:24:49Z</time></trkpt><trkpt lat="36.83012437940188" lon="-108.19398848352535"><ele>1743.0</ele><time>2026-03-29T16:24:50Z</time></trkpt><trkpt lat="36.83022611734168" lon="-108.19389126539558"><ele>1743.0</ele><time>2026-03-29T16:24:51Z</time></trkpt><trkpt lat="36.83029447328145" lon="-108.19378464972284"><ele>1743.0</ele><time>2026-03-29T16:24:52Z</time></trkpt><trkpt lat="36.830381065281564" lon="-108.19367344005519"><ele>1743.0</ele><time>2026-03-29T16:24:53Z</time></trkpt><trkpt lat="36.8304776068038" lon="-108.19359001273239"><ele>1743.0</ele><time>2026-03-29T16:24:54Z</time></trkpt><trkpt lat="36.83058461018224" lon="-108.19357078638603"><ele>1743.0</ele><time>2026-03-29T16:24:55Z</time></trkpt><trkpt lat="36.83072065457756" lon="-108.19355715365714"><ele>1743.0</ele><time>2026-03-29T16:24:56Z</time></trkpt><trkpt lat="36.830861574262386" lon="-108.19354154487064"><ele>1743.0</ele><time>2026-03-29T16:24:57Z</time></trkpt><trkpt lat="36.83092830752562" lon="-108.19348872079794"><ele>1743.0000000000002</ele><time>2026-03-29T16:24:58Z</time></trkpt><trkpt lat="36.830955780437606" lon="-108.19341232566035"><ele>1743.0000000000002</ele><time>2026-03-29T16:24:59Z</time></trkpt><trkpt lat="36.83101136183116" lon="-108.19331779896102"><ele>1743.0</ele><time>2026-03-29T16:25:00Z</time></trkpt><trkpt lat="36.83109731040354" lon="-108.19329306521847"><ele>1743.0</ele><time>2026-03-29T16:25:01Z</time></trkpt><trkpt lat="36.831226869641355" lon="-108.19328197399885"><ele>1742.8000000000002</ele><time>2026-03-29T16:25:02Z</time></trkpt><trkpt lat="36.83134013064999" lon="-108.19321906143034"><ele>1742.6000000000001</ele><time>2026-03-29T16:25:03Z</time></trkpt><trkpt lat="36.831426905059594" lon="-108.1931834268332"><ele>1742.3999999999999</ele><time>2026-03-29T16:25:04Z</time></trkpt><trkpt lat="36.8315264362764" lon="-108.19314234464642"><ele>1742.1999999999998</ele><time>2026-03-29T16:25:05Z</time></trkpt><trkpt lat="36.83164309336763" lon="-108.19308569262246"><ele>1742.0</ele><time>2026-03-29T16:25:06Z</time></trkpt><trkpt lat="36.831763031455424" lon="-108.19304820789074"><ele>1742.3999999999999</ele><time>2026-03-29T16:25:07Z</time></trkpt><trkpt lat="36.83187274376489" lon="-108.19302433342848"><ele>1742.7999999999997</ele><time>2026-03-29T16:25:08Z</time></trkpt><trkpt lat="36.831955680613575" lon="-108.19297861260992"><ele>1743.2</ele><time>2026-03-29T16:25:09Z</time></trkpt><trkpt lat="36.83202393916617" lon="-108.19289458873848"><ele>1743.6</ele><time>2026-03-29T16:25:10Z</time></trkpt><trkpt lat="36.83209828181457" lon="-108.19279168230277"><ele>1744.0</ele><time>2026-03-29T16:25:11Z</time></trkpt><trkpt lat="36.83217936235722" lon="-108.19275757948645"><ele>1744.0</ele><time>2026-03-29T16:25:12Z</time></trkpt><trkpt lat="36.83229117930049" lon="-108.19269835694041"><ele>1744.0</ele><time>2026-03-29T16:25:13Z</time></trkpt><trkpt lat="36.832377730379534" lon="-108.19261261463615"><ele>1744.0</ele><time>2026-03-29T16:25:14Z</time></trkpt><trkpt lat="36.832430768128894" lon="-108.19248658242039"><ele>1744.0</ele><time>2026-03-29T16:25:15Z</time></trkpt><trkpt lat="36.8324735552863" lon="-108.19235886625613"><ele>1745.0</ele><time>2026-03-29T16:25:16Z</time></trkpt><trkpt lat="36.832555838641014" lon="-108.19225330502454"><ele>1746.0</ele><time>2026-03-29T16:25:17Z</time></trkpt><trkpt lat="36.832644367095185" lon="-108.19219807204384"><ele>1747.0</ele><time>2026-03-29T16:25:18Z</time></trkpt><trkpt lat="36.832744105837165" lon="-108.19216536056305"><ele>1748.0</ele><time>2026-03-29T16:25:19Z</time></trkpt><trkpt lat="36.832853987006445" lon="-108.19212923065062"><ele>1749.0</ele><time>2026-03-29T16:25:20Z</time></trkpt><trkpt lat="36.83296319541314" lon="-108.19206182191446"><ele>1749.2</ele><time>2026-03-29T16:25:21Z</time></trkpt><trkpt lat="36.83307973298967" lon="-108.19199329794596"><ele>1749.4</ele><time>2026-03-29T16:25:22Z</time></trkpt><trkpt lat="36.833183376406666" lon="-108.19193137966799"><ele>1749.6</ele><time>2026-03-29T16:25:23Z</time></trkpt><trkpt lat="36.83326091887055" lon="-108.19191233623167"><ele>1749.8</ele><time>2026-03-29T16:25:24Z</time></trkpt><trkpt lat="36.83333163257887" lon="-108.1919507535214"><ele>1750.0</ele><time>2026-03-29T16:25:25Z</time></trkpt><trkpt lat="36.83340451795717" lon="-108.19197604310877"><ele>1749.8</ele><time>2026-03-29T16:25:26Z</time></trkpt><trkpt lat="36.83348590301037" lon="-108.19198159956538"><ele>1749.6</ele><time>2026-03-29T16:25:27Z</time></trkpt><trkpt lat="36.83360429289024" lon="-108.19197899877615"><ele>1749.4</ele><time>2026-03-29T16:25:28Z</time></trkpt><trkpt lat="36.83369633451286" lon="-108.19201216028299"><ele>1749.2</ele><time>2026-03-29T16:25:29Z</time></trkpt><trkpt lat="36.833781823889574" lon="-108.19208754877808"><ele>1749.0</ele><time>2026-03-29T16:25:30Z</time></trkpt><trkpt lat="36.83387694143944" lon="-108.19216371401647"><ele>1749.0</ele><time>2026-03-29T16:25:31Z</time></trkpt><trkpt lat="36.8339617407264" lon="-108.19224625113578"><ele>1749.0</ele><time>2026-03-29T16:25:32Z</time></trkpt><trkpt lat="36.833977773636995" lon="-108.19236150606778"><ele>1749.0</ele><time>2026-03-29T16:25:33Z</time></trkpt><trkpt lat="36.83399492601529" lon="-108.19248450534161"><ele>1749.0</ele><time>2026-03-29T16:25:34Z</time></trkpt><trkpt lat="36.8340433190825" lon="-108.19254075574482"><ele>1749.0</ele><time>2026-03-29T16:25:35Z</time></trkpt><trkpt lat="36.83413404006807" lon="-108.1925773398969"><ele>1748.2</ele><time>2026-03-29T16:25:36Z</time></trkpt><trkpt lat="36.83418385542529" lon="-108.19267215313207"><ele>1747.4</ele><time>2026-03-29T16:25:37Z</time></trkpt><trkpt lat="36.8342559266718" lon="-108.19275555277721"><ele>1746.6</ele><time>2026-03-29T16:25:38Z</time></trkpt><trkpt lat="36.83431683344093" lon="-108.19283272891084"><ele>1745.8</ele><time>2026-03-29T16:25:39Z</time></trkpt><trkpt lat="36.83438703677682" lon="-108.19292519761485"><ele>1745.0</ele><time>2026-03-29T16:25:40Z</time></trkpt><trkpt lat="36.83447136408406" lon="-108.1930296030846"><ele>1743.4</ele><time>2026-03-29T16:25:41Z</time></trkpt><trkpt lat="36.834567223496514" lon="-108.19303512244883"><ele>1741.8</ele><time>2026-03-29T16:25:42Z</time></trkpt><trkpt lat="36.834665341522125" lon="-108.19303035090326"><ele>1740.1999999999998</ele><time>2026-03-29T16:25:43Z</time></trkpt><trkpt lat="36.83477662931736" lon="-108.19305160360597"><ele>1738.6</ele><time>2026-03-29T16:25:44Z</time></trkpt><trkpt lat="36.83488432037027" lon="-108.19309112493562"><ele>1737.0</ele><time>2026-03-29T16:25:45Z</time></trkpt><trkpt lat="36.835002438296186" lon="-108.19313598048913"><ele>1737.0</ele><time>2026-03-29T16:25:46Z</time></trkpt><trkpt lat="36.83509361857597" lon="-108.1931780880261"><ele>1736.9999999999998</ele><time>2026-03-29T16:25:47Z</time></trkpt><trkpt lat="36.83518703303685" lon="-108.19321328526893"><ele>1736.9999999999998</ele><time>2026-03-29T16:25:48Z</time></trkpt><trkpt lat="36.835292100328644" lon="-108.19322950860447"><ele>1737.0</ele><time>2026-03-29T16:25:49Z</time></trkpt><trkpt lat="36.835375231326225" lon="-108.19323720597255"><ele>1737.0</ele><time>2026-03-29T16:25:50Z</time></trkpt><trkpt lat="36.83547286309896" lon="-108.19327761748714"><ele>1737.0</ele><time>2026-03-29T16:25:51Z</time></trkpt><trkpt lat="36.835572482235904" lon="-108.19327900376393"><ele>1737.0</ele><time>2026-03-29T16:25:52Z</time></trkpt><trkpt lat="36.83569086445752" lon="-108.19329579768858"><ele>1737.0</ele><time>2026-03-29T16:25:53Z</time></trkpt><trkpt lat="36.83584751436104" lon="-108.19330605474063"><ele>1737.0</ele><time>2026-03-29T16:25:54Z</time></trkpt><trkpt lat="36.83594588208028" lon="-108.19326772587975"><ele>1738.6</ele><time>2026-03-29T16:25:55Z</time></trkpt><trkpt lat="36.836047670540765" lon="-108.19321985815849"><ele>1740.1999999999998</ele><time>2026-03-29T16:25:56Z</time></trkpt><trkpt lat="36.83614083309046" lon="-108.19318858399242"><ele>1741.8</ele><time>2026-03-29T16:25:57Z</time></trkpt><trkpt lat="36.83624625476228" lon="-108.1931560124702"><ele>1743.4</ele><time>2026-03-29T16:25:58Z</time></trkpt><trkpt lat="36.836372866555664" lon="-108.19312089631353"><ele>1745.0</ele><time>2026-03-29T16:25:59Z</time></trkpt><trkpt lat="36.836489233045064" lon="-108.19311007206288"><ele>1745.2</ele><time>2026-03-29T16:26:00Z</time></trkpt><trkpt lat="36.83658519440541" lon="-108.1930922481447"><ele>1745.4</ele><time>2026-03-29T16:26:01Z</time></trkpt><trkpt lat="36.83668743737997" lon="-108.19305976623072"><ele>1745.6</ele><time>2026-03-29T16:26:02Z</time></trkpt><trkpt lat="36.83679003018567" lon="-108.19303554450273"><ele>1745.8</ele><time>2026-03-29T16:26:03Z</time></trkpt><trkpt lat="36.83688796041429" lon="-108.19302832741782"><ele>1746.0</ele><time>2026-03-29T16:26:04Z</time></trkpt><trkpt lat="36.83697435785914" lon="-108.19304382388907"><ele>1747.0</ele><time>2026-03-29T16:26:05Z</time></trkpt><trkpt lat="36.83708545047121" lon="-108.19307404964603"><ele>1748.0</ele><time>2026-03-29T16:26:06Z</time></trkpt><trkpt lat="36.83719353214386" lon="-108.1931086491834"><ele>1749.0</ele><time>2026-03-29T16:26:07Z</time></trkpt><trkpt lat="36.837289314696775" lon="-108.19313774250014"><ele>1750.0</ele><time>2026-03-29T16:26:08Z</time></trkpt><trkpt lat="36.83739088226498" lon="-108.19316526064578"><ele>1751.0</ele><time>2026-03-29T16:26:09Z</time></trkpt><trkpt lat="36.83750055623857" lon="-108.19315478916462"><ele>1751.0</ele><time>2026-03-29T16:26:10Z</time></trkpt><trkpt lat="36.837616603341694" lon="-108.19319004386158"><ele>1751.0</ele><time>2026-03-29T16:26:11Z</time></trkpt><trkpt lat="36.83769506875986" lon="-108.19321938604479"><ele>1751.0</ele><time>2026-03-29T16:26:12Z</time></trkpt><trkpt lat="36.83774015259889" lon="-108.19328591472195"><ele>1751.0</ele><time>2026-03-29T16:26:13Z</time></trkpt><trkpt lat="36.837760849873256" lon="-108.19339168773948"><ele>1751.0</ele><time>2026-03-29T16:26:14Z</time></trkpt><trkpt lat="36.83776489896486" lon="-108.19350981545857"><ele>1752.6</ele><time>2026-03-29T16:26:15Z</time></trkpt><trkpt lat="36.83787145947049" lon="-108.19356111894061"><ele>1754.1999999999998</ele><time>2026-03-29T16:26:17Z</time></trkpt><trkpt lat="36.837944158718685" lon="-108.19355380094568"><ele>1755.8000000000002</ele><time>2026-03-29T16:26:18Z</time></trkpt><trkpt lat="36.83803318613068" lon="-108.19369673623521"><ele>1757.4</ele><time>2026-03-29T16:26:20Z</time></trkpt><trkpt lat="36.83803458623505" lon="-108.1937912046911"><ele>1759.0</ele><time>2026-03-29T16:26:21Z</time></trkpt><trkpt lat="36.83811927077391" lon="-108.19384325174552"><ele>1759.0</ele><time>2026-03-29T16:26:23Z</time></trkpt><trkpt lat="36.83822755672848" lon="-108.19385893577892"><ele>1759.0</ele><time>2026-03-29T16:26:24Z</time></trkpt><trkpt lat="36.838339984358164" lon="-108.19390515347222"><ele>1759.0</ele><time>2026-03-29T16:26:25Z</time></trkpt><trkpt lat="36.83841026516153" lon="-108.19397863876031"><ele>1759.0</ele><time>2026-03-29T16:26:26Z</time></trkpt><trkpt lat="36.83848819086901" lon="-108.19403670051118"><ele>1759.0</ele><time>2026-03-29T16:26:27Z</time></trkpt><trkpt lat="36.838591242906226" lon="-108.19406694627384"><ele>1759.0</ele><time>2026-03-29T16:26:28Z</time></trkpt><trkpt lat="36.83867947316367" lon="-108.19410041333408"><ele>1759.0</ele><time>2026-03-29T16:26:29Z</time></trkpt><trkpt lat="36.838777985735234" lon="-108.19410331750795"><ele>1759.0</ele><time>2026-03-29T16:26:30Z</time></trkpt><trkpt lat="36.83889887705603" lon="-108.19410120146175"><ele>1759.0</ele><time>2026-03-29T16:26:31Z</time></trkpt><trkpt lat="36.83900868052873" lon="-108.19414117035863"><ele>1759.0</ele><time>2026-03-29T16:26:32Z</time></trkpt><trkpt lat="36.83909668937598" lon="-108.19420487894854"><ele>1759.0</ele><time>2026-03-29T16:26:33Z</time></trkpt><trkpt lat="36.8391962234524" lon="-108.1942731619692"><ele>1759.0</ele><time>2026-03-29T16:26:34Z</time></trkpt><trkpt lat="36.83931556059102" lon="-108.1943301207831"><ele>1759.0</ele><time>2026-03-29T16:26:35Z</time></trkpt><trkpt lat="36.83939178465216" lon="-108.19439877114631"><ele>1759.0</ele><time>2026-03-29T16:26:36Z</time></trkpt><trkpt lat="36.83948743334163" lon="-108.19445948665323"><ele>1759.0</ele><time>2026-03-29T16:26:37Z</time></trkpt><trkpt lat="36.839588941596105" lon="-108.19453021052557"><ele>1759.4</ele><time>2026-03-29T16:26:38Z</time></trkpt><trkpt lat="36.839666630407685" lon="-108.19460474874218"><ele>1759.8000000000002</ele><time>2026-03-29T16:26:39Z</time></trkpt><trkpt lat="36.83973534257913" lon="-108.1947260020686"><ele>1760.1999999999998</ele><time>2026-03-29T16:26:40Z</time></trkpt><trkpt lat="36.83980547297901" lon="-108.19481244286476"><ele>1760.6</ele><time>2026-03-29T16:26:41Z</time></trkpt><trkpt lat="36.83989880617479" lon="-108.1947988088096"><ele>1761.0</ele><time>2026-03-29T16:26:42Z</time></trkpt><trkpt lat="36.83999078037649" lon="-108.19477551272531"><ele>1761.1999999999998</ele><time>2026-03-29T16:26:43Z</time></trkpt><trkpt lat="36.840083664824604" lon="-108.19484358610791"><ele>1761.3999999999999</ele><time>2026-03-29T16:26:44Z</time></trkpt><trkpt lat="36.840131678404106" lon="-108.19493961899612"><ele>1761.6</ele><time>2026-03-29T16:26:45Z</time></trkpt><trkpt lat="36.840146111262435" lon="-108.19508751101765"><ele>1761.8</ele><time>2026-03-29T16:26:46Z</time></trkpt><trkpt lat="36.840155991418534" lon="-108.19521918515983"><ele>1762.0</ele><time>2026-03-29T16:26:47Z</time></trkpt><trkpt lat="36.84016853376666" lon="-108.19533433856881"><ele>1761.25</ele><time>2026-03-29T16:26:48Z</time></trkpt><trkpt lat="36.840122854774876" lon="-108.19547010452716"><ele>1760.5</ele><time>2026-03-29T16:26:49Z</time></trkpt><trkpt lat="36.84008653861941" lon="-108.19559939853177"><ele>1759.75</ele><time>2026-03-29T16:26:50Z</time></trkpt><trkpt lat="36.840057060611535" lon="-108.1957220254504"><ele>1759.0</ele><time>2026-03-29T16:26:51Z</time></trkpt><trkpt lat="36.83999739582117" lon="-108.1958777149073"><ele>1758.8000000000002</ele><time>2026-03-29T16:26:52Z</time></trkpt><trkpt lat="36.83993662637249" lon="-108.19601079210572"><ele>1758.6000000000001</ele><time>2026-03-29T16:26:53Z</time></trkpt><trkpt lat="36.8399263588632" lon="-108.1961351021701"><ele>1758.4</ele><time>2026-03-29T16:26:54Z</time></trkpt><trkpt lat="36.83993086384693" lon="-108.19626512386837"><ele>1758.2</ele><time>2026-03-29T16:26:55Z</time></trkpt><trkpt lat="36.839935067424754" lon="-108.19639011629691"><ele>1758.0</ele><time>2026-03-29T16:26:56Z</time></trkpt><trkpt lat="36.83993123350646" lon="-108.19651484481035"><ele>1757.8000000000002</ele><time>2026-03-29T16:26:57Z</time></trkpt><trkpt lat="36.83989745254544" lon="-108.19663818132649"><ele>1757.6000000000001</ele><time>2026-03-29T16:26:58Z</time></trkpt><trkpt lat="36.83986345973085" lon="-108.19675592510671"><ele>1757.3999999999999</ele><time>2026-03-29T16:26:59Z</time></trkpt><trkpt lat="36.83985765027779" lon="-108.19688330359796"><ele>1757.1999999999998</ele><time>2026-03-29T16:27:00Z</time></trkpt><trkpt lat="36.839830497328556" lon="-108.1970087420306"><ele>1757.0</ele><time>2026-03-29T16:27:01Z</time></trkpt><trkpt lat="36.83976352667384" lon="-108.19709041401255"><ele>1757.0</ele><time>2026-03-29T16:27:02Z</time></trkpt><trkpt lat="36.83970174663368" lon="-108.19719793172034"><ele>1756.9999999999998</ele><time>2026-03-29T16:27:03Z</time></trkpt><trkpt lat="36.839672824533245" lon="-108.19730154867656"><ele>1756.9999999999998</ele><time>2026-03-29T16:27:04Z</time></trkpt><trkpt lat="36.83963876932753" lon="-108.19739899430637"><ele>1757.0</ele><time>2026-03-29T16:27:05Z</time></trkpt><trkpt lat="36.83962067688872" lon="-108.19749696385657"><ele>1757.0</ele><time>2026-03-29T16:27:06Z</time></trkpt><trkpt lat="36.83961892503264" lon="-108.197622346697"><ele>1756.8</ele><time>2026-03-29T16:27:07Z</time></trkpt><trkpt lat="36.83962527874052" lon="-108.1977431172729"><ele>1756.6</ele><time>2026-03-29T16:27:08Z</time></trkpt><trkpt lat="36.83964197473282" lon="-108.19785169751226"><ele>1756.3999999999999</ele><time>2026-03-29T16:27:09Z</time></trkpt><trkpt lat="36.83966116378239" lon="-108.19797677273051"><ele>1756.1999999999998</ele><time>2026-03-29T16:27:10Z</time></trkpt><trkpt lat="36.83964676039646" lon="-108.19808700697962"><ele>1756.0</ele><time>2026-03-29T16:27:11Z</time></trkpt><trkpt lat="36.83961416374865" lon="-108.19821015212003"><ele>1755.6</ele><time>2026-03-29T16:27:12Z</time></trkpt><trkpt lat="36.83957210182591" lon="-108.19833766163454"><ele>1755.1999999999998</ele><time>2026-03-29T16:27:13Z</time></trkpt><trkpt lat="36.83950275866599" lon="-108.19844969654228"><ele>1754.8000000000002</ele><time>2026-03-29T16:27:14Z</time></trkpt><trkpt lat="36.83944201405456" lon="-108.19854311900137"><ele>1754.4</ele><time>2026-03-29T16:27:15Z</time></trkpt><trkpt lat="36.839465317670665" lon="-108.19869087734156"><ele>1754.0</ele><time>2026-03-29T16:27:17Z</time></trkpt><trkpt lat="36.839489416739056" lon="-108.19885579538227"><ele>1754.0</ele><time>2026-03-29T16:27:19Z</time></trkpt><trkpt lat="36.83950127322546" lon="-108.19897727468"><ele>1754.0</ele><time>2026-03-29T16:27:20Z</time></trkpt><trkpt lat="36.83947628244671" lon="-108.1991134235853"><ele>1754.0</ele><time>2026-03-29T16:27:21Z</time></trkpt><trkpt lat="36.83942414572222" lon="-108.19925080750541"><ele>1754.0</ele><time>2026-03-29T16:27:22Z</time></trkpt><trkpt lat="36.83936107839203" lon="-108.1993552010253"><ele>1754.0</ele><time>2026-03-29T16:27:23Z</time></trkpt><trkpt lat="36.839297116310725" lon="-108.19944250212576"><ele>1753.0</ele><time>2026-03-29T16:27:24Z</time></trkpt><trkpt lat="36.83926226462647" lon="-108.19953936171243"><ele>1752.0</ele><time>2026-03-29T16:27:25Z</time></trkpt><trkpt lat="36.839239380003974" lon="-108.19964243392218"><ele>1751.0</ele><time>2026-03-29T16:27:26Z</time></trkpt><trkpt lat="36.83921755871607" lon="-108.19975052373293"><ele>1750.0</ele><time>2026-03-29T16:27:27Z</time></trkpt><trkpt lat="36.83920228073631" lon="-108.19986557028041"><ele>1749.0</ele><time>2026-03-29T16:27:28Z</time></trkpt><trkpt lat="36.83918687549794" lon="-108.19999782538308"><ele>1749.0</ele><time>2026-03-29T16:27:29Z</time></trkpt><trkpt lat="36.83916644201485" lon="-108.20012800094115"><ele>1749.0</ele><time>2026-03-29T16:27:30Z</time></trkpt><trkpt lat="36.839119187009985" lon="-108.20024645927435"><ele>1749.0</ele><time>2026-03-29T16:27:31Z</time></trkpt><trkpt lat="36.83909271996427" lon="-108.20035425412297"><ele>1749.0</ele><time>2026-03-29T16:27:32Z</time></trkpt><trkpt lat="36.839085197600646" lon="-108.20047685308425"><ele>1749.0</ele><time>2026-03-29T16:27:33Z</time></trkpt><trkpt lat="36.83907364816535" lon="-108.20062051547781"><ele>1748.6</ele><time>2026-03-29T16:27:34Z</time></trkpt><trkpt lat="36.8390546200031" lon="-108.20076897676074"><ele>1748.2</ele><time>2026-03-29T16:27:35Z</time></trkpt><trkpt lat="36.83904464973449" lon="-108.20088331316687"><ele>1747.7999999999997</ele><time>2026-03-29T16:27:36Z</time></trkpt><trkpt lat="36.83899976072812" lon="-108.20095350650375"><ele>1747.3999999999999</ele><time>2026-03-29T16:27:37Z</time></trkpt><trkpt lat="36.83893628840278" lon="-108.20103059263734"><ele>1747.0</ele><time>2026-03-29T16:27:38Z</time></trkpt><trkpt lat="36.83888830201521" lon="-108.20113496151606"><ele>1747.0</ele><time>2026-03-29T16:27:39Z</time></trkpt><trkpt lat="36.83884634035818" lon="-108.20124129533039"><ele>1746.9999999999998</ele><time>2026-03-29T16:27:40Z</time></trkpt><trkpt lat="36.83887793612142" lon="-108.20132324299519"><ele>1746.9999999999998</ele><time>2026-03-29T16:27:41Z</time></trkpt><trkpt lat="36.83898374660201" lon="-108.20140639331453"><ele>1747.0</ele><time>2026-03-29T16:27:42Z</time></trkpt><trkpt lat="36.83907107216161" lon="-108.20149123809065"><ele>1747.0</ele><time>2026-03-29T16:27:43Z</time></trkpt><trkpt lat="36.83915359963203" lon="-108.20156634922671"><ele>1746.8</ele><time>2026-03-29T16:27:44Z</time></trkpt><trkpt lat="36.83924418724233" lon="-108.2016498566146"><ele>1746.6</ele><time>2026-03-29T16:27:45Z</time></trkpt><trkpt lat="36.83929904581238" lon="-108.20175409280998"><ele>1746.3999999999999</ele><time>2026-03-29T16:27:46Z</time></trkpt><trkpt lat="36.83935572658177" lon="-108.20186300267531"><ele>1746.1999999999998</ele><time>2026-03-29T16:27:47Z</time></trkpt><trkpt lat="36.83944084262311" lon="-108.20196006932595"><ele>1746.0</ele><time>2026-03-29T16:27:48Z</time></trkpt><trkpt lat="36.83952612807272" lon="-108.2020627871358"><ele>1745.8</ele><time>2026-03-29T16:27:49Z</time></trkpt><trkpt lat="36.83961688715147" lon="-108.20216152879654"><ele>1745.6</ele><time>2026-03-29T16:27:50Z</time></trkpt><trkpt lat="36.839689334597146" lon="-108.20225395770936"><ele>1745.4</ele><time>2026-03-29T16:27:51Z</time></trkpt><trkpt lat="36.839726441128036" lon="-108.20232321415527"><ele>1745.2</ele><time>2026-03-29T16:27:52Z</time></trkpt><trkpt lat="36.83968826296841" lon="-108.20245716835349"><ele>1745.0</ele><time>2026-03-29T16:27:54Z</time></trkpt><trkpt lat="36.839639364056886" lon="-108.20256135790216"><ele>1744.6</ele><time>2026-03-29T16:27:55Z</time></trkpt><trkpt lat="36.83964399766089" lon="-108.20265636362419"><ele>1744.2</ele><time>2026-03-29T16:27:56Z</time></trkpt><trkpt lat="36.839699494678044" lon="-108.20275677222006"><ele>1743.8000000000002</ele><time>2026-03-29T16:27:57Z</time></trkpt><trkpt lat="36.83973135907433" lon="-108.20287437743605"><ele>1743.4</ele><time>2026-03-29T16:27:58Z</time></trkpt><trkpt lat="36.83970255076172" lon="-108.20301991917697"><ele>1743.0</ele><time>2026-03-29T16:27:59Z</time></trkpt><trkpt lat="36.83978260641753" lon="-108.2031301612112"><ele>1742.2</ele><time>2026-03-29T16:28:01Z</time></trkpt><trkpt lat="36.83986481793535" lon="-108.20317861578073"><ele>1741.4</ele><time>2026-03-29T16:28:02Z</time></trkpt><trkpt lat="36.83992324821997" lon="-108.2032748427687"><ele>1740.6000000000001</ele><time>2026-03-29T16:28:03Z</time></trkpt><trkpt lat="36.840000013185644" lon="-108.20335047185266"><ele>1739.8000000000002</ele><time>2026-03-29T16:28:04Z</time></trkpt><trkpt lat="36.84009072209487" lon="-108.20338361950569"><ele>1739.0</ele><time>2026-03-29T16:28:05Z</time></trkpt><trkpt lat="36.8401728464026" lon="-108.2034523650432"><ele>1738.9999999999998</ele><time>2026-03-29T16:28:06Z</time></trkpt><trkpt lat="36.840260027893876" lon="-108.20350138636769"><ele>1739.0</ele><time>2026-03-29T16:28:07Z</time></trkpt><trkpt lat="36.84032640390433" lon="-108.20357628399276"><ele>1739.0</ele><time>2026-03-29T16:28:08Z</time></trkpt><trkpt lat="36.84037547788736" lon="-108.20365327278549"><ele>1739.0</ele><time>2026-03-29T16:28:09Z</time></trkpt><trkpt lat="36.8404507639516" lon="-108.20368199654176"><ele>1738.9999999999998</ele><time>2026-03-29T16:28:10Z</time></trkpt><trkpt lat="36.840516648852436" lon="-108.20374753936649"><ele>1739.0</ele><time>2026-03-29T16:28:11Z</time></trkpt><trkpt lat="36.84056476161342" lon="-108.20380078887251"><ele>1738.9999999999998</ele><time>2026-03-29T16:28:12Z</time></trkpt><trkpt lat="36.84063076588337" lon="-108.20381074503891"><ele>1739.0</ele><time>2026-03-29T16:28:13Z</time></trkpt><trkpt lat="36.840729899011095" lon="-108.20372965528279"><ele>1739.0</ele><time>2026-03-29T16:28:15Z</time></trkpt><trkpt lat="36.84082589218642" lon="-108.20373822592244"><ele>1739.0</ele><time>2026-03-29T16:28:16Z</time></trkpt><trkpt lat="36.84088494560993" lon="-108.20378904758597"><ele>1738.9999999999998</ele><time>2026-03-29T16:28:17Z</time></trkpt><trkpt lat="36.84090287708974" lon="-108.20387944363034"><ele>1739.0</ele><time>2026-03-29T16:28:18Z</time></trkpt><trkpt lat="36.8409520794779" lon="-108.20400670796968"><ele>1738.0</ele><time>2026-03-29T16:28:19Z</time></trkpt><trkpt lat="36.84095821015309" lon="-108.20411438174713"><ele>1737.0</ele><time>2026-03-29T16:28:20Z</time></trkpt><trkpt lat="36.84096103684351" lon="-108.20424123415717"><ele>1736.0</ele><time>2026-03-29T16:28:21Z</time></trkpt><trkpt lat="36.840983470324595" lon="-108.20436413758067"><ele>1735.0</ele><time>2026-03-29T16:28:22Z</time></trkpt><trkpt lat="36.84101125169132" lon="-108.20445443711334"><ele>1734.0</ele><time>2026-03-29T16:28:23Z</time></trkpt><trkpt lat="36.84097224600952" lon="-108.20455752305575"><ele>1734.0</ele><time>2026-03-29T16:28:24Z</time></trkpt><trkpt lat="36.84095427302437" lon="-108.20465820057332"><ele>1734.0</ele><time>2026-03-29T16:28:25Z</time></trkpt><trkpt lat="36.84096512945807" lon="-108.2047687130454"><ele>1734.0</ele><time>2026-03-29T16:28:26Z</time></trkpt><trkpt lat="36.84101205548944" lon="-108.2048604534756"><ele>1734.0</ele><time>2026-03-29T16:28:27Z</time></trkpt><trkpt lat="36.84102147438916" lon="-108.20496159971619"><ele>1734.0</ele><time>2026-03-29T16:28:28Z</time></trkpt><trkpt lat="36.84098668906675" lon="-108.2050580094238"><ele>1734.0</ele><time>2026-03-29T16:28:29Z</time></trkpt><trkpt lat="36.8409674864128" lon="-108.20516139117662"><ele>1732.25</ele><time>2026-03-29T16:28:30Z</time></trkpt><trkpt lat="36.84095570791584" lon="-108.20530135858155"><ele>1730.5</ele><time>2026-03-29T16:28:31Z</time></trkpt><trkpt lat="36.840938142909486" lon="-108.20547250142677"><ele>1728.75</ele><time>2026-03-29T16:28:32Z</time></trkpt><trkpt lat="36.84088114701546" lon="-108.20562344356134"><ele>1727.0</ele><time>2026-03-29T16:28:33Z</time></trkpt><trkpt lat="36.84086085814384" lon="-108.2057504201665"><ele>1726.1999999999998</ele><time>2026-03-29T16:28:34Z</time></trkpt><trkpt lat="36.84085971681415" lon="-108.20587094666215"><ele>1725.3999999999999</ele><time>2026-03-29T16:28:35Z</time></trkpt><trkpt lat="36.84086356943907" lon="-108.2060041405699"><ele>1724.6000000000001</ele><time>2026-03-29T16:28:36Z</time></trkpt><trkpt lat="36.840853687662076" lon="-108.20613939362467"><ele>1723.8000000000002</ele><time>2026-03-29T16:28:37Z</time></trkpt><trkpt lat="36.84083602581233" lon="-108.20625034060568"><ele>1723.0</ele><time>2026-03-29T16:28:38Z</time></trkpt><trkpt lat="36.84078002299762" lon="-108.20633153219418"><ele>1723.0000000000002</ele><time>2026-03-29T16:28:39Z</time></trkpt><trkpt lat="36.84070185107765" lon="-108.20639049784734"><ele>1723.0</ele><time>2026-03-29T16:28:40Z</time></trkpt><trkpt lat="36.840637802139206" lon="-108.20640647548262"><ele>1723.0</ele><time>2026-03-29T16:28:41Z</time></trkpt><trkpt lat="36.84059377605739" lon="-108.20646813974085"><ele>1723.0</ele><time>2026-03-29T16:28:42Z</time></trkpt><trkpt lat="36.84060326346066" lon="-108.2065950022844"><ele>1723.0000000000002</ele><time>2026-03-29T16:28:44Z</time></trkpt><trkpt lat="36.840656995016715" lon="-108.2066784780981"><ele>1723.0</ele><time>2026-03-29T16:28:45Z</time></trkpt><trkpt lat="36.84070482418677" lon="-108.20674895599767"><ele>1722.2</ele><time>2026-03-29T16:28:46Z</time></trkpt><trkpt lat="36.84065422977895" lon="-108.20683790145506"><ele>1721.4</ele><time>2026-03-29T16:28:47Z</time></trkpt><trkpt lat="36.84059916067133" lon="-108.20693187441714"><ele>1720.6000000000001</ele><time>2026-03-29T16:28:48Z</time></trkpt><trkpt lat="36.84052159778038" lon="-108.20702274393608"><ele>1719.8000000000002</ele><time>2026-03-29T16:28:49Z</time></trkpt><trkpt lat="36.84046069113955" lon="-108.20710319449157"><ele>1719.0</ele><time>2026-03-29T16:28:50Z</time></trkpt><trkpt lat="36.840387597640145" lon="-108.20717336910836"><ele>1719.0</ele><time>2026-03-29T16:28:51Z</time></trkpt><trkpt lat="36.84035483216963" lon="-108.20726368550515"><ele>1719.0</ele><time>2026-03-29T16:28:52Z</time></trkpt><trkpt lat="36.84031360497255" lon="-108.20735131991216"><ele>1719.0</ele><time>2026-03-29T16:28:53Z</time></trkpt><trkpt lat="36.84021829222186" lon="-108.20743671895158"><ele>1719.0</ele><time>2026-03-29T16:28:55Z</time></trkpt><trkpt lat="36.84014497618871" lon="-108.20750582191795"><ele>1719.0</ele><time>2026-03-29T16:28:56Z</time></trkpt><trkpt lat="36.840095655587476" lon="-108.20757409489501"><ele>1719.0</ele><time>2026-03-29T16:28:57Z</time></trkpt><trkpt lat="36.8401543167446" lon="-108.20779114418335"><ele>1718.3333333333333</ele><time>2026-03-29T16:28:59Z</time></trkpt><trkpt lat="36.84019079770219" lon="-108.2078908867949"><ele>1717.6666666666665</ele><time>2026-03-29T16:29:00Z</time></trkpt><trkpt lat="36.840227036624974" lon="-108.20797366080389"><ele>1717.0</ele><time>2026-03-29T16:29:01Z</time></trkpt><trkpt lat="36.840260123229456" lon="-108.20805718322269"><ele>1716.3333333333333</ele><time>2026-03-29T16:29:02Z</time></trkpt><trkpt lat="36.840303445248175" lon="-108.20814750858939"><ele>1715.6666666666665</ele><time>2026-03-29T16:29:03Z</time></trkpt><trkpt lat="36.84037647242833" lon="-108.20820353956563"><ele>1715.0</ele><time>2026-03-29T16:29:04Z</time></trkpt><trkpt lat="36.840508385882096" lon="-108.20825486191875"><ele>1715.0</ele><time>2026-03-29T16:29:05Z</time></trkpt><trkpt lat="36.840608744972755" lon="-108.20826785639103"><ele>1715.0</ele><time>2026-03-29T16:29:06Z</time></trkpt><trkpt lat="36.840736824843674" lon="-108.20825246155297"><ele>1715.0</ele><time>2026-03-29T16:29:07Z</time></trkpt><trkpt lat="36.84087866004711" lon="-108.2081859004429"><ele>1715.0</ele><time>2026-03-29T16:29:08Z</time></trkpt><trkpt lat="36.841019044414054" lon="-108.2081046049396"><ele>1716.0</ele><time>2026-03-29T16:29:09Z</time></trkpt><trkpt lat="36.841167279082036" lon="-108.20799973853751"><ele>1717.0</ele><time>2026-03-29T16:29:10Z</time></trkpt><trkpt lat="36.84130654825674" lon="-108.20786009753662"><ele>1718.0</ele><time>2026-03-29T16:29:11Z</time></trkpt><trkpt lat="36.84142272631372" lon="-108.20771460652774"><ele>1718.0</ele><time>2026-03-29T16:29:12Z</time></trkpt><trkpt lat="36.84155807741583" lon="-108.2075593238036"><ele>1718.0</ele><time>2026-03-29T16:29:13Z</time></trkpt><trkpt lat="36.8417123552683" lon="-108.20739813736763"><ele>1718.0</ele><time>2026-03-29T16:29:14Z</time></trkpt><trkpt lat="36.84187140053117" lon="-108.20723526870731"><ele>1718.3333333333333</ele><time>2026-03-29T16:29:15Z</time></trkpt><trkpt lat="36.84201853675111" lon="-108.20708922478042"><ele>1718.6666666666665</ele><time>2026-03-29T16:29:16Z</time></trkpt><trkpt lat="36.84215757330891" lon="-108.20693124922666"><ele>1719.0</ele><time>2026-03-29T16:29:17Z</time></trkpt><trkpt lat="36.842283447523855" lon="-108.20675677017266"><ele>1719.0</ele><time>2026-03-29T16:29:18Z</time></trkpt><trkpt lat="36.84236834965269" lon="-108.20660852467441"><ele>1719.0</ele><time>2026-03-29T16:29:19Z</time></trkpt><trkpt lat="36.84239174082496" lon="-108.20645306863479"><ele>1719.0</ele><time>2026-03-29T16:29:20Z</time></trkpt><trkpt lat="36.84239365017712" lon="-108.20625821503374"><ele>1719.0</ele><time>2026-03-29T16:29:21Z</time></trkpt><trkpt lat="36.84237754941864" lon="-108.20604790632129"><ele>1719.6666666666665</ele><time>2026-03-29T16:29:22Z</time></trkpt><trkpt lat="36.84235093223118" lon="-108.2058219474843"><ele>1720.3333333333333</ele><time>2026-03-29T16:29:23Z</time></trkpt><trkpt lat="36.84234819425436" lon="-108.20559374735109"><ele>1721.0</ele><time>2026-03-29T16:29:24Z</time></trkpt><trkpt lat="36.84235922161751" lon="-108.20534664024964"><ele>1721.6666666666665</ele><time>2026-03-29T16:29:25Z</time></trkpt><trkpt lat="36.84238893357059" lon="-108.20511175184362"><ele>1722.3333333333335</ele><time>2026-03-29T16:29:26Z</time></trkpt><trkpt lat="36.84243908957811" lon="-108.20490776408762"><ele>1723.0</ele><time>2026-03-29T16:29:27Z</time></trkpt><trkpt lat="36.8425177818338" lon="-108.20469901657015"><ele>1723.3333333333335</ele><time>2026-03-29T16:29:28Z</time></trkpt><trkpt lat="36.842613582087104" lon="-108.20449553338774"><ele>1723.6666666666665</ele><time>2026-03-29T16:29:29Z</time></trkpt><trkpt lat="36.84273120372996" lon="-108.204291296804"><ele>1724.0</ele><time>2026-03-29T16:29:30Z</time></trkpt><trkpt lat="36.84285783762783" lon="-108.2040775677163"><ele>1725.6666666666665</ele><time>2026-03-29T16:29:31Z</time></trkpt><trkpt lat="36.84297286672542" lon="-108.20386227038425"><ele>1727.3333333333335</ele><time>2026-03-29T16:29:32Z</time></trkpt><trkpt lat="36.84307508864273" lon="-108.20364386595033"><ele>1729.0</ele><time>2026-03-29T16:29:33Z</time></trkpt><trkpt lat="36.84315367324413" lon="-108.20344749958981"><ele>1729.0</ele><time>2026-03-29T16:29:34Z</time></trkpt><trkpt lat="36.843204676435846" lon="-108.20326390298011"><ele>1729.0</ele><time>2026-03-29T16:29:35Z</time></trkpt><trkpt lat="36.84322232579596" lon="-108.2030570875096"><ele>1729.0</ele><time>2026-03-29T16:29:36Z</time></trkpt><trkpt lat="36.843218285474165" lon="-108.20283010191956"><ele>1730.0</ele><time>2026-03-29T16:29:37Z</time></trkpt><trkpt lat="36.84321733549553" lon="-108.20258815153252"><ele>1731.0</ele><time>2026-03-29T16:29:38Z</time></trkpt><trkpt lat="36.84321118657086" lon="-108.20235145350675"><ele>1732.0</ele><time>2026-03-29T16:29:39Z</time></trkpt><trkpt lat="36.84320320169811" lon="-108.20209383491063"><ele>1732.6666666666667</ele><time>2026-03-29T16:29:40Z</time></trkpt><trkpt lat="36.84319403155514" lon="-108.20183035291896"><ele>1733.3333333333335</ele><time>2026-03-29T16:29:41Z</time></trkpt><trkpt lat="36.84318052471184" lon="-108.20156205301224"><ele>1734.0</ele><time>2026-03-29T16:29:42Z</time></trkpt><trkpt lat="36.843175262131105" lon="-108.20128832377348"><ele>1734.3333333333335</ele><time>2026-03-29T16:29:43Z</time></trkpt><trkpt lat="36.843177293767695" lon="-108.20101103353684"><ele>1734.6666666666667</ele><time>2026-03-29T16:29:44Z</time></trkpt><trkpt lat="36.84318175932706" lon="-108.20073494842772"><ele>1735.0</ele><time>2026-03-29T16:29:45Z</time></trkpt><trkpt lat="36.84316679706268" lon="-108.20046807161135"><ele>1735.0</ele><time>2026-03-29T16:29:46Z</time></trkpt><trkpt lat="36.84314139727301" lon="-108.20023816335578"><ele>1735.0</ele><time>2026-03-29T16:29:47Z</time></trkpt><trkpt lat="36.843100864943565" lon="-108.20001073584305"><ele>1735.0</ele><time>2026-03-29T16:29:48Z</time></trkpt><trkpt lat="36.84307248925997" lon="-108.1997596815257"><ele>1735.0</ele><time>2026-03-29T16:29:49Z</time></trkpt><trkpt lat="36.84305244900848" lon="-108.19950786620181"><ele>1735.0</ele><time>2026-03-29T16:29:50Z</time></trkpt><trkpt lat="36.843057818126134" lon="-108.19929728932424"><ele>1735.0</ele><time>2026-03-29T16:29:51Z</time></trkpt><trkpt lat="36.84308203967465" lon="-108.19910199459089"><ele>1735.6666666666667</ele><time>2026-03-29T16:29:52Z</time></trkpt><trkpt lat="36.843139179348675" lon="-108.19892316065378"><ele>1736.3333333333335</ele><time>2026-03-29T16:29:53Z</time></trkpt><trkpt lat="36.84322007038907" lon="-108.19876586114506"><ele>1737.0</ele><time>2026-03-29T16:29:54Z</time></trkpt><trkpt lat="36.84332089154579" lon="-108.19863360643117"><ele>1737.0</ele><time>2026-03-29T16:29:55Z</time></trkpt><trkpt lat="36.843435221794685" lon="-108.19848740847276"><ele>1737.0</ele><time>2026-03-29T16:29:56Z</time></trkpt><trkpt lat="36.84351987150188" lon="-108.19830781837985"><ele>1737.0</ele><time>2026-03-29T16:29:57Z</time></trkpt><trkpt lat="36.84359561674334" lon="-108.19812110119757"><ele>1737.6666666666665</ele><time>2026-03-29T16:29:58Z</time></trkpt><trkpt lat="36.84365836228218" lon="-108.1979229471865"><ele>1738.3333333333333</ele><time>2026-03-29T16:29:59Z</time></trkpt><trkpt lat="36.843701263339874" lon="-108.19769805445932"><ele>1739.0</ele><time>2026-03-29T16:30:00Z</time></trkpt><trkpt lat="36.84374161716513" lon="-108.1974665757243"><ele>1740.3333333333333</ele><time>2026-03-29T16:30:01Z</time></trkpt><trkpt lat="36.84380160692516" lon="-108.1972333187608"><ele>1741.6666666666665</ele><time>2026-03-29T16:30:02Z</time></trkpt><trkpt lat="36.84388171060787" lon="-108.19699746458896"><ele>1743.0</ele><time>2026-03-29T16:30:03Z</time></trkpt><trkpt lat="36.84396841029301" lon="-108.19674708233698"><ele>1743.0</ele><time>2026-03-29T16:30:04Z</time></trkpt><trkpt lat="36.8440496951475" lon="-108.19649165854776"><ele>1743.0</ele><time>2026-03-29T16:30:05Z</time></trkpt><trkpt lat="36.84412659064708" lon="-108.19623443440423"><ele>1743.0</ele><time>2026-03-29T16:30:06Z</time></trkpt><trkpt lat="36.844194265660164" lon="-108.1959717084288"><ele>1743.0</ele><time>2026-03-29T16:30:07Z</time></trkpt><trkpt lat="36.84424249184984" lon="-108.1957247674163"><ele>1743.0</ele><time>2026-03-29T16:30:08Z</time></trkpt><trkpt lat="36.84426534638758" lon="-108.1954898664206"><ele>1743.0</ele><time>2026-03-29T16:30:09Z</time></trkpt><trkpt lat="36.84426982520071" lon="-108.1952783596678"><ele>1743.6666666666665</ele><time>2026-03-29T16:30:10Z</time></trkpt><trkpt lat="36.844266671286405" lon="-108.19504977720628"><ele>1744.3333333333333</ele><time>2026-03-29T16:30:11Z</time></trkpt><trkpt lat="36.84426471775745" lon="-108.19480633602251"><ele>1745.0</ele><time>2026-03-29T16:30:12Z</time></trkpt><trkpt lat="36.84428393255366" lon="-108.19457907000177"><ele>1746.3333333333333</ele><time>2026-03-29T16:30:13Z</time></trkpt><trkpt lat="36.8443350996743" lon="-108.19434760593711"><ele>1747.6666666666665</ele><time>2026-03-29T16:30:14Z</time></trkpt><trkpt lat="36.84439128643907" lon="-108.19413169308572"><ele>1749.0</ele><time>2026-03-29T16:30:15Z</time></trkpt><trkpt lat="36.84446967157436" lon="-108.193944639839"><ele>1749.3333333333335</ele><time>2026-03-29T16:30:16Z</time></trkpt><trkpt lat="36.84454937929703" lon="-108.19375706470348"><ele>1749.6666666666667</ele><time>2026-03-29T16:30:17Z</time></trkpt><trkpt lat="36.844614625328234" lon="-108.19357115738447"><ele>1750.0</ele><time>2026-03-29T16:30:18Z</time></trkpt><trkpt lat="36.84465418882276" lon="-108.19338638325199"><ele>1750.0</ele><time>2026-03-29T16:30:19Z</time></trkpt><trkpt lat="36.84468352169112" lon="-108.1931877708852"><ele>1750.0</ele><time>2026-03-29T16:30:20Z</time></trkpt><trkpt lat="36.84470691186214" lon="-108.19297474748376"><ele>1750.0</ele><time>2026-03-29T16:30:21Z</time></trkpt><trkpt lat="36.8447258231357" lon="-108.19275060239521"><ele>1750.6666666666667</ele><time>2026-03-29T16:30:22Z</time></trkpt><trkpt lat="36.8447529814159" lon="-108.19251498006176"><ele>1751.3333333333335</ele><time>2026-03-29T16:30:23Z</time></trkpt><trkpt lat="36.84480805596031" lon="-108.19228150665677"><ele>1752.0</ele><time>2026-03-29T16:30:24Z</time></trkpt><trkpt lat="36.844884750127235" lon="-108.19204712329935"><ele>1753.3333333333335</ele><time>2026-03-29T16:30:25Z</time></trkpt><trkpt lat="36.84496079369735" lon="-108.19181109817943"><ele>1754.6666666666667</ele><time>2026-03-29T16:30:26Z</time></trkpt><trkpt lat="36.84502397946669" lon="-108.19157811874852"><ele>1756.0</ele><time>2026-03-29T16:30:27Z</time></trkpt><trkpt lat="36.8450575942289" lon="-108.19132120077833"><ele>1757.0</ele><time>2026-03-29T16:30:28Z</time></trkpt><trkpt lat="36.84508063723294" lon="-108.19105146568603"><ele>1758.0</ele><time>2026-03-29T16:30:29Z</time></trkpt><trkpt lat="36.84510775100291" lon="-108.19079580079509"><ele>1759.0</ele><time>2026-03-29T16:30:30Z</time></trkpt><trkpt lat="36.84515604987774" lon="-108.19057143547182"><ele>1760.0</ele><time>2026-03-29T16:30:31Z</time></trkpt><trkpt lat="36.84522768853615" lon="-108.19038084860266"><ele>1761.0</ele><time>2026-03-29T16:30:32Z</time></trkpt><trkpt lat="36.8453392515104" lon="-108.19018767252767"><ele>1762.0</ele><time>2026-03-29T16:30:33Z</time></trkpt><trkpt lat="36.84547848906446" lon="-108.19001772493795"><ele>1762.3333333333335</ele><time>2026-03-29T16:30:34Z</time></trkpt><trkpt lat="36.84563181263586" lon="-108.189836595979"><ele>1762.6666666666665</ele><time>2026-03-29T16:30:35Z</time></trkpt><trkpt lat="36.84577492163524" lon="-108.18965322662235"><ele>1763.0</ele><time>2026-03-29T16:30:36Z</time></trkpt><trkpt lat="36.845919197975576" lon="-108.18945510182242"><ele>1763.6666666666665</ele><time>2026-03-29T16:30:37Z</time></trkpt><trkpt lat="36.84607434356059" lon="-108.18929133388862"><ele>1764.3333333333335</ele><time>2026-03-29T16:30:38Z</time></trkpt><trkpt lat="36.84623021155469" lon="-108.18915750765203"><ele>1765.0</ele><time>2026-03-29T16:30:39Z</time></trkpt><trkpt lat="36.84639623325929" lon="-108.18905360924015"><ele>1765.3333333333335</ele><time>2026-03-29T16:30:40Z</time></trkpt><trkpt lat="36.84659322308444" lon="-108.1889865265125"><ele>1765.6666666666665</ele><time>2026-03-29T16:30:41Z</time></trkpt><trkpt lat="36.84678171882116" lon="-108.18888755077185"><ele>1766.0</ele><time>2026-03-29T16:30:42Z</time></trkpt><trkpt lat="36.8469629076191" lon="-108.18876456506564"><ele>1766.3333333333333</ele><time>2026-03-29T16:30:43Z</time></trkpt><trkpt lat="36.84713995517706" lon="-108.1886146108257"><ele>1766.6666666666665</ele><time>2026-03-29T16:30:44Z</time></trkpt><trkpt lat="36.84732977257875" lon="-108.18846635149143"><ele>1767.0</ele><time>2026-03-29T16:30:45Z</time></trkpt><trkpt lat="36.84752037618791" lon="-108.18831437356333"><ele>1769.5</ele><time>2026-03-29T16:30:46Z</time></trkpt><trkpt lat="36.84769821414726" lon="-108.18814769713615"><ele>1772.0</ele><time>2026-03-29T16:30:47Z</time></trkpt><trkpt lat="36.84788088001338" lon="-108.18796590430249"><ele>1772.0</ele><time>2026-03-29T16:30:48Z</time></trkpt><trkpt lat="36.84804835869696" lon="-108.18778242123747"><ele>1772.0</ele><time>2026-03-29T16:30:49Z</time></trkpt><trkpt lat="36.84820799529542" lon="-108.18758133641624"><ele>1772.0</ele><time>2026-03-29T16:30:50Z</time></trkpt><trkpt lat="36.84835959743189" lon="-108.18737181003122"><ele>1773.6666666666665</ele><time>2026-03-29T16:30:51Z</time></trkpt><trkpt lat="36.84850258599402" lon="-108.18715445466859"><ele>1775.3333333333335</ele><time>2026-03-29T16:30:52Z</time></trkpt><trkpt lat="36.84862577704259" lon="-108.18693642418255"><ele>1777.0</ele><time>2026-03-29T16:30:53Z</time></trkpt><trkpt lat="36.84870707910496" lon="-108.18670964796793"><ele>1777.0</ele><time>2026-03-29T16:30:54Z</time></trkpt><trkpt lat="36.8487697411991" lon="-108.18647163669016"><ele>1777.0</ele><time>2026-03-29T16:30:55Z</time></trkpt><trkpt lat="36.84882105864688" lon="-108.18621575956993"><ele>1777.0</ele><time>2026-03-29T16:30:56Z</time></trkpt><trkpt lat="36.84887578651551" lon="-108.18595752463222"><ele>1777.0</ele><time>2026-03-29T16:30:57Z</time></trkpt><trkpt lat="36.84893958467697" lon="-108.1856903952902"><ele>1777.0</ele><time>2026-03-29T16:30:58Z</time></trkpt><trkpt lat="36.848994062931936" lon="-108.1854324704672"><ele>1777.0</ele><time>2026-03-29T16:30:59Z</time></trkpt><trkpt lat="36.84905007477336" lon="-108.18521797449009"><ele>1777.0</ele><time>2026-03-29T16:31:00Z</time></trkpt><trkpt lat="36.84914037660474" lon="-108.18503667591628"><ele>1777.0</ele><time>2026-03-29T16:31:01Z</time></trkpt><trkpt lat="36.8492487058851" lon="-108.1848792233485"><ele>1777.0</ele><time>2026-03-29T16:31:02Z</time></trkpt><trkpt lat="36.84939159314433" lon="-108.18473616377959"><ele>1777.0</ele><time>2026-03-29T16:31:03Z</time></trkpt><trkpt lat="36.849542761875405" lon="-108.18457259345993"><ele>1777.0</ele><time>2026-03-29T16:31:04Z</time></trkpt><trkpt lat="36.8496947655138" lon="-108.18440266756889"><ele>1777.0</ele><time>2026-03-29T16:31:05Z</time></trkpt><trkpt lat="36.84983757300499" lon="-108.18421153989239"><ele>1778.0</ele><time>2026-03-29T16:31:06Z</time></trkpt><trkpt lat="36.84997843137077" lon="-108.18399974536666"><ele>1779.0</ele><time>2026-03-29T16:31:07Z</time></trkpt><trkpt lat="36.85012125089783" lon="-108.18379377749916"><ele>1780.0</ele><time>2026-03-29T16:31:08Z</time></trkpt><trkpt lat="36.85029961646844" lon="-108.18359606581544"><ele>1780.3333333333335</ele><time>2026-03-29T16:31:09Z</time></trkpt><trkpt lat="36.85046804591184" lon="-108.18340213908004"><ele>1780.6666666666665</ele><time>2026-03-29T16:31:10Z</time></trkpt><trkpt lat="36.850597998644744" lon="-108.18323173303412"><ele>1781.0</ele><time>2026-03-29T16:31:11Z</time></trkpt><trkpt lat="36.85070529953042" lon="-108.18306637656521"><ele>1782.0</ele><time>2026-03-29T16:31:12Z</time></trkpt><trkpt lat="36.8508128114466" lon="-108.18287150601097"><ele>1783.0</ele><time>2026-03-29T16:31:13Z</time></trkpt><trkpt lat="36.850901428631666" lon="-108.18266631554175"><ele>1784.0</ele><time>2026-03-29T16:31:14Z</time></trkpt><trkpt lat="36.85100292378632" lon="-108.18250136528158"><ele>1784.6666666666665</ele><time>2026-03-29T16:31:15Z</time></trkpt><trkpt lat="36.851101636830535" lon="-108.18236747682197"><ele>1785.3333333333335</ele><time>2026-03-29T16:31:16Z</time></trkpt><trkpt lat="36.85117581311851" lon="-108.18221022988601"><ele>1786.0</ele><time>2026-03-29T16:31:17Z</time></trkpt><trkpt lat="36.85124890752984" lon="-108.18202299263952"><ele>1786.0</ele><time>2026-03-29T16:31:18Z</time></trkpt><trkpt lat="36.851322427465696" lon="-108.18179778271727"><ele>1786.0</ele><time>2026-03-29T16:31:19Z</time></trkpt><trkpt lat="36.85135820024457" lon="-108.18159882107084"><ele>1786.0</ele><time>2026-03-29T16:31:20Z</time></trkpt><trkpt lat="36.85134045313527" lon="-108.1814240830354"><ele>1787.0</ele><time>2026-03-29T16:31:21Z</time></trkpt><trkpt lat="36.85128846590957" lon="-108.18126808324382"><ele>1788.0</ele><time>2026-03-29T16:31:22Z</time></trkpt><trkpt lat="36.85121229914508" lon="-108.18109584684507"><ele>1789.0</ele><time>2026-03-29T16:31:23Z</time></trkpt><trkpt lat="36.85117811803849" lon="-108.18089756413751"><ele>1789.0</ele><time>2026-03-29T16:31:24Z</time></trkpt><trkpt lat="36.85117326485713" lon="-108.18067263752327"><ele>1789.0</ele><time>2026-03-29T16:31:25Z</time></trkpt><trkpt lat="36.85117246464239" lon="-108.18043499778533"><ele>1789.0</ele><time>2026-03-29T16:31:26Z</time></trkpt><trkpt lat="36.851153116318" lon="-108.18019239810839"><ele>1789.0</ele><time>2026-03-29T16:31:27Z</time></trkpt><trkpt lat="36.85113006067561" lon="-108.17995703857515"><ele>1789.0</ele><time>2026-03-29T16:31:28Z</time></trkpt><trkpt lat="36.85112239024131" lon="-108.17976397298492"><ele>1789.0</ele><time>2026-03-29T16:31:29Z</time></trkpt><trkpt lat="36.85111892357521" lon="-108.17962625906716"><ele>1789.4</ele><time>2026-03-29T16:31:30Z</time></trkpt><trkpt lat="36.85113840550211" lon="-108.17951441900328"><ele>1789.8000000000002</ele><time>2026-03-29T16:31:31Z</time></trkpt><trkpt lat="36.85117224053185" lon="-108.17941734621144"><ele>1790.1999999999998</ele><time>2026-03-29T16:31:32Z</time></trkpt><trkpt lat="36.8512416548784" lon="-108.17932737876895"><ele>1790.6</ele><time>2026-03-29T16:31:33Z</time></trkpt><trkpt lat="36.851348769193535" lon="-108.17927299660455"><ele>1791.0</ele><time>2026-03-29T16:31:34Z</time></trkpt><trkpt lat="36.85146993314713" lon="-108.17925761134258"><ele>1791.0</ele><time>2026-03-29T16:31:35Z</time></trkpt><trkpt lat="36.85160700733766" lon="-108.17924527350301"><ele>1791.0</ele><time>2026-03-29T16:31:36Z</time></trkpt><trkpt lat="36.85174825179841" lon="-108.17923563547578"><ele>1791.0</ele><time>2026-03-29T16:31:37Z</time></trkpt><trkpt lat="36.85187124153014" lon="-108.17919479275938"><ele>1791.0</ele><time>2026-03-29T16:31:38Z</time></trkpt><trkpt lat="36.85195827366364" lon="-108.17915565766026"><ele>1791.75</ele><time>2026-03-29T16:31:39Z</time></trkpt><trkpt lat="36.85200796614699" lon="-108.17906216321865"><ele>1792.5</ele><time>2026-03-29T16:31:40Z</time></trkpt><trkpt lat="36.852094132622106" lon="-108.17892958562638"><ele>1793.25</ele><time>2026-03-29T16:31:41Z</time></trkpt><trkpt lat="36.8522040178666" lon="-108.17878380536908"><ele>1794.0</ele><time>2026-03-29T16:31:42Z</time></trkpt><trkpt lat="36.852322121831" lon="-108.17869970736818"><ele>1794.25</ele><time>2026-03-29T16:31:43Z</time></trkpt><trkpt lat="36.852452443972595" lon="-108.17868027199468"><ele>1794.5</ele><time>2026-03-29T16:31:44Z</time></trkpt><trkpt lat="36.85256422972187" lon="-108.17865010107955"><ele>1794.75</ele><time>2026-03-29T16:31:45Z</time></trkpt><trkpt lat="36.85263259018418" lon="-108.1785642768527"><ele>1795.0</ele><time>2026-03-29T16:31:46Z</time></trkpt><trkpt lat="36.85266008046679" lon="-108.17841465043755"><ele>1795.75</ele><time>2026-03-29T16:31:47Z</time></trkpt><trkpt lat="36.85274110817395" lon="-108.17825381662742"><ele>1796.5</ele><time>2026-03-29T16:31:48Z</time></trkpt><trkpt lat="36.852834387364965" lon="-108.17811209341274"><ele>1797.25</ele><time>2026-03-29T16:31:49Z</time></trkpt><trkpt lat="36.85288003215341" lon="-108.17798834852495"><ele>1798.0</ele><time>2026-03-29T16:31:50Z</time></trkpt><trkpt lat="36.852944813624326" lon="-108.17789440588622"><ele>1798.25</ele><time>2026-03-29T16:31:51Z</time></trkpt><trkpt lat="36.85304877595472" lon="-108.17784418544147"><ele>1798.5</ele><time>2026-03-29T16:31:52Z</time></trkpt><trkpt lat="36.85320101314158" lon="-108.1778356613374"><ele>1798.75</ele><time>2026-03-29T16:31:53Z</time></trkpt><trkpt lat="36.85332088531063" lon="-108.1778283714396"><ele>1799.0</ele><time>2026-03-29T16:31:54Z</time></trkpt><trkpt lat="36.85339950999412" lon="-108.17779230145455"><ele>1799.4999999999998</ele><time>2026-03-29T16:31:55Z</time></trkpt><trkpt lat="36.8534688204245" lon="-108.17772328317285"><ele>1800.0</ele><time>2026-03-29T16:31:56Z</time></trkpt><trkpt lat="36.85350568447739" lon="-108.177649118753"><ele>1800.5</ele><time>2026-03-29T16:31:57Z</time></trkpt><trkpt lat="36.853494238428" lon="-108.17756444647895"><ele>1801.0</ele><time>2026-03-29T16:31:58Z</time></trkpt><trkpt lat="36.85349833600005" lon="-108.17747154258784"><ele>1801.4999999999998</ele><time>2026-03-29T16:31:59Z</time></trkpt><trkpt lat="36.853551319001966" lon="-108.1773766796724"><ele>1802.0</ele><time>2026-03-29T16:32:00Z</time></trkpt><trkpt lat="36.85357735316613" lon="-108.17724515748219"><ele>1802.1999999999998</ele><time>2026-03-29T16:32:01Z</time></trkpt><trkpt lat="36.85357296025678" lon="-108.17710212433573"><ele>1802.3999999999999</ele><time>2026-03-29T16:32:02Z</time></trkpt><trkpt lat="36.85352086596667" lon="-108.17699070858042"><ele>1802.6000000000001</ele><time>2026-03-29T16:32:04Z</time></trkpt><trkpt lat="36.85353154650975" lon="-108.17688886577386"><ele>1802.8000000000002</ele><time>2026-03-29T16:32:05Z</time></trkpt><trkpt lat="36.85356243848188" lon="-108.17676412740681"><ele>1803.0</ele><time>2026-03-29T16:32:06Z</time></trkpt><trkpt lat="36.85361395145686" lon="-108.176660987629"><ele>1803.0</ele><time>2026-03-29T16:32:07Z</time></trkpt><trkpt lat="36.85362843839678" lon="-108.17654895404505"><ele>1803.0</ele><time>2026-03-29T16:32:08Z</time></trkpt><trkpt lat="36.85359534826932" lon="-108.17643588379691"><ele>1803.0</ele><time>2026-03-29T16:32:09Z</time></trkpt><trkpt lat="36.85355050435514" lon="-108.17631802883604"><ele>1803.0</ele><time>2026-03-29T16:32:10Z</time></trkpt><trkpt lat="36.853515816582245" lon="-108.17622920853918"><ele>1803.0</ele><time>2026-03-29T16:32:11Z</time></trkpt><trkpt lat="36.85347113890377" lon="-108.17616013402966"><ele>1803.0</ele><time>2026-03-29T16:32:12Z</time></trkpt><trkpt lat="36.85351733563284" lon="-108.17603073161482"><ele>1803.2</ele><time>2026-03-29T16:32:14Z</time></trkpt><trkpt lat="36.85356231180289" lon="-108.17593178760735"><ele>1803.4</ele><time>2026-03-29T16:32:15Z</time></trkpt><trkpt lat="36.853628797743795" lon="-108.175803916869"><ele>1803.6000000000001</ele><time>2026-03-29T16:32:16Z</time></trkpt><trkpt lat="36.853679920367384" lon="-108.17568653787296"><ele>1803.8000000000002</ele><time>2026-03-29T16:32:17Z</time></trkpt><trkpt lat="36.85374632256451" lon="-108.17556532717052"><ele>1804.0</ele><time>2026-03-29T16:32:18Z</time></trkpt><trkpt lat="36.85383509854212" lon="-108.17548007167227"><ele>1804.6</ele><time>2026-03-29T16:32:19Z</time></trkpt><trkpt lat="36.85393215259771" lon="-108.17536800869087"><ele>1805.2</ele><time>2026-03-29T16:32:20Z</time></trkpt><trkpt lat="36.854019852347456" lon="-108.17526528343873"><ele>1805.7999999999997</ele><time>2026-03-29T16:32:21Z</time></trkpt><trkpt lat="36.854096205487444" lon="-108.17518747417547"><ele>1806.3999999999999</ele><time>2026-03-29T16:32:22Z</time></trkpt><trkpt lat="36.85416116575485" lon="-108.17513635239378"><ele>1807.0</ele><time>2026-03-29T16:32:23Z</time></trkpt><trkpt lat="36.85421089295082" lon="-108.1750710054365"><ele>1807.0</ele><time>2026-03-29T16:32:24Z</time></trkpt><trkpt lat="36.85426558903542" lon="-108.17494857477857"><ele>1807.0</ele><time>2026-03-29T16:32:25Z</time></trkpt><trkpt lat="36.854356437102524" lon="-108.17484925099804"><ele>1807.0</ele><time>2026-03-29T16:32:26Z</time></trkpt><trkpt lat="36.854467267776606" lon="-108.1747861348295"><ele>1807.0</ele><time>2026-03-29T16:32:27Z</time></trkpt><trkpt lat="36.85458797144542" lon="-108.17472188951433"><ele>1807.3999999999999</ele><time>2026-03-29T16:32:28Z</time></trkpt><trkpt lat="36.85468756065395" lon="-108.17467225491009"><ele>1807.7999999999997</ele><time>2026-03-29T16:32:29Z</time></trkpt><trkpt lat="36.8547572621427" lon="-108.17461973292312"><ele>1808.2</ele><time>2026-03-29T16:32:30Z</time></trkpt><trkpt lat="36.85480892061141" lon="-108.174538953774"><ele>1808.6</ele><time>2026-03-29T16:32:31Z</time></trkpt><trkpt lat="36.85482323713758" lon="-108.17440209975106"><ele>1809.0</ele><time>2026-03-29T16:32:32Z</time></trkpt><trkpt lat="36.8548143603375" lon="-108.17425986199702"><ele>1809.0</ele><time>2026-03-29T16:32:33Z</time></trkpt><trkpt lat="36.8548282341379" lon="-108.17414426167512"><ele>1809.0</ele><time>2026-03-29T16:32:34Z</time></trkpt><trkpt lat="36.85488023764485" lon="-108.17403378964535"><ele>1809.0</ele><time>2026-03-29T16:32:35Z</time></trkpt><trkpt lat="36.85492257674012" lon="-108.17394339685464"><ele>1809.0</ele><time>2026-03-29T16:32:36Z</time></trkpt><trkpt lat="36.85490648471006" lon="-108.17381397498433"><ele>1809.0</ele><time>2026-03-29T16:32:38Z</time></trkpt><trkpt lat="36.854960441555015" lon="-108.1737029961116"><ele>1810.0</ele><time>2026-03-29T16:32:39Z</time></trkpt><trkpt lat="36.8550173974856" lon="-108.1735606185497"><ele>1811.0</ele><time>2026-03-29T16:32:40Z</time></trkpt><trkpt lat="36.855081932923056" lon="-108.17341869960612"><ele>1812.0</ele><time>2026-03-29T16:32:41Z</time></trkpt><trkpt lat="36.85514276538105" lon="-108.17329532477333"><ele>1813.0</ele><time>2026-03-29T16:32:42Z</time></trkpt><trkpt lat="36.85518579810877" lon="-108.17318140443791"><ele>1813.4</ele><time>2026-03-29T16:32:43Z</time></trkpt><trkpt lat="36.855218641603486" lon="-108.17307320447696"><ele>1813.8000000000002</ele><time>2026-03-29T16:32:44Z</time></trkpt><trkpt lat="36.85526337133772" lon="-108.17297251419029"><ele>1814.2</ele><time>2026-03-29T16:32:45Z</time></trkpt><trkpt lat="36.85532884055384" lon="-108.17290578759511"><ele>1814.6</ele><time>2026-03-29T16:32:46Z</time></trkpt><trkpt lat="36.85542530029485" lon="-108.17288038706553"><ele>1815.0</ele><time>2026-03-29T16:32:47Z</time></trkpt><trkpt lat="36.855536914703265" lon="-108.17285809446942"><ele>1815.0</ele><time>2026-03-29T16:32:48Z</time></trkpt><trkpt lat="36.85565995893994" lon="-108.17283224379901"><ele>1815.0</ele><time>2026-03-29T16:32:49Z</time></trkpt><trkpt lat="36.85575741417285" lon="-108.17279864887294"><ele>1815.0</ele><time>2026-03-29T16:32:50Z</time></trkpt><trkpt lat="36.85587467259225" lon="-108.17276537608535"><ele>1815.0</ele><time>2026-03-29T16:32:51Z</time></trkpt><trkpt lat="36.85600024356877" lon="-108.17271751842281"><ele>1815.6</ele><time>2026-03-29T16:32:52Z</time></trkpt><trkpt lat="36.85607582301907" lon="-108.17267798770192"><ele>1816.2</ele><time>2026-03-29T16:32:53Z</time></trkpt><trkpt lat="36.85612914923452" lon="-108.17262417619163"><ele>1816.8000000000002</ele><time>2026-03-29T16:32:54Z</time></trkpt><trkpt lat="36.85615388364853" lon="-108.1725263381097"><ele>1817.4</ele><time>2026-03-29T16:32:55Z</time></trkpt><trkpt lat="36.85619865938502" lon="-108.17236939500648"><ele>1818.0</ele><time>2026-03-29T16:32:56Z</time></trkpt><trkpt lat="36.85625420831691" lon="-108.17222553402539"><ele>1818.6666666666665</ele><time>2026-03-29T16:32:57Z</time></trkpt><trkpt lat="36.856319010557655" lon="-108.17206624764441"><ele>1819.3333333333333</ele><time>2026-03-29T16:32:58Z</time></trkpt><trkpt lat="36.8563712395966" lon="-108.1718796466222"><ele>1820.0</ele><time>2026-03-29T16:32:59Z</time></trkpt><trkpt lat="36.856417960861585" lon="-108.17169063880924"><ele>1820.0</ele><time>2026-03-29T16:33:00Z</time></trkpt><trkpt lat="36.856443216819876" lon="-108.17152663380617"><ele>1820.0</ele><time>2026-03-29T16:33:01Z</time></trkpt><trkpt lat="36.85649870221808" lon="-108.17138572336725"><ele>1820.0</ele><time>2026-03-29T16:33:02Z</time></trkpt><trkpt lat="36.85656857403353" lon="-108.17124534552508"><ele>1820.0</ele><time>2026-03-29T16:33:03Z</time></trkpt><trkpt lat="36.856602165235074" lon="-108.17113014895514"><ele>1820.6</ele><time>2026-03-29T16:33:04Z</time></trkpt><trkpt lat="36.85662476228712" lon="-108.17100305035916"><ele>1821.2</ele><time>2026-03-29T16:33:05Z</time></trkpt><trkpt lat="36.85667738173513" lon="-108.17090652773378"><ele>1821.8000000000002</ele><time>2026-03-29T16:33:06Z</time></trkpt><trkpt lat="36.85675777572209" lon="-108.17080027781252"><ele>1822.4</ele><time>2026-03-29T16:33:07Z</time></trkpt><trkpt lat="36.85679389829311" lon="-108.1706600334494"><ele>1823.0</ele><time>2026-03-29T16:33:08Z</time></trkpt><trkpt lat="36.85681717152198" lon="-108.17047712183385"><ele>1824.0</ele><time>2026-03-29T16:33:09Z</time></trkpt><trkpt lat="36.85684382097346" lon="-108.17027183186957"><ele>1825.0</ele><time>2026-03-29T16:33:10Z</time></trkpt><trkpt lat="36.85689737550691" lon="-108.17008840558942"><ele>1826.0</ele><time>2026-03-29T16:33:11Z</time></trkpt><trkpt lat="36.856948812727715" lon="-108.16993332504262"><ele>1826.8</ele><time>2026-03-29T16:33:12Z</time></trkpt><trkpt lat="36.8569533476462" lon="-108.16980927776751"><ele>1827.6</ele><time>2026-03-29T16:33:13Z</time></trkpt><trkpt lat="36.8569450488097" lon="-108.16970560272331"><ele>1828.4</ele><time>2026-03-29T16:33:14Z</time></trkpt><trkpt lat="36.85689374493508" lon="-108.1696135951929"><ele>1829.2</ele><time>2026-03-29T16:33:15Z</time></trkpt><trkpt lat="36.856815763235375" lon="-108.16950900770945"><ele>1830.0</ele><time>2026-03-29T16:33:16Z</time></trkpt><trkpt lat="36.85672953770305" lon="-108.16939486174387"><ele>1830.0</ele><time>2026-03-29T16:33:17Z</time></trkpt><trkpt lat="36.856689318418454" lon="-108.16923521915659"><ele>1830.0</ele><time>2026-03-29T16:33:18Z</time></trkpt><trkpt lat="36.85670302059161" lon="-108.16911420796083"><ele>1830.0</ele><time>2026-03-29T16:33:19Z</time></trkpt><trkpt lat="36.856594044646265" lon="-108.16900573909736"><ele>1830.0</ele><time>2026-03-29T16:33:22Z</time></trkpt><trkpt lat="36.856550443498925" lon="-108.16893040207864"><ele>1830.0</ele><time>2026-03-29T16:33:23Z</time></trkpt><trkpt lat="36.856557441451095" lon="-108.16883621696383"><ele>1830.8</ele><time>2026-03-29T16:33:24Z</time></trkpt><trkpt lat="36.856587691480826" lon="-108.16872788493887"><ele>1831.6</ele><time>2026-03-29T16:33:25Z</time></trkpt><trkpt lat="36.85664770831178" lon="-108.16863662659883"><ele>1832.4</ele><time>2026-03-29T16:33:26Z</time></trkpt><trkpt lat="36.85666301331543" lon="-108.16852113913092"><ele>1833.2</ele><time>2026-03-29T16:33:27Z</time></trkpt><trkpt lat="36.85671230261879" lon="-108.1684496931533"><ele>1834.0</ele><time>2026-03-29T16:33:28Z</time></trkpt><trkpt lat="36.8567230086013" lon="-108.16832716127473"><ele>1834.0</ele><time>2026-03-29T16:33:30Z</time></trkpt><trkpt lat="36.85669827009732" lon="-108.16819889999415"><ele>1834.0</ele><time>2026-03-29T16:33:32Z</time></trkpt><trkpt lat="36.85673901741691" lon="-108.16802665128614"><ele>1834.0</ele><time>2026-03-29T16:33:34Z</time></trkpt><trkpt lat="36.856760826443896" lon="-108.16791663079755"><ele>1834.0</ele><time>2026-03-29T16:33:35Z</time></trkpt><trkpt lat="36.856784358357466" lon="-108.16780722979884"><ele>1834.0</ele><time>2026-03-29T16:33:36Z</time></trkpt><trkpt lat="36.8567452703369" lon="-108.16772580337614"><ele>1834.0000000000002</ele><time>2026-03-29T16:33:37Z</time></trkpt><trkpt lat="36.856682587652756" lon="-108.16767724222417"><ele>1834.0</ele><time>2026-03-29T16:33:38Z</time></trkpt><trkpt lat="36.856755094215174" lon="-108.16768851083141"><ele>1834.0</ele><time>2026-03-29T16:33:43Z</time></trkpt><trkpt lat="36.856792068713546" lon="-108.16755713085064"><ele>1834.0</ele><time>2026-03-29T16:34:03Z</time></trkpt><trkpt lat="36.85680437352183" lon="-108.16747041226766"><ele>1834.0000000000002</ele><time>2026-03-29T16:34:04Z</time></trkpt><trkpt lat="36.8568221107747" lon="-108.1673654506158"><ele>1834.0</ele><time>2026-03-29T16:34:05Z</time></trkpt><trkpt lat="36.856830659968345" lon="-108.16724833524452"><ele>1834.2</ele><time>2026-03-29T16:34:06Z</time></trkpt><trkpt lat="36.85677665262967" lon="-108.16712515231896"><ele>1834.4</ele><time>2026-03-29T16:34:07Z</time></trkpt><trkpt lat="36.856733688615115" lon="-108.16700084048675"><ele>1834.6</ele><time>2026-03-29T16:34:08Z</time></trkpt><trkpt lat="36.85671131085565" lon="-108.16687540990314"><ele>1834.8</ele><time>2026-03-29T16:34:09Z</time></trkpt><trkpt lat="36.85671177867739" lon="-108.16678435791523"><ele>1835.0</ele><time>2026-03-29T16:34:10Z</time></trkpt><trkpt lat="36.85680394135135" lon="-108.1666533580975"><ele>1835.0</ele><time>2026-03-29T16:34:12Z</time></trkpt><trkpt lat="36.8568669000049" lon="-108.16657204682016"><ele>1835.0</ele><time>2026-03-29T16:34:13Z</time></trkpt><trkpt lat="36.85672604410528" lon="-108.16640374622104"><ele>1835.0</ele><time>2026-03-29T16:34:15Z</time></trkpt><trkpt lat="36.85663437034638" lon="-108.16633716593628"><ele>1835.0</ele><time>2026-03-29T16:34:16Z</time></trkpt><trkpt lat="36.85657894621934" lon="-108.1662772406168"><ele>1836.4</ele><time>2026-03-29T16:34:17Z</time></trkpt><trkpt lat="36.856619282669094" lon="-108.16608768940506"><ele>1837.8</ele><time>2026-03-29T16:34:19Z</time></trkpt><trkpt lat="36.856665342168974" lon="-108.16596963195134"><ele>1839.1999999999998</ele><time>2026-03-29T16:34:20Z</time></trkpt><trkpt lat="36.856609540351975" lon="-108.16585790919737"><ele>1840.6</ele><time>2026-03-29T16:34:22Z</time></trkpt><trkpt lat="36.85654846861412" lon="-108.16582189630682"><ele>1842.0</ele><time>2026-03-29T16:34:23Z</time></trkpt><trkpt lat="36.856465870122896" lon="-108.16574702510798"><ele>1842.5</ele><time>2026-03-29T16:34:24Z</time></trkpt><trkpt lat="36.856413031057144" lon="-108.16564115604595"><ele>1843.0</ele><time>2026-03-29T16:34:25Z</time></trkpt><trkpt lat="36.8563641087213" lon="-108.16552449467868"><ele>1843.5</ele><time>2026-03-29T16:34:26Z</time></trkpt><trkpt lat="36.85629654685053" lon="-108.16539991722351"><ele>1844.0</ele><time>2026-03-29T16:34:27Z</time></trkpt><trkpt lat="36.85622166247775" lon="-108.16526703311175"><ele>1844.0</ele><time>2026-03-29T16:34:28Z</time></trkpt><trkpt lat="36.85618178571981" lon="-108.16512039923423"><ele>1844.0</ele><time>2026-03-29T16:34:29Z</time></trkpt><trkpt lat="36.856165874662786" lon="-108.16502357232719"><ele>1844.0</ele><time>2026-03-29T16:34:30Z</time></trkpt><trkpt lat="36.85611704325848" lon="-108.16487428071744"><ele>1844.0</ele><time>2026-03-29T16:34:32Z</time></trkpt><trkpt lat="36.85617485863885" lon="-108.16482547683077"><ele>1844.0</ele><time>2026-03-29T16:34:33Z</time></trkpt><trkpt lat="36.856239908517324" lon="-108.16484913877689"><ele>1843.9999999999998</ele><time>2026-03-29T16:34:34Z</time></trkpt><trkpt lat="36.856324439038566" lon="-108.1648592698713"><ele>1844.0</ele><time>2026-03-29T16:34:35Z</time></trkpt><trkpt lat="36.856401300208326" lon="-108.16485975875987"><ele>1844.0</ele><time>2026-03-29T16:34:36Z</time></trkpt><trkpt lat="36.85649065626515" lon="-108.16482298389823"><ele>1844.0</ele><time>2026-03-29T16:34:37Z</time></trkpt><trkpt lat="36.85658268482583" lon="-108.16483270592039"><ele>1843.9999999999998</ele><time>2026-03-29T16:34:38Z</time></trkpt><trkpt lat="36.85666945510599" lon="-108.16482954661849"><ele>1844.0</ele><time>2026-03-29T16:34:39Z</time></trkpt><trkpt lat="36.856769744253405" lon="-108.1648674205334"><ele>1843.8000000000002</ele><time>2026-03-29T16:34:41Z</time></trkpt><trkpt lat="36.85685438385532" lon="-108.1648322898697"><ele>1843.6000000000001</ele><time>2026-03-29T16:34:43Z</time></trkpt><trkpt lat="36.856931491974166" lon="-108.16484499855859"><ele>1843.4</ele><time>2026-03-29T16:34:44Z</time></trkpt><trkpt lat="36.857034194149904" lon="-108.16485649890598"><ele>1843.2</ele><time>2026-03-29T16:34:45Z</time></trkpt><trkpt lat="36.857132804572686" lon="-108.16486659713019"><ele>1843.0</ele><time>2026-03-29T16:34:46Z</time></trkpt><trkpt lat="36.85721586393986" lon="-108.16484717680943"><ele>1843.0</ele><time>2026-03-29T16:34:47Z</time></trkpt><trkpt lat="36.85733968600253" lon="-108.16485753315584"><ele>1843.0000000000002</ele><time>2026-03-29T16:34:49Z</time></trkpt><trkpt lat="36.85742091159234" lon="-108.16486053585557"><ele>1843.0000000000002</ele><time>2026-03-29T16:34:50Z</time></trkpt><trkpt lat="36.85749993907649" lon="-108.16485784322334"><ele>1843.0</ele><time>2026-03-29T16:34:51Z</time></trkpt><trkpt lat="36.85756350481129" lon="-108.16487518080827"><ele>1843.0</ele><time>2026-03-29T16:34:52Z</time></trkpt><trkpt lat="36.8576769529459" lon="-108.16494414967053"><ele>1843.2</ele><time>2026-03-29T16:34:54Z</time></trkpt><trkpt lat="36.857772505157406" lon="-108.16489729793545"><ele>1843.4</ele><time>2026-03-29T16:34:56Z</time></trkpt><trkpt lat="36.85787023815692" lon="-108.16486043033883"><ele>1843.6000000000001</ele><time>2026-03-29T16:34:57Z</time></trkpt><trkpt lat="36.857974592032754" lon="-108.16487535519528"><ele>1843.8000000000002</ele><time>2026-03-29T16:34:58Z</time></trkpt><trkpt lat="36.85807062143571" lon="-108.16490782100783"><ele>1844.0</ele><time>2026-03-29T16:34:59Z</time></trkpt><trkpt lat="36.85815959243628" lon="-108.1649168307359"><ele>1843.8000000000002</ele><time>2026-03-29T16:35:00Z</time></trkpt><trkpt lat="36.85823169906045" lon="-108.16492008615306"><ele>1843.6000000000001</ele><time>2026-03-29T16:35:01Z</time></trkpt><trkpt lat="36.85836006911998" lon="-108.16492358150875"><ele>1843.4</ele><time>2026-03-29T16:35:03Z</time></trkpt><trkpt lat="36.858434083740306" lon="-108.16497607392355"><ele>1843.2</ele><time>2026-03-29T16:35:04Z</time></trkpt><trkpt lat="36.85855722299188" lon="-108.16496200874576"><ele>1843.0</ele><time>2026-03-29T16:35:06Z</time></trkpt><trkpt lat="36.858629015062064" lon="-108.16492339139661"><ele>1843.0000000000002</ele><time>2026-03-29T16:35:07Z</time></trkpt><trkpt lat="36.85870164619308" lon="-108.16487184387678"><ele>1843.0</ele><time>2026-03-29T16:35:08Z</time></trkpt><trkpt lat="36.85879889771681" lon="-108.16482956838219"><ele>1843.0</ele><time>2026-03-29T16:35:09Z</time></trkpt><trkpt lat="36.858894866688814" lon="-108.16481350793283"><ele>1843.0</ele><time>2026-03-29T16:35:10Z</time></trkpt><trkpt lat="36.85898388539576" lon="-108.16483267397034"><ele>1843.0000000000002</ele><time>2026-03-29T16:35:11Z</time></trkpt><trkpt lat="36.859039054463615" lon="-108.16488664737052"><ele>1843.0</ele><time>2026-03-29T16:35:12Z</time></trkpt><trkpt lat="36.859080591204076" lon="-108.16495196185613"><ele>1843.0</ele><time>2026-03-29T16:35:13Z</time></trkpt><trkpt lat="36.859158273344" lon="-108.16501517087006"><ele>1843.0000000000002</ele><time>2026-03-29T16:35:14Z</time></trkpt><trkpt lat="36.85921029078239" lon="-108.16511751144506"><ele>1843.0000000000002</ele><time>2026-03-29T16:35:15Z</time></trkpt><trkpt lat="36.85926257862878" lon="-108.16521283469959"><ele>1843.0</ele><time>2026-03-29T16:35:16Z</time></trkpt><trkpt lat="36.85931998581718" lon="-108.16525901569149"><ele>1843.0</ele><time>2026-03-29T16:35:17Z</time></trkpt><trkpt lat="36.85945493364031" lon="-108.16523942672937"><ele>1842.6666666666667</ele><time>2026-03-29T16:35:19Z</time></trkpt><trkpt lat="36.85952887253637" lon="-108.16526235112987"><ele>1842.3333333333335</ele><time>2026-03-29T16:35:20Z</time></trkpt><trkpt lat="36.85959536194864" lon="-108.1652257140277"><ele>1842.0</ele><time>2026-03-29T16:35:21Z</time></trkpt><trkpt lat="36.85966461300583" lon="-108.16517541503262"><ele>1841.6666666666665</ele><time>2026-03-29T16:35:22Z</time></trkpt><trkpt lat="36.85972520148192" lon="-108.1652071817335"><ele>1841.3333333333333</ele><time>2026-03-29T16:35:23Z</time></trkpt><trkpt lat="36.85979431943258" lon="-108.16523612368293"><ele>1841.0</ele><time>2026-03-29T16:35:24Z</time></trkpt><trkpt lat="36.859895058169144" lon="-108.16526085598545"><ele>1841.0</ele><time>2026-03-29T16:35:25Z</time></trkpt><trkpt lat="36.859971209440054" lon="-108.16523367550688"><ele>1841.0</ele><time>2026-03-29T16:35:26Z</time></trkpt><trkpt lat="36.860063049922076" lon="-108.16516828791029"><ele>1841.0</ele><time>2026-03-29T16:35:27Z</time></trkpt><trkpt lat="36.86013081241402" lon="-108.16513177194588"><ele>1841.0</ele><time>2026-03-29T16:35:28Z</time></trkpt><trkpt lat="36.860258145819806" lon="-108.16514748475758"><ele>1841.0</ele><time>2026-03-29T16:35:30Z</time></trkpt><trkpt lat="36.86036845234523" lon="-108.16517988884043"><ele>1839.1999999999998</ele><time>2026-03-29T16:35:31Z</time></trkpt><trkpt lat="36.86047305471359" lon="-108.16517365058178"><ele>1837.3999999999999</ele><time>2026-03-29T16:35:32Z</time></trkpt><trkpt lat="36.860534067247286" lon="-108.16514575061468"><ele>1835.6</ele><time>2026-03-29T16:35:33Z</time></trkpt><trkpt lat="36.860609822878075" lon="-108.16512031087603"><ele>1833.8</ele><time>2026-03-29T16:35:34Z</time></trkpt><trkpt lat="36.860714012438194" lon="-108.16512364220559"><ele>1832.0</ele><time>2026-03-29T16:35:35Z</time></trkpt><trkpt lat="36.86081456415021" lon="-108.16516525093908"><ele>1832.0</ele><time>2026-03-29T16:35:36Z</time></trkpt><trkpt lat="36.86088705650927" lon="-108.1652210141263"><ele>1831.9999999999998</ele><time>2026-03-29T16:35:37Z</time></trkpt><trkpt lat="36.86097149858989" lon="-108.16530249707732"><ele>1831.9999999999998</ele><time>2026-03-29T16:35:38Z</time></trkpt><trkpt lat="36.86104508008182" lon="-108.1652876437284"><ele>1832.0</ele><time>2026-03-29T16:35:39Z</time></trkpt><trkpt lat="36.86112797193565" lon="-108.165183277545"><ele>1832.0</ele><time>2026-03-29T16:35:41Z</time></trkpt><trkpt lat="36.861220674334746" lon="-108.16521771289803"><ele>1832.1999999999998</ele><time>2026-03-29T16:35:44Z</time></trkpt><trkpt lat="36.86127986821609" lon="-108.16524919032099"><ele>1832.3999999999999</ele><time>2026-03-29T16:35:46Z</time></trkpt><trkpt lat="36.861358690459035" lon="-108.16528473833625"><ele>1832.6000000000001</ele><time>2026-03-29T16:35:47Z</time></trkpt><trkpt lat="36.861478467153496" lon="-108.16528367259374"><ele>1832.8000000000002</ele><time>2026-03-29T16:35:48Z</time></trkpt><trkpt lat="36.86157817866015" lon="-108.1653430062784"><ele>1833.0</ele><time>2026-03-29T16:35:50Z</time></trkpt><trkpt lat="36.861689594961625" lon="-108.16531670830946"><ele>1833.0</ele><time>2026-03-29T16:35:52Z</time></trkpt><trkpt lat="36.86176171223381" lon="-108.16524901079062"><ele>1833.0</ele><time>2026-03-29T16:35:53Z</time></trkpt><trkpt lat="36.8618263258888" lon="-108.16519937824195"><ele>1833.0</ele><time>2026-03-29T16:35:54Z</time></trkpt><trkpt lat="36.86189909643224" lon="-108.1651430590077"><ele>1833.0</ele><time>2026-03-29T16:35:55Z</time></trkpt><trkpt lat="36.861978464856485" lon="-108.16508977170122"><ele>1833.0</ele><time>2026-03-29T16:35:56Z</time></trkpt><trkpt lat="36.86205206874115" lon="-108.16503507993924"><ele>1833.0</ele><time>2026-03-29T16:35:57Z</time></trkpt><trkpt lat="36.86212182688904" lon="-108.1649853307822"><ele>1833.5</ele><time>2026-03-29T16:35:58Z</time></trkpt><trkpt lat="36.86219072288952" lon="-108.16493291632379"><ele>1834.0</ele><time>2026-03-29T16:35:59Z</time></trkpt><trkpt lat="36.86223773437842" lon="-108.16486509830582"><ele>1834.5</ele><time>2026-03-29T16:36:00Z</time></trkpt><trkpt lat="36.862315895251264" lon="-108.1647729879094"><ele>1835.0</ele><time>2026-03-29T16:36:02Z</time></trkpt><trkpt lat="36.86238361109845" lon="-108.16482641630984"><ele>1835.5</ele><time>2026-03-29T16:36:04Z</time></trkpt><trkpt lat="36.862439376834125" lon="-108.16489402150543"><ele>1836.0</ele><time>2026-03-29T16:36:05Z</time></trkpt><trkpt lat="36.86248159095838" lon="-108.16498495548525"><ele>1836.0</ele><time>2026-03-29T16:36:06Z</time></trkpt><trkpt lat="36.86253189445332" lon="-108.16523414911553"><ele>1836.0</ele><time>2026-03-29T16:36:07Z</time></trkpt><trkpt lat="36.86258228722358" lon="-108.16529763244874"><ele>1836.0</ele><time>2026-03-29T16:36:08Z</time></trkpt><trkpt lat="36.86263590613336" lon="-108.16535708324534"><ele>1836.0</ele><time>2026-03-29T16:36:09Z</time></trkpt><trkpt lat="36.862723153642676" lon="-108.16540830792732"><ele>1836.0</ele><time>2026-03-29T16:36:10Z</time></trkpt><trkpt lat="36.86278491939331" lon="-108.1654881013261"><ele>1835.6</ele><time>2026-03-29T16:36:11Z</time></trkpt><trkpt lat="36.86282974260138" lon="-108.16555365359967"><ele>1835.1999999999998</ele><time>2026-03-29T16:36:12Z</time></trkpt><trkpt lat="36.86287385420725" lon="-108.16562529859644"><ele>1834.8000000000002</ele><time>2026-03-29T16:36:13Z</time></trkpt><trkpt lat="36.86293462462783" lon="-108.16568661521195"><ele>1834.4</ele><time>2026-03-29T16:36:14Z</time></trkpt><trkpt lat="36.862990253514276" lon="-108.16586470004724"><ele>1834.0</ele><time>2026-03-29T16:36:16Z</time></trkpt><trkpt lat="36.863029868070576" lon="-108.16596255119894"><ele>1834.0000000000002</ele><time>2026-03-29T16:36:17Z</time></trkpt><trkpt lat="36.863104891380424" lon="-108.16600216410838"><ele>1834.0</ele><time>2026-03-29T16:36:18Z</time></trkpt><trkpt lat="36.86317056698354" lon="-108.16603705897862"><ele>1834.0</ele><time>2026-03-29T16:36:19Z</time></trkpt><trkpt lat="36.86319402677627" lon="-108.16611090895113"><ele>1834.0</ele><time>2026-03-29T16:36:20Z</time></trkpt><trkpt lat="36.863171134538604" lon="-108.16622762069892"><ele>1834.0000000000002</ele><time>2026-03-29T16:36:21Z</time></trkpt><trkpt lat="36.86316621239503" lon="-108.16633980964924"><ele>1834.0</ele><time>2026-03-29T16:36:22Z</time></trkpt><trkpt lat="36.8632470397315" lon="-108.1664446577085"><ele>1834.0</ele><time>2026-03-29T16:36:24Z</time></trkpt><trkpt lat="36.86330284252991" lon="-108.16651512704318"><ele>1834.0</ele><time>2026-03-29T16:36:25Z</time></trkpt><trkpt lat="36.863365809405614" lon="-108.16659113832159"><ele>1834.0</ele><time>2026-03-29T16:36:26Z</time></trkpt><trkpt lat="36.86341770743011" lon="-108.16668754398115"><ele>1834.0</ele><time>2026-03-29T16:36:27Z</time></trkpt><trkpt lat="36.863475326550805" lon="-108.16678624772025"><ele>1834.0</ele><time>2026-03-29T16:36:28Z</time></trkpt><trkpt lat="36.86356010619989" lon="-108.16683095250889"><ele>1833.1666666666667</ele><time>2026-03-29T16:36:29Z</time></trkpt><trkpt lat="36.86363702716043" lon="-108.16684331294593"><ele>1832.3333333333335</ele><time>2026-03-29T16:36:30Z</time></trkpt><trkpt lat="36.86371374655438" lon="-108.1667960665779"><ele>1831.5</ele><time>2026-03-29T16:36:31Z</time></trkpt><trkpt lat="36.863799666985834" lon="-108.16673941459513"><ele>1830.6666666666665</ele><time>2026-03-29T16:36:32Z</time></trkpt><trkpt lat="36.8638513379427" lon="-108.16664933536325"><ele>1829.8333333333333</ele><time>2026-03-29T16:36:33Z</time></trkpt><trkpt lat="36.86393113809535" lon="-108.16657578791845"><ele>1829.0</ele><time>2026-03-29T16:36:35Z</time></trkpt><trkpt lat="36.8639965118096" lon="-108.16656674489802"><ele>1829.0</ele><time>2026-03-29T16:36:36Z</time></trkpt><trkpt lat="36.86409278662268" lon="-108.16657938379778"><ele>1829.0</ele><time>2026-03-29T16:36:38Z</time></trkpt><trkpt lat="36.86414897677858" lon="-108.16663253622362"><ele>1829.0</ele><time>2026-03-29T16:36:39Z</time></trkpt><trkpt lat="36.864218462454026" lon="-108.16669906934973"><ele>1829.0</ele><time>2026-03-29T16:36:40Z</time></trkpt><trkpt lat="36.864301503828564" lon="-108.16678719895367"><ele>1829.0</ele><time>2026-03-29T16:36:42Z</time></trkpt><trkpt lat="36.864398780294245" lon="-108.166871093339"><ele>1826.4</ele><time>2026-03-29T16:36:44Z</time></trkpt><trkpt lat="36.86446771850874" lon="-108.16687970976763"><ele>1823.8000000000002</ele><time>2026-03-29T16:36:45Z</time></trkpt><trkpt lat="36.86453484777954" lon="-108.16692414730343"><ele>1821.1999999999998</ele><time>2026-03-29T16:36:46Z</time></trkpt><trkpt lat="36.864608145237824" lon="-108.16688479944557"><ele>1818.6</ele><time>2026-03-29T16:36:47Z</time></trkpt><trkpt lat="36.864705048857935" lon="-108.16677610301116"><ele>1816.0</ele><time>2026-03-29T16:36:48Z</time></trkpt><trkpt lat="36.864790105811224" lon="-108.1666868919538"><ele>1816.0000000000002</ele><time>2026-03-29T16:36:49Z</time></trkpt><trkpt lat="36.864834237314476" lon="-108.16662538005221"><ele>1816.0</ele><time>2026-03-29T16:36:50Z</time></trkpt><trkpt lat="36.86489689531695" lon="-108.1666164745962"><ele>1816.0</ele><time>2026-03-29T16:36:51Z</time></trkpt><trkpt lat="36.86500100276952" lon="-108.16660939929884"><ele>1816.0</ele><time>2026-03-29T16:36:52Z</time></trkpt><trkpt lat="36.86511623511321" lon="-108.16662065181714"><ele>1816.0000000000002</ele><time>2026-03-29T16:36:53Z</time></trkpt><trkpt lat="36.8652032376438" lon="-108.16662255114096"><ele>1816.0</ele><time>2026-03-29T16:36:54Z</time></trkpt><trkpt lat="36.865289921222725" lon="-108.16664514284872"><ele>1815.4</ele><time>2026-03-29T16:36:55Z</time></trkpt><trkpt lat="36.86538108036849" lon="-108.16661902927245"><ele>1814.8</ele><time>2026-03-29T16:36:56Z</time></trkpt><trkpt lat="36.865423239688305" lon="-108.16654984430329"><ele>1814.2000000000003</ele><time>2026-03-29T16:36:57Z</time></trkpt><trkpt lat="36.86549802526463" lon="-108.1664585858565"><ele>1813.6000000000001</ele><time>2026-03-29T16:36:58Z</time></trkpt><trkpt lat="36.865601090181855" lon="-108.16640024910511"><ele>1813.0</ele><time>2026-03-29T16:36:59Z</time></trkpt><trkpt lat="36.86571123307593" lon="-108.16637448747568"><ele>1812.25</ele><time>2026-03-29T16:37:00Z</time></trkpt><trkpt lat="36.865791246750234" lon="-108.16635296277026"><ele>1811.5</ele><time>2026-03-29T16:37:01Z</time></trkpt><trkpt lat="36.865969004300965" lon="-108.16633652767223"><ele>1810.75</ele><time>2026-03-29T16:37:03Z</time></trkpt><trkpt lat="36.86610277035997" lon="-108.1663005065468"><ele>1810.0</ele><time>2026-03-29T16:37:04Z</time></trkpt><trkpt lat="36.86619533847255" lon="-108.16624682266189"><ele>1809.8333333333335</ele><time>2026-03-29T16:37:05Z</time></trkpt><trkpt lat="36.8662601247621" lon="-108.16622261684924"><ele>1809.6666666666667</ele><time>2026-03-29T16:37:06Z</time></trkpt><trkpt lat="36.8663301185154" lon="-108.16620569433648"><ele>1809.5</ele><time>2026-03-29T16:37:07Z</time></trkpt><trkpt lat="36.86640414553165" lon="-108.16619759691817"><ele>1809.3333333333335</ele><time>2026-03-29T16:37:08Z</time></trkpt><trkpt lat="36.866485634385356" lon="-108.16618844697403"><ele>1809.1666666666667</ele><time>2026-03-29T16:37:09Z</time></trkpt><trkpt lat="36.86656730647494" lon="-108.16616334945452"><ele>1809.0</ele><time>2026-03-29T16:37:10Z</time></trkpt><trkpt lat="36.8666694389572" lon="-108.16610742557633"><ele>1809.2</ele><time>2026-03-29T16:37:11Z</time></trkpt><trkpt lat="36.86678478871476" lon="-108.16603232007448"><ele>1809.4</ele><time>2026-03-29T16:37:12Z</time></trkpt><trkpt lat="36.86690013681017" lon="-108.16596650415012"><ele>1809.6</ele><time>2026-03-29T16:37:13Z</time></trkpt><trkpt lat="36.86696378136942" lon="-108.16592597960411"><ele>1809.8</ele><time>2026-03-29T16:37:14Z</time></trkpt><trkpt lat="36.86703843570956" lon="-108.16585210847343"><ele>1810.0</ele><time>2026-03-29T16:37:16Z</time></trkpt><trkpt lat="36.867146264806514" lon="-108.16583213495365"><ele>1810.0000000000002</ele><time>2026-03-29T16:37:17Z</time></trkpt><trkpt lat="36.86726958966573" lon="-108.16584519645059"><ele>1810.0</ele><time>2026-03-29T16:37:18Z</time></trkpt><trkpt lat="36.86736038278145" lon="-108.16586803324466"><ele>1810.0</ele><time>2026-03-29T16:37:19Z</time></trkpt><trkpt lat="36.86743952315033" lon="-108.16588961850312"><ele>1810.0</ele><time>2026-03-29T16:37:20Z</time></trkpt><trkpt lat="36.86751549820956" lon="-108.16590626204308"><ele>1810.0000000000002</ele><time>2026-03-29T16:37:21Z</time></trkpt><trkpt lat="36.8675814022968" lon="-108.1659453355796"><ele>1810.0</ele><time>2026-03-29T16:37:22Z</time></trkpt><trkpt lat="36.867698584240514" lon="-108.16599554282747"><ele>1809.8</ele><time>2026-03-29T16:37:23Z</time></trkpt><trkpt lat="36.86781297047514" lon="-108.16605071280866"><ele>1809.6</ele><time>2026-03-29T16:37:24Z</time></trkpt><trkpt lat="36.86790928926205" lon="-108.16606503306701"><ele>1809.4</ele><time>2026-03-29T16:37:25Z</time></trkpt><trkpt lat="36.86798451145874" lon="-108.16607832106367"><ele>1809.2</ele><time>2026-03-29T16:37:26Z</time></trkpt><trkpt lat="36.8680779332982" lon="-108.16610773342269"><ele>1809.0</ele><time>2026-03-29T16:37:27Z</time></trkpt><trkpt lat="36.868160475021455" lon="-108.1661277807725"><ele>1809.0</ele><time>2026-03-29T16:37:28Z</time></trkpt><trkpt lat="36.86827628527204" lon="-108.1661124566404"><ele>1809.0</ele><time>2026-03-29T16:37:29Z</time></trkpt><trkpt lat="36.86837872769129" lon="-108.16608954470466"><ele>1809.0</ele><time>2026-03-29T16:37:30Z</time></trkpt><trkpt lat="36.86847492112913" lon="-108.16606976217534"><ele>1809.0</ele><time>2026-03-29T16:37:31Z</time></trkpt><trkpt lat="36.868568033393565" lon="-108.1660505541364"><ele>1809.0</ele><time>2026-03-29T16:37:32Z</time></trkpt><trkpt lat="36.86865988717491" lon="-108.16605253890286"><ele>1808.4</ele><time>2026-03-29T16:37:33Z</time></trkpt><trkpt lat="36.86876543068077" lon="-108.16607933658064"><ele>1807.8000000000002</ele><time>2026-03-29T16:37:34Z</time></trkpt><trkpt lat="36.868857997588144" lon="-108.16609138117347"><ele>1807.1999999999998</ele><time>2026-03-29T16:37:35Z</time></trkpt><trkpt lat="36.868947120104956" lon="-108.16605765061777"><ele>1806.6</ele><time>2026-03-29T16:37:36Z</time></trkpt><trkpt lat="36.86903381383439" lon="-108.16602192172988"><ele>1806.0</ele><time>2026-03-29T16:37:37Z</time></trkpt><trkpt lat="36.86911990909087" lon="-108.16604835693138"><ele>1806.0</ele><time>2026-03-29T16:37:38Z</time></trkpt><trkpt lat="36.86920226171039" lon="-108.16608422497251"><ele>1806.0</ele><time>2026-03-29T16:37:39Z</time></trkpt><trkpt lat="36.869290944716" lon="-108.16608476868005"><ele>1806.0</ele><time>2026-03-29T16:37:40Z</time></trkpt><trkpt lat="36.86939056141951" lon="-108.16610100489984"><ele>1806.0</ele><time>2026-03-29T16:37:41Z</time></trkpt><trkpt lat="36.869467423156834" lon="-108.16614347463499"><ele>1806.0</ele><time>2026-03-29T16:37:42Z</time></trkpt><trkpt lat="36.86953132356203" lon="-108.16614887594335"><ele>1806.0</ele><time>2026-03-29T16:37:43Z</time></trkpt><trkpt lat="36.86960446957764" lon="-108.16611033715424"><ele>1806.0</ele><time>2026-03-29T16:37:44Z</time></trkpt><trkpt lat="36.86966899875923" lon="-108.16610269076924"><ele>1806.0</ele><time>2026-03-29T16:37:45Z</time></trkpt><trkpt lat="36.86972775704827" lon="-108.16614266818493"><ele>1806.0</ele><time>2026-03-29T16:37:46Z</time></trkpt><trkpt lat="36.869789257591265" lon="-108.16617766983285"><ele>1806.0</ele><time>2026-03-29T16:37:47Z</time></trkpt><trkpt lat="36.86986529160792" lon="-108.16620651936496"><ele>1806.0</ele><time>2026-03-29T16:37:48Z</time></trkpt><trkpt lat="36.86993472043339" lon="-108.16625754138119"><ele>1806.0</ele><time>2026-03-29T16:37:49Z</time></trkpt><trkpt lat="36.86999456313446" lon="-108.16629631639141"><ele>1806.0</ele><time>2026-03-29T16:37:50Z</time></trkpt><trkpt lat="36.87006502694581" lon="-108.16631214159653"><ele>1806.1999999999998</ele><time>2026-03-29T16:37:51Z</time></trkpt><trkpt lat="36.87014085033116" lon="-108.16635154278684"><ele>1806.3999999999999</ele><time>2026-03-29T16:37:52Z</time></trkpt><trkpt lat="36.870240027821716" lon="-108.16643481593778"><ele>1806.6</ele><time>2026-03-29T16:37:53Z</time></trkpt><trkpt lat="36.87032850354637" lon="-108.16648053422882"><ele>1806.8</ele><time>2026-03-29T16:37:54Z</time></trkpt><trkpt lat="36.870408944920754" lon="-108.16649349144681"><ele>1807.0</ele><time>2026-03-29T16:37:55Z</time></trkpt><trkpt lat="36.87049531541247" lon="-108.16653278370912"><ele>1807.0</ele><time>2026-03-29T16:37:57Z</time></trkpt><trkpt lat="36.870588770245" lon="-108.16656025833812"><ele>1806.9999999999998</ele><time>2026-03-29T16:37:59Z</time></trkpt><trkpt lat="36.8707124398065" lon="-108.16645110158217"><ele>1806.9999999999998</ele><time>2026-03-29T16:38:00Z</time></trkpt><trkpt lat="36.870785946176824" lon="-108.16645993617502"><ele>1807.0</ele><time>2026-03-29T16:38:01Z</time></trkpt><trkpt lat="36.87083530244595" lon="-108.16633889897672"><ele>1807.0</ele><time>2026-03-29T16:38:03Z</time></trkpt><trkpt lat="36.87090855783393" lon="-108.16633012333975"><ele>1806.3333333333335</ele><time>2026-03-29T16:38:04Z</time></trkpt><trkpt lat="36.87100719287761" lon="-108.16635079914923"><ele>1805.6666666666667</ele><time>2026-03-29T16:38:05Z</time></trkpt><trkpt lat="36.87109599644593" lon="-108.1663503773288"><ele>1805.0</ele><time>2026-03-29T16:38:06Z</time></trkpt><trkpt lat="36.871171555636806" lon="-108.16635487750126"><ele>1804.3333333333335</ele><time>2026-03-29T16:38:07Z</time></trkpt><trkpt lat="36.87124310191554" lon="-108.16634380293193"><ele>1803.6666666666667</ele><time>2026-03-29T16:38:08Z</time></trkpt><trkpt lat="36.87134280280155" lon="-108.16640592261605"><ele>1803.0</ele><time>2026-03-29T16:38:10Z</time></trkpt><trkpt lat="36.871406869428476" lon="-108.16643694620309"><ele>1803.0</ele><time>2026-03-29T16:38:11Z</time></trkpt><trkpt lat="36.87149094592972" lon="-108.16640903869293"><ele>1803.0000000000002</ele><time>2026-03-29T16:38:12Z</time></trkpt><trkpt lat="36.87159787837471" lon="-108.16636209208022"><ele>1803.0000000000002</ele><time>2026-03-29T16:38:13Z</time></trkpt><trkpt lat="36.87168740312823" lon="-108.1663507678123"><ele>1803.0</ele><time>2026-03-29T16:38:14Z</time></trkpt><trkpt lat="36.871773136766556" lon="-108.1664347143616"><ele>1803.0</ele><time>2026-03-29T16:38:16Z</time></trkpt><trkpt lat="36.871844722194346" lon="-108.16642204289897"><ele>1802.4285714285713</ele><time>2026-03-29T16:38:17Z</time></trkpt><trkpt lat="36.871918020717445" lon="-108.16639093828225"><ele>1801.8571428571427</ele><time>2026-03-29T16:38:18Z</time></trkpt><trkpt lat="36.871984533354095" lon="-108.16637096654433"><ele>1801.2857142857142</ele><time>2026-03-29T16:38:19Z</time></trkpt><trkpt lat="36.872060502745164" lon="-108.1663840467736"><ele>1800.7142857142858</ele><time>2026-03-29T16:38:20Z</time></trkpt><trkpt lat="36.87214019381199" lon="-108.16639811819128"><ele>1800.142857142857</ele><time>2026-03-29T16:38:21Z</time></trkpt><trkpt lat="36.872219243950106" lon="-108.16639963932855"><ele>1799.5714285714284</ele><time>2026-03-29T16:38:22Z</time></trkpt><trkpt lat="36.872280443180664" lon="-108.16643103935411"><ele>1799.0</ele><time>2026-03-29T16:38:23Z</time></trkpt><trkpt lat="36.872334218769815" lon="-108.16652186840722"><ele>1798.9999999999998</ele><time>2026-03-29T16:38:24Z</time></trkpt><trkpt lat="36.87241126486764" lon="-108.16658519811557"><ele>1799.0</ele><time>2026-03-29T16:38:25Z</time></trkpt><trkpt lat="36.87247125188433" lon="-108.16662855972086"><ele>1799.0</ele><time>2026-03-29T16:38:26Z</time></trkpt><trkpt lat="36.87253406183991" lon="-108.1667019425862"><ele>1799.0</ele><time>2026-03-29T16:38:27Z</time></trkpt><trkpt lat="36.87261322052687" lon="-108.16675549428017"><ele>1798.9999999999998</ele><time>2026-03-29T16:38:28Z</time></trkpt><trkpt lat="36.87267757624397" lon="-108.16681036573355"><ele>1799.0</ele><time>2026-03-29T16:38:29Z</time></trkpt><trkpt lat="36.872816039714856" lon="-108.16686161592752"><ele>1798.9999999999998</ele><time>2026-03-29T16:38:31Z</time></trkpt><trkpt lat="36.87288187150557" lon="-108.16695130045106"><ele>1799.0</ele><time>2026-03-29T16:38:33Z</time></trkpt><trkpt lat="36.87292115294842" lon="-108.16688520571451"><ele>1799.0</ele><time>2026-03-29T16:38:46Z</time></trkpt><trkpt lat="36.87301713442296" lon="-108.16690705864437"><ele>1799.0</ele><time>2026-03-29T16:38:48Z</time></trkpt><trkpt lat="36.87308991166239" lon="-108.16692509881103"><ele>1798.9999999999998</ele><time>2026-03-29T16:38:49Z</time></trkpt><trkpt lat="36.873161913246925" lon="-108.16685561291924"><ele>1799.0</ele><time>2026-03-29T16:38:50Z</time></trkpt><trkpt lat="36.87322480274389" lon="-108.16679551331242"><ele>1798.9999999999998</ele><time>2026-03-29T16:38:51Z</time></trkpt><trkpt lat="36.873316229236785" lon="-108.16675980649418"><ele>1799.0</ele><time>2026-03-29T16:38:52Z</time></trkpt><trkpt lat="36.87338513446355" lon="-108.16672154997468"><ele>1799.0</ele><time>2026-03-29T16:38:53Z</time></trkpt><trkpt lat="36.873406407469346" lon="-108.16660775356449"><ele>1799.0</ele><time>2026-03-29T16:38:54Z</time></trkpt><trkpt lat="36.873424944476554" lon="-108.16650534651602"><ele>1798.9999999999998</ele><time>2026-03-29T16:38:55Z</time></trkpt><trkpt lat="36.87348837225897" lon="-108.16644826934674"><ele>1799.0</ele><time>2026-03-29T16:38:56Z</time></trkpt><trkpt lat="36.87357061258881" lon="-108.16639319416696"><ele>1797.9999999999998</ele><time>2026-03-29T16:38:57Z</time></trkpt><trkpt lat="36.873631049337284" lon="-108.16632504127537"><ele>1797.0</ele><time>2026-03-29T16:38:58Z</time></trkpt><trkpt lat="36.873688770883724" lon="-108.16626573260643"><ele>1796.0</ele><time>2026-03-29T16:38:59Z</time></trkpt><trkpt lat="36.873738632756876" lon="-108.16619439439674"><ele>1795.0</ele><time>2026-03-29T16:39:00Z</time></trkpt><trkpt lat="36.873814137869765" lon="-108.16612117586637"><ele>1793.9999999999998</ele><time>2026-03-29T16:39:01Z</time></trkpt><trkpt lat="36.8738869594147" lon="-108.16603118654828"><ele>1793.0</ele><time>2026-03-29T16:39:02Z</time></trkpt><trkpt lat="36.87394111657402" lon="-108.16594594244748"><ele>1793.0</ele><time>2026-03-29T16:39:03Z</time></trkpt><trkpt lat="36.874009998195355" lon="-108.16592864170892"><ele>1793.0000000000002</ele><time>2026-03-29T16:39:04Z</time></trkpt><trkpt lat="36.87409697581801" lon="-108.16594929778931"><ele>1793.0000000000002</ele><time>2026-03-29T16:39:05Z</time></trkpt><trkpt lat="36.87420589280874" lon="-108.16595326507893"><ele>1793.0</ele><time>2026-03-29T16:39:06Z</time></trkpt><trkpt lat="36.87431186385048" lon="-108.16594182616056"><ele>1793.0</ele><time>2026-03-29T16:39:07Z</time></trkpt><trkpt lat="36.874413059245036" lon="-108.16593767813008"><ele>1792.4999999999998</ele><time>2026-03-29T16:39:08Z</time></trkpt><trkpt lat="36.87450555962747" lon="-108.1659496114773"><ele>1792.0</ele><time>2026-03-29T16:39:09Z</time></trkpt><trkpt lat="36.874575959943236" lon="-108.1659516044178"><ele>1791.5</ele><time>2026-03-29T16:39:10Z</time></trkpt><trkpt lat="36.87462252419402" lon="-108.16589060363258"><ele>1791.0</ele><time>2026-03-29T16:39:11Z</time></trkpt><trkpt lat="36.87470804218139" lon="-108.16577925586205"><ele>1790.4999999999998</ele><time>2026-03-29T16:39:13Z</time></trkpt><trkpt lat="36.87475800752748" lon="-108.16571735142477"><ele>1790.0</ele><time>2026-03-29T16:39:14Z</time></trkpt><trkpt lat="36.87481375910464" lon="-108.16562794184433"><ele>1789.4</ele><time>2026-03-29T16:39:15Z</time></trkpt><trkpt lat="36.874856075931696" lon="-108.16551356639124"><ele>1788.8</ele><time>2026-03-29T16:39:16Z</time></trkpt><trkpt lat="36.8749230936018" lon="-108.16540935255632"><ele>1788.1999999999998</ele><time>2026-03-29T16:39:17Z</time></trkpt><trkpt lat="36.87500462601426" lon="-108.16530043314533"><ele>1787.6</ele><time>2026-03-29T16:39:18Z</time></trkpt><trkpt lat="36.87506480551954" lon="-108.16522978880909"><ele>1787.0</ele><time>2026-03-29T16:39:19Z</time></trkpt><trkpt lat="36.87514414002215" lon="-108.16517289295065"><ele>1786.8</ele><time>2026-03-29T16:39:20Z</time></trkpt><trkpt lat="36.875235619290294" lon="-108.16511148749338"><ele>1786.6</ele><time>2026-03-29T16:39:21Z</time></trkpt><trkpt lat="36.875312557399546" lon="-108.16508267202978"><ele>1786.3999999999999</ele><time>2026-03-29T16:39:22Z</time></trkpt><trkpt lat="36.875401043037634" lon="-108.1650414393298"><ele>1786.1999999999998</ele><time>2026-03-29T16:39:23Z</time></trkpt><trkpt lat="36.87548021981197" lon="-108.16497081484059"><ele>1786.0</ele><time>2026-03-29T16:39:24Z</time></trkpt><trkpt lat="36.875543943781786" lon="-108.16491046423322"><ele>1785.0</ele><time>2026-03-29T16:39:25Z</time></trkpt><trkpt lat="36.87566119072652" lon="-108.16475440117631"><ele>1784.0</ele><time>2026-03-29T16:39:27Z</time></trkpt><trkpt lat="36.87570655166645" lon="-108.16466040890927"><ele>1783.0</ele><time>2026-03-29T16:39:28Z</time></trkpt><trkpt lat="36.87577407068703" lon="-108.16458264962182"><ele>1782.0</ele><time>2026-03-29T16:39:29Z</time></trkpt><trkpt lat="36.87584346482076" lon="-108.16450773214602"><ele>1781.0</ele><time>2026-03-29T16:39:30Z</time></trkpt><trkpt lat="36.87591197133601" lon="-108.16442489123716"><ele>1779.9999999999998</ele><time>2026-03-29T16:39:31Z</time></trkpt><trkpt lat="36.87598415216699" lon="-108.16437715419185"><ele>1779.0</ele><time>2026-03-29T16:39:32Z</time></trkpt><trkpt lat="36.87607531968614" lon="-108.16436932872652"><ele>1778.0</ele><time>2026-03-29T16:39:33Z</time></trkpt><trkpt lat="36.87614285091316" lon="-108.16433725965749"><ele>1777.0</ele><time>2026-03-29T16:39:34Z</time></trkpt><trkpt lat="36.8761932015574" lon="-108.16424824272192"><ele>1775.9999999999998</ele><time>2026-03-29T16:39:35Z</time></trkpt><trkpt lat="36.8762597717607" lon="-108.16414129237279"><ele>1775.0</ele><time>2026-03-29T16:39:36Z</time></trkpt><trkpt lat="36.8763274003263" lon="-108.16405839121663"><ele>1774.1666666666665</ele><time>2026-03-29T16:39:37Z</time></trkpt><trkpt lat="36.87640135758601" lon="-108.16399238033644"><ele>1773.3333333333333</ele><time>2026-03-29T16:39:38Z</time></trkpt><trkpt lat="36.87648168989483" lon="-108.16394138376201"><ele>1772.5</ele><time>2026-03-29T16:39:39Z</time></trkpt><trkpt lat="36.87654727846446" lon="-108.1638995094452"><ele>1771.6666666666665</ele><time>2026-03-29T16:39:40Z</time></trkpt><trkpt lat="36.87661345515263" lon="-108.16388353755349"><ele>1770.8333333333333</ele><time>2026-03-29T16:39:41Z</time></trkpt><trkpt lat="36.876686000315765" lon="-108.16384168892996"><ele>1770.0</ele><time>2026-03-29T16:39:42Z</time></trkpt><trkpt lat="36.87676446774287" lon="-108.16382623513492"><ele>1769.3333333333333</ele><time>2026-03-29T16:39:43Z</time></trkpt><trkpt lat="36.87683705854248" lon="-108.16384628591685"><ele>1768.6666666666665</ele><time>2026-03-29T16:39:44Z</time></trkpt><trkpt lat="36.876917232251834" lon="-108.16379468615048"><ele>1768.0</ele><time>2026-03-29T16:39:45Z</time></trkpt><trkpt lat="36.87694620395771" lon="-108.16370987553012"><ele>1767.3333333333333</ele><time>2026-03-29T16:39:46Z</time></trkpt><trkpt lat="36.87700530630509" lon="-108.16360896127274"><ele>1766.6666666666665</ele><time>2026-03-29T16:39:47Z</time></trkpt><trkpt lat="36.877065596100394" lon="-108.16353734865599"><ele>1766.0</ele><time>2026-03-29T16:39:48Z</time></trkpt><trkpt lat="36.87710713737785" lon="-108.16343078589168"><ele>1766.0</ele><time>2026-03-29T16:39:50Z</time></trkpt><trkpt lat="36.877167049537775" lon="-108.16336242914278"><ele>1766.0</ele><time>2026-03-29T16:39:51Z</time></trkpt><trkpt lat="36.877223358537194" lon="-108.16327734793748"><ele>1766.0</ele><time>2026-03-29T16:39:52Z</time></trkpt><trkpt lat="36.877244842800216" lon="-108.16317118466438"><ele>1766.0</ele><time>2026-03-29T16:39:53Z</time></trkpt><trkpt lat="36.87730251970678" lon="-108.16303051159049"><ele>1766.0</ele><time>2026-03-29T16:39:54Z</time></trkpt><trkpt lat="36.877392034466716" lon="-108.16289772477285"><ele>1765.0</ele><time>2026-03-29T16:39:55Z</time></trkpt><trkpt lat="36.87743316849328" lon="-108.16281885793416"><ele>1764.0</ele><time>2026-03-29T16:39:56Z</time></trkpt><trkpt lat="36.877612957825235" lon="-108.16276684959949"><ele>1763.0</ele><time>2026-03-29T16:39:58Z</time></trkpt><trkpt lat="36.87770645649344" lon="-108.16271736195827"><ele>1762.0</ele><time>2026-03-29T16:39:59Z</time></trkpt><trkpt lat="36.877768949687685" lon="-108.16265990988782"><ele>1761.0</ele><time>2026-03-29T16:40:00Z</time></trkpt><trkpt lat="36.87784866204191" lon="-108.16268042144662"><ele>1760.6</ele><time>2026-03-29T16:40:01Z</time></trkpt><trkpt lat="36.87795941238944" lon="-108.16276984787866"><ele>1760.1999999999998</ele><time>2026-03-29T16:40:02Z</time></trkpt><trkpt lat="36.87803478946026" lon="-108.16281133697782"><ele>1759.8000000000002</ele><time>2026-03-29T16:40:03Z</time></trkpt><trkpt lat="36.878126999767964" lon="-108.16277987714538"><ele>1759.4</ele><time>2026-03-29T16:40:04Z</time></trkpt><trkpt lat="36.87823561479722" lon="-108.16269993115249"><ele>1759.0</ele><time>2026-03-29T16:40:05Z</time></trkpt><trkpt lat="36.878304780868525" lon="-108.16259292618307"><ele>1759.0</ele><time>2026-03-29T16:40:06Z</time></trkpt><trkpt lat="36.878398536262736" lon="-108.162509279137"><ele>1759.0</ele><time>2026-03-29T16:40:07Z</time></trkpt><trkpt lat="36.878533081225605" lon="-108.16247612141264"><ele>1759.0</ele><time>2026-03-29T16:40:08Z</time></trkpt><trkpt lat="36.87866999241201" lon="-108.16246419928596"><ele>1759.0</ele><time>2026-03-29T16:40:09Z</time></trkpt><trkpt lat="36.878818989722255" lon="-108.16247065585634"><ele>1758.0</ele><time>2026-03-29T16:40:10Z</time></trkpt><trkpt lat="36.87896789529971" lon="-108.16249322908041"><ele>1757.0</ele><time>2026-03-29T16:40:11Z</time></trkpt><trkpt lat="36.879115565498125" lon="-108.16253942202381"><ele>1756.0</ele><time>2026-03-29T16:40:12Z</time></trkpt><trkpt lat="36.87927265201405" lon="-108.16262019048202"><ele>1754.6666666666667</ele><time>2026-03-29T16:40:13Z</time></trkpt><trkpt lat="36.879426629539225" lon="-108.16272526806729"><ele>1753.3333333333335</ele><time>2026-03-29T16:40:14Z</time></trkpt><trkpt lat="36.87957537626332" lon="-108.16281551324327"><ele>1752.0</ele><time>2026-03-29T16:40:15Z</time></trkpt><trkpt lat="36.879745978824715" lon="-108.16285564808742"><ele>1752.0</ele><time>2026-03-29T16:40:16Z</time></trkpt><trkpt lat="36.87992292501446" lon="-108.16283814655641"><ele>1752.0</ele><time>2026-03-29T16:40:17Z</time></trkpt><trkpt lat="36.88010424444477" lon="-108.1628016940274"><ele>1752.0</ele><time>2026-03-29T16:40:18Z</time></trkpt><trkpt lat="36.880277847310275" lon="-108.16279053048065"><ele>1751.6666666666665</ele><time>2026-03-29T16:40:19Z</time></trkpt><trkpt lat="36.88046353009342" lon="-108.16278558063681"><ele>1751.3333333333333</ele><time>2026-03-29T16:40:20Z</time></trkpt><trkpt lat="36.880641223675575" lon="-108.16274740500825"><ele>1751.0</ele><time>2026-03-29T16:40:21Z</time></trkpt><trkpt lat="36.88080158533653" lon="-108.16269636920545"><ele>1751.6666666666665</ele><time>2026-03-29T16:40:22Z</time></trkpt><trkpt lat="36.880940330918584" lon="-108.16271225234226"><ele>1752.3333333333335</ele><time>2026-03-29T16:40:23Z</time></trkpt><trkpt lat="36.881108872148744" lon="-108.16274153406488"><ele>1753.0</ele><time>2026-03-29T16:40:24Z</time></trkpt><trkpt lat="36.88128920769665" lon="-108.16281005905407"><ele>1753.0</ele><time>2026-03-29T16:40:25Z</time></trkpt><trkpt lat="36.88145015625446" lon="-108.16290775351308"><ele>1753.0</ele><time>2026-03-29T16:40:26Z</time></trkpt><trkpt lat="36.88158266923838" lon="-108.16303244357464"><ele>1753.0</ele><time>2026-03-29T16:40:27Z</time></trkpt><trkpt lat="36.88169290400914" lon="-108.16318811474882"><ele>1752.0</ele><time>2026-03-29T16:40:28Z</time></trkpt><trkpt lat="36.88179174580965" lon="-108.16336306036314"><ele>1751.0</ele><time>2026-03-29T16:40:29Z</time></trkpt><trkpt lat="36.88186960804251" lon="-108.16352887750047"><ele>1750.0</ele><time>2026-03-29T16:40:30Z</time></trkpt><trkpt lat="36.88192341704378" lon="-108.16369150544958"><ele>1750.0</ele><time>2026-03-29T16:40:31Z</time></trkpt><trkpt lat="36.88192559489256" lon="-108.16386941289599"><ele>1750.0</ele><time>2026-03-29T16:40:32Z</time></trkpt><trkpt lat="36.88189505774181" lon="-108.16404187972127"><ele>1750.0</ele><time>2026-03-29T16:40:33Z</time></trkpt><trkpt lat="36.88187541477506" lon="-108.16424694662149"><ele>1750.0</ele><time>2026-03-29T16:40:34Z</time></trkpt><trkpt lat="36.88186607799787" lon="-108.16445481048449"><ele>1749.25</ele><time>2026-03-29T16:40:35Z</time></trkpt><trkpt lat="36.881876145006075" lon="-108.16466348200748"><ele>1748.5</ele><time>2026-03-29T16:40:36Z</time></trkpt><trkpt lat="36.88189256087532" lon="-108.16485116421443"><ele>1747.75</ele><time>2026-03-29T16:40:37Z</time></trkpt><trkpt lat="36.88190278700813" lon="-108.1649859032112"><ele>1747.0</ele><time>2026-03-29T16:40:38Z</time></trkpt><trkpt lat="36.88194073119616" lon="-108.1651083075747"><ele>1747.0</ele><time>2026-03-29T16:40:40Z</time></trkpt><trkpt lat="36.88206636942535" lon="-108.16504209313365"><ele>1746.9999999999998</ele><time>2026-03-29T16:40:42Z</time></trkpt><trkpt lat="36.8821445036732" lon="-108.16497868419124"><ele>1746.9999999999998</ele><time>2026-03-29T16:40:43Z</time></trkpt><trkpt lat="36.88223367679768" lon="-108.16491545688673"><ele>1747.0</ele><time>2026-03-29T16:40:44Z</time></trkpt><trkpt lat="36.88232130333241" lon="-108.16485247492598"><ele>1747.0</ele><time>2026-03-29T16:40:45Z</time></trkpt><trkpt lat="36.88241158523083" lon="-108.16476918829869"><ele>1747.0</ele><time>2026-03-29T16:40:46Z</time></trkpt><trkpt lat="36.88251328910356" lon="-108.16466454319486"><ele>1747.0</ele><time>2026-03-29T16:40:47Z</time></trkpt><trkpt lat="36.88260079335127" lon="-108.16455531176658"><ele>1747.0</ele><time>2026-03-29T16:40:48Z</time></trkpt><trkpt lat="36.88266319835457" lon="-108.16443596394572"><ele>1747.0</ele><time>2026-03-29T16:40:49Z</time></trkpt><trkpt lat="36.882685825281314" lon="-108.16428399239746"><ele>1747.5</ele><time>2026-03-29T16:40:50Z</time></trkpt><trkpt lat="36.882659295406526" lon="-108.16410888996852"><ele>1748.0</ele><time>2026-03-29T16:40:51Z</time></trkpt><trkpt lat="36.88264366848865" lon="-108.16393103186037"><ele>1748.5</ele><time>2026-03-29T16:40:52Z</time></trkpt><trkpt lat="36.882648512733034" lon="-108.16376185836205"><ele>1749.0</ele><time>2026-03-29T16:40:53Z</time></trkpt><trkpt lat="36.88265224510637" lon="-108.16358063630284"><ele>1749.0</ele><time>2026-03-29T16:40:54Z</time></trkpt><trkpt lat="36.882668507734145" lon="-108.16339187258272"><ele>1749.0</ele><time>2026-03-29T16:40:55Z</time></trkpt><trkpt lat="36.88270505858101" lon="-108.16319510793952"><ele>1749.0</ele><time>2026-03-29T16:40:56Z</time></trkpt><trkpt lat="36.88277489723237" lon="-108.163003986769"><ele>1749.5</ele><time>2026-03-29T16:40:57Z</time></trkpt><trkpt lat="36.88284148122502" lon="-108.16283265318799"><ele>1750.0</ele><time>2026-03-29T16:40:58Z</time></trkpt><trkpt lat="36.882901383064706" lon="-108.16266997597948"><ele>1750.5</ele><time>2026-03-29T16:40:59Z</time></trkpt><trkpt lat="36.88296932704256" lon="-108.16252218686328"><ele>1751.0</ele><time>2026-03-29T16:41:00Z</time></trkpt><trkpt lat="36.88304220526537" lon="-108.16239047316515"><ele>1752.3333333333333</ele><time>2026-03-29T16:41:01Z</time></trkpt><trkpt lat="36.883134628003084" lon="-108.16225987107296"><ele>1753.6666666666665</ele><time>2026-03-29T16:41:02Z</time></trkpt><trkpt lat="36.883240180746014" lon="-108.16210903312731"><ele>1755.0</ele><time>2026-03-29T16:41:03Z</time></trkpt><trkpt lat="36.88333780122587" lon="-108.16195990937005"><ele>1755.0</ele><time>2026-03-29T16:41:04Z</time></trkpt><trkpt lat="36.88341725276425" lon="-108.16180622312176"><ele>1755.0</ele><time>2026-03-29T16:41:05Z</time></trkpt><trkpt lat="36.8834276180834" lon="-108.16167679322706"><ele>1755.0</ele><time>2026-03-29T16:41:06Z</time></trkpt><trkpt lat="36.883367417544285" lon="-108.16155792398236"><ele>1755.0</ele><time>2026-03-29T16:41:07Z</time></trkpt><trkpt lat="36.8832935778283" lon="-108.16142684829964"><ele>1755.5</ele><time>2026-03-29T16:41:08Z</time></trkpt><trkpt lat="36.8832500013811" lon="-108.16126062168212"><ele>1756.0</ele><time>2026-03-29T16:41:09Z</time></trkpt><trkpt lat="36.883219662967385" lon="-108.16108656484988"><ele>1756.5</ele><time>2026-03-29T16:41:10Z</time></trkpt><trkpt lat="36.883204894825454" lon="-108.16090846366008"><ele>1757.0</ele><time>2026-03-29T16:41:11Z</time></trkpt><trkpt lat="36.883204734555804" lon="-108.16073701887107"><ele>1757.1999999999998</ele><time>2026-03-29T16:41:12Z</time></trkpt><trkpt lat="36.88321846656281" lon="-108.16055358268038"><ele>1757.3999999999999</ele><time>2026-03-29T16:41:13Z</time></trkpt><trkpt lat="36.883241936317766" lon="-108.16042548630378"><ele>1757.6000000000001</ele><time>2026-03-29T16:41:14Z</time></trkpt><trkpt lat="36.88328080618804" lon="-108.16032498975314"><ele>1757.8000000000002</ele><time>2026-03-29T16:41:15Z</time></trkpt><trkpt lat="36.88334031748068" lon="-108.1602158049363"><ele>1758.0</ele><time>2026-03-29T16:41:16Z</time></trkpt><trkpt lat="36.883424524525545" lon="-108.16011411311223"><ele>1758.5</ele><time>2026-03-29T16:41:17Z</time></trkpt><trkpt lat="36.8835071926718" lon="-108.16000274699529"><ele>1759.0</ele><time>2026-03-29T16:41:18Z</time></trkpt><trkpt lat="36.88357848573627" lon="-108.15987886540832"><ele>1759.5</ele><time>2026-03-29T16:41:19Z</time></trkpt><trkpt lat="36.88363375377484" lon="-108.15974698286635"><ele>1760.0</ele><time>2026-03-29T16:41:20Z</time></trkpt><trkpt lat="36.88371593024887" lon="-108.15958732057643"><ele>1760.25</ele><time>2026-03-29T16:41:21Z</time></trkpt><trkpt lat="36.88377952345676" lon="-108.159415058663"><ele>1760.5</ele><time>2026-03-29T16:41:22Z</time></trkpt><trkpt lat="36.88379247836295" lon="-108.15923951237528"><ele>1760.75</ele><time>2026-03-29T16:41:23Z</time></trkpt><trkpt lat="36.883755152913295" lon="-108.15911027506193"><ele>1761.0</ele><time>2026-03-29T16:41:24Z</time></trkpt><trkpt lat="36.88369950775677" lon="-108.15900988554844"><ele>1761.0</ele><time>2026-03-29T16:41:25Z</time></trkpt><trkpt lat="36.883594791986006" lon="-108.15895403744861"><ele>1761.0</ele><time>2026-03-29T16:41:26Z</time></trkpt><trkpt lat="36.8834867940616" lon="-108.15888373610827"><ele>1761.0</ele><time>2026-03-29T16:41:27Z</time></trkpt><trkpt lat="36.88337331304517" lon="-108.15884700115457"><ele>1761.0</ele><time>2026-03-29T16:41:28Z</time></trkpt><trkpt lat="36.8833089930779" lon="-108.15877621686882"><ele>1761.0</ele><time>2026-03-29T16:41:29Z</time></trkpt><trkpt lat="36.88328713058061" lon="-108.15864809993174"><ele>1761.0</ele><time>2026-03-29T16:41:30Z</time></trkpt><trkpt lat="36.88328888945725" lon="-108.15847545481202"><ele>1761.0</ele><time>2026-03-29T16:41:31Z</time></trkpt><trkpt lat="36.88324775340309" lon="-108.15831147117916"><ele>1761.0</ele><time>2026-03-29T16:41:32Z</time></trkpt><trkpt lat="36.88319291304411" lon="-108.15814052650866"><ele>1761.0</ele><time>2026-03-29T16:41:33Z</time></trkpt><trkpt lat="36.883162473016505" lon="-108.15797709353515"><ele>1761.25</ele><time>2026-03-29T16:41:34Z</time></trkpt><trkpt lat="36.88318308436752" lon="-108.15782109676279"><ele>1761.5</ele><time>2026-03-29T16:41:35Z</time></trkpt><trkpt lat="36.88322740602062" lon="-108.1576896699722"><ele>1761.75</ele><time>2026-03-29T16:41:36Z</time></trkpt><trkpt lat="36.88331774640459" lon="-108.15758281113594"><ele>1762.0</ele><time>2026-03-29T16:41:37Z</time></trkpt><trkpt lat="36.88342399980062" lon="-108.15747090575998"><ele>1762.25</ele><time>2026-03-29T16:41:38Z</time></trkpt><trkpt lat="36.88352694562427" lon="-108.1573538506945"><ele>1762.5</ele><time>2026-03-29T16:41:39Z</time></trkpt><trkpt lat="36.883637091464635" lon="-108.15723220377238"><ele>1762.75</ele><time>2026-03-29T16:41:40Z</time></trkpt><trkpt lat="36.88376474570506" lon="-108.15711568177663"><ele>1763.0</ele><time>2026-03-29T16:41:41Z</time></trkpt><trkpt lat="36.88389790775358" lon="-108.1569851251677"><ele>1763.0</ele><time>2026-03-29T16:41:42Z</time></trkpt><trkpt lat="36.88401972613367" lon="-108.15683577079257"><ele>1763.0</ele><time>2026-03-29T16:41:43Z</time></trkpt><trkpt lat="36.88411996555704" lon="-108.15668026353747"><ele>1763.0</ele><time>2026-03-29T16:41:44Z</time></trkpt><trkpt lat="36.88416249962156" lon="-108.15652586796969"><ele>1763.5</ele><time>2026-03-29T16:41:45Z</time></trkpt><trkpt lat="36.884180827996126" lon="-108.15638869481766"><ele>1764.0</ele><time>2026-03-29T16:41:46Z</time></trkpt><trkpt lat="36.88420616457567" lon="-108.15626342250974"><ele>1764.5</ele><time>2026-03-29T16:41:47Z</time></trkpt><trkpt lat="36.88421076612048" lon="-108.15611655413282"><ele>1765.0</ele><time>2026-03-29T16:41:48Z</time></trkpt><trkpt lat="36.884209918199446" lon="-108.15594338148898"><ele>1765.0</ele><time>2026-03-29T16:41:49Z</time></trkpt><trkpt lat="36.88421786877708" lon="-108.15576238166261"><ele>1765.0</ele><time>2026-03-29T16:41:50Z</time></trkpt><trkpt lat="36.884220951267075" lon="-108.15558247219538"><ele>1765.0</ele><time>2026-03-29T16:41:51Z</time></trkpt><trkpt lat="36.88420135166803" lon="-108.15540624126595"><ele>1765.0</ele><time>2026-03-29T16:41:52Z</time></trkpt><trkpt lat="36.884178402231115" lon="-108.15527961217572"><ele>1766.25</ele><time>2026-03-29T16:41:53Z</time></trkpt><trkpt lat="36.88415967753622" lon="-108.1551754999553"><ele>1767.5</ele><time>2026-03-29T16:41:54Z</time></trkpt><trkpt lat="36.884180111878905" lon="-108.15506129326765"><ele>1768.75</ele><time>2026-03-29T16:41:55Z</time></trkpt><trkpt lat="36.88423624831805" lon="-108.1548988211631"><ele>1770.0</ele><time>2026-03-29T16:41:56Z</time></trkpt><trkpt lat="36.88428554652338" lon="-108.15472834027929"><ele>1770.3333333333335</ele><time>2026-03-29T16:41:57Z</time></trkpt><trkpt lat="36.884324088673736" lon="-108.15455184122297"><ele>1770.6666666666667</ele><time>2026-03-29T16:41:58Z</time></trkpt><trkpt lat="36.88437244315886" lon="-108.15436612824949"><ele>1771.0</ele><time>2026-03-29T16:41:59Z</time></trkpt><trkpt lat="36.88442087409635" lon="-108.15415887257396"><ele>1771.0</ele><time>2026-03-29T16:42:00Z</time></trkpt><trkpt lat="36.88445896612146" lon="-108.15393093872251"><ele>1771.0</ele><time>2026-03-29T16:42:01Z</time></trkpt><trkpt lat="36.884481882310155" lon="-108.15372947210399"><ele>1771.0</ele><time>2026-03-29T16:42:02Z</time></trkpt><trkpt lat="36.884513349489644" lon="-108.15357490099952"><ele>1771.0</ele><time>2026-03-29T16:42:03Z</time></trkpt><trkpt lat="36.88454196236218" lon="-108.15343058316948"><ele>1771.0</ele><time>2026-03-29T16:42:04Z</time></trkpt><trkpt lat="36.884569156730905" lon="-108.15331221967358"><ele>1771.0</ele><time>2026-03-29T16:42:05Z</time></trkpt><trkpt lat="36.88463134767733" lon="-108.15319571125278"><ele>1771.0</ele><time>2026-03-29T16:42:06Z</time></trkpt><trkpt lat="36.88474835131029" lon="-108.1530909468183"><ele>1771.6666666666667</ele><time>2026-03-29T16:42:07Z</time></trkpt><trkpt lat="36.88484595027754" lon="-108.15296844160066"><ele>1772.3333333333335</ele><time>2026-03-29T16:42:08Z</time></trkpt><trkpt lat="36.88493937717823" lon="-108.15280388646458"><ele>1773.0</ele><time>2026-03-29T16:42:09Z</time></trkpt><trkpt lat="36.88503839046004" lon="-108.15262456412371"><ele>1773.3333333333335</ele><time>2026-03-29T16:42:10Z</time></trkpt><trkpt lat="36.885157907113765" lon="-108.15243915739237"><ele>1773.6666666666667</ele><time>2026-03-29T16:42:11Z</time></trkpt><trkpt lat="36.885306795028264" lon="-108.15229623259951"><ele>1774.0</ele><time>2026-03-29T16:42:12Z</time></trkpt><trkpt lat="36.885426820466535" lon="-108.15218123802681"><ele>1774.25</ele><time>2026-03-29T16:42:13Z</time></trkpt><trkpt lat="36.885496799142935" lon="-108.15205281194885"><ele>1774.5</ele><time>2026-03-29T16:42:14Z</time></trkpt><trkpt lat="36.885550930105225" lon="-108.15192233602735"><ele>1774.75</ele><time>2026-03-29T16:42:15Z</time></trkpt><trkpt lat="36.885569599473" lon="-108.15176635125354"><ele>1775.0</ele><time>2026-03-29T16:42:16Z</time></trkpt><trkpt lat="36.88556222431219" lon="-108.15163686417735"><ele>1775.0</ele><time>2026-03-29T16:42:17Z</time></trkpt><trkpt lat="36.88548828807252" lon="-108.15157327628523"><ele>1775.0</ele><time>2026-03-29T16:42:18Z</time></trkpt><trkpt lat="36.88537399119706" lon="-108.15151371655624"><ele>1775.0</ele><time>2026-03-29T16:42:19Z</time></trkpt><trkpt lat="36.88526380045071" lon="-108.15141300877464"><ele>1775.0</ele><time>2026-03-29T16:42:20Z</time></trkpt><trkpt lat="36.8852389669735" lon="-108.15127833496348"><ele>1775.75</ele><time>2026-03-29T16:42:21Z</time></trkpt><trkpt lat="36.885229174257674" lon="-108.1511759737394"><ele>1776.5</ele><time>2026-03-29T16:42:22Z</time></trkpt><trkpt lat="36.88526659368298" lon="-108.1510357309902"><ele>1777.25</ele><time>2026-03-29T16:42:23Z</time></trkpt><trkpt lat="36.88531072708531" lon="-108.15090166377192"><ele>1778.0</ele><time>2026-03-29T16:42:24Z</time></trkpt><trkpt lat="36.88541807555689" lon="-108.15079155347792"><ele>1778.0</ele><time>2026-03-29T16:42:25Z</time></trkpt><trkpt lat="36.88553487331642" lon="-108.15070006878918"><ele>1778.0</ele><time>2026-03-29T16:42:26Z</time></trkpt><trkpt lat="36.885645098920996" lon="-108.15060293533992"><ele>1778.0</ele><time>2026-03-29T16:42:27Z</time></trkpt><trkpt lat="36.88573786485784" lon="-108.15047485246409"><ele>1778.0</ele><time>2026-03-29T16:42:28Z</time></trkpt><trkpt lat="36.88580646703351" lon="-108.15033999953303"><ele>1778.0</ele><time>2026-03-29T16:42:29Z</time></trkpt><trkpt lat="36.885834696829406" lon="-108.1501819177857"><ele>1778.0000000000002</ele><time>2026-03-29T16:42:30Z</time></trkpt><trkpt lat="36.88585909599303" lon="-108.1500398195265"><ele>1778.0000000000002</ele><time>2026-03-29T16:42:31Z</time></trkpt><trkpt lat="36.885893164822306" lon="-108.1499381656543"><ele>1778.0</ele><time>2026-03-29T16:42:32Z</time></trkpt><trkpt lat="36.88596591137981" lon="-108.14991843106539"><ele>1778.0</ele><time>2026-03-29T16:42:33Z</time></trkpt><trkpt lat="36.886044962714294" lon="-108.14995023998418"><ele>1777.75</ele><time>2026-03-29T16:42:34Z</time></trkpt><trkpt lat="36.886123892926314" lon="-108.14998127771823"><ele>1777.5</ele><time>2026-03-29T16:42:35Z</time></trkpt><trkpt lat="36.88622560357698" lon="-108.15002011872781"><ele>1777.25</ele><time>2026-03-29T16:42:36Z</time></trkpt><trkpt lat="36.886332030920606" lon="-108.15002661344795"><ele>1777.0</ele><time>2026-03-29T16:42:37Z</time></trkpt><trkpt lat="36.88648270823703" lon="-108.14997013477506"><ele>1777.0</ele><time>2026-03-29T16:42:38Z</time></trkpt><trkpt lat="36.88662625818743" lon="-108.14988678864856"><ele>1777.0</ele><time>2026-03-29T16:42:39Z</time></trkpt><trkpt lat="36.88676932394746" lon="-108.14978903498994"><ele>1777.0</ele><time>2026-03-29T16:42:40Z</time></trkpt><trkpt lat="36.886893693794" lon="-108.14966602215709"><ele>1778.0</ele><time>2026-03-29T16:42:41Z</time></trkpt><trkpt lat="36.88701629331147" lon="-108.14953165528867"><ele>1779.0</ele><time>2026-03-29T16:42:42Z</time></trkpt><trkpt lat="36.887123583248986" lon="-108.1494275573684"><ele>1780.0</ele><time>2026-03-29T16:42:43Z</time></trkpt><trkpt lat="36.8872530282174" lon="-108.14936797158559"><ele>1781.0</ele><time>2026-03-29T16:42:44Z</time></trkpt><trkpt lat="36.887384104753615" lon="-108.149342924443"><ele>1781.0</ele><time>2026-03-29T16:42:45Z</time></trkpt><trkpt lat="36.887460611109276" lon="-108.14928669345105"><ele>1781.0</ele><time>2026-03-29T16:42:46Z</time></trkpt><trkpt lat="36.88753535476983" lon="-108.14920848132867"><ele>1781.0</ele><time>2026-03-29T16:42:47Z</time></trkpt><trkpt lat="36.88757901556468" lon="-108.14912824241328"><ele>1781.0</ele><time>2026-03-29T16:42:48Z</time></trkpt><trkpt lat="36.88759466362173" lon="-108.14902116648094"><ele>1781.0</ele><time>2026-03-29T16:42:49Z</time></trkpt><trkpt lat="36.88761564110006" lon="-108.14888763926378"><ele>1781.5</ele><time>2026-03-29T16:42:50Z</time></trkpt><trkpt lat="36.88766300402855" lon="-108.14873711244218"><ele>1782.0</ele><time>2026-03-29T16:42:51Z</time></trkpt><trkpt lat="36.88773794930179" lon="-108.14862798125705"><ele>1782.5</ele><time>2026-03-29T16:42:52Z</time></trkpt><trkpt lat="36.887850780866174" lon="-108.14857547300808"><ele>1783.0</ele><time>2026-03-29T16:42:53Z</time></trkpt><trkpt lat="36.88797924268971" lon="-108.14852336168921"><ele>1783.0</ele><time>2026-03-29T16:42:54Z</time></trkpt><trkpt lat="36.88810991771113" lon="-108.14844974005631"><ele>1783.0000000000002</ele><time>2026-03-29T16:42:55Z</time></trkpt><trkpt lat="36.88820215011495" lon="-108.14838025338013"><ele>1783.0000000000002</ele><time>2026-03-29T16:42:56Z</time></trkpt><trkpt lat="36.8882790315266" lon="-108.14835716347757"><ele>1783.0</ele><time>2026-03-29T16:42:57Z</time></trkpt><trkpt lat="36.888350729155796" lon="-108.14833274927234"><ele>1783.0</ele><time>2026-03-29T16:42:58Z</time></trkpt><trkpt lat="36.888430202441754" lon="-108.14824790451493"><ele>1784.5</ele><time>2026-03-29T16:42:59Z</time></trkpt><trkpt lat="36.88849346400607" lon="-108.14813830704904"><ele>1786.0</ele><time>2026-03-29T16:43:00Z</time></trkpt><trkpt lat="36.888503262418766" lon="-108.14800443537953"><ele>1787.5</ele><time>2026-03-29T16:43:01Z</time></trkpt><trkpt lat="36.88860523020044" lon="-108.14791974905623"><ele>1789.0</ele><time>2026-03-29T16:43:02Z</time></trkpt><trkpt lat="36.88873388497193" lon="-108.14786205734528"><ele>1789.0</ele><time>2026-03-29T16:43:03Z</time></trkpt><trkpt lat="36.888883103346025" lon="-108.14790066694655"><ele>1789.0</ele><time>2026-03-29T16:43:04Z</time></trkpt><trkpt lat="36.88903360924843" lon="-108.14793764771727"><ele>1789.0</ele><time>2026-03-29T16:43:05Z</time></trkpt><trkpt lat="36.8891409075114" lon="-108.14792520050536"><ele>1789.0</ele><time>2026-03-29T16:43:06Z</time></trkpt><trkpt lat="36.88920734737893" lon="-108.14788416560042"><ele>1790.0</ele><time>2026-03-29T16:43:07Z</time></trkpt><trkpt lat="36.889308497340465" lon="-108.14772204707347"><ele>1791.0</ele><time>2026-03-29T16:43:09Z</time></trkpt><trkpt lat="36.889381557576016" lon="-108.14759449161888"><ele>1792.0</ele><time>2026-03-29T16:43:10Z</time></trkpt><trkpt lat="36.88945140115138" lon="-108.1474436594942"><ele>1793.0</ele><time>2026-03-29T16:43:11Z</time></trkpt><trkpt lat="36.88954683310458" lon="-108.14727421117615"><ele>1793.6666666666665</ele><time>2026-03-29T16:43:12Z</time></trkpt><trkpt lat="36.889639687347334" lon="-108.14711373566351"><ele>1794.3333333333335</ele><time>2026-03-29T16:43:13Z</time></trkpt><trkpt lat="36.88974494730677" lon="-108.14693931416876"><ele>1795.0</ele><time>2026-03-29T16:43:14Z</time></trkpt><trkpt lat="36.8898476458625" lon="-108.14677856908138"><ele>1795.0</ele><time>2026-03-29T16:43:15Z</time></trkpt><trkpt lat="36.889962375026776" lon="-108.14659600650346"><ele>1795.0</ele><time>2026-03-29T16:43:16Z</time></trkpt><trkpt lat="36.89007513004979" lon="-108.1464176919198"><ele>1795.0</ele><time>2026-03-29T16:43:17Z</time></trkpt><trkpt lat="36.890180623076276" lon="-108.14623233008132"><ele>1797.6666666666667</ele><time>2026-03-29T16:43:18Z</time></trkpt><trkpt lat="36.890296256986595" lon="-108.1460404015854"><ele>1800.3333333333335</ele><time>2026-03-29T16:43:19Z</time></trkpt><trkpt lat="36.89041409740135" lon="-108.14586024738061"><ele>1803.0</ele><time>2026-03-29T16:43:20Z</time></trkpt><trkpt lat="36.890528412606926" lon="-108.14565818097037"><ele>1804.0</ele><time>2026-03-29T16:43:21Z</time></trkpt><trkpt lat="36.89062729548343" lon="-108.14546671951634"><ele>1805.0</ele><time>2026-03-29T16:43:22Z</time></trkpt><trkpt lat="36.89070933240398" lon="-108.14527504825459"><ele>1806.0</ele><time>2026-03-29T16:43:23Z</time></trkpt><trkpt lat="36.89078770311153" lon="-108.14506026321679"><ele>1806.0</ele><time>2026-03-29T16:43:24Z</time></trkpt><trkpt lat="36.89082970613468" lon="-108.14488238134356"><ele>1806.0</ele><time>2026-03-29T16:43:25Z</time></trkpt><trkpt lat="36.890875072912216" lon="-108.14472137346115"><ele>1806.0</ele><time>2026-03-29T16:43:26Z</time></trkpt><trkpt lat="36.89091651037275" lon="-108.14457737085796"><ele>1806.0</ele><time>2026-03-29T16:43:27Z</time></trkpt><trkpt lat="36.890926317925334" lon="-108.14442596180383"><ele>1806.0</ele><time>2026-03-29T16:43:28Z</time></trkpt><trkpt lat="36.89093465949022" lon="-108.1442527149959"><ele>1806.0</ele><time>2026-03-29T16:43:29Z</time></trkpt><trkpt lat="36.89091362908226" lon="-108.14409539412367"><ele>1806.0</ele><time>2026-03-29T16:43:30Z</time></trkpt><trkpt lat="36.89088295226759" lon="-108.14394005204512"><ele>1806.0</ele><time>2026-03-29T16:43:31Z</time></trkpt><trkpt lat="36.890848826680106" lon="-108.14380284098873"><ele>1805.75</ele><time>2026-03-29T16:43:32Z</time></trkpt><trkpt lat="36.890812387993414" lon="-108.14364778541437"><ele>1805.5</ele><time>2026-03-29T16:43:33Z</time></trkpt><trkpt lat="36.89077642248546" lon="-108.14349474322393"><ele>1805.25</ele><time>2026-03-29T16:43:34Z</time></trkpt><trkpt lat="36.890927106878976" lon="-108.14337154190213"><ele>1805.0</ele><time>2026-03-29T16:43:35Z</time></trkpt><trkpt lat="36.89087360166389" lon="-108.14328388734742"><ele>1805.0</ele><time>2026-03-29T16:43:36Z</time></trkpt><trkpt lat="36.89084282047972" lon="-108.14319640835883"><ele>1805.0</ele><time>2026-03-29T16:43:38Z</time></trkpt><trkpt lat="36.89115448401756" lon="-108.14284193475687"><ele>1805.0</ele><time>2026-03-29T16:43:39Z</time></trkpt><trkpt lat="36.891064103448706" lon="-108.1427408257365"><ele>1805.0</ele><time>2026-03-29T16:43:41Z</time></trkpt><trkpt lat="36.890972327925375" lon="-108.14266391430553"><ele>1805.0</ele><time>2026-03-29T16:43:42Z</time></trkpt><trkpt lat="36.89090722887138" lon="-108.14256182316184"><ele>1805.0</ele><time>2026-03-29T16:43:43Z</time></trkpt><trkpt lat="36.8910413304076" lon="-108.14245516139549"><ele>1804.4</ele><time>2026-03-29T16:43:45Z</time></trkpt><trkpt lat="36.89113985592299" lon="-108.14240048831444"><ele>1803.8</ele><time>2026-03-29T16:43:46Z</time></trkpt><trkpt lat="36.89121437083342" lon="-108.14227084526743"><ele>1803.1999999999998</ele><time>2026-03-29T16:43:47Z</time></trkpt><trkpt lat="36.891252766381385" lon="-108.14216402814091"><ele>1802.6</ele><time>2026-03-29T16:43:48Z</time></trkpt><trkpt lat="36.89126930812489" lon="-108.14206018700435"><ele>1802.0</ele><time>2026-03-29T16:43:49Z</time></trkpt><trkpt lat="36.891298087230325" lon="-108.14196696486361"><ele>1802.1666666666665</ele><time>2026-03-29T16:43:50Z</time></trkpt><trkpt lat="36.891382068939876" lon="-108.14188086529991"><ele>1802.3333333333333</ele><time>2026-03-29T16:43:51Z</time></trkpt><trkpt lat="36.891451382874344" lon="-108.14183263870655"><ele>1802.5</ele><time>2026-03-29T16:43:52Z</time></trkpt><trkpt lat="36.89151252993313" lon="-108.14177716883518"><ele>1802.6666666666665</ele><time>2026-03-29T16:43:53Z</time></trkpt><trkpt lat="36.89156576334853" lon="-108.14169841880961"><ele>1802.8333333333333</ele><time>2026-03-29T16:43:54Z</time></trkpt><trkpt lat="36.89160452230492" lon="-108.14163585838591"><ele>1803.0</ele><time>2026-03-29T16:43:55Z</time></trkpt><trkpt lat="36.89164954796247" lon="-108.14154644028154"><ele>1803.0</ele><time>2026-03-29T16:43:56Z</time></trkpt><trkpt lat="36.8917016210254" lon="-108.14142609387842"><ele>1803.0000000000002</ele><time>2026-03-29T16:43:57Z</time></trkpt><trkpt lat="36.89169206727874" lon="-108.14131997876936"><ele>1803.0000000000002</ele><time>2026-03-29T16:43:58Z</time></trkpt><trkpt lat="36.891646922792546" lon="-108.14118408980296"><ele>1803.0</ele><time>2026-03-29T16:43:59Z</time></trkpt><trkpt lat="36.89158959135183" lon="-108.14104033015074"><ele>1803.0</ele><time>2026-03-29T16:44:00Z</time></trkpt><trkpt lat="36.891559175349265" lon="-108.14090503877712"><ele>1803.0</ele><time>2026-03-29T16:44:01Z</time></trkpt><trkpt lat="36.89156725957049" lon="-108.14078173742541"><ele>1803.0000000000002</ele><time>2026-03-29T16:44:02Z</time></trkpt><trkpt lat="36.89159281978497" lon="-108.14065027745062"><ele>1803.0000000000002</ele><time>2026-03-29T16:44:03Z</time></trkpt><trkpt lat="36.89152984990794" lon="-108.14052501062993"><ele>1803.0</ele><time>2026-03-29T16:44:05Z</time></trkpt><trkpt lat="36.89144154519911" lon="-108.14044691923893"><ele>1803.0</ele><time>2026-03-29T16:44:06Z</time></trkpt><trkpt lat="36.89134527672898" lon="-108.14037876990155"><ele>1803.0</ele><time>2026-03-29T16:44:07Z</time></trkpt><trkpt lat="36.891284556423415" lon="-108.14021824254895"><ele>1803.0</ele><time>2026-03-29T16:44:08Z</time></trkpt><trkpt lat="36.89121219984417" lon="-108.14007876383245"><ele>1803.0</ele><time>2026-03-29T16:44:09Z</time></trkpt><trkpt lat="36.891176595465524" lon="-108.13991216217372"><ele>1803.0</ele><time>2026-03-29T16:44:10Z</time></trkpt><trkpt lat="36.89117048198612" lon="-108.13976230916958"><ele>1802.5</ele><time>2026-03-29T16:44:11Z</time></trkpt><trkpt lat="36.89120440007638" lon="-108.13961489216507"><ele>1802.0</ele><time>2026-03-29T16:44:12Z</time></trkpt><trkpt lat="36.89125135447471" lon="-108.13942367120343"><ele>1801.5</ele><time>2026-03-29T16:44:13Z</time></trkpt><trkpt lat="36.89125769754334" lon="-108.13922918853805"><ele>1801.0</ele><time>2026-03-29T16:44:14Z</time></trkpt><trkpt lat="36.8912759268834" lon="-108.13910333831032"><ele>1801.0</ele><time>2026-03-29T16:44:15Z</time></trkpt><trkpt lat="36.89134025145966" lon="-108.1390071449612"><ele>1801.0</ele><time>2026-03-29T16:44:16Z</time></trkpt><trkpt lat="36.89141480848431" lon="-108.13892196427469"><ele>1801.0</ele><time>2026-03-29T16:44:17Z</time></trkpt><trkpt lat="36.891438435657484" lon="-108.13884555454169"><ele>1801.0</ele><time>2026-03-29T16:44:18Z</time></trkpt><trkpt lat="36.89146094144057" lon="-108.13873175500028"><ele>1801.0</ele><time>2026-03-29T16:44:19Z</time></trkpt><trkpt lat="36.89152393695335" lon="-108.13861787594567"><ele>1801.0</ele><time>2026-03-29T16:44:20Z</time></trkpt><trkpt lat="36.89159234697553" lon="-108.13851867497722"><ele>1801.0</ele><time>2026-03-29T16:44:21Z</time></trkpt><trkpt lat="36.89157799968812" lon="-108.13841338685884"><ele>1801.0</ele><time>2026-03-29T16:44:22Z</time></trkpt><trkpt lat="36.89154642730475" lon="-108.13831242228952"><ele>1801.0</ele><time>2026-03-29T16:44:23Z</time></trkpt><trkpt lat="36.89153368976217" lon="-108.13819922686037"><ele>1801.0</ele><time>2026-03-29T16:44:24Z</time></trkpt><trkpt lat="36.89158374227301" lon="-108.13806163033067"><ele>1801.75</ele><time>2026-03-29T16:44:25Z</time></trkpt><trkpt lat="36.89155862649891" lon="-108.13792598581615"><ele>1802.5</ele><time>2026-03-29T16:44:26Z</time></trkpt><trkpt lat="36.89154202961619" lon="-108.13777165266784"><ele>1803.25</ele><time>2026-03-29T16:44:27Z</time></trkpt><trkpt lat="36.89158597941612" lon="-108.13763140668743"><ele>1804.0</ele><time>2026-03-29T16:44:28Z</time></trkpt><trkpt lat="36.89165189995628" lon="-108.13751466701054"><ele>1804.0</ele><time>2026-03-29T16:44:29Z</time></trkpt><trkpt lat="36.89172463693475" lon="-108.13744647898247"><ele>1804.0</ele><time>2026-03-29T16:44:30Z</time></trkpt><trkpt lat="36.89180112941612" lon="-108.13736189434792"><ele>1804.0</ele><time>2026-03-29T16:44:31Z</time></trkpt><trkpt lat="36.891857887312376" lon="-108.13731800453193"><ele>1804.0</ele><time>2026-03-29T16:44:32Z</time></trkpt><trkpt lat="36.891973984376705" lon="-108.13727303942048"><ele>1804.0</ele><time>2026-03-29T16:44:33Z</time></trkpt><trkpt lat="36.892088379056986" lon="-108.13716378718398"><ele>1804.6666666666667</ele><time>2026-03-29T16:44:34Z</time></trkpt><trkpt lat="36.89217310662181" lon="-108.13707906287938"><ele>1805.3333333333335</ele><time>2026-03-29T16:44:35Z</time></trkpt><trkpt lat="36.89225129740754" lon="-108.13702659423177"><ele>1806.0</ele><time>2026-03-29T16:44:36Z</time></trkpt><trkpt lat="36.892332520165844" lon="-108.13699684472071"><ele>1806.6666666666665</ele><time>2026-03-29T16:44:37Z</time></trkpt><trkpt lat="36.892396323711665" lon="-108.13699150860612"><ele>1807.3333333333333</ele><time>2026-03-29T16:44:38Z</time></trkpt><trkpt lat="36.89246602360788" lon="-108.13700023645185"><ele>1808.0</ele><time>2026-03-29T16:44:39Z</time></trkpt><trkpt lat="36.89254581936081" lon="-108.13695112015449"><ele>1807.4</ele><time>2026-03-29T16:44:40Z</time></trkpt><trkpt lat="36.89261888916161" lon="-108.13685970977129"><ele>1806.8000000000002</ele><time>2026-03-29T16:44:41Z</time></trkpt><trkpt lat="36.892682442335115" lon="-108.13678729703086"><ele>1806.2</ele><time>2026-03-29T16:44:42Z</time></trkpt><trkpt lat="36.89273100341725" lon="-108.13672353340911"><ele>1805.6</ele><time>2026-03-29T16:44:43Z</time></trkpt><trkpt lat="36.89277227362145" lon="-108.13665917434605"><ele>1805.0</ele><time>2026-03-29T16:44:44Z</time></trkpt><trkpt lat="36.892683964466684" lon="-108.13652458182096"><ele>1805.2</ele><time>2026-03-29T16:44:46Z</time></trkpt><trkpt lat="36.89261438483348" lon="-108.13644889023749"><ele>1805.4</ele><time>2026-03-29T16:44:47Z</time></trkpt><trkpt lat="36.892587898401466" lon="-108.1363487380603"><ele>1805.6</ele><time>2026-03-29T16:44:50Z</time></trkpt><trkpt lat="36.89248352653446" lon="-108.13624704742759"><ele>1805.8</ele><time>2026-03-29T16:44:52Z</time></trkpt><trkpt lat="36.892429917266355" lon="-108.13616410750551"><ele>1806.0</ele><time>2026-03-29T16:44:53Z</time></trkpt><trkpt lat="36.892366816585955" lon="-108.13603130295112"><ele>1806.0</ele><time>2026-03-29T16:44:55Z</time></trkpt><trkpt lat="36.89232190327397" lon="-108.13587676190616"><ele>1806.0</ele><time>2026-03-29T16:44:56Z</time></trkpt><trkpt lat="36.8922855847479" lon="-108.135722837457"><ele>1806.0</ele><time>2026-03-29T16:44:57Z</time></trkpt><trkpt lat="36.89220567189694" lon="-108.13562094068979"><ele>1806.0</ele><time>2026-03-29T16:44:58Z</time></trkpt><trkpt lat="36.89208217472853" lon="-108.13553739830526"><ele>1805.8</ele><time>2026-03-29T16:44:59Z</time></trkpt><trkpt lat="36.89194898046787" lon="-108.1354440966616"><ele>1805.6</ele><time>2026-03-29T16:45:00Z</time></trkpt><trkpt lat="36.89185906726367" lon="-108.13537731129686"><ele>1805.4</ele><time>2026-03-29T16:45:01Z</time></trkpt><trkpt lat="36.891792066201866" lon="-108.13530308720253"><ele>1805.2</ele><time>2026-03-29T16:45:02Z</time></trkpt><trkpt lat="36.89173298562122" lon="-108.13522035502535"><ele>1805.0</ele><time>2026-03-29T16:45:03Z</time></trkpt><trkpt lat="36.89165597423957" lon="-108.13515561593792"><ele>1805.5</ele><time>2026-03-29T16:45:04Z</time></trkpt><trkpt lat="36.89154814636602" lon="-108.13517722904461"><ele>1806.0</ele><time>2026-03-29T16:45:05Z</time></trkpt><trkpt lat="36.891439330977946" lon="-108.13518670038984"><ele>1806.5</ele><time>2026-03-29T16:45:06Z</time></trkpt><trkpt lat="36.89132814816128" lon="-108.13513250848018"><ele>1807.0</ele><time>2026-03-29T16:45:07Z</time></trkpt><trkpt lat="36.89121789252833" lon="-108.13508251581183"><ele>1807.0</ele><time>2026-03-29T16:45:08Z</time></trkpt><trkpt lat="36.89109371960522" lon="-108.13499028404071"><ele>1807.0</ele><time>2026-03-29T16:45:09Z</time></trkpt><trkpt lat="36.89094211919414" lon="-108.13490466122978"><ele>1807.0</ele><time>2026-03-29T16:45:10Z</time></trkpt><trkpt lat="36.890792371918074" lon="-108.13479086401169"><ele>1808.25</ele><time>2026-03-29T16:45:11Z</time></trkpt><trkpt lat="36.890630992105365" lon="-108.13468952250862"><ele>1809.5</ele><time>2026-03-29T16:45:12Z</time></trkpt><trkpt lat="36.89051875207654" lon="-108.13461996881902"><ele>1810.75</ele><time>2026-03-29T16:45:13Z</time></trkpt><trkpt lat="36.89039717343131" lon="-108.13454421397564"><ele>1812.0</ele><time>2026-03-29T16:45:14Z</time></trkpt><trkpt lat="36.89028399237351" lon="-108.13447447856365"><ele>1812.0</ele><time>2026-03-29T16:45:15Z</time></trkpt><trkpt lat="36.890162492121654" lon="-108.13439340049382"><ele>1812.0</ele><time>2026-03-29T16:45:16Z</time></trkpt><trkpt lat="36.89002008881278" lon="-108.13427569533084"><ele>1812.0</ele><time>2026-03-29T16:45:17Z</time></trkpt><trkpt lat="36.88987601540577" lon="-108.13416127350743"><ele>1813.0</ele><time>2026-03-29T16:45:18Z</time></trkpt><trkpt lat="36.889761291585955" lon="-108.13406255001169"><ele>1813.9999999999998</ele><time>2026-03-29T16:45:19Z</time></trkpt><trkpt lat="36.88968229308064" lon="-108.13397808278457"><ele>1814.9999999999998</ele><time>2026-03-29T16:45:20Z</time></trkpt><trkpt lat="36.88962462998975" lon="-108.13389281026707"><ele>1816.0</ele><time>2026-03-29T16:45:21Z</time></trkpt><trkpt lat="36.8895722568869" lon="-108.13380577957908"><ele>1817.0</ele><time>2026-03-29T16:45:22Z</time></trkpt><trkpt lat="36.889488975022516" lon="-108.13375651343331"><ele>1817.0</ele><time>2026-03-29T16:45:23Z</time></trkpt><trkpt lat="36.88939091042947" lon="-108.1337135836172"><ele>1816.9999999999998</ele><time>2026-03-29T16:45:24Z</time></trkpt><trkpt lat="36.889314833328314" lon="-108.13365086643996"><ele>1816.9999999999998</ele><time>2026-03-29T16:45:25Z</time></trkpt><trkpt lat="36.88924822688469" lon="-108.13351515997478"><ele>1817.0</ele><time>2026-03-29T16:45:27Z</time></trkpt><trkpt lat="36.889257224063634" lon="-108.13339816199526"><ele>1817.0</ele><time>2026-03-29T16:45:28Z</time></trkpt><trkpt lat="36.889247134342305" lon="-108.13327575353074"><ele>1819.3999999999999</ele><time>2026-03-29T16:45:29Z</time></trkpt><trkpt lat="36.88921712783684" lon="-108.1331543154037"><ele>1821.7999999999997</ele><time>2026-03-29T16:45:30Z</time></trkpt><trkpt lat="36.88918174664987" lon="-108.1330364654452"><ele>1824.2</ele><time>2026-03-29T16:45:31Z</time></trkpt><trkpt lat="36.889173134635996" lon="-108.13292608914149"><ele>1826.6</ele><time>2026-03-29T16:45:32Z</time></trkpt><trkpt lat="36.889199877645396" lon="-108.13279881906021"><ele>1829.0</ele><time>2026-03-29T16:45:33Z</time></trkpt><trkpt lat="36.88921867429912" lon="-108.1326561927966"><ele>1829.0</ele><time>2026-03-29T16:45:34Z</time></trkpt><trkpt lat="36.88924508868917" lon="-108.13251357979459"><ele>1829.0</ele><time>2026-03-29T16:45:35Z</time></trkpt><trkpt lat="36.8892553716506" lon="-108.13239078695482"><ele>1829.0</ele><time>2026-03-29T16:45:36Z</time></trkpt><trkpt lat="36.889266112768404" lon="-108.13224429438092"><ele>1829.0</ele><time>2026-03-29T16:45:37Z</time></trkpt><trkpt lat="36.889267339803496" lon="-108.13212871305535"><ele>1829.0</ele><time>2026-03-29T16:45:38Z</time></trkpt><trkpt lat="36.889242887292156" lon="-108.1320229453284"><ele>1829.2</ele><time>2026-03-29T16:45:39Z</time></trkpt><trkpt lat="36.88920514886095" lon="-108.13190455720043"><ele>1829.4</ele><time>2026-03-29T16:45:40Z</time></trkpt><trkpt lat="36.88920337809055" lon="-108.1317713909325"><ele>1829.6</ele><time>2026-03-29T16:45:41Z</time></trkpt><trkpt lat="36.889215039499085" lon="-108.13162793591007"><ele>1829.8</ele><time>2026-03-29T16:45:42Z</time></trkpt><trkpt lat="36.889225328732444" lon="-108.13148461353659"><ele>1830.0</ele><time>2026-03-29T16:45:43Z</time></trkpt><trkpt lat="36.88922055051328" lon="-108.13134979761097"><ele>1830.0</ele><time>2026-03-29T16:45:44Z</time></trkpt><trkpt lat="36.88920218694532" lon="-108.13122749210498"><ele>1830.0</ele><time>2026-03-29T16:45:45Z</time></trkpt><trkpt lat="36.88919690577125" lon="-108.13109708193868"><ele>1830.0</ele><time>2026-03-29T16:45:46Z</time></trkpt><trkpt lat="36.8892066662306" lon="-108.13096977250026"><ele>1830.0</ele><time>2026-03-29T16:45:47Z</time></trkpt><trkpt lat="36.88919432451523" lon="-108.13086276902807"><ele>1830.0</ele><time>2026-03-29T16:45:48Z</time></trkpt><trkpt lat="36.88914976210292" lon="-108.1307292678671"><ele>1829.8</ele><time>2026-03-29T16:45:49Z</time></trkpt><trkpt lat="36.88911568503223" lon="-108.13057547794267"><ele>1829.6</ele><time>2026-03-29T16:45:50Z</time></trkpt><trkpt lat="36.88910236355319" lon="-108.13045064363402"><ele>1829.4</ele><time>2026-03-29T16:45:51Z</time></trkpt><trkpt lat="36.88907669091206" lon="-108.13034670977594"><ele>1829.2</ele><time>2026-03-29T16:45:52Z</time></trkpt><trkpt lat="36.88902972069067" lon="-108.1302443724562"><ele>1829.0</ele><time>2026-03-29T16:45:53Z</time></trkpt><trkpt lat="36.88897242081583" lon="-108.13015403407513"><ele>1829.0</ele><time>2026-03-29T16:45:54Z</time></trkpt><trkpt lat="36.888936124972965" lon="-108.13006711624591"><ele>1829.0</ele><time>2026-03-29T16:45:55Z</time></trkpt><trkpt lat="36.8889190036728" lon="-108.12993027071992"><ele>1829.0</ele><time>2026-03-29T16:45:56Z</time></trkpt><trkpt lat="36.888919868834904" lon="-108.12980736907963"><ele>1829.0</ele><time>2026-03-29T16:45:57Z</time></trkpt><trkpt lat="36.88894117166069" lon="-108.12972677685208"><ele>1829.0</ele><time>2026-03-29T16:45:59Z</time></trkpt><trkpt lat="36.88902224847316" lon="-108.12964640079278"><ele>1828.8000000000002</ele><time>2026-03-29T16:46:01Z</time></trkpt><trkpt lat="36.889065142158515" lon="-108.12957418067143"><ele>1828.6000000000001</ele><time>2026-03-29T16:46:02Z</time></trkpt><trkpt lat="36.88909785852621" lon="-108.12947160379045"><ele>1828.4</ele><time>2026-03-29T16:46:03Z</time></trkpt><trkpt lat="36.88913618180525" lon="-108.12936029465811"><ele>1828.2</ele><time>2026-03-29T16:46:04Z</time></trkpt><trkpt lat="36.88915747377317" lon="-108.12920164036136"><ele>1828.0</ele><time>2026-03-29T16:46:05Z</time></trkpt><trkpt lat="36.889194611293185" lon="-108.12904949310668"><ele>1827.5</ele><time>2026-03-29T16:46:06Z</time></trkpt><trkpt lat="36.88924681772875" lon="-108.12891562658312"><ele>1827.0</ele><time>2026-03-29T16:46:07Z</time></trkpt><trkpt lat="36.889271928325115" lon="-108.1287922062513"><ele>1826.5</ele><time>2026-03-29T16:46:08Z</time></trkpt><trkpt lat="36.889291348304" lon="-108.1286262765136"><ele>1826.0</ele><time>2026-03-29T16:46:09Z</time></trkpt><trkpt lat="36.88933344150896" lon="-108.12847418038386"><ele>1825.0</ele><time>2026-03-29T16:46:10Z</time></trkpt><trkpt lat="36.889375191212224" lon="-108.12832099755366"><ele>1824.0</ele><time>2026-03-29T16:46:11Z</time></trkpt><trkpt lat="36.88939572045305" lon="-108.12816570961385"><ele>1823.0</ele><time>2026-03-29T16:46:12Z</time></trkpt><trkpt lat="36.88942803730469" lon="-108.12802537239833"><ele>1822.0</ele><time>2026-03-29T16:46:13Z</time></trkpt><trkpt lat="36.88946220237816" lon="-108.12791175350002"><ele>1822.0</ele><time>2026-03-29T16:46:14Z</time></trkpt><trkpt lat="36.889505857120476" lon="-108.12780423740809"><ele>1822.0</ele><time>2026-03-29T16:46:15Z</time></trkpt><trkpt lat="36.88962885288737" lon="-108.12774730505612"><ele>1822.0</ele><time>2026-03-29T16:46:17Z</time></trkpt><trkpt lat="36.88976063440389" lon="-108.12771742537464"><ele>1822.0</ele><time>2026-03-29T16:46:18Z</time></trkpt><trkpt lat="36.88987631500535" lon="-108.12768615717675"><ele>1822.0</ele><time>2026-03-29T16:46:19Z</time></trkpt><trkpt lat="36.88999977135589" lon="-108.12766908258716"><ele>1821.9999999999998</ele><time>2026-03-29T16:46:20Z</time></trkpt><trkpt lat="36.890103277663606" lon="-108.1276316021722"><ele>1821.9999999999998</ele><time>2026-03-29T16:46:21Z</time></trkpt><trkpt lat="36.89015799169078" lon="-108.12753797653139"><ele>1822.0</ele><time>2026-03-29T16:46:22Z</time></trkpt><trkpt lat="36.89019972928513" lon="-108.12741571916727"><ele>1822.0</ele><time>2026-03-29T16:46:23Z</time></trkpt><trkpt lat="36.890277170367" lon="-108.12732453773312"><ele>1822.5</ele><time>2026-03-29T16:46:24Z</time></trkpt><trkpt lat="36.890286132956575" lon="-108.12723748224981"><ele>1823.0</ele><time>2026-03-29T16:46:25Z</time></trkpt><trkpt lat="36.8902504247371" lon="-108.12709762990956"><ele>1823.5</ele><time>2026-03-29T16:46:26Z</time></trkpt><trkpt lat="36.890204966032734" lon="-108.12691840994773"><ele>1824.0</ele><time>2026-03-29T16:46:27Z</time></trkpt><trkpt lat="36.8901887994842" lon="-108.12675179157367"><ele>1824.0</ele><time>2026-03-29T16:46:28Z</time></trkpt><trkpt lat="36.8902114305835" lon="-108.12659347917939"><ele>1824.0</ele><time>2026-03-29T16:46:29Z</time></trkpt><trkpt lat="36.8902442369537" lon="-108.12645109055029"><ele>1824.0</ele><time>2026-03-29T16:46:30Z</time></trkpt><trkpt lat="36.890291066206395" lon="-108.12636965192654"><ele>1824.0</ele><time>2026-03-29T16:46:31Z</time></trkpt><trkpt lat="36.89034528933394" lon="-108.12630527717837"><ele>1824.0</ele><time>2026-03-29T16:46:32Z</time></trkpt><trkpt lat="36.89045123280494" lon="-108.12626356906065"><ele>1824.0</ele><time>2026-03-29T16:46:33Z</time></trkpt><trkpt lat="36.89057336960158" lon="-108.1262214764541"><ele>1824.0</ele><time>2026-03-29T16:46:34Z</time></trkpt><trkpt lat="36.89069936145583" lon="-108.12617943130222"><ele>1824.0</ele><time>2026-03-29T16:46:35Z</time></trkpt><trkpt lat="36.89079390655304" lon="-108.12610363240802"><ele>1824.0</ele><time>2026-03-29T16:46:36Z</time></trkpt><trkpt lat="36.89087056248385" lon="-108.1260137849382"><ele>1823.0</ele><time>2026-03-29T16:46:37Z</time></trkpt><trkpt lat="36.89100014012478" lon="-108.12596443828593"><ele>1822.0</ele><time>2026-03-29T16:46:38Z</time></trkpt><trkpt lat="36.89110231898499" lon="-108.12593865218341"><ele>1821.0</ele><time>2026-03-29T16:46:39Z</time></trkpt><trkpt lat="36.89121265643548" lon="-108.12591018684014"><ele>1820.0</ele><time>2026-03-29T16:46:40Z</time></trkpt><trkpt lat="36.89131548184812" lon="-108.12587931937196"><ele>1820.0</ele><time>2026-03-29T16:46:41Z</time></trkpt><trkpt lat="36.8914135987298" lon="-108.12585108619534"><ele>1820.0</ele><time>2026-03-29T16:46:42Z</time></trkpt><trkpt lat="36.89148586356476" lon="-108.1257936990143"><ele>1820.0</ele><time>2026-03-29T16:46:43Z</time></trkpt><trkpt lat="36.891566627458246" lon="-108.12573810059571"><ele>1820.0</ele><time>2026-03-29T16:46:44Z</time></trkpt><trkpt lat="36.89168861240411" lon="-108.12569486235769"><ele>1820.0</ele><time>2026-03-29T16:46:45Z</time></trkpt><trkpt lat="36.89184670856541" lon="-108.12563493756625"><ele>1818.6666666666665</ele><time>2026-03-29T16:46:46Z</time></trkpt><trkpt lat="36.89202527771052" lon="-108.12555931451928"><ele>1817.3333333333335</ele><time>2026-03-29T16:46:47Z</time></trkpt><trkpt lat="36.89221312595236" lon="-108.12551463318572"><ele>1816.0</ele><time>2026-03-29T16:46:48Z</time></trkpt><trkpt lat="36.892377392047706" lon="-108.12549702792087"><ele>1816.0</ele><time>2026-03-29T16:46:49Z</time></trkpt><trkpt lat="36.89252351623387" lon="-108.12549745863545"><ele>1816.0</ele><time>2026-03-29T16:46:50Z</time></trkpt><trkpt lat="36.89269129484431" lon="-108.12551616329102"><ele>1816.0</ele><time>2026-03-29T16:46:51Z</time></trkpt><trkpt lat="36.89289541266" lon="-108.12554846149865"><ele>1816.0</ele><time>2026-03-29T16:46:52Z</time></trkpt><trkpt lat="36.89306319341616" lon="-108.12554173210184"><ele>1816.0</ele><time>2026-03-29T16:46:53Z</time></trkpt><trkpt lat="36.893252169585" lon="-108.12552790753807"><ele>1816.0</ele><time>2026-03-29T16:46:54Z</time></trkpt><trkpt lat="36.89340511871252" lon="-108.12550117985283"><ele>1815.75</ele><time>2026-03-29T16:46:55Z</time></trkpt><trkpt lat="36.89352418007354" lon="-108.12545466278378"><ele>1815.5</ele><time>2026-03-29T16:46:56Z</time></trkpt><trkpt lat="36.893642841942054" lon="-108.12540753207344"><ele>1815.25</ele><time>2026-03-29T16:46:57Z</time></trkpt><trkpt lat="36.893763892920774" lon="-108.12534932644674"><ele>1815.0</ele><time>2026-03-29T16:46:58Z</time></trkpt><trkpt lat="36.89388691228105" lon="-108.1252864380116"><ele>1815.0</ele><time>2026-03-29T16:46:59Z</time></trkpt><trkpt lat="36.89403925876771" lon="-108.12522513815205"><ele>1815.0</ele><time>2026-03-29T16:47:00Z</time></trkpt><trkpt lat="36.894194815612835" lon="-108.12514837149988"><ele>1815.0</ele><time>2026-03-29T16:47:01Z</time></trkpt><trkpt lat="36.894345196718554" lon="-108.12507856512501"><ele>1814.3333333333335</ele><time>2026-03-29T16:47:02Z</time></trkpt><trkpt lat="36.89454857806073" lon="-108.12501432978274"><ele>1813.6666666666667</ele><time>2026-03-29T16:47:03Z</time></trkpt><trkpt lat="36.89476582110995" lon="-108.12496156268635"><ele>1813.0</ele><time>2026-03-29T16:47:04Z</time></trkpt><trkpt lat="36.89494653659053" lon="-108.12492524154536"><ele>1813.5</ele><time>2026-03-29T16:47:05Z</time></trkpt><trkpt lat="36.89506707990282" lon="-108.12489376409391"><ele>1814.0</ele><time>2026-03-29T16:47:06Z</time></trkpt><trkpt lat="36.89514197680135" lon="-108.12480789302693"><ele>1814.5</ele><time>2026-03-29T16:47:07Z</time></trkpt><trkpt lat="36.895214865627814" lon="-108.12466507177737"><ele>1815.0</ele><time>2026-03-29T16:47:08Z</time></trkpt><trkpt lat="36.89527204851803" lon="-108.12448194819697"><ele>1815.6666666666665</ele><time>2026-03-29T16:47:09Z</time></trkpt><trkpt lat="36.89531130944095" lon="-108.12428386554366"><ele>1816.3333333333333</ele><time>2026-03-29T16:47:10Z</time></trkpt><trkpt lat="36.895321459759636" lon="-108.12407194600979"><ele>1817.0</ele><time>2026-03-29T16:47:11Z</time></trkpt><trkpt lat="36.89532336118588" lon="-108.12385497524762"><ele>1818.0</ele><time>2026-03-29T16:47:12Z</time></trkpt><trkpt lat="36.895358956134956" lon="-108.12362080293308"><ele>1819.0</ele><time>2026-03-29T16:47:13Z</time></trkpt><trkpt lat="36.895386152865946" lon="-108.12337257009278"><ele>1820.0</ele><time>2026-03-29T16:47:14Z</time></trkpt><trkpt lat="36.89539496063251" lon="-108.1231194287257"><ele>1820.5</ele><time>2026-03-29T16:47:15Z</time></trkpt><trkpt lat="36.89539943984649" lon="-108.12291710115075"><ele>1821.0</ele><time>2026-03-29T16:47:16Z</time></trkpt><trkpt lat="36.89542031641515" lon="-108.12275274449377"><ele>1821.5</ele><time>2026-03-29T16:47:17Z</time></trkpt><trkpt lat="36.8954451846787" lon="-108.12263446972504"><ele>1822.0</ele><time>2026-03-29T16:47:18Z</time></trkpt><trkpt lat="36.89547769668953" lon="-108.12256068452766"><ele>1822.0</ele><time>2026-03-29T16:47:19Z</time></trkpt><trkpt lat="36.89563787294569" lon="-108.1225952846694"><ele>1822.0</ele><time>2026-03-29T16:47:21Z</time></trkpt><trkpt lat="36.89575905547144" lon="-108.12264388804226"><ele>1822.0</ele><time>2026-03-29T16:47:22Z</time></trkpt><trkpt lat="36.895893834697326" lon="-108.12266943893579"><ele>1822.0</ele><time>2026-03-29T16:47:23Z</time></trkpt><trkpt lat="36.8960439133763" lon="-108.12270355654881"><ele>1822.25</ele><time>2026-03-29T16:47:24Z</time></trkpt><trkpt lat="36.89620452976003" lon="-108.12273242636647"><ele>1822.5</ele><time>2026-03-29T16:47:25Z</time></trkpt><trkpt lat="36.89635039380967" lon="-108.12275612864272"><ele>1822.75</ele><time>2026-03-29T16:47:26Z</time></trkpt><trkpt lat="36.896440791480714" lon="-108.12278122371124"><ele>1823.0</ele><time>2026-03-29T16:47:27Z</time></trkpt><trkpt lat="36.89653195836698" lon="-108.12282642996027"><ele>1823.0</ele><time>2026-03-29T16:47:28Z</time></trkpt><trkpt lat="36.896611147643625" lon="-108.12287718723653"><ele>1823.0000000000002</ele><time>2026-03-29T16:47:29Z</time></trkpt><trkpt lat="36.89667865911862" lon="-108.1228887343673"><ele>1823.0000000000002</ele><time>2026-03-29T16:47:31Z</time></trkpt><trkpt lat="36.89668896690678" lon="-108.12276557162649"><ele>1823.0</ele><time>2026-03-29T16:47:33Z</time></trkpt><trkpt lat="36.89661932262607" lon="-108.12266632502468"><ele>1823.0</ele><time>2026-03-29T16:47:34Z</time></trkpt><trkpt lat="36.89657487875206" lon="-108.12256426350454"><ele>1823.0</ele><time>2026-03-29T16:47:35Z</time></trkpt><trkpt lat="36.89658940371399" lon="-108.12245191159998"><ele>1823.0000000000002</ele><time>2026-03-29T16:47:36Z</time></trkpt><trkpt lat="36.896644420646304" lon="-108.12235460787294"><ele>1823.0000000000002</ele><time>2026-03-29T16:47:37Z</time></trkpt><trkpt lat="36.89668431988329" lon="-108.12228597020139"><ele>1823.0</ele><time>2026-03-29T16:47:38Z</time></trkpt><trkpt lat="36.89656360263447" lon="-108.12216343062342"><ele>1823.0</ele><time>2026-03-29T16:47:40Z</time></trkpt><trkpt lat="36.896465435552365" lon="-108.12209968717735"><ele>1823.6666666666665</ele><time>2026-03-29T16:47:41Z</time></trkpt><trkpt lat="36.89641284014454" lon="-108.12202688450779"><ele>1824.3333333333333</ele><time>2026-03-29T16:47:42Z</time></trkpt><trkpt lat="36.896385884392004" lon="-108.12195219793078"><ele>1825.0</ele><time>2026-03-29T16:47:43Z</time></trkpt><trkpt lat="36.896376560350674" lon="-108.12185542860662"><ele>1825.6666666666665</ele><time>2026-03-29T16:47:44Z</time></trkpt><trkpt lat="36.89639253840324" lon="-108.12176189636551"><ele>1826.3333333333333</ele><time>2026-03-29T16:47:45Z</time></trkpt><trkpt lat="36.896442312904206" lon="-108.1216796483846"><ele>1827.0</ele><time>2026-03-29T16:47:47Z</time></trkpt><trkpt lat="36.896526011208195" lon="-108.12159900067894"><ele>1827.3999999999999</ele><time>2026-03-29T16:47:49Z</time></trkpt><trkpt lat="36.896549161733276" lon="-108.12151201436572"><ele>1827.7999999999997</ele><time>2026-03-29T16:47:50Z</time></trkpt><trkpt lat="36.89660074813325" lon="-108.12142553599928"><ele>1828.2</ele><time>2026-03-29T16:47:51.001Z</time></trkpt><trkpt lat="36.896641387133016" lon="-108.12130296812414"><ele>1828.6</ele><time>2026-03-29T16:47:52.001Z</time></trkpt><trkpt lat="36.89669886550522" lon="-108.12117430283192"><ele>1829.0</ele><time>2026-03-29T16:47:53.001Z</time></trkpt><trkpt lat="36.896769275589214" lon="-108.1210338463387"><ele>1829.6666666666665</ele><time>2026-03-29T16:47:54.001Z</time></trkpt><trkpt lat="36.8968190852442" lon="-108.1209417556304"><ele>1830.3333333333333</ele><time>2026-03-29T16:47:55.001Z</time></trkpt><trkpt lat="36.89686840540639" lon="-108.12087710679401"><ele>1831.0</ele><time>2026-03-29T16:47:56.001Z</time></trkpt><trkpt lat="36.89689530816684" lon="-108.12079030090186"><ele>1831.6666666666665</ele><time>2026-03-29T16:47:57.001Z</time></trkpt><trkpt lat="36.89695473135785" lon="-108.12070868081665"><ele>1832.3333333333333</ele><time>2026-03-29T16:47:58.001Z</time></trkpt><trkpt lat="36.89704366213183" lon="-108.12067539953463"><ele>1833.0</ele><time>2026-03-29T16:47:59.001Z</time></trkpt><trkpt lat="36.89710695178328" lon="-108.12062229224411"><ele>1833.2</ele><time>2026-03-29T16:48:00.001Z</time></trkpt><trkpt lat="36.89713789548929" lon="-108.12054554632087"><ele>1833.4</ele><time>2026-03-29T16:48:01.001Z</time></trkpt><trkpt lat="36.8972145322783" lon="-108.12045699667422"><ele>1833.6000000000001</ele><time>2026-03-29T16:48:02.001Z</time></trkpt><trkpt lat="36.8972854483221" lon="-108.12031328243701"><ele>1833.8000000000002</ele><time>2026-03-29T16:48:03.001Z</time></trkpt><trkpt lat="36.89732035427566" lon="-108.12016931579036"><ele>1834.0</ele><time>2026-03-29T16:48:04.001Z</time></trkpt><trkpt lat="36.89734771804365" lon="-108.12004992301051"><ele>1834.0000000000002</ele><time>2026-03-29T16:48:05.001Z</time></trkpt><trkpt lat="36.89738507414058" lon="-108.11994115608023"><ele>1834.0</ele><time>2026-03-29T16:48:06.001Z</time></trkpt><trkpt lat="36.897428146988965" lon="-108.11985337941324"><ele>1834.0</ele><time>2026-03-29T16:48:07.001Z</time></trkpt><trkpt lat="36.89746484977784" lon="-108.119775175426"><ele>1834.0</ele><time>2026-03-29T16:48:08Z</time></trkpt><trkpt lat="36.897545934226095" lon="-108.11971139094916"><ele>1834.0000000000002</ele><time>2026-03-29T16:48:09Z</time></trkpt><trkpt lat="36.89762927258848" lon="-108.11966147381499"><ele>1834.0</ele><time>2026-03-29T16:48:10Z</time></trkpt><trkpt lat="36.89771635507125" lon="-108.11960236523862"><ele>1834.25</ele><time>2026-03-29T16:48:11Z</time></trkpt><trkpt lat="36.897795682254966" lon="-108.11950147006668"><ele>1834.5</ele><time>2026-03-29T16:48:12Z</time></trkpt><trkpt lat="36.89787715980872" lon="-108.1193266693853"><ele>1834.75</ele><time>2026-03-29T16:48:13Z</time></trkpt><trkpt lat="36.89796772026478" lon="-108.1191855107337"><ele>1835.0</ele><time>2026-03-29T16:48:14Z</time></trkpt><trkpt lat="36.89806510105044" lon="-108.11912737776598"><ele>1835.0</ele><time>2026-03-29T16:48:15Z</time></trkpt><trkpt lat="36.89817358787605" lon="-108.11909850657499"><ele>1835.0</ele><time>2026-03-29T16:48:16Z</time></trkpt><trkpt lat="36.89829076269794" lon="-108.11907228509631"><ele>1835.0</ele><time>2026-03-29T16:48:17Z</time></trkpt><trkpt lat="36.89835746550388" lon="-108.11905071264825"><ele>1835.0</ele><time>2026-03-29T16:48:18Z</time></trkpt><trkpt lat="36.89843178153994" lon="-108.11899637805875"><ele>1835.0</ele><time>2026-03-29T16:48:19Z</time></trkpt><trkpt lat="36.89851980089431" lon="-108.118902043452"><ele>1834.5</ele><time>2026-03-29T16:48:20Z</time></trkpt><trkpt lat="36.89861246488306" lon="-108.11881012587286"><ele>1834.0</ele><time>2026-03-29T16:48:21Z</time></trkpt><trkpt lat="36.89870735659712" lon="-108.1187125313375"><ele>1833.5</ele><time>2026-03-29T16:48:22Z</time></trkpt><trkpt lat="36.89881232131422" lon="-108.1186217456139"><ele>1833.0</ele><time>2026-03-29T16:48:23Z</time></trkpt><trkpt lat="36.898849218754016" lon="-108.11852488634476"><ele>1833.0</ele><time>2026-03-29T16:48:24Z</time></trkpt><trkpt lat="36.898886439101325" lon="-108.11842010108793"><ele>1833.0000000000002</ele><time>2026-03-29T16:48:25Z</time></trkpt><trkpt lat="36.89895590601982" lon="-108.11829721001386"><ele>1833.0000000000002</ele><time>2026-03-29T16:48:26Z</time></trkpt><trkpt lat="36.89903643344626" lon="-108.11821887071399"><ele>1833.0</ele><time>2026-03-29T16:48:27Z</time></trkpt><trkpt lat="36.89908219385498" lon="-108.11815190226828"><ele>1833.0</ele><time>2026-03-29T16:48:28Z</time></trkpt><trkpt lat="36.89913607092623" lon="-108.11808858482318"><ele>1833.0</ele><time>2026-03-29T16:48:29Z</time></trkpt><trkpt lat="36.899190323841154" lon="-108.11799101802977"><ele>1833.0000000000002</ele><time>2026-03-29T16:48:30Z</time></trkpt><trkpt lat="36.89926530052482" lon="-108.11792648158257"><ele>1833.0000000000002</ele><time>2026-03-29T16:48:31Z</time></trkpt><trkpt lat="36.89935531935889" lon="-108.1178502729435"><ele>1833.0</ele><time>2026-03-29T16:48:32Z</time></trkpt><trkpt lat="36.89942590471641" lon="-108.11777250139204"><ele>1833.0</ele><time>2026-03-29T16:48:33Z</time></trkpt><trkpt lat="36.89950297848833" lon="-108.11768342272592"><ele>1832.75</ele><time>2026-03-29T16:48:34Z</time></trkpt><trkpt lat="36.8996316574521" lon="-108.11761374788479"><ele>1832.5</ele><time>2026-03-29T16:48:35Z</time></trkpt><trkpt lat="36.89973270231261" lon="-108.11750515283198"><ele>1832.25</ele><time>2026-03-29T16:48:36Z</time></trkpt><trkpt lat="36.89978644869789" lon="-108.11737123281284"><ele>1832.0</ele><time>2026-03-29T16:48:37Z</time></trkpt><trkpt lat="36.89987321467601" lon="-108.11724537523672"><ele>1832.3999999999999</ele><time>2026-03-29T16:48:38Z</time></trkpt><trkpt lat="36.89996252418535" lon="-108.11717510163152"><ele>1832.7999999999997</ele><time>2026-03-29T16:48:39Z</time></trkpt><trkpt lat="36.90004695969145" lon="-108.11710013246514"><ele>1833.2</ele><time>2026-03-29T16:48:40Z</time></trkpt><trkpt lat="36.90010165595945" lon="-108.11698956586095"><ele>1833.6</ele><time>2026-03-29T16:48:41Z</time></trkpt><trkpt lat="36.90017306896101" lon="-108.11692548353237"><ele>1834.0</ele><time>2026-03-29T16:48:42Z</time></trkpt><trkpt lat="36.90027145632549" lon="-108.11688792563545"><ele>1834.0</ele><time>2026-03-29T16:48:43Z</time></trkpt><trkpt lat="36.90036661793289" lon="-108.11682675567646"><ele>1834.0</ele><time>2026-03-29T16:48:44Z</time></trkpt><trkpt lat="36.90043171426056" lon="-108.11673340925176"><ele>1834.0</ele><time>2026-03-29T16:48:45Z</time></trkpt><trkpt lat="36.9004736121846" lon="-108.1165796480058"><ele>1834.0</ele><time>2026-03-29T16:48:46Z</time></trkpt><trkpt lat="36.900515590521444" lon="-108.11640815124905"><ele>1834.75</ele><time>2026-03-29T16:48:47Z</time></trkpt><trkpt lat="36.90059355938669" lon="-108.11622501608248"><ele>1835.5</ele><time>2026-03-29T16:48:48Z</time></trkpt><trkpt lat="36.900659024845744" lon="-108.11607075742911"><ele>1836.25</ele><time>2026-03-29T16:48:49Z</time></trkpt><trkpt lat="36.90071558614559" lon="-108.11593318586561"><ele>1837.0</ele><time>2026-03-29T16:48:50Z</time></trkpt><trkpt lat="36.90077273628645" lon="-108.1157960274461"><ele>1838.0</ele><time>2026-03-29T16:48:51Z</time></trkpt><trkpt lat="36.90084100314634" lon="-108.11564008098222"><ele>1839.0</ele><time>2026-03-29T16:48:52Z</time></trkpt><trkpt lat="36.90089714442143" lon="-108.11550058780266"><ele>1840.0</ele><time>2026-03-29T16:48:53Z</time></trkpt><trkpt lat="36.90092359429205" lon="-108.11536308387562"><ele>1841.0</ele><time>2026-03-29T16:48:54Z</time></trkpt><trkpt lat="36.90092586973669" lon="-108.11522637649136"><ele>1841.4</ele><time>2026-03-29T16:48:55Z</time></trkpt><trkpt lat="36.90097521848707" lon="-108.11516886712683"><ele>1841.8</ele><time>2026-03-29T16:48:56Z</time></trkpt><trkpt lat="36.90107283691069" lon="-108.11519028395911"><ele>1842.2000000000003</ele><time>2026-03-29T16:48:57Z</time></trkpt><trkpt lat="36.901185489727574" lon="-108.11522446241273"><ele>1842.6000000000001</ele><time>2026-03-29T16:48:58Z</time></trkpt><trkpt lat="36.901313627720256" lon="-108.11526285761393"><ele>1843.0</ele><time>2026-03-29T16:48:59Z</time></trkpt><trkpt lat="36.90147194822521" lon="-108.1153122800286"><ele>1843.0</ele><time>2026-03-29T16:49:00Z</time></trkpt><trkpt lat="36.90165197613841" lon="-108.11533288687738"><ele>1843.0</ele><time>2026-03-29T16:49:01Z</time></trkpt><trkpt lat="36.90185137289426" lon="-108.11535869346208"><ele>1843.0</ele><time>2026-03-29T16:49:02Z</time></trkpt><trkpt lat="36.90203559739246" lon="-108.11540811964332"><ele>1843.4</ele><time>2026-03-29T16:49:03Z</time></trkpt><trkpt lat="36.90218497598965" lon="-108.11542970578721"><ele>1843.8000000000002</ele><time>2026-03-29T16:49:04Z</time></trkpt><trkpt lat="36.9022928177738" lon="-108.11543601562823"><ele>1844.2</ele><time>2026-03-29T16:49:05Z</time></trkpt><trkpt lat="36.902392886067055" lon="-108.1154321144729"><ele>1844.6</ele><time>2026-03-29T16:49:06Z</time></trkpt><trkpt lat="36.90246923351954" lon="-108.11541575239514"><ele>1845.0</ele><time>2026-03-29T16:49:07Z</time></trkpt><trkpt lat="36.9025558858237" lon="-108.11532219261231"><ele>1844.8</ele><time>2026-03-29T16:49:09Z</time></trkpt><trkpt lat="36.90262863879897" lon="-108.11526261920716"><ele>1844.6</ele><time>2026-03-29T16:49:10Z</time></trkpt><trkpt lat="36.902719329910106" lon="-108.1152197169338"><ele>1844.4</ele><time>2026-03-29T16:49:11Z</time></trkpt><trkpt lat="36.90281014212653" lon="-108.11518354798237"><ele>1844.2</ele><time>2026-03-29T16:49:11.999Z</time></trkpt><trkpt lat="36.90289536730431" lon="-108.11510298046782"><ele>1844.0</ele><time>2026-03-29T16:49:12.999Z</time></trkpt><trkpt lat="36.902975274190545" lon="-108.11496451976001"><ele>1845.0</ele><time>2026-03-29T16:49:13.999Z</time></trkpt><trkpt lat="36.90307044247065" lon="-108.11481004820233"><ele>1846.0</ele><time>2026-03-29T16:49:14.999Z</time></trkpt><trkpt lat="36.903171307466444" lon="-108.11469627377225"><ele>1847.0</ele><time>2026-03-29T16:49:15.999Z</time></trkpt><trkpt lat="36.90326016236322" lon="-108.11458291226738"><ele>1848.0</ele><time>2026-03-29T16:49:16.999Z</time></trkpt><trkpt lat="36.90334000593132" lon="-108.11446447273805"><ele>1847.25</ele><time>2026-03-29T16:49:17.999Z</time></trkpt><trkpt lat="36.903457024924954" lon="-108.11451477089871"><ele>1846.5</ele><time>2026-03-29T16:49:19.999Z</time></trkpt><trkpt lat="36.90358341230742" lon="-108.11453258568092"><ele>1845.75</ele><time>2026-03-29T16:49:20.999Z</time></trkpt><trkpt lat="36.90367651874408" lon="-108.1145257310058"><ele>1845.0</ele><time>2026-03-29T16:49:21.999Z</time></trkpt><trkpt lat="36.90373944143996" lon="-108.11438760109941"><ele>1845.0</ele><time>2026-03-29T16:49:23.999Z</time></trkpt><trkpt lat="36.90373699430869" lon="-108.1142716313657"><ele>1845.0</ele><time>2026-03-29T16:49:24.999Z</time></trkpt><trkpt lat="36.9037276759783" lon="-108.11415019788905"><ele>1845.0</ele><time>2026-03-29T16:49:25.999Z</time></trkpt><trkpt lat="36.90379596913205" lon="-108.11401043405601"><ele>1845.0</ele><time>2026-03-29T16:49:26.999Z</time></trkpt><trkpt lat="36.90391846436588" lon="-108.11389110814386"><ele>1845.0</ele><time>2026-03-29T16:49:27.999Z</time></trkpt><trkpt lat="36.90403243810963" lon="-108.11372534048196"><ele>1845.0</ele><time>2026-03-29T16:49:28.999Z</time></trkpt><trkpt lat="36.90411735179277" lon="-108.1135904888479"><ele>1845.0</ele><time>2026-03-29T16:49:29.999Z</time></trkpt><trkpt lat="36.904210805194126" lon="-108.11350652098362"><ele>1845.0</ele><time>2026-03-29T16:49:30.999Z</time></trkpt><trkpt lat="36.90432960099047" lon="-108.11340420359943"><ele>1844.6666666666665</ele><time>2026-03-29T16:49:31.999Z</time></trkpt><trkpt lat="36.90441247261432" lon="-108.11327314503832"><ele>1844.3333333333333</ele><time>2026-03-29T16:49:32.999Z</time></trkpt><trkpt lat="36.90453279821549" lon="-108.11310387993846"><ele>1844.0</ele><time>2026-03-29T16:49:33.999Z</time></trkpt><trkpt lat="36.90466862741244" lon="-108.11295864627895"><ele>1843.6666666666665</ele><time>2026-03-29T16:49:34.999Z</time></trkpt><trkpt lat="36.904776693096395" lon="-108.11285241634768"><ele>1843.3333333333335</ele><time>2026-03-29T16:49:35.999Z</time></trkpt><trkpt lat="36.90491967772474" lon="-108.11273226349665"><ele>1843.0</ele><time>2026-03-29T16:49:36.999Z</time></trkpt><trkpt lat="36.90510419351301" lon="-108.1126135152906"><ele>1843.0</ele><time>2026-03-29T16:49:37.999Z</time></trkpt><trkpt lat="36.90530307077051" lon="-108.11255649480493"><ele>1843.0</ele><time>2026-03-29T16:49:38.999Z</time></trkpt><trkpt lat="36.9054906205274" lon="-108.11250053209017"><ele>1843.0</ele><time>2026-03-29T16:49:39.999Z</time></trkpt><trkpt lat="36.9056350263738" lon="-108.11243462212394"><ele>1843.0</ele><time>2026-03-29T16:49:40.999Z</time></trkpt><trkpt lat="36.905747855422916" lon="-108.11236780375931"><ele>1843.0</ele><time>2026-03-29T16:49:41.999Z</time></trkpt><trkpt lat="36.90587102590093" lon="-108.11226704862268"><ele>1843.0</ele><time>2026-03-29T16:49:42.999Z</time></trkpt><trkpt lat="36.90596936397713" lon="-108.11210389291612"><ele>1843.0</ele><time>2026-03-29T16:49:43.999Z</time></trkpt><trkpt lat="36.90608651513976" lon="-108.11191859120915"><ele>1843.0</ele><time>2026-03-29T16:49:44.999Z</time></trkpt><trkpt lat="36.90620491297314" lon="-108.11176277488839"><ele>1843.0</ele><time>2026-03-29T16:49:45.999Z</time></trkpt><trkpt lat="36.90630237445392" lon="-108.1116290359036"><ele>1843.0</ele><time>2026-03-29T16:49:46.999Z</time></trkpt><trkpt lat="36.90633747006295" lon="-108.1114523298907"><ele>1843.3333333333335</ele><time>2026-03-29T16:49:47.999Z</time></trkpt><trkpt lat="36.906364176130296" lon="-108.11122536504026"><ele>1843.6666666666665</ele><time>2026-03-29T16:49:48.999Z</time></trkpt><trkpt lat="36.90639646992598" lon="-108.11097161728557"><ele>1844.0</ele><time>2026-03-29T16:49:49.999Z</time></trkpt><trkpt lat="36.906422011179714" lon="-108.11070814120734"><ele>1846.0</ele><time>2026-03-29T16:49:50.999Z</time></trkpt><trkpt lat="36.90644703267443" lon="-108.11043372221528"><ele>1848.0</ele><time>2026-03-29T16:49:51.999Z</time></trkpt><trkpt lat="36.906477299449556" lon="-108.11014907892283"><ele>1849.0</ele><time>2026-03-29T16:49:52.999Z</time></trkpt><trkpt lat="36.90650166173084" lon="-108.10989114664363"><ele>1850.0</ele><time>2026-03-29T16:49:53.999Z</time></trkpt><trkpt lat="36.90651840787293" lon="-108.10967464668157"><ele>1851.0</ele><time>2026-03-29T16:49:54.999Z</time></trkpt><trkpt lat="36.90651471043962" lon="-108.1095190029048"><ele>1851.0</ele><time>2026-03-29T16:49:55.999Z</time></trkpt><trkpt lat="36.90648692038893" lon="-108.10934553098457"><ele>1851.0</ele><time>2026-03-29T16:49:57Z</time></trkpt><trkpt lat="36.90646660714798" lon="-108.10915054890205"><ele>1851.0</ele><time>2026-03-29T16:49:58Z</time></trkpt><trkpt lat="36.90647602092038" lon="-108.10894817656882"><ele>1851.5</ele><time>2026-03-29T16:49:59Z</time></trkpt><trkpt lat="36.90648048484449" lon="-108.10876198094206"><ele>1852.0</ele><time>2026-03-29T16:50:00Z</time></trkpt><trkpt lat="36.906492822901555" lon="-108.10860393861772"><ele>1852.5</ele><time>2026-03-29T16:50:01Z</time></trkpt><trkpt lat="36.90648177402863" lon="-108.10841727834368"><ele>1853.0</ele><time>2026-03-29T16:50:02Z</time></trkpt><trkpt lat="36.9064582125397" lon="-108.10822076432991"><ele>1854.2</ele><time>2026-03-29T16:50:03Z</time></trkpt><trkpt lat="36.906442985275675" lon="-108.10805424606676"><ele>1855.4</ele><time>2026-03-29T16:50:04Z</time></trkpt><trkpt lat="36.90644383499085" lon="-108.1079074123972"><ele>1856.6000000000001</ele><time>2026-03-29T16:50:05Z</time></trkpt><trkpt lat="36.90644887347456" lon="-108.10777207117947"><ele>1857.8000000000002</ele><time>2026-03-29T16:50:06Z</time></trkpt><trkpt lat="36.90641347053021" lon="-108.10767356973327"><ele>1859.0</ele><time>2026-03-29T16:50:07Z</time></trkpt><trkpt lat="36.906347802993686" lon="-108.10756244820877"><ele>1859.0</ele><time>2026-03-29T16:50:08Z</time></trkpt><trkpt lat="36.90635352222374" lon="-108.10742108895874"><ele>1859.0</ele><time>2026-03-29T16:50:09Z</time></trkpt><trkpt lat="36.906401295667635" lon="-108.10725753587556"><ele>1859.0</ele><time>2026-03-29T16:50:10Z</time></trkpt><trkpt lat="36.906402418159324" lon="-108.10706739974074"><ele>1859.0</ele><time>2026-03-29T16:50:11Z</time></trkpt><trkpt lat="36.906387703840565" lon="-108.10688505172334"><ele>1859.25</ele><time>2026-03-29T16:50:12Z</time></trkpt><trkpt lat="36.90639177791403" lon="-108.10669828919163"><ele>1859.5</ele><time>2026-03-29T16:50:13Z</time></trkpt><trkpt lat="36.906390254908814" lon="-108.10653556228205"><ele>1859.75</ele><time>2026-03-29T16:50:14Z</time></trkpt><trkpt lat="36.90635857695497" lon="-108.1063744721857"><ele>1860.0</ele><time>2026-03-29T16:50:15Z</time></trkpt><trkpt lat="36.90635076618148" lon="-108.10620856894973"><ele>1860.0</ele><time>2026-03-29T16:50:16Z</time></trkpt><trkpt lat="36.90634578320309" lon="-108.10602530851348"><ele>1860.0</ele><time>2026-03-29T16:50:17Z</time></trkpt><trkpt lat="36.90633185008975" lon="-108.10584361360493"><ele>1860.0</ele><time>2026-03-29T16:50:18Z</time></trkpt><trkpt lat="36.906316956552566" lon="-108.10564082169411"><ele>1860.3333333333335</ele><time>2026-03-29T16:50:19Z</time></trkpt><trkpt lat="36.906299670675374" lon="-108.10541159291465"><ele>1860.6666666666667</ele><time>2026-03-29T16:50:20Z</time></trkpt><trkpt lat="36.906292339488054" lon="-108.10520069484656"><ele>1861.0</ele><time>2026-03-29T16:50:21Z</time></trkpt><trkpt lat="36.90627646764873" lon="-108.10500404389467"><ele>1862.3333333333335</ele><time>2026-03-29T16:50:22Z</time></trkpt><trkpt lat="36.906274088474774" lon="-108.10478254998317"><ele>1863.6666666666665</ele><time>2026-03-29T16:50:22.999Z</time></trkpt><trkpt lat="36.906291775104776" lon="-108.10455980958365"><ele>1865.0</ele><time>2026-03-29T16:50:23.999Z</time></trkpt><trkpt lat="36.90630566662925" lon="-108.10433747141897"><ele>1865.0</ele><time>2026-03-29T16:50:24.999Z</time></trkpt><trkpt lat="36.90628929567125" lon="-108.10413859088902"><ele>1865.0</ele><time>2026-03-29T16:50:25.999Z</time></trkpt><trkpt lat="36.906295516203166" lon="-108.10395283118598"><ele>1865.0</ele><time>2026-03-29T16:50:26.999Z</time></trkpt><trkpt lat="36.90628313105266" lon="-108.10380880246701"><ele>1865.0</ele><time>2026-03-29T16:50:27.999Z</time></trkpt><trkpt lat="36.906272157834735" lon="-108.10367898099553"><ele>1865.4</ele><time>2026-03-29T16:50:28.999Z</time></trkpt><trkpt lat="36.90627573931021" lon="-108.1035799594672"><ele>1865.8</ele><time>2026-03-29T16:50:29.999Z</time></trkpt><trkpt lat="36.90628103957474" lon="-108.1034860070741"><ele>1866.1999999999998</ele><time>2026-03-29T16:50:30.999Z</time></trkpt><trkpt lat="36.90628015761573" lon="-108.10334741430445"><ele>1866.6</ele><time>2026-03-29T16:50:31.999Z</time></trkpt><trkpt lat="36.9062706958597" lon="-108.10318721685357"><ele>1867.0</ele><time>2026-03-29T16:50:32.999Z</time></trkpt><trkpt lat="36.90626835967487" lon="-108.10303904483986"><ele>1867.1999999999998</ele><time>2026-03-29T16:50:33.999Z</time></trkpt><trkpt lat="36.90625874219094" lon="-108.10289525769593"><ele>1867.3999999999999</ele><time>2026-03-29T16:50:34.999Z</time></trkpt><trkpt lat="36.90628125118252" lon="-108.10279436491712"><ele>1867.6000000000001</ele><time>2026-03-29T16:50:35.999Z</time></trkpt><trkpt lat="36.90625266870235" lon="-108.10264476374414"><ele>1867.8000000000002</ele><time>2026-03-29T16:50:37.999Z</time></trkpt><trkpt lat="36.90621548749331" lon="-108.10252521473267"><ele>1868.0</ele><time>2026-03-29T16:50:38.999Z</time></trkpt><trkpt lat="36.906213043879006" lon="-108.10239444607986"><ele>1868.6000000000001</ele><time>2026-03-29T16:50:39.999Z</time></trkpt><trkpt lat="36.906188330909146" lon="-108.10227851012112"><ele>1869.2000000000003</ele><time>2026-03-29T16:50:40.999Z</time></trkpt><trkpt lat="36.906145476279285" lon="-108.10216778104935"><ele>1869.8</ele><time>2026-03-29T16:50:41.999Z</time></trkpt><trkpt lat="36.90608141733638" lon="-108.10206897533445"><ele>1870.4</ele><time>2026-03-29T16:50:42.999Z</time></trkpt><trkpt lat="36.90600240125627" lon="-108.10198737035287"><ele>1871.0</ele><time>2026-03-29T16:50:43.999Z</time></trkpt><trkpt lat="36.90593078802002" lon="-108.10195397518005"><ele>1872.1999999999998</ele><time>2026-03-29T16:50:44.999Z</time></trkpt><trkpt lat="36.90586463468944" lon="-108.10200801404078"><ele>1873.3999999999999</ele><time>2026-03-29T16:50:45.999Z</time></trkpt><trkpt lat="36.90580402220931" lon="-108.10203948440267"><ele>1874.6</ele><time>2026-03-29T16:50:46.999Z</time></trkpt><trkpt lat="36.90571185070508" lon="-108.10192189535354"><ele>1875.8</ele><time>2026-03-29T16:50:48.999Z</time></trkpt><trkpt lat="36.90557394402809" lon="-108.10188430749132"><ele>1877.0</ele><time>2026-03-29T16:50:49.999Z</time></trkpt><trkpt lat="36.90546861067113" lon="-108.10193057620391"><ele>1877.0</ele><time>2026-03-29T16:50:50.999Z</time></trkpt><trkpt lat="36.90535097270246" lon="-108.10194206360649"><ele>1876.9999999999998</ele><time>2026-03-29T16:50:51.999Z</time></trkpt><trkpt lat="36.905230533598115" lon="-108.10196216744176"><ele>1876.9999999999998</ele><time>2026-03-29T16:50:52.999Z</time></trkpt><trkpt lat="36.905120569387044" lon="-108.1019755210502"><ele>1877.0</ele><time>2026-03-29T16:50:53.999Z</time></trkpt><trkpt lat="36.90504226888108" lon="-108.10197165827473"><ele>1877.0</ele><time>2026-03-29T16:50:54.999Z</time></trkpt><trkpt lat="36.90495376934365" lon="-108.10196734857197"><ele>1877.8</ele><time>2026-03-29T16:50:55.999Z</time></trkpt><trkpt lat="36.904865647175" lon="-108.10197136282325"><ele>1878.6</ele><time>2026-03-29T16:50:56.999Z</time></trkpt><trkpt lat="36.904770702188614" lon="-108.10201736054465"><ele>1879.3999999999999</ele><time>2026-03-29T16:50:57.999Z</time></trkpt><trkpt lat="36.90466097592052" lon="-108.10207165116783"><ele>1880.1999999999998</ele><time>2026-03-29T16:50:58.999Z</time></trkpt><trkpt lat="36.904568571322805" lon="-108.10211580891574"><ele>1881.0</ele><time>2026-03-29T16:50:59.999Z</time></trkpt><trkpt lat="36.90450142523834" lon="-108.10211603998467"><ele>1881.0</ele><time>2026-03-29T16:51:00.999Z</time></trkpt><trkpt lat="36.90443409782093" lon="-108.10205988289658"><ele>1881.0</ele><time>2026-03-29T16:51:01.999Z</time></trkpt><trkpt lat="36.90438144391708" lon="-108.10197277047412"><ele>1881.0</ele><time>2026-03-29T16:51:02.999Z</time></trkpt><trkpt lat="36.90430556680619" lon="-108.10189300946357"><ele>1881.0</ele><time>2026-03-29T16:51:03.999Z</time></trkpt><trkpt lat="36.90420304813682" lon="-108.10183763784039"><ele>1881.0</ele><time>2026-03-29T16:51:04.999Z</time></trkpt><trkpt lat="36.904103585515315" lon="-108.10177860017362"><ele>1880.5</ele><time>2026-03-29T16:51:05.999Z</time></trkpt><trkpt lat="36.90400613557801" lon="-108.10169782235263"><ele>1880.0</ele><time>2026-03-29T16:51:06.999Z</time></trkpt><trkpt lat="36.90390432868438" lon="-108.10162596429133"><ele>1879.5</ele><time>2026-03-29T16:51:07.999Z</time></trkpt><trkpt lat="36.9037765846805" lon="-108.10158573575683"><ele>1879.0</ele><time>2026-03-29T16:51:08.999Z</time></trkpt><trkpt lat="36.90364686609766" lon="-108.1015501828936"><ele>1879.3333333333335</ele><time>2026-03-29T16:51:09.999Z</time></trkpt><trkpt lat="36.90349791495261" lon="-108.10156744137588"><ele>1879.6666666666665</ele><time>2026-03-29T16:51:10.999Z</time></trkpt><trkpt lat="36.903313236686245" lon="-108.10161585509559"><ele>1880.0</ele><time>2026-03-29T16:51:11.999Z</time></trkpt><trkpt lat="36.90314049017501" lon="-108.10162827502961"><ele>1880.0</ele><time>2026-03-29T16:51:12.999Z</time></trkpt><trkpt lat="36.90300650215486" lon="-108.10160946370168"><ele>1880.0</ele><time>2026-03-29T16:51:13.999Z</time></trkpt><trkpt lat="36.902907895331026" lon="-108.10159326830778"><ele>1880.0</ele><time>2026-03-29T16:51:14.999Z</time></trkpt><trkpt lat="36.90283005770159" lon="-108.10152405761121"><ele>1880.0</ele><time>2026-03-29T16:51:16.999Z</time></trkpt><trkpt lat="36.90282324222788" lon="-108.10140769626284"><ele>1880.0</ele><time>2026-03-29T16:51:17.999Z</time></trkpt><trkpt lat="36.902858907322496" lon="-108.10130786699789"><ele>1881.6</ele><time>2026-03-29T16:51:18.999Z</time></trkpt><trkpt lat="36.90292225384596" lon="-108.1012464979666"><ele>1883.2</ele><time>2026-03-29T16:51:19.999Z</time></trkpt><trkpt lat="36.90301403731488" lon="-108.10120821280766"><ele>1884.8000000000002</ele><time>2026-03-29T16:51:20.999Z</time></trkpt><trkpt lat="36.90310528168497" lon="-108.10114097954657"><ele>1886.4</ele><time>2026-03-29T16:51:21.999Z</time></trkpt><trkpt lat="36.90321877100044" lon="-108.10103236560373"><ele>1888.0</ele><time>2026-03-29T16:51:22.999Z</time></trkpt><trkpt lat="36.903286521390136" lon="-108.10095156812655"><ele>1888.4</ele><time>2026-03-29T16:51:23.999Z</time></trkpt><trkpt lat="36.90343748811693" lon="-108.10095472459355"><ele>1888.8000000000002</ele><time>2026-03-29T16:51:25.999Z</time></trkpt><trkpt lat="36.903512772396944" lon="-108.10099046784397"><ele>1889.2</ele><time>2026-03-29T16:51:26.999Z</time></trkpt><trkpt lat="36.90360239346284" lon="-108.10102839475341"><ele>1889.6</ele><time>2026-03-29T16:51:27.999Z</time></trkpt><trkpt lat="36.903667973300934" lon="-108.1010930936105"><ele>1890.0</ele><time>2026-03-29T16:51:28.999Z</time></trkpt><trkpt lat="36.903736463842876" lon="-108.10110921230654"><ele>1890.0</ele><time>2026-03-29T16:51:29.999Z</time></trkpt><trkpt lat="36.90385994342812" lon="-108.10109399556707"><ele>1890.0</ele><time>2026-03-29T16:51:30.999Z</time></trkpt><trkpt lat="36.9039395427238" lon="-108.10108924777683"><ele>1890.0</ele><time>2026-03-29T16:51:31.999Z</time></trkpt><trkpt lat="36.90402644077581" lon="-108.10097432429525"><ele>1890.0</ele><time>2026-03-29T16:51:33.999Z</time></trkpt><trkpt lat="36.90409020711596" lon="-108.10086450434511"><ele>1890.0</ele><time>2026-03-29T16:51:34.999Z</time></trkpt><trkpt lat="36.904142187177634" lon="-108.10073482924358"><ele>1890.4</ele><time>2026-03-29T16:51:35.999Z</time></trkpt><trkpt lat="36.904174265488855" lon="-108.10057939390754"><ele>1890.8</ele><time>2026-03-29T16:51:37.999Z</time></trkpt><trkpt lat="36.90413867774335" lon="-108.10049054741157"><ele>1891.1999999999998</ele><time>2026-03-29T16:51:38.999Z</time></trkpt><trkpt lat="36.90420031650955" lon="-108.10037459576155"><ele>1891.6</ele><time>2026-03-29T16:51:40.999Z</time></trkpt><trkpt lat="36.90432502299058" lon="-108.10033766151"><ele>1892.0</ele><time>2026-03-29T16:51:42.999Z</time></trkpt><trkpt lat="36.904400441793534" lon="-108.10031280880162"><ele>1891.9999999999998</ele><time>2026-03-29T16:51:43.999Z</time></trkpt><trkpt lat="36.90443341556878" lon="-108.10023320719787"><ele>1892.0</ele><time>2026-03-29T16:51:44.999Z</time></trkpt><trkpt lat="36.90447334453316" lon="-108.10009640572939"><ele>1892.0</ele><time>2026-03-29T16:51:46.999Z</time></trkpt><trkpt lat="36.90450112268999" lon="-108.10000898462877"><ele>1892.0</ele><time>2026-03-29T16:51:47.999Z</time></trkpt><trkpt lat="36.90456388096066" lon="-108.09991826512288"><ele>1891.9999999999998</ele><time>2026-03-29T16:51:48.999Z</time></trkpt><trkpt lat="36.90458493254408" lon="-108.0998299132352"><ele>1892.0</ele><time>2026-03-29T16:51:49.999Z</time></trkpt><trkpt lat="36.90456426141317" lon="-108.09969662413323"><ele>1892.6</ele><time>2026-03-29T16:51:50.999Z</time></trkpt><trkpt lat="36.9045728074461" lon="-108.09958132632212"><ele>1893.1999999999998</ele><time>2026-03-29T16:51:51.999Z</time></trkpt><trkpt lat="36.904550405513994" lon="-108.09945640697055"><ele>1893.8</ele><time>2026-03-29T16:51:52.999Z</time></trkpt><trkpt lat="36.904526066449826" lon="-108.09934916399844"><ele>1894.4</ele><time>2026-03-29T16:51:53.999Z</time></trkpt><trkpt lat="36.904545274134904" lon="-108.09925655473015"><ele>1895.0</ele><time>2026-03-29T16:51:54.999Z</time></trkpt><trkpt lat="36.90454472689408" lon="-108.0991102465359"><ele>1895.0</ele><time>2026-03-29T16:51:56.999Z</time></trkpt><trkpt lat="36.904633961777684" lon="-108.09908828503457"><ele>1895.0</ele><time>2026-03-29T16:51:57.999Z</time></trkpt><trkpt lat="36.904769603692586" lon="-108.09908306463069"><ele>1895.0</ele><time>2026-03-29T16:51:58.999Z</time></trkpt><trkpt lat="36.90485946801439" lon="-108.09907270114387"><ele>1895.0</ele><time>2026-03-29T16:51:59.999Z</time></trkpt><trkpt lat="36.90494790333191" lon="-108.09899120360598"><ele>1895.0</ele><time>2026-03-29T16:52:00.999Z</time></trkpt><trkpt lat="36.9050461328704" lon="-108.09890255004656"><ele>1894.4</ele><time>2026-03-29T16:52:01.999Z</time></trkpt><trkpt lat="36.90516143073919" lon="-108.09884643303863"><ele>1893.8</ele><time>2026-03-29T16:52:03Z</time></trkpt><trkpt lat="36.90526447127866" lon="-108.09886903031783"><ele>1893.1999999999998</ele><time>2026-03-29T16:52:04Z</time></trkpt><trkpt lat="36.90537545744845" lon="-108.09887294143776"><ele>1892.6</ele><time>2026-03-29T16:52:05Z</time></trkpt><trkpt lat="36.905432476673134" lon="-108.0987983779875"><ele>1892.0</ele><time>2026-03-29T16:52:06Z</time></trkpt><trkpt lat="36.90543878908874" lon="-108.09869301468544"><ele>1892.0</ele><time>2026-03-29T16:52:07Z</time></trkpt><trkpt lat="36.90545635788215" lon="-108.09861178471121"><ele>1891.9999999999998</ele><time>2026-03-29T16:52:08Z</time></trkpt><trkpt lat="36.90553119994331" lon="-108.09851973892096"><ele>1891.9999999999998</ele><time>2026-03-29T16:52:09Z</time></trkpt><trkpt lat="36.905656300475805" lon="-108.09844755032596"><ele>1892.0</ele><time>2026-03-29T16:52:10Z</time></trkpt><trkpt lat="36.90577052916661" lon="-108.09839852439445"><ele>1892.0</ele><time>2026-03-29T16:52:11Z</time></trkpt><trkpt lat="36.90585460654572" lon="-108.09836300580103"><ele>1892.0</ele><time>2026-03-29T16:52:12Z</time></trkpt><trkpt lat="36.90591782481457" lon="-108.09830049474347"><ele>1891.9999999999998</ele><time>2026-03-29T16:52:13Z</time></trkpt><trkpt lat="36.9059635149163" lon="-108.09821999445468"><ele>1891.9999999999998</ele><time>2026-03-29T16:52:14Z</time></trkpt><trkpt lat="36.90596175723574" lon="-108.0981074458978"><ele>1892.0</ele><time>2026-03-29T16:52:15Z</time></trkpt><trkpt lat="36.90597025132908" lon="-108.09795150034681"><ele>1892.0</ele><time>2026-03-29T16:52:16Z</time></trkpt><trkpt lat="36.90603931551777" lon="-108.09791109395307"><ele>1892.0</ele><time>2026-03-29T16:52:17Z</time></trkpt><trkpt lat="36.906128858253986" lon="-108.09785258543667"><ele>1891.9999999999998</ele><time>2026-03-29T16:52:18Z</time></trkpt><trkpt lat="36.90616199734578" lon="-108.09773811592446"><ele>1891.9999999999998</ele><time>2026-03-29T16:52:19Z</time></trkpt><trkpt lat="36.90624471628765" lon="-108.09768354587173"><ele>1892.0</ele><time>2026-03-29T16:52:20Z</time></trkpt><trkpt lat="36.90634654678464" lon="-108.09769033867784"><ele>1892.0</ele><time>2026-03-29T16:52:21Z</time></trkpt><trkpt lat="36.906428162749776" lon="-108.09767465720043"><ele>1892.0</ele><time>2026-03-29T16:52:22Z</time></trkpt><trkpt lat="36.90652183463476" lon="-108.09761638888392"><ele>1892.0</ele><time>2026-03-29T16:52:23Z</time></trkpt><trkpt lat="36.90664187461158" lon="-108.09754100530684"><ele>1892.0</ele><time>2026-03-29T16:52:24Z</time></trkpt><trkpt lat="36.90675034245079" lon="-108.09748093241797"><ele>1892.0</ele><time>2026-03-29T16:52:25Z</time></trkpt><trkpt lat="36.90685046839522" lon="-108.09746504891318"><ele>1892.0</ele><time>2026-03-29T16:52:26Z</time></trkpt><trkpt lat="36.906953205943196" lon="-108.09743193368621"><ele>1891.9999999999998</ele><time>2026-03-29T16:52:27Z</time></trkpt><trkpt lat="36.90705338493954" lon="-108.09737002225913"><ele>1891.9999999999998</ele><time>2026-03-29T16:52:28Z</time></trkpt><trkpt lat="36.9071518941193" lon="-108.0972983461708"><ele>1892.0</ele><time>2026-03-29T16:52:29Z</time></trkpt><trkpt lat="36.90723837699356" lon="-108.0972493361496"><ele>1892.0</ele><time>2026-03-29T16:52:30Z</time></trkpt><trkpt lat="36.9073053312482" lon="-108.09720617190017"><ele>1893.3999999999999</ele><time>2026-03-29T16:52:31Z</time></trkpt><trkpt lat="36.90739654404892" lon="-108.09722269376306"><ele>1894.7999999999997</ele><time>2026-03-29T16:52:32Z</time></trkpt><trkpt lat="36.90751106713756" lon="-108.09730082001944"><ele>1896.2</ele><time>2026-03-29T16:52:33Z</time></trkpt><trkpt lat="36.907633635230304" lon="-108.09728300652439"><ele>1897.6</ele><time>2026-03-29T16:52:34Z</time></trkpt><trkpt lat="36.90769654263821" lon="-108.09722709364566"><ele>1899.0</ele><time>2026-03-29T16:52:35Z</time></trkpt><trkpt lat="36.90777857950211" lon="-108.09715674912823"><ele>1899.75</ele><time>2026-03-29T16:52:36Z</time></trkpt><trkpt lat="36.907905788419434" lon="-108.09705620795697"><ele>1900.5</ele><time>2026-03-29T16:52:37Z</time></trkpt><trkpt lat="36.9080420309348" lon="-108.09697170581882"><ele>1901.25</ele><time>2026-03-29T16:52:38Z</time></trkpt><trkpt lat="36.90814996285529" lon="-108.09689434603767"><ele>1902.0</ele><time>2026-03-29T16:52:39Z</time></trkpt><trkpt lat="36.908240173580246" lon="-108.09678403508892"><ele>1902.0</ele><time>2026-03-29T16:52:40Z</time></trkpt><trkpt lat="36.908328895919816" lon="-108.09669639149173"><ele>1901.9999999999998</ele><time>2026-03-29T16:52:41Z</time></trkpt><trkpt lat="36.908430339475096" lon="-108.09665892902248"><ele>1901.9999999999998</ele><time>2026-03-29T16:52:42Z</time></trkpt><trkpt lat="36.90850859761357" lon="-108.09661090409038"><ele>1902.0</ele><time>2026-03-29T16:52:43Z</time></trkpt><trkpt lat="36.908544885424" lon="-108.09651547323836"><ele>1902.0</ele><time>2026-03-29T16:52:44Z</time></trkpt><trkpt lat="36.90859570759273" lon="-108.09642694528029"><ele>1904.8</ele><time>2026-03-29T16:52:45Z</time></trkpt><trkpt lat="36.908705206970026" lon="-108.09637994023245"><ele>1907.6</ele><time>2026-03-29T16:52:46Z</time></trkpt><trkpt lat="36.90880988720989" lon="-108.09632442235896"><ele>1910.3999999999999</ele><time>2026-03-29T16:52:47Z</time></trkpt><trkpt lat="36.908876646764874" lon="-108.09626814708545"><ele>1913.1999999999998</ele><time>2026-03-29T16:52:48Z</time></trkpt><trkpt lat="36.90899155797348" lon="-108.09622174488084"><ele>1916.0</ele><time>2026-03-29T16:52:49Z</time></trkpt><trkpt lat="36.90910603873134" lon="-108.09617838837241"><ele>1915.9999999999998</ele><time>2026-03-29T16:52:50Z</time></trkpt><trkpt lat="36.909207892020675" lon="-108.09612303198291"><ele>1916.0</ele><time>2026-03-29T16:52:51Z</time></trkpt><trkpt lat="36.90929220667782" lon="-108.0960768820973"><ele>1916.0</ele><time>2026-03-29T16:52:52Z</time></trkpt><trkpt lat="36.90936537263165" lon="-108.09607229598284"><ele>1916.0</ele><time>2026-03-29T16:52:53Z</time></trkpt><trkpt lat="36.909446066642325" lon="-108.09607935307389"><ele>1915.9999999999998</ele><time>2026-03-29T16:52:54Z</time></trkpt><trkpt lat="36.90949341872517" lon="-108.09600979108043"><ele>1916.0</ele><time>2026-03-29T16:52:55Z</time></trkpt><trkpt lat="36.909538344372855" lon="-108.09591346547367"><ele>1916.5</ele><time>2026-03-29T16:52:56Z</time></trkpt><trkpt lat="36.90963598532672" lon="-108.09584488128432"><ele>1917.0</ele><time>2026-03-29T16:52:57Z</time></trkpt><trkpt lat="36.909720451551074" lon="-108.09573555013385"><ele>1917.5</ele><time>2026-03-29T16:52:58Z</time></trkpt><trkpt lat="36.90979636203963" lon="-108.09562332132519"><ele>1918.0</ele><time>2026-03-29T16:52:59Z</time></trkpt><trkpt lat="36.90988056510613" lon="-108.0955361208965"><ele>1918.4</ele><time>2026-03-29T16:53:00Z</time></trkpt><trkpt lat="36.90995781789374" lon="-108.09550407468993"><ele>1918.8000000000002</ele><time>2026-03-29T16:53:01Z</time></trkpt><trkpt lat="36.910038084983334" lon="-108.09550143854698"><ele>1919.2</ele><time>2026-03-29T16:53:02Z</time></trkpt><trkpt lat="36.910089564567166" lon="-108.09557551808092"><ele>1919.6</ele><time>2026-03-29T16:53:03Z</time></trkpt><trkpt lat="36.9101658988219" lon="-108.09569833614968"><ele>1920.0</ele><time>2026-03-29T16:53:04Z</time></trkpt><trkpt lat="36.910269780759094" lon="-108.09580961383728"><ele>1920.1666666666667</ele><time>2026-03-29T16:53:05Z</time></trkpt><trkpt lat="36.91035753500366" lon="-108.09586902404205"><ele>1920.3333333333335</ele><time>2026-03-29T16:53:06Z</time></trkpt><trkpt lat="36.9104391894847" lon="-108.09591567197921"><ele>1920.5</ele><time>2026-03-29T16:53:07Z</time></trkpt><trkpt lat="36.910515799711554" lon="-108.09592300897128"><ele>1920.6666666666667</ele><time>2026-03-29T16:53:08Z</time></trkpt><trkpt lat="36.91060074504749" lon="-108.09591357794615"><ele>1920.8333333333335</ele><time>2026-03-29T16:53:09Z</time></trkpt><trkpt lat="36.91068284878525" lon="-108.09596515971877"><ele>1921.0</ele><time>2026-03-29T16:53:10Z</time></trkpt><trkpt lat="36.910774615150196" lon="-108.09596941317965"><ele>1921.0000000000002</ele><time>2026-03-29T16:53:11Z</time></trkpt><trkpt lat="36.910850428314504" lon="-108.09593711382678"><ele>1921.0</ele><time>2026-03-29T16:53:12Z</time></trkpt><trkpt lat="36.910922766446156" lon="-108.09588016930948"><ele>1921.0</ele><time>2026-03-29T16:53:13Z</time></trkpt><trkpt lat="36.91097446520764" lon="-108.09580259955936"><ele>1921.0</ele><time>2026-03-29T16:53:14Z</time></trkpt><trkpt lat="36.91099561717748" lon="-108.0956906608721"><ele>1921.0000000000002</ele><time>2026-03-29T16:53:15Z</time></trkpt><trkpt lat="36.91102163036365" lon="-108.09555751101111"><ele>1921.0</ele><time>2026-03-29T16:53:16Z</time></trkpt><trkpt lat="36.911079250781185" lon="-108.0954858634341"><ele>1920.4</ele><time>2026-03-29T16:53:17Z</time></trkpt><trkpt lat="36.91113755982274" lon="-108.0954336107427"><ele>1919.8</ele><time>2026-03-29T16:53:18Z</time></trkpt><trkpt lat="36.9111850758295" lon="-108.09531825567079"><ele>1919.2000000000003</ele><time>2026-03-29T16:53:19Z</time></trkpt><trkpt lat="36.911246613278415" lon="-108.09520674355704"><ele>1918.6000000000001</ele><time>2026-03-29T16:53:20Z</time></trkpt><trkpt lat="36.91133227801132" lon="-108.09508123853757"><ele>1918.0</ele><time>2026-03-29T16:53:21Z</time></trkpt><trkpt lat="36.91139679711764" lon="-108.09496700917026"><ele>1918.5</ele><time>2026-03-29T16:53:22Z</time></trkpt><trkpt lat="36.91145235238148" lon="-108.0948141831868"><ele>1919.0</ele><time>2026-03-29T16:53:22.999Z</time></trkpt><trkpt lat="36.91152308854085" lon="-108.09470368604902"><ele>1919.5</ele><time>2026-03-29T16:53:23.999Z</time></trkpt><trkpt lat="36.91162013888927" lon="-108.0946324321678"><ele>1920.0</ele><time>2026-03-29T16:53:24.999Z</time></trkpt><trkpt lat="36.91170841871128" lon="-108.09457189108241"><ele>1918.8</ele><time>2026-03-29T16:53:25.999Z</time></trkpt><trkpt lat="36.911800210296356" lon="-108.09449526383239"><ele>1917.6</ele><time>2026-03-29T16:53:26.999Z</time></trkpt><trkpt lat="36.911900129368796" lon="-108.09442731042694"><ele>1916.4</ele><time>2026-03-29T16:53:27.999Z</time></trkpt><trkpt lat="36.911963055059" lon="-108.09433966905347"><ele>1915.2</ele><time>2026-03-29T16:53:28.999Z</time></trkpt><trkpt lat="36.91203660878311" lon="-108.09426062226406"><ele>1914.0</ele><time>2026-03-29T16:53:29.999Z</time></trkpt><trkpt lat="36.912152537413256" lon="-108.09425180015192"><ele>1914.0</ele><time>2026-03-29T16:53:30.999Z</time></trkpt><trkpt lat="36.912235163795955" lon="-108.09423196406813"><ele>1914.0</ele><time>2026-03-29T16:53:31.999Z</time></trkpt><trkpt lat="36.91225080442738" lon="-108.09414940317882"><ele>1914.0</ele><time>2026-03-29T16:53:32.999Z</time></trkpt><trkpt lat="36.9122602236035" lon="-108.09399379680451"><ele>1914.0</ele><time>2026-03-29T16:53:33.999Z</time></trkpt><trkpt lat="36.91228949426834" lon="-108.09386295360324"><ele>1914.0</ele><time>2026-03-29T16:53:34.999Z</time></trkpt><trkpt lat="36.91231240248935" lon="-108.09375535973055"><ele>1914.0</ele><time>2026-03-29T16:53:35.999Z</time></trkpt><trkpt lat="36.912331926470635" lon="-108.09363605424008"><ele>1914.0</ele><time>2026-03-29T16:53:36.999Z</time></trkpt><trkpt lat="36.91233723403465" lon="-108.09349711050513"><ele>1914.0</ele><time>2026-03-29T16:53:37.999Z</time></trkpt><trkpt lat="36.91234862942017" lon="-108.09335372324935"><ele>1914.0</ele><time>2026-03-29T16:53:38.999Z</time></trkpt><trkpt lat="36.912341659717505" lon="-108.09322731307665"><ele>1914.0</ele><time>2026-03-29T16:53:39.999Z</time></trkpt><trkpt lat="36.91231384736819" lon="-108.09309495865307"><ele>1914.0</ele><time>2026-03-29T16:53:40.999Z</time></trkpt><trkpt lat="36.91230572060089" lon="-108.09295528168153"><ele>1914.0</ele><time>2026-03-29T16:53:41.999Z</time></trkpt><trkpt lat="36.91231879432155" lon="-108.09282867524927"><ele>1914.0</ele><time>2026-03-29T16:53:42.999Z</time></trkpt><trkpt lat="36.912312201347675" lon="-108.09274433879212"><ele>1914.0</ele><time>2026-03-29T16:53:43.999Z</time></trkpt><trkpt lat="36.9123085509062" lon="-108.09257476306745"><ele>1914.0</ele><time>2026-03-29T16:53:45.999Z</time></trkpt><trkpt lat="36.912318897657634" lon="-108.0924646381556"><ele>1914.6</ele><time>2026-03-29T16:53:46.999Z</time></trkpt><trkpt lat="36.91233204742198" lon="-108.09234544251888"><ele>1915.2</ele><time>2026-03-29T16:53:47.999Z</time></trkpt><trkpt lat="36.912370448608165" lon="-108.09223000680107"><ele>1915.7999999999997</ele><time>2026-03-29T16:53:48.999Z</time></trkpt><trkpt lat="36.91243126521151" lon="-108.09214199653657"><ele>1916.3999999999999</ele><time>2026-03-29T16:53:49.999Z</time></trkpt><trkpt lat="36.91247709019193" lon="-108.09203672147675"><ele>1917.0</ele><time>2026-03-29T16:53:50.999Z</time></trkpt><trkpt lat="36.91248887079282" lon="-108.09192260378174"><ele>1917.0</ele><time>2026-03-29T16:53:51.999Z</time></trkpt><trkpt lat="36.912494881059736" lon="-108.09178813079433"><ele>1916.9999999999998</ele><time>2026-03-29T16:53:52.999Z</time></trkpt><trkpt lat="36.91251403609772" lon="-108.09165494438224"><ele>1916.9999999999998</ele><time>2026-03-29T16:53:53.999Z</time></trkpt><trkpt lat="36.912524538781774" lon="-108.09151352886093"><ele>1917.0</ele><time>2026-03-29T16:53:54.999Z</time></trkpt><trkpt lat="36.91253716195269" lon="-108.091394235878"><ele>1917.0</ele><time>2026-03-29T16:53:55.999Z</time></trkpt><trkpt lat="36.9125740840346" lon="-108.09126710135398"><ele>1916.75</ele><time>2026-03-29T16:53:56.999Z</time></trkpt><trkpt lat="36.91261536068816" lon="-108.09114230388694"><ele>1916.5</ele><time>2026-03-29T16:53:57.999Z</time></trkpt><trkpt lat="36.912649075638825" lon="-108.09100561036725"><ele>1916.25</ele><time>2026-03-29T16:53:58.999Z</time></trkpt><trkpt lat="36.91269798791281" lon="-108.09086552754889"><ele>1916.0</ele><time>2026-03-29T16:53:59.999Z</time></trkpt><trkpt lat="36.912738508475215" lon="-108.09074408202144"><ele>1916.0</ele><time>2026-03-29T16:54:00.999Z</time></trkpt><trkpt lat="36.91272048449108" lon="-108.09059952951228"><ele>1916.0</ele><time>2026-03-29T16:54:01.999Z</time></trkpt><trkpt lat="36.91269859207476" lon="-108.09046626991888"><ele>1916.0</ele><time>2026-03-29T16:54:02.999Z</time></trkpt><trkpt lat="36.91271592217592" lon="-108.09035164388995"><ele>1916.0</ele><time>2026-03-29T16:54:03.999Z</time></trkpt><trkpt lat="36.91271481391232" lon="-108.0902457945357"><ele>1916.0</ele><time>2026-03-29T16:54:04.999Z</time></trkpt><trkpt lat="36.91265296352257" lon="-108.09015261026913"><ele>1916.0</ele><time>2026-03-29T16:54:06.999Z</time></trkpt><trkpt lat="36.91259450564107" lon="-108.09011195010878"><ele>1916.0</ele><time>2026-03-29T16:54:07.999Z</time></trkpt><trkpt lat="36.91252440325945" lon="-108.0900407713865"><ele>1916.0</ele><time>2026-03-29T16:54:09Z</time></trkpt><trkpt lat="36.91242948406755" lon="-108.0899458700488"><ele>1916.0</ele><time>2026-03-29T16:54:10Z</time></trkpt><trkpt lat="36.91233402912175" lon="-108.08988357174803"><ele>1916.0</ele><time>2026-03-29T16:54:11Z</time></trkpt><trkpt lat="36.91223693652396" lon="-108.0898343445947"><ele>1916.5</ele><time>2026-03-29T16:54:12Z</time></trkpt><trkpt lat="36.9121410313235" lon="-108.08971419565684"><ele>1917.0</ele><time>2026-03-29T16:54:13Z</time></trkpt><trkpt lat="36.91205143404105" lon="-108.0895891978677"><ele>1917.5</ele><time>2026-03-29T16:54:14Z</time></trkpt><trkpt lat="36.911938312782645" lon="-108.08952331316577"><ele>1918.0</ele><time>2026-03-29T16:54:15Z</time></trkpt><trkpt lat="36.911832936223284" lon="-108.08949919705664"><ele>1917.5</ele><time>2026-03-29T16:54:16Z</time></trkpt><trkpt lat="36.91171706451389" lon="-108.08944864748318"><ele>1917.0</ele><time>2026-03-29T16:54:17Z</time></trkpt><trkpt lat="36.911631045950884" lon="-108.08935481549412"><ele>1916.5</ele><time>2026-03-29T16:54:18Z</time></trkpt><trkpt lat="36.91156961367086" lon="-108.08925256076233"><ele>1916.0</ele><time>2026-03-29T16:54:19Z</time></trkpt><trkpt lat="36.91147785661048" lon="-108.08915408554103"><ele>1916.0</ele><time>2026-03-29T16:54:20Z</time></trkpt><trkpt lat="36.91139531845168" lon="-108.0890953833072"><ele>1916.0</ele><time>2026-03-29T16:54:21Z</time></trkpt><trkpt lat="36.911305880402125" lon="-108.08905927295935"><ele>1916.0</ele><time>2026-03-29T16:54:22Z</time></trkpt><trkpt lat="36.91121217471207" lon="-108.08903575855787"><ele>1916.0</ele><time>2026-03-29T16:54:23Z</time></trkpt><trkpt lat="36.911123267174766" lon="-108.08896517690896"><ele>1916.0</ele><time>2026-03-29T16:54:24Z</time></trkpt><trkpt lat="36.91106573663742" lon="-108.08887114523857"><ele>1915.0</ele><time>2026-03-29T16:54:25Z</time></trkpt><trkpt lat="36.91107044410238" lon="-108.0887803397267"><ele>1914.0</ele><time>2026-03-29T16:54:26Z</time></trkpt><trkpt lat="36.91109465045063" lon="-108.08864945170734"><ele>1913.0</ele><time>2026-03-29T16:54:27Z</time></trkpt><trkpt lat="36.91110273973608" lon="-108.08848619644077"><ele>1912.0</ele><time>2026-03-29T16:54:28Z</time></trkpt><trkpt lat="36.911075887190826" lon="-108.08833536335786"><ele>1911.0</ele><time>2026-03-29T16:54:29Z</time></trkpt><trkpt lat="36.911033743547975" lon="-108.0881907004869"><ele>1910.0</ele><time>2026-03-29T16:54:30Z</time></trkpt><trkpt lat="36.91098407475304" lon="-108.0880592814212"><ele>1909.0</ele><time>2026-03-29T16:54:31Z</time></trkpt><trkpt lat="36.910930689656645" lon="-108.08795805713198"><ele>1908.0</ele><time>2026-03-29T16:54:32Z</time></trkpt><trkpt lat="36.91087570089419" lon="-108.08789876446711"><ele>1907.0</ele><time>2026-03-29T16:54:33Z</time></trkpt><trkpt lat="36.910788258426514" lon="-108.08785085709327"><ele>1906.0</ele><time>2026-03-29T16:54:34Z</time></trkpt><trkpt lat="36.910691144373644" lon="-108.08778341568224"><ele>1905.6</ele><time>2026-03-29T16:54:35Z</time></trkpt><trkpt lat="36.910629121032386" lon="-108.08768525753413"><ele>1905.1999999999998</ele><time>2026-03-29T16:54:36Z</time></trkpt><trkpt lat="36.91060293271271" lon="-108.08758579610347"><ele>1904.8000000000002</ele><time>2026-03-29T16:54:37Z</time></trkpt><trkpt lat="36.910550353462945" lon="-108.08751009789962"><ele>1904.4</ele><time>2026-03-29T16:54:38Z</time></trkpt><trkpt lat="36.91051711684473" lon="-108.08742606191844"><ele>1904.0</ele><time>2026-03-29T16:54:39Z</time></trkpt><trkpt lat="36.91049729888298" lon="-108.0872796151263"><ele>1902.8000000000002</ele><time>2026-03-29T16:54:40Z</time></trkpt><trkpt lat="36.910457576026694" lon="-108.08713315309005"><ele>1901.6000000000001</ele><time>2026-03-29T16:54:41Z</time></trkpt><trkpt lat="36.910395806481304" lon="-108.0870126879814"><ele>1900.4</ele><time>2026-03-29T16:54:42Z</time></trkpt><trkpt lat="36.91032982282568" lon="-108.08691379118035"><ele>1899.2</ele><time>2026-03-29T16:54:43Z</time></trkpt><trkpt lat="36.91024071469837" lon="-108.08685503933658"><ele>1898.0</ele><time>2026-03-29T16:54:44Z</time></trkpt><trkpt lat="36.91011187846215" lon="-108.08684279277622"><ele>1896.6666666666665</ele><time>2026-03-29T16:54:45Z</time></trkpt><trkpt lat="36.9099775951615" lon="-108.08687844907611"><ele>1895.3333333333335</ele><time>2026-03-29T16:54:46Z</time></trkpt><trkpt lat="36.90982052633986" lon="-108.08692633562782"><ele>1894.0</ele><time>2026-03-29T16:54:47Z</time></trkpt><trkpt lat="36.909663967343384" lon="-108.08692770189897"><ele>1894.0</ele><time>2026-03-29T16:54:48Z</time></trkpt><trkpt lat="36.9095427668965" lon="-108.08690932655155"><ele>1894.0</ele><time>2026-03-29T16:54:49Z</time></trkpt><trkpt lat="36.909416509023764" lon="-108.08689679563687"><ele>1894.0</ele><time>2026-03-29T16:54:50Z</time></trkpt><trkpt lat="36.909311463581545" lon="-108.08684938185978"><ele>1894.0</ele><time>2026-03-29T16:54:51Z</time></trkpt><trkpt lat="36.9092197083916" lon="-108.08676508066382"><ele>1892.6666666666667</ele><time>2026-03-29T16:54:52Z</time></trkpt><trkpt lat="36.90912787527135" lon="-108.08672696436115"><ele>1891.3333333333335</ele><time>2026-03-29T16:54:53Z</time></trkpt><trkpt lat="36.90904553232957" lon="-108.0867366390236"><ele>1890.0</ele><time>2026-03-29T16:54:54Z</time></trkpt><trkpt lat="36.90898332826038" lon="-108.08669347075902"><ele>1888.6666666666665</ele><time>2026-03-29T16:54:55Z</time></trkpt><trkpt lat="36.90890721421492" lon="-108.0866336217467"><ele>1887.3333333333333</ele><time>2026-03-29T16:54:56Z</time></trkpt><trkpt lat="36.90881028550788" lon="-108.08662660420828"><ele>1886.0</ele><time>2026-03-29T16:54:57Z</time></trkpt><trkpt lat="36.90869011869808" lon="-108.08661719177452"><ele>1885.4999999999998</ele><time>2026-03-29T16:54:58Z</time></trkpt><trkpt lat="36.90861134953656" lon="-108.08659249235336"><ele>1885.0</ele><time>2026-03-29T16:54:59Z</time></trkpt><trkpt lat="36.908552983160625" lon="-108.0865196456321"><ele>1884.5</ele><time>2026-03-29T16:55:00Z</time></trkpt><trkpt lat="36.90848669869003" lon="-108.086516309523"><ele>1884.0</ele><time>2026-03-29T16:55:01Z</time></trkpt><trkpt lat="36.90842008131262" lon="-108.08658196973794"><ele>1883.4999999999998</ele><time>2026-03-29T16:55:02Z</time></trkpt><trkpt lat="36.908349062339674" lon="-108.08661664617667"><ele>1883.0</ele><time>2026-03-29T16:55:03Z</time></trkpt><trkpt lat="36.90829323914808" lon="-108.08653366027875"><ele>1882.25</ele><time>2026-03-29T16:55:04Z</time></trkpt><trkpt lat="36.90828611962042" lon="-108.08635630415941"><ele>1881.5</ele><time>2026-03-29T16:55:06Z</time></trkpt><trkpt lat="36.90820375279744" lon="-108.08625783414864"><ele>1880.75</ele><time>2026-03-29T16:55:07Z</time></trkpt><trkpt lat="36.90811785663671" lon="-108.08612857466534"><ele>1880.0</ele><time>2026-03-29T16:55:08Z</time></trkpt><trkpt lat="36.90800278870782" lon="-108.08603452654937"><ele>1880.0</ele><time>2026-03-29T16:55:09Z</time></trkpt><trkpt lat="36.90787636720029" lon="-108.08596885274513"><ele>1880.0</ele><time>2026-03-29T16:55:10Z</time></trkpt><trkpt lat="36.907765934816155" lon="-108.0858573953169"><ele>1880.0</ele><time>2026-03-29T16:55:11Z</time></trkpt><trkpt lat="36.90766845313616" lon="-108.08573922194405"><ele>1880.0</ele><time>2026-03-29T16:55:12Z</time></trkpt><trkpt lat="36.907578284260794" lon="-108.08562849269886"><ele>1879.5</ele><time>2026-03-29T16:55:13Z</time></trkpt><trkpt lat="36.907461779013985" lon="-108.0855551978916"><ele>1879.0</ele><time>2026-03-29T16:55:14Z</time></trkpt><trkpt lat="36.90734680903566" lon="-108.08551664482981"><ele>1878.5</ele><time>2026-03-29T16:55:15Z</time></trkpt><trkpt lat="36.90721622853549" lon="-108.08553736441145"><ele>1878.0</ele><time>2026-03-29T16:55:16Z</time></trkpt><trkpt lat="36.90707397991255" lon="-108.08560178804221"><ele>1878.0</ele><time>2026-03-29T16:55:17Z</time></trkpt><trkpt lat="36.906906139377334" lon="-108.08561815111291"><ele>1878.0</ele><time>2026-03-29T16:55:18Z</time></trkpt><trkpt lat="36.90672711791546" lon="-108.08558623374638"><ele>1878.0</ele><time>2026-03-29T16:55:19Z</time></trkpt><trkpt lat="36.906566189507934" lon="-108.08553538590145"><ele>1877.6666666666667</ele><time>2026-03-29T16:55:20Z</time></trkpt><trkpt lat="36.906474984465824" lon="-108.08550116009141"><ele>1877.3333333333335</ele><time>2026-03-29T16:55:21Z</time></trkpt><trkpt lat="36.90645432681475" lon="-108.0854120282903"><ele>1877.0</ele><time>2026-03-29T16:55:23Z</time></trkpt><trkpt lat="36.90638360283271" lon="-108.08534368955"><ele>1876.6666666666667</ele><time>2026-03-29T16:55:25Z</time></trkpt><trkpt lat="36.90632537093379" lon="-108.08537536992455"><ele>1876.3333333333335</ele><time>2026-03-29T16:55:26Z</time></trkpt><trkpt lat="36.906244052966876" lon="-108.08542434172928"><ele>1876.0</ele><time>2026-03-29T16:55:27Z</time></trkpt><trkpt lat="36.906156399997" lon="-108.08548961394298"><ele>1876.0</ele><time>2026-03-29T16:55:28Z</time></trkpt><trkpt lat="36.90606040622097" lon="-108.08554996260054"><ele>1876.0</ele><time>2026-03-29T16:55:29Z</time></trkpt><trkpt lat="36.90594630451475" lon="-108.08557819604167"><ele>1876.0</ele><time>2026-03-29T16:55:30Z</time></trkpt><trkpt lat="36.90583614253301" lon="-108.08564876956014"><ele>1876.0</ele><time>2026-03-29T16:55:31Z</time></trkpt><trkpt lat="36.905759564299004" lon="-108.08576923095197"><ele>1875.5</ele><time>2026-03-29T16:55:32Z</time></trkpt><trkpt lat="36.905693692880206" lon="-108.0859087470915"><ele>1875.0</ele><time>2026-03-29T16:55:33Z</time></trkpt><trkpt lat="36.905614791462156" lon="-108.08602864771002"><ele>1874.5</ele><time>2026-03-29T16:55:34Z</time></trkpt><trkpt lat="36.90550874119755" lon="-108.08612359549394"><ele>1874.0</ele><time>2026-03-29T16:55:35Z</time></trkpt><trkpt lat="36.90538579432649" lon="-108.08618431168276"><ele>1874.0</ele><time>2026-03-29T16:55:36Z</time></trkpt><trkpt lat="36.90524850467819" lon="-108.08620522252558"><ele>1874.0</ele><time>2026-03-29T16:55:37Z</time></trkpt><trkpt lat="36.90513249286372" lon="-108.08625863111516"><ele>1874.0</ele><time>2026-03-29T16:55:38Z</time></trkpt><trkpt lat="36.9050475209359" lon="-108.08634852773358"><ele>1874.0</ele><time>2026-03-29T16:55:39Z</time></trkpt><trkpt lat="36.90498524690693" lon="-108.08645869453636"><ele>1874.0</ele><time>2026-03-29T16:55:40Z</time></trkpt><trkpt lat="36.904944972795136" lon="-108.08659166187412"><ele>1874.0</ele><time>2026-03-29T16:55:41Z</time></trkpt><trkpt lat="36.904881398229854" lon="-108.08672795379093"><ele>1874.0</ele><time>2026-03-29T16:55:42Z</time></trkpt><trkpt lat="36.90479385634878" lon="-108.08685009644985"><ele>1874.0</ele><time>2026-03-29T16:55:43Z</time></trkpt><trkpt lat="36.90465905838456" lon="-108.08695365438102"><ele>1874.0</ele><time>2026-03-29T16:55:44Z</time></trkpt><trkpt lat="36.90455856829177" lon="-108.08706743573114"><ele>1874.0</ele><time>2026-03-29T16:55:44.999Z</time></trkpt><trkpt lat="36.90446824545174" lon="-108.0872075785967"><ele>1874.0</ele><time>2026-03-29T16:55:45.999Z</time></trkpt><trkpt lat="36.90439100785333" lon="-108.08737594825628"><ele>1874.0</ele><time>2026-03-29T16:55:46.999Z</time></trkpt><trkpt lat="36.904309723465126" lon="-108.08752885912294"><ele>1874.0</ele><time>2026-03-29T16:55:47.999Z</time></trkpt><trkpt lat="36.90421525271034" lon="-108.08769909652452"><ele>1874.0</ele><time>2026-03-29T16:55:48.999Z</time></trkpt><trkpt lat="36.904117294867795" lon="-108.087856080353"><ele>1874.0</ele><time>2026-03-29T16:55:49.999Z</time></trkpt><trkpt lat="36.90399884406332" lon="-108.0879853872792"><ele>1874.0</ele><time>2026-03-29T16:55:50.999Z</time></trkpt><trkpt lat="36.90384655661754" lon="-108.08811772955335"><ele>1874.0</ele><time>2026-03-29T16:55:51.999Z</time></trkpt><trkpt lat="36.903733731945636" lon="-108.08827828091965"><ele>1874.0</ele><time>2026-03-29T16:55:52.999Z</time></trkpt><trkpt lat="36.90365810346188" lon="-108.0884383488699"><ele>1873.25</ele><time>2026-03-29T16:55:53.999Z</time></trkpt><trkpt lat="36.90360930513557" lon="-108.0885617329636"><ele>1872.5</ele><time>2026-03-29T16:55:54.999Z</time></trkpt><trkpt lat="36.903557683674926" lon="-108.08865350141971"><ele>1871.75</ele><time>2026-03-29T16:55:55.999Z</time></trkpt><trkpt lat="36.90340319550506" lon="-108.08870910488926"><ele>1871.0</ele><time>2026-03-29T16:55:57.999Z</time></trkpt><trkpt lat="36.90327727170198" lon="-108.08872506933832"><ele>1870.75</ele><time>2026-03-29T16:55:58.999Z</time></trkpt><trkpt lat="36.90319257014009" lon="-108.0887866563335"><ele>1870.5</ele><time>2026-03-29T16:55:59.999Z</time></trkpt><trkpt lat="36.903112760530064" lon="-108.0889042010872"><ele>1870.25</ele><time>2026-03-29T16:56:00.999Z</time></trkpt><trkpt lat="36.90303739687411" lon="-108.08905245310932"><ele>1870.0</ele><time>2026-03-29T16:56:01.999Z</time></trkpt><trkpt lat="36.90294964945716" lon="-108.08917304359025"><ele>1869.6</ele><time>2026-03-29T16:56:02.999Z</time></trkpt><trkpt lat="36.90289000440557" lon="-108.08926169009861"><ele>1869.2</ele><time>2026-03-29T16:56:03.999Z</time></trkpt><trkpt lat="36.90286140488152" lon="-108.08933533420543"><ele>1868.8000000000002</ele><time>2026-03-29T16:56:04.999Z</time></trkpt><trkpt lat="36.90295376891331" lon="-108.08940505640578"><ele>1868.4</ele><time>2026-03-29T16:56:06.999Z</time></trkpt><trkpt lat="36.903042216883804" lon="-108.08940361746514"><ele>1868.0</ele><time>2026-03-29T16:56:07.999Z</time></trkpt><trkpt lat="36.903130156771965" lon="-108.08932620072432"><ele>1867.9999999999998</ele><time>2026-03-29T16:56:08.999Z</time></trkpt><trkpt lat="36.903179414983946" lon="-108.0892620911546"><ele>1868.0</ele><time>2026-03-29T16:56:09.999Z</time></trkpt><trkpt lat="36.903241198271225" lon="-108.08931029330805"><ele>1868.0</ele><time>2026-03-29T16:56:11.999Z</time></trkpt><trkpt lat="36.903225329986036" lon="-108.08940573974238"><ele>1868.0</ele><time>2026-03-29T16:56:15Z</time></trkpt><trkpt lat="36.903184658693014" lon="-108.08948995216222"><ele>1867.9999999999998</ele><time>2026-03-29T16:56:16Z</time></trkpt><trkpt lat="36.90313219379661" lon="-108.08959682514876"><ele>1868.0</ele><time>2026-03-29T16:56:17Z</time></trkpt><trkpt lat="36.903052350784066" lon="-108.08973687203898"><ele>1868.0</ele><time>2026-03-29T16:56:18Z</time></trkpt><trkpt lat="36.902994962255654" lon="-108.08987881352483"><ele>1868.0</ele><time>2026-03-29T16:56:19Z</time></trkpt><trkpt lat="36.90291532588868" lon="-108.08996410789368"><ele>1868.0</ele><time>2026-03-29T16:56:20Z</time></trkpt><trkpt lat="36.90283303688675" lon="-108.09000826071943"><ele>1868.0</ele><time>2026-03-29T16:56:21Z</time></trkpt><trkpt lat="36.902704057358335" lon="-108.09001705238042"><ele>1867.75</ele><time>2026-03-29T16:56:22Z</time></trkpt><trkpt lat="36.90254960803748" lon="-108.0900094801943"><ele>1867.5</ele><time>2026-03-29T16:56:23Z</time></trkpt><trkpt lat="36.90244172338985" lon="-108.09000100352347"><ele>1867.25</ele><time>2026-03-29T16:56:24Z</time></trkpt><trkpt lat="36.90237211651698" lon="-108.09009534857664"><ele>1867.0</ele><time>2026-03-29T16:56:25Z</time></trkpt><trkpt lat="36.90230754940989" lon="-108.09022244316269"><ele>1867.0</ele><time>2026-03-29T16:56:26Z</time></trkpt><trkpt lat="36.90225250247501" lon="-108.09037855780088"><ele>1867.0</ele><time>2026-03-29T16:56:27Z</time></trkpt><trkpt lat="36.902193933709434" lon="-108.09054794393435"><ele>1867.0</ele><time>2026-03-29T16:56:28Z</time></trkpt><trkpt lat="36.90212608017976" lon="-108.09073244314584"><ele>1867.0</ele><time>2026-03-29T16:56:29Z</time></trkpt><trkpt lat="36.902072764947455" lon="-108.0909264412989"><ele>1866.8</ele><time>2026-03-29T16:56:30Z</time></trkpt><trkpt lat="36.902042416350106" lon="-108.09109781643117"><ele>1866.6</ele><time>2026-03-29T16:56:31Z</time></trkpt><trkpt lat="36.9019965976079" lon="-108.09121256066346"><ele>1866.3999999999999</ele><time>2026-03-29T16:56:32Z</time></trkpt><trkpt lat="36.90193354571363" lon="-108.09130882381196"><ele>1866.1999999999998</ele><time>2026-03-29T16:56:33Z</time></trkpt><trkpt lat="36.901858014997956" lon="-108.09136590598374"><ele>1866.0</ele><time>2026-03-29T16:56:34Z</time></trkpt><trkpt lat="36.901770559084845" lon="-108.09137869672038"><ele>1866.1999999999998</ele><time>2026-03-29T16:56:35Z</time></trkpt><trkpt lat="36.901654550426315" lon="-108.09135958801376"><ele>1866.3999999999999</ele><time>2026-03-29T16:56:36Z</time></trkpt><trkpt lat="36.901551155223885" lon="-108.09137741713882"><ele>1866.6</ele><time>2026-03-29T16:56:37Z</time></trkpt><trkpt lat="36.901472308150296" lon="-108.09144000362639"><ele>1866.8</ele><time>2026-03-29T16:56:38Z</time></trkpt><trkpt lat="36.901443338784475" lon="-108.09152883905338"><ele>1867.0</ele><time>2026-03-29T16:56:39Z</time></trkpt><trkpt lat="36.9015237752587" lon="-108.09166302750135"><ele>1867.0</ele><time>2026-03-29T16:56:41Z</time></trkpt><trkpt lat="36.90161561087684" lon="-108.09170727124845"><ele>1866.9999999999998</ele><time>2026-03-29T16:56:42Z</time></trkpt><trkpt lat="36.901729089346084" lon="-108.09173074444425"><ele>1866.9999999999998</ele><time>2026-03-29T16:56:43Z</time></trkpt><trkpt lat="36.90183290397207" lon="-108.09173999812202"><ele>1867.0</ele><time>2026-03-29T16:56:44Z</time></trkpt><trkpt lat="36.901852015493525" lon="-108.09184609091695"><ele>1867.0</ele><time>2026-03-29T16:56:46Z</time></trkpt><trkpt lat="36.901815599804564" lon="-108.09196342169996"><ele>1867.0</ele><time>2026-03-29T16:56:47Z</time></trkpt><trkpt lat="36.901752729993774" lon="-108.09203110078265"><ele>1866.9999999999998</ele><time>2026-03-29T16:56:48Z</time></trkpt><trkpt lat="36.90165830277245" lon="-108.09207531755156"><ele>1866.9999999999998</ele><time>2026-03-29T16:56:49Z</time></trkpt><trkpt lat="36.90155206471655" lon="-108.09206016049662"><ele>1867.0</ele><time>2026-03-29T16:56:50Z</time></trkpt><trkpt lat="36.90143032416019" lon="-108.09206077699976"><ele>1867.0</ele><time>2026-03-29T16:56:51Z</time></trkpt><trkpt lat="36.90131291632308" lon="-108.09211868505813"><ele>1867.0</ele><time>2026-03-29T16:56:52Z</time></trkpt><trkpt lat="36.90118975851171" lon="-108.09218558735205"><ele>1866.9999999999998</ele><time>2026-03-29T16:56:53Z</time></trkpt><trkpt lat="36.90107506700322" lon="-108.09219903154528"><ele>1866.9999999999998</ele><time>2026-03-29T16:56:54Z</time></trkpt><trkpt lat="36.90100307052796" lon="-108.09223919725311"><ele>1867.0</ele><time>2026-03-29T16:56:55Z</time></trkpt><trkpt lat="36.90096909079499" lon="-108.0923197080001"><ele>1867.0</ele><time>2026-03-29T16:56:56Z</time></trkpt><trkpt lat="36.900955240689925" lon="-108.09241601687609"><ele>1866.5000000000002</ele><time>2026-03-29T16:56:57Z</time></trkpt><trkpt lat="36.900950424700326" lon="-108.09250251215761"><ele>1866.0</ele><time>2026-03-29T16:56:58Z</time></trkpt><trkpt lat="36.900990454945656" lon="-108.09257296144337"><ele>1865.5</ele><time>2026-03-29T16:56:59Z</time></trkpt><trkpt lat="36.90104718354718" lon="-108.09268767182944"><ele>1865.0</ele><time>2026-03-29T16:57:00Z</time></trkpt><trkpt lat="36.901057498827306" lon="-108.09279489821952"><ele>1864.5000000000002</ele><time>2026-03-29T16:57:01Z</time></trkpt><trkpt lat="36.90098559941648" lon="-108.09289942145868"><ele>1864.0</ele><time>2026-03-29T16:57:02Z</time></trkpt><trkpt lat="36.90088021681434" lon="-108.09295878453628"><ele>1863.75</ele><time>2026-03-29T16:57:03Z</time></trkpt><trkpt lat="36.900776597663516" lon="-108.09301727237755"><ele>1863.5</ele><time>2026-03-29T16:57:04Z</time></trkpt><trkpt lat="36.90065838646189" lon="-108.09310707673416"><ele>1863.25</ele><time>2026-03-29T16:57:05Z</time></trkpt><trkpt lat="36.90055360127675" lon="-108.09321926151358"><ele>1863.0</ele><time>2026-03-29T16:57:06Z</time></trkpt><trkpt lat="36.90044892652116" lon="-108.0933524135369"><ele>1862.8000000000002</ele><time>2026-03-29T16:57:07Z</time></trkpt><trkpt lat="36.900375486260344" lon="-108.09344977578445"><ele>1862.6000000000001</ele><time>2026-03-29T16:57:08Z</time></trkpt><trkpt lat="36.90030944893866" lon="-108.09353295571908"><ele>1862.3999999999999</ele><time>2026-03-29T16:57:09Z</time></trkpt><trkpt lat="36.90025127898618" lon="-108.09360316211644"><ele>1862.1999999999998</ele><time>2026-03-29T16:57:10Z</time></trkpt><trkpt lat="36.90021767270249" lon="-108.09369987088368"><ele>1862.0</ele><time>2026-03-29T16:57:12Z</time></trkpt><trkpt lat="36.90028946706464" lon="-108.09376187030948"><ele>1862.0</ele><time>2026-03-29T16:57:14Z</time></trkpt><trkpt lat="36.900345632470454" lon="-108.09384411250318"><ele>1861.9999999999998</ele><time>2026-03-29T16:57:15Z</time></trkpt><trkpt lat="36.900414421744216" lon="-108.09394024980949"><ele>1861.9999999999998</ele><time>2026-03-29T16:57:16Z</time></trkpt><trkpt lat="36.90048915289902" lon="-108.0940119480657"><ele>1862.0</ele><time>2026-03-29T16:57:17Z</time></trkpt><trkpt lat="36.90051320416193" lon="-108.09408685324702"><ele>1862.0</ele><time>2026-03-29T16:57:18Z</time></trkpt><trkpt lat="36.90043103205426" lon="-108.09423500498202"><ele>1862.0</ele><time>2026-03-29T16:57:20Z</time></trkpt><trkpt lat="36.90036821611104" lon="-108.09430128283607"><ele>1861.9999999999998</ele><time>2026-03-29T16:57:21Z</time></trkpt><trkpt lat="36.900259220927005" lon="-108.09431646667261"><ele>1861.9999999999998</ele><time>2026-03-29T16:57:22Z</time></trkpt><trkpt lat="36.9001310429965" lon="-108.09432480367893"><ele>1862.0</ele><time>2026-03-29T16:57:23Z</time></trkpt><trkpt lat="36.900006182648625" lon="-108.09434864264819"><ele>1862.0</ele><time>2026-03-29T16:57:24Z</time></trkpt><trkpt lat="36.89987591443353" lon="-108.09436974892769"><ele>1862.0</ele><time>2026-03-29T16:57:25Z</time></trkpt><trkpt lat="36.89979231873958" lon="-108.09440933949456"><ele>1861.9999999999998</ele><time>2026-03-29T16:57:26Z</time></trkpt><trkpt lat="36.89977934606704" lon="-108.09454690265635"><ele>1861.9999999999998</ele><time>2026-03-29T16:57:28Z</time></trkpt><trkpt lat="36.899780954344465" lon="-108.0946485215719"><ele>1862.0</ele><time>2026-03-29T16:57:29Z</time></trkpt><trkpt lat="36.89966638082838" lon="-108.09474092994243"><ele>1862.0</ele><time>2026-03-29T16:57:31Z</time></trkpt><trkpt lat="36.899591509222795" lon="-108.09478162409125"><ele>1861.9999999999998</ele><time>2026-03-29T16:57:32Z</time></trkpt><trkpt lat="36.899525170597336" lon="-108.09483577580303"><ele>1862.0</ele><time>2026-03-29T16:57:33Z</time></trkpt><trkpt lat="36.8994902268677" lon="-108.09491726482273"><ele>1862.0</ele><time>2026-03-29T16:57:34Z</time></trkpt><trkpt lat="36.89948552460969" lon="-108.09502651568586"><ele>1862.0</ele><time>2026-03-29T16:57:35Z</time></trkpt><trkpt lat="36.89948696868279" lon="-108.09512171536315"><ele>1861.9999999999998</ele><time>2026-03-29T16:57:36Z</time></trkpt><trkpt lat="36.89949170305148" lon="-108.0952071944657"><ele>1862.0</ele><time>2026-03-29T16:57:37Z</time></trkpt><trkpt lat="36.899510474021504" lon="-108.09530210816874"><ele>1862.0</ele><time>2026-03-29T16:57:38Z</time></trkpt><trkpt lat="36.899499921427996" lon="-108.09541781810105"><ele>1862.0</ele><time>2026-03-29T16:57:39Z</time></trkpt><trkpt lat="36.89942743685843" lon="-108.09555467989755"><ele>1862.0</ele><time>2026-03-29T16:57:40Z</time></trkpt><trkpt lat="36.89934413054204" lon="-108.09568813379902"><ele>1862.0</ele><time>2026-03-29T16:57:41Z</time></trkpt><trkpt lat="36.89926892525762" lon="-108.09575381322949"><ele>1861.8</ele><time>2026-03-29T16:57:42Z</time></trkpt><trkpt lat="36.899198774389426" lon="-108.09572873881504"><ele>1861.6</ele><time>2026-03-29T16:57:43Z</time></trkpt><trkpt lat="36.899138783135484" lon="-108.09563980510005"><ele>1861.3999999999999</ele><time>2026-03-29T16:57:44Z</time></trkpt><trkpt lat="36.899091783120994" lon="-108.09552992671044"><ele>1861.1999999999998</ele><time>2026-03-29T16:57:45Z</time></trkpt><trkpt lat="36.89904477714735" lon="-108.09539786260994"><ele>1861.0</ele><time>2026-03-29T16:57:46Z</time></trkpt><trkpt lat="36.89899213159144" lon="-108.09525226627922"><ele>1861.0000000000002</ele><time>2026-03-29T16:57:47Z</time></trkpt><trkpt lat="36.89894277741275" lon="-108.09517470188183"><ele>1861.0</ele><time>2026-03-29T16:57:48Z</time></trkpt><trkpt lat="36.898876093438254" lon="-108.09517077890571"><ele>1861.0</ele><time>2026-03-29T16:57:49Z</time></trkpt><trkpt lat="36.898806770450925" lon="-108.095235074398"><ele>1861.0</ele><time>2026-03-29T16:57:50Z</time></trkpt><trkpt lat="36.898750538322766" lon="-108.09534523407625"><ele>1861.0000000000002</ele><time>2026-03-29T16:57:52Z</time></trkpt><trkpt lat="36.898773900614394" lon="-108.0954397692403"><ele>1861.0</ele><time>2026-03-29T16:57:53Z</time></trkpt><trkpt lat="36.898830153598446" lon="-108.09553925120154"><ele>1861.0</ele><time>2026-03-29T16:57:54Z</time></trkpt><trkpt lat="36.89892316851232" lon="-108.09562943125668"><ele>1861.0</ele><time>2026-03-29T16:57:55Z</time></trkpt><trkpt lat="36.89894760033638" lon="-108.0957187428628"><ele>1861.0</ele><time>2026-03-29T16:57:56Z</time></trkpt><trkpt lat="36.898949398946414" lon="-108.09581086389494"><ele>1861.0</ele><time>2026-03-29T16:57:57Z</time></trkpt><trkpt lat="36.89893418888148" lon="-108.09594424351263"><ele>1861.0</ele><time>2026-03-29T16:57:59Z</time></trkpt><trkpt lat="36.898873902198616" lon="-108.09600736231161"><ele>1861.25</ele><time>2026-03-29T16:58:00Z</time></trkpt><trkpt lat="36.89872091353706" lon="-108.09600811993779"><ele>1861.5</ele><time>2026-03-29T16:58:02Z</time></trkpt><trkpt lat="36.898606204027026" lon="-108.09598812043676"><ele>1861.75</ele><time>2026-03-29T16:58:03Z</time></trkpt><trkpt lat="36.89848481682529" lon="-108.0959901705826"><ele>1862.0</ele><time>2026-03-29T16:58:04Z</time></trkpt><trkpt lat="36.898354665367194" lon="-108.09603086314067"><ele>1861.6</ele><time>2026-03-29T16:58:05Z</time></trkpt><trkpt lat="36.8982652773589" lon="-108.096096664041"><ele>1861.1999999999998</ele><time>2026-03-29T16:58:06Z</time></trkpt><trkpt lat="36.898213038301556" lon="-108.09618449002292"><ele>1860.8</ele><time>2026-03-29T16:58:07Z</time></trkpt><trkpt lat="36.89817139166726" lon="-108.09631669473308"><ele>1860.4</ele><time>2026-03-29T16:58:08Z</time></trkpt><trkpt lat="36.898099765941915" lon="-108.09644793554384"><ele>1860.0</ele><time>2026-03-29T16:58:09Z</time></trkpt><trkpt lat="36.897999196279834" lon="-108.09656013292522"><ele>1859.6666666666665</ele><time>2026-03-29T16:58:10Z</time></trkpt><trkpt lat="36.89788807709002" lon="-108.09668361956024"><ele>1859.3333333333333</ele><time>2026-03-29T16:58:11Z</time></trkpt><trkpt lat="36.89774182843486" lon="-108.09680671212728"><ele>1859.0</ele><time>2026-03-29T16:58:12Z</time></trkpt><trkpt lat="36.8975931240883" lon="-108.09691381560238"><ele>1859.0</ele><time>2026-03-29T16:58:13Z</time></trkpt><trkpt lat="36.897438878887975" lon="-108.09698490728368"><ele>1859.0</ele><time>2026-03-29T16:58:14Z</time></trkpt><trkpt lat="36.89729507639298" lon="-108.09702036396183"><ele>1859.0</ele><time>2026-03-29T16:58:15Z</time></trkpt><trkpt lat="36.89715096104192" lon="-108.09701573865087"><ele>1859.0</ele><time>2026-03-29T16:58:16Z</time></trkpt><trkpt lat="36.89698484282114" lon="-108.09702884657415"><ele>1859.0</ele><time>2026-03-29T16:58:17Z</time></trkpt><trkpt lat="36.896826737661385" lon="-108.09708817400774"><ele>1859.0</ele><time>2026-03-29T16:58:18Z</time></trkpt><trkpt lat="36.89667506848237" lon="-108.09717016380183"><ele>1859.0</ele><time>2026-03-29T16:58:19Z</time></trkpt><trkpt lat="36.89651949385145" lon="-108.09726267573764"><ele>1859.0</ele><time>2026-03-29T16:58:20Z</time></trkpt><trkpt lat="36.89637849994431" lon="-108.0974118715857"><ele>1859.0</ele><time>2026-03-29T16:58:21Z</time></trkpt><trkpt lat="36.896235768367134" lon="-108.0975596797242"><ele>1858.0</ele><time>2026-03-29T16:58:22Z</time></trkpt><trkpt lat="36.89612753644775" lon="-108.09767260467267"><ele>1857.0</ele><time>2026-03-29T16:58:23Z</time></trkpt><trkpt lat="36.896071761982384" lon="-108.09777704718189"><ele>1856.0</ele><time>2026-03-29T16:58:24Z</time></trkpt><trkpt lat="36.89605847324605" lon="-108.09794500316683"><ele>1855.0</ele><time>2026-03-29T16:58:25Z</time></trkpt><trkpt lat="36.89605031000409" lon="-108.09809089474744"><ele>1855.3333333333335</ele><time>2026-03-29T16:58:26Z</time></trkpt><trkpt lat="36.89605936442953" lon="-108.09829610556287"><ele>1855.6666666666665</ele><time>2026-03-29T16:58:27Z</time></trkpt><trkpt lat="36.89607635659976" lon="-108.09851448132486"><ele>1856.0</ele><time>2026-03-29T16:58:28Z</time></trkpt><trkpt lat="36.89610402136831" lon="-108.09873439591608"><ele>1856.0</ele><time>2026-03-29T16:58:29Z</time></trkpt><trkpt lat="36.89609355470374" lon="-108.09891704844648"><ele>1856.0</ele><time>2026-03-29T16:58:30Z</time></trkpt><trkpt lat="36.89606293262448" lon="-108.09907043600978"><ele>1856.0</ele><time>2026-03-29T16:58:31Z</time></trkpt><trkpt lat="36.89600824823709" lon="-108.09923480371424"><ele>1856.0</ele><time>2026-03-29T16:58:32Z</time></trkpt><trkpt lat="36.89591541790061" lon="-108.09937020138192"><ele>1855.75</ele><time>2026-03-29T16:58:33Z</time></trkpt><trkpt lat="36.895795349428866" lon="-108.09948829053862"><ele>1855.5</ele><time>2026-03-29T16:58:34Z</time></trkpt><trkpt lat="36.89566332307707" lon="-108.09957750092022"><ele>1855.25</ele><time>2026-03-29T16:58:35Z</time></trkpt><trkpt lat="36.89553790358138" lon="-108.09962183973578"><ele>1855.0</ele><time>2026-03-29T16:58:36Z</time></trkpt><trkpt lat="36.895375642414294" lon="-108.0996248622835"><ele>1855.0</ele><time>2026-03-29T16:58:37Z</time></trkpt><trkpt lat="36.89523318922283" lon="-108.09965247441195"><ele>1855.0</ele><time>2026-03-29T16:58:38Z</time></trkpt><trkpt lat="36.89514725766376" lon="-108.09971445936087"><ele>1855.0</ele><time>2026-03-29T16:58:39Z</time></trkpt><trkpt lat="36.89507490688176" lon="-108.0998244132548"><ele>1855.0</ele><time>2026-03-29T16:58:40Z</time></trkpt><trkpt lat="36.89499580094031" lon="-108.09998508352095"><ele>1854.5</ele><time>2026-03-29T16:58:41Z</time></trkpt><trkpt lat="36.894897868538095" lon="-108.10011676175593"><ele>1854.0</ele><time>2026-03-29T16:58:42Z</time></trkpt><trkpt lat="36.89476806300989" lon="-108.10021420746315"><ele>1853.5</ele><time>2026-03-29T16:58:43Z</time></trkpt><trkpt lat="36.89466830421542" lon="-108.10025154910959"><ele>1853.0</ele><time>2026-03-29T16:58:44Z</time></trkpt><trkpt lat="36.8945713361172" lon="-108.10023471438285"><ele>1853.0</ele><time>2026-03-29T16:58:45Z</time></trkpt><trkpt lat="36.894456406229935" lon="-108.10020490160767"><ele>1853.0000000000002</ele><time>2026-03-29T16:58:46Z</time></trkpt><trkpt lat="36.89436581953319" lon="-108.10022598584602"><ele>1853.0000000000002</ele><time>2026-03-29T16:58:47Z</time></trkpt><trkpt lat="36.89430783999936" lon="-108.10033275404608"><ele>1853.0</ele><time>2026-03-29T16:58:48Z</time></trkpt><trkpt lat="36.894297322396824" lon="-108.10047189273345"><ele>1853.0</ele><time>2026-03-29T16:58:49Z</time></trkpt><trkpt lat="36.894297636723344" lon="-108.10059430052863"><ele>1853.0</ele><time>2026-03-29T16:58:50Z</time></trkpt><trkpt lat="36.894258246807986" lon="-108.10068242872829"><ele>1853.0000000000002</ele><time>2026-03-29T16:58:51Z</time></trkpt><trkpt lat="36.894186536241094" lon="-108.10070194865236"><ele>1853.0000000000002</ele><time>2026-03-29T16:58:52Z</time></trkpt><trkpt lat="36.894085431729316" lon="-108.10058308197517"><ele>1853.0</ele><time>2026-03-29T16:58:54Z</time></trkpt><trkpt lat="36.893996520813346" lon="-108.10046805252709"><ele>1853.0</ele><time>2026-03-29T16:58:55Z</time></trkpt><trkpt lat="36.89389879985492" lon="-108.10037880208718"><ele>1853.0</ele><time>2026-03-29T16:58:56Z</time></trkpt><trkpt lat="36.89378104957033" lon="-108.10032877554407"><ele>1853.0000000000002</ele><time>2026-03-29T16:58:57Z</time></trkpt><trkpt lat="36.893683120488305" lon="-108.10031124564813"><ele>1853.0000000000002</ele><time>2026-03-29T16:58:58Z</time></trkpt><trkpt lat="36.89361993685139" lon="-108.10033615613379"><ele>1853.0</ele><time>2026-03-29T16:58:59Z</time></trkpt><trkpt lat="36.89359558353201" lon="-108.10045880506671"><ele>1853.0</ele><time>2026-03-29T16:59:01Z</time></trkpt><trkpt lat="36.89361751168913" lon="-108.10056750554912"><ele>1854.0</ele><time>2026-03-29T16:59:03Z</time></trkpt><trkpt lat="36.893364917706364" lon="-108.10045862192614"><ele>1855.0</ele><time>2026-03-29T16:59:04Z</time></trkpt><trkpt lat="36.89324103478182" lon="-108.10062864149526"><ele>1854.3333333333335</ele><time>2026-03-29T16:59:06Z</time></trkpt><trkpt lat="36.893164780510276" lon="-108.10081410183129"><ele>1853.6666666666665</ele><time>2026-03-29T16:59:07Z</time></trkpt><trkpt lat="36.89309461901983" lon="-108.10100385469576"><ele>1853.0</ele><time>2026-03-29T16:59:08Z</time></trkpt><trkpt lat="36.89303648820199" lon="-108.10120030737359"><ele>1853.0</ele><time>2026-03-29T16:59:09Z</time></trkpt><trkpt lat="36.89291437286914" lon="-108.10129692761383"><ele>1853.0</ele><time>2026-03-29T16:59:10Z</time></trkpt><trkpt lat="36.8927712748529" lon="-108.10138588833428"><ele>1853.0</ele><time>2026-03-29T16:59:11Z</time></trkpt><trkpt lat="36.892624131507844" lon="-108.10147206907878"><ele>1852.3333333333333</ele><time>2026-03-29T16:59:12Z</time></trkpt><trkpt lat="36.89247512680766" lon="-108.10155861396778"><ele>1851.6666666666665</ele><time>2026-03-29T16:59:13Z</time></trkpt><trkpt lat="36.89231880890562" lon="-108.10163501986177"><ele>1851.0</ele><time>2026-03-29T16:59:14Z</time></trkpt><trkpt lat="36.89216228399836" lon="-108.10170007042642"><ele>1851.0</ele><time>2026-03-29T16:59:15Z</time></trkpt><trkpt lat="36.8920051933395" lon="-108.1017368092945"><ele>1851.0</ele><time>2026-03-29T16:59:16Z</time></trkpt><trkpt lat="36.891818106075725" lon="-108.1017575187221"><ele>1851.0</ele><time>2026-03-29T16:59:17Z</time></trkpt><trkpt lat="36.89162182718054" lon="-108.10173041376044"><ele>1850.3333333333335</ele><time>2026-03-29T16:59:18Z</time></trkpt><trkpt lat="36.891444508927044" lon="-108.10172564741818"><ele>1849.6666666666667</ele><time>2026-03-29T16:59:19Z</time></trkpt><trkpt lat="36.89128532520188" lon="-108.1017193826802"><ele>1849.0</ele><time>2026-03-29T16:59:20Z</time></trkpt><trkpt lat="36.89115544506403" lon="-108.10175137618543"><ele>1849.0</ele><time>2026-03-29T16:59:21Z</time></trkpt><trkpt lat="36.89103961191105" lon="-108.10181878053164"><ele>1849.0</ele><time>2026-03-29T16:59:22Z</time></trkpt><trkpt lat="36.890949154494905" lon="-108.10196567400027"><ele>1849.0</ele><time>2026-03-29T16:59:23Z</time></trkpt><trkpt lat="36.89086089110183" lon="-108.10200628032565"><ele>1849.0</ele><time>2026-03-29T16:59:24Z</time></trkpt><trkpt lat="36.89076447432058" lon="-108.1019545320231"><ele>1849.0</ele><time>2026-03-29T16:59:25Z</time></trkpt><trkpt lat="36.890654352164155" lon="-108.10188760830935"><ele>1849.0</ele><time>2026-03-29T16:59:26Z</time></trkpt><trkpt lat="36.8905358238827" lon="-108.10184664570292"><ele>1849.0</ele><time>2026-03-29T16:59:27Z</time></trkpt><trkpt lat="36.89037643169177" lon="-108.10183792166707"><ele>1849.0</ele><time>2026-03-29T16:59:28Z</time></trkpt><trkpt lat="36.890226971547804" lon="-108.10183104008416"><ele>1849.0000000000002</ele><time>2026-03-29T16:59:29Z</time></trkpt><trkpt lat="36.89012036511338" lon="-108.10183762901808"><ele>1849.0</ele><time>2026-03-29T16:59:30Z</time></trkpt><trkpt lat="36.89004868371424" lon="-108.10188060423876"><ele>1849.0</ele><time>2026-03-29T16:59:31Z</time></trkpt><trkpt lat="36.89001346745645" lon="-108.10194702852505"><ele>1849.0</ele><time>2026-03-29T16:59:32Z</time></trkpt><trkpt lat="36.8900225958764" lon="-108.10205027141699"><ele>1849.0000000000002</ele><time>2026-03-29T16:59:33Z</time></trkpt><trkpt lat="36.890019851621254" lon="-108.10218847803911"><ele>1849.0</ele><time>2026-03-29T16:59:34Z</time></trkpt><trkpt lat="36.88995780022724" lon="-108.10230393520101"><ele>1849.0</ele><time>2026-03-29T16:59:35Z</time></trkpt><trkpt lat="36.889883472331626" lon="-108.1023421463604"><ele>1849.0</ele><time>2026-03-29T16:59:36Z</time></trkpt><trkpt lat="36.88976922920106" lon="-108.10233856993318"><ele>1849.0</ele><time>2026-03-29T16:59:37Z</time></trkpt><trkpt lat="36.88964832358813" lon="-108.10234916446815"><ele>1849.0</ele><time>2026-03-29T16:59:38Z</time></trkpt><trkpt lat="36.88950285425221" lon="-108.10238959848411"><ele>1848.6666666666667</ele><time>2026-03-29T16:59:39Z</time></trkpt><trkpt lat="36.88936979202015" lon="-108.10248099072788"><ele>1848.3333333333335</ele><time>2026-03-29T16:59:40Z</time></trkpt><trkpt lat="36.889238181257646" lon="-108.10261368309403"><ele>1848.0</ele><time>2026-03-29T16:59:41Z</time></trkpt><trkpt lat="36.88911093751065" lon="-108.1027068060673"><ele>1848.0</ele><time>2026-03-29T16:59:42Z</time></trkpt><trkpt lat="36.888958226526185" lon="-108.10278033046677"><ele>1848.0</ele><time>2026-03-29T16:59:43Z</time></trkpt><trkpt lat="36.88877784022846" lon="-108.10283719284928"><ele>1848.0</ele><time>2026-03-29T16:59:44Z</time></trkpt><trkpt lat="36.88859015569824" lon="-108.10284633054378"><ele>1847.6666666666665</ele><time>2026-03-29T16:59:45Z</time></trkpt><trkpt lat="36.88838587086125" lon="-108.10282457297549"><ele>1847.3333333333333</ele><time>2026-03-29T16:59:46Z</time></trkpt><trkpt lat="36.88823105382328" lon="-108.10283829573522"><ele>1847.0</ele><time>2026-03-29T16:59:47Z</time></trkpt><trkpt lat="36.88809843705329" lon="-108.1028950100386"><ele>1847.0</ele><time>2026-03-29T16:59:48Z</time></trkpt><trkpt lat="36.88799383158352" lon="-108.10299411137508"><ele>1847.0</ele><time>2026-03-29T16:59:49Z</time></trkpt><trkpt lat="36.88788228011494" lon="-108.10310804504579"><ele>1847.0</ele><time>2026-03-29T16:59:50Z</time></trkpt><trkpt lat="36.88779802635223" lon="-108.1031798032967"><ele>1847.0</ele><time>2026-03-29T16:59:51Z</time></trkpt><trkpt lat="36.88772311992928" lon="-108.10319300109889"><ele>1847.0</ele><time>2026-03-29T16:59:52Z</time></trkpt><trkpt lat="36.88764295195021" lon="-108.10313182164768"><ele>1846.9999999999998</ele><time>2026-03-29T16:59:53Z</time></trkpt><trkpt lat="36.88754484351105" lon="-108.10305159001076"><ele>1846.9999999999998</ele><time>2026-03-29T16:59:54Z</time></trkpt><trkpt lat="36.88745962762255" lon="-108.10308390486921"><ele>1847.0</ele><time>2026-03-29T16:59:55Z</time></trkpt><trkpt lat="36.8873961608157" lon="-108.10318148233912"><ele>1847.0</ele><time>2026-03-29T16:59:56Z</time></trkpt><trkpt lat="36.88729683796198" lon="-108.10327848545538"><ele>1846.5</ele><time>2026-03-29T16:59:57Z</time></trkpt><trkpt lat="36.88721198392625" lon="-108.10341425507825"><ele>1846.0</ele><time>2026-03-29T16:59:58Z</time></trkpt><trkpt lat="36.8871119974958" lon="-108.10350623791442"><ele>1845.5</ele><time>2026-03-29T16:59:59Z</time></trkpt><trkpt lat="36.886977450819145" lon="-108.1035399647991"><ele>1845.0</ele><time>2026-03-29T17:00:00Z</time></trkpt><trkpt lat="36.88683318272905" lon="-108.10356358946221"><ele>1845.25</ele><time>2026-03-29T17:00:01Z</time></trkpt><trkpt lat="36.88669171707544" lon="-108.10361044000359"><ele>1845.5</ele><time>2026-03-29T17:00:02Z</time></trkpt><trkpt lat="36.886559200645216" lon="-108.10370075170363"><ele>1845.75</ele><time>2026-03-29T17:00:03Z</time></trkpt><trkpt lat="36.886457234021066" lon="-108.10377976857556"><ele>1846.0</ele><time>2026-03-29T17:00:04Z</time></trkpt><trkpt lat="36.88641334726038" lon="-108.10384864796266"><ele>1846.0</ele><time>2026-03-29T17:00:05Z</time></trkpt><trkpt lat="36.88645411668324" lon="-108.10395940617857"><ele>1846.0</ele><time>2026-03-29T17:00:07Z</time></trkpt><trkpt lat="36.88652989361757" lon="-108.1040197611037"><ele>1846.0</ele><time>2026-03-29T17:00:08Z</time></trkpt><trkpt lat="36.88660660493392" lon="-108.10407739779528"><ele>1846.0</ele><time>2026-03-29T17:00:09Z</time></trkpt><trkpt lat="36.8866562708397" lon="-108.10416439465565"><ele>1846.0</ele><time>2026-03-29T17:00:10Z</time></trkpt><trkpt lat="36.88662050973266" lon="-108.10427243349173"><ele>1845.4</ele><time>2026-03-29T17:00:12Z</time></trkpt><trkpt lat="36.886541162222635" lon="-108.10430451211295"><ele>1844.8</ele><time>2026-03-29T17:00:13Z</time></trkpt><trkpt lat="36.8864322144591" lon="-108.10432458012471"><ele>1844.2000000000003</ele><time>2026-03-29T17:00:14Z</time></trkpt><trkpt lat="36.886311725658786" lon="-108.1043505768916"><ele>1843.6000000000001</ele><time>2026-03-29T17:00:15Z</time></trkpt><trkpt lat="36.88619235787384" lon="-108.10439545529655"><ele>1843.0</ele><time>2026-03-29T17:00:16Z</time></trkpt><trkpt lat="36.88606599168695" lon="-108.10445459665806"><ele>1843.0</ele><time>2026-03-29T17:00:17Z</time></trkpt><trkpt lat="36.885933714573866" lon="-108.10452729232777"><ele>1843.0</ele><time>2026-03-29T17:00:18Z</time></trkpt><trkpt lat="36.88580062175083" lon="-108.10463818882364"><ele>1843.0</ele><time>2026-03-29T17:00:19Z</time></trkpt><trkpt lat="36.8856706797569" lon="-108.10477467345818"><ele>1842.6666666666667</ele><time>2026-03-29T17:00:20Z</time></trkpt><trkpt lat="36.88554498472256" lon="-108.10496217450158"><ele>1842.3333333333335</ele><time>2026-03-29T17:00:21Z</time></trkpt><trkpt lat="36.88541637959701" lon="-108.10516796048215"><ele>1842.0</ele><time>2026-03-29T17:00:22Z</time></trkpt><trkpt lat="36.88530105554403" lon="-108.10530921958588"><ele>1842.0</ele><time>2026-03-29T17:00:23Z</time></trkpt><trkpt lat="36.885237658643725" lon="-108.10542024909817"><ele>1842.0</ele><time>2026-03-29T17:00:24Z</time></trkpt><trkpt lat="36.88521020363354" lon="-108.10555494275162"><ele>1842.0</ele><time>2026-03-29T17:00:25Z</time></trkpt><trkpt lat="36.88518038384971" lon="-108.10571998150517"><ele>1842.0</ele><time>2026-03-29T17:00:26Z</time></trkpt><trkpt lat="36.885097798149225" lon="-108.10582909891568"><ele>1842.0</ele><time>2026-03-29T17:00:27Z</time></trkpt><trkpt lat="36.88497531899087" lon="-108.10584937723401"><ele>1842.0</ele><time>2026-03-29T17:00:28Z</time></trkpt><trkpt lat="36.88481473513353" lon="-108.10584228737274"><ele>1842.0</ele><time>2026-03-29T17:00:29Z</time></trkpt><trkpt lat="36.884670198343066" lon="-108.10585250388894"><ele>1842.0</ele><time>2026-03-29T17:00:30Z</time></trkpt><trkpt lat="36.88453304763722" lon="-108.10590434959431"><ele>1842.0</ele><time>2026-03-29T17:00:31Z</time></trkpt><trkpt lat="36.884415447868044" lon="-108.10597950494864"><ele>1842.0</ele><time>2026-03-29T17:00:32Z</time></trkpt><trkpt lat="36.88432814594267" lon="-108.10607527722391"><ele>1842.0</ele><time>2026-03-29T17:00:33Z</time></trkpt><trkpt lat="36.884336409046895" lon="-108.10619679743486"><ele>1842.0</ele><time>2026-03-29T17:00:34Z</time></trkpt><trkpt lat="36.8843498631396" lon="-108.10634586460797"><ele>1842.0</ele><time>2026-03-29T17:00:35Z</time></trkpt><trkpt lat="36.88434541200343" lon="-108.10648438486454"><ele>1841.9999999999998</ele><time>2026-03-29T17:00:36Z</time></trkpt><trkpt lat="36.884334448470426" lon="-108.10660335346428"><ele>1841.9999999999998</ele><time>2026-03-29T17:00:37Z</time></trkpt><trkpt lat="36.884326078020564" lon="-108.10670780654085"><ele>1842.0</ele><time>2026-03-29T17:00:38Z</time></trkpt><trkpt lat="36.88429271289413" lon="-108.10680145135667"><ele>1842.0</ele><time>2026-03-29T17:00:39Z</time></trkpt><trkpt lat="36.88420994937434" lon="-108.10688703829345"><ele>1841.5</ele><time>2026-03-29T17:00:40Z</time></trkpt><trkpt lat="36.88408662954404" lon="-108.1069579803783"><ele>1841.0</ele><time>2026-03-29T17:00:41Z</time></trkpt><trkpt lat="36.88394811240369" lon="-108.10698469043112"><ele>1840.5</ele><time>2026-03-29T17:00:42Z</time></trkpt><trkpt lat="36.8838256434002" lon="-108.10700977213274"><ele>1840.0</ele><time>2026-03-29T17:00:43Z</time></trkpt><trkpt lat="36.883695237230164" lon="-108.1070570365061"><ele>1840.0</ele><time>2026-03-29T17:00:44Z</time></trkpt><trkpt lat="36.883558016049975" lon="-108.10710536929086"><ele>1840.0</ele><time>2026-03-29T17:00:45Z</time></trkpt><trkpt lat="36.88340298981038" lon="-108.10715537954565"><ele>1840.0</ele><time>2026-03-29T17:00:46Z</time></trkpt><trkpt lat="36.88323713489464" lon="-108.10722579792835"><ele>1840.0</ele><time>2026-03-29T17:00:47Z</time></trkpt><trkpt lat="36.88307026799523" lon="-108.1073232338128"><ele>1840.0</ele><time>2026-03-29T17:00:48Z</time></trkpt><trkpt lat="36.88294708948323" lon="-108.10743025913315"><ele>1840.0</ele><time>2026-03-29T17:00:49Z</time></trkpt><trkpt lat="36.8828581878456" lon="-108.1075477989211"><ele>1840.0</ele><time>2026-03-29T17:00:50Z</time></trkpt><trkpt lat="36.88279736436066" lon="-108.10766238130263"><ele>1840.0</ele><time>2026-03-29T17:00:51Z</time></trkpt><trkpt lat="36.882789587526766" lon="-108.1077574862194"><ele>1840.0</ele><time>2026-03-29T17:00:52Z</time></trkpt><trkpt lat="36.8828298192742" lon="-108.10785791015302"><ele>1840.0</ele><time>2026-03-29T17:00:53Z</time></trkpt><trkpt lat="36.88288850049018" lon="-108.10798849878134"><ele>1840.0</ele><time>2026-03-29T17:00:54Z</time></trkpt><trkpt lat="36.882925108846536" lon="-108.10809221157052"><ele>1840.0</ele><time>2026-03-29T17:00:55Z</time></trkpt><trkpt lat="36.883068236238714" lon="-108.10804437418182"><ele>1840.0</ele><time>2026-03-29T17:00:57Z</time></trkpt><trkpt lat="36.88317469278056" lon="-108.10801343720983"><ele>1840.0</ele><time>2026-03-29T17:00:58Z</time></trkpt><trkpt lat="36.883264380445766" lon="-108.10804353818048"><ele>1840.0</ele><time>2026-03-29T17:00:59Z</time></trkpt><trkpt lat="36.883324546415764" lon="-108.10821386419973"><ele>1839.8</ele><time>2026-03-29T17:01:01Z</time></trkpt><trkpt lat="36.88334618139297" lon="-108.10833395740029"><ele>1839.6</ele><time>2026-03-29T17:01:02Z</time></trkpt><trkpt lat="36.883311633381524" lon="-108.10840784468527"><ele>1839.4</ele><time>2026-03-29T17:01:03Z</time></trkpt><trkpt lat="36.88322673293119" lon="-108.1084425836745"><ele>1839.2</ele><time>2026-03-29T17:01:04Z</time></trkpt><trkpt lat="36.88313253349097" lon="-108.10847323852094"><ele>1839.0</ele><time>2026-03-29T17:01:05Z</time></trkpt><trkpt lat="36.88302547996895" lon="-108.10854818286052"><ele>1839.0</ele><time>2026-03-29T17:01:06Z</time></trkpt><trkpt lat="36.8829308094491" lon="-108.10866381927312"><ele>1839.0</ele><time>2026-03-29T17:01:07Z</time></trkpt><trkpt lat="36.8828296073793" lon="-108.1087305535848"><ele>1839.0</ele><time>2026-03-29T17:01:08Z</time></trkpt><trkpt lat="36.88276675743898" lon="-108.10884870467751"><ele>1839.0</ele><time>2026-03-29T17:01:09Z</time></trkpt><trkpt lat="36.882725626402845" lon="-108.1089935524068"><ele>1838.75</ele><time>2026-03-29T17:01:10Z</time></trkpt><trkpt lat="36.88269402952496" lon="-108.10918984609333"><ele>1838.5</ele><time>2026-03-29T17:01:11Z</time></trkpt><trkpt lat="36.88263331979744" lon="-108.10933796250639"><ele>1838.25</ele><time>2026-03-29T17:01:12Z</time></trkpt><trkpt lat="36.88255420448922" lon="-108.10943406034771"><ele>1838.0</ele><time>2026-03-29T17:01:13Z</time></trkpt><trkpt lat="36.88244472341923" lon="-108.10949648702963"><ele>1838.0</ele><time>2026-03-29T17:01:14Z</time></trkpt><trkpt lat="36.882331786425" lon="-108.10957309416933"><ele>1838.0</ele><time>2026-03-29T17:01:15Z</time></trkpt><trkpt lat="36.88223858469976" lon="-108.10968646678435"><ele>1838.0</ele><time>2026-03-29T17:01:16Z</time></trkpt><trkpt lat="36.882159367782165" lon="-108.10984723169992"><ele>1838.0</ele><time>2026-03-29T17:01:17Z</time></trkpt><trkpt lat="36.8820849011471" lon="-108.11002536363942"><ele>1837.75</ele><time>2026-03-29T17:01:18Z</time></trkpt><trkpt lat="36.88203379940021" lon="-108.11019969922866"><ele>1837.5</ele><time>2026-03-29T17:01:19Z</time></trkpt><trkpt lat="36.882024498450235" lon="-108.11036411057916"><ele>1837.25</ele><time>2026-03-29T17:01:20Z</time></trkpt><trkpt lat="36.882002014426526" lon="-108.11047865465133"><ele>1837.0</ele><time>2026-03-29T17:01:21Z</time></trkpt><trkpt lat="36.88193060974014" lon="-108.11055181814588"><ele>1837.0</ele><time>2026-03-29T17:01:22Z</time></trkpt><trkpt lat="36.88180142805096" lon="-108.11060958350322"><ele>1837.0</ele><time>2026-03-29T17:01:23Z</time></trkpt><trkpt lat="36.881670582350345" lon="-108.11070139376264"><ele>1837.0</ele><time>2026-03-29T17:01:24Z</time></trkpt><trkpt lat="36.88157547401435" lon="-108.11082018949418"><ele>1837.0</ele><time>2026-03-29T17:01:25Z</time></trkpt><trkpt lat="36.881470795162045" lon="-108.11094780422358"><ele>1837.0</ele><time>2026-03-29T17:01:26Z</time></trkpt><trkpt lat="36.8813466024258" lon="-108.11107292791215"><ele>1837.0</ele><time>2026-03-29T17:01:27Z</time></trkpt><trkpt lat="36.88122052688155" lon="-108.1111978743821"><ele>1837.0</ele><time>2026-03-29T17:01:28Z</time></trkpt><trkpt lat="36.88110823661858" lon="-108.11132253404027"><ele>1837.0</ele><time>2026-03-29T17:01:29Z</time></trkpt><trkpt lat="36.88103231925798" lon="-108.11148109484621"><ele>1837.0</ele><time>2026-03-29T17:01:30Z</time></trkpt><trkpt lat="36.88098488578946" lon="-108.11166879079701"><ele>1837.0</ele><time>2026-03-29T17:01:31Z</time></trkpt><trkpt lat="36.880897691937776" lon="-108.111835613862"><ele>1836.25</ele><time>2026-03-29T17:01:32Z</time></trkpt><trkpt lat="36.880796987647145" lon="-108.1119683322775"><ele>1835.5</ele><time>2026-03-29T17:01:33Z</time></trkpt><trkpt lat="36.880731929323545" lon="-108.112085968053"><ele>1834.75</ele><time>2026-03-29T17:01:34Z</time></trkpt><trkpt lat="36.88071004651047" lon="-108.11221420870322"><ele>1834.0</ele><time>2026-03-29T17:01:35Z</time></trkpt><trkpt lat="36.88071814068976" lon="-108.11235427849677"><ele>1834.2</ele><time>2026-03-29T17:01:36Z</time></trkpt><trkpt lat="36.88072474941107" lon="-108.1125007276794"><ele>1834.4</ele><time>2026-03-29T17:01:37Z</time></trkpt><trkpt lat="36.88071553341417" lon="-108.11260570214816"><ele>1834.6</ele><time>2026-03-29T17:01:38Z</time></trkpt><trkpt lat="36.88065710050029" lon="-108.11267872113997"><ele>1834.8</ele><time>2026-03-29T17:01:39Z</time></trkpt><trkpt lat="36.88052760154194" lon="-108.11273660658415"><ele>1835.0</ele><time>2026-03-29T17:01:40Z</time></trkpt><trkpt lat="36.88040390424518" lon="-108.11276943641025"><ele>1835.0</ele><time>2026-03-29T17:01:41Z</time></trkpt><trkpt lat="36.88028552861794" lon="-108.1128050219996"><ele>1835.0</ele><time>2026-03-29T17:01:42Z</time></trkpt><trkpt lat="36.880223399701606" lon="-108.11275882368034"><ele>1835.0</ele><time>2026-03-29T17:01:43Z</time></trkpt><trkpt lat="36.88017112956917" lon="-108.11266973254702"><ele>1835.0</ele><time>2026-03-29T17:01:44Z</time></trkpt><trkpt lat="36.880094516803695" lon="-108.1126048631298"><ele>1835.0</ele><time>2026-03-29T17:01:45Z</time></trkpt><trkpt lat="36.87999127287349" lon="-108.112610158566"><ele>1835.6</ele><time>2026-03-29T17:01:46Z</time></trkpt><trkpt lat="36.87987361988472" lon="-108.11267118002834"><ele>1836.2</ele><time>2026-03-29T17:01:47Z</time></trkpt><trkpt lat="36.8797721325575" lon="-108.11273379222919"><ele>1836.8000000000002</ele><time>2026-03-29T17:01:48Z</time></trkpt><trkpt lat="36.8797084534376" lon="-108.11279839819606"><ele>1837.4</ele><time>2026-03-29T17:01:49Z</time></trkpt><trkpt lat="36.87970484886217" lon="-108.11291044913789"><ele>1838.0</ele><time>2026-03-29T17:01:51Z</time></trkpt><trkpt lat="36.87979416424489" lon="-108.1129324009833"><ele>1838.0</ele><time>2026-03-29T17:01:52Z</time></trkpt><trkpt lat="36.87991908035984" lon="-108.11293155445799"><ele>1838.0000000000002</ele><time>2026-03-29T17:01:54Z</time></trkpt><trkpt lat="36.8799942265607" lon="-108.11296509699525"><ele>1838.0000000000002</ele><time>2026-03-29T17:01:55Z</time></trkpt><trkpt lat="36.879952103498674" lon="-108.11311031301722"><ele>1838.0</ele><time>2026-03-29T17:01:57Z</time></trkpt><trkpt lat="36.8798870221319" lon="-108.1131641116392"><ele>1838.0</ele><time>2026-03-29T17:01:58Z</time></trkpt><trkpt lat="36.8798145577462" lon="-108.11322445673196"><ele>1837.25</ele><time>2026-03-29T17:01:59Z</time></trkpt><trkpt lat="36.8797362977496" lon="-108.11334439490479"><ele>1836.5</ele><time>2026-03-29T17:02:00Z</time></trkpt><trkpt lat="36.87960753457298" lon="-108.11341820385115"><ele>1835.75</ele><time>2026-03-29T17:02:01Z</time></trkpt><trkpt lat="36.87946397160334" lon="-108.11352791066142"><ele>1835.0</ele><time>2026-03-29T17:02:02Z</time></trkpt><trkpt lat="36.87931755693407" lon="-108.1136414593023"><ele>1835.0</ele><time>2026-03-29T17:02:03Z</time></trkpt><trkpt lat="36.87916599852118" lon="-108.1137589756029"><ele>1835.0</ele><time>2026-03-29T17:02:04Z</time></trkpt><trkpt lat="36.879044769682345" lon="-108.11389432237941"><ele>1835.0</ele><time>2026-03-29T17:02:05Z</time></trkpt><trkpt lat="36.878962402602625" lon="-108.11406345069697"><ele>1833.75</ele><time>2026-03-29T17:02:06Z</time></trkpt><trkpt lat="36.8789001084181" lon="-108.1142195896285"><ele>1832.5</ele><time>2026-03-29T17:02:07Z</time></trkpt><trkpt lat="36.87888695192451" lon="-108.11436575113397"><ele>1831.25</ele><time>2026-03-29T17:02:08Z</time></trkpt><trkpt lat="36.87891803521417" lon="-108.11448911309134"><ele>1830.0</ele><time>2026-03-29T17:02:09Z</time></trkpt><trkpt lat="36.87901031310228" lon="-108.11455355648523"><ele>1830.0</ele><time>2026-03-29T17:02:11Z</time></trkpt><trkpt lat="36.87908248824495" lon="-108.11457182713293"><ele>1830.0</ele><time>2026-03-29T17:02:12Z</time></trkpt><trkpt lat="36.87912734361711" lon="-108.11463726295683"><ele>1830.0</ele><time>2026-03-29T17:02:13Z</time></trkpt><trkpt lat="36.8790614353715" lon="-108.11475939192795"><ele>1830.0</ele><time>2026-03-29T17:02:15Z</time></trkpt><trkpt lat="36.878980333469855" lon="-108.11478624315788"><ele>1830.0</ele><time>2026-03-29T17:02:16Z</time></trkpt><trkpt lat="36.87885310889792" lon="-108.1148167377756"><ele>1830.0</ele><time>2026-03-29T17:02:17Z</time></trkpt><trkpt lat="36.87874641496085" lon="-108.11487538326973"><ele>1830.0</ele><time>2026-03-29T17:02:18Z</time></trkpt><trkpt lat="36.87863925901439" lon="-108.11494468999346"><ele>1830.0</ele><time>2026-03-29T17:02:19Z</time></trkpt><trkpt lat="36.87854021395006" lon="-108.11503194624937"><ele>1830.0</ele><time>2026-03-29T17:02:20Z</time></trkpt><trkpt lat="36.87846963194873" lon="-108.11513528370342"><ele>1829.75</ele><time>2026-03-29T17:02:21Z</time></trkpt><trkpt lat="36.87842440375944" lon="-108.11528810886338"><ele>1829.5</ele><time>2026-03-29T17:02:22Z</time></trkpt><trkpt lat="36.87835863850763" lon="-108.11544823512548"><ele>1829.25</ele><time>2026-03-29T17:02:23Z</time></trkpt><trkpt lat="36.87826436776427" lon="-108.1156067630969"><ele>1829.0</ele><time>2026-03-29T17:02:24Z</time></trkpt><trkpt lat="36.878162858460755" lon="-108.1157554025497"><ele>1829.0</ele><time>2026-03-29T17:02:25Z</time></trkpt><trkpt lat="36.878037768549866" lon="-108.11590581357383"><ele>1829.0</ele><time>2026-03-29T17:02:26Z</time></trkpt><trkpt lat="36.877893996840044" lon="-108.11604429093775"><ele>1829.0</ele><time>2026-03-29T17:02:27Z</time></trkpt><trkpt lat="36.87773399093" lon="-108.11618339982341"><ele>1829.6666666666665</ele><time>2026-03-29T17:02:28Z</time></trkpt><trkpt lat="36.87758873710932" lon="-108.1163348157713"><ele>1830.3333333333335</ele><time>2026-03-29T17:02:29Z</time></trkpt><trkpt lat="36.87746598252566" lon="-108.1164549056425"><ele>1831.0</ele><time>2026-03-29T17:02:30Z</time></trkpt><trkpt lat="36.87735986481929" lon="-108.11652171662344"><ele>1831.0</ele><time>2026-03-29T17:02:31Z</time></trkpt><trkpt lat="36.87725419868246" lon="-108.11654891597217"><ele>1831.0</ele><time>2026-03-29T17:02:32Z</time></trkpt><trkpt lat="36.877176716110554" lon="-108.11657160271903"><ele>1831.0</ele><time>2026-03-29T17:02:33Z</time></trkpt><trkpt lat="36.87714899520982" lon="-108.11666218706173"><ele>1831.0</ele><time>2026-03-29T17:02:35Z</time></trkpt><trkpt lat="36.877249449233354" lon="-108.11674403880941"><ele>1831.0</ele><time>2026-03-29T17:02:37Z</time></trkpt><trkpt lat="36.87734471720534" lon="-108.1167714932645"><ele>1830.75</ele><time>2026-03-29T17:02:38Z</time></trkpt><trkpt lat="36.87742802040692" lon="-108.11685202094755"><ele>1830.5</ele><time>2026-03-29T17:02:39Z</time></trkpt><trkpt lat="36.877526286872914" lon="-108.11692815627465"><ele>1830.25</ele><time>2026-03-29T17:02:40Z</time></trkpt><trkpt lat="36.877618294" lon="-108.11699466436056"><ele>1830.0</ele><time>2026-03-29T17:02:41Z</time></trkpt><trkpt lat="36.877743818663404" lon="-108.11706491204917"><ele>1830.0</ele><time>2026-03-29T17:02:42Z</time></trkpt><trkpt lat="36.87786472545096" lon="-108.11715472400473"><ele>1830.0</ele><time>2026-03-29T17:02:43Z</time></trkpt><trkpt lat="36.87801362654786" lon="-108.1172637560285"><ele>1830.0</ele><time>2026-03-29T17:02:44Z</time></trkpt><trkpt lat="36.87815696478019" lon="-108.11737161531653"><ele>1830.6</ele><time>2026-03-29T17:02:45Z</time></trkpt><trkpt lat="36.87826508332984" lon="-108.1174502950449"><ele>1831.2</ele><time>2026-03-29T17:02:46Z</time></trkpt><trkpt lat="36.87834246555837" lon="-108.1175143895807"><ele>1831.8000000000002</ele><time>2026-03-29T17:02:47Z</time></trkpt><trkpt lat="36.878412746072385" lon="-108.11757393909177"><ele>1832.4</ele><time>2026-03-29T17:02:48Z</time></trkpt><trkpt lat="36.87851574417833" lon="-108.11757299121471"><ele>1833.0</ele><time>2026-03-29T17:02:49Z</time></trkpt><trkpt lat="36.87860816056076" lon="-108.1175110297137"><ele>1833.8000000000002</ele><time>2026-03-29T17:02:50Z</time></trkpt><trkpt lat="36.878672331109975" lon="-108.11747506538559"><ele>1834.6000000000001</ele><time>2026-03-29T17:02:51Z</time></trkpt><trkpt lat="36.878737401647484" lon="-108.11748449385234"><ele>1835.3999999999999</ele><time>2026-03-29T17:02:52Z</time></trkpt><trkpt lat="36.87883502506362" lon="-108.11752821145099"><ele>1836.1999999999998</ele><time>2026-03-29T17:02:53Z</time></trkpt><trkpt lat="36.87894705410454" lon="-108.11757714168346"><ele>1837.0</ele><time>2026-03-29T17:02:54Z</time></trkpt><trkpt lat="36.87904689381" lon="-108.11768000645215"><ele>1837.0000000000002</ele><time>2026-03-29T17:02:55Z</time></trkpt><trkpt lat="36.879149505270455" lon="-108.11773142655998"><ele>1837.0</ele><time>2026-03-29T17:02:56Z</time></trkpt><trkpt lat="36.87921388454625" lon="-108.11779396486517"><ele>1837.0</ele><time>2026-03-29T17:02:57Z</time></trkpt><trkpt lat="36.87925563366062" lon="-108.11786917157191"><ele>1837.0</ele><time>2026-03-29T17:02:58Z</time></trkpt><trkpt lat="36.8793027787605" lon="-108.11794842607661"><ele>1837.0000000000002</ele><time>2026-03-29T17:02:59Z</time></trkpt><trkpt lat="36.87934420291581" lon="-108.11801472571683"><ele>1837.0</ele><time>2026-03-29T17:03:00Z</time></trkpt><trkpt lat="36.87942279826363" lon="-108.11808327357095"><ele>1838.0</ele><time>2026-03-29T17:03:01Z</time></trkpt><trkpt lat="36.8794998035587" lon="-108.11818393091637"><ele>1839.0</ele><time>2026-03-29T17:03:02Z</time></trkpt><trkpt lat="36.87958363983041" lon="-108.11824951284746"><ele>1840.0</ele><time>2026-03-29T17:03:04Z</time></trkpt><trkpt lat="36.87972592763941" lon="-108.11830743911261"><ele>1841.0</ele><time>2026-03-29T17:03:06Z</time></trkpt><trkpt lat="36.87982262349294" lon="-108.11830103405713"><ele>1842.1999999999998</ele><time>2026-03-29T17:03:07Z</time></trkpt><trkpt lat="36.879893869393484" lon="-108.11833675121443"><ele>1843.3999999999999</ele><time>2026-03-29T17:03:08Z</time></trkpt><trkpt lat="36.87998390407392" lon="-108.11838942214929"><ele>1844.6</ele><time>2026-03-29T17:03:09Z</time></trkpt><trkpt lat="36.88010240340642" lon="-108.11844781492246"><ele>1845.8</ele><time>2026-03-29T17:03:10Z</time></trkpt><trkpt lat="36.880214585517336" lon="-108.1184830588654"><ele>1847.0</ele><time>2026-03-29T17:03:11Z</time></trkpt><trkpt lat="36.88027739806593" lon="-108.11853306563246"><ele>1847.8333333333333</ele><time>2026-03-29T17:03:13Z</time></trkpt><trkpt lat="36.88036879653574" lon="-108.11858858474703"><ele>1848.6666666666665</ele><time>2026-03-29T17:03:14Z</time></trkpt><trkpt lat="36.880423497645566" lon="-108.11864398643095"><ele>1849.5</ele><time>2026-03-29T17:03:15Z</time></trkpt><trkpt lat="36.88046775171131" lon="-108.11871450629677"><ele>1850.3333333333335</ele><time>2026-03-29T17:03:17Z</time></trkpt><trkpt lat="36.88050762191672" lon="-108.11879343958302"><ele>1851.1666666666667</ele><time>2026-03-29T17:03:18Z</time></trkpt><trkpt lat="36.88055589072456" lon="-108.11890740313261"><ele>1852.0</ele><time>2026-03-29T17:03:19Z</time></trkpt><trkpt lat="36.880581198412024" lon="-108.11900199094055"><ele>1852.0000000000002</ele><time>2026-03-29T17:03:20Z</time></trkpt><trkpt lat="36.88064438748622" lon="-108.11902990811308"><ele>1852.0</ele><time>2026-03-29T17:03:21Z</time></trkpt><trkpt lat="36.88069956467465" lon="-108.11908648875428"><ele>1852.0</ele><time>2026-03-29T17:03:22Z</time></trkpt><trkpt lat="36.88076461459706" lon="-108.11917731301469"><ele>1852.0</ele><time>2026-03-29T17:03:23Z</time></trkpt><trkpt lat="36.88084716297177" lon="-108.11923061630972"><ele>1852.0000000000002</ele><time>2026-03-29T17:03:25Z</time></trkpt><trkpt lat="36.880889012230675" lon="-108.11931297423693"><ele>1852.0</ele><time>2026-03-29T17:03:28Z</time></trkpt><trkpt lat="36.88094711984643" lon="-108.11936632321991"><ele>1854.25</ele><time>2026-03-29T17:03:31Z</time></trkpt><trkpt lat="36.88106457468257" lon="-108.11947472574083"><ele>1856.5</ele><time>2026-03-29T17:03:32Z</time></trkpt><trkpt lat="36.88120449555181" lon="-108.11945401298412"><ele>1858.75</ele><time>2026-03-29T17:03:34Z</time></trkpt><trkpt lat="36.88131170999209" lon="-108.11942965626018"><ele>1861.0</ele><time>2026-03-29T17:03:35Z</time></trkpt><trkpt lat="36.881437415076405" lon="-108.11942112637446"><ele>1861.0</ele><time>2026-03-29T17:03:36Z</time></trkpt><trkpt lat="36.881541988277164" lon="-108.1194076004687"><ele>1861.0</ele><time>2026-03-29T17:03:37Z</time></trkpt><trkpt lat="36.88163658743291" lon="-108.11940219700931"><ele>1861.0</ele><time>2026-03-29T17:03:38Z</time></trkpt><trkpt lat="36.88172690372515" lon="-108.11938367512569"><ele>1861.0</ele><time>2026-03-29T17:03:39Z</time></trkpt><trkpt lat="36.88180715791366" lon="-108.11938423153985"><ele>1861.0</ele><time>2026-03-29T17:03:40Z</time></trkpt><trkpt lat="36.88188722742725" lon="-108.1194141555527"><ele>1861.8</ele><time>2026-03-29T17:03:41Z</time></trkpt><trkpt lat="36.88197921597555" lon="-108.11944562906939"><ele>1862.6</ele><time>2026-03-29T17:03:42Z</time></trkpt><trkpt lat="36.88207209033571" lon="-108.11943617546007"><ele>1863.4</ele><time>2026-03-29T17:03:43Z</time></trkpt><trkpt lat="36.88216624999638" lon="-108.11940817827868"><ele>1864.2</ele><time>2026-03-29T17:03:44Z</time></trkpt><trkpt lat="36.88225446289999" lon="-108.1193885190941"><ele>1865.0</ele><time>2026-03-29T17:03:45Z</time></trkpt><trkpt lat="36.88233756986009" lon="-108.11937028817772"><ele>1865.0</ele><time>2026-03-29T17:03:46Z</time></trkpt><trkpt lat="36.882421534875284" lon="-108.11935425290622"><ele>1865.0</ele><time>2026-03-29T17:03:47Z</time></trkpt><trkpt lat="36.882513400968854" lon="-108.11934157706764"><ele>1865.0</ele><time>2026-03-29T17:03:48Z</time></trkpt><trkpt lat="36.882586014588696" lon="-108.11933875331515"><ele>1865.0</ele><time>2026-03-29T17:03:49Z</time></trkpt><trkpt lat="36.88265019324542" lon="-108.11936333592153"><ele>1865.0</ele><time>2026-03-29T17:03:50Z</time></trkpt><trkpt lat="36.88252342676972" lon="-108.11956192780815"><ele>1865.0</ele><time>2026-03-29T17:03:52Z</time></trkpt><trkpt lat="36.882478905010814" lon="-108.11968374207719"><ele>1865.0</ele><time>2026-03-29T17:03:53Z</time></trkpt><trkpt lat="36.88245241356914" lon="-108.11983085727351"><ele>1865.0</ele><time>2026-03-29T17:03:54Z</time></trkpt><trkpt lat="36.8824456800513" lon="-108.12000274514686"><ele>1865.0</ele><time>2026-03-29T17:03:55Z</time></trkpt><trkpt lat="36.88243186552456" lon="-108.12020776090327"><ele>1865.0</ele><time>2026-03-29T17:03:56Z</time></trkpt><trkpt lat="36.88242328879231" lon="-108.12041315443638"><ele>1865.0</ele><time>2026-03-29T17:03:57Z</time></trkpt><trkpt lat="36.88242779427784" lon="-108.12061866756291"><ele>1865.0</ele><time>2026-03-29T17:03:58Z</time></trkpt><trkpt lat="36.882433661311275" lon="-108.12084457774561"><ele>1866.0</ele><time>2026-03-29T17:03:59Z</time></trkpt><trkpt lat="36.8824685455682" lon="-108.12106944261119"><ele>1867.0</ele><time>2026-03-29T17:04:00Z</time></trkpt><trkpt lat="36.88251202550842" lon="-108.12130414353389"><ele>1868.0</ele><time>2026-03-29T17:04:01Z</time></trkpt><trkpt lat="36.88254098014939" lon="-108.12151142844215"><ele>1868.0</ele><time>2026-03-29T17:04:02Z</time></trkpt><trkpt lat="36.88253957173891" lon="-108.12169105524623"><ele>1868.0</ele><time>2026-03-29T17:04:03Z</time></trkpt><trkpt lat="36.882511041777505" lon="-108.12185815608107"><ele>1868.0</ele><time>2026-03-29T17:04:04Z</time></trkpt><trkpt lat="36.882481971561795" lon="-108.12201528110403"><ele>1868.0</ele><time>2026-03-29T17:04:05Z</time></trkpt><trkpt lat="36.882455511364505" lon="-108.12216280512705"><ele>1868.0</ele><time>2026-03-29T17:04:06Z</time></trkpt><trkpt lat="36.8824300351097" lon="-108.12229838186167"><ele>1868.0000000000002</ele><time>2026-03-29T17:04:07Z</time></trkpt><trkpt lat="36.882436290817154" lon="-108.1223926958758"><ele>1868.0000000000002</ele><time>2026-03-29T17:04:08Z</time></trkpt><trkpt lat="36.88241448705224" lon="-108.12252082080468"><ele>1868.0</ele><time>2026-03-29T17:04:10Z</time></trkpt><trkpt lat="36.88239253089792" lon="-108.12261672225819"><ele>1868.0</ele><time>2026-03-29T17:04:11Z</time></trkpt><trkpt lat="36.88236233491006" lon="-108.12274645941993"><ele>1868.5</ele><time>2026-03-29T17:04:12Z</time></trkpt><trkpt lat="36.88233106025884" lon="-108.1228381179819"><ele>1869.0</ele><time>2026-03-29T17:04:13Z</time></trkpt><trkpt lat="36.88180481124009" lon="-108.12281671025174"><ele>1868.8000000000002</ele><time>2026-03-29T17:04:15Z</time></trkpt><trkpt lat="36.88170251698732" lon="-108.12282934893038"><ele>1868.6000000000001</ele><time>2026-03-29T17:04:16Z</time></trkpt><trkpt lat="36.88162193485306" lon="-108.12277331517303"><ele>1868.4</ele><time>2026-03-29T17:04:17Z</time></trkpt><trkpt lat="36.881545947004106" lon="-108.12267721217316"><ele>1868.2</ele><time>2026-03-29T17:04:18Z</time></trkpt><trkpt lat="36.881451675639994" lon="-108.12267936511411"><ele>1868.0</ele><time>2026-03-29T17:04:19Z</time></trkpt><trkpt lat="36.88138950432409" lon="-108.12275128807481"><ele>1868.0</ele><time>2026-03-29T17:04:20Z</time></trkpt><trkpt lat="36.88135360580061" lon="-108.122880429959"><ele>1868.0000000000002</ele><time>2026-03-29T17:04:21Z</time></trkpt><trkpt lat="36.88127464883056" lon="-108.12296418595095"><ele>1868.0000000000002</ele><time>2026-03-29T17:04:22Z</time></trkpt><trkpt lat="36.88118178935261" lon="-108.1229965217489"><ele>1868.0</ele><time>2026-03-29T17:04:23Z</time></trkpt><trkpt lat="36.881104879062136" lon="-108.12301840264504"><ele>1868.0</ele><time>2026-03-29T17:04:24Z</time></trkpt><trkpt lat="36.88099074360146" lon="-108.12299417273597"><ele>1867.4</ele><time>2026-03-29T17:04:25Z</time></trkpt><trkpt lat="36.88091519464833" lon="-108.1230071533245"><ele>1866.8000000000002</ele><time>2026-03-29T17:04:26Z</time></trkpt><trkpt lat="36.88083590015173" lon="-108.1230914379986"><ele>1866.2</ele><time>2026-03-29T17:04:27Z</time></trkpt><trkpt lat="36.88073550163838" lon="-108.12314889568924"><ele>1865.6</ele><time>2026-03-29T17:04:28Z</time></trkpt><trkpt lat="36.880655438021016" lon="-108.12321614019008"><ele>1865.0</ele><time>2026-03-29T17:04:29Z</time></trkpt><trkpt lat="36.8805964318635" lon="-108.12332974203878"><ele>1865.0</ele><time>2026-03-29T17:04:30Z</time></trkpt><trkpt lat="36.88055648269461" lon="-108.12346161085023"><ele>1865.0</ele><time>2026-03-29T17:04:31Z</time></trkpt><trkpt lat="36.880506451559825" lon="-108.12355353464943"><ele>1865.0</ele><time>2026-03-29T17:04:32Z</time></trkpt><trkpt lat="36.880416155710776" lon="-108.12362746268921"><ele>1865.0</ele><time>2026-03-29T17:04:33Z</time></trkpt><trkpt lat="36.8803071419309" lon="-108.12367623313145"><ele>1865.0</ele><time>2026-03-29T17:04:34Z</time></trkpt><trkpt lat="36.88021738131114" lon="-108.12373610492918"><ele>1865.0</ele><time>2026-03-29T17:04:35Z</time></trkpt><trkpt lat="36.88012212473977" lon="-108.12378993855405"><ele>1865.0</ele><time>2026-03-29T17:04:36Z</time></trkpt><trkpt lat="36.87999523126038" lon="-108.12382812940687"><ele>1865.0</ele><time>2026-03-29T17:04:37Z</time></trkpt><trkpt lat="36.87989919934344" lon="-108.12387036122581"><ele>1865.0</ele><time>2026-03-29T17:04:38Z</time></trkpt><trkpt lat="36.87980461746788" lon="-108.1238952330779"><ele>1865.0</ele><time>2026-03-29T17:04:39Z</time></trkpt><trkpt lat="36.879697764890196" lon="-108.12391534262967"><ele>1864.6</ele><time>2026-03-29T17:04:40Z</time></trkpt><trkpt lat="36.87959763837975" lon="-108.12396633173903"><ele>1864.2</ele><time>2026-03-29T17:04:41Z</time></trkpt><trkpt lat="36.87949692293426" lon="-108.12399573394111"><ele>1863.8000000000002</ele><time>2026-03-29T17:04:42Z</time></trkpt><trkpt lat="36.87938494480724" lon="-108.12395579496243"><ele>1863.4</ele><time>2026-03-29T17:04:43Z</time></trkpt><trkpt lat="36.87928853517112" lon="-108.12393097680207"><ele>1863.0</ele><time>2026-03-29T17:04:44Z</time></trkpt><trkpt lat="36.879204070462265" lon="-108.12396557494228"><ele>1863.0</ele><time>2026-03-29T17:04:45Z</time></trkpt><trkpt lat="36.87910286658361" lon="-108.12405144169244"><ele>1863.0</ele><time>2026-03-29T17:04:46Z</time></trkpt><trkpt lat="36.878989594816034" lon="-108.12415736149522"><ele>1863.0</ele><time>2026-03-29T17:04:47Z</time></trkpt><trkpt lat="36.878872503371646" lon="-108.1242363374202"><ele>1863.0</ele><time>2026-03-29T17:04:48Z</time></trkpt><trkpt lat="36.87879599148267" lon="-108.12433531589785"><ele>1863.0</ele><time>2026-03-29T17:04:49Z</time></trkpt><trkpt lat="36.87874330590717" lon="-108.12440701567473"><ele>1863.0000000000002</ele><time>2026-03-29T17:04:50Z</time></trkpt><trkpt lat="36.87866930517068" lon="-108.12451199491343"><ele>1863.0000000000002</ele><time>2026-03-29T17:04:51Z</time></trkpt><trkpt lat="36.87859837453526" lon="-108.12463003818493"><ele>1863.0</ele><time>2026-03-29T17:04:52Z</time></trkpt><trkpt lat="36.87855785325106" lon="-108.12472058388796"><ele>1863.0</ele><time>2026-03-29T17:04:53Z</time></trkpt><trkpt lat="36.87849822455912" lon="-108.12479480987935"><ele>1862.6000000000001</ele><time>2026-03-29T17:04:54Z</time></trkpt><trkpt lat="36.878402470207426" lon="-108.12486742198152"><ele>1862.2000000000003</ele><time>2026-03-29T17:04:55Z</time></trkpt><trkpt lat="36.87835487614094" lon="-108.12497067205042"><ele>1861.8</ele><time>2026-03-29T17:04:56Z</time></trkpt><trkpt lat="36.878313141257145" lon="-108.12506057279171"><ele>1861.4</ele><time>2026-03-29T17:04:57Z</time></trkpt><trkpt lat="36.87827246357034" lon="-108.12515284634982"><ele>1861.0</ele><time>2026-03-29T17:04:58Z</time></trkpt><trkpt lat="36.878166148667326" lon="-108.1252094585294"><ele>1861.0000000000002</ele><time>2026-03-29T17:05:00Z</time></trkpt><trkpt lat="36.87809086867357" lon="-108.12519024525162"><ele>1861.0</ele><time>2026-03-29T17:05:01Z</time></trkpt><trkpt lat="36.877993507531286" lon="-108.12517939067268"><ele>1861.0</ele><time>2026-03-29T17:05:02Z</time></trkpt><trkpt lat="36.877897033118494" lon="-108.12519133898228"><ele>1861.0</ele><time>2026-03-29T17:05:03Z</time></trkpt><trkpt lat="36.87780862661444" lon="-108.1251847649615"><ele>1861.0000000000002</ele><time>2026-03-29T17:05:04Z</time></trkpt><trkpt lat="36.8777264034886" lon="-108.12521325808855"><ele>1861.0</ele><time>2026-03-29T17:05:05Z</time></trkpt><trkpt lat="36.87762638175932" lon="-108.12528342480073"><ele>1861.0</ele><time>2026-03-29T17:05:06Z</time></trkpt><trkpt lat="36.87755039603198" lon="-108.12536996261542"><ele>1861.0</ele><time>2026-03-29T17:05:07Z</time></trkpt><trkpt lat="36.87748212411711" lon="-108.12548170446692"><ele>1861.0</ele><time>2026-03-29T17:05:08Z</time></trkpt><trkpt lat="36.877394331309496" lon="-108.12556557024085"><ele>1861.0</ele><time>2026-03-29T17:05:09Z</time></trkpt><trkpt lat="36.87732131347416" lon="-108.12562520801724"><ele>1861.0</ele><time>2026-03-29T17:05:10Z</time></trkpt><trkpt lat="36.877286867887" lon="-108.12569895649372"><ele>1860.8</ele><time>2026-03-29T17:05:11Z</time></trkpt><trkpt lat="36.877265721991364" lon="-108.12583867352504"><ele>1860.6</ele><time>2026-03-29T17:05:12Z</time></trkpt><trkpt lat="36.87725536081478" lon="-108.12594048791172"><ele>1860.4</ele><time>2026-03-29T17:05:13Z</time></trkpt><trkpt lat="36.8771812722651" lon="-108.12603185903878"><ele>1860.2</ele><time>2026-03-29T17:05:14Z</time></trkpt><trkpt lat="36.87709036701409" lon="-108.1261117756477"><ele>1860.0</ele><time>2026-03-29T17:05:15Z</time></trkpt><trkpt lat="36.87703446322402" lon="-108.12621094737587"><ele>1860.0</ele><time>2026-03-29T17:05:16Z</time></trkpt><trkpt lat="36.87699390100508" lon="-108.12632446882613"><ele>1860.0</ele><time>2026-03-29T17:05:17Z</time></trkpt><trkpt lat="36.8769503832448" lon="-108.12640953275401"><ele>1860.0</ele><time>2026-03-29T17:05:18Z</time></trkpt><trkpt lat="36.87686544892904" lon="-108.12648422319961"><ele>1860.0</ele><time>2026-03-29T17:05:19Z</time></trkpt><trkpt lat="36.876803135820204" lon="-108.12651878904651"><ele>1860.0</ele><time>2026-03-29T17:05:20Z</time></trkpt><trkpt lat="36.87671468130896" lon="-108.12656088600738"><ele>1860.0</ele><time>2026-03-29T17:05:21Z</time></trkpt><trkpt lat="36.87662792621842" lon="-108.12660905669877"><ele>1860.2</ele><time>2026-03-29T17:05:22Z</time></trkpt><trkpt lat="36.87654709815845" lon="-108.12665214907369"><ele>1860.4</ele><time>2026-03-29T17:05:23Z</time></trkpt><trkpt lat="36.8764713795253" lon="-108.12668324184254"><ele>1860.6</ele><time>2026-03-29T17:05:24Z</time></trkpt><trkpt lat="36.876397688070504" lon="-108.12670319351574"><ele>1860.8</ele><time>2026-03-29T17:05:25Z</time></trkpt><trkpt lat="36.87632456868701" lon="-108.12678098906727"><ele>1861.0</ele><time>2026-03-29T17:05:26Z</time></trkpt><trkpt lat="36.87625620914305" lon="-108.12689992242571"><ele>1861.0</ele><time>2026-03-29T17:05:27Z</time></trkpt><trkpt lat="36.87615207241008" lon="-108.12694307233585"><ele>1861.0</ele><time>2026-03-29T17:05:28Z</time></trkpt><trkpt lat="36.8760622964144" lon="-108.12696977379785"><ele>1861.0</ele><time>2026-03-29T17:05:29Z</time></trkpt><trkpt lat="36.87602181320334" lon="-108.12713000454502"><ele>1861.0</ele><time>2026-03-29T17:05:31Z</time></trkpt><trkpt lat="36.87607296069126" lon="-108.12720734747177"><ele>1861.0</ele><time>2026-03-29T17:05:32Z</time></trkpt><trkpt lat="36.876137661544405" lon="-108.1272893776415"><ele>1861.0</ele><time>2026-03-29T17:05:33Z</time></trkpt><trkpt lat="36.876194953187564" lon="-108.12740031505561"><ele>1861.0</ele><time>2026-03-29T17:05:34Z</time></trkpt><trkpt lat="36.87619885279443" lon="-108.1275374509138"><ele>1861.0</ele><time>2026-03-29T17:05:35Z</time></trkpt><trkpt lat="36.87620620730274" lon="-108.12765906622917"><ele>1861.0</ele><time>2026-03-29T17:05:36Z</time></trkpt><trkpt lat="36.87622357322218" lon="-108.12779786406863"><ele>1861.0</ele><time>2026-03-29T17:05:37Z</time></trkpt><trkpt lat="36.87625597739978" lon="-108.1278958540923"><ele>1861.0</ele><time>2026-03-29T17:05:38Z</time></trkpt><trkpt lat="36.87627134636942" lon="-108.12800419982221"><ele>1861.0</ele><time>2026-03-29T17:05:39Z</time></trkpt><trkpt lat="36.87628254737855" lon="-108.12814967821373"><ele>1861.0</ele><time>2026-03-29T17:05:40Z</time></trkpt><trkpt lat="36.876255522705534" lon="-108.128274271374"><ele>1861.0</ele><time>2026-03-29T17:05:41Z</time></trkpt><trkpt lat="36.87620519277452" lon="-108.12839881133067"><ele>1861.0</ele><time>2026-03-29T17:05:42Z</time></trkpt><trkpt lat="36.87618225048137" lon="-108.12852124401077"><ele>1860.6666666666667</ele><time>2026-03-29T17:05:43Z</time></trkpt><trkpt lat="36.87617845619481" lon="-108.12862596082546"><ele>1860.3333333333335</ele><time>2026-03-29T17:05:44Z</time></trkpt><trkpt lat="36.87617620975484" lon="-108.12874258329306"><ele>1860.0</ele><time>2026-03-29T17:05:45Z</time></trkpt><trkpt lat="36.876154934480255" lon="-108.12885227832025"><ele>1859.6666666666665</ele><time>2026-03-29T17:05:46Z</time></trkpt><trkpt lat="36.87611431303997" lon="-108.12895788600325"><ele>1859.3333333333333</ele><time>2026-03-29T17:05:47Z</time></trkpt><trkpt lat="36.87610038765048" lon="-108.12905819126091"><ele>1859.0</ele><time>2026-03-29T17:05:48Z</time></trkpt><trkpt lat="36.87612072805536" lon="-108.12915065267062"><ele>1859.0</ele><time>2026-03-29T17:05:49Z</time></trkpt><trkpt lat="36.876107170088915" lon="-108.12924571586073"><ele>1859.0</ele><time>2026-03-29T17:05:50Z</time></trkpt><trkpt lat="36.87603809319161" lon="-108.12936261614327"><ele>1859.0</ele><time>2026-03-29T17:05:51Z</time></trkpt><trkpt lat="36.87597862029867" lon="-108.12944610154304"><ele>1859.0</ele><time>2026-03-29T17:05:52Z</time></trkpt><trkpt lat="36.87585615728121" lon="-108.12945239690016"><ele>1859.0</ele><time>2026-03-29T17:05:54Z</time></trkpt><trkpt lat="36.87576197627199" lon="-108.12944736553358"><ele>1859.0</ele><time>2026-03-29T17:05:55Z</time></trkpt><trkpt lat="36.87566670972342" lon="-108.1294261640612"><ele>1859.0</ele><time>2026-03-29T17:05:56Z</time></trkpt><trkpt lat="36.87560791431993" lon="-108.12935384496423"><ele>1859.0</ele><time>2026-03-29T17:05:57Z</time></trkpt><trkpt lat="36.87551822045168" lon="-108.12922438438486"><ele>1859.0</ele><time>2026-03-29T17:05:59Z</time></trkpt><trkpt lat="36.87542508946601" lon="-108.12918173773133"><ele>1859.0</ele><time>2026-03-29T17:06:00Z</time></trkpt><trkpt lat="36.87529643257379" lon="-108.12920831704407"><ele>1859.0</ele><time>2026-03-29T17:06:01Z</time></trkpt><trkpt lat="36.87520474447992" lon="-108.12924275448486"><ele>1859.0</ele><time>2026-03-29T17:06:02Z</time></trkpt><trkpt lat="36.875111001102596" lon="-108.1292576213463"><ele>1859.0</ele><time>2026-03-29T17:06:03Z</time></trkpt><trkpt lat="36.874997871174614" lon="-108.12930192732998"><ele>1859.0</ele><time>2026-03-29T17:06:04Z</time></trkpt><trkpt lat="36.87489236475437" lon="-108.12935443948464"><ele>1859.0</ele><time>2026-03-29T17:06:05Z</time></trkpt><trkpt lat="36.87481111672582" lon="-108.12939148662991"><ele>1857.4</ele><time>2026-03-29T17:06:06Z</time></trkpt><trkpt lat="36.8747390030195" lon="-108.12943843640761"><ele>1855.8000000000002</ele><time>2026-03-29T17:06:07Z</time></trkpt><trkpt lat="36.8746907318881" lon="-108.12954842654676"><ele>1854.1999999999998</ele><time>2026-03-29T17:06:08Z</time></trkpt><trkpt lat="36.87468808488003" lon="-108.12966979452096"><ele>1852.6</ele><time>2026-03-29T17:06:09Z</time></trkpt><trkpt lat="36.87468623269601" lon="-108.12978306619144"><ele>1851.0</ele><time>2026-03-29T17:06:10Z</time></trkpt><trkpt lat="36.87461520671121" lon="-108.12989423791329"><ele>1850.1666666666667</ele><time>2026-03-29T17:06:11Z</time></trkpt><trkpt lat="36.874554293017724" lon="-108.1299946872065"><ele>1849.3333333333335</ele><time>2026-03-29T17:06:12Z</time></trkpt><trkpt lat="36.874536778492235" lon="-108.13012322045113"><ele>1848.5</ele><time>2026-03-29T17:06:13Z</time></trkpt><trkpt lat="36.87453132838091" lon="-108.13022570033525"><ele>1847.6666666666667</ele><time>2026-03-29T17:06:14Z</time></trkpt><trkpt lat="36.87450575700472" lon="-108.1303112827455"><ele>1846.8333333333335</ele><time>2026-03-29T17:06:15Z</time></trkpt><trkpt lat="36.87446366362992" lon="-108.13037651206865"><ele>1846.0</ele><time>2026-03-29T17:06:16Z</time></trkpt><trkpt lat="36.87448207591657" lon="-108.13047452731124"><ele>1846.0</ele><time>2026-03-29T17:06:17Z</time></trkpt><trkpt lat="36.87447143205465" lon="-108.1306001756736"><ele>1846.0</ele><time>2026-03-29T17:06:18Z</time></trkpt><trkpt lat="36.874444964930014" lon="-108.13071027082154"><ele>1846.0</ele><time>2026-03-29T17:06:19Z</time></trkpt><trkpt lat="36.874449886299004" lon="-108.13082149065261"><ele>1846.0</ele><time>2026-03-29T17:06:20Z</time></trkpt><trkpt lat="36.874475529235156" lon="-108.1309562864986"><ele>1846.0</ele><time>2026-03-29T17:06:21Z</time></trkpt><trkpt lat="36.87448494422604" lon="-108.13108320731412"><ele>1844.75</ele><time>2026-03-29T17:06:22Z</time></trkpt><trkpt lat="36.8744594263543" lon="-108.13121881627967"><ele>1843.5</ele><time>2026-03-29T17:06:23Z</time></trkpt><trkpt lat="36.87445427595568" lon="-108.13135181851543"><ele>1842.25</ele><time>2026-03-29T17:06:24Z</time></trkpt><trkpt lat="36.87450667574338" lon="-108.13147859419571"><ele>1841.0</ele><time>2026-03-29T17:06:25Z</time></trkpt><trkpt lat="36.87456639338203" lon="-108.13162693061983"><ele>1839.6666666666665</ele><time>2026-03-29T17:06:26Z</time></trkpt><trkpt lat="36.874607511407625" lon="-108.13174299736586"><ele>1838.3333333333333</ele><time>2026-03-29T17:06:27Z</time></trkpt><trkpt lat="36.87463899759617" lon="-108.13183116747722"><ele>1837.0</ele><time>2026-03-29T17:06:28Z</time></trkpt><trkpt lat="36.87463556079004" lon="-108.13191553832273"><ele>1835.6666666666665</ele><time>2026-03-29T17:06:29Z</time></trkpt><trkpt lat="36.874593980619224" lon="-108.13200715915633"><ele>1834.3333333333333</ele><time>2026-03-29T17:06:30Z</time></trkpt><trkpt lat="36.87450259179109" lon="-108.13208490591717"><ele>1833.0</ele><time>2026-03-29T17:06:31Z</time></trkpt><trkpt lat="36.87443154003781" lon="-108.13221433540551"><ele>1833.0</ele><time>2026-03-29T17:06:32Z</time></trkpt><trkpt lat="36.87440136855118" lon="-108.1323539384813"><ele>1833.0000000000002</ele><time>2026-03-29T17:06:33Z</time></trkpt><trkpt lat="36.87438584052852" lon="-108.13247821584456"><ele>1833.0000000000002</ele><time>2026-03-29T17:06:34Z</time></trkpt><trkpt lat="36.87438525515821" lon="-108.13256038808184"><ele>1833.0</ele><time>2026-03-29T17:06:35Z</time></trkpt><trkpt lat="36.87431231773971" lon="-108.13265703149952"><ele>1833.0</ele><time>2026-03-29T17:06:37Z</time></trkpt><trkpt lat="36.87420984996149" lon="-108.13273523749363"><ele>1831.25</ele><time>2026-03-29T17:06:38Z</time></trkpt><trkpt lat="36.874144830792325" lon="-108.13286267393329"><ele>1829.5</ele><time>2026-03-29T17:06:39Z</time></trkpt><trkpt lat="36.874107431913146" lon="-108.13301870254911"><ele>1827.75</ele><time>2026-03-29T17:06:40Z</time></trkpt><trkpt lat="36.87408696981689" lon="-108.13317843053542"><ele>1826.0</ele><time>2026-03-29T17:06:41Z</time></trkpt><trkpt lat="36.87408789921606" lon="-108.13333930698539"><ele>1825.0</ele><time>2026-03-29T17:06:42Z</time></trkpt><trkpt lat="36.87410641296959" lon="-108.13350234828044"><ele>1824.0</ele><time>2026-03-29T17:06:43Z</time></trkpt><trkpt lat="36.87412063233667" lon="-108.1337056327358"><ele>1823.0</ele><time>2026-03-29T17:06:44Z</time></trkpt><trkpt lat="36.87411386919978" lon="-108.13393560441959"><ele>1822.0</ele><time>2026-03-29T17:06:45Z</time></trkpt><trkpt lat="36.87410653878357" lon="-108.13417287745114"><ele>1821.0</ele><time>2026-03-29T17:06:46Z</time></trkpt><trkpt lat="36.87409038717579" lon="-108.13437670203878"><ele>1820.0</ele><time>2026-03-29T17:06:47Z</time></trkpt><trkpt lat="36.8740365681559" lon="-108.13450533556686"><ele>1820.0</ele><time>2026-03-29T17:06:48Z</time></trkpt><trkpt lat="36.87396369313362" lon="-108.13462071378636"><ele>1820.0</ele><time>2026-03-29T17:06:49Z</time></trkpt><trkpt lat="36.873853440715855" lon="-108.13472029489826"><ele>1820.0</ele><time>2026-03-29T17:06:50Z</time></trkpt><trkpt lat="36.873773443762104" lon="-108.13482926125903"><ele>1820.0</ele><time>2026-03-29T17:06:51Z</time></trkpt><trkpt lat="36.87373560324761" lon="-108.13494596423529"><ele>1819.5</ele><time>2026-03-29T17:06:52Z</time></trkpt><trkpt lat="36.87365659274929" lon="-108.13505583219253"><ele>1819.0</ele><time>2026-03-29T17:06:53Z</time></trkpt><trkpt lat="36.87355541864762" lon="-108.1351148209951"><ele>1818.5</ele><time>2026-03-29T17:06:54Z</time></trkpt><trkpt lat="36.87345006417931" lon="-108.13520047533795"><ele>1818.0</ele><time>2026-03-29T17:06:55Z</time></trkpt><trkpt lat="36.87337502165534" lon="-108.13534954185948"><ele>1818.0</ele><time>2026-03-29T17:06:56Z</time></trkpt><trkpt lat="36.87327007267956" lon="-108.13549928005061"><ele>1818.0</ele><time>2026-03-29T17:06:57Z</time></trkpt><trkpt lat="36.873121561252056" lon="-108.1356504918094"><ele>1818.0</ele><time>2026-03-29T17:06:58Z</time></trkpt><trkpt lat="36.87303597369746" lon="-108.13580267041594"><ele>1817.75</ele><time>2026-03-29T17:06:59Z</time></trkpt><trkpt lat="36.872952354541766" lon="-108.13591087851201"><ele>1817.5</ele><time>2026-03-29T17:07:00Z</time></trkpt><trkpt lat="36.87284436600909" lon="-108.13595186522214"><ele>1817.25</ele><time>2026-03-29T17:07:01Z</time></trkpt><trkpt lat="36.87272588281046" lon="-108.135941172227"><ele>1817.0</ele><time>2026-03-29T17:07:02Z</time></trkpt><trkpt lat="36.87259452957483" lon="-108.13589388082944"><ele>1816.8</ele><time>2026-03-29T17:07:03Z</time></trkpt><trkpt lat="36.87245482615662" lon="-108.1358582458945"><ele>1816.6</ele><time>2026-03-29T17:07:04Z</time></trkpt><trkpt lat="36.87235179958705" lon="-108.1358222279121"><ele>1816.3999999999999</ele><time>2026-03-29T17:07:05Z</time></trkpt><trkpt lat="36.872264832723026" lon="-108.1358009295012"><ele>1816.1999999999998</ele><time>2026-03-29T17:07:06Z</time></trkpt><trkpt lat="36.87216372207574" lon="-108.13585572860528"><ele>1816.0</ele><time>2026-03-29T17:07:07Z</time></trkpt><trkpt lat="36.87206596910008" lon="-108.13593630963024"><ele>1816.0</ele><time>2026-03-29T17:07:08Z</time></trkpt><trkpt lat="36.87198291081246" lon="-108.13598730189258"><ele>1816.0</ele><time>2026-03-29T17:07:09Z</time></trkpt><trkpt lat="36.871876518900834" lon="-108.13597215466548"><ele>1816.0</ele><time>2026-03-29T17:07:10Z</time></trkpt><trkpt lat="36.87178390758413" lon="-108.13595421471854"><ele>1816.0</ele><time>2026-03-29T17:07:11Z</time></trkpt><trkpt lat="36.87168267692839" lon="-108.1359881670776"><ele>1816.0</ele><time>2026-03-29T17:07:12Z</time></trkpt><trkpt lat="36.87154665868184" lon="-108.13599728808822"><ele>1815.5</ele><time>2026-03-29T17:07:13Z</time></trkpt><trkpt lat="36.87137224765556" lon="-108.13602121337814"><ele>1815.0</ele><time>2026-03-29T17:07:14Z</time></trkpt><trkpt lat="36.87122429635444" lon="-108.13603243315913"><ele>1814.5</ele><time>2026-03-29T17:07:15Z</time></trkpt><trkpt lat="36.87111518321959" lon="-108.13603835627059"><ele>1814.0</ele><time>2026-03-29T17:07:16Z</time></trkpt><trkpt lat="36.87098821561419" lon="-108.13600356257933"><ele>1813.0</ele><time>2026-03-29T17:07:17Z</time></trkpt><trkpt lat="36.870861883274664" lon="-108.135965627776"><ele>1812.0</ele><time>2026-03-29T17:07:18Z</time></trkpt><trkpt lat="36.870742922207086" lon="-108.13591895565123"><ele>1811.0</ele><time>2026-03-29T17:07:19Z</time></trkpt><trkpt lat="36.8706448669948" lon="-108.13588163864176"><ele>1810.0</ele><time>2026-03-29T17:07:20Z</time></trkpt><trkpt lat="36.87053845000724" lon="-108.13587202875148"><ele>1810.0</ele><time>2026-03-29T17:07:21Z</time></trkpt><trkpt lat="36.87041402171985" lon="-108.13589010491535"><ele>1810.0</ele><time>2026-03-29T17:07:22Z</time></trkpt><trkpt lat="36.870293088278416" lon="-108.13589677312086"><ele>1810.0</ele><time>2026-03-29T17:07:23Z</time></trkpt><trkpt lat="36.87018761004109" lon="-108.13590480449528"><ele>1810.0</ele><time>2026-03-29T17:07:24Z</time></trkpt><trkpt lat="36.87010736169887" lon="-108.1359428822996"><ele>1810.0</ele><time>2026-03-29T17:07:25Z</time></trkpt><trkpt lat="36.8700343573482" lon="-108.13592337697064"><ele>1809.8</ele><time>2026-03-29T17:07:26Z</time></trkpt><trkpt lat="36.86995423444058" lon="-108.13582792109159"><ele>1809.6</ele><time>2026-03-29T17:07:27Z</time></trkpt><trkpt lat="36.86984768449555" lon="-108.13575278803604"><ele>1809.4</ele><time>2026-03-29T17:07:28Z</time></trkpt><trkpt lat="36.86973418118336" lon="-108.13569641010469"><ele>1809.2</ele><time>2026-03-29T17:07:29Z</time></trkpt><trkpt lat="36.86965777607143" lon="-108.13571338958965"><ele>1809.0</ele><time>2026-03-29T17:07:30Z</time></trkpt><trkpt lat="36.86958872909287" lon="-108.13555722710409"><ele>1810.0</ele><time>2026-03-29T17:07:32Z</time></trkpt><trkpt lat="36.86960277125119" lon="-108.13538703845357"><ele>1811.0</ele><time>2026-03-29T17:07:33Z</time></trkpt><trkpt lat="36.86962366838105" lon="-108.13526659636663"><ele>1812.0</ele><time>2026-03-29T17:07:34Z</time></trkpt><trkpt lat="36.86963481808644" lon="-108.13518008001421"><ele>1813.0</ele><time>2026-03-29T17:07:35Z</time></trkpt><trkpt lat="36.86963753471519" lon="-108.13505539562628"><ele>1814.0</ele><time>2026-03-29T17:07:36Z</time></trkpt><trkpt lat="36.86965418982856" lon="-108.13494610879029"><ele>1814.0</ele><time>2026-03-29T17:07:37Z</time></trkpt><trkpt lat="36.869576751108" lon="-108.13482611543114"><ele>1814.0</ele><time>2026-03-29T17:07:39Z</time></trkpt><trkpt lat="36.869459926573235" lon="-108.13477641828769"><ele>1814.0</ele><time>2026-03-29T17:07:40Z</time></trkpt><trkpt lat="36.86937435132672" lon="-108.13471043707922"><ele>1814.0</ele><time>2026-03-29T17:07:41Z</time></trkpt><trkpt lat="36.869323818488326" lon="-108.13464825505696"><ele>1814.0</ele><time>2026-03-29T17:07:42Z</time></trkpt><trkpt lat="36.86921804840206" lon="-108.1345780841555"><ele>1814.8000000000002</ele><time>2026-03-29T17:07:43Z</time></trkpt><trkpt lat="36.86912433626717" lon="-108.13457044605613"><ele>1815.6000000000001</ele><time>2026-03-29T17:07:44Z</time></trkpt><trkpt lat="36.869016562328774" lon="-108.13459507034561"><ele>1816.4</ele><time>2026-03-29T17:07:45Z</time></trkpt><trkpt lat="36.86889757360178" lon="-108.13461953157878"><ele>1817.2</ele><time>2026-03-29T17:07:46Z</time></trkpt><trkpt lat="36.86878759821943" lon="-108.13464789264137"><ele>1818.0</ele><time>2026-03-29T17:07:47Z</time></trkpt><trkpt lat="36.868680611195884" lon="-108.13466742256522"><ele>1818.0</ele><time>2026-03-29T17:07:48Z</time></trkpt><trkpt lat="36.86860551611145" lon="-108.13468878598933"><ele>1818.0</ele><time>2026-03-29T17:07:49Z</time></trkpt><trkpt lat="36.86855081539329" lon="-108.13474359861918"><ele>1818.0</ele><time>2026-03-29T17:07:50Z</time></trkpt><trkpt lat="36.86855451849806" lon="-108.13484809190972"><ele>1818.0</ele><time>2026-03-29T17:07:51Z</time></trkpt><trkpt lat="36.86854930799862" lon="-108.13498786806812"><ele>1818.0</ele><time>2026-03-29T17:07:52Z</time></trkpt><trkpt lat="36.8684981092757" lon="-108.13509048612865"><ele>1818.0</ele><time>2026-03-29T17:07:53Z</time></trkpt><trkpt lat="36.868427403709255" lon="-108.13514870634008"><ele>1818.2</ele><time>2026-03-29T17:07:54Z</time></trkpt><trkpt lat="36.868388174019685" lon="-108.13521854794111"><ele>1818.4</ele><time>2026-03-29T17:07:55Z</time></trkpt><trkpt lat="36.86837872477473" lon="-108.13532119769705"><ele>1818.6000000000001</ele><time>2026-03-29T17:07:56Z</time></trkpt><trkpt lat="36.86830736079162" lon="-108.13539249441598"><ele>1818.8000000000002</ele><time>2026-03-29T17:07:57Z</time></trkpt><trkpt lat="36.86820080930595" lon="-108.13542395623703"><ele>1819.0</ele><time>2026-03-29T17:07:58Z</time></trkpt><trkpt lat="36.868095272056806" lon="-108.13544344831739"><ele>1819.0</ele><time>2026-03-29T17:07:59Z</time></trkpt><trkpt lat="36.86800899791607" lon="-108.13545681671235"><ele>1819.0</ele><time>2026-03-29T17:08:00Z</time></trkpt><trkpt lat="36.867928648829704" lon="-108.1354675651059"><ele>1819.0</ele><time>2026-03-29T17:08:01Z</time></trkpt><trkpt lat="36.86783625992336" lon="-108.13542635377512"><ele>1819.0</ele><time>2026-03-29T17:08:02Z</time></trkpt><trkpt lat="36.867721455376675" lon="-108.13538500694571"><ele>1819.0</ele><time>2026-03-29T17:08:03Z</time></trkpt><trkpt lat="36.867595242643326" lon="-108.13537910488635"><ele>1817.8000000000002</ele><time>2026-03-29T17:08:04Z</time></trkpt><trkpt lat="36.86747978304687" lon="-108.13539879241071"><ele>1816.6000000000001</ele><time>2026-03-29T17:08:05Z</time></trkpt><trkpt lat="36.86736039446258" lon="-108.13541966618574"><ele>1815.4</ele><time>2026-03-29T17:08:06Z</time></trkpt><trkpt lat="36.867253914966355" lon="-108.13546016405616"><ele>1814.2</ele><time>2026-03-29T17:08:07Z</time></trkpt><trkpt lat="36.86716689499006" lon="-108.13545337421017"><ele>1813.0</ele><time>2026-03-29T17:08:08Z</time></trkpt><trkpt lat="36.86705738916198" lon="-108.13539687459574"><ele>1813.0</ele><time>2026-03-29T17:08:09Z</time></trkpt><trkpt lat="36.8669711869763" lon="-108.13538867565798"><ele>1813.0000000000002</ele><time>2026-03-29T17:08:10Z</time></trkpt><trkpt lat="36.86688909768953" lon="-108.13543096843343"><ele>1813.0000000000002</ele><time>2026-03-29T17:08:11Z</time></trkpt><trkpt lat="36.866783350842006" lon="-108.13550413498687"><ele>1813.0</ele><time>2026-03-29T17:08:12Z</time></trkpt><trkpt lat="36.866683684750015" lon="-108.1355475160666"><ele>1813.0</ele><time>2026-03-29T17:08:13Z</time></trkpt><trkpt lat="36.86657110503577" lon="-108.13552643592689"><ele>1813.0</ele><time>2026-03-29T17:08:14Z</time></trkpt><trkpt lat="36.86649955294459" lon="-108.13557253130755"><ele>1813.0000000000002</ele><time>2026-03-29T17:08:15Z</time></trkpt><trkpt lat="36.86644647602884" lon="-108.13567757777258"><ele>1813.0000000000002</ele><time>2026-03-29T17:08:16Z</time></trkpt><trkpt lat="36.86639973419191" lon="-108.13581812272987"><ele>1813.0</ele><time>2026-03-29T17:08:17Z</time></trkpt><trkpt lat="36.86632254677647" lon="-108.13593777415066"><ele>1813.0</ele><time>2026-03-29T17:08:18Z</time></trkpt><trkpt lat="36.866248870994625" lon="-108.13601719647401"><ele>1812.8000000000002</ele><time>2026-03-29T17:08:19Z</time></trkpt><trkpt lat="36.866172195539484" lon="-108.1360813135672"><ele>1812.6000000000001</ele><time>2026-03-29T17:08:20Z</time></trkpt><trkpt lat="36.866071342497094" lon="-108.13616132640865"><ele>1812.3999999999999</ele><time>2026-03-29T17:08:21Z</time></trkpt><trkpt lat="36.866017850855485" lon="-108.13625732689106"><ele>1812.1999999999998</ele><time>2026-03-29T17:08:22Z</time></trkpt><trkpt lat="36.86596314561955" lon="-108.1363585175534"><ele>1812.0</ele><time>2026-03-29T17:08:23Z</time></trkpt><trkpt lat="36.86587582124393" lon="-108.13644385948197"><ele>1812.75</ele><time>2026-03-29T17:08:24Z</time></trkpt><trkpt lat="36.86578746256503" lon="-108.13655110833874"><ele>1813.5</ele><time>2026-03-29T17:08:25Z</time></trkpt><trkpt lat="36.86565173069697" lon="-108.13663577767983"><ele>1814.25</ele><time>2026-03-29T17:08:26Z</time></trkpt><trkpt lat="36.86552067533016" lon="-108.13668725381585"><ele>1815.0</ele><time>2026-03-29T17:08:27Z</time></trkpt><trkpt lat="36.86539074993572" lon="-108.1367449129187"><ele>1815.0</ele><time>2026-03-29T17:08:28Z</time></trkpt><trkpt lat="36.86527397459789" lon="-108.13677767243793"><ele>1815.0</ele><time>2026-03-29T17:08:29Z</time></trkpt><trkpt lat="36.865185624529616" lon="-108.13681222516001"><ele>1815.0</ele><time>2026-03-29T17:08:30Z</time></trkpt><trkpt lat="36.86508434966914" lon="-108.13689471077808"><ele>1815.0</ele><time>2026-03-29T17:08:31Z</time></trkpt><trkpt lat="36.864985308098746" lon="-108.13700162053762"><ele>1816.0</ele><time>2026-03-29T17:08:32Z</time></trkpt><trkpt lat="36.8648977845648" lon="-108.13708330398674"><ele>1817.0</ele><time>2026-03-29T17:08:33Z</time></trkpt><trkpt lat="36.8648032192052" lon="-108.13716329476016"><ele>1818.0</ele><time>2026-03-29T17:08:34Z</time></trkpt><trkpt lat="36.86470898116503" lon="-108.13724458330356"><ele>1819.0</ele><time>2026-03-29T17:08:35Z</time></trkpt><trkpt lat="36.8646290242833" lon="-108.13729979915188"><ele>1820.0</ele><time>2026-03-29T17:08:36Z</time></trkpt><trkpt lat="36.86451948371454" lon="-108.13734315602831"><ele>1820.6666666666665</ele><time>2026-03-29T17:08:37Z</time></trkpt><trkpt lat="36.86443576133243" lon="-108.13738988388947"><ele>1821.3333333333333</ele><time>2026-03-29T17:08:38Z</time></trkpt><trkpt lat="36.86435308170787" lon="-108.13743128779298"><ele>1822.0</ele><time>2026-03-29T17:08:39Z</time></trkpt><trkpt lat="36.864261183349846" lon="-108.13744380512341"><ele>1822.6666666666665</ele><time>2026-03-29T17:08:40Z</time></trkpt><trkpt lat="36.86417127607846" lon="-108.13744674715397"><ele>1823.3333333333333</ele><time>2026-03-29T17:08:41Z</time></trkpt><trkpt lat="36.864099773515775" lon="-108.13744531572156"><ele>1824.0</ele><time>2026-03-29T17:08:42Z</time></trkpt><trkpt lat="36.86402497841024" lon="-108.13748109628055"><ele>1824.3333333333333</ele><time>2026-03-29T17:08:43Z</time></trkpt><trkpt lat="36.863940048195786" lon="-108.13753701602181"><ele>1824.6666666666665</ele><time>2026-03-29T17:08:44Z</time></trkpt><trkpt lat="36.86385442309306" lon="-108.13757216000641"><ele>1825.0</ele><time>2026-03-29T17:08:45Z</time></trkpt><trkpt lat="36.86378540610094" lon="-108.13758085537687"><ele>1825.3333333333333</ele><time>2026-03-29T17:08:46Z</time></trkpt><trkpt lat="36.863717044212514" lon="-108.13759227925713"><ele>1825.6666666666665</ele><time>2026-03-29T17:08:47Z</time></trkpt><trkpt lat="36.863631595337694" lon="-108.13763313557443"><ele>1826.0</ele><time>2026-03-29T17:08:48Z</time></trkpt><trkpt lat="36.863552031157816" lon="-108.1376866173824"><ele>1825.9999999999998</ele><time>2026-03-29T17:08:49Z</time></trkpt><trkpt lat="36.863453947922686" lon="-108.13771394151428"><ele>1826.0</ele><time>2026-03-29T17:08:50Z</time></trkpt><trkpt lat="36.86337396222872" lon="-108.13775494487658"><ele>1826.0</ele><time>2026-03-29T17:08:51Z</time></trkpt><trkpt lat="36.863343400645554" lon="-108.13783356550711"><ele>1826.0</ele><time>2026-03-29T17:08:52Z</time></trkpt><trkpt lat="36.86334254338168" lon="-108.13792961291472"><ele>1825.9999999999998</ele><time>2026-03-29T17:08:53Z</time></trkpt><trkpt lat="36.86334082169048" lon="-108.13802580900067"><ele>1826.0</ele><time>2026-03-29T17:08:54Z</time></trkpt><trkpt lat="36.86333718542178" lon="-108.13810810208592"><ele>1826.0</ele><time>2026-03-29T17:08:55Z</time></trkpt><trkpt lat="36.86340365547865" lon="-108.13826068924746"><ele>1826.0</ele><time>2026-03-29T17:08:57Z</time></trkpt><trkpt lat="36.86338982844492" lon="-108.1383464787463"><ele>1826.0</ele><time>2026-03-29T17:08:58Z</time></trkpt><trkpt lat="36.863332087960835" lon="-108.13846133743485"><ele>1826.0</ele><time>2026-03-29T17:08:59Z</time></trkpt><trkpt lat="36.86329370235623" lon="-108.1385656351537"><ele>1826.0</ele><time>2026-03-29T17:09:00Z</time></trkpt><trkpt lat="36.86323810437395" lon="-108.13865165563348"><ele>1825.9999999999998</ele><time>2026-03-29T17:09:01Z</time></trkpt><trkpt lat="36.86317430430004" lon="-108.13866522977837"><ele>1826.0</ele><time>2026-03-29T17:09:02Z</time></trkpt><trkpt lat="36.86307053439971" lon="-108.13864756012414"><ele>1826.0</ele><time>2026-03-29T17:09:03Z</time></trkpt><trkpt lat="36.862977807165954" lon="-108.13867755516401"><ele>1826.0</ele><time>2026-03-29T17:09:04Z</time></trkpt><trkpt lat="36.8629209244439" lon="-108.13873651202292"><ele>1825.9999999999998</ele><time>2026-03-29T17:09:05Z</time></trkpt><trkpt lat="36.86285657916219" lon="-108.13872882725647"><ele>1826.0</ele><time>2026-03-29T17:09:06Z</time></trkpt><trkpt lat="36.86278123377437" lon="-108.13870814050055"><ele>1826.0</ele><time>2026-03-29T17:09:07Z</time></trkpt><trkpt lat="36.86267249561368" lon="-108.13868267090302"><ele>1826.0</ele><time>2026-03-29T17:09:08Z</time></trkpt><trkpt lat="36.86262209211899" lon="-108.13876046174244"><ele>1826.0</ele><time>2026-03-29T17:09:09Z</time></trkpt><trkpt lat="36.86255466323896" lon="-108.13885715848106"><ele>1826.0</ele><time>2026-03-29T17:09:10Z</time></trkpt><trkpt lat="36.86246488404482" lon="-108.13891719065596"><ele>1826.0</ele><time>2026-03-29T17:09:11Z</time></trkpt><trkpt lat="36.86236466906417" lon="-108.13893237742333"><ele>1826.8</ele><time>2026-03-29T17:09:12Z</time></trkpt><trkpt lat="36.86229552558504" lon="-108.13901184173591"><ele>1827.6</ele><time>2026-03-29T17:09:13Z</time></trkpt><trkpt lat="36.862207447157274" lon="-108.1390993397451"><ele>1828.4</ele><time>2026-03-29T17:09:14Z</time></trkpt><trkpt lat="36.86211094319713" lon="-108.13915037010409"><ele>1829.2</ele><time>2026-03-29T17:09:15Z</time></trkpt><trkpt lat="36.862016747772195" lon="-108.13921812499463"><ele>1830.0</ele><time>2026-03-29T17:09:16Z</time></trkpt><trkpt lat="36.86190723091427" lon="-108.13928932123841"><ele>1830.0</ele><time>2026-03-29T17:09:17Z</time></trkpt><trkpt lat="36.861831946570305" lon="-108.13937457909425"><ele>1830.0</ele><time>2026-03-29T17:09:18Z</time></trkpt><trkpt lat="36.861765643980746" lon="-108.13947468450057"><ele>1830.0</ele><time>2026-03-29T17:09:19Z</time></trkpt><trkpt lat="36.861680872139715" lon="-108.13957997291406"><ele>1830.0</ele><time>2026-03-29T17:09:20Z</time></trkpt><trkpt lat="36.86153993174894" lon="-108.13965188329072"><ele>1830.0</ele><time>2026-03-29T17:09:21Z</time></trkpt><trkpt lat="36.86141236176084" lon="-108.13975293124292"><ele>1830.0</ele><time>2026-03-29T17:09:22Z</time></trkpt><trkpt lat="36.86131462817498" lon="-108.13989761970167"><ele>1830.0</ele><time>2026-03-29T17:09:23Z</time></trkpt><trkpt lat="36.861240508584274" lon="-108.14008863120108"><ele>1829.3333333333335</ele><time>2026-03-29T17:09:24Z</time></trkpt><trkpt lat="36.86117013235698" lon="-108.14027798876515"><ele>1828.6666666666667</ele><time>2026-03-29T17:09:25Z</time></trkpt><trkpt lat="36.861102686599494" lon="-108.14047448671826"><ele>1828.0</ele><time>2026-03-29T17:09:26Z</time></trkpt><trkpt lat="36.86103659351204" lon="-108.1406498974243"><ele>1827.75</ele><time>2026-03-29T17:09:27Z</time></trkpt><trkpt lat="36.86097846474558" lon="-108.14080938231285"><ele>1827.5</ele><time>2026-03-29T17:09:28Z</time></trkpt><trkpt lat="36.86093372398172" lon="-108.14095483173513"><ele>1827.25</ele><time>2026-03-29T17:09:29Z</time></trkpt><trkpt lat="36.860896896431484" lon="-108.14109092541293"><ele>1827.0</ele><time>2026-03-29T17:09:30Z</time></trkpt><trkpt lat="36.86087757243894" lon="-108.14122036306156"><ele>1827.0</ele><time>2026-03-29T17:09:31Z</time></trkpt><trkpt lat="36.8608653413821" lon="-108.14136441126627"><ele>1826.9999999999998</ele><time>2026-03-29T17:09:32Z</time></trkpt><trkpt lat="36.86084428307426" lon="-108.14153007711862"><ele>1826.9999999999998</ele><time>2026-03-29T17:09:33Z</time></trkpt><trkpt lat="36.86080244151538" lon="-108.1416606168581"><ele>1827.0</ele><time>2026-03-29T17:09:34Z</time></trkpt><trkpt lat="36.8608261703388" lon="-108.14175495080552"><ele>1827.0</ele><time>2026-03-29T17:09:36Z</time></trkpt><trkpt lat="36.86092512730668" lon="-108.14182870298758"><ele>1827.0</ele><time>2026-03-29T17:09:37Z</time></trkpt><trkpt lat="36.86100824851475" lon="-108.14196526360227"><ele>1826.9999999999998</ele><time>2026-03-29T17:09:38Z</time></trkpt><trkpt lat="36.86103882377359" lon="-108.14209169454234"><ele>1826.9999999999998</ele><time>2026-03-29T17:09:39Z</time></trkpt><trkpt lat="36.861053309036464" lon="-108.14219704547956"><ele>1827.0</ele><time>2026-03-29T17:09:40Z</time></trkpt><trkpt lat="36.861068988934456" lon="-108.14231061338678"><ele>1827.0</ele><time>2026-03-29T17:09:41Z</time></trkpt><trkpt lat="36.86099332028317" lon="-108.14241771382608"><ele>1828.75</ele><time>2026-03-29T17:09:42Z</time></trkpt><trkpt lat="36.86088771720251" lon="-108.14253701695448"><ele>1830.5</ele><time>2026-03-29T17:09:43Z</time></trkpt><trkpt lat="36.86080007258865" lon="-108.14262879673126"><ele>1832.25</ele><time>2026-03-29T17:09:44Z</time></trkpt><trkpt lat="36.860726089607226" lon="-108.14273235102364"><ele>1834.0</ele><time>2026-03-29T17:09:45Z</time></trkpt><trkpt lat="36.860635300452756" lon="-108.14283233108347"><ele>1834.0</ele><time>2026-03-29T17:09:46Z</time></trkpt><trkpt lat="36.86054917369271" lon="-108.14289768021983"><ele>1834.0</ele><time>2026-03-29T17:09:47Z</time></trkpt><trkpt lat="36.86045743215848" lon="-108.14297192126845"><ele>1834.0</ele><time>2026-03-29T17:09:48Z</time></trkpt><trkpt lat="36.86030960428894" lon="-108.14304337288841"><ele>1834.0</ele><time>2026-03-29T17:09:49Z</time></trkpt><trkpt lat="36.86015711868553" lon="-108.14309939629305"><ele>1834.75</ele><time>2026-03-29T17:09:50Z</time></trkpt><trkpt lat="36.86004037326852" lon="-108.14315213222406"><ele>1835.5</ele><time>2026-03-29T17:09:51Z</time></trkpt><trkpt lat="36.85993025306497" lon="-108.1432277316396"><ele>1836.25</ele><time>2026-03-29T17:09:52Z</time></trkpt><trkpt lat="36.85981987190382" lon="-108.1432912659561"><ele>1837.0</ele><time>2026-03-29T17:09:53Z</time></trkpt><trkpt lat="36.85972506953047" lon="-108.14332258644396"><ele>1837.6</ele><time>2026-03-29T17:09:54Z</time></trkpt><trkpt lat="36.85965415971221" lon="-108.14339935354029"><ele>1838.1999999999998</ele><time>2026-03-29T17:09:56Z</time></trkpt><trkpt lat="36.85969972304099" lon="-108.14353026661436"><ele>1838.8</ele><time>2026-03-29T17:09:57Z</time></trkpt><trkpt lat="36.859683108579276" lon="-108.14367093395315"><ele>1839.4</ele><time>2026-03-29T17:09:58Z</time></trkpt><trkpt lat="36.85964496496701" lon="-108.14377562326963"><ele>1840.0</ele><time>2026-03-29T17:09:59Z</time></trkpt><trkpt lat="36.85965769607405" lon="-108.1438787476732"><ele>1840.0</ele><time>2026-03-29T17:10:00Z</time></trkpt><trkpt lat="36.859670435634484" lon="-108.14400170453015"><ele>1840.0</ele><time>2026-03-29T17:10:01Z</time></trkpt><trkpt lat="36.859680133114665" lon="-108.14414049948988"><ele>1840.0</ele><time>2026-03-29T17:10:02Z</time></trkpt><trkpt lat="36.859684633381136" lon="-108.14423359540814"><ele>1840.0</ele><time>2026-03-29T17:10:03Z</time></trkpt><trkpt lat="36.859613941590325" lon="-108.1443695920117"><ele>1840.0</ele><time>2026-03-29T17:10:04Z</time></trkpt><trkpt lat="36.859541194216774" lon="-108.1445202557667"><ele>1840.4</ele><time>2026-03-29T17:10:05Z</time></trkpt><trkpt lat="36.85947713766932" lon="-108.14462780845598"><ele>1840.8</ele><time>2026-03-29T17:10:06Z</time></trkpt><trkpt lat="36.85944871954441" lon="-108.14475700021063"><ele>1841.1999999999998</ele><time>2026-03-29T17:10:07Z</time></trkpt><trkpt lat="36.85942543945143" lon="-108.14489025193977"><ele>1841.6</ele><time>2026-03-29T17:10:08Z</time></trkpt><trkpt lat="36.85935577345707" lon="-108.14498656732867"><ele>1842.0</ele><time>2026-03-29T17:10:09Z</time></trkpt><trkpt lat="36.85926446356402" lon="-108.1450790844494"><ele>1842.0</ele><time>2026-03-29T17:10:10Z</time></trkpt><trkpt lat="36.85919929281288" lon="-108.14520484142018"><ele>1841.9999999999998</ele><time>2026-03-29T17:10:11Z</time></trkpt><trkpt lat="36.85918393957946" lon="-108.1453107277637"><ele>1841.9999999999998</ele><time>2026-03-29T17:10:12Z</time></trkpt><trkpt lat="36.859153643017294" lon="-108.14539786041284"><ele>1842.0</ele><time>2026-03-29T17:10:13Z</time></trkpt><trkpt lat="36.859126176277535" lon="-108.14548422911966"><ele>1842.0</ele><time>2026-03-29T17:10:14Z</time></trkpt><trkpt lat="36.859085296506095" lon="-108.14563132973953"><ele>1842.1666666666667</ele><time>2026-03-29T17:10:16Z</time></trkpt><trkpt lat="36.85906411988982" lon="-108.14572739272813"><ele>1842.3333333333335</ele><time>2026-03-29T17:10:17Z</time></trkpt><trkpt lat="36.85902917125879" lon="-108.14581477869879"><ele>1842.5</ele><time>2026-03-29T17:10:18Z</time></trkpt><trkpt lat="36.858958567477906" lon="-108.1458714539123"><ele>1842.6666666666667</ele><time>2026-03-29T17:10:19Z</time></trkpt><trkpt lat="36.85888085084957" lon="-108.14591144306073"><ele>1842.8333333333335</ele><time>2026-03-29T17:10:20Z</time></trkpt><trkpt lat="36.85880905058379" lon="-108.14597161400845"><ele>1843.0</ele><time>2026-03-29T17:10:21Z</time></trkpt><trkpt lat="36.858712746745304" lon="-108.14602650501284"><ele>1843.0</ele><time>2026-03-29T17:10:22Z</time></trkpt><trkpt lat="36.85861174259146" lon="-108.14606475000697"><ele>1843.0000000000002</ele><time>2026-03-29T17:10:23Z</time></trkpt><trkpt lat="36.85852202278101" lon="-108.14609497213894"><ele>1843.0000000000002</ele><time>2026-03-29T17:10:24Z</time></trkpt><trkpt lat="36.858443536899344" lon="-108.14613487713844"><ele>1843.0</ele><time>2026-03-29T17:10:25Z</time></trkpt><trkpt lat="36.85839929607735" lon="-108.14619175468425"><ele>1843.0</ele><time>2026-03-29T17:10:26Z</time></trkpt><trkpt lat="36.85847631640575" lon="-108.14633068108414"><ele>1843.0</ele><time>2026-03-29T17:10:28Z</time></trkpt><trkpt lat="36.85851210414791" lon="-108.1464387698011"><ele>1843.0000000000002</ele><time>2026-03-29T17:10:29Z</time></trkpt><trkpt lat="36.858526729562016" lon="-108.14656412302867"><ele>1843.0000000000002</ele><time>2026-03-29T17:10:30Z</time></trkpt><trkpt lat="36.85854355993279" lon="-108.14668238133063"><ele>1843.0</ele><time>2026-03-29T17:10:31Z</time></trkpt><trkpt lat="36.858550490887325" lon="-108.14677668860949"><ele>1843.0</ele><time>2026-03-29T17:10:32Z</time></trkpt><trkpt lat="36.85852623007863" lon="-108.14690278912744"><ele>1843.0000000000002</ele><time>2026-03-29T17:10:33Z</time></trkpt><trkpt lat="36.85853200935049" lon="-108.14702730782689"><ele>1843.0</ele><time>2026-03-29T17:10:34Z</time></trkpt><trkpt lat="36.8585496001312" lon="-108.14712723953723"><ele>1843.0</ele><time>2026-03-29T17:10:35Z</time></trkpt><trkpt lat="36.85854081662562" lon="-108.14721919510984"><ele>1843.0</ele><time>2026-03-29T17:10:36Z</time></trkpt><trkpt lat="36.85856123680592" lon="-108.14731390043518"><ele>1843.0000000000002</ele><time>2026-03-29T17:10:37Z</time></trkpt><trkpt lat="36.85862894393198" lon="-108.14739634911759"><ele>1843.0</ele><time>2026-03-29T17:10:38Z</time></trkpt><trkpt lat="36.858699552215995" lon="-108.14748245268885"><ele>1843.0</ele><time>2026-03-29T17:10:39Z</time></trkpt><trkpt lat="36.85873385508207" lon="-108.14760045238013"><ele>1843.0000000000002</ele><time>2026-03-29T17:10:40Z</time></trkpt><trkpt lat="36.858729297129955" lon="-108.14774538233507"><ele>1843.0000000000002</ele><time>2026-03-29T17:10:41Z</time></trkpt><trkpt lat="36.85872176837038" lon="-108.1478961141239"><ele>1843.0</ele><time>2026-03-29T17:10:42Z</time></trkpt><trkpt lat="36.858683319963426" lon="-108.148013348475"><ele>1843.0</ele><time>2026-03-29T17:10:43Z</time></trkpt><trkpt lat="36.85863034436576" lon="-108.14811840496706"><ele>1843.0</ele><time>2026-03-29T17:10:44Z</time></trkpt><trkpt lat="36.85859554537641" lon="-108.1482084701887"><ele>1843.0000000000002</ele><time>2026-03-29T17:10:45Z</time></trkpt><trkpt lat="36.858638228393936" lon="-108.14837859396306"><ele>1843.0000000000002</ele><time>2026-03-29T17:10:47Z</time></trkpt><trkpt lat="36.85865215679229" lon="-108.14847783633044"><ele>1843.0</ele><time>2026-03-29T17:10:48Z</time></trkpt><trkpt lat="36.85867586572975" lon="-108.14857200184719"><ele>1843.0</ele><time>2026-03-29T17:10:49Z</time></trkpt><trkpt lat="36.85870033625093" lon="-108.14869310860861"><ele>1843.1666666666667</ele><time>2026-03-29T17:10:50Z</time></trkpt><trkpt lat="36.85873045596253" lon="-108.14878393346703"><ele>1843.3333333333335</ele><time>2026-03-29T17:10:51Z</time></trkpt><trkpt lat="36.858743653278545" lon="-108.1489073629768"><ele>1843.5</ele><time>2026-03-29T17:10:52Z</time></trkpt><trkpt lat="36.85872248511887" lon="-108.14901386017394"><ele>1843.6666666666665</ele><time>2026-03-29T17:10:53Z</time></trkpt><trkpt lat="36.858738355467835" lon="-108.14910233776934"><ele>1843.8333333333333</ele><time>2026-03-29T17:10:54Z</time></trkpt><trkpt lat="36.858788893481304" lon="-108.14920457387007"><ele>1844.0</ele><time>2026-03-29T17:10:55Z</time></trkpt><trkpt lat="36.85879504795677" lon="-108.14929310507318"><ele>1844.6666666666665</ele><time>2026-03-29T17:10:56Z</time></trkpt><trkpt lat="36.8587670544547" lon="-108.14936996704166"><ele>1845.3333333333333</ele><time>2026-03-29T17:10:57Z</time></trkpt><trkpt lat="36.85871843741736" lon="-108.14946747186507"><ele>1846.0</ele><time>2026-03-29T17:10:58Z</time></trkpt><trkpt lat="36.85867441764345" lon="-108.149558956809"><ele>1846.6666666666665</ele><time>2026-03-29T17:10:59Z</time></trkpt><trkpt lat="36.85860168300552" lon="-108.14962394608959"><ele>1847.3333333333333</ele><time>2026-03-29T17:11:00Z</time></trkpt><trkpt lat="36.85851423132268" lon="-108.14969759579972"><ele>1848.0</ele><time>2026-03-29T17:11:01Z</time></trkpt><trkpt lat="36.85843836185923" lon="-108.14977591611711"><ele>1848.6666666666667</ele><time>2026-03-29T17:11:02Z</time></trkpt><trkpt lat="36.85837988958076" lon="-108.14984966041061"><ele>1849.3333333333335</ele><time>2026-03-29T17:11:03Z</time></trkpt><trkpt lat="36.85831705355582" lon="-108.14992103914224"><ele>1850.0</ele><time>2026-03-29T17:11:04Z</time></trkpt><trkpt lat="36.85825559672428" lon="-108.14997973923239"><ele>1850.6666666666667</ele><time>2026-03-29T17:11:05Z</time></trkpt><trkpt lat="36.8582145547612" lon="-108.1500499531736"><ele>1851.3333333333335</ele><time>2026-03-29T17:11:06Z</time></trkpt><trkpt lat="36.85820295545375" lon="-108.15018886337731"><ele>1852.0</ele><time>2026-03-29T17:11:07Z</time></trkpt><trkpt lat="36.85817930928601" lon="-108.15031330020538"><ele>1852.6</ele><time>2026-03-29T17:11:08Z</time></trkpt><trkpt lat="36.85815031954474" lon="-108.15042251507731"><ele>1853.1999999999998</ele><time>2026-03-29T17:11:09Z</time></trkpt><trkpt lat="36.85810106764233" lon="-108.15050616385031"><ele>1853.8</ele><time>2026-03-29T17:11:10Z</time></trkpt><trkpt lat="36.858026232778414" lon="-108.15059304637238"><ele>1854.4</ele><time>2026-03-29T17:11:11Z</time></trkpt><trkpt lat="36.85798284000133" lon="-108.15069815012255"><ele>1855.0</ele><time>2026-03-29T17:11:12Z</time></trkpt><trkpt lat="36.85795489539825" lon="-108.15079518057604"><ele>1855.2</ele><time>2026-03-29T17:11:13Z</time></trkpt><trkpt lat="36.8578884054408" lon="-108.15089418217518"><ele>1855.4</ele><time>2026-03-29T17:11:14Z</time></trkpt><trkpt lat="36.85783348173782" lon="-108.1509784526387"><ele>1855.6</ele><time>2026-03-29T17:11:15Z</time></trkpt><trkpt lat="36.85780672115741" lon="-108.15105973618451"><ele>1855.8</ele><time>2026-03-29T17:11:16Z</time></trkpt><trkpt lat="36.857863121520815" lon="-108.15121776790824"><ele>1856.0</ele><time>2026-03-29T17:11:18Z</time></trkpt><trkpt lat="36.857880349779464" lon="-108.15129375670898"><ele>1855.9999999999998</ele><time>2026-03-29T17:11:19Z</time></trkpt><trkpt lat="36.85784459387009" lon="-108.15137048236504"><ele>1856.0</ele><time>2026-03-29T17:11:20Z</time></trkpt><trkpt lat="36.857799329597555" lon="-108.15145874061422"><ele>1856.0</ele><time>2026-03-29T17:11:21Z</time></trkpt><trkpt lat="36.857805793170776" lon="-108.15156303459845"><ele>1856.0</ele><time>2026-03-29T17:11:22Z</time></trkpt><trkpt lat="36.857826116131115" lon="-108.15166086431056"><ele>1855.9999999999998</ele><time>2026-03-29T17:11:23Z</time></trkpt><trkpt lat="36.857850336428655" lon="-108.15174148176665"><ele>1856.0</ele><time>2026-03-29T17:11:24Z</time></trkpt><trkpt lat="36.85785592225903" lon="-108.15183213413783"><ele>1855.1666666666665</ele><time>2026-03-29T17:11:25Z</time></trkpt><trkpt lat="36.85784839150008" lon="-108.15193107977764"><ele>1854.3333333333333</ele><time>2026-03-29T17:11:26Z</time></trkpt><trkpt lat="36.85787576173215" lon="-108.15209209127377"><ele>1853.5</ele><time>2026-03-29T17:11:28Z</time></trkpt><trkpt lat="36.85787891362368" lon="-108.15219133759925"><ele>1852.6666666666665</ele><time>2026-03-29T17:11:29Z</time></trkpt><trkpt lat="36.85787665853442" lon="-108.1522705428107"><ele>1851.8333333333333</ele><time>2026-03-29T17:11:30Z</time></trkpt><trkpt lat="36.85786264124333" lon="-108.1523538548043"><ele>1851.0</ele><time>2026-03-29T17:11:31Z</time></trkpt><trkpt lat="36.857839827335425" lon="-108.15242790183615"><ele>1850.8333333333333</ele><time>2026-03-29T17:11:32Z</time></trkpt><trkpt lat="36.8578099472851" lon="-108.15250374511335"><ele>1850.6666666666665</ele><time>2026-03-29T17:11:33Z</time></trkpt><trkpt lat="36.85777870911523" lon="-108.15257874610701"><ele>1850.5</ele><time>2026-03-29T17:11:34Z</time></trkpt><trkpt lat="36.857735095627824" lon="-108.15274498587453"><ele>1850.3333333333333</ele><time>2026-03-29T17:11:36Z</time></trkpt><trkpt lat="36.85768711477407" lon="-108.15279972982042"><ele>1850.1666666666665</ele><time>2026-03-29T17:11:37Z</time></trkpt><trkpt lat="36.85763512435307" lon="-108.15285613505775"><ele>1850.0</ele><time>2026-03-29T17:11:38Z</time></trkpt><trkpt lat="36.85758734095361" lon="-108.15294029210877"><ele>1850.4999999999998</ele><time>2026-03-29T17:11:39Z</time></trkpt><trkpt lat="36.85754726493411" lon="-108.15304110840343"><ele>1851.0</ele><time>2026-03-29T17:11:40Z</time></trkpt><trkpt lat="36.85754073127106" lon="-108.15314733014296"><ele>1851.5</ele><time>2026-03-29T17:11:41Z</time></trkpt><trkpt lat="36.85752994611325" lon="-108.15324249942725"><ele>1852.0</ele><time>2026-03-29T17:11:42Z</time></trkpt><trkpt lat="36.85749441937629" lon="-108.15333060514823"><ele>1852.4999999999998</ele><time>2026-03-29T17:11:43Z</time></trkpt><trkpt lat="36.857459772489804" lon="-108.1534244353279"><ele>1853.0</ele><time>2026-03-29T17:11:44Z</time></trkpt><trkpt lat="36.85743942538322" lon="-108.15351305378361"><ele>1853.0</ele><time>2026-03-29T17:11:45Z</time></trkpt><trkpt lat="36.85745088008496" lon="-108.15361922688611"><ele>1853.0000000000002</ele><time>2026-03-29T17:11:46Z</time></trkpt><trkpt lat="36.85746127294437" lon="-108.15370911080825"><ele>1853.0000000000002</ele><time>2026-03-29T17:11:47Z</time></trkpt><trkpt lat="36.85749732748608" lon="-108.15384254786973"><ele>1853.0</ele><time>2026-03-29T17:11:49Z</time></trkpt><trkpt lat="36.85747607295155" lon="-108.15398287130259"><ele>1853.0</ele><time>2026-03-29T17:11:51Z</time></trkpt><trkpt lat="36.85745471668611" lon="-108.1540644647299"><ele>1853.2</ele><time>2026-03-29T17:11:52Z</time></trkpt><trkpt lat="36.85743057054678" lon="-108.15419289715491"><ele>1853.4</ele><time>2026-03-29T17:11:53Z</time></trkpt><trkpt lat="36.85741079911852" lon="-108.15429930909514"><ele>1853.6000000000001</ele><time>2026-03-29T17:11:54Z</time></trkpt><trkpt lat="36.85734866870099" lon="-108.15441572594453"><ele>1853.8000000000002</ele><time>2026-03-29T17:11:56Z</time></trkpt><trkpt lat="36.85729932113202" lon="-108.15448806826134"><ele>1854.0</ele><time>2026-03-29T17:11:57Z</time></trkpt><trkpt lat="36.85726258709464" lon="-108.15457991050599"><ele>1854.0</ele><time>2026-03-29T17:11:58Z</time></trkpt><trkpt lat="36.85723243029454" lon="-108.1546677937444"><ele>1854.0</ele><time>2026-03-29T17:11:59Z</time></trkpt><trkpt lat="36.8571895192266" lon="-108.1547505340629"><ele>1854.0</ele><time>2026-03-29T17:12:00Z</time></trkpt><trkpt lat="36.85715727583137" lon="-108.15486752198768"><ele>1854.0</ele><time>2026-03-29T17:12:01Z</time></trkpt><trkpt lat="36.85714856587388" lon="-108.15499020493009"><ele>1854.0</ele><time>2026-03-29T17:12:02Z</time></trkpt><trkpt lat="36.857144342889185" lon="-108.15508195947378"><ele>1854.0</ele><time>2026-03-29T17:12:03Z</time></trkpt><trkpt lat="36.85711681074387" lon="-108.15515996255039"><ele>1854.2</ele><time>2026-03-29T17:12:04Z</time></trkpt><trkpt lat="36.85703166873493" lon="-108.1552200096117"><ele>1854.4</ele><time>2026-03-29T17:12:05Z</time></trkpt><trkpt lat="36.85693409084197" lon="-108.15527898028489"><ele>1854.6</ele><time>2026-03-29T17:12:06Z</time></trkpt><trkpt lat="36.856856720726476" lon="-108.15536653466944"><ele>1854.8</ele><time>2026-03-29T17:12:07Z</time></trkpt><trkpt lat="36.85679755542721" lon="-108.15548227618365"><ele>1855.0</ele><time>2026-03-29T17:12:08Z</time></trkpt><trkpt lat="36.856728655035944" lon="-108.15554764590175"><ele>1855.1666666666667</ele><time>2026-03-29T17:12:09Z</time></trkpt><trkpt lat="36.856669624770795" lon="-108.15560134059461"><ele>1855.3333333333335</ele><time>2026-03-29T17:12:10Z</time></trkpt><trkpt lat="36.85664311910362" lon="-108.15568523088888"><ele>1855.5</ele><time>2026-03-29T17:12:12Z</time></trkpt><trkpt lat="36.856618803881204" lon="-108.15581090206432"><ele>1855.6666666666665</ele><time>2026-03-29T17:12:13Z</time></trkpt><trkpt lat="36.8565738040788" lon="-108.15590441892944"><ele>1855.8333333333333</ele><time>2026-03-29T17:12:14Z</time></trkpt><trkpt lat="36.856522237717606" lon="-108.15597036271686"><ele>1856.0</ele><time>2026-03-29T17:12:15Z</time></trkpt><trkpt lat="36.85648085560741" lon="-108.15607060630623"><ele>1856.1666666666665</ele><time>2026-03-29T17:12:16Z</time></trkpt><trkpt lat="36.85643949489854" lon="-108.15614278175195"><ele>1856.3333333333333</ele><time>2026-03-29T17:12:17Z</time></trkpt><trkpt lat="36.85641565367114" lon="-108.15623074532276"><ele>1856.5</ele><time>2026-03-29T17:12:18Z</time></trkpt><trkpt lat="36.85638736015863" lon="-108.15633606030121"><ele>1856.6666666666665</ele><time>2026-03-29T17:12:19Z</time></trkpt><trkpt lat="36.856382570766215" lon="-108.15644518701204"><ele>1856.8333333333333</ele><time>2026-03-29T17:12:20Z</time></trkpt><trkpt lat="36.85637029425006" lon="-108.15653011844681"><ele>1857.0</ele><time>2026-03-29T17:12:21Z</time></trkpt><trkpt lat="36.856301218243615" lon="-108.15656239688477"><ele>1857.0</ele><time>2026-03-29T17:12:22Z</time></trkpt><trkpt lat="36.85619548615481" lon="-108.15653736281979"><ele>1857.0</ele><time>2026-03-29T17:12:23Z</time></trkpt><trkpt lat="36.85611074501828" lon="-108.15653460027097"><ele>1857.0</ele><time>2026-03-29T17:12:24Z</time></trkpt><trkpt lat="36.8560627937225" lon="-108.1567234464557"><ele>1857.0</ele><time>2026-03-29T17:12:26Z</time></trkpt><trkpt lat="36.85602970056843" lon="-108.15684125999519"><ele>1857.0</ele><time>2026-03-29T17:12:27Z</time></trkpt><trkpt lat="36.855965813751595" lon="-108.1569121029187"><ele>1857.0</ele><time>2026-03-29T17:12:28Z</time></trkpt><trkpt lat="36.855893916849055" lon="-108.1569928924195"><ele>1857.0</ele><time>2026-03-29T17:12:29Z</time></trkpt><trkpt lat="36.85583396625812" lon="-108.15705033269606"><ele>1857.0</ele><time>2026-03-29T17:12:30Z</time></trkpt><trkpt lat="36.85580783664317" lon="-108.15715546835295"><ele>1857.0</ele><time>2026-03-29T17:12:31Z</time></trkpt><trkpt lat="36.85578732110817" lon="-108.15724482810215"><ele>1857.0</ele><time>2026-03-29T17:12:32Z</time></trkpt><trkpt lat="36.855784526326396" lon="-108.15732899349666"><ele>1857.1999999999998</ele><time>2026-03-29T17:12:33Z</time></trkpt><trkpt lat="36.85578767125728" lon="-108.15747022755512"><ele>1857.3999999999999</ele><time>2026-03-29T17:12:34Z</time></trkpt><trkpt lat="36.85579681176755" lon="-108.15758272827429"><ele>1857.6000000000001</ele><time>2026-03-29T17:12:35Z</time></trkpt><trkpt lat="36.855754952570265" lon="-108.15767899809818"><ele>1857.8000000000002</ele><time>2026-03-29T17:12:36Z</time></trkpt><trkpt lat="36.85573174263519" lon="-108.15778307598555"><ele>1858.0</ele><time>2026-03-29T17:12:37Z</time></trkpt><trkpt lat="36.85571557150871" lon="-108.15791525126376"><ele>1858.0000000000002</ele><time>2026-03-29T17:12:38Z</time></trkpt><trkpt lat="36.85568508910545" lon="-108.1579875624688"><ele>1858.0</ele><time>2026-03-29T17:12:39Z</time></trkpt><trkpt lat="36.855612249167585" lon="-108.1580528829539"><ele>1858.0</ele><time>2026-03-29T17:12:40Z</time></trkpt><trkpt lat="36.855550649375544" lon="-108.15810856215698"><ele>1858.0</ele><time>2026-03-29T17:12:41Z</time></trkpt><trkpt lat="36.85553080991781" lon="-108.15819395998635"><ele>1858.0000000000002</ele><time>2026-03-29T17:12:42Z</time></trkpt><trkpt lat="36.85550367077062" lon="-108.15829719711303"><ele>1858.0</ele><time>2026-03-29T17:12:43Z</time></trkpt><trkpt lat="36.85545524219358" lon="-108.1584097558534"><ele>1859.0</ele><time>2026-03-29T17:12:44Z</time></trkpt><trkpt lat="36.85538105331857" lon="-108.15852582579893"><ele>1860.0000000000002</ele><time>2026-03-29T17:12:45Z</time></trkpt><trkpt lat="36.8553258604896" lon="-108.15861938320936"><ele>1861.0000000000002</ele><time>2026-03-29T17:12:46Z</time></trkpt><trkpt lat="36.85526364071272" lon="-108.15869735415774"><ele>1862.0</ele><time>2026-03-29T17:12:47Z</time></trkpt><trkpt lat="36.855193117588115" lon="-108.15877468804834"><ele>1863.0</ele><time>2026-03-29T17:12:48Z</time></trkpt><trkpt lat="36.85514360882418" lon="-108.1588647464054"><ele>1862.6000000000001</ele><time>2026-03-29T17:12:49Z</time></trkpt><trkpt lat="36.85509395367002" lon="-108.15895426894197"><ele>1862.2000000000003</ele><time>2026-03-29T17:12:50Z</time></trkpt><trkpt lat="36.85502094936399" lon="-108.15903254961276"><ele>1861.8</ele><time>2026-03-29T17:12:51Z</time></trkpt><trkpt lat="36.85494566051572" lon="-108.15907621603407"><ele>1861.4</ele><time>2026-03-29T17:12:52Z</time></trkpt><trkpt lat="36.85484309946645" lon="-108.15908046137558"><ele>1861.0</ele><time>2026-03-29T17:12:53Z</time></trkpt><trkpt lat="36.854751136564886" lon="-108.15908012610281"><ele>1861.0</ele><time>2026-03-29T17:12:54Z</time></trkpt><trkpt lat="36.854662808254844" lon="-108.1590702318073"><ele>1861.0</ele><time>2026-03-29T17:12:55Z</time></trkpt><trkpt lat="36.85455561439433" lon="-108.15905392819027"><ele>1861.0</ele><time>2026-03-29T17:12:56Z</time></trkpt><trkpt lat="36.854459083264125" lon="-108.15906440405698"><ele>1861.0</ele><time>2026-03-29T17:12:57Z</time></trkpt><trkpt lat="36.854380818031984" lon="-108.1591280830733"><ele>1861.0</ele><time>2026-03-29T17:12:58Z</time></trkpt><trkpt lat="36.85429906621654" lon="-108.15919919866225"><ele>1859.8</ele><time>2026-03-29T17:12:59Z</time></trkpt><trkpt lat="36.85420740751272" lon="-108.15922434137266"><ele>1858.6</ele><time>2026-03-29T17:13:00Z</time></trkpt><trkpt lat="36.85409914999441" lon="-108.15922858993926"><ele>1857.4</ele><time>2026-03-29T17:13:01Z</time></trkpt><trkpt lat="36.85400469154754" lon="-108.15921508873781"><ele>1856.2</ele><time>2026-03-29T17:13:02Z</time></trkpt><trkpt lat="36.85392373296481" lon="-108.15918224565773"><ele>1855.0</ele><time>2026-03-29T17:13:03Z</time></trkpt><trkpt lat="36.85384850112703" lon="-108.15916518821787"><ele>1855.0</ele><time>2026-03-29T17:13:04Z</time></trkpt><trkpt lat="36.85376765944907" lon="-108.15921060340271"><ele>1855.0</ele><time>2026-03-29T17:13:05Z</time></trkpt><trkpt lat="36.853664114874114" lon="-108.15924957477546"><ele>1855.0</ele><time>2026-03-29T17:13:06Z</time></trkpt><trkpt lat="36.85359932444223" lon="-108.15928700324123"><ele>1855.0</ele><time>2026-03-29T17:13:07Z</time></trkpt><trkpt lat="36.853482024876655" lon="-108.15924664795818"><ele>1855.0</ele><time>2026-03-29T17:13:09Z</time></trkpt><trkpt lat="36.85340699449079" lon="-108.15921568461195"><ele>1854.1666666666667</ele><time>2026-03-29T17:13:10Z</time></trkpt><trkpt lat="36.85332351238433" lon="-108.15923298455891"><ele>1853.3333333333335</ele><time>2026-03-29T17:13:11Z</time></trkpt><trkpt lat="36.85323432525667" lon="-108.15926378247319"><ele>1852.5</ele><time>2026-03-29T17:13:12Z</time></trkpt><trkpt lat="36.85313103289577" lon="-108.15929278392943"><ele>1851.6666666666665</ele><time>2026-03-29T17:13:13Z</time></trkpt><trkpt lat="36.85305501852837" lon="-108.15932354898432"><ele>1850.8333333333333</ele><time>2026-03-29T17:13:14Z</time></trkpt><trkpt lat="36.8529826221589" lon="-108.1593619670459"><ele>1850.0</ele><time>2026-03-29T17:13:15Z</time></trkpt><trkpt lat="36.85291012091025" lon="-108.15940361449991"><ele>1849.9999999999998</ele><time>2026-03-29T17:13:16Z</time></trkpt><trkpt lat="36.85282634460299" lon="-108.15944749723269"><ele>1850.0</ele><time>2026-03-29T17:13:17Z</time></trkpt><trkpt lat="36.85274493886147" lon="-108.15948642030223"><ele>1850.0</ele><time>2026-03-29T17:13:18Z</time></trkpt><trkpt lat="36.85266687851195" lon="-108.15953112999337"><ele>1850.0</ele><time>2026-03-29T17:13:19Z</time></trkpt><trkpt lat="36.85258426135426" lon="-108.15959328892723"><ele>1849.9999999999998</ele><time>2026-03-29T17:13:20Z</time></trkpt><trkpt lat="36.852500604141675" lon="-108.15960143440105"><ele>1850.0</ele><time>2026-03-29T17:13:21Z</time></trkpt><trkpt lat="36.852410684607996" lon="-108.15957014767466"><ele>1849.4</ele><time>2026-03-29T17:13:22Z</time></trkpt><trkpt lat="36.85233821747975" lon="-108.1595436027364"><ele>1848.8</ele><time>2026-03-29T17:13:23Z</time></trkpt><trkpt lat="36.85224379964317" lon="-108.15950723958547"><ele>1848.1999999999998</ele><time>2026-03-29T17:13:24Z</time></trkpt><trkpt lat="36.85214891673403" lon="-108.15945756356135"><ele>1847.6</ele><time>2026-03-29T17:13:25Z</time></trkpt><trkpt lat="36.85205707547797" lon="-108.15940605198453"><ele>1847.0</ele><time>2026-03-29T17:13:26Z</time></trkpt><trkpt lat="36.851953568198816" lon="-108.15935066899073"><ele>1847.0</ele><time>2026-03-29T17:13:27Z</time></trkpt><trkpt lat="36.85186115664945" lon="-108.15931034707191"><ele>1846.9999999999998</ele><time>2026-03-29T17:13:28Z</time></trkpt><trkpt lat="36.85176217852791" lon="-108.15926978790672"><ele>1846.9999999999998</ele><time>2026-03-29T17:13:29Z</time></trkpt><trkpt lat="36.85166744855416" lon="-108.15922501032095"><ele>1847.0</ele><time>2026-03-29T17:13:30Z</time></trkpt><trkpt lat="36.85157111381593" lon="-108.15918650545022"><ele>1847.0</ele><time>2026-03-29T17:13:31Z</time></trkpt><trkpt lat="36.85149341464775" lon="-108.15920998220984"><ele>1846.3999999999999</ele><time>2026-03-29T17:13:32Z</time></trkpt><trkpt lat="36.85143826154984" lon="-108.159284460013"><ele>1845.7999999999997</ele><time>2026-03-29T17:13:33Z</time></trkpt><trkpt lat="36.85137169964451" lon="-108.15935116641029"><ele>1845.2</ele><time>2026-03-29T17:13:34Z</time></trkpt><trkpt lat="36.851273278322466" lon="-108.15933916325343"><ele>1844.6</ele><time>2026-03-29T17:13:35Z</time></trkpt><trkpt lat="36.85116183268716" lon="-108.15929532711023"><ele>1844.0</ele><time>2026-03-29T17:13:36Z</time></trkpt><trkpt lat="36.851068254934525" lon="-108.15922812242317"><ele>1844.0</ele><time>2026-03-29T17:13:37Z</time></trkpt><trkpt lat="36.85100227015155" lon="-108.15918152193612"><ele>1844.0</ele><time>2026-03-29T17:13:38Z</time></trkpt><trkpt lat="36.85090513656106" lon="-108.15930152135874"><ele>1844.0</ele><time>2026-03-29T17:13:40Z</time></trkpt><trkpt lat="36.85084953773335" lon="-108.159381448797"><ele>1844.0</ele><time>2026-03-29T17:13:41Z</time></trkpt><trkpt lat="36.850732635549775" lon="-108.15924406715905"><ele>1843.6</ele><time>2026-03-29T17:13:43Z</time></trkpt><trkpt lat="36.85066212140751" lon="-108.15913841742206"><ele>1843.2</ele><time>2026-03-29T17:13:44Z</time></trkpt><trkpt lat="36.850595432989714" lon="-108.15902020597554"><ele>1842.7999999999997</ele><time>2026-03-29T17:13:45Z</time></trkpt><trkpt lat="36.85056120774119" lon="-108.15891911562461"><ele>1842.3999999999999</ele><time>2026-03-29T17:13:46Z</time></trkpt><trkpt lat="36.85046408343199" lon="-108.1588330753352"><ele>1842.0</ele><time>2026-03-29T17:13:48Z</time></trkpt><trkpt lat="36.85034414055098" lon="-108.15885242024636"><ele>1841.25</ele><time>2026-03-29T17:13:49Z</time></trkpt><trkpt lat="36.850226452367956" lon="-108.15884387495208"><ele>1840.5</ele><time>2026-03-29T17:13:50Z</time></trkpt><trkpt lat="36.850109311288826" lon="-108.15882364119246"><ele>1839.75</ele><time>2026-03-29T17:13:51Z</time></trkpt><trkpt lat="36.84999798475037" lon="-108.15879738632808"><ele>1839.0</ele><time>2026-03-29T17:13:52Z</time></trkpt><trkpt lat="36.84989894147281" lon="-108.15876600519204"><ele>1838.3333333333333</ele><time>2026-03-29T17:13:53Z</time></trkpt><trkpt lat="36.84983226020354" lon="-108.15874339983637"><ele>1837.6666666666665</ele><time>2026-03-29T17:13:54Z</time></trkpt><trkpt lat="36.84976078139915" lon="-108.1587314401128"><ele>1837.0</ele><time>2026-03-29T17:13:55Z</time></trkpt><trkpt lat="36.84966654505931" lon="-108.15871549149354"><ele>1836.3333333333333</ele><time>2026-03-29T17:13:56Z</time></trkpt><trkpt lat="36.84957685684142" lon="-108.15869858289493"><ele>1835.6666666666665</ele><time>2026-03-29T17:13:57Z</time></trkpt><trkpt lat="36.849491083340716" lon="-108.15867645104075"><ele>1835.0</ele><time>2026-03-29T17:13:58Z</time></trkpt><trkpt lat="36.84940434231944" lon="-108.15865661635628"><ele>1835.0</ele><time>2026-03-29T17:13:59Z</time></trkpt><trkpt lat="36.849321222910966" lon="-108.15863378795073"><ele>1835.0</ele><time>2026-03-29T17:14:00Z</time></trkpt><trkpt lat="36.84922271597144" lon="-108.1586152884117"><ele>1835.0</ele><time>2026-03-29T17:14:01Z</time></trkpt><trkpt lat="36.849114044254705" lon="-108.15859661662486"><ele>1835.0</ele><time>2026-03-29T17:14:02Z</time></trkpt><trkpt lat="36.84904114924097" lon="-108.15857853254084"><ele>1835.0</ele><time>2026-03-29T17:14:03Z</time></trkpt><trkpt lat="36.84902988209555" lon="-108.15842391374353"><ele>1833.8</ele><time>2026-03-29T17:14:05Z</time></trkpt><trkpt lat="36.84905658477258" lon="-108.15830451116052"><ele>1832.6</ele><time>2026-03-29T17:14:06Z</time></trkpt><trkpt lat="36.84907738583327" lon="-108.1581854342709"><ele>1831.4</ele><time>2026-03-29T17:14:07Z</time></trkpt><trkpt lat="36.849107815100595" lon="-108.15804957321927"><ele>1830.2</ele><time>2026-03-29T17:14:08Z</time></trkpt><trkpt lat="36.84913203926273" lon="-108.15794038500601"><ele>1829.0</ele><time>2026-03-29T17:14:09Z</time></trkpt><trkpt lat="36.849131165617415" lon="-108.15780581749146"><ele>1828.3333333333333</ele><time>2026-03-29T17:14:10Z</time></trkpt><trkpt lat="36.84913806398634" lon="-108.15768502098923"><ele>1827.6666666666665</ele><time>2026-03-29T17:14:11Z</time></trkpt><trkpt lat="36.84913819819629" lon="-108.15757458287246"><ele>1827.0</ele><time>2026-03-29T17:14:12Z</time></trkpt><trkpt lat="36.84911096959219" lon="-108.15748619380577"><ele>1826.3333333333335</ele><time>2026-03-29T17:14:13Z</time></trkpt><trkpt lat="36.84906768550046" lon="-108.15742245583715"><ele>1825.6666666666667</ele><time>2026-03-29T17:14:14Z</time></trkpt><trkpt lat="36.84900582585611" lon="-108.15739666263224"><ele>1825.0</ele><time>2026-03-29T17:14:16Z</time></trkpt><trkpt lat="36.848989451418824" lon="-108.1574849331203"><ele>1825.0000000000002</ele><time>2026-03-29T17:14:17Z</time></trkpt><trkpt lat="36.84901801840119" lon="-108.15759258929045"><ele>1825.0</ele><time>2026-03-29T17:14:18Z</time></trkpt><trkpt lat="36.84905044109833" lon="-108.1576679196875"><ele>1825.0</ele><time>2026-03-29T17:14:19Z</time></trkpt><trkpt lat="36.8490507929011" lon="-108.15776331233407"><ele>1825.0</ele><time>2026-03-29T17:14:20Z</time></trkpt><trkpt lat="36.84899759009082" lon="-108.15787894716803"><ele>1825.0000000000002</ele><time>2026-03-29T17:14:21Z</time></trkpt><trkpt lat="36.848976429967266" lon="-108.15798697543931"><ele>1825.0</ele><time>2026-03-29T17:14:22Z</time></trkpt><trkpt lat="36.84897517202419" lon="-108.15811481856387"><ele>1826.0</ele><time>2026-03-29T17:14:23Z</time></trkpt><trkpt lat="36.84898828876093" lon="-108.15826556255008"><ele>1827.0</ele><time>2026-03-29T17:14:24Z</time></trkpt><trkpt lat="36.849001604974006" lon="-108.15841973090608"><ele>1828.0</ele><time>2026-03-29T17:14:25Z</time></trkpt><trkpt lat="36.849010709989365" lon="-108.1585350608785"><ele>1829.0</ele><time>2026-03-29T17:14:26Z</time></trkpt><trkpt lat="36.849007288406426" lon="-108.15867824426674"><ele>1829.0</ele><time>2026-03-29T17:14:28Z</time></trkpt><trkpt lat="36.84896262282288" lon="-108.15877888958744"><ele>1829.0</ele><time>2026-03-29T17:14:29Z</time></trkpt><trkpt lat="36.848975363919735" lon="-108.15890507423454"><ele>1829.0</ele><time>2026-03-29T17:14:30Z</time></trkpt><trkpt lat="36.848984516071035" lon="-108.1590425749574"><ele>1829.0</ele><time>2026-03-29T17:14:31Z</time></trkpt><trkpt lat="36.84898087320091" lon="-108.15917504006518"><ele>1829.0</ele><time>2026-03-29T17:14:32Z</time></trkpt><trkpt lat="36.848974698877704" lon="-108.15932336094464"><ele>1829.6</ele><time>2026-03-29T17:14:33Z</time></trkpt><trkpt lat="36.848978684771836" lon="-108.1594416256549"><ele>1830.2</ele><time>2026-03-29T17:14:34Z</time></trkpt><trkpt lat="36.84897363286254" lon="-108.15955362626796"><ele>1830.7999999999997</ele><time>2026-03-29T17:14:35Z</time></trkpt><trkpt lat="36.848971192225086" lon="-108.15968720138949"><ele>1831.3999999999999</ele><time>2026-03-29T17:14:36Z</time></trkpt><trkpt lat="36.84898976282273" lon="-108.15980113438816"><ele>1832.0</ele><time>2026-03-29T17:14:37Z</time></trkpt><trkpt lat="36.84898944766771" lon="-108.15990499913553"><ele>1832.1999999999998</ele><time>2026-03-29T17:14:38Z</time></trkpt><trkpt lat="36.84900208728151" lon="-108.16002381180233"><ele>1832.3999999999999</ele><time>2026-03-29T17:14:39Z</time></trkpt><trkpt lat="36.849019440217866" lon="-108.16013932466606"><ele>1832.6000000000001</ele><time>2026-03-29T17:14:40Z</time></trkpt><trkpt lat="36.84900611174104" lon="-108.16023658075197"><ele>1832.8000000000002</ele><time>2026-03-29T17:14:41Z</time></trkpt><trkpt lat="36.84898089481765" lon="-108.16036274122514"><ele>1833.0</ele><time>2026-03-29T17:14:42Z</time></trkpt><trkpt lat="36.84897171330485" lon="-108.1605096615781"><ele>1833.0</ele><time>2026-03-29T17:14:43Z</time></trkpt><trkpt lat="36.84900429253274" lon="-108.16063914050576"><ele>1833.0000000000002</ele><time>2026-03-29T17:14:44Z</time></trkpt><trkpt lat="36.84902551876995" lon="-108.16075166070172"><ele>1833.0000000000002</ele><time>2026-03-29T17:14:45Z</time></trkpt><trkpt lat="36.84895782069308" lon="-108.1608623896015"><ele>1833.0</ele><time>2026-03-29T17:14:47Z</time></trkpt><trkpt lat="36.848874025754085" lon="-108.16095220720504"><ele>1833.0</ele><time>2026-03-29T17:14:48Z</time></trkpt><trkpt lat="36.84878606937466" lon="-108.16106914228213"><ele>1832.75</ele><time>2026-03-29T17:14:49Z</time></trkpt><trkpt lat="36.84870159968179" lon="-108.1611718736765"><ele>1832.5</ele><time>2026-03-29T17:14:50Z</time></trkpt><trkpt lat="36.848586261831855" lon="-108.1612252143953"><ele>1832.25</ele><time>2026-03-29T17:14:51Z</time></trkpt><trkpt lat="36.84847954980097" lon="-108.16130431886724"><ele>1832.0</ele><time>2026-03-29T17:14:52Z</time></trkpt><trkpt lat="36.848399222367" lon="-108.16138218659611"><ele>1832.0</ele><time>2026-03-29T17:14:53Z</time></trkpt><trkpt lat="36.848322448790164" lon="-108.16147642761163"><ele>1832.0</ele><time>2026-03-29T17:14:54Z</time></trkpt><trkpt lat="36.84825396538306" lon="-108.16159479516641"><ele>1832.0</ele><time>2026-03-29T17:14:55Z</time></trkpt><trkpt lat="36.84818992253564" lon="-108.161710079156"><ele>1832.0</ele><time>2026-03-29T17:14:56Z</time></trkpt><trkpt lat="36.84809404911461" lon="-108.16182954375122"><ele>1833.0</ele><time>2026-03-29T17:14:57Z</time></trkpt><trkpt lat="36.84799639807104" lon="-108.16191905749433"><ele>1834.0</ele><time>2026-03-29T17:14:58Z</time></trkpt><trkpt lat="36.84790758734027" lon="-108.16201098876071"><ele>1835.0</ele><time>2026-03-29T17:14:59Z</time></trkpt><trkpt lat="36.84780727435286" lon="-108.16211421038571"><ele>1836.0</ele><time>2026-03-29T17:15:00Z</time></trkpt><trkpt lat="36.84770898461395" lon="-108.1621986852807"><ele>1835.0</ele><time>2026-03-29T17:15:01Z</time></trkpt><trkpt lat="36.84760685932253" lon="-108.16225984260876"><ele>1834.0</ele><time>2026-03-29T17:15:02Z</time></trkpt><trkpt lat="36.84749301943801" lon="-108.1622723391808"><ele>1833.0</ele><time>2026-03-29T17:15:03Z</time></trkpt><trkpt lat="36.84735871361921" lon="-108.16228634763883"><ele>1832.0</ele><time>2026-03-29T17:15:04Z</time></trkpt><trkpt lat="36.847255361967235" lon="-108.16231939128598"><ele>1832.0</ele><time>2026-03-29T17:15:05Z</time></trkpt><trkpt lat="36.8471655897141" lon="-108.16233074646486"><ele>1831.9999999999998</ele><time>2026-03-29T17:15:06Z</time></trkpt><trkpt lat="36.847081735993804" lon="-108.16234600157748"><ele>1831.9999999999998</ele><time>2026-03-29T17:15:07Z</time></trkpt><trkpt lat="36.84702294354481" lon="-108.16241994175917"><ele>1832.0</ele><time>2026-03-29T17:15:08Z</time></trkpt><trkpt lat="36.8469529689955" lon="-108.16251455573207"><ele>1832.0</ele><time>2026-03-29T17:15:09Z</time></trkpt><trkpt lat="36.846878890105636" lon="-108.16259153444355"><ele>1832.3999999999999</ele><time>2026-03-29T17:15:10Z</time></trkpt><trkpt lat="36.8468011739102" lon="-108.16264879589357"><ele>1832.7999999999997</ele><time>2026-03-29T17:15:11Z</time></trkpt><trkpt lat="36.84673385530981" lon="-108.16272500799674"><ele>1833.2</ele><time>2026-03-29T17:15:12Z</time></trkpt><trkpt lat="36.84667101414864" lon="-108.1628134840361"><ele>1833.6</ele><time>2026-03-29T17:15:13Z</time></trkpt><trkpt lat="36.846594603826226" lon="-108.16288337469923"><ele>1834.0</ele><time>2026-03-29T17:15:14Z</time></trkpt><trkpt lat="36.84649892690037" lon="-108.16295244196303"><ele>1833.0</ele><time>2026-03-29T17:15:15Z</time></trkpt><trkpt lat="36.84643209950459" lon="-108.16303188299707"><ele>1832.0</ele><time>2026-03-29T17:15:16Z</time></trkpt><trkpt lat="36.84635959022405" lon="-108.16310021084787"><ele>1831.0</ele><time>2026-03-29T17:15:17Z</time></trkpt><trkpt lat="36.84626095836798" lon="-108.16316940018811"><ele>1830.0</ele><time>2026-03-29T17:15:18Z</time></trkpt><trkpt lat="36.846153963644234" lon="-108.16322791703294"><ele>1829.0</ele><time>2026-03-29T17:15:19Z</time></trkpt><trkpt lat="36.846033608220026" lon="-108.16326102903047"><ele>1828.6666666666665</ele><time>2026-03-29T17:15:20Z</time></trkpt><trkpt lat="36.84593562047751" lon="-108.16328074644427"><ele>1828.3333333333333</ele><time>2026-03-29T17:15:21Z</time></trkpt><trkpt lat="36.84586538645813" lon="-108.16332396614611"><ele>1828.0</ele><time>2026-03-29T17:15:22Z</time></trkpt><trkpt lat="36.84579539628813" lon="-108.16338483330317"><ele>1827.6666666666665</ele><time>2026-03-29T17:15:23Z</time></trkpt><trkpt lat="36.84572444332467" lon="-108.16345556908138"><ele>1827.3333333333333</ele><time>2026-03-29T17:15:24Z</time></trkpt><trkpt lat="36.84564470326263" lon="-108.1635194014815"><ele>1827.0</ele><time>2026-03-29T17:15:25Z</time></trkpt><trkpt lat="36.845546772119036" lon="-108.16357496341456"><ele>1827.0</ele><time>2026-03-29T17:15:26Z</time></trkpt><trkpt lat="36.845462206537995" lon="-108.16367794508012"><ele>1827.0</ele><time>2026-03-29T17:15:27Z</time></trkpt><trkpt lat="36.84539496521641" lon="-108.16379168683098"><ele>1827.0</ele><time>2026-03-29T17:15:28Z</time></trkpt><trkpt lat="36.84530201490976" lon="-108.16389481964939"><ele>1827.0</ele><time>2026-03-29T17:15:29Z</time></trkpt><trkpt lat="36.845216448055766" lon="-108.16398505544471"><ele>1827.0</ele><time>2026-03-29T17:15:30Z</time></trkpt><trkpt lat="36.84513014228573" lon="-108.16403555744927"><ele>1827.0</ele><time>2026-03-29T17:15:31Z</time></trkpt><trkpt lat="36.84502438206474" lon="-108.16404212420512"><ele>1827.0</ele><time>2026-03-29T17:15:32Z</time></trkpt><trkpt lat="36.84490269699331" lon="-108.16402061198438"><ele>1827.0</ele><time>2026-03-29T17:15:33Z</time></trkpt><trkpt lat="36.84477288867868" lon="-108.16400641899061"><ele>1826.8</ele><time>2026-03-29T17:15:34Z</time></trkpt><trkpt lat="36.84465379451404" lon="-108.1640226416067"><ele>1826.6</ele><time>2026-03-29T17:15:35Z</time></trkpt><trkpt lat="36.844564433288795" lon="-108.16402717653119"><ele>1826.3999999999999</ele><time>2026-03-29T17:15:36Z</time></trkpt><trkpt lat="36.84447066113839" lon="-108.16402361067131"><ele>1826.1999999999998</ele><time>2026-03-29T17:15:37Z</time></trkpt><trkpt lat="36.84437670869941" lon="-108.1640352627278"><ele>1826.0</ele><time>2026-03-29T17:15:38Z</time></trkpt><trkpt lat="36.84429732809295" lon="-108.16406512186555"><ele>1825.1999999999998</ele><time>2026-03-29T17:15:39Z</time></trkpt><trkpt lat="36.84421261340722" lon="-108.16409102943754"><ele>1824.3999999999999</ele><time>2026-03-29T17:15:40Z</time></trkpt><trkpt lat="36.8441420301309" lon="-108.16416844726366"><ele>1823.6</ele><time>2026-03-29T17:15:41Z</time></trkpt><trkpt lat="36.84406102468108" lon="-108.16422799141567"><ele>1822.8</ele><time>2026-03-29T17:15:42Z</time></trkpt><trkpt lat="36.84393763364976" lon="-108.1642221783703"><ele>1822.0</ele><time>2026-03-29T17:15:43Z</time></trkpt><trkpt lat="36.84381581214105" lon="-108.16422543922066"><ele>1822.0</ele><time>2026-03-29T17:15:44Z</time></trkpt><trkpt lat="36.84368791747694" lon="-108.16427704515988"><ele>1822.0</ele><time>2026-03-29T17:15:45Z</time></trkpt><trkpt lat="36.84357466269255" lon="-108.16433134246401"><ele>1822.0</ele><time>2026-03-29T17:15:46Z</time></trkpt><trkpt lat="36.843473055901235" lon="-108.16438035952855"><ele>1822.0</ele><time>2026-03-29T17:15:47Z</time></trkpt><trkpt lat="36.8433787364094" lon="-108.16443408930274"><ele>1821.3999999999999</ele><time>2026-03-29T17:15:48Z</time></trkpt><trkpt lat="36.84326914017701" lon="-108.16449354571843"><ele>1820.7999999999997</ele><time>2026-03-29T17:15:49Z</time></trkpt><trkpt lat="36.84316902200861" lon="-108.16456489928505"><ele>1820.2</ele><time>2026-03-29T17:15:50Z</time></trkpt><trkpt lat="36.84308689573702" lon="-108.16462683675978"><ele>1819.6</ele><time>2026-03-29T17:15:51Z</time></trkpt><trkpt lat="36.843008048058834" lon="-108.16465072580822"><ele>1819.0</ele><time>2026-03-29T17:15:52Z</time></trkpt><trkpt lat="36.842896181306735" lon="-108.16466331012691"><ele>1819.0</ele><time>2026-03-29T17:15:53Z</time></trkpt><trkpt lat="36.84278152013235" lon="-108.16469214141344"><ele>1819.0</ele><time>2026-03-29T17:15:54Z</time></trkpt><trkpt lat="36.842679381299774" lon="-108.16473801028954"><ele>1819.0</ele><time>2026-03-29T17:15:55Z</time></trkpt><trkpt lat="36.842566656772405" lon="-108.16477879656074"><ele>1819.0</ele><time>2026-03-29T17:15:56Z</time></trkpt><trkpt lat="36.84245636002585" lon="-108.16479895518054"><ele>1818.2</ele><time>2026-03-29T17:15:57Z</time></trkpt><trkpt lat="36.842343688912564" lon="-108.16483230117245"><ele>1817.4</ele><time>2026-03-29T17:15:58Z</time></trkpt><trkpt lat="36.84223604910634" lon="-108.16486017381735"><ele>1816.6</ele><time>2026-03-29T17:15:59Z</time></trkpt><trkpt lat="36.84213508094167" lon="-108.16484461515307"><ele>1815.8</ele><time>2026-03-29T17:16:00Z</time></trkpt><trkpt lat="36.84203710736541" lon="-108.16483257934838"><ele>1815.0</ele><time>2026-03-29T17:16:01Z</time></trkpt><trkpt lat="36.84192883296243" lon="-108.16483781148077"><ele>1815.0</ele><time>2026-03-29T17:16:02Z</time></trkpt><trkpt lat="36.841819762786734" lon="-108.16484944637864"><ele>1815.0</ele><time>2026-03-29T17:16:03Z</time></trkpt><trkpt lat="36.841723307501915" lon="-108.16486139804807"><ele>1815.0</ele><time>2026-03-29T17:16:04Z</time></trkpt><trkpt lat="36.84163429524119" lon="-108.16487321705957"><ele>1815.0</ele><time>2026-03-29T17:16:05Z</time></trkpt><trkpt lat="36.841543655138246" lon="-108.1648805285983"><ele>1815.0</ele><time>2026-03-29T17:16:06Z</time></trkpt><trkpt lat="36.84146418214638" lon="-108.16489128531042"><ele>1816.0</ele><time>2026-03-29T17:16:07Z</time></trkpt><trkpt lat="36.84139431454141" lon="-108.16491004059606"><ele>1817.0</ele><time>2026-03-29T17:16:08Z</time></trkpt><trkpt lat="36.841320894645406" lon="-108.16491963038742"><ele>1818.0</ele><time>2026-03-29T17:16:09Z</time></trkpt><trkpt lat="36.84122902107879" lon="-108.16493648985535"><ele>1819.0</ele><time>2026-03-29T17:16:10Z</time></trkpt><trkpt lat="36.84114489328011" lon="-108.1649448853885"><ele>1820.0</ele><time>2026-03-29T17:16:11Z</time></trkpt><trkpt lat="36.84106521156465" lon="-108.16494571442246"><ele>1821.0</ele><time>2026-03-29T17:16:12Z</time></trkpt><trkpt lat="36.84097697920946" lon="-108.16494883770821"><ele>1820.6</ele><time>2026-03-29T17:16:13Z</time></trkpt><trkpt lat="36.84087756513904" lon="-108.16495666431248"><ele>1820.1999999999998</ele><time>2026-03-29T17:16:14Z</time></trkpt><trkpt lat="36.840772454084835" lon="-108.16494961399859"><ele>1819.8000000000002</ele><time>2026-03-29T17:16:15Z</time></trkpt><trkpt lat="36.84064527256499" lon="-108.16492018430758"><ele>1819.4</ele><time>2026-03-29T17:16:16Z</time></trkpt><trkpt lat="36.840542333857556" lon="-108.16489107629432"><ele>1819.0</ele><time>2026-03-29T17:16:17Z</time></trkpt><trkpt lat="36.84044257370393" lon="-108.16488562255456"><ele>1819.0</ele><time>2026-03-29T17:16:18Z</time></trkpt><trkpt lat="36.840337854942824" lon="-108.16489843153235"><ele>1819.0</ele><time>2026-03-29T17:16:19Z</time></trkpt><trkpt lat="36.84023901200149" lon="-108.16490647532588"><ele>1819.0</ele><time>2026-03-29T17:16:20Z</time></trkpt><trkpt lat="36.840148217177365" lon="-108.16491113266707"><ele>1819.0</ele><time>2026-03-29T17:16:21Z</time></trkpt><trkpt lat="36.840046814180226" lon="-108.16488651720812"><ele>1819.0</ele><time>2026-03-29T17:16:22Z</time></trkpt><trkpt lat="36.83992672621893" lon="-108.16486024256622"><ele>1817.25</ele><time>2026-03-29T17:16:23Z</time></trkpt><trkpt lat="36.83981057219292" lon="-108.1648565113337"><ele>1815.5</ele><time>2026-03-29T17:16:24Z</time></trkpt><trkpt lat="36.839691222174515" lon="-108.16484488967758"><ele>1813.75</ele><time>2026-03-29T17:16:25Z</time></trkpt><trkpt lat="36.83957291094138" lon="-108.16481605916617"><ele>1812.0</ele><time>2026-03-29T17:16:26Z</time></trkpt><trkpt lat="36.83946483098804" lon="-108.16479037834539"><ele>1812.0</ele><time>2026-03-29T17:16:27Z</time></trkpt><trkpt lat="36.83938646797004" lon="-108.16478605875282"><ele>1811.9999999999998</ele><time>2026-03-29T17:16:28Z</time></trkpt><trkpt lat="36.83929729470986" lon="-108.1648146967442"><ele>1811.9999999999998</ele><time>2026-03-29T17:16:29Z</time></trkpt><trkpt lat="36.83920448995708" lon="-108.16486372883134"><ele>1812.0</ele><time>2026-03-29T17:16:30Z</time></trkpt><trkpt lat="36.83911973664059" lon="-108.1649303880001"><ele>1812.0</ele><time>2026-03-29T17:16:31Z</time></trkpt><trkpt lat="36.839008024141975" lon="-108.1650169514074"><ele>1813.25</ele><time>2026-03-29T17:16:32Z</time></trkpt><trkpt lat="36.83890371222658" lon="-108.16511692556622"><ele>1814.5</ele><time>2026-03-29T17:16:33Z</time></trkpt><trkpt lat="36.83880327437069" lon="-108.1652157384429"><ele>1815.75</ele><time>2026-03-29T17:16:34Z</time></trkpt><trkpt lat="36.838703707592835" lon="-108.16529361685231"><ele>1817.0</ele><time>2026-03-29T17:16:35Z</time></trkpt><trkpt lat="36.838615555840704" lon="-108.16537911605663"><ele>1817.0</ele><time>2026-03-29T17:16:36Z</time></trkpt><trkpt lat="36.83855044796527" lon="-108.1654835949325"><ele>1816.9999999999998</ele><time>2026-03-29T17:16:37Z</time></trkpt><trkpt lat="36.838484110630404" lon="-108.16561107941789"><ele>1816.9999999999998</ele><time>2026-03-29T17:16:38Z</time></trkpt><trkpt lat="36.83841560811665" lon="-108.16571859893253"><ele>1817.0</ele><time>2026-03-29T17:16:39Z</time></trkpt><trkpt lat="36.838363961817265" lon="-108.16581119475393"><ele>1817.0</ele><time>2026-03-29T17:16:40Z</time></trkpt><trkpt lat="36.83829997921595" lon="-108.16588251393097"><ele>1816.1999999999998</ele><time>2026-03-29T17:16:41Z</time></trkpt><trkpt lat="36.83821961101619" lon="-108.16594249150599"><ele>1815.3999999999999</ele><time>2026-03-29T17:16:42Z</time></trkpt><trkpt lat="36.83811751961533" lon="-108.16600954590866"><ele>1814.6000000000001</ele><time>2026-03-29T17:16:43Z</time></trkpt><trkpt lat="36.83801375143033" lon="-108.16608436384558"><ele>1813.8000000000002</ele><time>2026-03-29T17:16:44Z</time></trkpt><trkpt lat="36.83792828406618" lon="-108.16615061690925"><ele>1813.0</ele><time>2026-03-29T17:16:45Z</time></trkpt><trkpt lat="36.83784143017027" lon="-108.16619408969586"><ele>1813.0</ele><time>2026-03-29T17:16:46Z</time></trkpt><trkpt lat="36.83776058399222" lon="-108.16625301468669"><ele>1813.0000000000002</ele><time>2026-03-29T17:16:47Z</time></trkpt><trkpt lat="36.83769382940074" lon="-108.16634125583958"><ele>1813.0000000000002</ele><time>2026-03-29T17:16:48Z</time></trkpt><trkpt lat="36.837599183624896" lon="-108.1664451864221"><ele>1813.0</ele><time>2026-03-29T17:16:49Z</time></trkpt><trkpt lat="36.837500375775406" lon="-108.16654174876012"><ele>1813.0</ele><time>2026-03-29T17:16:50Z</time></trkpt><trkpt lat="36.83745110992465" lon="-108.16663314039724"><ele>1812.8000000000002</ele><time>2026-03-29T17:16:51Z</time></trkpt><trkpt lat="36.83743135268955" lon="-108.16676940324521"><ele>1812.6000000000001</ele><time>2026-03-29T17:16:52Z</time></trkpt><trkpt lat="36.83739923535852" lon="-108.16691102957552"><ele>1812.3999999999999</ele><time>2026-03-29T17:16:53Z</time></trkpt><trkpt lat="36.83735278036154" lon="-108.16704771302233"><ele>1812.1999999999998</ele><time>2026-03-29T17:16:54Z</time></trkpt><trkpt lat="36.8373149060297" lon="-108.16715992494511"><ele>1812.0</ele><time>2026-03-29T17:16:55Z</time></trkpt><trkpt lat="36.83728196781239" lon="-108.1672570044158"><ele>1812.0</ele><time>2026-03-29T17:16:56Z</time></trkpt><trkpt lat="36.83723284605148" lon="-108.16735630052646"><ele>1811.9999999999998</ele><time>2026-03-29T17:16:57Z</time></trkpt><trkpt lat="36.83715917533511" lon="-108.16745992903218"><ele>1811.9999999999998</ele><time>2026-03-29T17:16:58Z</time></trkpt><trkpt lat="36.8370738584695" lon="-108.16756431082612"><ele>1812.0</ele><time>2026-03-29T17:16:59Z</time></trkpt><trkpt lat="36.83698087050686" lon="-108.16765917470101"><ele>1812.0</ele><time>2026-03-29T17:17:00Z</time></trkpt><trkpt lat="36.83687875817411" lon="-108.16773341834985"><ele>1812.3999999999999</ele><time>2026-03-29T17:17:01Z</time></trkpt><trkpt lat="36.8367822133021" lon="-108.167802389792"><ele>1812.7999999999997</ele><time>2026-03-29T17:17:02Z</time></trkpt><trkpt lat="36.83669459859401" lon="-108.16786896806884"><ele>1813.2</ele><time>2026-03-29T17:17:03Z</time></trkpt><trkpt lat="36.83661783558478" lon="-108.1679356925143"><ele>1813.6</ele><time>2026-03-29T17:17:04Z</time></trkpt><trkpt lat="36.83655261466941" lon="-108.16802496440425"><ele>1814.0</ele><time>2026-03-29T17:17:05Z</time></trkpt><trkpt lat="36.836448725172225" lon="-108.16807805282525"><ele>1814.0</ele><time>2026-03-29T17:17:06Z</time></trkpt><trkpt lat="36.83631570445716" lon="-108.16814063534218"><ele>1814.0</ele><time>2026-03-29T17:17:07Z</time></trkpt><trkpt lat="36.83619275858272" lon="-108.16823170585315"><ele>1814.0</ele><time>2026-03-29T17:17:08Z</time></trkpt><trkpt lat="36.83610690266329" lon="-108.16831966247415"><ele>1814.0</ele><time>2026-03-29T17:17:09Z</time></trkpt><trkpt lat="36.83602086786024" lon="-108.16841658963632"><ele>1813.6</ele><time>2026-03-29T17:17:10Z</time></trkpt><trkpt lat="36.8359545904203" lon="-108.16853606829629"><ele>1813.2</ele><time>2026-03-29T17:17:11Z</time></trkpt><trkpt lat="36.83589768371407" lon="-108.16864728017423"><ele>1812.7999999999997</ele><time>2026-03-29T17:17:12Z</time></trkpt><trkpt lat="36.83587261983947" lon="-108.16877915321841"><ele>1812.3999999999999</ele><time>2026-03-29T17:17:13Z</time></trkpt><trkpt lat="36.83586538673396" lon="-108.16892704366043"><ele>1812.0</ele><time>2026-03-29T17:17:14Z</time></trkpt><trkpt lat="36.835863908860816" lon="-108.1690526261573"><ele>1812.0</ele><time>2026-03-29T17:17:15Z</time></trkpt><trkpt lat="36.83586011975974" lon="-108.16918063195212"><ele>1812.0</ele><time>2026-03-29T17:17:16Z</time></trkpt><trkpt lat="36.83585481658144" lon="-108.1692900904213"><ele>1812.0</ele><time>2026-03-29T17:17:17Z</time></trkpt><trkpt lat="36.83585237023565" lon="-108.16940570226626"><ele>1812.0</ele><time>2026-03-29T17:17:18Z</time></trkpt><trkpt lat="36.83584699560779" lon="-108.1695079655101"><ele>1812.0</ele><time>2026-03-29T17:17:19Z</time></trkpt><trkpt lat="36.83583937879359" lon="-108.16960623086358"><ele>1812.0</ele><time>2026-03-29T17:17:20Z</time></trkpt><trkpt lat="36.835821376478386" lon="-108.16968808453711"><ele>1812.0</ele><time>2026-03-29T17:17:21Z</time></trkpt><trkpt lat="36.83580709658305" lon="-108.16977565814653"><ele>1812.0</ele><time>2026-03-29T17:17:22Z</time></trkpt><trkpt lat="36.83578682518985" lon="-108.16987709693316"><ele>1812.0</ele><time>2026-03-29T17:17:23Z</time></trkpt><trkpt lat="36.835739761079694" lon="-108.16994885078469"><ele>1812.0</ele><time>2026-03-29T17:17:24Z</time></trkpt><trkpt lat="36.83566719031384" lon="-108.16996182257033"><ele>1812.0</ele><time>2026-03-29T17:17:25Z</time></trkpt><trkpt lat="36.835554182200006" lon="-108.16989863457444"><ele>1812.0</ele><time>2026-03-29T17:17:26Z</time></trkpt><trkpt lat="36.835429621843204" lon="-108.16989101071393"><ele>1811.5</ele><time>2026-03-29T17:17:27Z</time></trkpt><trkpt lat="36.835334735523325" lon="-108.16996476155052"><ele>1811.0</ele><time>2026-03-29T17:17:28Z</time></trkpt><trkpt lat="36.83526923243701" lon="-108.17002735300568"><ele>1810.5</ele><time>2026-03-29T17:17:29Z</time></trkpt><trkpt lat="36.83520427017305" lon="-108.17003421201272"><ele>1810.0</ele><time>2026-03-29T17:17:30Z</time></trkpt><trkpt lat="36.83512687651561" lon="-108.17004037486784"><ele>1809.5</ele><time>2026-03-29T17:17:31Z</time></trkpt><trkpt lat="36.83504041956108" lon="-108.17005966037084"><ele>1809.0</ele><time>2026-03-29T17:17:32Z</time></trkpt><trkpt lat="36.83496335005027" lon="-108.17008875805391"><ele>1809.0</ele><time>2026-03-29T17:17:33Z</time></trkpt><trkpt lat="36.83487813752091" lon="-108.17011696254357"><ele>1809.0</ele><time>2026-03-29T17:17:34Z</time></trkpt><trkpt lat="36.83478308792333" lon="-108.17016050792624"><ele>1809.0</ele><time>2026-03-29T17:17:35Z</time></trkpt><trkpt lat="36.83468115918898" lon="-108.17018247779039"><ele>1809.0</ele><time>2026-03-29T17:17:36Z</time></trkpt><trkpt lat="36.83457679429157" lon="-108.17018787603111"><ele>1809.0</ele><time>2026-03-29T17:17:37Z</time></trkpt><trkpt lat="36.83444197727401" lon="-108.17015115526566"><ele>1809.0</ele><time>2026-03-29T17:17:38Z</time></trkpt><trkpt lat="36.83431406106912" lon="-108.17011181399184"><ele>1809.0</ele><time>2026-03-29T17:17:39Z</time></trkpt><trkpt lat="36.834207128054054" lon="-108.17008922938773"><ele>1809.0</ele><time>2026-03-29T17:17:40Z</time></trkpt><trkpt lat="36.83413029274791" lon="-108.17011018848784"><ele>1809.0</ele><time>2026-03-29T17:17:41Z</time></trkpt><trkpt lat="36.8340718283202" lon="-108.17016931586436"><ele>1809.0</ele><time>2026-03-29T17:17:42Z</time></trkpt><trkpt lat="36.834020707302756" lon="-108.17027606194324"><ele>1808.5</ele><time>2026-03-29T17:17:43Z</time></trkpt><trkpt lat="36.83395411345302" lon="-108.17037637561671"><ele>1808.0</ele><time>2026-03-29T17:17:44Z</time></trkpt><trkpt lat="36.833864789493326" lon="-108.17049016173503"><ele>1807.5</ele><time>2026-03-29T17:17:45Z</time></trkpt><trkpt lat="36.83380041070999" lon="-108.17062363560288"><ele>1807.0</ele><time>2026-03-29T17:17:46Z</time></trkpt><trkpt lat="36.833736945203434" lon="-108.17073271224362"><ele>1807.0</ele><time>2026-03-29T17:17:47Z</time></trkpt><trkpt lat="36.833670369878945" lon="-108.17082113397291"><ele>1806.9999999999998</ele><time>2026-03-29T17:17:48Z</time></trkpt><trkpt lat="36.833575204749465" lon="-108.17087792340291"><ele>1806.9999999999998</ele><time>2026-03-29T17:17:49Z</time></trkpt><trkpt lat="36.833456498884026" lon="-108.17094463819122"><ele>1807.0</ele><time>2026-03-29T17:17:50Z</time></trkpt><trkpt lat="36.833379990666046" lon="-108.17101760724964"><ele>1807.0</ele><time>2026-03-29T17:17:51Z</time></trkpt><trkpt lat="36.83333060831802" lon="-108.17112197635046"><ele>1806.8</ele><time>2026-03-29T17:17:52Z</time></trkpt><trkpt lat="36.833305990911406" lon="-108.1712160591638"><ele>1806.6</ele><time>2026-03-29T17:17:53Z</time></trkpt><trkpt lat="36.83327294226472" lon="-108.17134836565013"><ele>1806.3999999999999</ele><time>2026-03-29T17:17:54Z</time></trkpt><trkpt lat="36.83323493134554" lon="-108.17147580499228"><ele>1806.1999999999998</ele><time>2026-03-29T17:17:55Z</time></trkpt><trkpt lat="36.83317294555187" lon="-108.17157986067652"><ele>1806.0</ele><time>2026-03-29T17:17:56Z</time></trkpt><trkpt lat="36.8330846395118" lon="-108.17168880390464"><ele>1806.0</ele><time>2026-03-29T17:17:57Z</time></trkpt><trkpt lat="36.833002825649565" lon="-108.17180081809431"><ele>1806.0</ele><time>2026-03-29T17:17:58Z</time></trkpt><trkpt lat="36.832926203328604" lon="-108.17190834459811"><ele>1806.0</ele><time>2026-03-29T17:17:59Z</time></trkpt><trkpt lat="36.8328408749147" lon="-108.17200955703096"><ele>1806.0</ele><time>2026-03-29T17:18:00Z</time></trkpt><trkpt lat="36.8327420330433" lon="-108.1721152570715"><ele>1806.0</ele><time>2026-03-29T17:18:01Z</time></trkpt><trkpt lat="36.83268692836606" lon="-108.1722220999337"><ele>1806.0</ele><time>2026-03-29T17:18:02Z</time></trkpt><trkpt lat="36.832633559032686" lon="-108.17233108101996"><ele>1806.0</ele><time>2026-03-29T17:18:03Z</time></trkpt><trkpt lat="36.832568816645676" lon="-108.17241003998171"><ele>1806.0</ele><time>2026-03-29T17:18:04Z</time></trkpt><trkpt lat="36.83249666350472" lon="-108.17247884800672"><ele>1806.0</ele><time>2026-03-29T17:18:05Z</time></trkpt><trkpt lat="36.8324104650436" lon="-108.17251719656741"><ele>1805.25</ele><time>2026-03-29T17:18:06Z</time></trkpt><trkpt lat="36.83227620915867" lon="-108.17253186466074"><ele>1804.5</ele><time>2026-03-29T17:18:07Z</time></trkpt><trkpt lat="36.83214617080579" lon="-108.17254767669903"><ele>1803.75</ele><time>2026-03-29T17:18:08Z</time></trkpt><trkpt lat="36.83200959735296" lon="-108.17256782188231"><ele>1803.0</ele><time>2026-03-29T17:18:09Z</time></trkpt><trkpt lat="36.83189553925676" lon="-108.17260268343298"><ele>1802.4</ele><time>2026-03-29T17:18:10Z</time></trkpt><trkpt lat="36.831798291758666" lon="-108.17265443626658"><ele>1801.8000000000002</ele><time>2026-03-29T17:18:11Z</time></trkpt><trkpt lat="36.83171200652661" lon="-108.17273672677806"><ele>1801.2</ele><time>2026-03-29T17:18:12Z</time></trkpt><trkpt lat="36.83161441078858" lon="-108.17279673173115"><ele>1800.6</ele><time>2026-03-29T17:18:13Z</time></trkpt><trkpt lat="36.83150664884849" lon="-108.17280669948178"><ele>1800.0</ele><time>2026-03-29T17:18:14Z</time></trkpt><trkpt lat="36.83140249974416" lon="-108.17283765691337"><ele>1800.0</ele><time>2026-03-29T17:18:15Z</time></trkpt><trkpt lat="36.83129221577514" lon="-108.17290147756661"><ele>1800.0</ele><time>2026-03-29T17:18:16Z</time></trkpt><trkpt lat="36.83119087562515" lon="-108.17298249835063"><ele>1800.0</ele><time>2026-03-29T17:18:17Z</time></trkpt><trkpt lat="36.83111356591458" lon="-108.17308324973743"><ele>1800.0</ele><time>2026-03-29T17:18:18Z</time></trkpt><trkpt lat="36.83101678764897" lon="-108.17320163630725"><ele>1800.25</ele><time>2026-03-29T17:18:19Z</time></trkpt><trkpt lat="36.83091630565884" lon="-108.17331398292431"><ele>1800.5</ele><time>2026-03-29T17:18:20Z</time></trkpt><trkpt lat="36.830827167270215" lon="-108.17342132644234"><ele>1800.75</ele><time>2026-03-29T17:18:21Z</time></trkpt><trkpt lat="36.83077387165727" lon="-108.17354927003342"><ele>1801.0</ele><time>2026-03-29T17:18:22Z</time></trkpt><trkpt lat="36.83071528497834" lon="-108.17369763931352"><ele>1801.0</ele><time>2026-03-29T17:18:23Z</time></trkpt><trkpt lat="36.830635759896055" lon="-108.17384120271534"><ele>1801.0</ele><time>2026-03-29T17:18:24Z</time></trkpt><trkpt lat="36.830565668695684" lon="-108.17399698766526"><ele>1801.0</ele><time>2026-03-29T17:18:25Z</time></trkpt><trkpt lat="36.83051029412387" lon="-108.17418535076641"><ele>1801.0</ele><time>2026-03-29T17:18:26Z</time></trkpt><trkpt lat="36.8304433341393" lon="-108.17433522671078"><ele>1801.25</ele><time>2026-03-29T17:18:27Z</time></trkpt><trkpt lat="36.830361420757704" lon="-108.17442547321579"><ele>1801.5</ele><time>2026-03-29T17:18:28Z</time></trkpt><trkpt lat="36.83023770171064" lon="-108.17448880461544"><ele>1801.75</ele><time>2026-03-29T17:18:29Z</time></trkpt><trkpt lat="36.83011614707534" lon="-108.17458650486387"><ele>1802.0</ele><time>2026-03-29T17:18:30Z</time></trkpt><trkpt lat="36.82999111308501" lon="-108.17468170129456"><ele>1802.0</ele><time>2026-03-29T17:18:31Z</time></trkpt><trkpt lat="36.829852671030324" lon="-108.1747490460843"><ele>1802.0</ele><time>2026-03-29T17:18:32Z</time></trkpt><trkpt lat="36.829708976034695" lon="-108.17480263412895"><ele>1802.0</ele><time>2026-03-29T17:18:33Z</time></trkpt><trkpt lat="36.829596704446736" lon="-108.17485549430245"><ele>1802.0</ele><time>2026-03-29T17:18:34Z</time></trkpt><trkpt lat="36.82949845913036" lon="-108.17488013930426"><ele>1802.0</ele><time>2026-03-29T17:18:35Z</time></trkpt><trkpt lat="36.82939993158359" lon="-108.17488007465764"><ele>1802.0</ele><time>2026-03-29T17:18:36Z</time></trkpt><trkpt lat="36.82928971530488" lon="-108.1748610039701"><ele>1802.0</ele><time>2026-03-29T17:18:37Z</time></trkpt><trkpt lat="36.829162949214464" lon="-108.17485715085624"><ele>1802.0</ele><time>2026-03-29T17:18:38Z</time></trkpt><trkpt lat="36.82905700856501" lon="-108.17491474544744"><ele>1801.5</ele><time>2026-03-29T17:18:39Z</time></trkpt><trkpt lat="36.82892972002791" lon="-108.1749799759783"><ele>1801.0</ele><time>2026-03-29T17:18:40Z</time></trkpt><trkpt lat="36.82879134410604" lon="-108.17503683744629"><ele>1800.5</ele><time>2026-03-29T17:18:41Z</time></trkpt><trkpt lat="36.82867279908889" lon="-108.17507327401607"><ele>1800.0</ele><time>2026-03-29T17:18:42Z</time></trkpt><trkpt lat="36.828563044336065" lon="-108.17511747635987"><ele>1799.25</ele><time>2026-03-29T17:18:43Z</time></trkpt><trkpt lat="36.82844416501083" lon="-108.17513694489854"><ele>1798.5</ele><time>2026-03-29T17:18:44Z</time></trkpt><trkpt lat="36.828356838988235" lon="-108.17517456746003"><ele>1797.75</ele><time>2026-03-29T17:18:45Z</time></trkpt><trkpt lat="36.82827315601853" lon="-108.17527212192428"><ele>1797.0</ele><time>2026-03-29T17:18:46Z</time></trkpt><trkpt lat="36.82815683936791" lon="-108.17535396720234"><ele>1797.0</ele><time>2026-03-29T17:18:47Z</time></trkpt><trkpt lat="36.82803496415394" lon="-108.17540828107248"><ele>1797.0</ele><time>2026-03-29T17:18:48Z</time></trkpt><trkpt lat="36.82793599777138" lon="-108.1754732771936"><ele>1797.0</ele><time>2026-03-29T17:18:49Z</time></trkpt><trkpt lat="36.82787918326678" lon="-108.17558134045889"><ele>1797.0</ele><time>2026-03-29T17:18:50Z</time></trkpt><trkpt lat="36.827827619284726" lon="-108.17571943070608"><ele>1797.0</ele><time>2026-03-29T17:18:51Z</time></trkpt><trkpt lat="36.82777735045276" lon="-108.17586884135079"><ele>1797.0</ele><time>2026-03-29T17:18:52Z</time></trkpt><trkpt lat="36.827710156152534" lon="-108.17596612961361"><ele>1797.0</ele><time>2026-03-29T17:18:53Z</time></trkpt><trkpt lat="36.82762511485881" lon="-108.17608454846905"><ele>1797.0</ele><time>2026-03-29T17:18:54Z</time></trkpt><trkpt lat="36.82757207902152" lon="-108.17625689300691"><ele>1796.75</ele><time>2026-03-29T17:18:55Z</time></trkpt><trkpt lat="36.82756100094957" lon="-108.17640434154643"><ele>1796.5</ele><time>2026-03-29T17:18:56Z</time></trkpt><trkpt lat="36.82752146552438" lon="-108.17651794430861"><ele>1796.25</ele><time>2026-03-29T17:18:57Z</time></trkpt><trkpt lat="36.827417035519474" lon="-108.17664135625861"><ele>1796.0</ele><time>2026-03-29T17:18:58Z</time></trkpt><trkpt lat="36.82729532598034" lon="-108.17678106919197"><ele>1796.0</ele><time>2026-03-29T17:18:59Z</time></trkpt><trkpt lat="36.82717411080658" lon="-108.17691080366087"><ele>1796.0</ele><time>2026-03-29T17:19:00Z</time></trkpt><trkpt lat="36.82706676529971" lon="-108.17700017931661"><ele>1796.0</ele><time>2026-03-29T17:19:01Z</time></trkpt><trkpt lat="36.826951872076876" lon="-108.17706024526983"><ele>1796.0</ele><time>2026-03-29T17:19:02Z</time></trkpt><trkpt lat="36.82682304352442" lon="-108.17710038347421"><ele>1795.75</ele><time>2026-03-29T17:19:03Z</time></trkpt><trkpt lat="36.82670499632602" lon="-108.17716117883501"><ele>1795.5</ele><time>2026-03-29T17:19:04Z</time></trkpt><trkpt lat="36.826598114943174" lon="-108.17724355227111"><ele>1795.25</ele><time>2026-03-29T17:19:05Z</time></trkpt><trkpt lat="36.826495666883545" lon="-108.17727713323379"><ele>1795.0</ele><time>2026-03-29T17:19:06Z</time></trkpt><trkpt lat="36.82636228505329" lon="-108.17724531107173"><ele>1795.0</ele><time>2026-03-29T17:19:07Z</time></trkpt><trkpt lat="36.82621311894978" lon="-108.1772346130728"><ele>1795.0</ele><time>2026-03-29T17:19:08Z</time></trkpt><trkpt lat="36.82607901194612" lon="-108.17728087412091"><ele>1795.0</ele><time>2026-03-29T17:19:09Z</time></trkpt><trkpt lat="36.82599735180424" lon="-108.17734905999852"><ele>1795.0</ele><time>2026-03-29T17:19:10Z</time></trkpt><trkpt lat="36.82589756812532" lon="-108.17745200793085"><ele>1795.25</ele><time>2026-03-29T17:19:11Z</time></trkpt><trkpt lat="36.82580157108098" lon="-108.17757178333038"><ele>1795.5</ele><time>2026-03-29T17:19:12Z</time></trkpt><trkpt lat="36.82569487535878" lon="-108.17762893641208"><ele>1795.75</ele><time>2026-03-29T17:19:13Z</time></trkpt><trkpt lat="36.82558941030976" lon="-108.17764817190356"><ele>1796.0</ele><time>2026-03-29T17:19:14Z</time></trkpt><trkpt lat="36.82547926015019" lon="-108.17766922587644"><ele>1796.0</ele><time>2026-03-29T17:19:15Z</time></trkpt><trkpt lat="36.825352742888356" lon="-108.17772126422557"><ele>1796.0</ele><time>2026-03-29T17:19:16Z</time></trkpt><trkpt lat="36.82521991906548" lon="-108.17779506856556"><ele>1796.0</ele><time>2026-03-29T17:19:17Z</time></trkpt><trkpt lat="36.82510340180823" lon="-108.17784535425318"><ele>1796.0</ele><time>2026-03-29T17:19:18Z</time></trkpt><trkpt lat="36.8249841339447" lon="-108.17788951344518"><ele>1795.8</ele><time>2026-03-29T17:19:19Z</time></trkpt><trkpt lat="36.824870131781964" lon="-108.17792746231041"><ele>1795.6</ele><time>2026-03-29T17:19:20Z</time></trkpt><trkpt lat="36.82477075732687" lon="-108.17795509329261"><ele>1795.4</ele><time>2026-03-29T17:19:21Z</time></trkpt><trkpt lat="36.82467461473259" lon="-108.17798524313797"><ele>1795.2</ele><time>2026-03-29T17:19:22Z</time></trkpt><trkpt lat="36.82456728647197" lon="-108.17800024698803"><ele>1795.0</ele><time>2026-03-29T17:19:23Z</time></trkpt><trkpt lat="36.824435825397885" lon="-108.17800869942397"><ele>1795.0</ele><time>2026-03-29T17:19:24Z</time></trkpt><trkpt lat="36.82429739614432" lon="-108.1780441401732"><ele>1795.0</ele><time>2026-03-29T17:19:25Z</time></trkpt><trkpt lat="36.824153470897315" lon="-108.17808960826817"><ele>1795.0</ele><time>2026-03-29T17:19:26Z</time></trkpt><trkpt lat="36.82404314970793" lon="-108.17812420920504"><ele>1795.0</ele><time>2026-03-29T17:19:27Z</time></trkpt><trkpt lat="36.82394860368413" lon="-108.1781918400033"><ele>1795.0</ele><time>2026-03-29T17:19:28Z</time></trkpt><trkpt lat="36.82387655242571" lon="-108.1782705069464"><ele>1795.0</ele><time>2026-03-29T17:19:29Z</time></trkpt><trkpt lat="36.82378907316647" lon="-108.17832680052686"><ele>1795.0</ele><time>2026-03-29T17:19:30Z</time></trkpt><trkpt lat="36.82366058624381" lon="-108.17831602965927"><ele>1795.0</ele><time>2026-03-29T17:19:31Z</time></trkpt><trkpt lat="36.82352408278195" lon="-108.17829432309108"><ele>1794.75</ele><time>2026-03-29T17:19:32Z</time></trkpt><trkpt lat="36.82339319412188" lon="-108.17826025205278"><ele>1794.5</ele><time>2026-03-29T17:19:33Z</time></trkpt><trkpt lat="36.823276075020516" lon="-108.1782101351689"><ele>1794.25</ele><time>2026-03-29T17:19:34Z</time></trkpt><trkpt lat="36.823157336759266" lon="-108.17815779850412"><ele>1794.0</ele><time>2026-03-29T17:19:35Z</time></trkpt><trkpt lat="36.82302706399918" lon="-108.17815980312507"><ele>1794.0</ele><time>2026-03-29T17:19:36Z</time></trkpt><trkpt lat="36.82291581380938" lon="-108.1782006074759"><ele>1794.0</ele><time>2026-03-29T17:19:37Z</time></trkpt><trkpt lat="36.822808855934355" lon="-108.17823912375596"><ele>1794.0</ele><time>2026-03-29T17:19:38Z</time></trkpt><trkpt lat="36.822665454355736" lon="-108.17829377877247"><ele>1794.0</ele><time>2026-03-29T17:19:39Z</time></trkpt><trkpt lat="36.82254693902948" lon="-108.17835002585846"><ele>1794.25</ele><time>2026-03-29T17:19:40Z</time></trkpt><trkpt lat="36.8224414779563" lon="-108.17839491414739"><ele>1794.5</ele><time>2026-03-29T17:19:41Z</time></trkpt><trkpt lat="36.82235614541641" lon="-108.17847408186879"><ele>1794.75</ele><time>2026-03-29T17:19:42Z</time></trkpt><trkpt lat="36.82225124038939" lon="-108.17855898017991"><ele>1795.0</ele><time>2026-03-29T17:19:43Z</time></trkpt><trkpt lat="36.82214230966836" lon="-108.17861273418335"><ele>1795.0</ele><time>2026-03-29T17:19:44Z</time></trkpt><trkpt lat="36.82203203626689" lon="-108.17863129315195"><ele>1795.0</ele><time>2026-03-29T17:19:45Z</time></trkpt><trkpt lat="36.82191820328589" lon="-108.17867290276762"><ele>1795.0</ele><time>2026-03-29T17:19:46Z</time></trkpt><trkpt lat="36.82180564750428" lon="-108.1787309292009"><ele>1795.0</ele><time>2026-03-29T17:19:47Z</time></trkpt><trkpt lat="36.82171122508165" lon="-108.17877697789146"><ele>1794.6</ele><time>2026-03-29T17:19:48Z</time></trkpt><trkpt lat="36.82161311354287" lon="-108.17882314696007"><ele>1794.2</ele><time>2026-03-29T17:19:49Z</time></trkpt><trkpt lat="36.821527897333596" lon="-108.17888563084499"><ele>1793.8000000000002</ele><time>2026-03-29T17:19:50Z</time></trkpt><trkpt lat="36.82142180092842" lon="-108.17895392851618"><ele>1793.4</ele><time>2026-03-29T17:19:51Z</time></trkpt><trkpt lat="36.82131002398802" lon="-108.17900716350435"><ele>1793.0</ele><time>2026-03-29T17:19:52Z</time></trkpt><trkpt lat="36.821197650117" lon="-108.17907887231478"><ele>1792.75</ele><time>2026-03-29T17:19:53Z</time></trkpt><trkpt lat="36.82107337235972" lon="-108.17912781793666"><ele>1792.5</ele><time>2026-03-29T17:19:54Z</time></trkpt><trkpt lat="36.82096803316358" lon="-108.17920450810291"><ele>1792.25</ele><time>2026-03-29T17:19:55Z</time></trkpt><trkpt lat="36.82086923917245" lon="-108.17928207078013"><ele>1792.0</ele><time>2026-03-29T17:19:56Z</time></trkpt><trkpt lat="36.820771736194516" lon="-108.17937310938204"><ele>1791.5</ele><time>2026-03-29T17:19:57Z</time></trkpt><trkpt lat="36.820669680094355" lon="-108.17945545299712"><ele>1791.0</ele><time>2026-03-29T17:19:58Z</time></trkpt><trkpt lat="36.820561713406" lon="-108.17953452336906"><ele>1790.5</ele><time>2026-03-29T17:19:59Z</time></trkpt><trkpt lat="36.82045375148816" lon="-108.17961588217416"><ele>1790.0</ele><time>2026-03-29T17:20:00Z</time></trkpt><trkpt lat="36.82035093090961" lon="-108.17967887326728"><ele>1790.0</ele><time>2026-03-29T17:20:01Z</time></trkpt><trkpt lat="36.82025701232612" lon="-108.17974585700122"><ele>1790.0</ele><time>2026-03-29T17:20:02Z</time></trkpt><trkpt lat="36.82017491011076" lon="-108.17984530022461"><ele>1790.0</ele><time>2026-03-29T17:20:03Z</time></trkpt><trkpt lat="36.82010697961482" lon="-108.17998299115442"><ele>1790.0</ele><time>2026-03-29T17:20:04Z</time></trkpt><trkpt lat="36.82003800661787" lon="-108.18009787715732"><ele>1789.5</ele><time>2026-03-29T17:20:05Z</time></trkpt><trkpt lat="36.81998550622383" lon="-108.18020142227515"><ele>1789.0</ele><time>2026-03-29T17:20:06Z</time></trkpt><trkpt lat="36.81994353671547" lon="-108.18033493120878"><ele>1788.5</ele><time>2026-03-29T17:20:07Z</time></trkpt><trkpt lat="36.819924621299364" lon="-108.18049893783578"><ele>1788.0</ele><time>2026-03-29T17:20:08Z</time></trkpt><trkpt lat="36.81988682326932" lon="-108.18063680538414"><ele>1788.0</ele><time>2026-03-29T17:20:09Z</time></trkpt><trkpt lat="36.819789106003945" lon="-108.18070406941709"><ele>1788.0</ele><time>2026-03-29T17:20:10Z</time></trkpt><trkpt lat="36.81966330938645" lon="-108.18073070306681"><ele>1788.0</ele><time>2026-03-29T17:20:11Z</time></trkpt><trkpt lat="36.819524773148935" lon="-108.18072109062155"><ele>1788.0</ele><time>2026-03-29T17:20:12Z</time></trkpt><trkpt lat="36.819413878188904" lon="-108.18066093580597"><ele>1787.25</ele><time>2026-03-29T17:20:13Z</time></trkpt><trkpt lat="36.819303457564715" lon="-108.18059341743485"><ele>1786.5</ele><time>2026-03-29T17:20:14Z</time></trkpt><trkpt lat="36.8191928213164" lon="-108.18052736924743"><ele>1785.75</ele><time>2026-03-29T17:20:15Z</time></trkpt><trkpt lat="36.81907690210548" lon="-108.18053846160225"><ele>1785.0</ele><time>2026-03-29T17:20:16Z</time></trkpt><trkpt lat="36.81894434819962" lon="-108.18055658600781"><ele>1785.0</ele><time>2026-03-29T17:20:17Z</time></trkpt><trkpt lat="36.81878633807917" lon="-108.18052439513535"><ele>1785.0</ele><time>2026-03-29T17:20:18Z</time></trkpt><trkpt lat="36.818650802346504" lon="-108.18050430362237"><ele>1785.0</ele><time>2026-03-29T17:20:19Z</time></trkpt><trkpt lat="36.81852185847352" lon="-108.18049940333485"><ele>1785.0</ele><time>2026-03-29T17:20:20Z</time></trkpt><trkpt lat="36.81841473667728" lon="-108.18047891209184"><ele>1785.0</ele><time>2026-03-29T17:20:21Z</time></trkpt><trkpt lat="36.81830102189311" lon="-108.18045342286237"><ele>1785.0</ele><time>2026-03-29T17:20:22Z</time></trkpt><trkpt lat="36.81819620295243" lon="-108.18045430686772"><ele>1785.0</ele><time>2026-03-29T17:20:23Z</time></trkpt><trkpt lat="36.81809844465324" lon="-108.18046470359415"><ele>1785.0</ele><time>2026-03-29T17:20:24Z</time></trkpt><trkpt lat="36.818008705648076" lon="-108.18045588809608"><ele>1785.0</ele><time>2026-03-29T17:20:25Z</time></trkpt><trkpt lat="36.817901644747664" lon="-108.18044250172665"><ele>1785.0</ele><time>2026-03-29T17:20:26Z</time></trkpt><trkpt lat="36.81778133950811" lon="-108.18045773008953"><ele>1785.0</ele><time>2026-03-29T17:20:27Z</time></trkpt><trkpt lat="36.81762832999008" lon="-108.18046822824292"><ele>1785.0</ele><time>2026-03-29T17:20:28Z</time></trkpt><trkpt lat="36.81744340085613" lon="-108.18047075286982"><ele>1784.5</ele><time>2026-03-29T17:20:29Z</time></trkpt><trkpt lat="36.81728009371447" lon="-108.18046655195363"><ele>1784.0</ele><time>2026-03-29T17:20:30Z</time></trkpt><trkpt lat="36.81716548098685" lon="-108.18047817430538"><ele>1783.5</ele><time>2026-03-29T17:20:31Z</time></trkpt><trkpt lat="36.81707465745691" lon="-108.18050057563218"><ele>1783.0</ele><time>2026-03-29T17:20:32Z</time></trkpt><trkpt lat="36.816954035895705" lon="-108.18053913580009"><ele>1783.0</ele><time>2026-03-29T17:20:33Z</time></trkpt><trkpt lat="36.81682732511873" lon="-108.18056944625343"><ele>1783.0</ele><time>2026-03-29T17:20:34Z</time></trkpt><trkpt lat="36.81670999887507" lon="-108.18058894487496"><ele>1783.0</ele><time>2026-03-29T17:20:35Z</time></trkpt><trkpt lat="36.81660281746312" lon="-108.18063163892153"><ele>1783.0</ele><time>2026-03-29T17:20:36Z</time></trkpt><trkpt lat="36.816508463278566" lon="-108.18065012073075"><ele>1782.8000000000002</ele><time>2026-03-29T17:20:37Z</time></trkpt><trkpt lat="36.816401487890516" lon="-108.18065594832147"><ele>1782.6000000000001</ele><time>2026-03-29T17:20:38Z</time></trkpt><trkpt lat="36.81630200651819" lon="-108.18072087530066"><ele>1782.3999999999999</ele><time>2026-03-29T17:20:39Z</time></trkpt><trkpt lat="36.81621167445811" lon="-108.18079062575866"><ele>1782.1999999999998</ele><time>2026-03-29T17:20:40Z</time></trkpt><trkpt lat="36.816114952641904" lon="-108.18081667940854"><ele>1782.0</ele><time>2026-03-29T17:20:41Z</time></trkpt><trkpt lat="36.8160179716838" lon="-108.18079460963284"><ele>1781.8</ele><time>2026-03-29T17:20:42Z</time></trkpt><trkpt lat="36.81591622523334" lon="-108.18079598643625"><ele>1781.6</ele><time>2026-03-29T17:20:43Z</time></trkpt><trkpt lat="36.81581753874014" lon="-108.18079380658455"><ele>1781.3999999999999</ele><time>2026-03-29T17:20:44Z</time></trkpt><trkpt lat="36.8157116675923" lon="-108.18077771935039"><ele>1781.1999999999998</ele><time>2026-03-29T17:20:45Z</time></trkpt><trkpt lat="36.81560684697513" lon="-108.18079367309541"><ele>1781.0</ele><time>2026-03-29T17:20:46Z</time></trkpt><trkpt lat="36.81551696171059" lon="-108.18084121757408"><ele>1781.0</ele><time>2026-03-29T17:20:47Z</time></trkpt><trkpt lat="36.8154263439778" lon="-108.1809323135101"><ele>1781.0</ele><time>2026-03-29T17:20:48Z</time></trkpt><trkpt lat="36.815358643793374" lon="-108.18103059575759"><ele>1781.0</ele><time>2026-03-29T17:20:49Z</time></trkpt><trkpt lat="36.81530313128065" lon="-108.18110625890264"><ele>1781.0</ele><time>2026-03-29T17:20:50Z</time></trkpt><trkpt lat="36.815229225429036" lon="-108.18114998293127"><ele>1781.0</ele><time>2026-03-29T17:20:51Z</time></trkpt><trkpt lat="36.815156133753355" lon="-108.18116446282755"><ele>1781.0</ele><time>2026-03-29T17:20:52Z</time></trkpt><trkpt lat="36.81505795537824" lon="-108.18117631928871"><ele>1781.0</ele><time>2026-03-29T17:20:53Z</time></trkpt><trkpt lat="36.81493062407815" lon="-108.18121216116978"><ele>1781.0</ele><time>2026-03-29T17:20:54Z</time></trkpt><trkpt lat="36.81482003298043" lon="-108.18127714467897"><ele>1781.0</ele><time>2026-03-29T17:20:55Z</time></trkpt><trkpt lat="36.81471473351476" lon="-108.18132762240099"><ele>1781.0</ele><time>2026-03-29T17:20:56Z</time></trkpt><trkpt lat="36.81464411136397" lon="-108.18138670194874"><ele>1781.0</ele><time>2026-03-29T17:20:57Z</time></trkpt><trkpt lat="36.81455869428849" lon="-108.18143315070644"><ele>1781.0</ele><time>2026-03-29T17:20:58Z</time></trkpt><trkpt lat="36.81445284938753" lon="-108.18144565836079"><ele>1781.0</ele><time>2026-03-29T17:20:59Z</time></trkpt><trkpt lat="36.8143362929308" lon="-108.18143184866005"><ele>1781.0</ele><time>2026-03-29T17:21:00Z</time></trkpt><trkpt lat="36.81425164526367" lon="-108.18140477246514"><ele>1780.25</ele><time>2026-03-29T17:21:01Z</time></trkpt><trkpt lat="36.81418794197869" lon="-108.18132521757843"><ele>1779.5</ele><time>2026-03-29T17:21:02Z</time></trkpt><trkpt lat="36.814103091370924" lon="-108.181180386994"><ele>1778.75</ele><time>2026-03-29T17:21:03Z</time></trkpt><trkpt lat="36.814020539637255" lon="-108.18103729622767"><ele>1778.0</ele><time>2026-03-29T17:21:04Z</time></trkpt><trkpt lat="36.81391033736677" lon="-108.18092440950853"><ele>1778.0</ele><time>2026-03-29T17:21:05Z</time></trkpt><trkpt lat="36.81377943279963" lon="-108.18078753151808"><ele>1778.0</ele><time>2026-03-29T17:21:06Z</time></trkpt><trkpt lat="36.81363093418059" lon="-108.18063986806536"><ele>1778.0</ele><time>2026-03-29T17:21:07Z</time></trkpt><trkpt lat="36.81348906000899" lon="-108.18049945321212"><ele>1776.75</ele><time>2026-03-29T17:21:08Z</time></trkpt><trkpt lat="36.81338073109484" lon="-108.18036683579822"><ele>1775.5</ele><time>2026-03-29T17:21:09Z</time></trkpt><trkpt lat="36.81327271400351" lon="-108.18026680713751"><ele>1774.25</ele><time>2026-03-29T17:21:10Z</time></trkpt><trkpt lat="36.81317953288176" lon="-108.1801574878432"><ele>1773.0</ele><time>2026-03-29T17:21:11Z</time></trkpt><trkpt lat="36.813072056592446" lon="-108.18002906887101"><ele>1773.0</ele><time>2026-03-29T17:21:12Z</time></trkpt><trkpt lat="36.81295276199383" lon="-108.17990882257548"><ele>1773.0</ele><time>2026-03-29T17:21:13Z</time></trkpt><trkpt lat="36.81286446490487" lon="-108.17979658024844"><ele>1773.0</ele><time>2026-03-29T17:21:14Z</time></trkpt><trkpt lat="36.81280258838714" lon="-108.17967859613869"><ele>1773.0</ele><time>2026-03-29T17:21:15Z</time></trkpt><trkpt lat="36.81274684078127" lon="-108.17955622983857"><ele>1771.25</ele><time>2026-03-29T17:21:16Z</time></trkpt><trkpt lat="36.81271089515718" lon="-108.17940129970395"><ele>1769.5</ele><time>2026-03-29T17:21:17Z</time></trkpt><trkpt lat="36.81271437876129" lon="-108.17922732826295"><ele>1767.75</ele><time>2026-03-29T17:21:18Z</time></trkpt><trkpt lat="36.81272960933914" lon="-108.17902424721147"><ele>1766.0</ele><time>2026-03-29T17:21:19Z</time></trkpt><trkpt lat="36.81273491009965" lon="-108.17884206955922"><ele>1765.25</ele><time>2026-03-29T17:21:20Z</time></trkpt><trkpt lat="36.8127356817475" lon="-108.17866981601134"><ele>1764.5</ele><time>2026-03-29T17:21:21Z</time></trkpt><trkpt lat="36.812746374258325" lon="-108.17850769183617"><ele>1763.75</ele><time>2026-03-29T17:21:22Z</time></trkpt><trkpt lat="36.81275890570905" lon="-108.17834218918874"><ele>1763.0</ele><time>2026-03-29T17:21:23Z</time></trkpt><trkpt lat="36.812764038482634" lon="-108.17818884694678"><ele>1761.2</ele><time>2026-03-29T17:21:24Z</time></trkpt><trkpt lat="36.81275916529768" lon="-108.178047000585"><ele>1759.4</ele><time>2026-03-29T17:21:25Z</time></trkpt><trkpt lat="36.812762963365984" lon="-108.17790321867828"><ele>1757.6000000000001</ele><time>2026-03-29T17:21:26Z</time></trkpt><trkpt lat="36.81273154749832" lon="-108.17776981049548"><ele>1755.8000000000002</ele><time>2026-03-29T17:21:27Z</time></trkpt><trkpt lat="36.8127327399061" lon="-108.17763637245157"><ele>1754.0</ele><time>2026-03-29T17:21:28Z</time></trkpt><trkpt lat="36.81273309595254" lon="-108.1775095220913"><ele>1754.0</ele><time>2026-03-29T17:21:29Z</time></trkpt><trkpt lat="36.81273260132555" lon="-108.17738377480214"><ele>1754.0</ele><time>2026-03-29T17:21:30Z</time></trkpt><trkpt lat="36.81273213775345" lon="-108.17726592269798"><ele>1754.0</ele><time>2026-03-29T17:21:31Z</time></trkpt><trkpt lat="36.812731656742244" lon="-108.17714363703783"><ele>1754.0</ele><time>2026-03-29T17:21:32Z</time></trkpt><trkpt lat="36.81273118673504" lon="-108.1770241488459"><ele>1754.0</ele><time>2026-03-29T17:21:33Z</time></trkpt><trkpt lat="36.812730625480356" lon="-108.17691098315467"><ele>1753.4999999999998</ele><time>2026-03-29T17:21:34Z</time></trkpt><trkpt lat="36.81273003799438" lon="-108.17679571306918"><ele>1753.0</ele><time>2026-03-29T17:21:35Z</time></trkpt><trkpt lat="36.812745373282084" lon="-108.17669830463205"><ele>1752.5</ele><time>2026-03-29T17:21:36Z</time></trkpt><trkpt lat="36.8127290434643" lon="-108.17660057745843"><ele>1752.0</ele><time>2026-03-29T17:21:37Z</time></trkpt><trkpt lat="36.81273644374288" lon="-108.17648370797602"><ele>1751.4999999999998</ele><time>2026-03-29T17:21:38Z</time></trkpt><trkpt lat="36.812730324841326" lon="-108.1763910012703"><ele>1751.0</ele><time>2026-03-29T17:21:39Z</time></trkpt><trkpt lat="36.8127105920381" lon="-108.17625032192497"><ele>1749.5</ele><time>2026-03-29T17:21:41Z</time></trkpt><trkpt lat="36.81249033289914" lon="-108.17625161229434"><ele>1748.0</ele><time>2026-03-29T17:21:43Z</time></trkpt><trkpt lat="36.81240143196586" lon="-108.17630766111448"><ele>1746.5</ele><time>2026-03-29T17:21:44Z</time></trkpt><trkpt lat="36.812316880643614" lon="-108.17633006063309"><ele>1745.0</ele><time>2026-03-29T17:21:45Z</time></trkpt><trkpt lat="36.81220783121337" lon="-108.17635568664703"><ele>1745.0</ele><time>2026-03-29T17:21:46Z</time></trkpt><trkpt lat="36.812097881446036" lon="-108.17638876853557"><ele>1745.0</ele><time>2026-03-29T17:21:47Z</time></trkpt><trkpt lat="36.81198413675926" lon="-108.17642762497952"><ele>1745.0</ele><time>2026-03-29T17:21:48Z</time></trkpt><trkpt lat="36.81186067848341" lon="-108.17646949348534"><ele>1745.0</ele><time>2026-03-29T17:21:49Z</time></trkpt><trkpt lat="36.81174523389453" lon="-108.17650385978622"><ele>1745.0</ele><time>2026-03-29T17:21:50Z</time></trkpt><trkpt lat="36.8116197937498" lon="-108.17654136539386"><ele>1745.0</ele><time>2026-03-29T17:21:51Z</time></trkpt><trkpt lat="36.811494290419" lon="-108.1765700969274"><ele>1745.0</ele><time>2026-03-29T17:21:52Z</time></trkpt><trkpt lat="36.81137926375956" lon="-108.17660046803967"><ele>1745.0</ele><time>2026-03-29T17:21:53Z</time></trkpt><trkpt lat="36.81126724438403" lon="-108.17663608842665"><ele>1745.0</ele><time>2026-03-29T17:21:54Z</time></trkpt><trkpt lat="36.811157392459236" lon="-108.17666362359721"><ele>1745.0</ele><time>2026-03-29T17:21:55Z</time></trkpt><trkpt lat="36.81105777984107" lon="-108.17666584930792"><ele>1745.0</ele><time>2026-03-29T17:21:56Z</time></trkpt><trkpt lat="36.810956847984656" lon="-108.17667454626579"><ele>1745.0</ele><time>2026-03-29T17:21:57Z</time></trkpt><trkpt lat="36.81084415691139" lon="-108.17670383410082"><ele>1745.0</ele><time>2026-03-29T17:21:58Z</time></trkpt><trkpt lat="36.81072004179925" lon="-108.17673772286446"><ele>1744.5</ele><time>2026-03-29T17:21:59Z</time></trkpt><trkpt lat="36.81057651444185" lon="-108.17676877901025"><ele>1744.0</ele><time>2026-03-29T17:22:00Z</time></trkpt><trkpt lat="36.81042364104172" lon="-108.17680528368516"><ele>1743.5</ele><time>2026-03-29T17:22:01Z</time></trkpt><trkpt lat="36.81029109182775" lon="-108.1768389459926"><ele>1743.0</ele><time>2026-03-29T17:22:02Z</time></trkpt><trkpt lat="36.81017563001969" lon="-108.17684285977575"><ele>1742.6666666666665</ele><time>2026-03-29T17:22:03Z</time></trkpt><trkpt lat="36.810038382773385" lon="-108.1768425249968"><ele>1742.3333333333333</ele><time>2026-03-29T17:22:04Z</time></trkpt><trkpt lat="36.809882478172604" lon="-108.1768708251109"><ele>1742.0</ele><time>2026-03-29T17:22:05Z</time></trkpt><trkpt lat="36.80971099881866" lon="-108.17690736292306"><ele>1742.0</ele><time>2026-03-29T17:22:06Z</time></trkpt><trkpt lat="36.80953209808429" lon="-108.17695087206222"><ele>1742.0</ele><time>2026-03-29T17:22:07Z</time></trkpt><trkpt lat="36.80936751307716" lon="-108.17696734988978"><ele>1742.0</ele><time>2026-03-29T17:22:08Z</time></trkpt><trkpt lat="36.80924347890441" lon="-108.17698085148831"><ele>1741.8</ele><time>2026-03-29T17:22:09Z</time></trkpt><trkpt lat="36.80915922980521" lon="-108.17701662814015"><ele>1741.6</ele><time>2026-03-29T17:22:10Z</time></trkpt><trkpt lat="36.80906333106379" lon="-108.17708203636697"><ele>1741.3999999999999</ele><time>2026-03-29T17:22:11Z</time></trkpt><trkpt lat="36.808963461115276" lon="-108.17716271700183"><ele>1741.1999999999998</ele><time>2026-03-29T17:22:12Z</time></trkpt><trkpt lat="36.80887151423705" lon="-108.1772070925174"><ele>1741.0</ele><time>2026-03-29T17:22:13Z</time></trkpt><trkpt lat="36.80876954859016" lon="-108.17718020004972"><ele>1741.0</ele><time>2026-03-29T17:22:14Z</time></trkpt><trkpt lat="36.80864146055177" lon="-108.1770997871775"><ele>1741.0</ele><time>2026-03-29T17:22:15Z</time></trkpt><trkpt lat="36.80854134102416" lon="-108.1770423782165"><ele>1741.0</ele><time>2026-03-29T17:22:16Z</time></trkpt><trkpt lat="36.808455272143625" lon="-108.17699024324153"><ele>1741.0</ele><time>2026-03-29T17:22:17Z</time></trkpt><trkpt lat="36.80839001996627" lon="-108.17687814033279"><ele>1740.0</ele><time>2026-03-29T17:22:18Z</time></trkpt><trkpt lat="36.80832560621552" lon="-108.17674589045936"><ele>1739.0</ele><time>2026-03-29T17:22:19Z</time></trkpt><trkpt lat="36.80831140023959" lon="-108.17666555848928"><ele>1738.0</ele><time>2026-03-29T17:22:20Z</time></trkpt><trkpt lat="36.80827575892475" lon="-108.17651930623747"><ele>1737.0</ele><time>2026-03-29T17:22:21Z</time></trkpt><trkpt lat="36.808201671067664" lon="-108.176458585431"><ele>1736.0</ele><time>2026-03-29T17:22:22Z</time></trkpt><trkpt lat="36.80810280978738" lon="-108.17646210428572"><ele>1736.0</ele><time>2026-03-29T17:22:23Z</time></trkpt><trkpt lat="36.80797291209756" lon="-108.17649821697738"><ele>1736.0</ele><time>2026-03-29T17:22:24Z</time></trkpt><trkpt lat="36.80783581622659" lon="-108.17654518354718"><ele>1736.0</ele><time>2026-03-29T17:22:25Z</time></trkpt><trkpt lat="36.8076912706102" lon="-108.17656190376714"><ele>1736.0</ele><time>2026-03-29T17:22:26Z</time></trkpt><trkpt lat="36.807580973526264" lon="-108.17655615802106"><ele>1735.8</ele><time>2026-03-29T17:22:27Z</time></trkpt><trkpt lat="36.80750643091105" lon="-108.17653220500917"><ele>1735.6</ele><time>2026-03-29T17:22:28Z</time></trkpt><trkpt lat="36.807423077601015" lon="-108.17645137478225"><ele>1735.4</ele><time>2026-03-29T17:22:30Z</time></trkpt><trkpt lat="36.807357104340916" lon="-108.1763945927144"><ele>1735.2</ele><time>2026-03-29T17:22:32Z</time></trkpt><trkpt lat="36.807248715567304" lon="-108.17638692852725"><ele>1735.0</ele><time>2026-03-29T17:22:33Z</time></trkpt><trkpt lat="36.80713060670166" lon="-108.17636214283347"><ele>1735.0</ele><time>2026-03-29T17:22:34Z</time></trkpt><trkpt lat="36.80699779767093" lon="-108.17635139215267"><ele>1735.0</ele><time>2026-03-29T17:22:35Z</time></trkpt><trkpt lat="36.806867154080706" lon="-108.17633138296199"><ele>1735.0</ele><time>2026-03-29T17:22:36Z</time></trkpt><trkpt lat="36.80673169497323" lon="-108.17631485886791"><ele>1735.0</ele><time>2026-03-29T17:22:37Z</time></trkpt><trkpt lat="36.80658520192661" lon="-108.17630240990367"><ele>1734.75</ele><time>2026-03-29T17:22:38Z</time></trkpt><trkpt lat="36.806446198359794" lon="-108.1763081340703"><ele>1734.5</ele><time>2026-03-29T17:22:39Z</time></trkpt><trkpt lat="36.80630839468225" lon="-108.1763263265737"><ele>1734.25</ele><time>2026-03-29T17:22:40Z</time></trkpt><trkpt lat="36.8061660638213" lon="-108.17638026472599"><ele>1734.0</ele><time>2026-03-29T17:22:41Z</time></trkpt><trkpt lat="36.806017283842344" lon="-108.17646901655954"><ele>1733.3333333333335</ele><time>2026-03-29T17:22:42Z</time></trkpt><trkpt lat="36.80587198736956" lon="-108.17654954026165"><ele>1732.6666666666667</ele><time>2026-03-29T17:22:43Z</time></trkpt><trkpt lat="36.80572510878155" lon="-108.1766381519761"><ele>1732.0</ele><time>2026-03-29T17:22:44Z</time></trkpt><trkpt lat="36.80556377888068" lon="-108.17673849846815"><ele>1732.0</ele><time>2026-03-29T17:22:45Z</time></trkpt><trkpt lat="36.80537678593853" lon="-108.17682466446588"><ele>1732.0</ele><time>2026-03-29T17:22:46Z</time></trkpt><trkpt lat="36.805204270065175" lon="-108.17688515679593"><ele>1732.0</ele><time>2026-03-29T17:22:47Z</time></trkpt><trkpt lat="36.80504695830186" lon="-108.17694004064242"><ele>1732.3333333333335</ele><time>2026-03-29T17:22:48Z</time></trkpt><trkpt lat="36.80490686300692" lon="-108.17699229863571"><ele>1732.6666666666665</ele><time>2026-03-29T17:22:49Z</time></trkpt><trkpt lat="36.804751141911325" lon="-108.17705003669106"><ele>1733.0</ele><time>2026-03-29T17:22:50Z</time></trkpt><trkpt lat="36.80459836672365" lon="-108.17709832188949"><ele>1733.0</ele><time>2026-03-29T17:22:51Z</time></trkpt><trkpt lat="36.804441054329764" lon="-108.17711886284125"><ele>1733.0</ele><time>2026-03-29T17:22:52Z</time></trkpt><trkpt lat="36.80428196754515" lon="-108.1771132332055"><ele>1733.0</ele><time>2026-03-29T17:22:53Z</time></trkpt><trkpt lat="36.80411713890351" lon="-108.17709076382336"><ele>1732.6666666666665</ele><time>2026-03-29T17:22:54Z</time></trkpt><trkpt lat="36.803960682856946" lon="-108.17705615507772"><ele>1732.3333333333335</ele><time>2026-03-29T17:22:55Z</time></trkpt><trkpt lat="36.80380275123617" lon="-108.17705445851759"><ele>1732.0</ele><time>2026-03-29T17:22:56Z</time></trkpt><trkpt lat="36.80365925418925" lon="-108.17711312010243"><ele>1732.0</ele><time>2026-03-29T17:22:57Z</time></trkpt><trkpt lat="36.80351415851842" lon="-108.17720480180368"><ele>1732.0</ele><time>2026-03-29T17:22:57.999Z</time></trkpt><trkpt lat="36.8033927683155" lon="-108.17732833671525"><ele>1732.0</ele><time>2026-03-29T17:22:58.999Z</time></trkpt><trkpt lat="36.80328648772851" lon="-108.17747989579397"><ele>1731.3333333333335</ele><time>2026-03-29T17:22:59.999Z</time></trkpt><trkpt lat="36.803188552736025" lon="-108.17764457827793"><ele>1730.6666666666665</ele><time>2026-03-29T17:23:00.999Z</time></trkpt><trkpt lat="36.80308322639569" lon="-108.17782276535705"><ele>1730.0</ele><time>2026-03-29T17:23:01.999Z</time></trkpt><trkpt lat="36.80298297289066" lon="-108.17799484266774"><ele>1730.3333333333333</ele><time>2026-03-29T17:23:02.999Z</time></trkpt><trkpt lat="36.80288765232651" lon="-108.17818750584077"><ele>1730.6666666666665</ele><time>2026-03-29T17:23:03.999Z</time></trkpt><trkpt lat="36.80278735048546" lon="-108.17837709508073"><ele>1731.0</ele><time>2026-03-29T17:23:04.999Z</time></trkpt><trkpt lat="36.80268062846654" lon="-108.17857074783478"><ele>1730.6666666666665</ele><time>2026-03-29T17:23:05.999Z</time></trkpt><trkpt lat="36.80256707484737" lon="-108.1787720456165"><ele>1730.3333333333333</ele><time>2026-03-29T17:23:06.999Z</time></trkpt><trkpt lat="36.802449078709" lon="-108.17896128685078"><ele>1730.0</ele><time>2026-03-29T17:23:07.999Z</time></trkpt><trkpt lat="36.802323194726526" lon="-108.17913607180324"><ele>1729.3333333333333</ele><time>2026-03-29T17:23:08.999Z</time></trkpt><trkpt lat="36.80219822692494" lon="-108.17929370842772"><ele>1728.6666666666665</ele><time>2026-03-29T17:23:09.999Z</time></trkpt><trkpt lat="36.802077037304706" lon="-108.1794633422012"><ele>1728.0</ele><time>2026-03-29T17:23:10.999Z</time></trkpt><trkpt lat="36.80199147613588" lon="-108.17964637759574"><ele>1728.0</ele><time>2026-03-29T17:23:11.999Z</time></trkpt><trkpt lat="36.8019676565119" lon="-108.17984875810694"><ele>1728.0</ele><time>2026-03-29T17:23:12.999Z</time></trkpt><trkpt lat="36.801938732598785" lon="-108.18005881486837"><ele>1728.0</ele><time>2026-03-29T17:23:13.999Z</time></trkpt><trkpt lat="36.80189437086715" lon="-108.18024378659219"><ele>1728.3333333333335</ele><time>2026-03-29T17:23:14.999Z</time></trkpt><trkpt lat="36.80181970081371" lon="-108.18042250795203"><ele>1728.6666666666667</ele><time>2026-03-29T17:23:15.999Z</time></trkpt><trkpt lat="36.801732390732084" lon="-108.18062739945636"><ele>1729.0</ele><time>2026-03-29T17:23:16.999Z</time></trkpt><trkpt lat="36.8016455503077" lon="-108.18084292747156"><ele>1729.0</ele><time>2026-03-29T17:23:17.999Z</time></trkpt><trkpt lat="36.80155864494475" lon="-108.18104819573863"><ele>1729.0</ele><time>2026-03-29T17:23:18.999Z</time></trkpt><trkpt lat="36.80146503966774" lon="-108.1812535368841"><ele>1729.0</ele><time>2026-03-29T17:23:19.999Z</time></trkpt><trkpt lat="36.80136341581364" lon="-108.18148725656974"><ele>1727.0</ele><time>2026-03-29T17:23:20.999Z</time></trkpt><trkpt lat="36.80127040807891" lon="-108.18174201389334"><ele>1725.0</ele><time>2026-03-29T17:23:21.999Z</time></trkpt><trkpt lat="36.801181506262175" lon="-108.18200521630722"><ele>1725.0</ele><time>2026-03-29T17:23:22.999Z</time></trkpt><trkpt lat="36.801107291952" lon="-108.18225710283329"><ele>1725.0</ele><time>2026-03-29T17:23:23.999Z</time></trkpt><trkpt lat="36.801065360982605" lon="-108.18245715510388"><ele>1725.0</ele><time>2026-03-29T17:23:24.999Z</time></trkpt><trkpt lat="36.80101611293997" lon="-108.18261138488889"><ele>1725.5</ele><time>2026-03-29T17:23:25.999Z</time></trkpt><trkpt lat="36.80097387593284" lon="-108.18271887750026"><ele>1726.0</ele><time>2026-03-29T17:23:26.999Z</time></trkpt><trkpt lat="36.80093736909507" lon="-108.18281782060603"><ele>1726.5</ele><time>2026-03-29T17:23:27.999Z</time></trkpt><trkpt lat="36.800920289362026" lon="-108.1829060971831"><ele>1727.0</ele><time>2026-03-29T17:23:28.999Z</time></trkpt><trkpt lat="36.80088921546605" lon="-108.18300654407629"><ele>1727.5</ele><time>2026-03-29T17:23:29.999Z</time></trkpt><trkpt lat="36.800832595123744" lon="-108.18309669590305"><ele>1728.0</ele><time>2026-03-29T17:23:30.999Z</time></trkpt><trkpt lat="36.800773499848354" lon="-108.18314967678843"><ele>1728.0</ele><time>2026-03-29T17:23:31.999Z</time></trkpt><trkpt lat="36.80062561050573" lon="-108.18308128562764"><ele>1728.0</ele><time>2026-03-29T17:23:32.999Z</time></trkpt><trkpt lat="36.80057778711758" lon="-108.18314206246916"><ele>1728.0</ele><time>2026-03-29T17:23:33.999Z</time></trkpt><trkpt lat="36.8004930575398" lon="-108.18325701013157"><ele>1728.0</ele><time>2026-03-29T17:23:35.999Z</time></trkpt><trkpt lat="36.80041651733546" lon="-108.1833618473412"><ele>1727.4</ele><time>2026-03-29T17:23:37.999Z</time></trkpt><trkpt lat="36.80037329724514" lon="-108.18342070821694"><ele>1726.8000000000002</ele><time>2026-03-29T17:23:38.999Z</time></trkpt><trkpt lat="36.800296021195436" lon="-108.1835331027862"><ele>1726.2</ele><time>2026-03-29T17:23:40.999Z</time></trkpt><trkpt lat="36.80026251321896" lon="-108.18360248220648"><ele>1725.6</ele><time>2026-03-29T17:23:41.999Z</time></trkpt><trkpt lat="36.80021253412936" lon="-108.18372616886006"><ele>1725.0</ele><time>2026-03-29T17:23:43.999Z</time></trkpt><trkpt lat="36.80055186022969" lon="-108.18418195392346"><ele>1724.6</ele><time>2026-03-29T17:23:44.999Z</time></trkpt><trkpt lat="36.80052686671124" lon="-108.1842652509121"><ele>1724.2</ele><time>2026-03-29T17:23:45.999Z</time></trkpt><trkpt lat="36.800495681729004" lon="-108.18436034181941"><ele>1723.8000000000002</ele><time>2026-03-29T17:23:46.999Z</time></trkpt><trkpt lat="36.80046950778275" lon="-108.18444131489561"><ele>1723.4</ele><time>2026-03-29T17:23:47.999Z</time></trkpt><trkpt lat="36.80042343636569" lon="-108.18458304035171"><ele>1723.0</ele><time>2026-03-29T17:23:49.999Z</time></trkpt><trkpt lat="36.80038438818741" lon="-108.18473673580961"><ele>1723.0000000000002</ele><time>2026-03-29T17:23:51.999Z</time></trkpt><trkpt lat="36.800366367556144" lon="-108.18481316818598"><ele>1723.0</ele><time>2026-03-29T17:23:52.999Z</time></trkpt><trkpt lat="36.800332986196636" lon="-108.18488261900865"><ele>1723.0</ele><time>2026-03-29T17:23:53.999Z</time></trkpt><trkpt lat="36.800264525095685" lon="-108.18499819575567"><ele>1723.0</ele><time>2026-03-29T17:23:55.999Z</time></trkpt><trkpt lat="36.80019846467808" lon="-108.18512526846098"><ele>1723.0000000000002</ele><time>2026-03-29T17:23:57.999Z</time></trkpt><trkpt lat="36.80015743377927" lon="-108.18519240982273"><ele>1723.0</ele><time>2026-03-29T17:23:58.999Z</time></trkpt><trkpt lat="36.800110421303515" lon="-108.18525405236531"><ele>1723.0</ele><time>2026-03-29T17:23:59.999Z</time></trkpt><trkpt lat="36.80006505288548" lon="-108.18531220917696"><ele>1723.0</ele><time>2026-03-29T17:24:00.999Z</time></trkpt><trkpt lat="36.80002317949133" lon="-108.18537112351738"><ele>1723.0</ele><time>2026-03-29T17:24:01.999Z</time></trkpt><trkpt lat="36.79997851786878" lon="-108.18542923804202"><ele>1723.0</ele><time>2026-03-29T17:24:02.999Z</time></trkpt><trkpt lat="36.79991150002427" lon="-108.18549046953217"><ele>1723.0</ele><time>2026-03-29T17:24:04.999Z</time></trkpt><trkpt lat="36.799887694573506" lon="-108.18557027762722"><ele>1723.0</ele><time>2026-03-29T17:25:06.999Z</time></trkpt><trkpt lat="36.799828202454584" lon="-108.18563458784236"><ele>1723.0</ele><time>2026-03-29T17:25:07.999Z</time></trkpt><trkpt lat="36.79979362991311" lon="-108.18570486451452"><ele>1722.6000000000001</ele><time>2026-03-29T17:25:08.999Z</time></trkpt><trkpt lat="36.79970174986599" lon="-108.18580855124733"><ele>1722.2000000000003</ele><time>2026-03-29T17:25:10.999Z</time></trkpt><trkpt lat="36.799672696271884" lon="-108.18590858901831"><ele>1721.8</ele><time>2026-03-29T17:25:12.999Z</time></trkpt><trkpt lat="36.79972066956671" lon="-108.18604295328811"><ele>1721.4</ele><time>2026-03-29T17:25:14.999Z</time></trkpt><trkpt lat="36.799707360966345" lon="-108.18613622678056"><ele>1721.0</ele><time>2026-03-29T17:25:15.999Z</time></trkpt><trkpt lat="36.799672717389015" lon="-108.18624852440333"><ele>1721.0</ele><time>2026-03-29T17:25:16.999Z</time></trkpt><trkpt lat="36.79960023274338" lon="-108.18638064125541"><ele>1721.0</ele><time>2026-03-29T17:25:17.999Z</time></trkpt><trkpt lat="36.79950522737961" lon="-108.18650153284577"><ele>1721.0</ele><time>2026-03-29T17:25:18.999Z</time></trkpt><trkpt lat="36.799402318185216" lon="-108.18659905680838"><ele>1721.0</ele><time>2026-03-29T17:25:19.999Z</time></trkpt><trkpt lat="36.799270599744354" lon="-108.18669582991933"><ele>1722.0</ele><time>2026-03-29T17:25:20.999Z</time></trkpt><trkpt lat="36.79911923259066" lon="-108.1867896658434"><ele>1723.0</ele><time>2026-03-29T17:25:21.999Z</time></trkpt><trkpt lat="36.79894767590918" lon="-108.18685355502092"><ele>1724.0</ele><time>2026-03-29T17:25:22.999Z</time></trkpt><trkpt lat="36.79876351489265" lon="-108.18690724791983"><ele>1724.0</ele><time>2026-03-29T17:25:23.999Z</time></trkpt><trkpt lat="36.79857401036932" lon="-108.18698888137216"><ele>1724.0</ele><time>2026-03-29T17:25:24.999Z</time></trkpt><trkpt lat="36.798389306754615" lon="-108.18709296587627"><ele>1724.0</ele><time>2026-03-29T17:25:25.999Z</time></trkpt><trkpt lat="36.79824800130389" lon="-108.1871715269459"><ele>1724.0</ele><time>2026-03-29T17:25:26.999Z</time></trkpt><trkpt lat="36.79814027299827" lon="-108.1872363995724"><ele>1724.0</ele><time>2026-03-29T17:25:27.999Z</time></trkpt><trkpt lat="36.79805741743119" lon="-108.18730456768955"><ele>1724.0</ele><time>2026-03-29T17:25:28.999Z</time></trkpt><trkpt lat="36.79802318046051" lon="-108.18740214735747"><ele>1724.0</ele><time>2026-03-29T17:25:29.999Z</time></trkpt><trkpt lat="36.798017170108395" lon="-108.1874986748069"><ele>1724.0</ele><time>2026-03-29T17:25:30.999Z</time></trkpt><trkpt lat="36.79805774804617" lon="-108.18758828547878"><ele>1724.0</ele><time>2026-03-29T17:25:31.999Z</time></trkpt><trkpt lat="36.79815043139017" lon="-108.18762135656986"><ele>1724.0</ele><time>2026-03-29T17:25:32.999Z</time></trkpt><trkpt lat="36.79824728821652" lon="-108.18766356528147"><ele>1724.0</ele><time>2026-03-29T17:25:33.999Z</time></trkpt><trkpt lat="36.79833256782413" lon="-108.18773256118654"><ele>1724.0</ele><time>2026-03-29T17:25:34.999Z</time></trkpt><trkpt lat="36.79837487181559" lon="-108.1878153804921"><ele>1724.0</ele><time>2026-03-29T17:25:35.999Z</time></trkpt><trkpt lat="36.79837150914622" lon="-108.18792660033479"><ele>1724.0</ele><time>2026-03-29T17:25:36.999Z</time></trkpt><trkpt lat="36.798383285787345" lon="-108.18802882946547"><ele>1724.0</ele><time>2026-03-29T17:25:37.999Z</time></trkpt><trkpt lat="36.798327275186885" lon="-108.18811023562537"><ele>1724.0</ele><time>2026-03-29T17:25:45.999Z</time></trkpt><trkpt lat="36.798352292354714" lon="-108.18825055438712"><ele>1724.0</ele><time>2026-03-29T17:25:47.999Z</time></trkpt><trkpt lat="36.79837847289635" lon="-108.1883651555411"><ele>1724.0</ele><time>2026-03-29T17:25:48.999Z</time></trkpt><trkpt lat="36.79840528664387" lon="-108.18846189764162"><ele>1726.0</ele><time>2026-03-29T17:25:50.999Z</time></trkpt><trkpt lat="36.798539546135316" lon="-108.18848877291407"><ele>1728.0</ele><time>2026-03-29T17:25:52.999Z</time></trkpt><trkpt lat="36.79862098377445" lon="-108.18849834901175"><ele>1730.0</ele><time>2026-03-29T17:25:53.999Z</time></trkpt><trkpt lat="36.798696641048004" lon="-108.18853223105329"><ele>1732.0</ele><time>2026-03-29T17:25:54.999Z</time></trkpt><trkpt lat="36.79872863147193" lon="-108.1886147631679"><ele>1734.0</ele><time>2026-03-29T17:25:56.999Z</time></trkpt><trkpt lat="36.798718645696866" lon="-108.1887114552527"><ele>1734.0</ele><time>2026-03-29T17:25:59.999Z</time></trkpt><trkpt lat="36.79875081509504" lon="-108.18877943601974"><ele>1734.0</ele><time>2026-03-29T17:26:00.999Z</time></trkpt><trkpt lat="36.7988409453928" lon="-108.18882510491505"><ele>1734.0</ele><time>2026-03-29T17:26:02.999Z</time></trkpt><trkpt lat="36.79891364618318" lon="-108.18880229968859"><ele>1734.0</ele><time>2026-03-29T17:26:03.999Z</time></trkpt><trkpt lat="36.79899338087584" lon="-108.1887806622967"><ele>1734.0</ele><time>2026-03-29T17:26:04.999Z</time></trkpt><trkpt lat="36.79906617658599" lon="-108.1887750340771"><ele>1734.0</ele><time>2026-03-29T17:26:05.999Z</time></trkpt><trkpt lat="36.79914514792152" lon="-108.1887613473962"><ele>1734.0</ele><time>2026-03-29T17:26:06.999Z</time></trkpt><trkpt lat="36.799236832090784" lon="-108.18875710932492"><ele>1734.0</ele><time>2026-03-29T17:26:07.999Z</time></trkpt><trkpt lat="36.799328160675216" lon="-108.18872779606866"><ele>1734.0</ele><time>2026-03-29T17:26:08.999Z</time></trkpt><trkpt lat="36.799395303045" lon="-108.18871832253218"><ele>1734.0</ele><time>2026-03-29T17:26:09.999Z</time></trkpt><trkpt lat="36.799499236239086" lon="-108.18871717137691"><ele>1734.0</ele><time>2026-03-29T17:26:11.999Z</time></trkpt><trkpt lat="36.79961097580089" lon="-108.18880391935438"><ele>1735.1666666666667</ele><time>2026-03-29T17:26:13.999Z</time></trkpt><trkpt lat="36.79970145484811" lon="-108.18880337633053"><ele>1736.3333333333335</ele><time>2026-03-29T17:26:14.999Z</time></trkpt><trkpt lat="36.799787832071516" lon="-108.18876996599982"><ele>1737.5</ele><time>2026-03-29T17:26:15.999Z</time></trkpt><trkpt lat="36.79986200953856" lon="-108.188766021004"><ele>1738.6666666666667</ele><time>2026-03-29T17:26:16.999Z</time></trkpt><trkpt lat="36.79996053191274" lon="-108.18882805661104"><ele>1739.8333333333335</ele><time>2026-03-29T17:26:19Z</time></trkpt><trkpt lat="36.800014885988695" lon="-108.18888896147187"><ele>1741.0</ele><time>2026-03-29T17:26:19.999Z</time></trkpt><trkpt lat="36.80009350205057" lon="-108.18889657869241"><ele>1742.6</ele><time>2026-03-29T17:26:20.999Z</time></trkpt><trkpt lat="36.800173756122675" lon="-108.18885809211797"><ele>1744.1999999999998</ele><time>2026-03-29T17:26:21.999Z</time></trkpt><trkpt lat="36.800218313768724" lon="-108.1888002217485"><ele>1745.8000000000002</ele><time>2026-03-29T17:26:22.999Z</time></trkpt><trkpt lat="36.80032689842781" lon="-108.18881926875102"><ele>1747.4</ele><time>2026-03-29T17:26:24.999Z</time></trkpt><trkpt lat="36.80044482702846" lon="-108.18884109839047"><ele>1749.0</ele><time>2026-03-29T17:26:25.999Z</time></trkpt><trkpt lat="36.80054671229794" lon="-108.18887320312507"><ele>1749.0</ele><time>2026-03-29T17:26:26.999Z</time></trkpt><trkpt lat="36.80066542276007" lon="-108.18889735464764"><ele>1749.0</ele><time>2026-03-29T17:26:27.999Z</time></trkpt><trkpt lat="36.80079113716884" lon="-108.18887186723602"><ele>1749.0</ele><time>2026-03-29T17:26:28.999Z</time></trkpt><trkpt lat="36.800879875076106" lon="-108.18879425977109"><ele>1749.0</ele><time>2026-03-29T17:26:29.999Z</time></trkpt><trkpt lat="36.80098180316146" lon="-108.1886840427764"><ele>1749.25</ele><time>2026-03-29T17:26:30.999Z</time></trkpt><trkpt lat="36.80110235712026" lon="-108.18862678603747"><ele>1749.5</ele><time>2026-03-29T17:26:31.999Z</time></trkpt><trkpt lat="36.80119782403176" lon="-108.18855539076104"><ele>1749.75</ele><time>2026-03-29T17:26:32.999Z</time></trkpt><trkpt lat="36.80127253785874" lon="-108.18846273878563"><ele>1750.0</ele><time>2026-03-29T17:26:33.999Z</time></trkpt><trkpt lat="36.8013904077199" lon="-108.18837181392455"><ele>1750.0</ele><time>2026-03-29T17:26:34.999Z</time></trkpt><trkpt lat="36.80151182631454" lon="-108.18829410693051"><ele>1750.0</ele><time>2026-03-29T17:26:35.999Z</time></trkpt><trkpt lat="36.801620855906116" lon="-108.18826469617261"><ele>1750.0</ele><time>2026-03-29T17:26:36.999Z</time></trkpt><trkpt lat="36.801755169532605" lon="-108.18823638085657"><ele>1750.0</ele><time>2026-03-29T17:26:37.999Z</time></trkpt><trkpt lat="36.801881774682705" lon="-108.18816923837353"><ele>1749.6666666666667</ele><time>2026-03-29T17:26:38.999Z</time></trkpt><trkpt lat="36.801994252741025" lon="-108.18805556467467"><ele>1749.3333333333335</ele><time>2026-03-29T17:26:39.999Z</time></trkpt><trkpt lat="36.80212187127744" lon="-108.18793935026844"><ele>1749.0</ele><time>2026-03-29T17:26:40.999Z</time></trkpt><trkpt lat="36.802242760074634" lon="-108.18778488518669"><ele>1749.0</ele><time>2026-03-29T17:26:41.999Z</time></trkpt><trkpt lat="36.80237326119924" lon="-108.18766831715647"><ele>1749.0</ele><time>2026-03-29T17:26:42.999Z</time></trkpt><trkpt lat="36.8024945973738" lon="-108.18756636894007"><ele>1749.0</ele><time>2026-03-29T17:26:43.999Z</time></trkpt><trkpt lat="36.80262672837658" lon="-108.18746447516719"><ele>1749.0</ele><time>2026-03-29T17:26:44.999Z</time></trkpt><trkpt lat="36.80276308207725" lon="-108.18736411928494"><ele>1749.0</ele><time>2026-03-29T17:26:45.999Z</time></trkpt><trkpt lat="36.80289575399286" lon="-108.18728110811435"><ele>1749.0</ele><time>2026-03-29T17:26:46.999Z</time></trkpt><trkpt lat="36.8030574972017" lon="-108.1872019154199"><ele>1749.5</ele><time>2026-03-29T17:26:47.999Z</time></trkpt><trkpt lat="36.80320606618378" lon="-108.18713665733833"><ele>1750.0</ele><time>2026-03-29T17:26:48.999Z</time></trkpt><trkpt lat="36.80331887946244" lon="-108.18705175145834"><ele>1750.5</ele><time>2026-03-29T17:26:49.999Z</time></trkpt><trkpt lat="36.80340392214417" lon="-108.18693392274851"><ele>1751.0</ele><time>2026-03-29T17:26:50.999Z</time></trkpt><trkpt lat="36.80346806623326" lon="-108.1867913876507"><ele>1751.25</ele><time>2026-03-29T17:26:51.999Z</time></trkpt><trkpt lat="36.803555027334845" lon="-108.18666021400665"><ele>1751.5</ele><time>2026-03-29T17:26:52.999Z</time></trkpt><trkpt lat="36.80366007794563" lon="-108.1865531662796"><ele>1751.75</ele><time>2026-03-29T17:26:53.999Z</time></trkpt><trkpt lat="36.80375027685966" lon="-108.1864345323812"><ele>1752.0</ele><time>2026-03-29T17:26:54.999Z</time></trkpt><trkpt lat="36.80382663081705" lon="-108.18631059781562"><ele>1752.0</ele><time>2026-03-29T17:26:55.999Z</time></trkpt><trkpt lat="36.803891075625394" lon="-108.18619136464646"><ele>1751.9999999999998</ele><time>2026-03-29T17:26:56.999Z</time></trkpt><trkpt lat="36.803956860287286" lon="-108.18609304655833"><ele>1751.9999999999998</ele><time>2026-03-29T17:26:57.999Z</time></trkpt><trkpt lat="36.804029937712016" lon="-108.18599904098302"><ele>1752.0</ele><time>2026-03-29T17:26:58.999Z</time></trkpt><trkpt lat="36.80412111277886" lon="-108.1859328022528"><ele>1752.0</ele><time>2026-03-29T17:26:59.999Z</time></trkpt><trkpt lat="36.804191947312574" lon="-108.18587333297674"><ele>1752.0</ele><time>2026-03-29T17:27:00.999Z</time></trkpt><trkpt lat="36.804251539023184" lon="-108.18581991631494"><ele>1751.9999999999998</ele><time>2026-03-29T17:27:01.999Z</time></trkpt><trkpt lat="36.804323785894944" lon="-108.18576624467379"><ele>1751.9999999999998</ele><time>2026-03-29T17:27:02.999Z</time></trkpt><trkpt lat="36.80441855274335" lon="-108.18569990252166"><ele>1752.0</ele><time>2026-03-29T17:27:03.999Z</time></trkpt><trkpt lat="36.80451759176738" lon="-108.1856400846213"><ele>1752.0</ele><time>2026-03-29T17:27:04.999Z</time></trkpt><trkpt lat="36.80462795906172" lon="-108.18556480805533"><ele>1752.75</ele><time>2026-03-29T17:27:05.999Z</time></trkpt><trkpt lat="36.8047310563462" lon="-108.18546611403382"><ele>1753.5</ele><time>2026-03-29T17:27:06.999Z</time></trkpt><trkpt lat="36.80484714760567" lon="-108.18534638653938"><ele>1754.25</ele><time>2026-03-29T17:27:07.999Z</time></trkpt><trkpt lat="36.804978801753144" lon="-108.18523983361774"><ele>1755.0</ele><time>2026-03-29T17:27:08.999Z</time></trkpt><trkpt lat="36.805116777684404" lon="-108.18512272851225"><ele>1754.6666666666665</ele><time>2026-03-29T17:27:09.999Z</time></trkpt><trkpt lat="36.80524661155644" lon="-108.18498517265411"><ele>1754.3333333333333</ele><time>2026-03-29T17:27:10.999Z</time></trkpt><trkpt lat="36.80536438780413" lon="-108.18485664787816"><ele>1754.0</ele><time>2026-03-29T17:27:11.999Z</time></trkpt><trkpt lat="36.80546295918165" lon="-108.18475874347062"><ele>1753.75</ele><time>2026-03-29T17:27:12.999Z</time></trkpt><trkpt lat="36.805573552555316" lon="-108.18466299055571"><ele>1753.5</ele><time>2026-03-29T17:27:13.999Z</time></trkpt><trkpt lat="36.80568594953216" lon="-108.18455713616078"><ele>1753.25</ele><time>2026-03-29T17:27:14.999Z</time></trkpt><trkpt lat="36.805794754667296" lon="-108.18443357086902"><ele>1753.0</ele><time>2026-03-29T17:27:15.999Z</time></trkpt><trkpt lat="36.8058831924586" lon="-108.18426249131322"><ele>1753.0</ele><time>2026-03-29T17:27:16.999Z</time></trkpt><trkpt lat="36.8059668198704" lon="-108.18408574128506"><ele>1753.0</ele><time>2026-03-29T17:27:17.999Z</time></trkpt><trkpt lat="36.8060465289343" lon="-108.18393523771549"><ele>1753.0</ele><time>2026-03-29T17:27:18.999Z</time></trkpt><trkpt lat="36.80612828371274" lon="-108.1838092417556"><ele>1753.0</ele><time>2026-03-29T17:27:19.999Z</time></trkpt><trkpt lat="36.80622918562947" lon="-108.18370466755515"><ele>1754.0</ele><time>2026-03-29T17:27:20.999Z</time></trkpt><trkpt lat="36.80637210199427" lon="-108.18358867845376"><ele>1755.0</ele><time>2026-03-29T17:27:21.999Z</time></trkpt><trkpt lat="36.806484060243015" lon="-108.18345231234144"><ele>1756.0</ele><time>2026-03-29T17:27:22.999Z</time></trkpt><trkpt lat="36.80658285894644" lon="-108.18332953117931"><ele>1756.0</ele><time>2026-03-29T17:27:23.999Z</time></trkpt><trkpt lat="36.80668122130029" lon="-108.18325277824613"><ele>1756.0</ele><time>2026-03-29T17:27:25Z</time></trkpt><trkpt lat="36.80680627982921" lon="-108.18316615699159"><ele>1756.0</ele><time>2026-03-29T17:27:25.999Z</time></trkpt><trkpt lat="36.806925902189995" lon="-108.18307236321095"><ele>1756.0</ele><time>2026-03-29T17:27:26.999Z</time></trkpt><trkpt lat="36.80705011454814" lon="-108.18295148578787"><ele>1758.0</ele><time>2026-03-29T17:27:27.999Z</time></trkpt><trkpt lat="36.807185124308404" lon="-108.18280692582341"><ele>1760.0</ele><time>2026-03-29T17:27:28.999Z</time></trkpt><trkpt lat="36.80733403040211" lon="-108.18266213773016"><ele>1762.0</ele><time>2026-03-29T17:27:29.999Z</time></trkpt><trkpt lat="36.807453810159075" lon="-108.18254514547465"><ele>1762.0</ele><time>2026-03-29T17:27:30.999Z</time></trkpt><trkpt lat="36.807530055662376" lon="-108.18243531102931"><ele>1761.9999999999998</ele><time>2026-03-29T17:27:31.999Z</time></trkpt><trkpt lat="36.80757422802198" lon="-108.18232737378472"><ele>1761.9999999999998</ele><time>2026-03-29T17:27:32.999Z</time></trkpt><trkpt lat="36.80760136185413" lon="-108.1822128811188"><ele>1762.0</ele><time>2026-03-29T17:27:33.999Z</time></trkpt><trkpt lat="36.80763935351005" lon="-108.18212066437827"><ele>1762.0</ele><time>2026-03-29T17:27:34.999Z</time></trkpt><trkpt lat="36.807658744329565" lon="-108.1820313904995"><ele>1762.0</ele><time>2026-03-29T17:27:35.999Z</time></trkpt><trkpt lat="36.807643584028185" lon="-108.1819004083589"><ele>1761.9999999999998</ele><time>2026-03-29T17:27:37.999Z</time></trkpt><trkpt lat="36.807764207931726" lon="-108.18184307555842"><ele>1761.9999999999998</ele><time>2026-03-29T17:27:39.999Z</time></trkpt><trkpt lat="36.80783954618924" lon="-108.18178582895047"><ele>1762.0</ele><time>2026-03-29T17:27:40.999Z</time></trkpt><trkpt lat="36.80792825925991" lon="-108.18177493126625"><ele>1762.0</ele><time>2026-03-29T17:27:42Z</time></trkpt><trkpt lat="36.80803048712796" lon="-108.18181581116905"><ele>1763.3999999999999</ele><time>2026-03-29T17:27:43Z</time></trkpt><trkpt lat="36.808140629981075" lon="-108.18187759043514"><ele>1764.7999999999997</ele><time>2026-03-29T17:27:44Z</time></trkpt><trkpt lat="36.808245030818014" lon="-108.1819606128349"><ele>1766.2</ele><time>2026-03-29T17:27:45Z</time></trkpt><trkpt lat="36.808322527362584" lon="-108.18202282023103"><ele>1767.6</ele><time>2026-03-29T17:27:46Z</time></trkpt><trkpt lat="36.808411927386175" lon="-108.18203873584157"><ele>1769.0</ele><time>2026-03-29T17:27:47Z</time></trkpt><trkpt lat="36.808510104299515" lon="-108.18209225922786"><ele>1769.2</ele><time>2026-03-29T17:27:48Z</time></trkpt><trkpt lat="36.8086089611615" lon="-108.18214297189489"><ele>1769.4</ele><time>2026-03-29T17:27:49Z</time></trkpt><trkpt lat="36.80871964246952" lon="-108.18211691123732"><ele>1769.6</ele><time>2026-03-29T17:27:50Z</time></trkpt><trkpt lat="36.80882176003068" lon="-108.1820646763293"><ele>1769.8</ele><time>2026-03-29T17:27:51Z</time></trkpt><trkpt lat="36.80890782879891" lon="-108.18198373796943"><ele>1770.0</ele><time>2026-03-29T17:27:52Z</time></trkpt><trkpt lat="36.80896442291894" lon="-108.1818671896234"><ele>1770.0</ele><time>2026-03-29T17:27:53Z</time></trkpt><trkpt lat="36.809017792028904" lon="-108.18177338347016"><ele>1770.0</ele><time>2026-03-29T17:27:54Z</time></trkpt><trkpt lat="36.80910295630228" lon="-108.1816836443807"><ele>1770.0</ele><time>2026-03-29T17:27:55Z</time></trkpt><trkpt lat="36.80924704279531" lon="-108.18159154741184"><ele>1770.0</ele><time>2026-03-29T17:27:56Z</time></trkpt><trkpt lat="36.80936976429897" lon="-108.18152358653253"><ele>1771.0</ele><time>2026-03-29T17:27:57Z</time></trkpt><trkpt lat="36.80946283128318" lon="-108.18148673953081"><ele>1772.0</ele><time>2026-03-29T17:27:58Z</time></trkpt><trkpt lat="36.80957831075005" lon="-108.18144172294238"><ele>1773.0</ele><time>2026-03-29T17:27:59Z</time></trkpt><trkpt lat="36.80970726544897" lon="-108.18141886025589"><ele>1774.0</ele><time>2026-03-29T17:28:00Z</time></trkpt><trkpt lat="36.80981057244156" lon="-108.1813762125663"><ele>1774.0</ele><time>2026-03-29T17:28:01Z</time></trkpt><trkpt lat="36.80988447442306" lon="-108.18127740319642"><ele>1774.0</ele><time>2026-03-29T17:28:02Z</time></trkpt><trkpt lat="36.809942275212535" lon="-108.18118274297234"><ele>1774.0</ele><time>2026-03-29T17:28:03Z</time></trkpt><trkpt lat="36.809991243011794" lon="-108.1811035688074"><ele>1774.0</ele><time>2026-03-29T17:28:04Z</time></trkpt><trkpt lat="36.81006841552685" lon="-108.18108837821441"><ele>1774.0</ele><time>2026-03-29T17:28:05Z</time></trkpt><trkpt lat="36.810163538255814" lon="-108.18104144322284"><ele>1774.4</ele><time>2026-03-29T17:28:07Z</time></trkpt><trkpt lat="36.810212357713546" lon="-108.18096250375095"><ele>1774.8000000000002</ele><time>2026-03-29T17:28:09Z</time></trkpt><trkpt lat="36.81031265847657" lon="-108.18088075631877"><ele>1775.1999999999998</ele><time>2026-03-29T17:28:11Z</time></trkpt><trkpt lat="36.81039620340865" lon="-108.18084212660496"><ele>1775.6</ele><time>2026-03-29T17:28:12Z</time></trkpt><trkpt lat="36.810466049867365" lon="-108.18073880622657"><ele>1776.0</ele><time>2026-03-29T17:28:13Z</time></trkpt><trkpt lat="36.810551640311175" lon="-108.18062468645975"><ele>1775.1999999999998</ele><time>2026-03-29T17:28:14Z</time></trkpt><trkpt lat="36.8106210237612" lon="-108.18053305074382"><ele>1774.3999999999999</ele><time>2026-03-29T17:28:15Z</time></trkpt><trkpt lat="36.81069160518044" lon="-108.18045801536546"><ele>1773.6</ele><time>2026-03-29T17:28:16Z</time></trkpt><trkpt lat="36.810793490027365" lon="-108.18038445893046"><ele>1772.8</ele><time>2026-03-29T17:28:17Z</time></trkpt><trkpt lat="36.81090723906878" lon="-108.18031413813618"><ele>1772.0</ele><time>2026-03-29T17:28:18Z</time></trkpt><trkpt lat="36.81098735655823" lon="-108.18031365621306"><ele>1772.5</ele><time>2026-03-29T17:28:19Z</time></trkpt><trkpt lat="36.81110244971401" lon="-108.18038856019443"><ele>1773.0</ele><time>2026-03-29T17:28:20Z</time></trkpt><trkpt lat="36.81123178376001" lon="-108.18049865190784"><ele>1773.5</ele><time>2026-03-29T17:28:21Z</time></trkpt><trkpt lat="36.81133574237673" lon="-108.18056873531077"><ele>1774.0</ele><time>2026-03-29T17:28:22Z</time></trkpt><trkpt lat="36.811419412497024" lon="-108.18058111776557"><ele>1774.0</ele><time>2026-03-29T17:28:23Z</time></trkpt><trkpt lat="36.81152858378425" lon="-108.18061026911258"><ele>1774.0</ele><time>2026-03-29T17:28:24Z</time></trkpt><trkpt lat="36.811674993958256" lon="-108.18061640695824"><ele>1774.0</ele><time>2026-03-29T17:28:25Z</time></trkpt><trkpt lat="36.81180618367441" lon="-108.18059302508874"><ele>1774.0</ele><time>2026-03-29T17:28:26Z</time></trkpt><trkpt lat="36.81192465443963" lon="-108.18060894774166"><ele>1773.75</ele><time>2026-03-29T17:28:27Z</time></trkpt><trkpt lat="36.812073214974575" lon="-108.18064634692628"><ele>1773.5</ele><time>2026-03-29T17:28:28Z</time></trkpt><trkpt lat="36.81220007323898" lon="-108.18073837163014"><ele>1773.25</ele><time>2026-03-29T17:28:29Z</time></trkpt><trkpt lat="36.812280789355924" lon="-108.18077589869206"><ele>1773.0</ele><time>2026-03-29T17:28:30Z</time></trkpt><trkpt lat="36.812368643099305" lon="-108.1807662356045"><ele>1773.5</ele><time>2026-03-29T17:28:31Z</time></trkpt><trkpt lat="36.81248484895167" lon="-108.18076830132982"><ele>1774.0</ele><time>2026-03-29T17:28:32Z</time></trkpt><trkpt lat="36.812642060196154" lon="-108.1808116297985"><ele>1774.5</ele><time>2026-03-29T17:28:33Z</time></trkpt><trkpt lat="36.81277656864665" lon="-108.18088720962459"><ele>1775.0</ele><time>2026-03-29T17:28:34Z</time></trkpt><trkpt lat="36.81288463707562" lon="-108.18095445833163"><ele>1776.0</ele><time>2026-03-29T17:28:35Z</time></trkpt><trkpt lat="36.81302167267799" lon="-108.18101097800664"><ele>1777.0</ele><time>2026-03-29T17:28:36Z</time></trkpt><trkpt lat="36.81314918761631" lon="-108.18107189394873"><ele>1778.0</ele><time>2026-03-29T17:28:37Z</time></trkpt><trkpt lat="36.81327794231216" lon="-108.1811490049277"><ele>1779.0</ele><time>2026-03-29T17:28:38Z</time></trkpt><trkpt lat="36.81340368194296" lon="-108.18122309011264"><ele>1778.75</ele><time>2026-03-29T17:28:39Z</time></trkpt><trkpt lat="36.81351178279285" lon="-108.18128396694854"><ele>1778.5</ele><time>2026-03-29T17:28:40Z</time></trkpt><trkpt lat="36.813607579211826" lon="-108.18134877665582"><ele>1778.25</ele><time>2026-03-29T17:28:41Z</time></trkpt><trkpt lat="36.81371326662205" lon="-108.18143171175501"><ele>1778.0</ele><time>2026-03-29T17:28:42Z</time></trkpt><trkpt lat="36.813839924307906" lon="-108.18150050647698"><ele>1778.0</ele><time>2026-03-29T17:28:43Z</time></trkpt><trkpt lat="36.81397723476739" lon="-108.18151495500558"><ele>1778.0</ele><time>2026-03-29T17:28:44Z</time></trkpt><trkpt lat="36.814111754084166" lon="-108.18151819676794"><ele>1778.0</ele><time>2026-03-29T17:28:45Z</time></trkpt><trkpt lat="36.81421873266056" lon="-108.18152322661794"><ele>1778.0</ele><time>2026-03-29T17:28:46Z</time></trkpt><trkpt lat="36.814302011585006" lon="-108.18152964216337"><ele>1778.5</ele><time>2026-03-29T17:28:47Z</time></trkpt><trkpt lat="36.81434972140576" lon="-108.18167209442107"><ele>1779.0</ele><time>2026-03-29T17:28:49Z</time></trkpt><trkpt lat="36.81434161840405" lon="-108.18181626916164"><ele>1779.5</ele><time>2026-03-29T17:28:50Z</time></trkpt><trkpt lat="36.814365721987876" lon="-108.18199180240376"><ele>1780.0</ele><time>2026-03-29T17:28:51Z</time></trkpt><trkpt lat="36.814419160846796" lon="-108.18217816779114"><ele>1779.5</ele><time>2026-03-29T17:28:52Z</time></trkpt><trkpt lat="36.81445377495931" lon="-108.18236375479606"><ele>1779.0</ele><time>2026-03-29T17:28:53Z</time></trkpt><trkpt lat="36.81448515007905" lon="-108.18253211272398"><ele>1778.5</ele><time>2026-03-29T17:28:54Z</time></trkpt><trkpt lat="36.81454588139672" lon="-108.18270341965132"><ele>1778.0</ele><time>2026-03-29T17:28:55Z</time></trkpt><trkpt lat="36.81460546833826" lon="-108.18288237258399"><ele>1778.0</ele><time>2026-03-29T17:28:56Z</time></trkpt><trkpt lat="36.81463451705991" lon="-108.18303934422542"><ele>1778.0</ele><time>2026-03-29T17:28:57Z</time></trkpt><trkpt lat="36.81466178918587" lon="-108.18320481509069"><ele>1778.0</ele><time>2026-03-29T17:28:58Z</time></trkpt><trkpt lat="36.814695951242996" lon="-108.18338721921424"><ele>1778.0</ele><time>2026-03-29T17:28:59Z</time></trkpt><trkpt lat="36.814739814808256" lon="-108.18356070413054"><ele>1777.0</ele><time>2026-03-29T17:29:00Z</time></trkpt><trkpt lat="36.81476858492915" lon="-108.18372285977402"><ele>1776.0</ele><time>2026-03-29T17:29:01Z</time></trkpt><trkpt lat="36.814804196440285" lon="-108.18390108515257"><ele>1775.0</ele><time>2026-03-29T17:29:02Z</time></trkpt><trkpt lat="36.81483114789999" lon="-108.18406299944628"><ele>1774.0</ele><time>2026-03-29T17:29:03Z</time></trkpt><trkpt lat="36.81486263119638" lon="-108.18422141146515"><ele>1773.0</ele><time>2026-03-29T17:29:04Z</time></trkpt><trkpt lat="36.814918613177916" lon="-108.18439198884445"><ele>1772.0</ele><time>2026-03-29T17:29:05Z</time></trkpt><trkpt lat="36.81495634282111" lon="-108.1845560385823"><ele>1771.0</ele><time>2026-03-29T17:29:06Z</time></trkpt><trkpt lat="36.814988852475715" lon="-108.1847191250759"><ele>1770.0</ele><time>2026-03-29T17:29:07Z</time></trkpt><trkpt lat="36.81502981016129" lon="-108.18487878655434"><ele>1769.0</ele><time>2026-03-29T17:29:08Z</time></trkpt><trkpt lat="36.815061257780116" lon="-108.18504777466909"><ele>1768.0</ele><time>2026-03-29T17:29:09Z</time></trkpt><trkpt lat="36.815092179155236" lon="-108.18521024427312"><ele>1767.0</ele><time>2026-03-29T17:29:10Z</time></trkpt><trkpt lat="36.81509941016065" lon="-108.18532549220338"><ele>1766.0</ele><time>2026-03-29T17:29:11Z</time></trkpt><trkpt lat="36.815078823468525" lon="-108.18540570059157"><ele>1765.0</ele><time>2026-03-29T17:29:12Z</time></trkpt><trkpt lat="36.815054588917874" lon="-108.18549985401782"><ele>1765.0</ele><time>2026-03-29T17:29:13Z</time></trkpt><trkpt lat="36.815010398884766" lon="-108.18564404334143"><ele>1765.0</ele><time>2026-03-29T17:29:14Z</time></trkpt><trkpt lat="36.814998837850325" lon="-108.18580884630595"><ele>1765.0</ele><time>2026-03-29T17:29:15Z</time></trkpt><trkpt lat="36.815010737351805" lon="-108.18596164746789"><ele>1765.0</ele><time>2026-03-29T17:29:16Z</time></trkpt><trkpt lat="36.81500514673724" lon="-108.18611918457513"><ele>1764.0</ele><time>2026-03-29T17:29:17Z</time></trkpt><trkpt lat="36.81494572201343" lon="-108.18627657568466"><ele>1763.0</ele><time>2026-03-29T17:29:18Z</time></trkpt><trkpt lat="36.81487809300113" lon="-108.18642909840824"><ele>1762.0</ele><time>2026-03-29T17:29:19Z</time></trkpt><trkpt lat="36.81484727579634" lon="-108.18656567059178"><ele>1761.0</ele><time>2026-03-29T17:29:20Z</time></trkpt><trkpt lat="36.81483225106685" lon="-108.1867004307823"><ele>1760.1999999999998</ele><time>2026-03-29T17:29:21Z</time></trkpt><trkpt lat="36.814811617407344" lon="-108.18681431195365"><ele>1759.3999999999999</ele><time>2026-03-29T17:29:22Z</time></trkpt><trkpt lat="36.81480613360209" lon="-108.18694290962456"><ele>1758.6</ele><time>2026-03-29T17:29:23Z</time></trkpt><trkpt lat="36.81482063300933" lon="-108.1870677145302"><ele>1757.8</ele><time>2026-03-29T17:29:24Z</time></trkpt><trkpt lat="36.814833593510095" lon="-108.18721452129527"><ele>1757.0</ele><time>2026-03-29T17:29:25Z</time></trkpt><trkpt lat="36.814857024818565" lon="-108.18744372705426"><ele>1756.5</ele><time>2026-03-29T17:29:26Z</time></trkpt><trkpt lat="36.814882951649075" lon="-108.18760197589563"><ele>1756.0</ele><time>2026-03-29T17:29:27Z</time></trkpt><trkpt lat="36.81493250731324" lon="-108.18773668719221"><ele>1755.5</ele><time>2026-03-29T17:29:28Z</time></trkpt><trkpt lat="36.81499570547005" lon="-108.18784415568233"><ele>1755.0</ele><time>2026-03-29T17:29:29Z</time></trkpt><trkpt lat="36.815067084774896" lon="-108.18795497706627"><ele>1755.0</ele><time>2026-03-29T17:29:30Z</time></trkpt><trkpt lat="36.81514341171705" lon="-108.1880631931871"><ele>1755.0</ele><time>2026-03-29T17:29:31Z</time></trkpt><trkpt lat="36.815212348245595" lon="-108.18816523391858"><ele>1755.0</ele><time>2026-03-29T17:29:32Z</time></trkpt><trkpt lat="36.8152730651979" lon="-108.1882791029772"><ele>1755.0</ele><time>2026-03-29T17:29:33Z</time></trkpt><trkpt lat="36.81533847931619" lon="-108.18838916617207"><ele>1755.0</ele><time>2026-03-29T17:29:34Z</time></trkpt><trkpt lat="36.81539815559653" lon="-108.18849427365583"><ele>1754.5</ele><time>2026-03-29T17:29:35Z</time></trkpt><trkpt lat="36.81547399735894" lon="-108.18861914243232"><ele>1754.0</ele><time>2026-03-29T17:29:36Z</time></trkpt><trkpt lat="36.81554234177281" lon="-108.18873798809761"><ele>1753.5</ele><time>2026-03-29T17:29:37Z</time></trkpt><trkpt lat="36.81558086629931" lon="-108.18887627291588"><ele>1753.0</ele><time>2026-03-29T17:29:38Z</time></trkpt><trkpt lat="36.815626072006324" lon="-108.18900123470777"><ele>1752.6000000000001</ele><time>2026-03-29T17:29:39Z</time></trkpt><trkpt lat="36.81565918460755" lon="-108.18911592098763"><ele>1752.2000000000003</ele><time>2026-03-29T17:29:40Z</time></trkpt><trkpt lat="36.81565632119516" lon="-108.18923251345288"><ele>1751.8</ele><time>2026-03-29T17:29:41Z</time></trkpt><trkpt lat="36.81561368608642" lon="-108.1893209720641"><ele>1751.4</ele><time>2026-03-29T17:29:42Z</time></trkpt><trkpt lat="36.81558261357591" lon="-108.18943616440576"><ele>1751.0</ele><time>2026-03-29T17:29:43Z</time></trkpt><trkpt lat="36.81556743407327" lon="-108.18954881146381"><ele>1751.0</ele><time>2026-03-29T17:29:44Z</time></trkpt><trkpt lat="36.815566572075" lon="-108.18972878617201"><ele>1751.0</ele><time>2026-03-29T17:29:46Z</time></trkpt><trkpt lat="36.81555870380956" lon="-108.1898392207056"><ele>1751.0</ele><time>2026-03-29T17:29:47Z</time></trkpt><trkpt lat="36.81556869374911" lon="-108.18998744029005"><ele>1751.0</ele><time>2026-03-29T17:29:48Z</time></trkpt><trkpt lat="36.81558026496449" lon="-108.19011150033882"><ele>1750.8</ele><time>2026-03-29T17:29:49Z</time></trkpt><trkpt lat="36.81560514381916" lon="-108.19023868117452"><ele>1750.6</ele><time>2026-03-29T17:29:50Z</time></trkpt><trkpt lat="36.81563902168184" lon="-108.19033415217193"><ele>1750.4</ele><time>2026-03-29T17:29:51Z</time></trkpt><trkpt lat="36.815678103192525" lon="-108.19042423465044"><ele>1750.2</ele><time>2026-03-29T17:29:52Z</time></trkpt><trkpt lat="36.81569196840461" lon="-108.19054397258452"><ele>1750.0</ele><time>2026-03-29T17:29:53Z</time></trkpt><trkpt lat="36.81566981114067" lon="-108.19067120394662"><ele>1749.6</ele><time>2026-03-29T17:29:54Z</time></trkpt><trkpt lat="36.81564838494382" lon="-108.19076942524636"><ele>1749.2</ele><time>2026-03-29T17:29:55Z</time></trkpt><trkpt lat="36.81564594499182" lon="-108.19087568928195"><ele>1748.8000000000002</ele><time>2026-03-29T17:29:56Z</time></trkpt><trkpt lat="36.815674518389116" lon="-108.19099448344116"><ele>1748.4</ele><time>2026-03-29T17:29:57Z</time></trkpt><trkpt lat="36.81571321533172" lon="-108.1911051338226"><ele>1748.0</ele><time>2026-03-29T17:29:58Z</time></trkpt><trkpt lat="36.81577919262056" lon="-108.19120223121193"><ele>1748.0</ele><time>2026-03-29T17:29:59Z</time></trkpt><trkpt lat="36.815844734764845" lon="-108.19129677868168"><ele>1748.0</ele><time>2026-03-29T17:30:00Z</time></trkpt><trkpt lat="36.81589441797425" lon="-108.19144732641148"><ele>1748.0</ele><time>2026-03-29T17:30:01Z</time></trkpt><trkpt lat="36.81595176587336" lon="-108.19159744992942"><ele>1748.0</ele><time>2026-03-29T17:30:02Z</time></trkpt><trkpt lat="36.816019723177696" lon="-108.19170191343694"><ele>1748.6000000000001</ele><time>2026-03-29T17:30:03Z</time></trkpt><trkpt lat="36.81611523573113" lon="-108.1917481846087"><ele>1749.2000000000003</ele><time>2026-03-29T17:30:04Z</time></trkpt><trkpt lat="36.816231865001306" lon="-108.19180316514212"><ele>1749.8</ele><time>2026-03-29T17:30:05Z</time></trkpt><trkpt lat="36.81627485812475" lon="-108.19189375536199"><ele>1750.4</ele><time>2026-03-29T17:30:06Z</time></trkpt><trkpt lat="36.816279576136104" lon="-108.19204834863065"><ele>1751.0</ele><time>2026-03-29T17:30:07Z</time></trkpt><trkpt lat="36.81630375570399" lon="-108.19217605458904"><ele>1750.9999999999998</ele><time>2026-03-29T17:30:08Z</time></trkpt><trkpt lat="36.81634122451578" lon="-108.19228255934264"><ele>1751.0</ele><time>2026-03-29T17:30:09Z</time></trkpt><trkpt lat="36.816385665234556" lon="-108.19237617852387"><ele>1751.0</ele><time>2026-03-29T17:30:10Z</time></trkpt><trkpt lat="36.81644349554264" lon="-108.19241758723953"><ele>1751.0</ele><time>2026-03-29T17:30:11Z</time></trkpt><trkpt lat="36.81653676600073" lon="-108.19239090771138"><ele>1750.9999999999998</ele><time>2026-03-29T17:30:13Z</time></trkpt><trkpt lat="36.816599495993366" lon="-108.1924542684365"><ele>1751.0</ele><time>2026-03-29T17:30:14Z</time></trkpt><trkpt lat="36.81664710790278" lon="-108.19250709330817"><ele>1751.0</ele><time>2026-03-29T17:30:15Z</time></trkpt><trkpt lat="36.81672592873432" lon="-108.19267268787559"><ele>1751.0</ele><time>2026-03-29T17:30:17Z</time></trkpt><trkpt lat="36.816791022749435" lon="-108.19275962554192"><ele>1751.0</ele><time>2026-03-29T17:30:18Z</time></trkpt><trkpt lat="36.816820841757504" lon="-108.19283691702961"><ele>1751.0</ele><time>2026-03-29T17:30:19Z</time></trkpt><trkpt lat="36.816809225521546" lon="-108.19292239927604"><ele>1751.0</ele><time>2026-03-29T17:30:20Z</time></trkpt><trkpt lat="36.81676584593669" lon="-108.19303755514677"><ele>1750.8</ele><time>2026-03-29T17:30:21Z</time></trkpt><trkpt lat="36.81674197564031" lon="-108.19315263621422"><ele>1750.6</ele><time>2026-03-29T17:30:22Z</time></trkpt><trkpt lat="36.816773353082645" lon="-108.19325901523774"><ele>1750.4</ele><time>2026-03-29T17:30:23Z</time></trkpt><trkpt lat="36.81681125672713" lon="-108.19334827431177"><ele>1750.2</ele><time>2026-03-29T17:30:24Z</time></trkpt><trkpt lat="36.816890281567815" lon="-108.19343802849795"><ele>1750.0</ele><time>2026-03-29T17:30:25Z</time></trkpt><trkpt lat="36.81696324828656" lon="-108.19353183648715"><ele>1750.0</ele><time>2026-03-29T17:30:26Z</time></trkpt><trkpt lat="36.817016754470785" lon="-108.19361177108797"><ele>1750.0</ele><time>2026-03-29T17:30:27Z</time></trkpt><trkpt lat="36.81705816807845" lon="-108.1937037763651"><ele>1750.0</ele><time>2026-03-29T17:30:28Z</time></trkpt><trkpt lat="36.81709665672662" lon="-108.1938250254301"><ele>1750.0</ele><time>2026-03-29T17:30:29Z</time></trkpt><trkpt lat="36.817127708868696" lon="-108.1939381620975"><ele>1750.0</ele><time>2026-03-29T17:30:30Z</time></trkpt><trkpt lat="36.81711511568932" lon="-108.19405044767453"><ele>1749.25</ele><time>2026-03-29T17:30:31Z</time></trkpt><trkpt lat="36.8171198220096" lon="-108.19415692803122"><ele>1748.5</ele><time>2026-03-29T17:30:32Z</time></trkpt><trkpt lat="36.817204096573874" lon="-108.19424415120147"><ele>1747.75</ele><time>2026-03-29T17:30:33Z</time></trkpt><trkpt lat="36.817307327629386" lon="-108.1943570408109"><ele>1747.0</ele><time>2026-03-29T17:30:34Z</time></trkpt><trkpt lat="36.81739189248208" lon="-108.19448066230589"><ele>1747.0</ele><time>2026-03-29T17:30:35Z</time></trkpt><trkpt lat="36.817457702313455" lon="-108.19459667858017"><ele>1747.0</ele><time>2026-03-29T17:30:36Z</time></trkpt><trkpt lat="36.817502302431144" lon="-108.1947049526472"><ele>1747.0</ele><time>2026-03-29T17:30:37Z</time></trkpt><trkpt lat="36.81755290112001" lon="-108.19485223079988"><ele>1747.0</ele><time>2026-03-29T17:30:38Z</time></trkpt><trkpt lat="36.81758929222509" lon="-108.1950120331145"><ele>1746.3999999999999</ele><time>2026-03-29T17:30:39Z</time></trkpt><trkpt lat="36.81763038351297" lon="-108.19514195932052"><ele>1745.7999999999997</ele><time>2026-03-29T17:30:40Z</time></trkpt><trkpt lat="36.817678145616554" lon="-108.19527099072188"><ele>1745.2</ele><time>2026-03-29T17:30:41Z</time></trkpt><trkpt lat="36.81773693764539" lon="-108.19536667115689"><ele>1744.6</ele><time>2026-03-29T17:30:42Z</time></trkpt><trkpt lat="36.81782584114948" lon="-108.1954453078971"><ele>1744.0</ele><time>2026-03-29T17:30:43Z</time></trkpt><trkpt lat="36.81793346073097" lon="-108.19552427596636"><ele>1743.75</ele><time>2026-03-29T17:30:44Z</time></trkpt><trkpt lat="36.81798901310774" lon="-108.19563848777157"><ele>1743.5</ele><time>2026-03-29T17:30:45Z</time></trkpt><trkpt lat="36.81799974457587" lon="-108.19573071079225"><ele>1743.25</ele><time>2026-03-29T17:30:46Z</time></trkpt><trkpt lat="36.81796888571148" lon="-108.19587114663163"><ele>1743.0</ele><time>2026-03-29T17:30:47Z</time></trkpt><trkpt lat="36.817936488693725" lon="-108.19606214028786"><ele>1742.6000000000001</ele><time>2026-03-29T17:30:48Z</time></trkpt><trkpt lat="36.817936902958564" lon="-108.19622991315117"><ele>1742.2000000000003</ele><time>2026-03-29T17:30:49Z</time></trkpt><trkpt lat="36.81793706111773" lon="-108.19634989699006"><ele>1741.8</ele><time>2026-03-29T17:30:50Z</time></trkpt><trkpt lat="36.81792150967598" lon="-108.19647849272157"><ele>1741.4</ele><time>2026-03-29T17:30:51Z</time></trkpt><trkpt lat="36.817918612948745" lon="-108.19659159713123"><ele>1741.0</ele><time>2026-03-29T17:30:52Z</time></trkpt><trkpt lat="36.81792291952568" lon="-108.19670502914917"><ele>1740.5</ele><time>2026-03-29T17:30:53Z</time></trkpt><trkpt lat="36.8179134978663" lon="-108.19685602262932"><ele>1740.0</ele><time>2026-03-29T17:30:54Z</time></trkpt><trkpt lat="36.81787988212352" lon="-108.19700847841479"><ele>1739.5</ele><time>2026-03-29T17:30:55Z</time></trkpt><trkpt lat="36.81790644294555" lon="-108.19714528271247"><ele>1739.0</ele><time>2026-03-29T17:30:56Z</time></trkpt><trkpt lat="36.81792952365955" lon="-108.19726304865803"><ele>1738.4</ele><time>2026-03-29T17:30:57Z</time></trkpt><trkpt lat="36.817932610237364" lon="-108.19736553398901"><ele>1737.8000000000002</ele><time>2026-03-29T17:30:58Z</time></trkpt><trkpt lat="36.81795123224501" lon="-108.1974735796049"><ele>1737.1999999999998</ele><time>2026-03-29T17:30:59Z</time></trkpt><trkpt lat="36.81796105077599" lon="-108.19760619692367"><ele>1736.6</ele><time>2026-03-29T17:31:00Z</time></trkpt><trkpt lat="36.81794972941413" lon="-108.19774570758888"><ele>1736.0</ele><time>2026-03-29T17:31:01Z</time></trkpt><trkpt lat="36.817970510217485" lon="-108.19788964609727"><ele>1735.9999999999998</ele><time>2026-03-29T17:31:02Z</time></trkpt><trkpt lat="36.817995402471226" lon="-108.19799373366227"><ele>1736.0</ele><time>2026-03-29T17:31:03Z</time></trkpt><trkpt lat="36.818031251727334" lon="-108.19806294421967"><ele>1736.0</ele><time>2026-03-29T17:31:04Z</time></trkpt><trkpt lat="36.818091054458264" lon="-108.19809786860468"><ele>1736.0</ele><time>2026-03-29T17:31:05Z</time></trkpt><trkpt lat="36.81815739098689" lon="-108.19813301833639"><ele>1735.9999999999998</ele><time>2026-03-29T17:31:06Z</time></trkpt><trkpt lat="36.81822819693835" lon="-108.19820727666854"><ele>1736.0</ele><time>2026-03-29T17:31:08Z</time></trkpt><trkpt lat="36.81831061731838" lon="-108.19825929173241"><ele>1736.1999999999998</ele><time>2026-03-29T17:31:11Z</time></trkpt><trkpt lat="36.81842399187055" lon="-108.19835210984868"><ele>1736.3999999999999</ele><time>2026-03-29T17:31:13Z</time></trkpt><trkpt lat="36.818499429305206" lon="-108.1984112304271"><ele>1736.6</ele><time>2026-03-29T17:31:14Z</time></trkpt><trkpt lat="36.81857865645277" lon="-108.19845182098237"><ele>1736.8</ele><time>2026-03-29T17:31:15Z</time></trkpt><trkpt lat="36.81865422949013" lon="-108.19848961946968"><ele>1737.0</ele><time>2026-03-29T17:31:16Z</time></trkpt><trkpt lat="36.818740967490214" lon="-108.19854229039356"><ele>1737.0</ele><time>2026-03-29T17:31:17Z</time></trkpt><trkpt lat="36.81880902458727" lon="-108.19858181320954"><ele>1737.0</ele><time>2026-03-29T17:31:18Z</time></trkpt><trkpt lat="36.818873830792846" lon="-108.19860812650549"><ele>1737.0</ele><time>2026-03-29T17:31:19Z</time></trkpt><trkpt lat="36.818940693100195" lon="-108.19862945281197"><ele>1737.0</ele><time>2026-03-29T17:31:20Z</time></trkpt><trkpt lat="36.81903594022358" lon="-108.1986564537293"><ele>1737.0</ele><time>2026-03-29T17:31:21Z</time></trkpt><trkpt lat="36.81913267968911" lon="-108.19869241756408"><ele>1737.0</ele><time>2026-03-29T17:31:22Z</time></trkpt><trkpt lat="36.81922972720653" lon="-108.19872861332641"><ele>1737.1999999999998</ele><time>2026-03-29T17:31:23Z</time></trkpt><trkpt lat="36.819327450852704" lon="-108.19875026035614"><ele>1737.3999999999999</ele><time>2026-03-29T17:31:24Z</time></trkpt><trkpt lat="36.8194383480787" lon="-108.19876132762897"><ele>1737.6000000000001</ele><time>2026-03-29T17:31:26Z</time></trkpt><trkpt lat="36.819520825276854" lon="-108.19871205458352"><ele>1737.8000000000002</ele><time>2026-03-29T17:31:27Z</time></trkpt><trkpt lat="36.819605439561784" lon="-108.19866176347952"><ele>1738.0</ele><time>2026-03-29T17:31:28Z</time></trkpt><trkpt lat="36.81968512637357" lon="-108.19863778166034"><ele>1738.0000000000002</ele><time>2026-03-29T17:31:29Z</time></trkpt><trkpt lat="36.81979341269425" lon="-108.19859243880482"><ele>1738.0</ele><time>2026-03-29T17:31:31Z</time></trkpt><trkpt lat="36.819867193256435" lon="-108.19856003989742"><ele>1738.0</ele><time>2026-03-29T17:31:32Z</time></trkpt><trkpt lat="36.81992880245657" lon="-108.1985279176546"><ele>1738.0</ele><time>2026-03-29T17:31:33Z</time></trkpt><trkpt lat="36.819992220682174" lon="-108.19851787077172"><ele>1738.0000000000002</ele><time>2026-03-29T17:31:34Z</time></trkpt><trkpt lat="36.820060450594475" lon="-108.19852109890186"><ele>1738.0</ele><time>2026-03-29T17:31:35Z</time></trkpt><trkpt lat="36.82017094253388" lon="-108.1985052134148"><ele>1738.0</ele><time>2026-03-29T17:31:37Z</time></trkpt><trkpt lat="36.82024054099721" lon="-108.19846625464055"><ele>1738.0000000000002</ele><time>2026-03-29T17:31:38Z</time></trkpt><trkpt lat="36.820308582802696" lon="-108.19838813288263"><ele>1738.0000000000002</ele><time>2026-03-29T17:31:39Z</time></trkpt><trkpt lat="36.82038329512924" lon="-108.19832389508555"><ele>1738.0</ele><time>2026-03-29T17:31:40Z</time></trkpt><trkpt lat="36.82046883341537" lon="-108.19831741177597"><ele>1738.0</ele><time>2026-03-29T17:31:41Z</time></trkpt><trkpt lat="36.82057181785305" lon="-108.19834449980438"><ele>1738.0</ele><time>2026-03-29T17:31:42Z</time></trkpt><trkpt lat="36.82065995765169" lon="-108.19839400643855"><ele>1738.0000000000002</ele><time>2026-03-29T17:31:43Z</time></trkpt><trkpt lat="36.82074804735263" lon="-108.19841073940806"><ele>1738.0000000000002</ele><time>2026-03-29T17:31:44Z</time></trkpt><trkpt lat="36.820834080915866" lon="-108.19841319561503"><ele>1738.0</ele><time>2026-03-29T17:31:45Z</time></trkpt><trkpt lat="36.82094490244405" lon="-108.19840806359448"><ele>1738.0</ele><time>2026-03-29T17:31:46Z</time></trkpt><trkpt lat="36.82103802192496" lon="-108.19841709408898"><ele>1736.3333333333335</ele><time>2026-03-29T17:31:47Z</time></trkpt><trkpt lat="36.8211249082484" lon="-108.19842085336501"><ele>1734.6666666666667</ele><time>2026-03-29T17:31:48Z</time></trkpt><trkpt lat="36.82120933126467" lon="-108.19842716462216"><ele>1733.0</ele><time>2026-03-29T17:31:49Z</time></trkpt><trkpt lat="36.821292277586934" lon="-108.19839008392917"><ele>1731.3333333333335</ele><time>2026-03-29T17:31:50Z</time></trkpt><trkpt lat="36.8213866419012" lon="-108.19833352174521"><ele>1729.6666666666667</ele><time>2026-03-29T17:31:51Z</time></trkpt><trkpt lat="36.82146686617204" lon="-108.19830748154806"><ele>1728.0</ele><time>2026-03-29T17:31:52Z</time></trkpt><trkpt lat="36.82159375611249" lon="-108.19831663753688"><ele>1728.0</ele><time>2026-03-29T17:31:54Z</time></trkpt><trkpt lat="36.821685156818546" lon="-108.1983474118833"><ele>1728.0000000000002</ele><time>2026-03-29T17:31:55Z</time></trkpt><trkpt lat="36.821787957469226" lon="-108.19835568578368"><ele>1728.0000000000002</ele><time>2026-03-29T17:31:56Z</time></trkpt><trkpt lat="36.821864128658845" lon="-108.1983103937088"><ele>1728.0</ele><time>2026-03-29T17:31:57Z</time></trkpt><trkpt lat="36.821968004668605" lon="-108.19825185536824"><ele>1728.0</ele><time>2026-03-29T17:31:58Z</time></trkpt><trkpt lat="36.822068943701304" lon="-108.1982202462426"><ele>1728.0</ele><time>2026-03-29T17:31:59Z</time></trkpt><trkpt lat="36.82212837340992" lon="-108.19819379861853"><ele>1728.0</ele><time>2026-03-29T17:32:00Z</time></trkpt><trkpt lat="36.82222196633133" lon="-108.19819546566589"><ele>1728.0</ele><time>2026-03-29T17:32:01Z</time></trkpt><trkpt lat="36.82232618365223" lon="-108.19820933791026"><ele>1728.0</ele><time>2026-03-29T17:32:02Z</time></trkpt><trkpt lat="36.82241042143343" lon="-108.19818711590251"><ele>1728.0</ele><time>2026-03-29T17:32:03Z</time></trkpt><trkpt lat="36.82250285452642" lon="-108.19816437291543"><ele>1728.0</ele><time>2026-03-29T17:32:04Z</time></trkpt><trkpt lat="36.82257711575022" lon="-108.19816494545194"><ele>1728.0</ele><time>2026-03-29T17:32:05Z</time></trkpt><trkpt lat="36.82262536845483" lon="-108.19809525138427"><ele>1728.0</ele><time>2026-03-29T17:32:06Z</time></trkpt><trkpt lat="36.82271387721544" lon="-108.1980413987118"><ele>1728.0</ele><time>2026-03-29T17:32:08Z</time></trkpt><trkpt lat="36.82281282923042" lon="-108.19804254262523"><ele>1728.0</ele><time>2026-03-29T17:32:09Z</time></trkpt><trkpt lat="36.82289820313892" lon="-108.19807449674451"><ele>1728.0</ele><time>2026-03-29T17:32:10Z</time></trkpt><trkpt lat="36.822966447677544" lon="-108.19810814495014"><ele>1728.0</ele><time>2026-03-29T17:32:12Z</time></trkpt><trkpt lat="36.82305220408134" lon="-108.19805163532577"><ele>1728.8333333333333</ele><time>2026-03-29T17:32:14Z</time></trkpt><trkpt lat="36.823137166098114" lon="-108.19801858719894"><ele>1729.6666666666665</ele><time>2026-03-29T17:32:15Z</time></trkpt><trkpt lat="36.823206866372786" lon="-108.1979891232903"><ele>1730.5</ele><time>2026-03-29T17:32:16Z</time></trkpt><trkpt lat="36.82327754503532" lon="-108.19801622862178"><ele>1731.3333333333333</ele><time>2026-03-29T17:32:17Z</time></trkpt><trkpt lat="36.823360248005145" lon="-108.19803626588295"><ele>1732.1666666666665</ele><time>2026-03-29T17:32:18Z</time></trkpt><trkpt lat="36.823429662934934" lon="-108.19801296724559"><ele>1733.0</ele><time>2026-03-29T17:32:19Z</time></trkpt><trkpt lat="36.82348203930343" lon="-108.19796439167726"><ele>1733.25</ele><time>2026-03-29T17:32:20Z</time></trkpt><trkpt lat="36.823630156948624" lon="-108.19808696619812"><ele>1733.5</ele><time>2026-03-29T17:32:22Z</time></trkpt><trkpt lat="36.823739922364" lon="-108.19813122784915"><ele>1733.75</ele><time>2026-03-29T17:32:23Z</time></trkpt><trkpt lat="36.82382007767479" lon="-108.19822918659598"><ele>1734.0</ele><time>2026-03-29T17:32:24Z</time></trkpt><trkpt lat="36.82390948823045" lon="-108.1983384562642"><ele>1734.0</ele><time>2026-03-29T17:32:25Z</time></trkpt><trkpt lat="36.82401675715826" lon="-108.19846737290246"><ele>1734.0</ele><time>2026-03-29T17:32:26Z</time></trkpt><trkpt lat="36.824090656751736" lon="-108.1985847065247"><ele>1734.0</ele><time>2026-03-29T17:32:27Z</time></trkpt><trkpt lat="36.82416943437833" lon="-108.19867306278675"><ele>1734.0</ele><time>2026-03-29T17:32:28Z</time></trkpt><trkpt lat="36.824238261631116" lon="-108.19875809345518"><ele>1734.0</ele><time>2026-03-29T17:32:29Z</time></trkpt><trkpt lat="36.82430363486567" lon="-108.19882002101953"><ele>1734.0</ele><time>2026-03-29T17:32:30Z</time></trkpt><trkpt lat="36.82439953836534" lon="-108.19890984503365"><ele>1734.0</ele><time>2026-03-29T17:32:32Z</time></trkpt><trkpt lat="36.824584297949315" lon="-108.19877657271185"><ele>1734.0</ele><time>2026-03-29T17:32:34Z</time></trkpt><trkpt lat="36.824648714494074" lon="-108.19869577329845"><ele>1735.1666666666667</ele><time>2026-03-29T17:32:35Z</time></trkpt><trkpt lat="36.82470144902898" lon="-108.19862381274629"><ele>1736.3333333333335</ele><time>2026-03-29T17:32:36Z</time></trkpt><trkpt lat="36.82477069249712" lon="-108.19861877724519"><ele>1737.5</ele><time>2026-03-29T17:32:37Z</time></trkpt><trkpt lat="36.82482205465456" lon="-108.19867016952645"><ele>1738.6666666666667</ele><time>2026-03-29T17:32:38Z</time></trkpt><trkpt lat="36.82485762896512" lon="-108.1987444090606"><ele>1739.8333333333335</ele><time>2026-03-29T17:32:40Z</time></trkpt><trkpt lat="36.824943052503485" lon="-108.19879877455242"><ele>1741.0</ele><time>2026-03-29T17:32:42Z</time></trkpt><trkpt lat="36.825051975305946" lon="-108.19878842274339"><ele>1741.0</ele><time>2026-03-29T17:32:44Z</time></trkpt><trkpt lat="36.825123386602876" lon="-108.1987546578202"><ele>1741.0</ele><time>2026-03-29T17:32:45Z</time></trkpt><trkpt lat="36.82520599499283" lon="-108.19869852294339"><ele>1741.0</ele><time>2026-03-29T17:32:46Z</time></trkpt><trkpt lat="36.82531077488555" lon="-108.19868530013514"><ele>1741.0</ele><time>2026-03-29T17:32:47Z</time></trkpt><trkpt lat="36.82541998682845" lon="-108.1986429399276"><ele>1741.0</ele><time>2026-03-29T17:32:48Z</time></trkpt><trkpt lat="36.82551860756216" lon="-108.19858216672326"><ele>1740.8</ele><time>2026-03-29T17:32:49Z</time></trkpt><trkpt lat="36.82558374636881" lon="-108.19850344955613"><ele>1740.6</ele><time>2026-03-29T17:32:50Z</time></trkpt><trkpt lat="36.825643451659325" lon="-108.19839944611834"><ele>1740.4</ele><time>2026-03-29T17:32:51Z</time></trkpt><trkpt lat="36.82571434567308" lon="-108.19831810716143"><ele>1740.2</ele><time>2026-03-29T17:32:52Z</time></trkpt><trkpt lat="36.82578252836302" lon="-108.19825657813576"><ele>1740.0</ele><time>2026-03-29T17:32:53Z</time></trkpt><trkpt lat="36.825824352942334" lon="-108.19816986937163"><ele>1739.8</ele><time>2026-03-29T17:32:54Z</time></trkpt><trkpt lat="36.825885263183814" lon="-108.19811464680521"><ele>1739.6</ele><time>2026-03-29T17:32:55Z</time></trkpt><trkpt lat="36.82598107333888" lon="-108.19804771231534"><ele>1739.4</ele><time>2026-03-29T17:32:56Z</time></trkpt><trkpt lat="36.82605998210839" lon="-108.19797586557762"><ele>1739.2</ele><time>2026-03-29T17:32:57Z</time></trkpt><trkpt lat="36.826125155735795" lon="-108.19788305154619"><ele>1739.0</ele><time>2026-03-29T17:32:58Z</time></trkpt><trkpt lat="36.826179803762116" lon="-108.19780114499838"><ele>1737.6</ele><time>2026-03-29T17:32:59Z</time></trkpt><trkpt lat="36.82623977692487" lon="-108.19771436869262"><ele>1736.2</ele><time>2026-03-29T17:33:00Z</time></trkpt><trkpt lat="36.82632683673397" lon="-108.19766614989125"><ele>1734.7999999999997</ele><time>2026-03-29T17:33:01Z</time></trkpt><trkpt lat="36.826410318482566" lon="-108.19761279762699"><ele>1733.3999999999999</ele><time>2026-03-29T17:33:02Z</time></trkpt><trkpt lat="36.82645524687275" lon="-108.19752863670708"><ele>1732.0</ele><time>2026-03-29T17:33:03Z</time></trkpt><trkpt lat="36.82652887910534" lon="-108.19745752290363"><ele>1732.0</ele><time>2026-03-29T17:33:04Z</time></trkpt><trkpt lat="36.82661094392312" lon="-108.19737835769351"><ele>1731.9999999999998</ele><time>2026-03-29T17:33:05Z</time></trkpt><trkpt lat="36.82667462271788" lon="-108.19731567161931"><ele>1731.9999999999998</ele><time>2026-03-29T17:33:06Z</time></trkpt><trkpt lat="36.82673494380535" lon="-108.19724003880373"><ele>1732.0</ele><time>2026-03-29T17:33:07Z</time></trkpt><trkpt lat="36.82678797632973" lon="-108.19713186522621"><ele>1732.0</ele><time>2026-03-29T17:33:08Z</time></trkpt><trkpt lat="36.826874933818566" lon="-108.1970411490619"><ele>1731.6666666666667</ele><time>2026-03-29T17:33:09Z</time></trkpt><trkpt lat="36.82694103814519" lon="-108.19699629323327"><ele>1731.3333333333335</ele><time>2026-03-29T17:33:10Z</time></trkpt><trkpt lat="36.826970172515374" lon="-108.19685435451808"><ele>1731.0</ele><time>2026-03-29T17:33:12Z</time></trkpt><trkpt lat="36.82696638925326" lon="-108.19674773699128"><ele>1730.6666666666665</ele><time>2026-03-29T17:33:13Z</time></trkpt><trkpt lat="36.82696008356382" lon="-108.19665201354938"><ele>1730.3333333333333</ele><time>2026-03-29T17:33:14Z</time></trkpt><trkpt lat="36.82696665906805" lon="-108.19654347112994"><ele>1730.0</ele><time>2026-03-29T17:33:16Z</time></trkpt><trkpt lat="36.826945653068215" lon="-108.1964458575545"><ele>1731.0</ele><time>2026-03-29T17:33:18Z</time></trkpt><trkpt lat="36.82695403236417" lon="-108.19633980637803"><ele>1732.0</ele><time>2026-03-29T17:33:19Z</time></trkpt><trkpt lat="36.82698622358671" lon="-108.19621096472139"><ele>1733.0</ele><time>2026-03-29T17:33:20Z</time></trkpt><trkpt lat="36.82701291343926" lon="-108.19610607396525"><ele>1734.0</ele><time>2026-03-29T17:33:21Z</time></trkpt><trkpt lat="36.82700513874204" lon="-108.19599245092839"><ele>1735.0</ele><time>2026-03-29T17:33:22Z</time></trkpt><trkpt lat="36.826960733483055" lon="-108.19585912015192"><ele>1735.0</ele><time>2026-03-29T17:33:23Z</time></trkpt><trkpt lat="36.82690219422227" lon="-108.19575130483555"><ele>1735.0</ele><time>2026-03-29T17:33:24Z</time></trkpt><trkpt lat="36.82690187796516" lon="-108.19562634890009"><ele>1735.0</ele><time>2026-03-29T17:33:26Z</time></trkpt><trkpt lat="36.82693260904515" lon="-108.19551118184093"><ele>1735.0</ele><time>2026-03-29T17:33:28Z</time></trkpt><trkpt lat="36.82700170397791" lon="-108.19545475215263"><ele>1735.0</ele><time>2026-03-29T17:33:29Z</time></trkpt><trkpt lat="36.827063094237005" lon="-108.19539481673665"><ele>1735.4</ele><time>2026-03-29T17:33:30Z</time></trkpt><trkpt lat="36.82709486943014" lon="-108.19531762960631"><ele>1735.8</ele><time>2026-03-29T17:33:31Z</time></trkpt><trkpt lat="36.82719226835922" lon="-108.19522450788813"><ele>1736.1999999999998</ele><time>2026-03-29T17:33:33Z</time></trkpt><trkpt lat="36.8272867610138" lon="-108.19522057507093"><ele>1736.6</ele><time>2026-03-29T17:33:34Z</time></trkpt><trkpt lat="36.8273814899166" lon="-108.19523358554686"><ele>1737.0</ele><time>2026-03-29T17:33:35Z</time></trkpt><trkpt lat="36.82746154521818" lon="-108.19522009415822"><ele>1737.0</ele><time>2026-03-29T17:33:36Z</time></trkpt><trkpt lat="36.82757072380623" lon="-108.19517560221571"><ele>1736.9999999999998</ele><time>2026-03-29T17:33:37Z</time></trkpt><trkpt lat="36.82769853528154" lon="-108.19513106978481"><ele>1736.9999999999998</ele><time>2026-03-29T17:33:38Z</time></trkpt><trkpt lat="36.82780979549353" lon="-108.19514301190586"><ele>1737.0</ele><time>2026-03-29T17:33:39Z</time></trkpt><trkpt lat="36.82788930163623" lon="-108.19514388028232"><ele>1737.0</ele><time>2026-03-29T17:33:40Z</time></trkpt><trkpt lat="36.82798572211651" lon="-108.19517965528377"><ele>1737.75</ele><time>2026-03-29T17:33:41Z</time></trkpt><trkpt lat="36.82809527021881" lon="-108.19523533663347"><ele>1738.5</ele><time>2026-03-29T17:33:42Z</time></trkpt><trkpt lat="36.82819419205024" lon="-108.19527215601182"><ele>1739.25</ele><time>2026-03-29T17:33:43Z</time></trkpt><trkpt lat="36.82833012478816" lon="-108.19523984487957"><ele>1740.0</ele><time>2026-03-29T17:33:45Z</time></trkpt><trkpt lat="36.82846248697136" lon="-108.19525482333418"><ele>1740.0</ele><time>2026-03-29T17:33:46Z</time></trkpt><trkpt lat="36.82856846310052" lon="-108.19530242562946"><ele>1740.0</ele><time>2026-03-29T17:33:47Z</time></trkpt><trkpt lat="36.82863993620265" lon="-108.19533417015342"><ele>1740.0</ele><time>2026-03-29T17:33:48Z</time></trkpt><trkpt lat="36.828732365576265" lon="-108.19533400088976"><ele>1740.0</ele><time>2026-03-29T17:33:49Z</time></trkpt><trkpt lat="36.82884362692718" lon="-108.19528745426959"><ele>1740.0</ele><time>2026-03-29T17:33:50Z</time></trkpt><trkpt lat="36.82894583201784" lon="-108.19525963820787"><ele>1740.0</ele><time>2026-03-29T17:33:51Z</time></trkpt><trkpt lat="36.82902574180742" lon="-108.19525987605608"><ele>1740.0</ele><time>2026-03-29T17:33:52Z</time></trkpt><trkpt lat="36.82910379136784" lon="-108.1952341921593"><ele>1740.0</ele><time>2026-03-29T17:33:53Z</time></trkpt><trkpt lat="36.829168819021014" lon="-108.19510868253687"><ele>1740.0</ele><time>2026-03-29T17:33:54Z</time></trkpt><trkpt lat="36.829243499433524" lon="-108.19498568076494"><ele>1740.0</ele><time>2026-03-29T17:33:55Z</time></trkpt><trkpt lat="36.82930647993765" lon="-108.19490935384614"><ele>1740.6</ele><time>2026-03-29T17:33:56Z</time></trkpt><trkpt lat="36.82941849338785" lon="-108.19480081187575"><ele>1741.2</ele><time>2026-03-29T17:33:58Z</time></trkpt><trkpt lat="36.82944406985469" lon="-108.19470948648275"><ele>1741.8000000000002</ele><time>2026-03-29T17:33:59Z</time></trkpt><trkpt lat="36.829480872807274" lon="-108.19458058053642"><ele>1742.4</ele><time>2026-03-29T17:34:00Z</time></trkpt><trkpt lat="36.82955433586906" lon="-108.19449405193546"><ele>1743.0</ele><time>2026-03-29T17:34:01Z</time></trkpt><trkpt lat="36.82961646135895" lon="-108.19444448416569"><ele>1743.0</ele><time>2026-03-29T17:34:02Z</time></trkpt><trkpt lat="36.82967717447098" lon="-108.19438276822501"><ele>1743.0000000000002</ele><time>2026-03-29T17:34:03Z</time></trkpt><trkpt lat="36.82971849114933" lon="-108.19428490354316"><ele>1743.0000000000002</ele><time>2026-03-29T17:34:04Z</time></trkpt><trkpt lat="36.82978607283051" lon="-108.19422572422704"><ele>1743.0</ele><time>2026-03-29T17:34:05Z</time></trkpt><trkpt lat="36.82989948624033" lon="-108.19417223159242"><ele>1743.0</ele><time>2026-03-29T17:34:06Z</time></trkpt><trkpt lat="36.830004253870634" lon="-108.19411521892815"><ele>1743.0</ele><time>2026-03-29T17:34:07Z</time></trkpt><trkpt lat="36.830082622340804" lon="-108.19404907997593"><ele>1743.0</ele><time>2026-03-29T17:34:08Z</time></trkpt><trkpt lat="36.83017385045466" lon="-108.1939613843251"><ele>1743.0</ele><time>2026-03-29T17:34:09Z</time></trkpt><trkpt lat="36.83026277336511" lon="-108.19385775249013"><ele>1743.0</ele><time>2026-03-29T17:34:10Z</time></trkpt><trkpt lat="36.83034968652866" lon="-108.193743343848"><ele>1743.0</ele><time>2026-03-29T17:34:11Z</time></trkpt><trkpt lat="36.8304281381371" lon="-108.19364931032943"><ele>1743.0000000000002</ele><time>2026-03-29T17:34:12Z</time></trkpt><trkpt lat="36.83050597116421" lon="-108.19358682945722"><ele>1743.0000000000002</ele><time>2026-03-29T17:34:13Z</time></trkpt><trkpt lat="36.83061539039947" lon="-108.1935710496908"><ele>1743.0</ele><time>2026-03-29T17:34:14Z</time></trkpt><trkpt lat="36.83072463188688" lon="-108.19356626293944"><ele>1743.0</ele><time>2026-03-29T17:34:15Z</time></trkpt><trkpt lat="36.83084368701982" lon="-108.19355578078546"><ele>1743.0</ele><time>2026-03-29T17:34:16Z</time></trkpt><trkpt lat="36.83095855006864" lon="-108.19352877156074"><ele>1743.0000000000002</ele><time>2026-03-29T17:34:17Z</time></trkpt><trkpt lat="36.83100420609869" lon="-108.19346264908518"><ele>1743.0000000000002</ele><time>2026-03-29T17:34:18Z</time></trkpt><trkpt lat="36.831040656965875" lon="-108.19336865429175"><ele>1743.0</ele><time>2026-03-29T17:34:19Z</time></trkpt><trkpt lat="36.83109382568002" lon="-108.19329745770015"><ele>1743.0</ele><time>2026-03-29T17:34:20Z</time></trkpt><trkpt lat="36.83119542257473" lon="-108.19328654519508"><ele>1742.8000000000002</ele><time>2026-03-29T17:34:21Z</time></trkpt><trkpt lat="36.831307951780666" lon="-108.19325458804244"><ele>1742.6000000000001</ele><time>2026-03-29T17:34:22Z</time></trkpt><trkpt lat="36.83142521194124" lon="-108.19320570763352"><ele>1742.3999999999999</ele><time>2026-03-29T17:34:23Z</time></trkpt><trkpt lat="36.83150337755883" lon="-108.19316644047723"><ele>1742.1999999999998</ele><time>2026-03-29T17:34:24Z</time></trkpt><trkpt lat="36.83158047006607" lon="-108.19312749660192"><ele>1742.0</ele><time>2026-03-29T17:34:25Z</time></trkpt><trkpt lat="36.83165353868097" lon="-108.19309647811117"><ele>1742.3999999999999</ele><time>2026-03-29T17:34:26Z</time></trkpt><trkpt lat="36.83172965596057" lon="-108.19306728669224"><ele>1742.7999999999997</ele><time>2026-03-29T17:34:27Z</time></trkpt><trkpt lat="36.8318410408136" lon="-108.19304286210745"><ele>1743.2</ele><time>2026-03-29T17:34:28Z</time></trkpt><trkpt lat="36.831940543214" lon="-108.19301386981026"><ele>1743.6</ele><time>2026-03-29T17:34:29Z</time></trkpt><trkpt lat="36.83204179900886" lon="-108.1929051987961"><ele>1744.0</ele><time>2026-03-29T17:34:31Z</time></trkpt><trkpt lat="36.83208700514338" lon="-108.19282340503678"><ele>1744.0000000000002</ele><time>2026-03-29T17:34:32Z</time></trkpt><trkpt lat="36.83215218707622" lon="-108.19279110922447"><ele>1744.0</ele><time>2026-03-29T17:34:33Z</time></trkpt><trkpt lat="36.8322163873642" lon="-108.19276363984417"><ele>1744.0</ele><time>2026-03-29T17:34:34Z</time></trkpt><trkpt lat="36.83230078021796" lon="-108.19270484152376"><ele>1744.0</ele><time>2026-03-29T17:34:35Z</time></trkpt><trkpt lat="36.832371964379035" lon="-108.1926206071538"><ele>1744.0000000000002</ele><time>2026-03-29T17:34:36Z</time></trkpt><trkpt lat="36.832426854924655" lon="-108.19250867786901"><ele>1744.0</ele><time>2026-03-29T17:34:37Z</time></trkpt><trkpt lat="36.832471948079935" lon="-108.19237897729563"><ele>1745.0</ele><time>2026-03-29T17:34:38Z</time></trkpt><trkpt lat="36.83253557380121" lon="-108.19227983842497"><ele>1746.0</ele><time>2026-03-29T17:34:39Z</time></trkpt><trkpt lat="36.832606918888594" lon="-108.19223791697989"><ele>1747.0</ele><time>2026-03-29T17:34:40Z</time></trkpt><trkpt lat="36.83269337515374" lon="-108.19220301025668"><ele>1748.0</ele><time>2026-03-29T17:34:41Z</time></trkpt><trkpt lat="36.8328036576313" lon="-108.19215100382169"><ele>1749.0</ele><time>2026-03-29T17:34:42Z</time></trkpt><trkpt lat="36.832898735928296" lon="-108.19210734371498"><ele>1749.2</ele><time>2026-03-29T17:34:43Z</time></trkpt><trkpt lat="36.832985197315885" lon="-108.19205340358826"><ele>1749.4</ele><time>2026-03-29T17:34:44Z</time></trkpt><trkpt lat="36.83306966548817" lon="-108.19201503690586"><ele>1749.6</ele><time>2026-03-29T17:34:45Z</time></trkpt><trkpt lat="36.833157268784845" lon="-108.1919676846971"><ele>1749.8</ele><time>2026-03-29T17:34:46Z</time></trkpt><trkpt lat="36.833219314127696" lon="-108.19193957568812"><ele>1750.0</ele><time>2026-03-29T17:34:47Z</time></trkpt><trkpt lat="36.83333155637976" lon="-108.19199587124788"><ele>1750.0</ele><time>2026-03-29T17:34:49Z</time></trkpt><trkpt lat="36.83341136550685" lon="-108.19200549631046"><ele>1750.0</ele><time>2026-03-29T17:34:50Z</time></trkpt><trkpt lat="36.83349710150544" lon="-108.19199703119108"><ele>1750.0</ele><time>2026-03-29T17:34:51Z</time></trkpt><trkpt lat="36.83359376428674" lon="-108.19199154677754"><ele>1750.0</ele><time>2026-03-29T17:34:52Z</time></trkpt><trkpt lat="36.833678871214566" lon="-108.19202257055568"><ele>1750.0</ele><time>2026-03-29T17:34:53Z</time></trkpt><trkpt lat="36.833768397649294" lon="-108.19208796662268"><ele>1749.8</ele><time>2026-03-29T17:34:54Z</time></trkpt><trkpt lat="36.833841662777616" lon="-108.19214783272953"><ele>1749.6</ele><time>2026-03-29T17:34:55Z</time></trkpt><trkpt lat="36.833923817750055" lon="-108.19220014142694"><ele>1749.4</ele><time>2026-03-29T17:34:56Z</time></trkpt><trkpt lat="36.83396562667547" lon="-108.19229639800699"><ele>1749.2</ele><time>2026-03-29T17:34:57Z</time></trkpt><trkpt lat="36.83398840498476" lon="-108.1924179116783"><ele>1749.0</ele><time>2026-03-29T17:34:58Z</time></trkpt><trkpt lat="36.83401007809183" lon="-108.19252005882106"><ele>1748.2</ele><time>2026-03-29T17:34:59Z</time></trkpt><trkpt lat="36.83408356890365" lon="-108.19254374732034"><ele>1747.4</ele><time>2026-03-29T17:35:01Z</time></trkpt><trkpt lat="36.83418978853896" lon="-108.19268138899878"><ele>1746.6</ele><time>2026-03-29T17:35:02Z</time></trkpt><trkpt lat="36.83425677724314" lon="-108.19274507442435"><ele>1745.8</ele><time>2026-03-29T17:35:03Z</time></trkpt><trkpt lat="36.8343142671886" lon="-108.19281505310082"><ele>1745.0</ele><time>2026-03-29T17:35:04Z</time></trkpt><trkpt lat="36.834364710443396" lon="-108.19289046329553"><ele>1743.6666666666665</ele><time>2026-03-29T17:35:05Z</time></trkpt><trkpt lat="36.83442539968213" lon="-108.19296419813534"><ele>1742.3333333333333</ele><time>2026-03-29T17:35:06Z</time></trkpt><trkpt lat="36.83450852620138" lon="-108.19302919151946"><ele>1741.0</ele><time>2026-03-29T17:35:07Z</time></trkpt><trkpt lat="36.834604208007015" lon="-108.19304835323906"><ele>1739.6666666666665</ele><time>2026-03-29T17:35:08Z</time></trkpt><trkpt lat="36.834685056298405" lon="-108.19304052163758"><ele>1738.3333333333333</ele><time>2026-03-29T17:35:09Z</time></trkpt><trkpt lat="36.83476768005329" lon="-108.19305041370025"><ele>1737.0</ele><time>2026-03-29T17:35:10Z</time></trkpt><trkpt lat="36.83485578305879" lon="-108.1930745570604"><ele>1737.0</ele><time>2026-03-29T17:35:11Z</time></trkpt><trkpt lat="36.83496454125533" lon="-108.19311336826058"><ele>1737.0</ele><time>2026-03-29T17:35:12Z</time></trkpt><trkpt lat="36.83505117622262" lon="-108.19315151480298"><ele>1737.0</ele><time>2026-03-29T17:35:13Z</time></trkpt><trkpt lat="36.83516613971314" lon="-108.19320564549422"><ele>1737.0</ele><time>2026-03-29T17:35:15Z</time></trkpt><trkpt lat="36.835297938339124" lon="-108.19325890430208"><ele>1737.0</ele><time>2026-03-29T17:35:17Z</time></trkpt><trkpt lat="36.83537406093543" lon="-108.19327871930321"><ele>1737.0</ele><time>2026-03-29T17:35:18Z</time></trkpt><trkpt lat="36.83545198963239" lon="-108.19328087373663"><ele>1737.0</ele><time>2026-03-29T17:35:19Z</time></trkpt><trkpt lat="36.83553487175724" lon="-108.19328851294209"><ele>1737.0</ele><time>2026-03-29T17:35:20Z</time></trkpt><trkpt lat="36.8356260235452" lon="-108.19330165833755"><ele>1737.0</ele><time>2026-03-29T17:35:21Z</time></trkpt><trkpt lat="36.83573576089241" lon="-108.19331680363503"><ele>1737.0</ele><time>2026-03-29T17:35:22Z</time></trkpt><trkpt lat="36.83585730616493" lon="-108.19331210572484"><ele>1739.0</ele><time>2026-03-29T17:35:23Z</time></trkpt><trkpt lat="36.83598838497311" lon="-108.19327786907712"><ele>1741.0</ele><time>2026-03-29T17:35:24Z</time></trkpt><trkpt lat="36.83610320863298" lon="-108.19323471164648"><ele>1743.0</ele><time>2026-03-29T17:35:25Z</time></trkpt><trkpt lat="36.83621147566475" lon="-108.19317861416968"><ele>1745.0</ele><time>2026-03-29T17:35:26Z</time></trkpt><trkpt lat="36.83630960533909" lon="-108.19314100635705"><ele>1745.2</ele><time>2026-03-29T17:35:27Z</time></trkpt><trkpt lat="36.83640390578944" lon="-108.19313647701297"><ele>1745.4</ele><time>2026-03-29T17:35:28Z</time></trkpt><trkpt lat="36.83650161745407" lon="-108.19312735964441"><ele>1745.6</ele><time>2026-03-29T17:35:29Z</time></trkpt><trkpt lat="36.836610106534884" lon="-108.19309168310507"><ele>1745.8</ele><time>2026-03-29T17:35:30Z</time></trkpt><trkpt lat="36.8367220721024" lon="-108.1930613195086"><ele>1746.0</ele><time>2026-03-29T17:35:31Z</time></trkpt><trkpt lat="36.83682847656819" lon="-108.19303807610473"><ele>1746.8333333333333</ele><time>2026-03-29T17:35:32Z</time></trkpt><trkpt lat="36.83690457297504" lon="-108.1930338566144"><ele>1747.6666666666665</ele><time>2026-03-29T17:35:33Z</time></trkpt><trkpt lat="36.83697261773648" lon="-108.19304527239507"><ele>1748.5</ele><time>2026-03-29T17:35:34Z</time></trkpt><trkpt lat="36.837052109970735" lon="-108.19307558483703"><ele>1749.3333333333333</ele><time>2026-03-29T17:35:35Z</time></trkpt><trkpt lat="36.83713490230991" lon="-108.19310264149722"><ele>1750.1666666666665</ele><time>2026-03-29T17:35:36Z</time></trkpt><trkpt lat="36.837207806620704" lon="-108.19312139109552"><ele>1751.0</ele><time>2026-03-29T17:35:37Z</time></trkpt><trkpt lat="36.837288871174394" lon="-108.19314953284861"><ele>1750.9999999999998</ele><time>2026-03-29T17:35:38Z</time></trkpt><trkpt lat="36.837366142307076" lon="-108.19317649763761"><ele>1751.0</ele><time>2026-03-29T17:35:39Z</time></trkpt><trkpt lat="36.83745069680593" lon="-108.19317007456543"><ele>1751.0</ele><time>2026-03-29T17:35:40Z</time></trkpt><trkpt lat="36.83754151780098" lon="-108.19317574311445"><ele>1751.0</ele><time>2026-03-29T17:35:41Z</time></trkpt><trkpt lat="36.83764121883087" lon="-108.19318308495473"><ele>1750.9999999999998</ele><time>2026-03-29T17:35:42Z</time></trkpt><trkpt lat="36.837727980569376" lon="-108.19321422853598"><ele>1751.0</ele><time>2026-03-29T17:35:43Z</time></trkpt><trkpt lat="36.83778262078413" lon="-108.19336642784101"><ele>1752.3333333333333</ele><time>2026-03-29T17:35:45Z</time></trkpt><trkpt lat="36.83778019644191" lon="-108.19345883831296"><ele>1753.6666666666665</ele><time>2026-03-29T17:35:46Z</time></trkpt><trkpt lat="36.837818505926066" lon="-108.19355353365933"><ele>1755.0</ele><time>2026-03-29T17:35:48Z</time></trkpt><trkpt lat="36.83788731031572" lon="-108.19354960117268"><ele>1756.3333333333335</ele><time>2026-03-29T17:35:49Z</time></trkpt><trkpt lat="36.8379832564421" lon="-108.19355354867162"><ele>1757.6666666666667</ele><time>2026-03-29T17:35:51Z</time></trkpt><trkpt lat="36.83803885453929" lon="-108.19367493362486"><ele>1759.0</ele><time>2026-03-29T17:35:53Z</time></trkpt><trkpt lat="36.83812830729599" lon="-108.19373985947583"><ele>1759.0000000000002</ele><time>2026-03-29T17:35:54Z</time></trkpt><trkpt lat="36.838162478111656" lon="-108.19383831585957"><ele>1759.0</ele><time>2026-03-29T17:35:56Z</time></trkpt><trkpt lat="36.838261781244825" lon="-108.19390081955542"><ele>1759.0</ele><time>2026-03-29T17:35:58Z</time></trkpt><trkpt lat="36.83832715699381" lon="-108.19393396217576"><ele>1759.0</ele><time>2026-03-29T17:35:59Z</time></trkpt><trkpt lat="36.83840032771729" lon="-108.19397627758217"><ele>1759.0000000000002</ele><time>2026-03-29T17:36:00Z</time></trkpt><trkpt lat="36.838486889109596" lon="-108.19402908089259"><ele>1759.0</ele><time>2026-03-29T17:36:01Z</time></trkpt><trkpt lat="36.83857618842569" lon="-108.19407080287655"><ele>1759.0</ele><time>2026-03-29T17:36:02Z</time></trkpt><trkpt lat="36.838662532135295" lon="-108.1941037634897"><ele>1759.0</ele><time>2026-03-29T17:36:03Z</time></trkpt><trkpt lat="36.838744317830255" lon="-108.19412125832478"><ele>1759.0</ele><time>2026-03-29T17:36:04Z</time></trkpt><trkpt lat="36.83882422450888" lon="-108.19411972103907"><ele>1759.0</ele><time>2026-03-29T17:36:05Z</time></trkpt><trkpt lat="36.838925665703904" lon="-108.1941234078572"><ele>1759.0</ele><time>2026-03-29T17:36:06Z</time></trkpt><trkpt lat="36.83902860012465" lon="-108.19414143697239"><ele>1759.0000000000002</ele><time>2026-03-29T17:36:07Z</time></trkpt><trkpt lat="36.839108045234504" lon="-108.19417691179564"><ele>1759.0</ele><time>2026-03-29T17:36:08Z</time></trkpt><trkpt lat="36.83917744992823" lon="-108.19422476761432"><ele>1759.0</ele><time>2026-03-29T17:36:09Z</time></trkpt><trkpt lat="36.83925639751033" lon="-108.19426782721347"><ele>1759.0</ele><time>2026-03-29T17:36:10Z</time></trkpt><trkpt lat="36.83933354989122" lon="-108.1943135828504"><ele>1759.0000000000002</ele><time>2026-03-29T17:36:11Z</time></trkpt><trkpt lat="36.839409001130534" lon="-108.19436769453596"><ele>1759.0</ele><time>2026-03-29T17:36:12Z</time></trkpt><trkpt lat="36.83949293782425" lon="-108.19442742905017"><ele>1759.4</ele><time>2026-03-29T17:36:13Z</time></trkpt><trkpt lat="36.839561681442824" lon="-108.19449923112677"><ele>1759.8000000000002</ele><time>2026-03-29T17:36:14Z</time></trkpt><trkpt lat="36.83963971272214" lon="-108.19455840991478"><ele>1760.1999999999998</ele><time>2026-03-29T17:36:15Z</time></trkpt><trkpt lat="36.839715465341015" lon="-108.194666354883"><ele>1760.6</ele><time>2026-03-29T17:36:16Z</time></trkpt><trkpt lat="36.83975692307607" lon="-108.19476645399388"><ele>1761.0</ele><time>2026-03-29T17:36:17Z</time></trkpt><trkpt lat="36.839821204729176" lon="-108.19479496366976"><ele>1761.0</ele><time>2026-03-29T17:36:18Z</time></trkpt><trkpt lat="36.83992384716235" lon="-108.1947240531956"><ele>1761.0</ele><time>2026-03-29T17:36:20Z</time></trkpt><trkpt lat="36.83998899879377" lon="-108.19479966556254"><ele>1761.0</ele><time>2026-03-29T17:36:21Z</time></trkpt><trkpt lat="36.840063061050245" lon="-108.19484325206159"><ele>1761.0</ele><time>2026-03-29T17:36:22Z</time></trkpt><trkpt lat="36.84011825615533" lon="-108.19491499247101"><ele>1761.0</ele><time>2026-03-29T17:36:23Z</time></trkpt><trkpt lat="36.840136278602664" lon="-108.19506773594998"><ele>1761.25</ele><time>2026-03-29T17:36:24Z</time></trkpt><trkpt lat="36.840139999806766" lon="-108.19520066609616"><ele>1761.5</ele><time>2026-03-29T17:36:25Z</time></trkpt><trkpt lat="36.84015436182523" lon="-108.19537782841147"><ele>1761.75</ele><time>2026-03-29T17:36:27Z</time></trkpt><trkpt lat="36.8401266981578" lon="-108.19552046813226"><ele>1762.0</ele><time>2026-03-29T17:36:28Z</time></trkpt><trkpt lat="36.840086772566146" lon="-108.19561925360871"><ele>1761.3333333333335</ele><time>2026-03-29T17:36:29Z</time></trkpt><trkpt lat="36.84005406326985" lon="-108.19570114200573"><ele>1760.6666666666667</ele><time>2026-03-29T17:36:30Z</time></trkpt><trkpt lat="36.84003291987193" lon="-108.19580226111172"><ele>1760.0</ele><time>2026-03-29T17:36:31Z</time></trkpt><trkpt lat="36.83997783659599" lon="-108.19591937708553"><ele>1759.3333333333335</ele><time>2026-03-29T17:36:32Z</time></trkpt><trkpt lat="36.839947687243914" lon="-108.195999765647"><ele>1758.6666666666667</ele><time>2026-03-29T17:36:33Z</time></trkpt><trkpt lat="36.839939625839946" lon="-108.19612705126892"><ele>1758.0</ele><time>2026-03-29T17:36:35Z</time></trkpt><trkpt lat="36.83993468867501" lon="-108.19623369475252"><ele>1758.0</ele><time>2026-03-29T17:36:36Z</time></trkpt><trkpt lat="36.83993500518528" lon="-108.1963442693376"><ele>1758.0</ele><time>2026-03-29T17:36:37Z</time></trkpt><trkpt lat="36.83993398699172" lon="-108.19646240735933"><ele>1758.0</ele><time>2026-03-29T17:36:38Z</time></trkpt><trkpt lat="36.839932347095214" lon="-108.19655811102916"><ele>1758.0</ele><time>2026-03-29T17:36:39Z</time></trkpt><trkpt lat="36.83988585714423" lon="-108.19665871855277"><ele>1758.0</ele><time>2026-03-29T17:36:40Z</time></trkpt><trkpt lat="36.83985454007804" lon="-108.1967659534591"><ele>1758.0</ele><time>2026-03-29T17:36:41Z</time></trkpt><trkpt lat="36.83985139924992" lon="-108.19687688212366"><ele>1757.8000000000002</ele><time>2026-03-29T17:36:42Z</time></trkpt><trkpt lat="36.839829137907685" lon="-108.19697755325751"><ele>1757.6000000000001</ele><time>2026-03-29T17:36:43Z</time></trkpt><trkpt lat="36.83978366996746" lon="-108.19704868630274"><ele>1757.3999999999999</ele><time>2026-03-29T17:36:44Z</time></trkpt><trkpt lat="36.83971824551812" lon="-108.19716539949593"><ele>1757.1999999999998</ele><time>2026-03-29T17:36:46Z</time></trkpt><trkpt lat="36.83966767584317" lon="-108.1972781678552"><ele>1757.0</ele><time>2026-03-29T17:36:47Z</time></trkpt><trkpt lat="36.83964836360062" lon="-108.19737690607278"><ele>1756.8</ele><time>2026-03-29T17:36:48Z</time></trkpt><trkpt lat="36.83962916079809" lon="-108.19753678770972"><ele>1756.6</ele><time>2026-03-29T17:36:50Z</time></trkpt><trkpt lat="36.83962792786184" lon="-108.19762462404925"><ele>1756.3999999999999</ele><time>2026-03-29T17:36:51Z</time></trkpt><trkpt lat="36.83964173788086" lon="-108.19775119748118"><ele>1756.1999999999998</ele><time>2026-03-29T17:36:52Z</time></trkpt><trkpt lat="36.839657515828186" lon="-108.19787153161532"><ele>1756.0</ele><time>2026-03-29T17:36:53Z</time></trkpt><trkpt lat="36.83966670747369" lon="-108.19798524877577"><ele>1756.0</ele><time>2026-03-29T17:36:54Z</time></trkpt><trkpt lat="36.83965688855828" lon="-108.19809305955772"><ele>1756.0</ele><time>2026-03-29T17:36:55Z</time></trkpt><trkpt lat="36.83963502702413" lon="-108.19819923754551"><ele>1756.0</ele><time>2026-03-29T17:36:56Z</time></trkpt><trkpt lat="36.839593940810545" lon="-108.19830982908108"><ele>1756.0</ele><time>2026-03-29T17:36:57Z</time></trkpt><trkpt lat="36.839531443754325" lon="-108.19841415205093"><ele>1756.0</ele><time>2026-03-29T17:36:58Z</time></trkpt><trkpt lat="36.8394665321448" lon="-108.19851985508512"><ele>1755.6666666666667</ele><time>2026-03-29T17:36:59Z</time></trkpt><trkpt lat="36.839422376304434" lon="-108.19859475152208"><ele>1755.3333333333335</ele><time>2026-03-29T17:37:00Z</time></trkpt><trkpt lat="36.8394380943493" lon="-108.19867681990783"><ele>1755.0</ele><time>2026-03-29T17:37:01Z</time></trkpt><trkpt lat="36.83947793649655" lon="-108.19876344621682"><ele>1754.6666666666665</ele><time>2026-03-29T17:37:02Z</time></trkpt><trkpt lat="36.83949980618735" lon="-108.19886210993307"><ele>1754.3333333333333</ele><time>2026-03-29T17:37:03Z</time></trkpt><trkpt lat="36.83949897608905" lon="-108.19900146880573"><ele>1754.0</ele><time>2026-03-29T17:37:04Z</time></trkpt><trkpt lat="36.83948567360256" lon="-108.19911593244174"><ele>1753.6666666666665</ele><time>2026-03-29T17:37:05Z</time></trkpt><trkpt lat="36.83944222955059" lon="-108.19920857870906"><ele>1753.3333333333333</ele><time>2026-03-29T17:37:06Z</time></trkpt><trkpt lat="36.839397433348346" lon="-108.19931583505772"><ele>1753.0</ele><time>2026-03-29T17:37:07Z</time></trkpt><trkpt lat="36.83933473993574" lon="-108.19941018542961"><ele>1752.6666666666665</ele><time>2026-03-29T17:37:08Z</time></trkpt><trkpt lat="36.83928319123698" lon="-108.19948495599763"><ele>1752.3333333333333</ele><time>2026-03-29T17:37:09Z</time></trkpt><trkpt lat="36.839274628415254" lon="-108.19958536946216"><ele>1752.0</ele><time>2026-03-29T17:37:10Z</time></trkpt><trkpt lat="36.8392392546587" lon="-108.19969697489668"><ele>1751.3999999999999</ele><time>2026-03-29T17:37:11Z</time></trkpt><trkpt lat="36.839219452817204" lon="-108.1997875895532"><ele>1750.7999999999997</ele><time>2026-03-29T17:37:12Z</time></trkpt><trkpt lat="36.83920380906289" lon="-108.19988821747422"><ele>1750.2</ele><time>2026-03-29T17:37:13Z</time></trkpt><trkpt lat="36.83917665151196" lon="-108.20000929648519"><ele>1749.6</ele><time>2026-03-29T17:37:14Z</time></trkpt><trkpt lat="36.839154209703324" lon="-108.20012002479034"><ele>1749.0</ele><time>2026-03-29T17:37:15Z</time></trkpt><trkpt lat="36.83912826555263" lon="-108.20024561434424"><ele>1749.0</ele><time>2026-03-29T17:37:16Z</time></trkpt><trkpt lat="36.83910239522214" lon="-108.20034929416256"><ele>1749.0</ele><time>2026-03-29T17:37:17Z</time></trkpt><trkpt lat="36.8390899729955" lon="-108.20045318201939"><ele>1749.0</ele><time>2026-03-29T17:37:18Z</time></trkpt><trkpt lat="36.83908102407238" lon="-108.20059679176644"><ele>1749.0</ele><time>2026-03-29T17:37:19Z</time></trkpt><trkpt lat="36.83906545912411" lon="-108.20073230642801"><ele>1749.0</ele><time>2026-03-29T17:37:20Z</time></trkpt><trkpt lat="36.83904885377209" lon="-108.20085483570044"><ele>1748.6</ele><time>2026-03-29T17:37:21Z</time></trkpt><trkpt lat="36.83901126024159" lon="-108.20094636724085"><ele>1748.2</ele><time>2026-03-29T17:37:22Z</time></trkpt><trkpt lat="36.838946288860356" lon="-108.20105195101958"><ele>1747.7999999999997</ele><time>2026-03-29T17:37:23Z</time></trkpt><trkpt lat="36.83887196794867" lon="-108.20115992546155"><ele>1747.3999999999999</ele><time>2026-03-29T17:37:24Z</time></trkpt><trkpt lat="36.83883252104158" lon="-108.20125696230694"><ele>1747.0</ele><time>2026-03-29T17:37:25Z</time></trkpt><trkpt lat="36.838877368586154" lon="-108.20133011117746"><ele>1747.0</ele><time>2026-03-29T17:37:26Z</time></trkpt><trkpt lat="36.8389588178982" lon="-108.20140831048766"><ele>1746.9999999999998</ele><time>2026-03-29T17:37:27Z</time></trkpt><trkpt lat="36.839068872847164" lon="-108.20147577461147"><ele>1746.9999999999998</ele><time>2026-03-29T17:37:28Z</time></trkpt><trkpt lat="36.839158896478246" lon="-108.20156097361254"><ele>1747.0</ele><time>2026-03-29T17:37:29Z</time></trkpt><trkpt lat="36.83922191460731" lon="-108.20166281215815"><ele>1747.0</ele><time>2026-03-29T17:37:30Z</time></trkpt><trkpt lat="36.83927216046143" lon="-108.20177585116635"><ele>1746.6</ele><time>2026-03-29T17:37:31Z</time></trkpt><trkpt lat="36.83934210902264" lon="-108.2018551003916"><ele>1746.1999999999998</ele><time>2026-03-29T17:37:32Z</time></trkpt><trkpt lat="36.83941739834653" lon="-108.20195434062809"><ele>1745.8</ele><time>2026-03-29T17:37:33Z</time></trkpt><trkpt lat="36.83950814929134" lon="-108.2020733093088"><ele>1745.4</ele><time>2026-03-29T17:37:34Z</time></trkpt><trkpt lat="36.83958918371705" lon="-108.20215165032056"><ele>1745.0</ele><time>2026-03-29T17:37:35Z</time></trkpt><trkpt lat="36.83965561518405" lon="-108.2022294699079"><ele>1745.0</ele><time>2026-03-29T17:37:36Z</time></trkpt><trkpt lat="36.83970837798564" lon="-108.20230976504165"><ele>1745.0</ele><time>2026-03-29T17:37:37Z</time></trkpt><trkpt lat="36.83965815790217" lon="-108.20245442064736"><ele>1745.0</ele><time>2026-03-29T17:37:40Z</time></trkpt><trkpt lat="36.83962045057285" lon="-108.20254380132526"><ele>1745.0</ele><time>2026-03-29T17:37:41Z</time></trkpt><trkpt lat="36.8397048533396" lon="-108.20269858977025"><ele>1745.0</ele><time>2026-03-29T17:37:43Z</time></trkpt><trkpt lat="36.83972732764319" lon="-108.20280179270284"><ele>1744.6</ele><time>2026-03-29T17:37:44Z</time></trkpt><trkpt lat="36.83970644633552" lon="-108.20293069505314"><ele>1744.2</ele><time>2026-03-29T17:37:45Z</time></trkpt><trkpt lat="36.83968565373655" lon="-108.20303748759265"><ele>1743.8000000000002</ele><time>2026-03-29T17:37:46Z</time></trkpt><trkpt lat="36.83981519882081" lon="-108.20313434633428"><ele>1743.4</ele><time>2026-03-29T17:37:48Z</time></trkpt><trkpt lat="36.83989736534034" lon="-108.20321258499796"><ele>1743.0</ele><time>2026-03-29T17:37:49Z</time></trkpt><trkpt lat="36.839959545839996" lon="-108.20329067104142"><ele>1742.3333333333333</ele><time>2026-03-29T17:37:50Z</time></trkpt><trkpt lat="36.84002140501738" lon="-108.20334504134132"><ele>1741.6666666666665</ele><time>2026-03-29T17:37:51Z</time></trkpt><trkpt lat="36.84010652134643" lon="-108.20337271595103"><ele>1741.0</ele><time>2026-03-29T17:37:52Z</time></trkpt><trkpt lat="36.84018260082673" lon="-108.20341324444726"><ele>1740.3333333333333</ele><time>2026-03-29T17:37:53Z</time></trkpt><trkpt lat="36.840241959946134" lon="-108.2034653644676"><ele>1739.6666666666665</ele><time>2026-03-29T17:37:54Z</time></trkpt><trkpt lat="36.84029537365252" lon="-108.20353026352228"><ele>1739.0</ele><time>2026-03-29T17:37:55Z</time></trkpt><trkpt lat="36.84034105124437" lon="-108.20358755656329"><ele>1739.0</ele><time>2026-03-29T17:37:56Z</time></trkpt><trkpt lat="36.840441008503085" lon="-108.20366776401829"><ele>1739.0</ele><time>2026-03-29T17:37:58Z</time></trkpt><trkpt lat="36.84050794936289" lon="-108.20373315786472"><ele>1739.0</ele><time>2026-03-29T17:37:59Z</time></trkpt><trkpt lat="36.840600355336846" lon="-108.20380003743773"><ele>1739.0</ele><time>2026-03-29T17:38:01Z</time></trkpt><trkpt lat="36.84068657480291" lon="-108.20375196425184"><ele>1739.0</ele><time>2026-03-29T17:38:03Z</time></trkpt><trkpt lat="36.84074372265091" lon="-108.20371863259528"><ele>1738.9999999999998</ele><time>2026-03-29T17:38:04Z</time></trkpt><trkpt lat="36.84081818441204" lon="-108.20373173690906"><ele>1739.0</ele><time>2026-03-29T17:38:05Z</time></trkpt><trkpt lat="36.84087847927753" lon="-108.20379817980626"><ele>1739.0</ele><time>2026-03-29T17:38:06Z</time></trkpt><trkpt lat="36.840929374338096" lon="-108.20389326917287"><ele>1739.0</ele><time>2026-03-29T17:38:07Z</time></trkpt><trkpt lat="36.84096742904187" lon="-108.20400362419498"><ele>1738.9999999999998</ele><time>2026-03-29T17:38:08Z</time></trkpt><trkpt lat="36.840961697638186" lon="-108.20411219966317"><ele>1739.0</ele><time>2026-03-29T17:38:09Z</time></trkpt><trkpt lat="36.840956912895805" lon="-108.20422726039696"><ele>1738.0</ele><time>2026-03-29T17:38:10Z</time></trkpt><trkpt lat="36.84100104254881" lon="-108.2043212245652"><ele>1737.0</ele><time>2026-03-29T17:38:11Z</time></trkpt><trkpt lat="36.841032790822126" lon="-108.20442159865034"><ele>1736.0</ele><time>2026-03-29T17:38:12Z</time></trkpt><trkpt lat="36.8410056627156" lon="-108.20453903787403"><ele>1735.0</ele><time>2026-03-29T17:38:13Z</time></trkpt><trkpt lat="36.840963236055806" lon="-108.20465020980805"><ele>1734.0</ele><time>2026-03-29T17:38:14Z</time></trkpt><trkpt lat="36.84097290697104" lon="-108.20475230532199"><ele>1732.8333333333333</ele><time>2026-03-29T17:38:15Z</time></trkpt><trkpt lat="36.841021521266796" lon="-108.20484313879052"><ele>1731.6666666666665</ele><time>2026-03-29T17:38:16Z</time></trkpt><trkpt lat="36.84103915950213" lon="-108.20492963768015"><ele>1730.5</ele><time>2026-03-29T17:38:17Z</time></trkpt><trkpt lat="36.84100690512097" lon="-108.20504275511281"><ele>1729.3333333333333</ele><time>2026-03-29T17:38:18Z</time></trkpt><trkpt lat="36.84096767799748" lon="-108.20514395833406"><ele>1728.1666666666665</ele><time>2026-03-29T17:38:19Z</time></trkpt><trkpt lat="36.840959878290214" lon="-108.20525895453693"><ele>1727.0</ele><time>2026-03-29T17:38:20Z</time></trkpt><trkpt lat="36.84095118780819" lon="-108.20540674731888"><ele>1727.0</ele><time>2026-03-29T17:38:21Z</time></trkpt><trkpt lat="36.84090855722186" lon="-108.20557544520413"><ele>1727.0</ele><time>2026-03-29T17:38:22Z</time></trkpt><trkpt lat="36.84086194890849" lon="-108.20573384565377"><ele>1727.0</ele><time>2026-03-29T17:38:23Z</time></trkpt><trkpt lat="36.84085108318615" lon="-108.20584891968346"><ele>1727.0</ele><time>2026-03-29T17:38:24Z</time></trkpt><trkpt lat="36.84085742965838" lon="-108.20597131021451"><ele>1726.3333333333333</ele><time>2026-03-29T17:38:25Z</time></trkpt><trkpt lat="36.84085391238251" lon="-108.20610580323553"><ele>1725.6666666666665</ele><time>2026-03-29T17:38:26Z</time></trkpt><trkpt lat="36.84084549326749" lon="-108.20619893316278"><ele>1725.0</ele><time>2026-03-29T17:38:27Z</time></trkpt><trkpt lat="36.84081223804397" lon="-108.2062723802513"><ele>1724.3333333333335</ele><time>2026-03-29T17:38:28Z</time></trkpt><trkpt lat="36.840756247150736" lon="-108.20633410781785"><ele>1723.6666666666667</ele><time>2026-03-29T17:38:29Z</time></trkpt><trkpt lat="36.8406893872932" lon="-108.20635861568262"><ele>1723.0</ele><time>2026-03-29T17:38:30Z</time></trkpt><trkpt lat="36.840625690567514" lon="-108.20639616108369"><ele>1722.2</ele><time>2026-03-29T17:38:31Z</time></trkpt><trkpt lat="36.84059038083336" lon="-108.20652490281117"><ele>1721.4</ele><time>2026-03-29T17:38:33Z</time></trkpt><trkpt lat="36.84062723728853" lon="-108.2066009149757"><ele>1720.6000000000001</ele><time>2026-03-29T17:38:34Z</time></trkpt><trkpt lat="36.840683796656656" lon="-108.20667623893961"><ele>1719.8000000000002</ele><time>2026-03-29T17:38:35Z</time></trkpt><trkpt lat="36.840720812393535" lon="-108.20677047707605"><ele>1719.0</ele><time>2026-03-29T17:38:36Z</time></trkpt><trkpt lat="36.84066742640046" lon="-108.20689621991481"><ele>1719.0</ele><time>2026-03-29T17:38:38Z</time></trkpt><trkpt lat="36.840579246185385" lon="-108.20697752146702"><ele>1719.0</ele><time>2026-03-29T17:38:50Z</time></trkpt><trkpt lat="36.84051503690415" lon="-108.20703932314987"><ele>1719.0</ele><time>2026-03-29T17:38:51Z</time></trkpt><trkpt lat="36.84045624739531" lon="-108.20709755047157"><ele>1719.0</ele><time>2026-03-29T17:38:52Z</time></trkpt><trkpt lat="36.840387133488335" lon="-108.20722024195852"><ele>1719.0</ele><time>2026-03-29T17:38:54Z</time></trkpt><trkpt lat="36.8403663900809" lon="-108.20731003354615"><ele>1718.3333333333333</ele><time>2026-03-29T17:38:55Z</time></trkpt><trkpt lat="36.84032902954615" lon="-108.207384615785"><ele>1717.6666666666665</ele><time>2026-03-29T17:38:56Z</time></trkpt><trkpt lat="36.84026362403736" lon="-108.20742432286221"><ele>1717.0</ele><time>2026-03-29T17:38:57Z</time></trkpt><trkpt lat="36.84019386921793" lon="-108.20745624662638"><ele>1716.3333333333333</ele><time>2026-03-29T17:38:58Z</time></trkpt><trkpt lat="36.84013927007967" lon="-108.20750970609842"><ele>1715.6666666666665</ele><time>2026-03-29T17:38:59Z</time></trkpt><trkpt lat="36.840110541317266" lon="-108.20758439329045"><ele>1715.0</ele><time>2026-03-29T17:39:00Z</time></trkpt><trkpt lat="36.8401484353938" lon="-108.20778617315177"><ele>1714.9999999999998</ele><time>2026-03-29T17:39:02Z</time></trkpt><trkpt lat="36.8401937696134" lon="-108.2078887177334"><ele>1715.0</ele><time>2026-03-29T17:39:03Z</time></trkpt><trkpt lat="36.840226255104255" lon="-108.20796225315816"><ele>1715.0</ele><time>2026-03-29T17:39:04Z</time></trkpt><trkpt lat="36.84024413843263" lon="-108.20803791078059"><ele>1715.0</ele><time>2026-03-29T17:39:05Z</time></trkpt><trkpt lat="36.840263266229" lon="-108.20812057263137"><ele>1714.9999999999998</ele><time>2026-03-29T17:39:06Z</time></trkpt><trkpt lat="36.84033046492702" lon="-108.20818801585358"><ele>1715.0</ele><time>2026-03-29T17:39:07Z</time></trkpt><trkpt lat="36.840403322257245" lon="-108.20823990897728"><ele>1715.0</ele><time>2026-03-29T17:39:08Z</time></trkpt><trkpt lat="36.84050806934313" lon="-108.20826586874387"><ele>1715.0</ele><time>2026-03-29T17:39:09Z</time></trkpt><trkpt lat="36.84061731064781" lon="-108.20828564689194"><ele>1715.0</ele><time>2026-03-29T17:39:10Z</time></trkpt><trkpt lat="36.84072070063368" lon="-108.20825464171286"><ele>1715.0</ele><time>2026-03-29T17:39:11Z</time></trkpt><trkpt lat="36.84083853904758" lon="-108.20820292429453"><ele>1715.0</ele><time>2026-03-29T17:39:12Z</time></trkpt><trkpt lat="36.840967112013296" lon="-108.20814470629975"><ele>1715.75</ele><time>2026-03-29T17:39:13Z</time></trkpt><trkpt lat="36.84108402022454" lon="-108.20806591700358"><ele>1716.5</ele><time>2026-03-29T17:39:14Z</time></trkpt><trkpt lat="36.8412033183852" lon="-108.20797524145519"><ele>1717.25</ele><time>2026-03-29T17:39:15Z</time></trkpt><trkpt lat="36.84130141013392" lon="-108.20786733216018"><ele>1718.0</ele><time>2026-03-29T17:39:16Z</time></trkpt><trkpt lat="36.8414099549485" lon="-108.20774729159966"><ele>1718.0</ele><time>2026-03-29T17:39:17Z</time></trkpt><trkpt lat="36.84152412109173" lon="-108.20760576728368"><ele>1718.0</ele><time>2026-03-29T17:39:18Z</time></trkpt><trkpt lat="36.84164316111126" lon="-108.2074712359026"><ele>1718.0</ele><time>2026-03-29T17:39:19Z</time></trkpt><trkpt lat="36.84178428008074" lon="-108.20734099638548"><ele>1718.3333333333333</ele><time>2026-03-29T17:39:20Z</time></trkpt><trkpt lat="36.84192873852001" lon="-108.20720597156246"><ele>1718.6666666666665</ele><time>2026-03-29T17:39:21Z</time></trkpt><trkpt lat="36.8420620562883" lon="-108.20705886972276"><ele>1719.0</ele><time>2026-03-29T17:39:22Z</time></trkpt><trkpt lat="36.84218139918211" lon="-108.2069023394222"><ele>1719.0</ele><time>2026-03-29T17:39:23Z</time></trkpt><trkpt lat="36.84227523481806" lon="-108.20675917566479"><ele>1719.0</ele><time>2026-03-29T17:39:24Z</time></trkpt><trkpt lat="36.84234419201445" lon="-108.20663081627622"><ele>1719.0</ele><time>2026-03-29T17:39:25Z</time></trkpt><trkpt lat="36.84238641281078" lon="-108.20648662294475"><ele>1719.0</ele><time>2026-03-29T17:39:26Z</time></trkpt><trkpt lat="36.84240242783487" lon="-108.20631890014415"><ele>1719.6666666666665</ele><time>2026-03-29T17:39:27Z</time></trkpt><trkpt lat="36.842389807621856" lon="-108.20612839940648"><ele>1720.3333333333333</ele><time>2026-03-29T17:39:28Z</time></trkpt><trkpt lat="36.84236153670393" lon="-108.20594021109733"><ele>1721.0</ele><time>2026-03-29T17:39:29Z</time></trkpt><trkpt lat="36.84234762916021" lon="-108.20575123775141"><ele>1721.6666666666665</ele><time>2026-03-29T17:39:30Z</time></trkpt><trkpt lat="36.842361439662895" lon="-108.20554027092787"><ele>1722.3333333333335</ele><time>2026-03-29T17:39:31Z</time></trkpt><trkpt lat="36.84237383011635" lon="-108.20532321137492"><ele>1723.0</ele><time>2026-03-29T17:39:32Z</time></trkpt><trkpt lat="36.842398171128025" lon="-108.2051096405744"><ele>1723.0</ele><time>2026-03-29T17:39:33Z</time></trkpt><trkpt lat="36.84244917766418" lon="-108.20489053168464"><ele>1723.0</ele><time>2026-03-29T17:39:34Z</time></trkpt><trkpt lat="36.8425281543524" lon="-108.20467523143289"><ele>1723.0</ele><time>2026-03-29T17:39:35Z</time></trkpt><trkpt lat="36.84262110486521" lon="-108.20446453419932"><ele>1723.6666666666667</ele><time>2026-03-29T17:39:36Z</time></trkpt><trkpt lat="36.842733290270566" lon="-108.20426206659337"><ele>1724.3333333333335</ele><time>2026-03-29T17:39:37Z</time></trkpt><trkpt lat="36.84285143620976" lon="-108.2040692417105"><ele>1725.0</ele><time>2026-03-29T17:39:38Z</time></trkpt><trkpt lat="36.84295848889666" lon="-108.20389178170494"><ele>1726.3333333333335</ele><time>2026-03-29T17:39:39Z</time></trkpt><trkpt lat="36.84305213397037" lon="-108.20373032565448"><ele>1727.6666666666667</ele><time>2026-03-29T17:39:40Z</time></trkpt><trkpt lat="36.84312878436355" lon="-108.20356465485352"><ele>1729.0</ele><time>2026-03-29T17:39:41Z</time></trkpt><trkpt lat="36.8431917347113" lon="-108.20338018300863"><ele>1729.0</ele><time>2026-03-29T17:39:42Z</time></trkpt><trkpt lat="36.843230353301216" lon="-108.2031778964352"><ele>1729.0</ele><time>2026-03-29T17:39:43Z</time></trkpt><trkpt lat="36.84323003912605" lon="-108.20295626910193"><ele>1729.0</ele><time>2026-03-29T17:39:44Z</time></trkpt><trkpt lat="36.84322438938591" lon="-108.2027328844746"><ele>1730.0</ele><time>2026-03-29T17:39:45Z</time></trkpt><trkpt lat="36.84323402753134" lon="-108.20249314989033"><ele>1731.0</ele><time>2026-03-29T17:39:46Z</time></trkpt><trkpt lat="36.84323496118018" lon="-108.20224967189317"><ele>1732.0</ele><time>2026-03-29T17:39:47Z</time></trkpt><trkpt lat="36.84322759068611" lon="-108.20202306374844"><ele>1732.6666666666667</ele><time>2026-03-29T17:39:48Z</time></trkpt><trkpt lat="36.84320985712197" lon="-108.20181789875248"><ele>1733.3333333333335</ele><time>2026-03-29T17:39:49Z</time></trkpt><trkpt lat="36.843196434005414" lon="-108.20158461220772"><ele>1734.0</ele><time>2026-03-29T17:39:50Z</time></trkpt><trkpt lat="36.84318378367501" lon="-108.20133969444102"><ele>1734.3333333333335</ele><time>2026-03-29T17:39:51Z</time></trkpt><trkpt lat="36.84318325859267" lon="-108.20109265865302"><ele>1734.6666666666667</ele><time>2026-03-29T17:39:52Z</time></trkpt><trkpt lat="36.84318132119871" lon="-108.20083852004004"><ele>1735.0</ele><time>2026-03-29T17:39:53Z</time></trkpt><trkpt lat="36.84318387977719" lon="-108.20060039422545"><ele>1735.3333333333335</ele><time>2026-03-29T17:39:54Z</time></trkpt><trkpt lat="36.84316530056482" lon="-108.20035811500163"><ele>1735.6666666666665</ele><time>2026-03-29T17:39:55Z</time></trkpt><trkpt lat="36.8431316806037" lon="-108.20014383225472"><ele>1736.0</ele><time>2026-03-29T17:39:56Z</time></trkpt><trkpt lat="36.84307793370263" lon="-108.19992634771961"><ele>1735.6666666666665</ele><time>2026-03-29T17:39:57Z</time></trkpt><trkpt lat="36.843055377549724" lon="-108.19967978809923"><ele>1735.3333333333335</ele><time>2026-03-29T17:39:58Z</time></trkpt><trkpt lat="36.843053011698004" lon="-108.19944537435512"><ele>1735.0</ele><time>2026-03-29T17:39:59Z</time></trkpt><trkpt lat="36.843059332881616" lon="-108.19922298363323"><ele>1735.0</ele><time>2026-03-29T17:40:00Z</time></trkpt><trkpt lat="36.8430954677388" lon="-108.19904069089193"><ele>1735.0</ele><time>2026-03-29T17:40:01Z</time></trkpt><trkpt lat="36.84316354728668" lon="-108.19888571783373"><ele>1735.0</ele><time>2026-03-29T17:40:02Z</time></trkpt><trkpt lat="36.84326255733843" lon="-108.19872937750691"><ele>1735.6666666666667</ele><time>2026-03-29T17:40:03Z</time></trkpt><trkpt lat="36.84336800756989" lon="-108.19858583178265"><ele>1736.3333333333335</ele><time>2026-03-29T17:40:04Z</time></trkpt><trkpt lat="36.843464870231244" lon="-108.19841935842896"><ele>1737.0</ele><time>2026-03-29T17:40:05Z</time></trkpt><trkpt lat="36.843552595144416" lon="-108.19822813571679"><ele>1737.6666666666665</ele><time>2026-03-29T17:40:06Z</time></trkpt><trkpt lat="36.84362479093753" lon="-108.19805246571894"><ele>1738.3333333333333</ele><time>2026-03-29T17:40:07Z</time></trkpt><trkpt lat="36.84367582237958" lon="-108.19786623263175"><ele>1739.0</ele><time>2026-03-29T17:40:08Z</time></trkpt><trkpt lat="36.843706134074374" lon="-108.19765887392198"><ele>1739.0</ele><time>2026-03-29T17:40:09Z</time></trkpt><trkpt lat="36.84373573216827" lon="-108.19745245448259"><ele>1739.0</ele><time>2026-03-29T17:40:10Z</time></trkpt><trkpt lat="36.84378228032909" lon="-108.19726290846651"><ele>1739.0</ele><time>2026-03-29T17:40:11Z</time></trkpt><trkpt lat="36.84385090282792" lon="-108.1970835745848"><ele>1740.3333333333333</ele><time>2026-03-29T17:40:12Z</time></trkpt><trkpt lat="36.843908226926146" lon="-108.19689861756832"><ele>1741.6666666666665</ele><time>2026-03-29T17:40:13Z</time></trkpt><trkpt lat="36.84397862549858" lon="-108.19669694741971"><ele>1743.0</ele><time>2026-03-29T17:40:14Z</time></trkpt><trkpt lat="36.84405491723309" lon="-108.19648908085044"><ele>1743.0</ele><time>2026-03-29T17:40:15Z</time></trkpt><trkpt lat="36.844126776562035" lon="-108.19627492055795"><ele>1743.0</ele><time>2026-03-29T17:40:16Z</time></trkpt><trkpt lat="36.84418217160716" lon="-108.19604835939718"><ele>1743.0</ele><time>2026-03-29T17:40:17Z</time></trkpt><trkpt lat="36.84422339806872" lon="-108.19581427381308"><ele>1743.6666666666665</ele><time>2026-03-29T17:40:18Z</time></trkpt><trkpt lat="36.84425037830213" lon="-108.1955912768941"><ele>1744.3333333333333</ele><time>2026-03-29T17:40:19Z</time></trkpt><trkpt lat="36.844272730956185" lon="-108.19538242795409"><ele>1745.0</ele><time>2026-03-29T17:40:20Z</time></trkpt><trkpt lat="36.844284137112666" lon="-108.19518109715999"><ele>1745.0</ele><time>2026-03-29T17:40:21Z</time></trkpt><trkpt lat="36.844278569166796" lon="-108.19495805751528"><ele>1745.0</ele><time>2026-03-29T17:40:22Z</time></trkpt><trkpt lat="36.844277292029986" lon="-108.19472056969316"><ele>1745.0</ele><time>2026-03-29T17:40:23Z</time></trkpt><trkpt lat="36.84431203099339" lon="-108.19449435536535"><ele>1746.3333333333333</ele><time>2026-03-29T17:40:24Z</time></trkpt><trkpt lat="36.844359833503134" lon="-108.19425904352589"><ele>1747.6666666666665</ele><time>2026-03-29T17:40:25Z</time></trkpt><trkpt lat="36.844419979242794" lon="-108.19408289901986"><ele>1749.0</ele><time>2026-03-29T17:40:26Z</time></trkpt><trkpt lat="36.8444833637541" lon="-108.19394248534526"><ele>1749.25</ele><time>2026-03-29T17:40:27Z</time></trkpt><trkpt lat="36.84454843870434" lon="-108.19378456686681"><ele>1749.5</ele><time>2026-03-29T17:40:28Z</time></trkpt><trkpt lat="36.844614420022964" lon="-108.19361802332512"><ele>1749.75</ele><time>2026-03-29T17:40:29Z</time></trkpt><trkpt lat="36.84465531702662" lon="-108.19346340254094"><ele>1750.0</ele><time>2026-03-29T17:40:30Z</time></trkpt><trkpt lat="36.84468145222292" lon="-108.19328446166327"><ele>1750.6666666666667</ele><time>2026-03-29T17:40:31Z</time></trkpt><trkpt lat="36.844694095751855" lon="-108.1931064558374"><ele>1751.3333333333335</ele><time>2026-03-29T17:40:32Z</time></trkpt><trkpt lat="36.84470323659694" lon="-108.19291004193015"><ele>1752.0</ele><time>2026-03-29T17:40:33Z</time></trkpt><trkpt lat="36.84472975370236" lon="-108.19271744901356"><ele>1752.0</ele><time>2026-03-29T17:40:34Z</time></trkpt><trkpt lat="36.84477617929078" lon="-108.19252503817319"><ele>1752.0</ele><time>2026-03-29T17:40:35Z</time></trkpt><trkpt lat="36.844821456404574" lon="-108.19232140603418"><ele>1752.0</ele><time>2026-03-29T17:40:36Z</time></trkpt><trkpt lat="36.84487566490907" lon="-108.19211608935247"><ele>1753.3333333333335</ele><time>2026-03-29T17:40:37Z</time></trkpt><trkpt lat="36.84494372058657" lon="-108.19190092626025"><ele>1754.6666666666667</ele><time>2026-03-29T17:40:38Z</time></trkpt><trkpt lat="36.84500449091826" lon="-108.19168532889621"><ele>1756.0</ele><time>2026-03-29T17:40:39Z</time></trkpt><trkpt lat="36.84504721522382" lon="-108.1914642848139"><ele>1757.0</ele><time>2026-03-29T17:40:40Z</time></trkpt><trkpt lat="36.845070749247675" lon="-108.19123581476133"><ele>1758.0</ele><time>2026-03-29T17:40:41Z</time></trkpt><trkpt lat="36.84508544135043" lon="-108.19100349149655"><ele>1759.0</ele><time>2026-03-29T17:40:42Z</time></trkpt><trkpt lat="36.845103045625656" lon="-108.19079268688769"><ele>1760.0</ele><time>2026-03-29T17:40:43Z</time></trkpt><trkpt lat="36.84514588833449" lon="-108.1905973888346"><ele>1761.0</ele><time>2026-03-29T17:40:44Z</time></trkpt><trkpt lat="36.84522105683213" lon="-108.19041304878702"><ele>1762.0</ele><time>2026-03-29T17:40:45Z</time></trkpt><trkpt lat="36.845332363410385" lon="-108.19023910974008"><ele>1762.0</ele><time>2026-03-29T17:40:46Z</time></trkpt><trkpt lat="36.84544998170781" lon="-108.19008809404892"><ele>1762.0</ele><time>2026-03-29T17:40:47Z</time></trkpt><trkpt lat="36.84557125269359" lon="-108.18992565492579"><ele>1762.0</ele><time>2026-03-29T17:40:48Z</time></trkpt><trkpt lat="36.84568205150568" lon="-108.18975427296465"><ele>1762.3333333333335</ele><time>2026-03-29T17:40:49Z</time></trkpt><trkpt lat="36.84579679622884" lon="-108.18958378182374"><ele>1762.6666666666665</ele><time>2026-03-29T17:40:50Z</time></trkpt><trkpt lat="36.84592237998611" lon="-108.18942309980265"><ele>1763.0</ele><time>2026-03-29T17:40:51Z</time></trkpt><trkpt lat="36.846049292501284" lon="-108.18928381817948"><ele>1763.6666666666665</ele><time>2026-03-29T17:40:52Z</time></trkpt><trkpt lat="36.84617352500164" lon="-108.18917824463833"><ele>1764.3333333333335</ele><time>2026-03-29T17:40:53Z</time></trkpt><trkpt lat="36.846320000323416" lon="-108.18909337319486"><ele>1765.0</ele><time>2026-03-29T17:40:54Z</time></trkpt><trkpt lat="36.84647826348964" lon="-108.18903112220852"><ele>1765.3333333333335</ele><time>2026-03-29T17:40:55Z</time></trkpt><trkpt lat="36.8466555753253" lon="-108.18896769965241"><ele>1765.6666666666665</ele><time>2026-03-29T17:40:56Z</time></trkpt><trkpt lat="36.84681796545799" lon="-108.18889092900075"><ele>1766.0</ele><time>2026-03-29T17:40:57Z</time></trkpt><trkpt lat="36.846975046060344" lon="-108.18876280211138"><ele>1766.3333333333333</ele><time>2026-03-29T17:40:58Z</time></trkpt><trkpt lat="36.84712965788613" lon="-108.18863547086873"><ele>1766.6666666666665</ele><time>2026-03-29T17:40:59Z</time></trkpt><trkpt lat="36.84728649667914" lon="-108.18849346629696"><ele>1767.0</ele><time>2026-03-29T17:41:00Z</time></trkpt><trkpt lat="36.847448189927" lon="-108.18835524013174"><ele>1767.0</ele><time>2026-03-29T17:41:01Z</time></trkpt><trkpt lat="36.847604645695355" lon="-108.1882280653523"><ele>1767.0</ele><time>2026-03-29T17:41:02Z</time></trkpt><trkpt lat="36.84775209261494" lon="-108.18810901649765"><ele>1767.0</ele><time>2026-03-29T17:41:03Z</time></trkpt><trkpt lat="36.84787773678667" lon="-108.18799244238188"><ele>1768.6666666666665</ele><time>2026-03-29T17:41:04Z</time></trkpt><trkpt lat="36.84799059753327" lon="-108.1878418250009"><ele>1770.3333333333333</ele><time>2026-03-29T17:41:05Z</time></trkpt><trkpt lat="36.84811688521466" lon="-108.1876771992002"><ele>1772.0</ele><time>2026-03-29T17:41:06Z</time></trkpt><trkpt lat="36.84824298460404" lon="-108.18750427015888"><ele>1772.0</ele><time>2026-03-29T17:41:07Z</time></trkpt><trkpt lat="36.84837687858904" lon="-108.18732501349545"><ele>1772.0</ele><time>2026-03-29T17:41:08Z</time></trkpt><trkpt lat="36.84850549687541" lon="-108.18715094194415"><ele>1772.0</ele><time>2026-03-29T17:41:09Z</time></trkpt><trkpt lat="36.848607815125426" lon="-108.18698619600819"><ele>1773.6666666666665</ele><time>2026-03-29T17:41:10Z</time></trkpt><trkpt lat="36.84868508901551" lon="-108.18680698770086"><ele>1775.3333333333335</ele><time>2026-03-29T17:41:11Z</time></trkpt><trkpt lat="36.848737629262146" lon="-108.18661407083219"><ele>1777.0</ele><time>2026-03-29T17:41:12Z</time></trkpt><trkpt lat="36.84879124385425" lon="-108.18639285145484"><ele>1777.0</ele><time>2026-03-29T17:41:13Z</time></trkpt><trkpt lat="36.848830106404904" lon="-108.18616679198858"><ele>1777.0</ele><time>2026-03-29T17:41:14Z</time></trkpt><trkpt lat="36.848883798849016" lon="-108.18594119778419"><ele>1777.0</ele><time>2026-03-29T17:41:15Z</time></trkpt><trkpt lat="36.84893900695366" lon="-108.18572674607"><ele>1776.6666666666667</ele><time>2026-03-29T17:41:16Z</time></trkpt><trkpt lat="36.848998157789346" lon="-108.18550903993571"><ele>1776.3333333333335</ele><time>2026-03-29T17:41:17Z</time></trkpt><trkpt lat="36.849045047208556" lon="-108.185297488331"><ele>1776.0</ele><time>2026-03-29T17:41:18Z</time></trkpt><trkpt lat="36.849118846941295" lon="-108.18513788176858"><ele>1776.0</ele><time>2026-03-29T17:41:19Z</time></trkpt><trkpt lat="36.84922749076959" lon="-108.1849821683583"><ele>1776.0</ele><time>2026-03-29T17:41:20Z</time></trkpt><trkpt lat="36.849366898178474" lon="-108.18483510827527"><ele>1776.0</ele><time>2026-03-29T17:41:21Z</time></trkpt><trkpt lat="36.84950368244634" lon="-108.18468290465952"><ele>1776.3333333333335</ele><time>2026-03-29T17:41:22Z</time></trkpt><trkpt lat="36.84964362781272" lon="-108.18451213062023"><ele>1776.6666666666667</ele><time>2026-03-29T17:41:23Z</time></trkpt><trkpt lat="36.84976717186008" lon="-108.1843276399753"><ele>1777.0</ele><time>2026-03-29T17:41:24Z</time></trkpt><trkpt lat="36.84988496050865" lon="-108.18414472056891"><ele>1778.0</ele><time>2026-03-29T17:41:25Z</time></trkpt><trkpt lat="36.850009368240045" lon="-108.18397047450635"><ele>1779.0</ele><time>2026-03-29T17:41:26Z</time></trkpt><trkpt lat="36.850153321560754" lon="-108.18381045080588"><ele>1780.0</ele><time>2026-03-29T17:41:27Z</time></trkpt><trkpt lat="36.850300443106136" lon="-108.18362916912714"><ele>1780.3333333333335</ele><time>2026-03-29T17:41:28Z</time></trkpt><trkpt lat="36.85044709102914" lon="-108.18343882358234"><ele>1780.6666666666665</ele><time>2026-03-29T17:41:29Z</time></trkpt><trkpt lat="36.850596356876025" lon="-108.18323985359609"><ele>1781.0</ele><time>2026-03-29T17:41:30Z</time></trkpt><trkpt lat="36.85073058924599" lon="-108.1830465186475"><ele>1782.0</ele><time>2026-03-29T17:41:31Z</time></trkpt><trkpt lat="36.850847770520176" lon="-108.18284949434545"><ele>1783.0</ele><time>2026-03-29T17:41:32Z</time></trkpt><trkpt lat="36.85095573189542" lon="-108.18262942602003"><ele>1784.0</ele><time>2026-03-29T17:41:33Z</time></trkpt><trkpt lat="36.85107819547952" lon="-108.18240165647136"><ele>1784.6666666666665</ele><time>2026-03-29T17:41:34Z</time></trkpt><trkpt lat="36.85121426362657" lon="-108.18218872012439"><ele>1785.3333333333335</ele><time>2026-03-29T17:41:35Z</time></trkpt><trkpt lat="36.851303429513365" lon="-108.18195278994746"><ele>1786.0</ele><time>2026-03-29T17:41:36Z</time></trkpt><trkpt lat="36.85135103625424" lon="-108.18172547156044"><ele>1786.0</ele><time>2026-03-29T17:41:37Z</time></trkpt><trkpt lat="36.85135579242652" lon="-108.18152097089411"><ele>1786.0</ele><time>2026-03-29T17:41:38Z</time></trkpt><trkpt lat="36.85131119982615" lon="-108.1813215657156"><ele>1786.0</ele><time>2026-03-29T17:41:39Z</time></trkpt><trkpt lat="36.851237632240654" lon="-108.18112118088149"><ele>1787.0</ele><time>2026-03-29T17:41:40Z</time></trkpt><trkpt lat="36.851173713053235" lon="-108.18090713103099"><ele>1788.0</ele><time>2026-03-29T17:41:41Z</time></trkpt><trkpt lat="36.85116701111619" lon="-108.18066476160365"><ele>1789.0</ele><time>2026-03-29T17:41:42Z</time></trkpt><trkpt lat="36.85117204847388" lon="-108.18041712757804"><ele>1789.0</ele><time>2026-03-29T17:41:43Z</time></trkpt><trkpt lat="36.85116025196861" lon="-108.1801862803417"><ele>1789.0</ele><time>2026-03-29T17:41:44Z</time></trkpt><trkpt lat="36.85114226515923" lon="-108.1799687725321"><ele>1789.0</ele><time>2026-03-29T17:41:45Z</time></trkpt><trkpt lat="36.85113197336471" lon="-108.17977842350984"><ele>1789.4</ele><time>2026-03-29T17:41:46Z</time></trkpt><trkpt lat="36.85112266015286" lon="-108.17964549529556"><ele>1789.8000000000002</ele><time>2026-03-29T17:41:47Z</time></trkpt><trkpt lat="36.85113760116945" lon="-108.17954072745968"><ele>1790.1999999999998</ele><time>2026-03-29T17:41:48Z</time></trkpt><trkpt lat="36.85116681602518" lon="-108.1794298960346"><ele>1790.6</ele><time>2026-03-29T17:41:49Z</time></trkpt><trkpt lat="36.85121898612656" lon="-108.17933082871146"><ele>1791.0</ele><time>2026-03-29T17:41:50Z</time></trkpt><trkpt lat="36.85131491380376" lon="-108.17927754086882"><ele>1791.0</ele><time>2026-03-29T17:41:51Z</time></trkpt><trkpt lat="36.85143302987732" lon="-108.179252768356"><ele>1791.0</ele><time>2026-03-29T17:41:52Z</time></trkpt><trkpt lat="36.851566978631965" lon="-108.1792404805243"><ele>1791.0</ele><time>2026-03-29T17:41:53Z</time></trkpt><trkpt lat="36.85169847551997" lon="-108.17921406661985"><ele>1791.0</ele><time>2026-03-29T17:41:54Z</time></trkpt><trkpt lat="36.85182461573416" lon="-108.17918593819871"><ele>1791.6</ele><time>2026-03-29T17:41:55Z</time></trkpt><trkpt lat="36.85191265626306" lon="-108.17915934066005"><ele>1792.1999999999998</ele><time>2026-03-29T17:41:56Z</time></trkpt><trkpt lat="36.851973379686584" lon="-108.17907232658582"><ele>1792.8000000000002</ele><time>2026-03-29T17:41:57Z</time></trkpt><trkpt lat="36.85204913180676" lon="-108.17895987494126"><ele>1793.4</ele><time>2026-03-29T17:41:58Z</time></trkpt><trkpt lat="36.85215625383572" lon="-108.17886170230541"><ele>1794.0</ele><time>2026-03-29T17:41:59Z</time></trkpt><trkpt lat="36.852235592963005" lon="-108.17878073210703"><ele>1794.2</ele><time>2026-03-29T17:42:00Z</time></trkpt><trkpt lat="36.85233603450134" lon="-108.17872176878619"><ele>1794.4</ele><time>2026-03-29T17:42:01Z</time></trkpt><trkpt lat="36.85245861002353" lon="-108.1786844353247"><ele>1794.6</ele><time>2026-03-29T17:42:02Z</time></trkpt><trkpt lat="36.85255227371476" lon="-108.17863240967893"><ele>1794.8</ele><time>2026-03-29T17:42:03Z</time></trkpt><trkpt lat="36.85261496729172" lon="-108.17855775205105"><ele>1795.0</ele><time>2026-03-29T17:42:04Z</time></trkpt><trkpt lat="36.8526570168737" lon="-108.1784206136714"><ele>1795.75</ele><time>2026-03-29T17:42:05Z</time></trkpt><trkpt lat="36.85272293727732" lon="-108.17828922999571"><ele>1796.5</ele><time>2026-03-29T17:42:06Z</time></trkpt><trkpt lat="36.85281429213199" lon="-108.17814919398039"><ele>1797.25</ele><time>2026-03-29T17:42:07Z</time></trkpt><trkpt lat="36.85286262747418" lon="-108.17801679668857"><ele>1798.0</ele><time>2026-03-29T17:42:08Z</time></trkpt><trkpt lat="36.85292003518614" lon="-108.17790472589573"><ele>1798.25</ele><time>2026-03-29T17:42:09Z</time></trkpt><trkpt lat="36.85299842672136" lon="-108.17784611665984"><ele>1798.5</ele><time>2026-03-29T17:42:10Z</time></trkpt><trkpt lat="36.853115286186295" lon="-108.17783939198061"><ele>1798.75</ele><time>2026-03-29T17:42:11Z</time></trkpt><trkpt lat="36.853245552136684" lon="-108.1778499580155"><ele>1799.0</ele><time>2026-03-29T17:42:12Z</time></trkpt><trkpt lat="36.85335932843837" lon="-108.17782791430753"><ele>1799.0</ele><time>2026-03-29T17:42:13Z</time></trkpt><trkpt lat="36.853422101791644" lon="-108.177797738529"><ele>1799.0</ele><time>2026-03-29T17:42:14Z</time></trkpt><trkpt lat="36.85349228595612" lon="-108.1776641991834"><ele>1799.0</ele><time>2026-03-29T17:42:16Z</time></trkpt><trkpt lat="36.853507954967256" lon="-108.17755544660228"><ele>1799.0</ele><time>2026-03-29T17:42:17Z</time></trkpt><trkpt lat="36.85352512669467" lon="-108.17742040109947"><ele>1799.0</ele><time>2026-03-29T17:42:18Z</time></trkpt><trkpt lat="36.853564697700364" lon="-108.17729399761089"><ele>1799.8000000000002</ele><time>2026-03-29T17:42:19Z</time></trkpt><trkpt lat="36.85357664415988" lon="-108.17716588717434"><ele>1800.6000000000001</ele><time>2026-03-29T17:42:20Z</time></trkpt><trkpt lat="36.853533657519485" lon="-108.17703880544448"><ele>1801.4</ele><time>2026-03-29T17:42:22Z</time></trkpt><trkpt lat="36.853535169423076" lon="-108.17695951087975"><ele>1802.2</ele><time>2026-03-29T17:42:23Z</time></trkpt><trkpt lat="36.85355324600419" lon="-108.17679416144435"><ele>1803.0</ele><time>2026-03-29T17:42:25Z</time></trkpt><trkpt lat="36.853591313615496" lon="-108.17671174207285"><ele>1803.0</ele><time>2026-03-29T17:42:26Z</time></trkpt><trkpt lat="36.853617439233744" lon="-108.17662308156618"><ele>1803.0</ele><time>2026-03-29T17:42:27Z</time></trkpt><trkpt lat="36.853588618783256" lon="-108.17651727887542"><ele>1803.0</ele><time>2026-03-29T17:42:28Z</time></trkpt><trkpt lat="36.85356804604449" lon="-108.17642104823581"><ele>1803.0</ele><time>2026-03-29T17:42:29Z</time></trkpt><trkpt lat="36.85354999479147" lon="-108.17631425782733"><ele>1803.0</ele><time>2026-03-29T17:42:30Z</time></trkpt><trkpt lat="36.85351508668731" lon="-108.17623372279574"><ele>1803.0</ele><time>2026-03-29T17:42:31Z</time></trkpt><trkpt lat="36.85347973893283" lon="-108.17610620990854"><ele>1803.2</ele><time>2026-03-29T17:42:33Z</time></trkpt><trkpt lat="36.85352667923827" lon="-108.17602005540033"><ele>1803.4</ele><time>2026-03-29T17:42:34Z</time></trkpt><trkpt lat="36.853582315481425" lon="-108.17591990741151"><ele>1803.6000000000001</ele><time>2026-03-29T17:42:35Z</time></trkpt><trkpt lat="36.85364026751" lon="-108.17580399446746"><ele>1803.8000000000002</ele><time>2026-03-29T17:42:36Z</time></trkpt><trkpt lat="36.853687509839496" lon="-108.17569076086862"><ele>1804.0</ele><time>2026-03-29T17:42:37Z</time></trkpt><trkpt lat="36.85373053530799" lon="-108.1756037426359"><ele>1804.6</ele><time>2026-03-29T17:42:38Z</time></trkpt><trkpt lat="36.85379464770416" lon="-108.17554179353947"><ele>1805.2</ele><time>2026-03-29T17:42:39Z</time></trkpt><trkpt lat="36.85387213136768" lon="-108.17546170020994"><ele>1805.7999999999997</ele><time>2026-03-29T17:42:40Z</time></trkpt><trkpt lat="36.853936315951564" lon="-108.1753784874651"><ele>1806.3999999999999</ele><time>2026-03-29T17:42:41Z</time></trkpt><trkpt lat="36.85401379013969" lon="-108.17527893092799"><ele>1807.0</ele><time>2026-03-29T17:42:42Z</time></trkpt><trkpt lat="36.8540939267239" lon="-108.17519139443218"><ele>1807.0</ele><time>2026-03-29T17:42:43Z</time></trkpt><trkpt lat="36.85415986343628" lon="-108.17514010771362"><ele>1806.9999999999998</ele><time>2026-03-29T17:42:44Z</time></trkpt><trkpt lat="36.854195248330356" lon="-108.1750672529994"><ele>1806.9999999999998</ele><time>2026-03-29T17:42:45Z</time></trkpt><trkpt lat="36.854235563949466" lon="-108.1749442014156"><ele>1807.0</ele><time>2026-03-29T17:42:46Z</time></trkpt><trkpt lat="36.85431523488627" lon="-108.17485949432405"><ele>1807.0</ele><time>2026-03-29T17:42:47Z</time></trkpt><trkpt lat="36.85440457670347" lon="-108.17481606847981"><ele>1807.3999999999999</ele><time>2026-03-29T17:42:48Z</time></trkpt><trkpt lat="36.85450839997389" lon="-108.17477140324314"><ele>1807.7999999999997</ele><time>2026-03-29T17:42:49Z</time></trkpt><trkpt lat="36.85461280769932" lon="-108.17471144372702"><ele>1808.2</ele><time>2026-03-29T17:42:50Z</time></trkpt><trkpt lat="36.854698649997125" lon="-108.17466538408134"><ele>1808.6</ele><time>2026-03-29T17:42:51Z</time></trkpt><trkpt lat="36.85476564880686" lon="-108.17461748051227"><ele>1809.0</ele><time>2026-03-29T17:42:52Z</time></trkpt><trkpt lat="36.85479052072181" lon="-108.17452163698445"><ele>1809.0</ele><time>2026-03-29T17:42:53Z</time></trkpt><trkpt lat="36.85480256091007" lon="-108.17439285360072"><ele>1809.0</ele><time>2026-03-29T17:42:54Z</time></trkpt><trkpt lat="36.85480046507378" lon="-108.17428221837407"><ele>1809.0</ele><time>2026-03-29T17:42:55Z</time></trkpt><trkpt lat="36.85481147482991" lon="-108.17417797528796"><ele>1809.0</ele><time>2026-03-29T17:42:56Z</time></trkpt><trkpt lat="36.85484494832118" lon="-108.17410062414965"><ele>1809.0</ele><time>2026-03-29T17:42:57Z</time></trkpt><trkpt lat="36.854870610047776" lon="-108.17401005935794"><ele>1809.0</ele><time>2026-03-29T17:42:58Z</time></trkpt><trkpt lat="36.854867504786995" lon="-108.17389007350296"><ele>1810.0</ele><time>2026-03-29T17:42:59Z</time></trkpt><trkpt lat="36.85491299702738" lon="-108.17377825266604"><ele>1811.0</ele><time>2026-03-29T17:43:00Z</time></trkpt><trkpt lat="36.85497587652416" lon="-108.17364788455103"><ele>1812.0</ele><time>2026-03-29T17:43:01Z</time></trkpt><trkpt lat="36.855050211071074" lon="-108.17352491994386"><ele>1813.0</ele><time>2026-03-29T17:43:02Z</time></trkpt><trkpt lat="36.855117394322086" lon="-108.17338414433092"><ele>1813.2</ele><time>2026-03-29T17:43:03Z</time></trkpt><trkpt lat="36.85516601667095" lon="-108.173245096861"><ele>1813.4</ele><time>2026-03-29T17:43:04Z</time></trkpt><trkpt lat="36.85520012702513" lon="-108.17312704915204"><ele>1813.6000000000001</ele><time>2026-03-29T17:43:05Z</time></trkpt><trkpt lat="36.855239282833985" lon="-108.17302168869614"><ele>1813.8000000000002</ele><time>2026-03-29T17:43:06Z</time></trkpt><trkpt lat="36.855292154013675" lon="-108.17295048836395"><ele>1814.0</ele><time>2026-03-29T17:43:07Z</time></trkpt><trkpt lat="36.85536894507123" lon="-108.17290745577948"><ele>1814.2</ele><time>2026-03-29T17:43:08Z</time></trkpt><trkpt lat="36.85547197462733" lon="-108.17287248098114"><ele>1814.4</ele><time>2026-03-29T17:43:09Z</time></trkpt><trkpt lat="36.85558858465903" lon="-108.1728678366713"><ele>1814.6</ele><time>2026-03-29T17:43:10Z</time></trkpt><trkpt lat="36.855698999460785" lon="-108.17284259787877"><ele>1814.8</ele><time>2026-03-29T17:43:11Z</time></trkpt><trkpt lat="36.855786133610366" lon="-108.17281133643158"><ele>1815.0</ele><time>2026-03-29T17:43:12Z</time></trkpt><trkpt lat="36.8558739317228" lon="-108.17276811364174"><ele>1815.6</ele><time>2026-03-29T17:43:13Z</time></trkpt><trkpt lat="36.85599372768805" lon="-108.17273825381497"><ele>1816.2</ele><time>2026-03-29T17:43:14Z</time></trkpt><trkpt lat="36.856100169263506" lon="-108.17269338040495"><ele>1816.8000000000002</ele><time>2026-03-29T17:43:15Z</time></trkpt><trkpt lat="36.85614623628533" lon="-108.17263124079065"><ele>1817.4</ele><time>2026-03-29T17:43:16Z</time></trkpt><trkpt lat="36.856179493655816" lon="-108.17253120386006"><ele>1818.0</ele><time>2026-03-29T17:43:17Z</time></trkpt><trkpt lat="36.85620529718695" lon="-108.17236343297098"><ele>1818.5</ele><time>2026-03-29T17:43:18Z</time></trkpt><trkpt lat="36.856265600311076" lon="-108.17220709135175"><ele>1819.0</ele><time>2026-03-29T17:43:19Z</time></trkpt><trkpt lat="36.85632174850009" lon="-108.17207831994358"><ele>1819.5</ele><time>2026-03-29T17:43:20Z</time></trkpt><trkpt lat="36.85637152701785" lon="-108.17190327671489"><ele>1820.0</ele><time>2026-03-29T17:43:21Z</time></trkpt><trkpt lat="36.856414073148805" lon="-108.17174955888655"><ele>1820.0</ele><time>2026-03-29T17:43:22Z</time></trkpt><trkpt lat="36.856436152395354" lon="-108.17159569457718"><ele>1820.0</ele><time>2026-03-29T17:43:23Z</time></trkpt><trkpt lat="36.85649014974428" lon="-108.17144470191091"><ele>1820.0</ele><time>2026-03-29T17:43:24Z</time></trkpt><trkpt lat="36.856560702453514" lon="-108.17129727860957"><ele>1820.0</ele><time>2026-03-29T17:43:25Z</time></trkpt><trkpt lat="36.85659857969495" lon="-108.17115717815702"><ele>1820.6</ele><time>2026-03-29T17:43:26Z</time></trkpt><trkpt lat="36.85661356652868" lon="-108.1710368586011"><ele>1821.2</ele><time>2026-03-29T17:43:27Z</time></trkpt><trkpt lat="36.856680204905395" lon="-108.17093985399696"><ele>1821.8000000000002</ele><time>2026-03-29T17:43:28Z</time></trkpt><trkpt lat="36.85674774145022" lon="-108.17082979259749"><ele>1822.4</ele><time>2026-03-29T17:43:29Z</time></trkpt><trkpt lat="36.85677052412627" lon="-108.17070727911245"><ele>1823.0</ele><time>2026-03-29T17:43:30Z</time></trkpt><trkpt lat="36.8567916383344" lon="-108.17055242986147"><ele>1823.75</ele><time>2026-03-29T17:43:31Z</time></trkpt><trkpt lat="36.85681554345631" lon="-108.1704117069367"><ele>1824.5</ele><time>2026-03-29T17:43:32Z</time></trkpt><trkpt lat="36.85686420357425" lon="-108.17025009598431"><ele>1825.25</ele><time>2026-03-29T17:43:33Z</time></trkpt><trkpt lat="36.85691879878161" lon="-108.17008673973893"><ele>1826.0</ele><time>2026-03-29T17:43:34Z</time></trkpt><trkpt lat="36.85694956067442" lon="-108.16993875520131"><ele>1826.8</ele><time>2026-03-29T17:43:35Z</time></trkpt><trkpt lat="36.85695497040337" lon="-108.16980254822741"><ele>1827.6</ele><time>2026-03-29T17:43:36Z</time></trkpt><trkpt lat="36.856923664704205" lon="-108.16969358816155"><ele>1828.4</ele><time>2026-03-29T17:43:37Z</time></trkpt><trkpt lat="36.85685859319016" lon="-108.16958276276766"><ele>1829.2</ele><time>2026-03-29T17:43:38Z</time></trkpt><trkpt lat="36.85677298309516" lon="-108.1694724733332"><ele>1830.0</ele><time>2026-03-29T17:43:39Z</time></trkpt><trkpt lat="36.856731553535646" lon="-108.1693481378717"><ele>1830.0</ele><time>2026-03-29T17:43:40Z</time></trkpt><trkpt lat="36.85672508211389" lon="-108.16924004127301"><ele>1830.0</ele><time>2026-03-29T17:43:41Z</time></trkpt><trkpt lat="36.85674128253482" lon="-108.16913858060781"><ele>1830.0</ele><time>2026-03-29T17:43:42Z</time></trkpt><trkpt lat="36.856675677222114" lon="-108.16906631609845"><ele>1830.0</ele><time>2026-03-29T17:43:44Z</time></trkpt><trkpt lat="36.85658255801756" lon="-108.16899190982983"><ele>1830.0</ele><time>2026-03-29T17:43:46Z</time></trkpt><trkpt lat="36.85656903985177" lon="-108.16882297115298"><ele>1830.6666666666667</ele><time>2026-03-29T17:43:48Z</time></trkpt><trkpt lat="36.856607602665655" lon="-108.16871378395759"><ele>1831.3333333333335</ele><time>2026-03-29T17:43:49Z</time></trkpt><trkpt lat="36.85665106723991" lon="-108.16860794096162"><ele>1832.0</ele><time>2026-03-29T17:43:50Z</time></trkpt><trkpt lat="36.85665827002487" lon="-108.16851982725191"><ele>1832.6666666666667</ele><time>2026-03-29T17:43:51Z</time></trkpt><trkpt lat="36.85671701607269" lon="-108.16846197320275"><ele>1833.3333333333335</ele><time>2026-03-29T17:43:52Z</time></trkpt><trkpt lat="36.85672197005804" lon="-108.1683335137577"><ele>1834.0</ele><time>2026-03-29T17:43:54Z</time></trkpt><trkpt lat="36.856693324527306" lon="-108.16824875104011"><ele>1834.5000000000002</ele><time>2026-03-29T17:43:55Z</time></trkpt><trkpt lat="36.85672306465424" lon="-108.16812623057022"><ele>1835.0</ele><time>2026-03-29T17:43:56Z</time></trkpt><trkpt lat="36.85674915254691" lon="-108.16801641929837"><ele>1835.5</ele><time>2026-03-29T17:43:57Z</time></trkpt><trkpt lat="36.85676095632379" lon="-108.1679056977905"><ele>1836.0</ele><time>2026-03-29T17:43:58Z</time></trkpt><trkpt lat="36.856758676208976" lon="-108.16781306645325"><ele>1836.5000000000002</ele><time>2026-03-29T17:43:59Z</time></trkpt><trkpt lat="36.85670159625872" lon="-108.16776405993238"><ele>1837.0</ele><time>2026-03-29T17:44:00Z</time></trkpt><trkpt lat="36.85667391120497" lon="-108.16768678710362"><ele>1837.0000000000002</ele><time>2026-03-29T17:44:01Z</time></trkpt><trkpt lat="36.85673273487239" lon="-108.1676546746141"><ele>1837.0</ele><time>2026-03-29T17:44:02Z</time></trkpt><trkpt lat="36.856796919516235" lon="-108.16761834155623"><ele>1837.0</ele><time>2026-03-29T17:44:03Z</time></trkpt><trkpt lat="36.856807402292446" lon="-108.16753891667241"><ele>1837.0</ele><time>2026-03-29T17:44:04Z</time></trkpt><trkpt lat="36.85680597770512" lon="-108.16742034583652"><ele>1837.0000000000002</ele><time>2026-03-29T17:44:05Z</time></trkpt><trkpt lat="36.85680539581073" lon="-108.16730680766582"><ele>1837.0</ele><time>2026-03-29T17:44:06Z</time></trkpt><trkpt lat="36.856754986210554" lon="-108.1671987511466"><ele>1837.3999999999999</ele><time>2026-03-29T17:44:07Z</time></trkpt><trkpt lat="36.8567208011861" lon="-108.16707381831324"><ele>1837.7999999999997</ele><time>2026-03-29T17:44:08Z</time></trkpt><trkpt lat="36.85671548616117" lon="-108.16697983521982"><ele>1838.2</ele><time>2026-03-29T17:44:09Z</time></trkpt><trkpt lat="36.856698802241894" lon="-108.16688005440515"><ele>1838.6</ele><time>2026-03-29T17:44:10Z</time></trkpt><trkpt lat="36.856760474244695" lon="-108.16675117380528"><ele>1839.0</ele><time>2026-03-29T17:44:12Z</time></trkpt><trkpt lat="36.85682061058573" lon="-108.16666927957682"><ele>1839.6</ele><time>2026-03-29T17:44:13Z</time></trkpt><trkpt lat="36.856829043102074" lon="-108.16658627524862"><ele>1840.2</ele><time>2026-03-29T17:44:14Z</time></trkpt><trkpt lat="36.856788593009945" lon="-108.16650227710049"><ele>1840.7999999999997</ele><time>2026-03-29T17:44:15Z</time></trkpt><trkpt lat="36.85670622143457" lon="-108.16642587730922"><ele>1841.3999999999999</ele><time>2026-03-29T17:44:16Z</time></trkpt><trkpt lat="36.85662718385648" lon="-108.16637025409325"><ele>1842.0</ele><time>2026-03-29T17:44:17Z</time></trkpt><trkpt lat="36.85659266430553" lon="-108.16622576853474"><ele>1842.0</ele><time>2026-03-29T17:44:19Z</time></trkpt><trkpt lat="36.8566141272632" lon="-108.16612028477327"><ele>1842.0</ele><time>2026-03-29T17:44:20Z</time></trkpt><trkpt lat="36.85664974864334" lon="-108.16602996761435"><ele>1842.0</ele><time>2026-03-29T17:44:21Z</time></trkpt><trkpt lat="36.856621109997235" lon="-108.1658944694001"><ele>1842.0</ele><time>2026-03-29T17:44:23Z</time></trkpt><trkpt lat="36.856555540255854" lon="-108.16584985488521"><ele>1842.0</ele><time>2026-03-29T17:44:24Z</time></trkpt><trkpt lat="36.85647920092155" lon="-108.16582400288794"><ele>1842.0</ele><time>2026-03-29T17:44:25Z</time></trkpt><trkpt lat="36.85641385595854" lon="-108.16574302664019"><ele>1842.3999999999999</ele><time>2026-03-29T17:44:26Z</time></trkpt><trkpt lat="36.85636057483302" lon="-108.16562528626541"><ele>1842.7999999999997</ele><time>2026-03-29T17:44:27Z</time></trkpt><trkpt lat="36.856322761246176" lon="-108.16553052930261"><ele>1843.2</ele><time>2026-03-29T17:44:28Z</time></trkpt><trkpt lat="36.85627723850176" lon="-108.16542879988762"><ele>1843.6</ele><time>2026-03-29T17:44:29Z</time></trkpt><trkpt lat="36.8562366905633" lon="-108.16532109099028"><ele>1844.0</ele><time>2026-03-29T17:44:30Z</time></trkpt><trkpt lat="36.856205949568334" lon="-108.16521283871707"><ele>1844.0</ele><time>2026-03-29T17:44:31Z</time></trkpt><trkpt lat="36.85617959918692" lon="-108.16510849277927"><ele>1844.0</ele><time>2026-03-29T17:44:32Z</time></trkpt><trkpt lat="36.856155330817934" lon="-108.1650086662256"><ele>1844.0</ele><time>2026-03-29T17:44:33Z</time></trkpt><trkpt lat="36.85612896651309" lon="-108.16492193029475"><ele>1844.0</ele><time>2026-03-29T17:44:35Z</time></trkpt><trkpt lat="36.85625506952257" lon="-108.16488051368775"><ele>1844.0</ele><time>2026-03-29T17:44:37Z</time></trkpt><trkpt lat="36.85633302453983" lon="-108.1648833615735"><ele>1843.9999999999998</ele><time>2026-03-29T17:44:38Z</time></trkpt><trkpt lat="36.85641015299577" lon="-108.16489931482866"><ele>1844.0</ele><time>2026-03-29T17:44:39Z</time></trkpt><trkpt lat="36.856479748627805" lon="-108.1648662238623"><ele>1844.0</ele><time>2026-03-29T17:44:40Z</time></trkpt><trkpt lat="36.85655966719266" lon="-108.16484272342383"><ele>1844.0</ele><time>2026-03-29T17:44:41Z</time></trkpt><trkpt lat="36.85664964730615" lon="-108.1648419177383"><ele>1843.9999999999998</ele><time>2026-03-29T17:44:42Z</time></trkpt><trkpt lat="36.85671382150077" lon="-108.16483814035662"><ele>1844.0</ele><time>2026-03-29T17:44:43Z</time></trkpt><trkpt lat="36.8567870295172" lon="-108.16487345020761"><ele>1843.8333333333333</ele><time>2026-03-29T17:44:45Z</time></trkpt><trkpt lat="36.856874063126746" lon="-108.16483688569237"><ele>1843.6666666666665</ele><time>2026-03-29T17:44:47Z</time></trkpt><trkpt lat="36.856949106265226" lon="-108.1648345963988"><ele>1843.5</ele><time>2026-03-29T17:44:48Z</time></trkpt><trkpt lat="36.857028476690544" lon="-108.1648567781814"><ele>1843.3333333333335</ele><time>2026-03-29T17:44:49Z</time></trkpt><trkpt lat="36.857097065003174" lon="-108.16485263577044"><ele>1843.1666666666667</ele><time>2026-03-29T17:44:50Z</time></trkpt><trkpt lat="36.85721945843489" lon="-108.16485500827227"><ele>1843.0</ele><time>2026-03-29T17:44:52Z</time></trkpt><trkpt lat="36.85732897249089" lon="-108.16486481798235"><ele>1843.0000000000002</ele><time>2026-03-29T17:44:54Z</time></trkpt><trkpt lat="36.857408077651804" lon="-108.16487263566556"><ele>1843.0</ele><time>2026-03-29T17:44:55Z</time></trkpt><trkpt lat="36.857490684468786" lon="-108.16485099677459"><ele>1843.0</ele><time>2026-03-29T17:44:56Z</time></trkpt><trkpt lat="36.85756186596721" lon="-108.16487678521425"><ele>1843.0</ele><time>2026-03-29T17:44:57Z</time></trkpt><trkpt lat="36.85767085979491" lon="-108.16492623033525"><ele>1843.0000000000002</ele><time>2026-03-29T17:44:59Z</time></trkpt><trkpt lat="36.857739260587316" lon="-108.16492514746182"><ele>1843.0</ele><time>2026-03-29T17:45:00Z</time></trkpt><trkpt lat="36.85780789409135" lon="-108.16488272963616"><ele>1843.1666666666667</ele><time>2026-03-29T17:45:01Z</time></trkpt><trkpt lat="36.85787600042468" lon="-108.16484165256625"><ele>1843.3333333333335</ele><time>2026-03-29T17:45:02Z</time></trkpt><trkpt lat="36.85796562324803" lon="-108.1648462383865"><ele>1843.5</ele><time>2026-03-29T17:45:03Z</time></trkpt><trkpt lat="36.8580507728171" lon="-108.16488244076345"><ele>1843.6666666666665</ele><time>2026-03-29T17:45:04Z</time></trkpt><trkpt lat="36.858139282040305" lon="-108.16490611758053"><ele>1843.8333333333333</ele><time>2026-03-29T17:45:05Z</time></trkpt><trkpt lat="36.85821967024092" lon="-108.16490904653367"><ele>1844.0</ele><time>2026-03-29T17:45:06Z</time></trkpt><trkpt lat="36.85828584695977" lon="-108.16491731499491"><ele>1843.8000000000002</ele><time>2026-03-29T17:45:07Z</time></trkpt><trkpt lat="36.858381480619286" lon="-108.16494545066257"><ele>1843.6000000000001</ele><time>2026-03-29T17:45:09Z</time></trkpt><trkpt lat="36.85849670863874" lon="-108.16497305983314"><ele>1843.4</ele><time>2026-03-29T17:45:11Z</time></trkpt><trkpt lat="36.85856366831707" lon="-108.16496304428794"><ele>1843.2</ele><time>2026-03-29T17:45:12Z</time></trkpt><trkpt lat="36.858629134272306" lon="-108.16491859645959"><ele>1843.0</ele><time>2026-03-29T17:45:13Z</time></trkpt><trkpt lat="36.858756391974275" lon="-108.16486413564184"><ele>1843.0000000000002</ele><time>2026-03-29T17:45:15Z</time></trkpt><trkpt lat="36.85884367107011" lon="-108.16483803564586"><ele>1843.0</ele><time>2026-03-29T17:45:16Z</time></trkpt><trkpt lat="36.85894749628039" lon="-108.16482910264598"><ele>1843.0</ele><time>2026-03-29T17:45:17Z</time></trkpt><trkpt lat="36.859012068883374" lon="-108.16487069571178"><ele>1843.0</ele><time>2026-03-29T17:45:18Z</time></trkpt><trkpt lat="36.85905644282784" lon="-108.16492696501389"><ele>1843.0000000000002</ele><time>2026-03-29T17:45:19Z</time></trkpt><trkpt lat="36.85915606057318" lon="-108.16499245463268"><ele>1843.0</ele><time>2026-03-29T17:45:21Z</time></trkpt><trkpt lat="36.85919471929892" lon="-108.16507961003212"><ele>1843.0000000000002</ele><time>2026-03-29T17:45:22Z</time></trkpt><trkpt lat="36.85922505795447" lon="-108.1651577603643"><ele>1843.0</ele><time>2026-03-29T17:45:23Z</time></trkpt><trkpt lat="36.85927326646704" lon="-108.16522182449471"><ele>1843.0</ele><time>2026-03-29T17:45:24Z</time></trkpt><trkpt lat="36.8593367291096" lon="-108.16522863029964"><ele>1843.0</ele><time>2026-03-29T17:45:25Z</time></trkpt><trkpt lat="36.859462986345925" lon="-108.16524425660272"><ele>1843.0000000000002</ele><time>2026-03-29T17:45:27Z</time></trkpt><trkpt lat="36.859550228129926" lon="-108.1652448000299"><ele>1843.0</ele><time>2026-03-29T17:45:29Z</time></trkpt><trkpt lat="36.85961081091667" lon="-108.16521428950273"><ele>1842.6666666666667</ele><time>2026-03-29T17:45:30Z</time></trkpt><trkpt lat="36.85973799393078" lon="-108.16524248694236"><ele>1842.3333333333335</ele><time>2026-03-29T17:45:32Z</time></trkpt><trkpt lat="36.859800331166966" lon="-108.16525505683288"><ele>1842.0</ele><time>2026-03-29T17:45:33Z</time></trkpt><trkpt lat="36.8598748383012" lon="-108.16526199146116"><ele>1841.6666666666665</ele><time>2026-03-29T17:45:34Z</time></trkpt><trkpt lat="36.85995170865227" lon="-108.16522650135616"><ele>1841.3333333333333</ele><time>2026-03-29T17:45:35Z</time></trkpt><trkpt lat="36.860020780243524" lon="-108.16517206684578"><ele>1841.0</ele><time>2026-03-29T17:45:36Z</time></trkpt><trkpt lat="36.86008727456057" lon="-108.16514853377984"><ele>1839.1999999999998</ele><time>2026-03-29T17:45:37Z</time></trkpt><trkpt lat="36.860201678446515" lon="-108.16514997650604"><ele>1837.3999999999999</ele><time>2026-03-29T17:45:39Z</time></trkpt><trkpt lat="36.860277213467796" lon="-108.16517635181056"><ele>1835.6</ele><time>2026-03-29T17:45:40Z</time></trkpt><trkpt lat="36.86036582894867" lon="-108.16518020417708"><ele>1833.8</ele><time>2026-03-29T17:45:41Z</time></trkpt><trkpt lat="36.860440879089786" lon="-108.16517481457248"><ele>1832.0</ele><time>2026-03-29T17:45:42Z</time></trkpt><trkpt lat="36.860576024458425" lon="-108.16513985499414"><ele>1831.9999999999998</ele><time>2026-03-29T17:45:44Z</time></trkpt><trkpt lat="36.86065942436938" lon="-108.1651312420344"><ele>1832.0</ele><time>2026-03-29T17:45:45Z</time></trkpt><trkpt lat="36.860743160618945" lon="-108.16515834496603"><ele>1832.0</ele><time>2026-03-29T17:45:46Z</time></trkpt><trkpt lat="36.86082956480421" lon="-108.16519598703279"><ele>1832.0</ele><time>2026-03-29T17:45:47Z</time></trkpt><trkpt lat="36.860899125895926" lon="-108.16525169592599"><ele>1831.9999999999998</ele><time>2026-03-29T17:45:48Z</time></trkpt><trkpt lat="36.86096254580673" lon="-108.16530792173424"><ele>1832.0</ele><time>2026-03-29T17:45:49Z</time></trkpt><trkpt lat="36.86108113075261" lon="-108.16528518469845"><ele>1832.1666666666665</ele><time>2026-03-29T17:45:51Z</time></trkpt><trkpt lat="36.861127992421274" lon="-108.1651952443083"><ele>1832.3333333333333</ele><time>2026-03-29T17:45:53Z</time></trkpt><trkpt lat="36.86123954656355" lon="-108.16521682513086"><ele>1832.5</ele><time>2026-03-29T17:45:56Z</time></trkpt><trkpt lat="36.861297712687" lon="-108.16526138693179"><ele>1832.6666666666665</ele><time>2026-03-29T17:45:59Z</time></trkpt><trkpt lat="36.86137031865233" lon="-108.16529789800697"><ele>1832.8333333333333</ele><time>2026-03-29T17:46:01Z</time></trkpt><trkpt lat="36.86143229084803" lon="-108.16534326120563"><ele>1833.0</ele><time>2026-03-29T17:46:02Z</time></trkpt><trkpt lat="36.86161002350981" lon="-108.16536156220343"><ele>1833.0</ele><time>2026-03-29T17:46:03Z</time></trkpt><trkpt lat="36.86168016808116" lon="-108.16529630334719"><ele>1833.0</ele><time>2026-03-29T17:46:05Z</time></trkpt><trkpt lat="36.861773072597316" lon="-108.1652190128917"><ele>1833.0</ele><time>2026-03-29T17:46:07Z</time></trkpt><trkpt lat="36.86183140641332" lon="-108.16516859013925"><ele>1833.0</ele><time>2026-03-29T17:46:08Z</time></trkpt><trkpt lat="36.861889030591136" lon="-108.1651250993257"><ele>1833.0</ele><time>2026-03-29T17:46:09Z</time></trkpt><trkpt lat="36.86195135276525" lon="-108.16510613747573"><ele>1833.0</ele><time>2026-03-29T17:46:10Z</time></trkpt><trkpt lat="36.86206733342172" lon="-108.165043975928"><ele>1833.5</ele><time>2026-03-29T17:46:12Z</time></trkpt><trkpt lat="36.86213038254842" lon="-108.1650110862675"><ele>1834.0</ele><time>2026-03-29T17:46:13Z</time></trkpt><trkpt lat="36.86218812240215" lon="-108.16496831788277"><ele>1834.5</ele><time>2026-03-29T17:46:14Z</time></trkpt><trkpt lat="36.86226571943547" lon="-108.16487701064746"><ele>1835.0</ele><time>2026-03-29T17:46:16Z</time></trkpt><trkpt lat="36.86236239942768" lon="-108.1649135517412"><ele>1835.5</ele><time>2026-03-29T17:46:19Z</time></trkpt><trkpt lat="36.86240947947686" lon="-108.16499015131194"><ele>1836.0</ele><time>2026-03-29T17:46:20Z</time></trkpt><trkpt lat="36.862451199935734" lon="-108.16507200910074"><ele>1836.0</ele><time>2026-03-29T17:46:21Z</time></trkpt><trkpt lat="36.86250095011356" lon="-108.16512921731558"><ele>1836.0</ele><time>2026-03-29T17:46:22Z</time></trkpt><trkpt lat="36.862536451110124" lon="-108.16524986801205"><ele>1836.0</ele><time>2026-03-29T17:46:23Z</time></trkpt><trkpt lat="36.862611671221785" lon="-108.16534474815386"><ele>1836.0</ele><time>2026-03-29T17:46:25Z</time></trkpt><trkpt lat="36.862685567588976" lon="-108.16538675799339"><ele>1836.0</ele><time>2026-03-29T17:46:26Z</time></trkpt><trkpt lat="36.86274331233774" lon="-108.16544582553468"><ele>1836.0</ele><time>2026-03-29T17:46:27Z</time></trkpt><trkpt lat="36.86281770122584" lon="-108.16555609718105"><ele>1835.6</ele><time>2026-03-29T17:46:29Z</time></trkpt><trkpt lat="36.862893883508505" lon="-108.1656785896439"><ele>1835.1999999999998</ele><time>2026-03-29T17:46:31Z</time></trkpt><trkpt lat="36.862951509733215" lon="-108.16581817859681"><ele>1834.8000000000002</ele><time>2026-03-29T17:46:33Z</time></trkpt><trkpt lat="36.8629878153444" lon="-108.16589202993428"><ele>1834.4</ele><time>2026-03-29T17:46:34Z</time></trkpt><trkpt lat="36.863049829871215" lon="-108.16594034933965"><ele>1834.0</ele><time>2026-03-29T17:46:35Z</time></trkpt><trkpt lat="36.86311240661515" lon="-108.16597205474723"><ele>1834.0</ele><time>2026-03-29T17:46:36Z</time></trkpt><trkpt lat="36.86315496382502" lon="-108.16612812935243"><ele>1834.0</ele><time>2026-03-29T17:46:38Z</time></trkpt><trkpt lat="36.863144087160414" lon="-108.16623143621892"><ele>1834.0</ele><time>2026-03-29T17:46:39Z</time></trkpt><trkpt lat="36.86315090087298" lon="-108.16631636830371"><ele>1834.0</ele><time>2026-03-29T17:46:40Z</time></trkpt><trkpt lat="36.863239452744" lon="-108.16645473291099"><ele>1834.0</ele><time>2026-03-29T17:46:42Z</time></trkpt><trkpt lat="36.86329991838956" lon="-108.16653156234712"><ele>1834.3333333333335</ele><time>2026-03-29T17:46:43Z</time></trkpt><trkpt lat="36.86338230916631" lon="-108.16665821620175"><ele>1834.6666666666667</ele><time>2026-03-29T17:46:45Z</time></trkpt><trkpt lat="36.86342344961832" lon="-108.16673851833202"><ele>1835.0</ele><time>2026-03-29T17:46:46Z</time></trkpt><trkpt lat="36.863489733568336" lon="-108.1667864825758"><ele>1835.3333333333335</ele><time>2026-03-29T17:46:47Z</time></trkpt><trkpt lat="36.86356632855269" lon="-108.16680379094312"><ele>1835.6666666666667</ele><time>2026-03-29T17:46:48Z</time></trkpt><trkpt lat="36.86363364962858" lon="-108.16681003294997"><ele>1836.0</ele><time>2026-03-29T17:46:49Z</time></trkpt><trkpt lat="36.86371772354603" lon="-108.16677983769605"><ele>1834.6</ele><time>2026-03-29T17:46:50Z</time></trkpt><trkpt lat="36.86379109822976" lon="-108.16673424419251"><ele>1833.1999999999998</ele><time>2026-03-29T17:46:51Z</time></trkpt><trkpt lat="36.863848969987316" lon="-108.16664545093654"><ele>1831.8000000000002</ele><time>2026-03-29T17:46:53Z</time></trkpt><trkpt lat="36.86394486684278" lon="-108.16663744832145"><ele>1830.4</ele><time>2026-03-29T17:46:55Z</time></trkpt><trkpt lat="36.86402621000777" lon="-108.16658967732704"><ele>1829.0</ele><time>2026-03-29T17:46:57Z</time></trkpt><trkpt lat="36.864120893045936" lon="-108.16664507128613"><ele>1829.0</ele><time>2026-03-29T17:47:01Z</time></trkpt><trkpt lat="36.86419296308476" lon="-108.16669362287725"><ele>1829.0</ele><time>2026-03-29T17:47:04Z</time></trkpt><trkpt lat="36.86425939445377" lon="-108.16677684734375"><ele>1829.0</ele><time>2026-03-29T17:47:07Z</time></trkpt><trkpt lat="36.86433397574874" lon="-108.16680818900501"><ele>1829.0</ele><time>2026-03-29T17:47:08Z</time></trkpt><trkpt lat="36.8644426052664" lon="-108.16687257213702"><ele>1829.0</ele><time>2026-03-29T17:47:10Z</time></trkpt><trkpt lat="36.864552862662244" lon="-108.16692818903492"><ele>1826.8333333333333</ele><time>2026-03-29T17:47:12Z</time></trkpt><trkpt lat="36.864616555292194" lon="-108.16691272287441"><ele>1824.6666666666665</ele><time>2026-03-29T17:47:13Z</time></trkpt><trkpt lat="36.864680904961276" lon="-108.16687743833373"><ele>1822.5</ele><time>2026-03-29T17:47:14Z</time></trkpt><trkpt lat="36.86473784305501" lon="-108.16680946284482"><ele>1820.3333333333335</ele><time>2026-03-29T17:47:15Z</time></trkpt><trkpt lat="36.864789051898654" lon="-108.16675057815925"><ele>1818.1666666666667</ele><time>2026-03-29T17:47:16Z</time></trkpt><trkpt lat="36.864840987243724" lon="-108.16668738100844"><ele>1816.0</ele><time>2026-03-29T17:47:17Z</time></trkpt><trkpt lat="36.86493905608065" lon="-108.16660377966328"><ele>1816.0000000000002</ele><time>2026-03-29T17:47:19Z</time></trkpt><trkpt lat="36.86504552979604" lon="-108.1665791282542"><ele>1816.0</ele><time>2026-03-29T17:47:21Z</time></trkpt><trkpt lat="36.865108411650134" lon="-108.16656881213653"><ele>1816.0</ele><time>2026-03-29T17:47:22Z</time></trkpt><trkpt lat="36.86522660422904" lon="-108.1665766058603"><ele>1816.0</ele><time>2026-03-29T17:47:24Z</time></trkpt><trkpt lat="36.8653110183782" lon="-108.16659254303835"><ele>1816.0000000000002</ele><time>2026-03-29T17:47:25Z</time></trkpt><trkpt lat="36.865382202396674" lon="-108.16659646213422"><ele>1816.0</ele><time>2026-03-29T17:47:26Z</time></trkpt><trkpt lat="36.865464673953795" lon="-108.16649560918542"><ele>1815.0000000000002</ele><time>2026-03-29T17:47:28Z</time></trkpt><trkpt lat="36.865518979457306" lon="-108.16643202535667"><ele>1814.0</ele><time>2026-03-29T17:47:29Z</time></trkpt><trkpt lat="36.86561134180229" lon="-108.16640849954496"><ele>1813.0</ele><time>2026-03-29T17:47:30Z</time></trkpt><trkpt lat="36.865695672413935" lon="-108.16638925996814"><ele>1812.0</ele><time>2026-03-29T17:47:31Z</time></trkpt><trkpt lat="36.86576494750986" lon="-108.16637664920276"><ele>1811.0000000000002</ele><time>2026-03-29T17:47:32Z</time></trkpt><trkpt lat="36.86584880089988" lon="-108.16637293181726"><ele>1810.0</ele><time>2026-03-29T17:47:33Z</time></trkpt><trkpt lat="36.86594234068541" lon="-108.16636431792256"><ele>1809.8</ele><time>2026-03-29T17:47:34Z</time></trkpt><trkpt lat="36.86602394729074" lon="-108.16632985810973"><ele>1809.6</ele><time>2026-03-29T17:47:35Z</time></trkpt><trkpt lat="36.866122407081924" lon="-108.16629115061814"><ele>1809.4</ele><time>2026-03-29T17:47:36Z</time></trkpt><trkpt lat="36.866193665206495" lon="-108.16626575663753"><ele>1809.2</ele><time>2026-03-29T17:47:37Z</time></trkpt><trkpt lat="36.866312055434214" lon="-108.16623359025746"><ele>1809.0</ele><time>2026-03-29T17:47:39Z</time></trkpt><trkpt lat="36.86638580316374" lon="-108.16621509894316"><ele>1809.0</ele><time>2026-03-29T17:47:40Z</time></trkpt><trkpt lat="36.86646227625915" lon="-108.16621033319319"><ele>1809.0</ele><time>2026-03-29T17:47:41Z</time></trkpt><trkpt lat="36.86654152079801" lon="-108.16618513872093"><ele>1809.0</ele><time>2026-03-29T17:47:42Z</time></trkpt><trkpt lat="36.86663512929571" lon="-108.16614021987506"><ele>1809.0</ele><time>2026-03-29T17:47:43Z</time></trkpt><trkpt lat="36.86671873536211" lon="-108.16608626430879"><ele>1809.0</ele><time>2026-03-29T17:47:44Z</time></trkpt><trkpt lat="36.866820577713995" lon="-108.16602702944226"><ele>1809.2</ele><time>2026-03-29T17:47:45Z</time></trkpt><trkpt lat="36.86690708660462" lon="-108.16598275897144"><ele>1809.4</ele><time>2026-03-29T17:47:46Z</time></trkpt><trkpt lat="36.866989627321054" lon="-108.16592800784109"><ele>1809.6</ele><time>2026-03-29T17:47:48Z</time></trkpt><trkpt lat="36.867069771148884" lon="-108.16588864295731"><ele>1809.8</ele><time>2026-03-29T17:47:49Z</time></trkpt><trkpt lat="36.86717704111199" lon="-108.1658718053539"><ele>1810.0</ele><time>2026-03-29T17:47:50Z</time></trkpt><trkpt lat="36.86725318272471" lon="-108.16589029555412"><ele>1810.0</ele><time>2026-03-29T17:47:51Z</time></trkpt><trkpt lat="36.86740572630369" lon="-108.16590736568219"><ele>1810.0</ele><time>2026-03-29T17:47:53Z</time></trkpt><trkpt lat="36.867492977199284" lon="-108.16592763683428"><ele>1810.0</ele><time>2026-03-29T17:47:54Z</time></trkpt><trkpt lat="36.86762812134495" lon="-108.16599815773401"><ele>1810.0</ele><time>2026-03-29T17:47:56Z</time></trkpt><trkpt lat="36.86773811537823" lon="-108.16603170172557"><ele>1809.8333333333335</ele><time>2026-03-29T17:47:57Z</time></trkpt><trkpt lat="36.86785962291099" lon="-108.16605802040772"><ele>1809.6666666666667</ele><time>2026-03-29T17:47:59Z</time></trkpt><trkpt lat="36.86793571301696" lon="-108.16607654431238"><ele>1809.5</ele><time>2026-03-29T17:48:00Z</time></trkpt><trkpt lat="36.86801072501627" lon="-108.16610329144086"><ele>1809.3333333333335</ele><time>2026-03-29T17:48:01Z</time></trkpt><trkpt lat="36.86807654976542" lon="-108.16613534302881"><ele>1809.1666666666667</ele><time>2026-03-29T17:48:02Z</time></trkpt><trkpt lat="36.86813819985354" lon="-108.16615333311601"><ele>1809.0</ele><time>2026-03-29T17:48:03Z</time></trkpt><trkpt lat="36.86825180188014" lon="-108.16614223923882"><ele>1809.0</ele><time>2026-03-29T17:48:05Z</time></trkpt><trkpt lat="36.868386989767416" lon="-108.16611722161012"><ele>1809.0</ele><time>2026-03-29T17:48:07Z</time></trkpt><trkpt lat="36.86846490721753" lon="-108.1660977585929"><ele>1809.0</ele><time>2026-03-29T17:48:08Z</time></trkpt><trkpt lat="36.868537851541255" lon="-108.1660765150091"><ele>1809.0</ele><time>2026-03-29T17:48:09Z</time></trkpt><trkpt lat="36.86861100309809" lon="-108.1660760893805"><ele>1809.0</ele><time>2026-03-29T17:48:10Z</time></trkpt><trkpt lat="36.8686848777985" lon="-108.16609170215342"><ele>1809.0</ele><time>2026-03-29T17:48:11Z</time></trkpt><trkpt lat="36.868753127496596" lon="-108.16610929399539"><ele>1808.5</ele><time>2026-03-29T17:48:12Z</time></trkpt><trkpt lat="36.86882435758643" lon="-108.16610647323014"><ele>1808.0</ele><time>2026-03-29T17:48:13Z</time></trkpt><trkpt lat="36.868897218512906" lon="-108.16607939569616"><ele>1807.5</ele><time>2026-03-29T17:48:14Z</time></trkpt><trkpt lat="36.86895757358551" lon="-108.16604190112868"><ele>1807.0</ele><time>2026-03-29T17:48:15Z</time></trkpt><trkpt lat="36.869078636951414" lon="-108.16607369897156"><ele>1806.5</ele><time>2026-03-29T17:48:17Z</time></trkpt><trkpt lat="36.869147235267" lon="-108.16609391225755"><ele>1806.0</ele><time>2026-03-29T17:48:18Z</time></trkpt><trkpt lat="36.869223564510705" lon="-108.16609780789294"><ele>1806.0</ele><time>2026-03-29T17:48:19Z</time></trkpt><trkpt lat="36.869302395859975" lon="-108.16610869292226"><ele>1806.0</ele><time>2026-03-29T17:48:20Z</time></trkpt><trkpt lat="36.86938219528858" lon="-108.16613743086225"><ele>1806.0</ele><time>2026-03-29T17:48:21Z</time></trkpt><trkpt lat="36.869447635689575" lon="-108.16616338317277"><ele>1806.0</ele><time>2026-03-29T17:48:22Z</time></trkpt><trkpt lat="36.869557072620196" lon="-108.16612480141096"><ele>1806.0</ele><time>2026-03-29T17:48:24Z</time></trkpt><trkpt lat="36.869619554348674" lon="-108.1661151930836"><ele>1806.0</ele><time>2026-03-29T17:48:25Z</time></trkpt><trkpt lat="36.869746110962375" lon="-108.16616690745485"><ele>1806.0</ele><time>2026-03-29T17:48:27Z</time></trkpt><trkpt lat="36.86981036012317" lon="-108.16620324102504"><ele>1806.0</ele><time>2026-03-29T17:48:28Z</time></trkpt><trkpt lat="36.869872119993516" lon="-108.16623912506122"><ele>1806.0</ele><time>2026-03-29T17:48:29Z</time></trkpt><trkpt lat="36.86993374659072" lon="-108.16627798779513"><ele>1806.0</ele><time>2026-03-29T17:48:30Z</time></trkpt><trkpt lat="36.869992918120836" lon="-108.16630946540172"><ele>1806.0</ele><time>2026-03-29T17:48:31Z</time></trkpt><trkpt lat="36.870065006860614" lon="-108.16633768027745"><ele>1806.0</ele><time>2026-03-29T17:48:32Z</time></trkpt><trkpt lat="36.87014219773953" lon="-108.166386729608"><ele>1806.0</ele><time>2026-03-29T17:48:33Z</time></trkpt><trkpt lat="36.87022599436234" lon="-108.16644487181394"><ele>1806.1666666666667</ele><time>2026-03-29T17:48:34Z</time></trkpt><trkpt lat="36.870290984294435" lon="-108.16648622677572"><ele>1806.3333333333335</ele><time>2026-03-29T17:48:35Z</time></trkpt><trkpt lat="36.870361360826934" lon="-108.16649658789743"><ele>1806.5</ele><time>2026-03-29T17:48:36Z</time></trkpt><trkpt lat="36.870466674148275" lon="-108.16654173192056"><ele>1806.6666666666667</ele><time>2026-03-29T17:48:38Z</time></trkpt><trkpt lat="36.87057452658593" lon="-108.16649814912853"><ele>1806.8333333333335</ele><time>2026-03-29T17:48:40Z</time></trkpt><trkpt lat="36.87063936681699" lon="-108.16646123548705"><ele>1807.0</ele><time>2026-03-29T17:48:41Z</time></trkpt><trkpt lat="36.870717736278365" lon="-108.16646098779903"><ele>1806.3999999999999</ele><time>2026-03-29T17:48:42Z</time></trkpt><trkpt lat="36.87079616608865" lon="-108.16638733133476"><ele>1805.7999999999997</ele><time>2026-03-29T17:48:44Z</time></trkpt><trkpt lat="36.87086601320128" lon="-108.16634637829132"><ele>1805.2</ele><time>2026-03-29T17:48:46Z</time></trkpt><trkpt lat="36.87094624387092" lon="-108.16636003004494"><ele>1804.6</ele><time>2026-03-29T17:48:47Z</time></trkpt><trkpt lat="36.87102575108736" lon="-108.16636908226488"><ele>1804.0</ele><time>2026-03-29T17:48:48Z</time></trkpt><trkpt lat="36.871148372166445" lon="-108.16637628137846"><ele>1803.8000000000002</ele><time>2026-03-29T17:48:50Z</time></trkpt><trkpt lat="36.87125970182793" lon="-108.16635322306978"><ele>1803.6000000000001</ele><time>2026-03-29T17:48:52Z</time></trkpt><trkpt lat="36.87136041419379" lon="-108.16645893812453"><ele>1803.4</ele><time>2026-03-29T17:48:54Z</time></trkpt><trkpt lat="36.87142514107671" lon="-108.16646471909635"><ele>1803.2</ele><time>2026-03-29T17:48:55Z</time></trkpt><trkpt lat="36.871495902362504" lon="-108.16641036621773"><ele>1803.0</ele><time>2026-03-29T17:48:56Z</time></trkpt><trkpt lat="36.87156309368603" lon="-108.16637171927931"><ele>1803.0</ele><time>2026-03-29T17:48:57Z</time></trkpt><trkpt lat="36.87166798065705" lon="-108.16636729714786"><ele>1803.0</ele><time>2026-03-29T17:48:59Z</time></trkpt><trkpt lat="36.87172153658056" lon="-108.16643443156744"><ele>1803.0</ele><time>2026-03-29T17:49:01Z</time></trkpt><trkpt lat="36.87183148056665" lon="-108.16640939833056"><ele>1803.0</ele><time>2026-03-29T17:49:03Z</time></trkpt><trkpt lat="36.87189997817985" lon="-108.1664071443869"><ele>1803.0</ele><time>2026-03-29T17:49:04Z</time></trkpt><trkpt lat="36.87196810871814" lon="-108.16639440779115"><ele>1803.0</ele><time>2026-03-29T17:49:05Z</time></trkpt><trkpt lat="36.87208452867427" lon="-108.1664062286473"><ele>1803.0</ele><time>2026-03-29T17:49:07Z</time></trkpt><trkpt lat="36.87219699881697" lon="-108.16640903924957"><ele>1803.0000000000002</ele><time>2026-03-29T17:49:09Z</time></trkpt><trkpt lat="36.87229276746881" lon="-108.16650794070053"><ele>1803.0000000000002</ele><time>2026-03-29T17:49:11Z</time></trkpt><trkpt lat="36.87239325180637" lon="-108.16659126162376"><ele>1803.0</ele><time>2026-03-29T17:49:13Z</time></trkpt><trkpt lat="36.87245282959767" lon="-108.16663597117355"><ele>1803.0</ele><time>2026-03-29T17:49:14Z</time></trkpt><trkpt lat="36.87250826494572" lon="-108.1666827472098"><ele>1803.0</ele><time>2026-03-29T17:49:15Z</time></trkpt><trkpt lat="36.87257565822188" lon="-108.16673056527463"><ele>1803.0</ele><time>2026-03-29T17:49:16Z</time></trkpt><trkpt lat="36.87264008436264" lon="-108.16679216738538"><ele>1803.0</ele><time>2026-03-29T17:49:17Z</time></trkpt><trkpt lat="36.872768983495995" lon="-108.16684698728386"><ele>1803.0</ele><time>2026-03-29T17:49:19Z</time></trkpt><trkpt lat="36.872824808547826" lon="-108.16688915384593"><ele>1803.0</ele><time>2026-03-29T17:49:20Z</time></trkpt><trkpt lat="36.87288125863874" lon="-108.16693314612489"><ele>1803.0</ele><time>2026-03-29T17:49:22Z</time></trkpt><trkpt lat="36.87299244023125" lon="-108.16684092807763"><ele>1802.3333333333333</ele><time>2026-03-29T17:49:24Z</time></trkpt><trkpt lat="36.87305062734178" lon="-108.1668722683035"><ele>1801.6666666666665</ele><time>2026-03-29T17:49:25Z</time></trkpt><trkpt lat="36.87312110594213" lon="-108.16685923286913"><ele>1801.0</ele><time>2026-03-29T17:49:26Z</time></trkpt><trkpt lat="36.87320590016375" lon="-108.16681874017776"><ele>1800.3333333333333</ele><time>2026-03-29T17:49:27Z</time></trkpt><trkpt lat="36.87328584282829" lon="-108.16679339446802"><ele>1799.6666666666665</ele><time>2026-03-29T17:49:28Z</time></trkpt><trkpt lat="36.873345122056705" lon="-108.16674091940592"><ele>1799.0</ele><time>2026-03-29T17:49:29Z</time></trkpt><trkpt lat="36.87340205970471" lon="-108.16658617481777"><ele>1798.1666666666665</ele><time>2026-03-29T17:49:31Z</time></trkpt><trkpt lat="36.87345538380392" lon="-108.16653203276498"><ele>1797.3333333333333</ele><time>2026-03-29T17:49:32Z</time></trkpt><trkpt lat="36.87351060364851" lon="-108.16647653215999"><ele>1796.5</ele><time>2026-03-29T17:49:33Z</time></trkpt><trkpt lat="36.873579925526705" lon="-108.1664132812407"><ele>1795.6666666666665</ele><time>2026-03-29T17:49:34Z</time></trkpt><trkpt lat="36.87363765030381" lon="-108.16634875030672"><ele>1794.8333333333333</ele><time>2026-03-29T17:49:35Z</time></trkpt><trkpt lat="36.87369740035949" lon="-108.16626645743935"><ele>1794.0</ele><time>2026-03-29T17:49:36Z</time></trkpt><trkpt lat="36.87375057991341" lon="-108.16617937723764"><ele>1793.8333333333333</ele><time>2026-03-29T17:49:37Z</time></trkpt><trkpt lat="36.87382004993636" lon="-108.16612936242782"><ele>1793.6666666666665</ele><time>2026-03-29T17:49:38Z</time></trkpt><trkpt lat="36.873889672736176" lon="-108.16605615506148"><ele>1793.5</ele><time>2026-03-29T17:49:39Z</time></trkpt><trkpt lat="36.873943988830355" lon="-108.16596687519768"><ele>1793.3333333333333</ele><time>2026-03-29T17:49:40Z</time></trkpt><trkpt lat="36.87400643479507" lon="-108.16593115206261"><ele>1793.1666666666665</ele><time>2026-03-29T17:49:41Z</time></trkpt><trkpt lat="36.87408597294349" lon="-108.16595343918965"><ele>1793.0</ele><time>2026-03-29T17:49:42Z</time></trkpt><trkpt lat="36.87418722220666" lon="-108.1659687237024"><ele>1792.4999999999998</ele><time>2026-03-29T17:49:43Z</time></trkpt><trkpt lat="36.87427426393353" lon="-108.16595063806886"><ele>1792.0</ele><time>2026-03-29T17:49:44Z</time></trkpt><trkpt lat="36.87434372771387" lon="-108.16594257361342"><ele>1791.5</ele><time>2026-03-29T17:49:45Z</time></trkpt><trkpt lat="36.874432432229256" lon="-108.16595057153891"><ele>1791.0</ele><time>2026-03-29T17:49:46Z</time></trkpt><trkpt lat="36.87453280373294" lon="-108.16597671014038"><ele>1790.4999999999998</ele><time>2026-03-29T17:49:47Z</time></trkpt><trkpt lat="36.874600587673825" lon="-108.16596747768855"><ele>1790.0</ele><time>2026-03-29T17:49:48Z</time></trkpt><trkpt lat="36.874645260578774" lon="-108.16588587184447"><ele>1790.0</ele><time>2026-03-29T17:49:49Z</time></trkpt><trkpt lat="36.874685331632705" lon="-108.16579343175567"><ele>1790.0</ele><time>2026-03-29T17:49:50Z</time></trkpt><trkpt lat="36.87473790703925" lon="-108.16573276483166"><ele>1790.0</ele><time>2026-03-29T17:49:51Z</time></trkpt><trkpt lat="36.87478918172239" lon="-108.16568302071764"><ele>1790.0</ele><time>2026-03-29T17:49:52Z</time></trkpt><trkpt lat="36.87482071025361" lon="-108.16560469724651"><ele>1790.0</ele><time>2026-03-29T17:49:53Z</time></trkpt><trkpt lat="36.87485347254283" lon="-108.16551743016055"><ele>1790.0</ele><time>2026-03-29T17:49:54Z</time></trkpt><trkpt lat="36.874906549636805" lon="-108.16544434416629"><ele>1790.0</ele><time>2026-03-29T17:49:55Z</time></trkpt><trkpt lat="36.87495391344937" lon="-108.16537288091793"><ele>1789.4999999999998</ele><time>2026-03-29T17:49:56Z</time></trkpt><trkpt lat="36.874997669115665" lon="-108.16529953820502"><ele>1789.0</ele><time>2026-03-29T17:49:57Z</time></trkpt><trkpt lat="36.875096758724744" lon="-108.16521486164271"><ele>1788.5</ele><time>2026-03-29T17:49:59Z</time></trkpt><trkpt lat="36.875163991946195" lon="-108.16518602670803"><ele>1788.0</ele><time>2026-03-29T17:50:00Z</time></trkpt><trkpt lat="36.875216447423554" lon="-108.16512292674483"><ele>1787.4999999999998</ele><time>2026-03-29T17:50:01Z</time></trkpt><trkpt lat="36.87529099428" lon="-108.1650908168963"><ele>1787.0</ele><time>2026-03-29T17:50:02Z</time></trkpt><trkpt lat="36.87537978307457" lon="-108.16506131539975"><ele>1786.8333333333333</ele><time>2026-03-29T17:50:03Z</time></trkpt><trkpt lat="36.87546335511823" lon="-108.16502011528748"><ele>1786.6666666666665</ele><time>2026-03-29T17:50:04Z</time></trkpt><trkpt lat="36.875518579161124" lon="-108.16494571058016"><ele>1786.5</ele><time>2026-03-29T17:50:05Z</time></trkpt><trkpt lat="36.87558272638846" lon="-108.16486650646917"><ele>1786.3333333333335</ele><time>2026-03-29T17:50:06Z</time></trkpt><trkpt lat="36.875650150537986" lon="-108.16480219657404"><ele>1786.1666666666667</ele><time>2026-03-29T17:50:07Z</time></trkpt><trkpt lat="36.87568871234619" lon="-108.16472569355844"><ele>1786.0</ele><time>2026-03-29T17:50:08Z</time></trkpt><trkpt lat="36.87572209838092" lon="-108.16464367510903"><ele>1785.0</ele><time>2026-03-29T17:50:09Z</time></trkpt><trkpt lat="36.87582039103273" lon="-108.16453559980944"><ele>1784.0</ele><time>2026-03-29T17:50:11Z</time></trkpt><trkpt lat="36.87588361356592" lon="-108.16445007386997"><ele>1783.0</ele><time>2026-03-29T17:50:12Z</time></trkpt><trkpt lat="36.875957097821995" lon="-108.16441001805467"><ele>1782.0</ele><time>2026-03-29T17:50:13Z</time></trkpt><trkpt lat="36.87603973881818" lon="-108.16439462582979"><ele>1781.0</ele><time>2026-03-29T17:50:14Z</time></trkpt><trkpt lat="36.87612163958951" lon="-108.1643603406487"><ele>1779.9999999999998</ele><time>2026-03-29T17:50:15Z</time></trkpt><trkpt lat="36.876183130577914" lon="-108.16427993437175"><ele>1779.0</ele><time>2026-03-29T17:50:16Z</time></trkpt><trkpt lat="36.87622709330578" lon="-108.1641816490413"><ele>1778.0</ele><time>2026-03-29T17:50:17Z</time></trkpt><trkpt lat="36.87628253241776" lon="-108.16410741719268"><ele>1777.0</ele><time>2026-03-29T17:50:18Z</time></trkpt><trkpt lat="36.87634534036146" lon="-108.16404991839771"><ele>1775.9999999999998</ele><time>2026-03-29T17:50:19Z</time></trkpt><trkpt lat="36.87640415730885" lon="-108.16399428388189"><ele>1775.0</ele><time>2026-03-29T17:50:20Z</time></trkpt><trkpt lat="36.87646433535724" lon="-108.16395425443109"><ele>1774.1666666666665</ele><time>2026-03-29T17:50:21Z</time></trkpt><trkpt lat="36.876582644265" lon="-108.16391658774113"><ele>1773.3333333333333</ele><time>2026-03-29T17:50:23Z</time></trkpt><trkpt lat="36.87665979501587" lon="-108.16388281535733"><ele>1772.5</ele><time>2026-03-29T17:50:25Z</time></trkpt><trkpt lat="36.876734983400496" lon="-108.1638474900121"><ele>1771.6666666666665</ele><time>2026-03-29T17:50:27Z</time></trkpt><trkpt lat="36.87680955037732" lon="-108.16384560006306"><ele>1770.8333333333333</ele><time>2026-03-29T17:50:28Z</time></trkpt><trkpt lat="36.876885194725055" lon="-108.16381074827093"><ele>1770.0</ele><time>2026-03-29T17:50:29Z</time></trkpt><trkpt lat="36.876928112431465" lon="-108.16375166840712"><ele>1769.3333333333333</ele><time>2026-03-29T17:50:30Z</time></trkpt><trkpt lat="36.87696789371378" lon="-108.16366102420822"><ele>1768.6666666666665</ele><time>2026-03-29T17:50:31Z</time></trkpt><trkpt lat="36.87701410640228" lon="-108.16359061392527"><ele>1768.0</ele><time>2026-03-29T17:50:32Z</time></trkpt><trkpt lat="36.87705732718356" lon="-108.16351692056222"><ele>1767.3333333333333</ele><time>2026-03-29T17:50:34Z</time></trkpt><trkpt lat="36.87711366296195" lon="-108.16345208524915"><ele>1766.6666666666665</ele><time>2026-03-29T17:50:37Z</time></trkpt><trkpt lat="36.87715806352696" lon="-108.16333976645474"><ele>1766.0</ele><time>2026-03-29T17:50:39Z</time></trkpt><trkpt lat="36.877251279499966" lon="-108.1632142735515"><ele>1765.1666666666665</ele><time>2026-03-29T17:50:40Z</time></trkpt><trkpt lat="36.87727355963293" lon="-108.16313355868704"><ele>1764.3333333333333</ele><time>2026-03-29T17:50:41Z</time></trkpt><trkpt lat="36.87730847397579" lon="-108.16305787521817"><ele>1763.5</ele><time>2026-03-29T17:50:42Z</time></trkpt><trkpt lat="36.877357406627915" lon="-108.16295744189868"><ele>1762.6666666666665</ele><time>2026-03-29T17:50:43Z</time></trkpt><trkpt lat="36.87740943522741" lon="-108.16287557541611"><ele>1761.8333333333333</ele><time>2026-03-29T17:50:44Z</time></trkpt><trkpt lat="36.877467293038414" lon="-108.1628131480184"><ele>1761.0</ele><time>2026-03-29T17:50:45Z</time></trkpt><trkpt lat="36.8775317422111" lon="-108.16275967591858"><ele>1760.6</ele><time>2026-03-29T17:50:46Z</time></trkpt><trkpt lat="36.877613692873275" lon="-108.16270840644688"><ele>1760.1999999999998</ele><time>2026-03-29T17:50:47Z</time></trkpt><trkpt lat="36.87769400085617" lon="-108.16265953873605"><ele>1759.8000000000002</ele><time>2026-03-29T17:50:48Z</time></trkpt><trkpt lat="36.87777705426758" lon="-108.16264046238607"><ele>1759.4</ele><time>2026-03-29T17:50:49Z</time></trkpt><trkpt lat="36.87785766174657" lon="-108.16264152628061"><ele>1759.0</ele><time>2026-03-29T17:50:50Z</time></trkpt><trkpt lat="36.87796210260473" lon="-108.16268706154769"><ele>1759.0</ele><time>2026-03-29T17:50:51Z</time></trkpt><trkpt lat="36.87805650667107" lon="-108.16270369042616"><ele>1759.0</ele><time>2026-03-29T17:50:52Z</time></trkpt><trkpt lat="36.87816279190237" lon="-108.16270265178461"><ele>1759.0</ele><time>2026-03-29T17:50:53Z</time></trkpt><trkpt lat="36.878264612193504" lon="-108.16267718209316"><ele>1759.0</ele><time>2026-03-29T17:50:54Z</time></trkpt><trkpt lat="36.87835888838188" lon="-108.16260426104886"><ele>1759.0</ele><time>2026-03-29T17:50:55Z</time></trkpt><trkpt lat="36.87845443752252" lon="-108.16252492214392"><ele>1758.25</ele><time>2026-03-29T17:50:56Z</time></trkpt><trkpt lat="36.878569088315345" lon="-108.1624517294944"><ele>1757.5</ele><time>2026-03-29T17:50:57Z</time></trkpt><trkpt lat="36.87869485103062" lon="-108.16240219464491"><ele>1756.75</ele><time>2026-03-29T17:50:58Z</time></trkpt><trkpt lat="36.87882067242533" lon="-108.16238327105813"><ele>1756.0</ele><time>2026-03-29T17:50:59Z</time></trkpt><trkpt lat="36.879021261563146" lon="-108.16244644989224"><ele>1756.0</ele><time>2026-03-29T17:51:00Z</time></trkpt><trkpt lat="36.87918201075945" lon="-108.16254242916388"><ele>1756.0</ele><time>2026-03-29T17:51:01Z</time></trkpt><trkpt lat="36.879321693010745" lon="-108.16263804652925"><ele>1756.0</ele><time>2026-03-29T17:51:02Z</time></trkpt><trkpt lat="36.87946476706026" lon="-108.16274289848437"><ele>1754.6666666666667</ele><time>2026-03-29T17:51:03Z</time></trkpt><trkpt lat="36.87959548633996" lon="-108.16281719341285"><ele>1753.3333333333335</ele><time>2026-03-29T17:51:04Z</time></trkpt><trkpt lat="36.87975167986136" lon="-108.16281167461969"><ele>1752.0</ele><time>2026-03-29T17:51:05Z</time></trkpt><trkpt lat="36.879914384714645" lon="-108.16279953464432"><ele>1752.0</ele><time>2026-03-29T17:51:06Z</time></trkpt><trkpt lat="36.88008840555093" lon="-108.16278228343035"><ele>1752.0</ele><time>2026-03-29T17:51:07Z</time></trkpt><trkpt lat="36.88025036172837" lon="-108.16278045643608"><ele>1752.0</ele><time>2026-03-29T17:51:08Z</time></trkpt><trkpt lat="36.8804293253649" lon="-108.16277842262603"><ele>1751.6666666666665</ele><time>2026-03-29T17:51:09Z</time></trkpt><trkpt lat="36.88059360118503" lon="-108.16274545586947"><ele>1751.3333333333333</ele><time>2026-03-29T17:51:10Z</time></trkpt><trkpt lat="36.88074835279832" lon="-108.16271126767225"><ele>1751.0</ele><time>2026-03-29T17:51:11Z</time></trkpt><trkpt lat="36.88090695654617" lon="-108.16270198256987"><ele>1751.6666666666665</ele><time>2026-03-29T17:51:12Z</time></trkpt><trkpt lat="36.88106134828828" lon="-108.16273254943933"><ele>1752.3333333333335</ele><time>2026-03-29T17:51:13Z</time></trkpt><trkpt lat="36.88122192235632" lon="-108.16278461124989"><ele>1753.0</ele><time>2026-03-29T17:51:14Z</time></trkpt><trkpt lat="36.88137472395914" lon="-108.16286165120448"><ele>1753.0</ele><time>2026-03-29T17:51:15Z</time></trkpt><trkpt lat="36.88150949930299" lon="-108.16295094548285"><ele>1753.0</ele><time>2026-03-29T17:51:16Z</time></trkpt><trkpt lat="36.88160566044156" lon="-108.16306590954127"><ele>1753.0</ele><time>2026-03-29T17:51:17Z</time></trkpt><trkpt lat="36.88169425028239" lon="-108.16320204946922"><ele>1753.0</ele><time>2026-03-29T17:51:18Z</time></trkpt><trkpt lat="36.88177832812501" lon="-108.16335030125738"><ele>1752.25</ele><time>2026-03-29T17:51:19Z</time></trkpt><trkpt lat="36.88185197465919" lon="-108.1635012257485"><ele>1751.5</ele><time>2026-03-29T17:51:20Z</time></trkpt><trkpt lat="36.881907352565435" lon="-108.16367136805866"><ele>1750.75</ele><time>2026-03-29T17:51:21Z</time></trkpt><trkpt lat="36.88191672861206" lon="-108.1638633003171"><ele>1750.0</ele><time>2026-03-29T17:51:22Z</time></trkpt><trkpt lat="36.881906097189365" lon="-108.16405991561518"><ele>1749.0</ele><time>2026-03-29T17:51:23Z</time></trkpt><trkpt lat="36.88188345853692" lon="-108.16427105844542"><ele>1748.0</ele><time>2026-03-29T17:51:24Z</time></trkpt><trkpt lat="36.88187170692035" lon="-108.16447929262864"><ele>1747.0</ele><time>2026-03-29T17:51:25Z</time></trkpt><trkpt lat="36.88188414890035" lon="-108.16467638018213"><ele>1747.0</ele><time>2026-03-29T17:51:26Z</time></trkpt><trkpt lat="36.88189698184904" lon="-108.1648291659703"><ele>1746.9999999999998</ele><time>2026-03-29T17:51:27Z</time></trkpt><trkpt lat="36.88191676771443" lon="-108.1649576140676"><ele>1746.9999999999998</ele><time>2026-03-29T17:51:28Z</time></trkpt><trkpt lat="36.881922807355394" lon="-108.16505059070693"><ele>1747.0</ele><time>2026-03-29T17:51:29Z</time></trkpt><trkpt lat="36.881982389632654" lon="-108.16510229231561"><ele>1747.0</ele><time>2026-03-29T17:51:31Z</time></trkpt><trkpt lat="36.882064370553444" lon="-108.1650761190456"><ele>1747.0</ele><time>2026-03-29T17:51:32Z</time></trkpt><trkpt lat="36.882146816714005" lon="-108.16502442318153"><ele>1746.9999999999998</ele><time>2026-03-29T17:51:33Z</time></trkpt><trkpt lat="36.88222993498383" lon="-108.16495772880774"><ele>1746.9999999999998</ele><time>2026-03-29T17:51:34Z</time></trkpt><trkpt lat="36.882309290169296" lon="-108.16488694797117"><ele>1747.0</ele><time>2026-03-29T17:51:35Z</time></trkpt><trkpt lat="36.882401425707464" lon="-108.16481643768101"><ele>1747.0</ele><time>2026-03-29T17:51:36Z</time></trkpt><trkpt lat="36.88249182400078" lon="-108.16472180138848"><ele>1747.0</ele><time>2026-03-29T17:51:37Z</time></trkpt><trkpt lat="36.8825850305866" lon="-108.16460177343546"><ele>1747.0</ele><time>2026-03-29T17:51:38Z</time></trkpt><trkpt lat="36.88267030325038" lon="-108.16446918698492"><ele>1747.0</ele><time>2026-03-29T17:51:39Z</time></trkpt><trkpt lat="36.88271164329632" lon="-108.1643255407958"><ele>1747.0</ele><time>2026-03-29T17:51:40Z</time></trkpt><trkpt lat="36.88267962949388" lon="-108.16420171025557"><ele>1747.5</ele><time>2026-03-29T17:51:41Z</time></trkpt><trkpt lat="36.88266652794124" lon="-108.1640409353711"><ele>1748.0</ele><time>2026-03-29T17:51:42Z</time></trkpt><trkpt lat="36.8826621413431" lon="-108.16388103984117"><ele>1748.5</ele><time>2026-03-29T17:51:43Z</time></trkpt><trkpt lat="36.882658851375304" lon="-108.16372802737122"><ele>1749.0</ele><time>2026-03-29T17:51:44Z</time></trkpt><trkpt lat="36.882670987972915" lon="-108.16354328227368"><ele>1749.0</ele><time>2026-03-29T17:51:45Z</time></trkpt><trkpt lat="36.882693670962944" lon="-108.163365766977"><ele>1749.0</ele><time>2026-03-29T17:51:46Z</time></trkpt><trkpt lat="36.88273621705816" lon="-108.16318894780382"><ele>1749.0</ele><time>2026-03-29T17:51:47Z</time></trkpt><trkpt lat="36.882787170466" lon="-108.16300386651926"><ele>1749.0</ele><time>2026-03-29T17:51:48Z</time></trkpt><trkpt lat="36.882841794197255" lon="-108.16282241629945"><ele>1749.5</ele><time>2026-03-29T17:51:49Z</time></trkpt><trkpt lat="36.88290733949947" lon="-108.16266070755348"><ele>1750.0</ele><time>2026-03-29T17:51:50Z</time></trkpt><trkpt lat="36.88297724413428" lon="-108.16250703976905"><ele>1750.5</ele><time>2026-03-29T17:51:51Z</time></trkpt><trkpt lat="36.88304979611915" lon="-108.1623785558834"><ele>1751.0</ele><time>2026-03-29T17:51:52Z</time></trkpt><trkpt lat="36.88313473505306" lon="-108.16228095699404"><ele>1752.0</ele><time>2026-03-29T17:51:53Z</time></trkpt><trkpt lat="36.88323195531238" lon="-108.16215477461805"><ele>1753.0</ele><time>2026-03-29T17:51:54Z</time></trkpt><trkpt lat="36.88331430862359" lon="-108.1620135938696"><ele>1754.0</ele><time>2026-03-29T17:51:55Z</time></trkpt><trkpt lat="36.88339124767726" lon="-108.16186856856798"><ele>1755.0</ele><time>2026-03-29T17:51:56Z</time></trkpt><trkpt lat="36.88342665764046" lon="-108.1617478184617"><ele>1755.0</ele><time>2026-03-29T17:51:57Z</time></trkpt><trkpt lat="36.883370437359" lon="-108.1615982172811"><ele>1755.0</ele><time>2026-03-29T17:51:58Z</time></trkpt><trkpt lat="36.883297030907926" lon="-108.16146932284288"><ele>1755.0</ele><time>2026-03-29T17:51:59Z</time></trkpt><trkpt lat="36.883243163432276" lon="-108.16134363009968"><ele>1755.0</ele><time>2026-03-29T17:52:00Z</time></trkpt><trkpt lat="36.88322171809494" lon="-108.16117131989917"><ele>1755.5</ele><time>2026-03-29T17:52:01Z</time></trkpt><trkpt lat="36.883211301817965" lon="-108.1609943823537"><ele>1756.0</ele><time>2026-03-29T17:52:02Z</time></trkpt><trkpt lat="36.88321823476737" lon="-108.16080631709286"><ele>1756.5</ele><time>2026-03-29T17:52:03Z</time></trkpt><trkpt lat="36.8832263831842" lon="-108.16064200260993"><ele>1757.0</ele><time>2026-03-29T17:52:04Z</time></trkpt><trkpt lat="36.88323739034248" lon="-108.160519013666"><ele>1757.1999999999998</ele><time>2026-03-29T17:52:05Z</time></trkpt><trkpt lat="36.88325342261398" lon="-108.16042680268268"><ele>1757.3999999999999</ele><time>2026-03-29T17:52:06Z</time></trkpt><trkpt lat="36.88328355952328" lon="-108.16033867809689"><ele>1757.6000000000001</ele><time>2026-03-29T17:52:07Z</time></trkpt><trkpt lat="36.88334705040843" lon="-108.1602339763659"><ele>1757.8000000000002</ele><time>2026-03-29T17:52:08Z</time></trkpt><trkpt lat="36.883425482636966" lon="-108.16013995314746"><ele>1758.0</ele><time>2026-03-29T17:52:09Z</time></trkpt><trkpt lat="36.883496818801824" lon="-108.16003117850627"><ele>1758.5</ele><time>2026-03-29T17:52:10Z</time></trkpt><trkpt lat="36.88356453928507" lon="-108.15989306938081"><ele>1759.0</ele><time>2026-03-29T17:52:11Z</time></trkpt><trkpt lat="36.88364170182668" lon="-108.1597417615452"><ele>1759.5</ele><time>2026-03-29T17:52:12Z</time></trkpt><trkpt lat="36.883721732627144" lon="-108.15959574103847"><ele>1760.0</ele><time>2026-03-29T17:52:13Z</time></trkpt><trkpt lat="36.88377867174893" lon="-108.15943122038239"><ele>1760.25</ele><time>2026-03-29T17:52:14Z</time></trkpt><trkpt lat="36.88377273240488" lon="-108.15925876981674"><ele>1760.5</ele><time>2026-03-29T17:52:15Z</time></trkpt><trkpt lat="36.88372384730917" lon="-108.15911172450497"><ele>1760.75</ele><time>2026-03-29T17:52:16Z</time></trkpt><trkpt lat="36.88364627817532" lon="-108.1589944635251"><ele>1761.0</ele><time>2026-03-29T17:52:17Z</time></trkpt><trkpt lat="36.8835481142958" lon="-108.15891297365208"><ele>1761.0</ele><time>2026-03-29T17:52:18Z</time></trkpt><trkpt lat="36.88342913593635" lon="-108.15886600758022"><ele>1761.0</ele><time>2026-03-29T17:52:19Z</time></trkpt><trkpt lat="36.88334388258548" lon="-108.15881554006295"><ele>1761.0</ele><time>2026-03-29T17:52:20Z</time></trkpt><trkpt lat="36.88329409867607" lon="-108.15872200618281"><ele>1761.0</ele><time>2026-03-29T17:52:21Z</time></trkpt><trkpt lat="36.88328413365229" lon="-108.1585851830979"><ele>1761.0</ele><time>2026-03-29T17:52:22Z</time></trkpt><trkpt lat="36.8832698860938" lon="-108.15842719143994"><ele>1761.0</ele><time>2026-03-29T17:52:23Z</time></trkpt><trkpt lat="36.88322583873559" lon="-108.15826916821604"><ele>1761.0</ele><time>2026-03-29T17:52:24Z</time></trkpt><trkpt lat="36.88319538458214" lon="-108.15812072831187"><ele>1761.0</ele><time>2026-03-29T17:52:25Z</time></trkpt><trkpt lat="36.88317765610389" lon="-108.15796261240614"><ele>1761.0</ele><time>2026-03-29T17:52:26Z</time></trkpt><trkpt lat="36.883187171873075" lon="-108.15782839166229"><ele>1761.25</ele><time>2026-03-29T17:52:27Z</time></trkpt><trkpt lat="36.8832235122483" lon="-108.15772871432051"><ele>1761.5</ele><time>2026-03-29T17:52:28Z</time></trkpt><trkpt lat="36.88329817031548" lon="-108.15761583721094"><ele>1761.75</ele><time>2026-03-29T17:52:29Z</time></trkpt><trkpt lat="36.8833977800141" lon="-108.15749394122481"><ele>1762.0</ele><time>2026-03-29T17:52:30Z</time></trkpt><trkpt lat="36.88349478553198" lon="-108.15738223649261"><ele>1762.25</ele><time>2026-03-29T17:52:31Z</time></trkpt><trkpt lat="36.883589601393425" lon="-108.15727731369545"><ele>1762.5</ele><time>2026-03-29T17:52:32Z</time></trkpt><trkpt lat="36.88368959016299" lon="-108.1571777423726"><ele>1762.75</ele><time>2026-03-29T17:52:33Z</time></trkpt><trkpt lat="36.883787869248614" lon="-108.15708513204778"><ele>1763.0</ele><time>2026-03-29T17:52:34Z</time></trkpt><trkpt lat="36.883903316767444" lon="-108.15698525501658"><ele>1763.0</ele><time>2026-03-29T17:52:35Z</time></trkpt><trkpt lat="36.88401633827875" lon="-108.15685567856727"><ele>1763.0</ele><time>2026-03-29T17:52:36Z</time></trkpt><trkpt lat="36.884102290928055" lon="-108.15672503678444"><ele>1763.0</ele><time>2026-03-29T17:52:37Z</time></trkpt><trkpt lat="36.88414264641817" lon="-108.15658623078825"><ele>1763.0</ele><time>2026-03-29T17:52:38Z</time></trkpt><trkpt lat="36.88416246068161" lon="-108.1564808364725"><ele>1763.4</ele><time>2026-03-29T17:52:39Z</time></trkpt><trkpt lat="36.88419720822172" lon="-108.1563590497344"><ele>1763.8000000000002</ele><time>2026-03-29T17:52:40Z</time></trkpt><trkpt lat="36.884216447455174" lon="-108.15623082273724"><ele>1764.2</ele><time>2026-03-29T17:52:41Z</time></trkpt><trkpt lat="36.8842025929857" lon="-108.1560947187569"><ele>1764.6</ele><time>2026-03-29T17:52:42Z</time></trkpt><trkpt lat="36.88420877249719" lon="-108.15593568221107"><ele>1765.0</ele><time>2026-03-29T17:52:43Z</time></trkpt><trkpt lat="36.8842330153771" lon="-108.15577596342993"><ele>1766.0</ele><time>2026-03-29T17:52:44Z</time></trkpt><trkpt lat="36.88423523944317" lon="-108.15561863207436"><ele>1767.0</ele><time>2026-03-29T17:52:45Z</time></trkpt><trkpt lat="36.8842100970222" lon="-108.15545947026315"><ele>1768.0</ele><time>2026-03-29T17:52:46Z</time></trkpt><trkpt lat="36.88418527486383" lon="-108.15535029607308"><ele>1769.0</ele><time>2026-03-29T17:52:47Z</time></trkpt><trkpt lat="36.88415538129383" lon="-108.15524007774917"><ele>1770.0</ele><time>2026-03-29T17:52:48Z</time></trkpt><trkpt lat="36.88416491262151" lon="-108.15514684700028"><ele>1770.0</ele><time>2026-03-29T17:52:49Z</time></trkpt><trkpt lat="36.88419841916776" lon="-108.15504257519397"><ele>1770.0</ele><time>2026-03-29T17:52:50Z</time></trkpt><trkpt lat="36.88423491708205" lon="-108.15489877607531"><ele>1770.0</ele><time>2026-03-29T17:52:51Z</time></trkpt><trkpt lat="36.88427662711479" lon="-108.1547503247284"><ele>1770.0</ele><time>2026-03-29T17:52:52Z</time></trkpt><trkpt lat="36.884312983972656" lon="-108.15459436941673"><ele>1770.25</ele><time>2026-03-29T17:52:53Z</time></trkpt><trkpt lat="36.884344428223905" lon="-108.15442486823325"><ele>1770.5</ele><time>2026-03-29T17:52:54Z</time></trkpt><trkpt lat="36.88438921653022" lon="-108.15425735128431"><ele>1770.75</ele><time>2026-03-29T17:52:55Z</time></trkpt><trkpt lat="36.884410434071725" lon="-108.15408922749224"><ele>1771.0</ele><time>2026-03-29T17:52:56Z</time></trkpt><trkpt lat="36.88444216618796" lon="-108.15391450746095"><ele>1771.0</ele><time>2026-03-29T17:52:57Z</time></trkpt><trkpt lat="36.88448616271677" lon="-108.1537302977288"><ele>1771.0</ele><time>2026-03-29T17:52:58Z</time></trkpt><trkpt lat="36.884521657777825" lon="-108.15355474959107"><ele>1771.0</ele><time>2026-03-29T17:52:59Z</time></trkpt><trkpt lat="36.88454248476821" lon="-108.15341531378417"><ele>1771.0</ele><time>2026-03-29T17:53:00Z</time></trkpt><trkpt lat="36.88456819789517" lon="-108.15331067802255"><ele>1771.0</ele><time>2026-03-29T17:53:01Z</time></trkpt><trkpt lat="36.88463740664131" lon="-108.15323143669114"><ele>1771.0</ele><time>2026-03-29T17:53:02Z</time></trkpt><trkpt lat="36.884736542253286" lon="-108.1531383730367"><ele>1771.0</ele><time>2026-03-29T17:53:03Z</time></trkpt><trkpt lat="36.88482353743402" lon="-108.15302013517572"><ele>1771.0</ele><time>2026-03-29T17:53:04Z</time></trkpt><trkpt lat="36.88489296673166" lon="-108.15288812920053"><ele>1771.5</ele><time>2026-03-29T17:53:05Z</time></trkpt><trkpt lat="36.884966998223554" lon="-108.15275081779899"><ele>1772.0</ele><time>2026-03-29T17:53:06Z</time></trkpt><trkpt lat="36.885064209030716" lon="-108.15260302297116"><ele>1772.5</ele><time>2026-03-29T17:53:07Z</time></trkpt><trkpt lat="36.88515869161891" lon="-108.15247173438284"><ele>1773.0</ele><time>2026-03-29T17:53:08Z</time></trkpt><trkpt lat="36.8852752619209" lon="-108.15234523558873"><ele>1773.5</ele><time>2026-03-29T17:53:09Z</time></trkpt><trkpt lat="36.885390686197546" lon="-108.15222544579365"><ele>1774.0</ele><time>2026-03-29T17:53:10Z</time></trkpt><trkpt lat="36.885469547767386" lon="-108.15212098785634"><ele>1774.5</ele><time>2026-03-29T17:53:11Z</time></trkpt><trkpt lat="36.88552261821895" lon="-108.15202328413385"><ele>1775.0</ele><time>2026-03-29T17:53:12Z</time></trkpt><trkpt lat="36.88556068105795" lon="-108.15190921182702"><ele>1775.0</ele><time>2026-03-29T17:53:13Z</time></trkpt><trkpt lat="36.885586610335245" lon="-108.1517913656181"><ele>1775.0</ele><time>2026-03-29T17:53:14Z</time></trkpt><trkpt lat="36.88558791877921" lon="-108.15167789058687"><ele>1775.0</ele><time>2026-03-29T17:53:15Z</time></trkpt><trkpt lat="36.8855098587311" lon="-108.15159533544751"><ele>1775.0</ele><time>2026-03-29T17:53:16Z</time></trkpt><trkpt lat="36.88540060175242" lon="-108.15153526575232"><ele>1775.0</ele><time>2026-03-29T17:53:17Z</time></trkpt><trkpt lat="36.88531600361526" lon="-108.1514446136467"><ele>1775.6</ele><time>2026-03-29T17:53:18Z</time></trkpt><trkpt lat="36.88526088408283" lon="-108.15132445697037"><ele>1776.2</ele><time>2026-03-29T17:53:19Z</time></trkpt><trkpt lat="36.88524730512421" lon="-108.15121460358907"><ele>1776.8000000000002</ele><time>2026-03-29T17:53:20Z</time></trkpt><trkpt lat="36.88526143885458" lon="-108.15109571365107"><ele>1777.4</ele><time>2026-03-29T17:53:21Z</time></trkpt><trkpt lat="36.88528566764617" lon="-108.15097890973125"><ele>1778.0</ele><time>2026-03-29T17:53:22Z</time></trkpt><trkpt lat="36.88535447180159" lon="-108.15086880877945"><ele>1778.0</ele><time>2026-03-29T17:53:23Z</time></trkpt><trkpt lat="36.885459714125815" lon="-108.15079363833932"><ele>1778.0</ele><time>2026-03-29T17:53:24Z</time></trkpt><trkpt lat="36.88556539664896" lon="-108.15070611387225"><ele>1778.0</ele><time>2026-03-29T17:53:25Z</time></trkpt><trkpt lat="36.88566041709828" lon="-108.15059464753402"><ele>1778.0</ele><time>2026-03-29T17:53:26Z</time></trkpt><trkpt lat="36.885748240439575" lon="-108.15047650182734"><ele>1778.0</ele><time>2026-03-29T17:53:27Z</time></trkpt><trkpt lat="36.88580697807608" lon="-108.15035871593535"><ele>1778.0000000000002</ele><time>2026-03-29T17:53:28Z</time></trkpt><trkpt lat="36.88582494555507" lon="-108.15023100252664"><ele>1778.0000000000002</ele><time>2026-03-29T17:53:29Z</time></trkpt><trkpt lat="36.88584227599814" lon="-108.15008754110134"><ele>1778.0</ele><time>2026-03-29T17:53:30Z</time></trkpt><trkpt lat="36.88587393816308" lon="-108.14996963786429"><ele>1778.0</ele><time>2026-03-29T17:53:31Z</time></trkpt><trkpt lat="36.88593835396371" lon="-108.14990833450075"><ele>1777.8000000000002</ele><time>2026-03-29T17:53:32Z</time></trkpt><trkpt lat="36.88604025588539" lon="-108.14991150072863"><ele>1777.6000000000001</ele><time>2026-03-29T17:53:33Z</time></trkpt><trkpt lat="36.8861385138015" lon="-108.14995999330351"><ele>1777.3999999999999</ele><time>2026-03-29T17:53:34Z</time></trkpt><trkpt lat="36.886254330966864" lon="-108.14999907292005"><ele>1777.1999999999998</ele><time>2026-03-29T17:53:35Z</time></trkpt><trkpt lat="36.886370655386685" lon="-108.15000305115856"><ele>1777.0</ele><time>2026-03-29T17:53:36Z</time></trkpt><trkpt lat="36.886493709846704" lon="-108.14996220760932"><ele>1777.0</ele><time>2026-03-29T17:53:37Z</time></trkpt><trkpt lat="36.88659797866551" lon="-108.14988671762585"><ele>1777.0</ele><time>2026-03-29T17:53:38Z</time></trkpt><trkpt lat="36.886739766171495" lon="-108.14979014065044"><ele>1777.0</ele><time>2026-03-29T17:53:39Z</time></trkpt><trkpt lat="36.8868710465228" lon="-108.14968564565784"><ele>1777.0</ele><time>2026-03-29T17:53:40Z</time></trkpt><trkpt lat="36.88697289184992" lon="-108.14955618366531"><ele>1778.0</ele><time>2026-03-29T17:53:41Z</time></trkpt><trkpt lat="36.88707607124407" lon="-108.14945671652731"><ele>1779.0</ele><time>2026-03-29T17:53:42Z</time></trkpt><trkpt lat="36.88721606172957" lon="-108.1493879463032"><ele>1780.0</ele><time>2026-03-29T17:53:43Z</time></trkpt><trkpt lat="36.88732477827428" lon="-108.1493627746002"><ele>1781.0</ele><time>2026-03-29T17:53:44Z</time></trkpt><trkpt lat="36.88740815991733" lon="-108.1493187169721"><ele>1781.0</ele><time>2026-03-29T17:53:45Z</time></trkpt><trkpt lat="36.88749969729428" lon="-108.14926554893749"><ele>1781.0</ele><time>2026-03-29T17:53:46Z</time></trkpt><trkpt lat="36.887552083286934" lon="-108.14916334861951"><ele>1781.0</ele><time>2026-03-29T17:53:47Z</time></trkpt><trkpt lat="36.88757863234707" lon="-108.14903923442147"><ele>1781.0</ele><time>2026-03-29T17:53:48Z</time></trkpt><trkpt lat="36.88761691072043" lon="-108.14890811745482"><ele>1781.0</ele><time>2026-03-29T17:53:49Z</time></trkpt><trkpt lat="36.88766635188909" lon="-108.14880286706322"><ele>1781.5</ele><time>2026-03-29T17:53:50Z</time></trkpt><trkpt lat="36.88775052783457" lon="-108.14871014932031"><ele>1782.0</ele><time>2026-03-29T17:53:51Z</time></trkpt><trkpt lat="36.887839760987404" lon="-108.14862284025502"><ele>1782.5</ele><time>2026-03-29T17:53:52Z</time></trkpt><trkpt lat="36.88796443725771" lon="-108.14856007856841"><ele>1783.0</ele><time>2026-03-29T17:53:53Z</time></trkpt><trkpt lat="36.88807909070411" lon="-108.14849147748068"><ele>1783.0</ele><time>2026-03-29T17:53:54Z</time></trkpt><trkpt lat="36.888159273400404" lon="-108.14843445991991"><ele>1783.0000000000002</ele><time>2026-03-29T17:53:55Z</time></trkpt><trkpt lat="36.88822482498044" lon="-108.14840899525856"><ele>1783.0000000000002</ele><time>2026-03-29T17:53:56Z</time></trkpt><trkpt lat="36.88834993730817" lon="-108.1483342619481"><ele>1783.0</ele><time>2026-03-29T17:53:58Z</time></trkpt><trkpt lat="36.88841561819608" lon="-108.1482843012757"><ele>1783.0</ele><time>2026-03-29T17:53:59Z</time></trkpt><trkpt lat="36.888453831063295" lon="-108.14817498285612"><ele>1784.2</ele><time>2026-03-29T17:54:00Z</time></trkpt><trkpt lat="36.888504188286895" lon="-108.14805790504253"><ele>1785.4</ele><time>2026-03-29T17:54:01Z</time></trkpt><trkpt lat="36.8885734653165" lon="-108.14795870183345"><ele>1786.6000000000001</ele><time>2026-03-29T17:54:02Z</time></trkpt><trkpt lat="36.88867405979934" lon="-108.14790818908615"><ele>1787.8000000000002</ele><time>2026-03-29T17:54:03Z</time></trkpt><trkpt lat="36.888794284320014" lon="-108.14789921264365"><ele>1789.0</ele><time>2026-03-29T17:54:04Z</time></trkpt><trkpt lat="36.888938634553845" lon="-108.14794096367788"><ele>1789.0</ele><time>2026-03-29T17:54:05Z</time></trkpt><trkpt lat="36.889068077893384" lon="-108.14796950395169"><ele>1789.0</ele><time>2026-03-29T17:54:06Z</time></trkpt><trkpt lat="36.88915286744007" lon="-108.14794825080477"><ele>1789.0</ele><time>2026-03-29T17:54:07Z</time></trkpt><trkpt lat="36.88926755914597" lon="-108.14784772890798"><ele>1789.0</ele><time>2026-03-29T17:54:09Z</time></trkpt><trkpt lat="36.88932792286742" lon="-108.14775356732693"><ele>1790.0</ele><time>2026-03-29T17:54:10Z</time></trkpt><trkpt lat="36.889374387164416" lon="-108.1476423523856"><ele>1791.0</ele><time>2026-03-29T17:54:11Z</time></trkpt><trkpt lat="36.88942152014835" lon="-108.14750857813652"><ele>1792.0</ele><time>2026-03-29T17:54:12Z</time></trkpt><trkpt lat="36.88949443489826" lon="-108.14739590711892"><ele>1793.0</ele><time>2026-03-29T17:54:13Z</time></trkpt><trkpt lat="36.88956361562683" lon="-108.1472650262663"><ele>1793.5</ele><time>2026-03-29T17:54:14Z</time></trkpt><trkpt lat="36.88963529217735" lon="-108.14713734675024"><ele>1794.0</ele><time>2026-03-29T17:54:15Z</time></trkpt><trkpt lat="36.8897177194672" lon="-108.14699277303852"><ele>1794.5</ele><time>2026-03-29T17:54:16Z</time></trkpt><trkpt lat="36.889813834956556" lon="-108.1468589690773"><ele>1795.0</ele><time>2026-03-29T17:54:17Z</time></trkpt><trkpt lat="36.88991083173627" lon="-108.14671086527419"><ele>1795.0</ele><time>2026-03-29T17:54:18Z</time></trkpt><trkpt lat="36.88999304408622" lon="-108.146581142924"><ele>1795.0</ele><time>2026-03-29T17:54:19Z</time></trkpt><trkpt lat="36.890061687761175" lon="-108.14645469170877"><ele>1795.0</ele><time>2026-03-29T17:54:20Z</time></trkpt><trkpt lat="36.89012223802026" lon="-108.14632973068792"><ele>1795.0</ele><time>2026-03-29T17:54:21Z</time></trkpt><trkpt lat="36.890191184293826" lon="-108.14620924549078"><ele>1797.0</ele><time>2026-03-29T17:54:22Z</time></trkpt><trkpt lat="36.89025265765283" lon="-108.14606464591267"><ele>1799.0</ele><time>2026-03-29T17:54:23Z</time></trkpt><trkpt lat="36.8903544758939" lon="-108.14594418294813"><ele>1801.0</ele><time>2026-03-29T17:54:24Z</time></trkpt><trkpt lat="36.890445834696436" lon="-108.1458090515786"><ele>1803.0</ele><time>2026-03-29T17:54:25Z</time></trkpt><trkpt lat="36.890488444484554" lon="-108.1456556404959"><ele>1803.75</ele><time>2026-03-29T17:54:26Z</time></trkpt><trkpt lat="36.89055341074566" lon="-108.14553220814427"><ele>1804.5</ele><time>2026-03-29T17:54:27Z</time></trkpt><trkpt lat="36.890621430694345" lon="-108.1454029738054"><ele>1805.25</ele><time>2026-03-29T17:54:28Z</time></trkpt><trkpt lat="36.89068457232854" lon="-108.145270236472"><ele>1806.0</ele><time>2026-03-29T17:54:29Z</time></trkpt><trkpt lat="36.890734733074005" lon="-108.14511433049577"><ele>1806.0</ele><time>2026-03-29T17:54:30Z</time></trkpt><trkpt lat="36.89077350328158" lon="-108.14494102661051"><ele>1806.0</ele><time>2026-03-29T17:54:31Z</time></trkpt><trkpt lat="36.890820758137714" lon="-108.1447737829956"><ele>1806.0</ele><time>2026-03-29T17:54:32Z</time></trkpt><trkpt lat="36.89088992611234" lon="-108.14459254243229"><ele>1806.0</ele><time>2026-03-29T17:54:33Z</time></trkpt><trkpt lat="36.89093072897751" lon="-108.14440209418706"><ele>1806.0</ele><time>2026-03-29T17:54:34Z</time></trkpt><trkpt lat="36.89093589669219" lon="-108.14422995631749"><ele>1806.0</ele><time>2026-03-29T17:54:35Z</time></trkpt><trkpt lat="36.890915183682004" lon="-108.14411069179499"><ele>1806.0</ele><time>2026-03-29T17:54:36Z</time></trkpt><trkpt lat="36.8908959448545" lon="-108.1439922535285"><ele>1806.0</ele><time>2026-03-29T17:54:37Z</time></trkpt><trkpt lat="36.89086939268555" lon="-108.14389035398807"><ele>1806.0</ele><time>2026-03-29T17:54:38Z</time></trkpt><trkpt lat="36.890838362674145" lon="-108.14375831456374"><ele>1805.6666666666665</ele><time>2026-03-29T17:54:39Z</time></trkpt><trkpt lat="36.89108845936644" lon="-108.14350131355269"><ele>1805.3333333333333</ele><time>2026-03-29T17:54:40Z</time></trkpt><trkpt lat="36.89106738485808" lon="-108.14337205989025"><ele>1805.0</ele><time>2026-03-29T17:54:41Z</time></trkpt><trkpt lat="36.891060743781345" lon="-108.14324715636877"><ele>1804.0</ele><time>2026-03-29T17:54:42Z</time></trkpt><trkpt lat="36.89105314386811" lon="-108.1431463957029"><ele>1803.0</ele><time>2026-03-29T17:54:43Z</time></trkpt><trkpt lat="36.89086035648359" lon="-108.14324755181273"><ele>1802.0</ele><time>2026-03-29T17:54:44Z</time></trkpt><trkpt lat="36.89113911718422" lon="-108.14295834476658"><ele>1801.9999999999998</ele><time>2026-03-29T17:54:45Z</time></trkpt><trkpt lat="36.89115759844393" lon="-108.14286710724838"><ele>1802.0</ele><time>2026-03-29T17:54:46Z</time></trkpt><trkpt lat="36.891058647549436" lon="-108.14278485551958"><ele>1802.0</ele><time>2026-03-29T17:54:48Z</time></trkpt><trkpt lat="36.89096976639325" lon="-108.14272991185891"><ele>1802.0</ele><time>2026-03-29T17:54:49Z</time></trkpt><trkpt lat="36.89092090284951" lon="-108.14266041791521"><ele>1801.9999999999998</ele><time>2026-03-29T17:54:50Z</time></trkpt><trkpt lat="36.89091726387546" lon="-108.14257848581147"><ele>1802.0</ele><time>2026-03-29T17:54:51Z</time></trkpt><trkpt lat="36.89102553328714" lon="-108.14250839514774"><ele>1801.9999999999998</ele><time>2026-03-29T17:54:53Z</time></trkpt><trkpt lat="36.89109680567195" lon="-108.14246380200615"><ele>1802.0</ele><time>2026-03-29T17:54:54Z</time></trkpt><trkpt lat="36.891167118535044" lon="-108.14237038104403"><ele>1802.0</ele><time>2026-03-29T17:54:55Z</time></trkpt><trkpt lat="36.891217729240694" lon="-108.14227145262518"><ele>1802.0</ele><time>2026-03-29T17:54:56Z</time></trkpt><trkpt lat="36.891245384322126" lon="-108.14217700844225"><ele>1801.9999999999998</ele><time>2026-03-29T17:54:57Z</time></trkpt><trkpt lat="36.89127048867513" lon="-108.14207783887387"><ele>1802.0</ele><time>2026-03-29T17:54:58Z</time></trkpt><trkpt lat="36.891307701853975" lon="-108.1419842179206"><ele>1802.1666666666665</ele><time>2026-03-29T17:54:59Z</time></trkpt><trkpt lat="36.89136303530637" lon="-108.14191004798876"><ele>1802.3333333333333</ele><time>2026-03-29T17:55:00Z</time></trkpt><trkpt lat="36.891425243361084" lon="-108.1418728135402"><ele>1802.5</ele><time>2026-03-29T17:55:01Z</time></trkpt><trkpt lat="36.8914786989897" lon="-108.14182645940626"><ele>1802.6666666666665</ele><time>2026-03-29T17:55:02Z</time></trkpt><trkpt lat="36.891559470597144" lon="-108.14170672203461"><ele>1802.8333333333333</ele><time>2026-03-29T17:55:04Z</time></trkpt><trkpt lat="36.891612253146036" lon="-108.14161732014195"><ele>1803.0</ele><time>2026-03-29T17:55:05Z</time></trkpt><trkpt lat="36.891656524908065" lon="-108.14150956163134"><ele>1803.0</ele><time>2026-03-29T17:55:06Z</time></trkpt><trkpt lat="36.89168187281289" lon="-108.1414248308974"><ele>1803.0</ele><time>2026-03-29T17:55:07Z</time></trkpt><trkpt lat="36.89166154005057" lon="-108.14131481564746"><ele>1803.0</ele><time>2026-03-29T17:55:08Z</time></trkpt><trkpt lat="36.89163075430698" lon="-108.14121820787118"><ele>1803.0</ele><time>2026-03-29T17:55:09Z</time></trkpt><trkpt lat="36.89159893253154" lon="-108.14113480124922"><ele>1803.0</ele><time>2026-03-29T17:55:10Z</time></trkpt><trkpt lat="36.891576739339236" lon="-108.14103239229503"><ele>1803.0</ele><time>2026-03-29T17:55:11Z</time></trkpt><trkpt lat="36.89156888564174" lon="-108.14091302397365"><ele>1803.0</ele><time>2026-03-29T17:55:12Z</time></trkpt><trkpt lat="36.891580392080186" lon="-108.14077905877711"><ele>1803.0000000000002</ele><time>2026-03-29T17:55:13Z</time></trkpt><trkpt lat="36.891587843989285" lon="-108.14068013752826"><ele>1803.0000000000002</ele><time>2026-03-29T17:55:14Z</time></trkpt><trkpt lat="36.89149252379119" lon="-108.1405816342212"><ele>1803.0</ele><time>2026-03-29T17:55:16Z</time></trkpt><trkpt lat="36.89139784645252" lon="-108.14051480568695"><ele>1803.0</ele><time>2026-03-29T17:55:17Z</time></trkpt><trkpt lat="36.891344831901876" lon="-108.14043408068908"><ele>1803.0</ele><time>2026-03-29T17:55:18Z</time></trkpt><trkpt lat="36.89130332769179" lon="-108.14033109816015"><ele>1803.0000000000002</ele><time>2026-03-29T17:55:19Z</time></trkpt><trkpt lat="36.89126523663432" lon="-108.14024183903317"><ele>1803.0000000000002</ele><time>2026-03-29T17:55:20Z</time></trkpt><trkpt lat="36.891222795987744" lon="-108.14014609944161"><ele>1803.0</ele><time>2026-03-29T17:55:21Z</time></trkpt><trkpt lat="36.89118721938188" lon="-108.14002933210419"><ele>1803.0</ele><time>2026-03-29T17:55:22Z</time></trkpt><trkpt lat="36.89117655042485" lon="-108.13991627165005"><ele>1802.5</ele><time>2026-03-29T17:55:23Z</time></trkpt><trkpt lat="36.89117915928201" lon="-108.13979532264038"><ele>1802.0</ele><time>2026-03-29T17:55:24Z</time></trkpt><trkpt lat="36.89119857911959" lon="-108.13965653605288"><ele>1801.5</ele><time>2026-03-29T17:55:25Z</time></trkpt><trkpt lat="36.89121951397656" lon="-108.13948421952422"><ele>1801.0</ele><time>2026-03-29T17:55:26Z</time></trkpt><trkpt lat="36.891227822554896" lon="-108.13931824619678"><ele>1801.0000000000002</ele><time>2026-03-29T17:55:27Z</time></trkpt><trkpt lat="36.89124390887841" lon="-108.13918360493443"><ele>1801.0</ele><time>2026-03-29T17:55:28Z</time></trkpt><trkpt lat="36.891291832273396" lon="-108.13908751506035"><ele>1801.0</ele><time>2026-03-29T17:55:29Z</time></trkpt><trkpt lat="36.89135298540579" lon="-108.13901431079842"><ele>1801.0</ele><time>2026-03-29T17:55:30Z</time></trkpt><trkpt lat="36.89140101915395" lon="-108.13894770416411"><ele>1801.0000000000002</ele><time>2026-03-29T17:55:31Z</time></trkpt><trkpt lat="36.89143457808257" lon="-108.1388706324983"><ele>1801.0</ele><time>2026-03-29T17:55:32Z</time></trkpt><trkpt lat="36.891452696411974" lon="-108.13877540844553"><ele>1801.0000000000002</ele><time>2026-03-29T17:55:33Z</time></trkpt><trkpt lat="36.89150555154859" lon="-108.1386571970903"><ele>1801.0</ele><time>2026-03-29T17:55:34Z</time></trkpt><trkpt lat="36.89156862580013" lon="-108.13856376454257"><ele>1801.0</ele><time>2026-03-29T17:55:35Z</time></trkpt><trkpt lat="36.89156026260458" lon="-108.1384560767388"><ele>1801.0</ele><time>2026-03-29T17:55:36Z</time></trkpt><trkpt lat="36.89151769141937" lon="-108.13836401273451"><ele>1801.0000000000002</ele><time>2026-03-29T17:55:37Z</time></trkpt><trkpt lat="36.89153386373448" lon="-108.13827844965324"><ele>1801.0</ele><time>2026-03-29T17:55:38Z</time></trkpt><trkpt lat="36.89156969836378" lon="-108.13816904520289"><ele>1801.6</ele><time>2026-03-29T17:55:39Z</time></trkpt><trkpt lat="36.89158260693032" lon="-108.1380387119794"><ele>1802.1999999999998</ele><time>2026-03-29T17:55:40Z</time></trkpt><trkpt lat="36.891549373283624" lon="-108.13788533713141"><ele>1802.8000000000002</ele><time>2026-03-29T17:55:41Z</time></trkpt><trkpt lat="36.89154899607294" lon="-108.13775886733055"><ele>1803.4</ele><time>2026-03-29T17:55:42Z</time></trkpt><trkpt lat="36.891585133124536" lon="-108.13765070963804"><ele>1804.0</ele><time>2026-03-29T17:55:43Z</time></trkpt><trkpt lat="36.891646615368465" lon="-108.1375561226982"><ele>1804.0</ele><time>2026-03-29T17:55:44Z</time></trkpt><trkpt lat="36.891722416027484" lon="-108.13745839234208"><ele>1804.0</ele><time>2026-03-29T17:55:45Z</time></trkpt><trkpt lat="36.89179131654017" lon="-108.13739296106353"><ele>1804.0</ele><time>2026-03-29T17:55:46Z</time></trkpt><trkpt lat="36.89184912644607" lon="-108.1373539274124"><ele>1804.0</ele><time>2026-03-29T17:55:47Z</time></trkpt><trkpt lat="36.891936314350794" lon="-108.13730973670724"><ele>1804.0</ele><time>2026-03-29T17:55:48Z</time></trkpt><trkpt lat="36.89203280797044" lon="-108.13721100210958"><ele>1804.8000000000002</ele><time>2026-03-29T17:55:49Z</time></trkpt><trkpt lat="36.892112804156234" lon="-108.13713744662131"><ele>1805.6000000000001</ele><time>2026-03-29T17:55:50Z</time></trkpt><trkpt lat="36.892183755614234" lon="-108.13707875213775"><ele>1806.4</ele><time>2026-03-29T17:55:51Z</time></trkpt><trkpt lat="36.89226233607854" lon="-108.13703756687853"><ele>1807.2</ele><time>2026-03-29T17:55:52Z</time></trkpt><trkpt lat="36.89232521729714" lon="-108.13701510077185"><ele>1808.0</ele><time>2026-03-29T17:55:53Z</time></trkpt><trkpt lat="36.8924406618498" lon="-108.1369970180273"><ele>1807.9999999999998</ele><time>2026-03-29T17:55:55Z</time></trkpt><trkpt lat="36.89250358037086" lon="-108.1369568760033"><ele>1808.0</ele><time>2026-03-29T17:55:56Z</time></trkpt><trkpt lat="36.89258998635195" lon="-108.13689092457324"><ele>1808.0</ele><time>2026-03-29T17:55:57Z</time></trkpt><trkpt lat="36.8926461910238" lon="-108.13682858451588"><ele>1808.0</ele><time>2026-03-29T17:55:58Z</time></trkpt><trkpt lat="36.89269675230032" lon="-108.13676710174894"><ele>1807.9999999999998</ele><time>2026-03-29T17:55:59Z</time></trkpt><trkpt lat="36.89275127899209" lon="-108.13670674876718"><ele>1808.0</ele><time>2026-03-29T17:56:00Z</time></trkpt><trkpt lat="36.89271184753408" lon="-108.13655784606404"><ele>1807.6666666666665</ele><time>2026-03-29T17:56:02Z</time></trkpt><trkpt lat="36.8926383808684" lon="-108.13651630928503"><ele>1807.3333333333333</ele><time>2026-03-29T17:56:03Z</time></trkpt><trkpt lat="36.89259293066633" lon="-108.13641725924796"><ele>1807.0</ele><time>2026-03-29T17:56:05Z</time></trkpt><trkpt lat="36.89255795187555" lon="-108.13633639210451"><ele>1806.6666666666665</ele><time>2026-03-29T17:56:06Z</time></trkpt><trkpt lat="36.89247792848649" lon="-108.13625522183659"><ele>1806.3333333333333</ele><time>2026-03-29T17:56:08Z</time></trkpt><trkpt lat="36.89241099396244" lon="-108.13617807561893"><ele>1806.0</ele><time>2026-03-29T17:56:10Z</time></trkpt><trkpt lat="36.892351946025244" lon="-108.13601443606592"><ele>1806.0</ele><time>2026-03-29T17:56:12Z</time></trkpt><trkpt lat="36.89232180075015" lon="-108.13589371404572"><ele>1806.0</ele><time>2026-03-29T17:56:13Z</time></trkpt><trkpt lat="36.89228217786612" lon="-108.13577327317992"><ele>1806.0</ele><time>2026-03-29T17:56:14Z</time></trkpt><trkpt lat="36.89219826339752" lon="-108.13564676230094"><ele>1806.0</ele><time>2026-03-29T17:56:15Z</time></trkpt><trkpt lat="36.89208473828895" lon="-108.13557770866596"><ele>1805.8</ele><time>2026-03-29T17:56:16Z</time></trkpt><trkpt lat="36.89196672431843" lon="-108.13549101945688"><ele>1805.6</ele><time>2026-03-29T17:56:17Z</time></trkpt><trkpt lat="36.891868710969135" lon="-108.13541307239905"><ele>1805.4</ele><time>2026-03-29T17:56:18Z</time></trkpt><trkpt lat="36.89179642233662" lon="-108.13534002644083"><ele>1805.2</ele><time>2026-03-29T17:56:19Z</time></trkpt><trkpt lat="36.89174439984761" lon="-108.13525019820257"><ele>1805.0</ele><time>2026-03-29T17:56:20Z</time></trkpt><trkpt lat="36.89169320879563" lon="-108.13520136835669"><ele>1805.4</ele><time>2026-03-29T17:56:21Z</time></trkpt><trkpt lat="36.89159801140852" lon="-108.13522011481302"><ele>1805.8</ele><time>2026-03-29T17:56:22Z</time></trkpt><trkpt lat="36.89152595848506" lon="-108.13522967029658"><ele>1806.1999999999998</ele><time>2026-03-29T17:56:23Z</time></trkpt><trkpt lat="36.89142292905667" lon="-108.13518040322306"><ele>1806.6</ele><time>2026-03-29T17:56:24Z</time></trkpt><trkpt lat="36.89130193517284" lon="-108.13513175247736"><ele>1807.0</ele><time>2026-03-29T17:56:25Z</time></trkpt><trkpt lat="36.89117435522798" lon="-108.13506918821057"><ele>1807.0</ele><time>2026-03-29T17:56:26Z</time></trkpt><trkpt lat="36.891056098820755" lon="-108.13499844384224"><ele>1807.0</ele><time>2026-03-29T17:56:27Z</time></trkpt><trkpt lat="36.8909458555158" lon="-108.13492796499231"><ele>1807.0</ele><time>2026-03-29T17:56:28Z</time></trkpt><trkpt lat="36.8908298101382" lon="-108.13484703299535"><ele>1807.0</ele><time>2026-03-29T17:56:29Z</time></trkpt><trkpt lat="36.89070807769026" lon="-108.1347574630995"><ele>1808.25</ele><time>2026-03-29T17:56:30Z</time></trkpt><trkpt lat="36.89056268150848" lon="-108.13467801148954"><ele>1809.5</ele><time>2026-03-29T17:56:31Z</time></trkpt><trkpt lat="36.89043852495948" lon="-108.13459730061392"><ele>1810.75</ele><time>2026-03-29T17:56:32Z</time></trkpt><trkpt lat="36.89032464081608" lon="-108.13451457709616"><ele>1812.0</ele><time>2026-03-29T17:56:33Z</time></trkpt><trkpt lat="36.89022066879871" lon="-108.13444216759424"><ele>1812.0</ele><time>2026-03-29T17:56:34Z</time></trkpt><trkpt lat="36.89010709061885" lon="-108.13435073211913"><ele>1812.0</ele><time>2026-03-29T17:56:35Z</time></trkpt><trkpt lat="36.88998673141694" lon="-108.13425784721619"><ele>1812.0</ele><time>2026-03-29T17:56:36Z</time></trkpt><trkpt lat="36.88987194024207" lon="-108.13416522934993"><ele>1812.0</ele><time>2026-03-29T17:56:37Z</time></trkpt><trkpt lat="36.88977819120147" lon="-108.13408677096739"><ele>1812.8333333333333</ele><time>2026-03-29T17:56:37.999Z</time></trkpt><trkpt lat="36.88970087957449" lon="-108.1340075467767"><ele>1813.6666666666665</ele><time>2026-03-29T17:56:38.999Z</time></trkpt><trkpt lat="36.88965174627886" lon="-108.13392703174048"><ele>1814.5</ele><time>2026-03-29T17:56:39.999Z</time></trkpt><trkpt lat="36.88960472360428" lon="-108.13385578030014"><ele>1815.3333333333333</ele><time>2026-03-29T17:56:40.999Z</time></trkpt><trkpt lat="36.88952942443749" lon="-108.13381863027952"><ele>1816.1666666666665</ele><time>2026-03-29T17:56:41.999Z</time></trkpt><trkpt lat="36.88944539951866" lon="-108.13378042305175"><ele>1817.0</ele><time>2026-03-29T17:56:42.999Z</time></trkpt><trkpt lat="36.88938390164205" lon="-108.13374718767648"><ele>1817.0</ele><time>2026-03-29T17:56:43.999Z</time></trkpt><trkpt lat="36.889289504181264" lon="-108.13362571413433"><ele>1816.9999999999998</ele><time>2026-03-29T17:56:45.999Z</time></trkpt><trkpt lat="36.88927096960384" lon="-108.13353359596464"><ele>1816.9999999999998</ele><time>2026-03-29T17:56:46.999Z</time></trkpt><trkpt lat="36.88927502342993" lon="-108.13342547207333"><ele>1817.0</ele><time>2026-03-29T17:56:47.999Z</time></trkpt><trkpt lat="36.88925747974312" lon="-108.13332027380493"><ele>1817.0</ele><time>2026-03-29T17:56:48.999Z</time></trkpt><trkpt lat="36.88923516756527" lon="-108.133233776543"><ele>1818.9999999999998</ele><time>2026-03-29T17:56:49.999Z</time></trkpt><trkpt lat="36.88920139666799" lon="-108.13314492482915"><ele>1821.0</ele><time>2026-03-29T17:56:50.999Z</time></trkpt><trkpt lat="36.889183396984464" lon="-108.1330427472233"><ele>1823.0</ele><time>2026-03-29T17:56:51.999Z</time></trkpt><trkpt lat="36.88918236989835" lon="-108.13293910227611"><ele>1825.0</ele><time>2026-03-29T17:56:52.999Z</time></trkpt><trkpt lat="36.88920443189498" lon="-108.13281049281433"><ele>1826.9999999999998</ele><time>2026-03-29T17:56:53.999Z</time></trkpt><trkpt lat="36.88921821493383" lon="-108.13269307793237"><ele>1829.0</ele><time>2026-03-29T17:56:54.999Z</time></trkpt><trkpt lat="36.889239653583346" lon="-108.13257988824691"><ele>1829.0</ele><time>2026-03-29T17:56:55.999Z</time></trkpt><trkpt lat="36.88924790505391" lon="-108.13245442774769"><ele>1829.0</ele><time>2026-03-29T17:56:56.999Z</time></trkpt><trkpt lat="36.88925133431611" lon="-108.13233536421265"><ele>1829.0</ele><time>2026-03-29T17:56:57.999Z</time></trkpt><trkpt lat="36.88925387846428" lon="-108.13222332824905"><ele>1829.0</ele><time>2026-03-29T17:56:58.999Z</time></trkpt><trkpt lat="36.88923977766021" lon="-108.1321111505789"><ele>1829.0</ele><time>2026-03-29T17:56:59.999Z</time></trkpt><trkpt lat="36.889215948126434" lon="-108.13199629657227"><ele>1829.2</ele><time>2026-03-29T17:57:00.999Z</time></trkpt><trkpt lat="36.88920752002031" lon="-108.13187921213849"><ele>1829.4</ele><time>2026-03-29T17:57:01.999Z</time></trkpt><trkpt lat="36.889212389498454" lon="-108.13176154248016"><ele>1829.6</ele><time>2026-03-29T17:57:03Z</time></trkpt><trkpt lat="36.88921524855534" lon="-108.13163384867116"><ele>1829.8</ele><time>2026-03-29T17:57:04Z</time></trkpt><trkpt lat="36.88921941168473" lon="-108.13150810508674"><ele>1830.0</ele><time>2026-03-29T17:57:05Z</time></trkpt><trkpt lat="36.88921201267345" lon="-108.13139619143215"><ele>1830.0</ele><time>2026-03-29T17:57:06Z</time></trkpt><trkpt lat="36.88919469267307" lon="-108.13128754503882"><ele>1830.0</ele><time>2026-03-29T17:57:07Z</time></trkpt><trkpt lat="36.88919920526856" lon="-108.13117590713674"><ele>1830.0</ele><time>2026-03-29T17:57:08Z</time></trkpt><trkpt lat="36.88919816561743" lon="-108.13106033680836"><ele>1830.0</ele><time>2026-03-29T17:57:09Z</time></trkpt><trkpt lat="36.88918476025861" lon="-108.13094482096932"><ele>1830.0</ele><time>2026-03-29T17:57:10Z</time></trkpt><trkpt lat="36.88914798620957" lon="-108.1308312087523"><ele>1829.8</ele><time>2026-03-29T17:57:11Z</time></trkpt><trkpt lat="36.88911808109685" lon="-108.1307173142244"><ele>1829.6</ele><time>2026-03-29T17:57:12Z</time></trkpt><trkpt lat="36.88909259498036" lon="-108.13058347234775"><ele>1829.4</ele><time>2026-03-29T17:57:13Z</time></trkpt><trkpt lat="36.88908120487854" lon="-108.13046899361545"><ele>1829.2</ele><time>2026-03-29T17:57:14Z</time></trkpt><trkpt lat="36.88905881037877" lon="-108.130366327478"><ele>1829.0</ele><time>2026-03-29T17:57:15Z</time></trkpt><trkpt lat="36.88901857494265" lon="-108.13026445599415"><ele>1828.9999999999998</ele><time>2026-03-29T17:57:16Z</time></trkpt><trkpt lat="36.88897714205789" lon="-108.1301853567507"><ele>1829.0</ele><time>2026-03-29T17:57:17Z</time></trkpt><trkpt lat="36.88893371073532" lon="-108.13007726474167"><ele>1829.0</ele><time>2026-03-29T17:57:18Z</time></trkpt><trkpt lat="36.88891675261675" lon="-108.12996034046309"><ele>1829.0</ele><time>2026-03-29T17:57:19Z</time></trkpt><trkpt lat="36.88891886673971" lon="-108.12986770030649"><ele>1828.9999999999998</ele><time>2026-03-29T17:57:20Z</time></trkpt><trkpt lat="36.88897104825959" lon="-108.12977615287342"><ele>1829.0</ele><time>2026-03-29T17:57:23Z</time></trkpt><trkpt lat="36.889052405612524" lon="-108.12971741213978"><ele>1828.8000000000002</ele><time>2026-03-29T17:57:25Z</time></trkpt><trkpt lat="36.88904341494571" lon="-108.12962313881424"><ele>1828.6000000000001</ele><time>2026-03-29T17:57:28Z</time></trkpt><trkpt lat="36.889106504501015" lon="-108.12941877501295"><ele>1828.4</ele><time>2026-03-29T17:57:29Z</time></trkpt><trkpt lat="36.889132302879425" lon="-108.1293055037677"><ele>1828.2</ele><time>2026-03-29T17:57:30Z</time></trkpt><trkpt lat="36.889156166080745" lon="-108.12919593185538"><ele>1828.0</ele><time>2026-03-29T17:57:31Z</time></trkpt><trkpt lat="36.889186128194" lon="-108.12908919982135"><ele>1827.6000000000001</ele><time>2026-03-29T17:57:32Z</time></trkpt><trkpt lat="36.889216064808124" lon="-108.12897771724448"><ele>1827.2000000000003</ele><time>2026-03-29T17:57:33Z</time></trkpt><trkpt lat="36.889248235121265" lon="-108.12886881856491"><ele>1826.8</ele><time>2026-03-29T17:57:34Z</time></trkpt><trkpt lat="36.88927659848136" lon="-108.12875251263408"><ele>1826.4</ele><time>2026-03-29T17:57:35Z</time></trkpt><trkpt lat="36.88929712322117" lon="-108.12862875974791"><ele>1826.0</ele><time>2026-03-29T17:57:36Z</time></trkpt><trkpt lat="36.8893253109129" lon="-108.12849278451684"><ele>1825.1999999999998</ele><time>2026-03-29T17:57:37Z</time></trkpt><trkpt lat="36.88935865551162" lon="-108.12835930661582"><ele>1824.3999999999999</ele><time>2026-03-29T17:57:38Z</time></trkpt><trkpt lat="36.889384934204095" lon="-108.12822516847879"><ele>1823.6</ele><time>2026-03-29T17:57:39Z</time></trkpt><trkpt lat="36.88941277213893" lon="-108.12808980313326"><ele>1822.8</ele><time>2026-03-29T17:57:40Z</time></trkpt><trkpt lat="36.88944194586475" lon="-108.12797043882834"><ele>1822.0</ele><time>2026-03-29T17:57:41Z</time></trkpt><trkpt lat="36.8894784987758" lon="-108.12785067364076"><ele>1822.0</ele><time>2026-03-29T17:57:42Z</time></trkpt><trkpt lat="36.8895061749411" lon="-108.12775293993806"><ele>1821.9999999999998</ele><time>2026-03-29T17:57:43Z</time></trkpt><trkpt lat="36.88953674888581" lon="-108.12767442364806"><ele>1821.9999999999998</ele><time>2026-03-29T17:57:44Z</time></trkpt><trkpt lat="36.8895672437371" lon="-108.12760364445498"><ele>1822.0</ele><time>2026-03-29T17:57:45Z</time></trkpt><trkpt lat="36.88967366278305" lon="-108.12754038008941"><ele>1822.0</ele><time>2026-03-29T17:57:47Z</time></trkpt><trkpt lat="36.88992506913059" lon="-108.12768140250414"><ele>1822.0</ele><time>2026-03-29T17:57:48Z</time></trkpt><trkpt lat="36.890049908094866" lon="-108.12767585983373"><ele>1821.9999999999998</ele><time>2026-03-29T17:57:49Z</time></trkpt><trkpt lat="36.89012299036866" lon="-108.1276292675323"><ele>1821.9999999999998</ele><time>2026-03-29T17:57:50Z</time></trkpt><trkpt lat="36.89016251446462" lon="-108.12751997608711"><ele>1822.0</ele><time>2026-03-29T17:57:51Z</time></trkpt><trkpt lat="36.89021907906483" lon="-108.1274390802992"><ele>1822.0</ele><time>2026-03-29T17:57:52Z</time></trkpt><trkpt lat="36.89026637426042" lon="-108.12735923371125"><ele>1822.5</ele><time>2026-03-29T17:57:53Z</time></trkpt><trkpt lat="36.8902671963415" lon="-108.12719904618086"><ele>1823.0</ele><time>2026-03-29T17:57:54.999Z</time></trkpt><trkpt lat="36.890239787137325" lon="-108.1270516545758"><ele>1823.5</ele><time>2026-03-29T17:57:55.999Z</time></trkpt><trkpt lat="36.89019445548394" lon="-108.12689359240338"><ele>1824.0</ele><time>2026-03-29T17:57:56.999Z</time></trkpt><trkpt lat="36.89018306845934" lon="-108.1267368083258"><ele>1824.0</ele><time>2026-03-29T17:57:57.999Z</time></trkpt><trkpt lat="36.8902027741525" lon="-108.12658832292351"><ele>1824.0</ele><time>2026-03-29T17:57:58.999Z</time></trkpt><trkpt lat="36.89025347840798" lon="-108.12647753258294"><ele>1824.0</ele><time>2026-03-29T17:57:59.999Z</time></trkpt><trkpt lat="36.890318182039834" lon="-108.12641194431285"><ele>1824.0</ele><time>2026-03-29T17:58:00.999Z</time></trkpt><trkpt lat="36.890353811869765" lon="-108.12633896034892"><ele>1824.0</ele><time>2026-03-29T17:58:01.999Z</time></trkpt><trkpt lat="36.89050146946466" lon="-108.12627733349281"><ele>1824.0</ele><time>2026-03-29T17:58:03.999Z</time></trkpt><trkpt lat="36.89060681850974" lon="-108.12622299036468"><ele>1824.0</ele><time>2026-03-29T17:58:04.999Z</time></trkpt><trkpt lat="36.89072442684877" lon="-108.12617035778823"><ele>1824.0</ele><time>2026-03-29T17:58:05.999Z</time></trkpt><trkpt lat="36.89079623999127" lon="-108.12611187534492"><ele>1824.0</ele><time>2026-03-29T17:58:06.999Z</time></trkpt><trkpt lat="36.89087417404021" lon="-108.1260426899617"><ele>1824.0</ele><time>2026-03-29T17:58:07.999Z</time></trkpt><trkpt lat="36.89099016711146" lon="-108.1259935088124"><ele>1823.2</ele><time>2026-03-29T17:58:08.999Z</time></trkpt><trkpt lat="36.891083115974254" lon="-108.12595566611823"><ele>1822.4</ele><time>2026-03-29T17:58:09.999Z</time></trkpt><trkpt lat="36.891207051939496" lon="-108.12592787649744"><ele>1821.6</ele><time>2026-03-29T17:58:10.999Z</time></trkpt><trkpt lat="36.8913191612583" lon="-108.12589459452352"><ele>1820.8</ele><time>2026-03-29T17:58:11.999Z</time></trkpt><trkpt lat="36.89140553508087" lon="-108.12586699479837"><ele>1820.0</ele><time>2026-03-29T17:58:12.999Z</time></trkpt><trkpt lat="36.89147193705121" lon="-108.12581820904353"><ele>1820.0</ele><time>2026-03-29T17:58:13.999Z</time></trkpt><trkpt lat="36.89153490385691" lon="-108.12574301777623"><ele>1820.0</ele><time>2026-03-29T17:58:14.999Z</time></trkpt><trkpt lat="36.89162705650915" lon="-108.12569741126619"><ele>1820.0</ele><time>2026-03-29T17:58:15.999Z</time></trkpt><trkpt lat="36.89175098841138" lon="-108.12566109893979"><ele>1820.0</ele><time>2026-03-29T17:58:16.999Z</time></trkpt><trkpt lat="36.891904800753835" lon="-108.12560692115585"><ele>1818.6666666666665</ele><time>2026-03-29T17:58:17.999Z</time></trkpt><trkpt lat="36.89206616165517" lon="-108.12553975850642"><ele>1817.3333333333335</ele><time>2026-03-29T17:58:18.999Z</time></trkpt><trkpt lat="36.892227026422944" lon="-108.12549776446589"><ele>1816.0</ele><time>2026-03-29T17:58:19.999Z</time></trkpt><trkpt lat="36.892388248328174" lon="-108.12548618512949"><ele>1816.0</ele><time>2026-03-29T17:58:20.999Z</time></trkpt><trkpt lat="36.89254463388895" lon="-108.12549692470051"><ele>1816.0</ele><time>2026-03-29T17:58:21.999Z</time></trkpt><trkpt lat="36.89273047434869" lon="-108.12551899967438"><ele>1816.0</ele><time>2026-03-29T17:58:22.999Z</time></trkpt><trkpt lat="36.89291665026059" lon="-108.12552561861811"><ele>1816.0</ele><time>2026-03-29T17:58:23.999Z</time></trkpt><trkpt lat="36.893081107127514" lon="-108.12552342051181"><ele>1816.0</ele><time>2026-03-29T17:58:24.999Z</time></trkpt><trkpt lat="36.893253228405364" lon="-108.12551566902222"><ele>1816.0</ele><time>2026-03-29T17:58:25.999Z</time></trkpt><trkpt lat="36.89341846897115" lon="-108.12549203309973"><ele>1815.75</ele><time>2026-03-29T17:58:26.999Z</time></trkpt><trkpt lat="36.89354102033095" lon="-108.12545640500265"><ele>1815.5</ele><time>2026-03-29T17:58:27.999Z</time></trkpt><trkpt lat="36.893647250136794" lon="-108.12541643955917"><ele>1815.25</ele><time>2026-03-29T17:58:28.999Z</time></trkpt><trkpt lat="36.89374834507896" lon="-108.12536342602863"><ele>1815.0</ele><time>2026-03-29T17:58:29.999Z</time></trkpt><trkpt lat="36.89385141799831" lon="-108.125308394192"><ele>1815.0</ele><time>2026-03-29T17:58:30.999Z</time></trkpt><trkpt lat="36.893975306316754" lon="-108.12526426483352"><ele>1815.0</ele><time>2026-03-29T17:58:31.999Z</time></trkpt><trkpt lat="36.894083557685235" lon="-108.12522233124665"><ele>1815.0</ele><time>2026-03-29T17:58:32.999Z</time></trkpt><trkpt lat="36.89420020067553" lon="-108.12516117884468"><ele>1815.0</ele><time>2026-03-29T17:58:33.999Z</time></trkpt><trkpt lat="36.89433843341507" lon="-108.12509312387402"><ele>1814.3333333333335</ele><time>2026-03-29T17:58:34.999Z</time></trkpt><trkpt lat="36.89450868290309" lon="-108.12503972624665"><ele>1813.6666666666667</ele><time>2026-03-29T17:58:35.999Z</time></trkpt><trkpt lat="36.894697330531734" lon="-108.12498882264657"><ele>1813.0</ele><time>2026-03-29T17:58:36.999Z</time></trkpt><trkpt lat="36.8948673998432" lon="-108.12496307124255"><ele>1813.0</ele><time>2026-03-29T17:58:37.999Z</time></trkpt><trkpt lat="36.89499292832748" lon="-108.12493647933607"><ele>1813.0000000000002</ele><time>2026-03-29T17:58:38.999Z</time></trkpt><trkpt lat="36.89508729167414" lon="-108.12490242771689"><ele>1813.0000000000002</ele><time>2026-03-29T17:58:39.999Z</time></trkpt><trkpt lat="36.89515054898588" lon="-108.12482392436813"><ele>1813.0</ele><time>2026-03-29T17:58:40.999Z</time></trkpt><trkpt lat="36.895190997233776" lon="-108.12471819331503"><ele>1813.0</ele><time>2026-03-29T17:58:41.999Z</time></trkpt><trkpt lat="36.895216272532075" lon="-108.12460312580384"><ele>1814.0</ele><time>2026-03-29T17:58:42.999Z</time></trkpt><trkpt lat="36.89528854060792" lon="-108.12448012755284"><ele>1815.0</ele><time>2026-03-29T17:58:43.999Z</time></trkpt><trkpt lat="36.89531347184924" lon="-108.1243232796247"><ele>1816.0</ele><time>2026-03-29T17:58:44.999Z</time></trkpt><trkpt lat="36.895319417186165" lon="-108.12412763407528"><ele>1817.0</ele><time>2026-03-29T17:58:45.999Z</time></trkpt><trkpt lat="36.895326600831304" lon="-108.12392843241771"><ele>1817.75</ele><time>2026-03-29T17:58:46.999Z</time></trkpt><trkpt lat="36.89534649877668" lon="-108.12375947558179"><ele>1818.5</ele><time>2026-03-29T17:58:47.999Z</time></trkpt><trkpt lat="36.895373326775264" lon="-108.12358165017673"><ele>1819.25</ele><time>2026-03-29T17:58:48.999Z</time></trkpt><trkpt lat="36.895391075949426" lon="-108.12340313678732"><ele>1820.0</ele><time>2026-03-29T17:58:49.999Z</time></trkpt><trkpt lat="36.89539624563791" lon="-108.12324859752262"><ele>1820.4</ele><time>2026-03-29T17:58:50.999Z</time></trkpt><trkpt lat="36.89539141024935" lon="-108.1231135915488"><ele>1820.8</ele><time>2026-03-29T17:58:51.999Z</time></trkpt><trkpt lat="36.895390610393896" lon="-108.12299129763035"><ele>1821.1999999999998</ele><time>2026-03-29T17:58:52.999Z</time></trkpt><trkpt lat="36.895388877987564" lon="-108.12288456516616"><ele>1821.6</ele><time>2026-03-29T17:58:53.999Z</time></trkpt><trkpt lat="36.89539810622645" lon="-108.12278251990382"><ele>1822.0</ele><time>2026-03-29T17:58:54.999Z</time></trkpt><trkpt lat="36.89541816838847" lon="-108.12269037984069"><ele>1822.0</ele><time>2026-03-29T17:58:55.999Z</time></trkpt><trkpt lat="36.89547221468963" lon="-108.1226332182938"><ele>1821.9999999999998</ele><time>2026-03-29T17:58:56.999Z</time></trkpt><trkpt lat="36.89554889427725" lon="-108.12261602971027"><ele>1821.9999999999998</ele><time>2026-03-29T17:58:57.999Z</time></trkpt><trkpt lat="36.89565058074588" lon="-108.122630286976"><ele>1822.0</ele><time>2026-03-29T17:58:58.999Z</time></trkpt><trkpt lat="36.895774380145696" lon="-108.1226576721351"><ele>1822.0</ele><time>2026-03-29T17:58:59.999Z</time></trkpt><trkpt lat="36.89588875166544" lon="-108.12268894406537"><ele>1822.25</ele><time>2026-03-29T17:59:00.999Z</time></trkpt><trkpt lat="36.896019837854446" lon="-108.12271025914266"><ele>1822.5</ele><time>2026-03-29T17:59:01.999Z</time></trkpt><trkpt lat="36.8961765590346" lon="-108.12273313105463"><ele>1822.75</ele><time>2026-03-29T17:59:02.999Z</time></trkpt><trkpt lat="36.89630435770611" lon="-108.1227630320867"><ele>1823.0</ele><time>2026-03-29T17:59:03.999Z</time></trkpt><trkpt lat="36.89640689950431" lon="-108.12278275983506"><ele>1823.0</ele><time>2026-03-29T17:59:04.999Z</time></trkpt><trkpt lat="36.89649138507138" lon="-108.12281884927626"><ele>1823.0000000000002</ele><time>2026-03-29T17:59:05.999Z</time></trkpt><trkpt lat="36.8965577781549" lon="-108.122861988034"><ele>1823.0</ele><time>2026-03-29T17:59:06.999Z</time></trkpt><trkpt lat="36.896622073347814" lon="-108.12289596593868"><ele>1823.0</ele><time>2026-03-29T17:59:07.999Z</time></trkpt><trkpt lat="36.89668309134577" lon="-108.12286552383503"><ele>1823.0000000000002</ele><time>2026-03-29T17:59:10Z</time></trkpt><trkpt lat="36.89669114899436" lon="-108.12277868041633"><ele>1823.0</ele><time>2026-03-29T17:59:12Z</time></trkpt><trkpt lat="36.896646604544436" lon="-108.1227128689389"><ele>1823.0</ele><time>2026-03-29T17:59:13Z</time></trkpt><trkpt lat="36.89661594048182" lon="-108.12263729029418"><ele>1822.9999999999998</ele><time>2026-03-29T17:59:14Z</time></trkpt><trkpt lat="36.89659989825712" lon="-108.1225446490075"><ele>1823.0</ele><time>2026-03-29T17:59:15Z</time></trkpt><trkpt lat="36.89662564083055" lon="-108.12244445496331"><ele>1823.0</ele><time>2026-03-29T17:59:16Z</time></trkpt><trkpt lat="36.89667275183423" lon="-108.12235801436094"><ele>1823.0</ele><time>2026-03-29T17:59:17Z</time></trkpt><trkpt lat="36.89664600493422" lon="-108.12222975876514"><ele>1822.9999999999998</ele><time>2026-03-29T17:59:19Z</time></trkpt><trkpt lat="36.896570664143674" lon="-108.12218159542883"><ele>1823.0</ele><time>2026-03-29T17:59:20Z</time></trkpt><trkpt lat="36.89648743843914" lon="-108.12212786874352"><ele>1823.6666666666665</ele><time>2026-03-29T17:59:21Z</time></trkpt><trkpt lat="36.89644057865686" lon="-108.12206883369336"><ele>1824.3333333333333</ele><time>2026-03-29T17:59:22Z</time></trkpt><trkpt lat="36.896414176899995" lon="-108.12198899719094"><ele>1825.0</ele><time>2026-03-29T17:59:23Z</time></trkpt><trkpt lat="36.896390088728666" lon="-108.12186596181628"><ele>1825.6666666666665</ele><time>2026-03-29T17:59:25Z</time></trkpt><trkpt lat="36.89641901259711" lon="-108.12179321209705"><ele>1826.3333333333333</ele><time>2026-03-29T17:59:31Z</time></trkpt><trkpt lat="36.8964552403505" lon="-108.12167491847445"><ele>1827.0</ele><time>2026-03-29T17:59:33Z</time></trkpt><trkpt lat="36.89648671770848" lon="-108.12160659941217"><ele>1827.3999999999999</ele><time>2026-03-29T17:59:34Z</time></trkpt><trkpt lat="36.89655083496766" lon="-108.12151001401922"><ele>1827.7999999999997</ele><time>2026-03-29T17:59:35Z</time></trkpt><trkpt lat="36.89659078517347" lon="-108.12140780236568"><ele>1828.2</ele><time>2026-03-29T17:59:36Z</time></trkpt><trkpt lat="36.89664567541006" lon="-108.12130755845344"><ele>1828.6</ele><time>2026-03-29T17:59:37Z</time></trkpt><trkpt lat="36.89670662518123" lon="-108.12116963907033"><ele>1829.0</ele><time>2026-03-29T17:59:38Z</time></trkpt><trkpt lat="36.89676550469695" lon="-108.1210423307798"><ele>1829.6666666666665</ele><time>2026-03-29T17:59:39Z</time></trkpt><trkpt lat="36.89681135119577" lon="-108.12093651005058"><ele>1830.3333333333333</ele><time>2026-03-29T17:59:40Z</time></trkpt><trkpt lat="36.89685165022845" lon="-108.12087330818464"><ele>1831.0</ele><time>2026-03-29T17:59:41Z</time></trkpt><trkpt lat="36.896898596678305" lon="-108.12081565488825"><ele>1831.6666666666665</ele><time>2026-03-29T17:59:42Z</time></trkpt><trkpt lat="36.896928404587534" lon="-108.12072575077315"><ele>1832.3333333333333</ele><time>2026-03-29T17:59:43Z</time></trkpt><trkpt lat="36.89700054516176" lon="-108.12063196505291"><ele>1833.0</ele><time>2026-03-29T17:59:45Z</time></trkpt><trkpt lat="36.89706198670372" lon="-108.12061407777516"><ele>1833.2</ele><time>2026-03-29T17:59:46Z</time></trkpt><trkpt lat="36.89716351758376" lon="-108.1205069938791"><ele>1833.4</ele><time>2026-03-29T17:59:48Z</time></trkpt><trkpt lat="36.89722994808798" lon="-108.12043840780544"><ele>1833.6000000000001</ele><time>2026-03-29T17:59:49Z</time></trkpt><trkpt lat="36.89728076643485" lon="-108.12029961646464"><ele>1833.8000000000002</ele><time>2026-03-29T17:59:50Z</time></trkpt><trkpt lat="36.897319109137015" lon="-108.12018564807443"><ele>1834.0</ele><time>2026-03-29T17:59:51Z</time></trkpt><trkpt lat="36.89732916161465" lon="-108.12008624046383"><ele>1834.0000000000002</ele><time>2026-03-29T17:59:52Z</time></trkpt><trkpt lat="36.897364279579286" lon="-108.11999326410253"><ele>1834.0</ele><time>2026-03-29T17:59:53Z</time></trkpt><trkpt lat="36.89740725121986" lon="-108.11990823925065"><ele>1834.0</ele><time>2026-03-29T17:59:54Z</time></trkpt><trkpt lat="36.89743993935743" lon="-108.11982723657897"><ele>1834.0</ele><time>2026-03-29T17:59:55Z</time></trkpt><trkpt lat="36.89749888979311" lon="-108.11977282327354"><ele>1834.0000000000002</ele><time>2026-03-29T17:59:56Z</time></trkpt><trkpt lat="36.89756157802414" lon="-108.119734659207"><ele>1834.0</ele><time>2026-03-29T17:59:57Z</time></trkpt><trkpt lat="36.89764170918761" lon="-108.1196961916903"><ele>1834.2</ele><time>2026-03-29T17:59:58Z</time></trkpt><trkpt lat="36.897718224267194" lon="-108.11963354638809"><ele>1834.4</ele><time>2026-03-29T17:59:59Z</time></trkpt><trkpt lat="36.89777414803345" lon="-108.11952257769916"><ele>1834.6</ele><time>2026-03-29T18:00:00Z</time></trkpt><trkpt lat="36.89782878403054" lon="-108.1193930570748"><ele>1834.8</ele><time>2026-03-29T18:00:01Z</time></trkpt><trkpt lat="36.89790774466358" lon="-108.11930627590417"><ele>1835.0</ele><time>2026-03-29T18:00:02Z</time></trkpt><trkpt lat="36.897985915644654" lon="-108.11922364770105"><ele>1834.9999999999998</ele><time>2026-03-29T18:00:03Z</time></trkpt><trkpt lat="36.89805970932227" lon="-108.11917543179287"><ele>1835.0</ele><time>2026-03-29T18:00:04Z</time></trkpt><trkpt lat="36.89815047133823" lon="-108.11913542034019"><ele>1835.0</ele><time>2026-03-29T18:00:05Z</time></trkpt><trkpt lat="36.89823023054176" lon="-108.11911631438105"><ele>1835.0</ele><time>2026-03-29T18:00:06Z</time></trkpt><trkpt lat="36.898317758047" lon="-108.11908957489948"><ele>1834.9999999999998</ele><time>2026-03-29T18:00:07Z</time></trkpt><trkpt lat="36.89838595393485" lon="-108.11904000424725"><ele>1835.0</ele><time>2026-03-29T18:00:08Z</time></trkpt><trkpt lat="36.8984537373615" lon="-108.11896931303552"><ele>1834.6</ele><time>2026-03-29T18:00:09Z</time></trkpt><trkpt lat="36.89852811339199" lon="-108.11889229506708"><ele>1834.2</ele><time>2026-03-29T18:00:10Z</time></trkpt><trkpt lat="36.898602495803836" lon="-108.11882221790994"><ele>1833.8000000000002</ele><time>2026-03-29T18:00:11Z</time></trkpt><trkpt lat="36.89867959158836" lon="-108.11874003720483"><ele>1833.4</ele><time>2026-03-29T18:00:12Z</time></trkpt><trkpt lat="36.89876857272107" lon="-108.11866046273899"><ele>1833.0</ele><time>2026-03-29T18:00:13Z</time></trkpt><trkpt lat="36.89883808358913" lon="-108.11857501209144"><ele>1833.0</ele><time>2026-03-29T18:00:14Z</time></trkpt><trkpt lat="36.89888166080843" lon="-108.11849284300577"><ele>1833.0</ele><time>2026-03-29T18:00:15Z</time></trkpt><trkpt lat="36.89891691835591" lon="-108.11837177610364"><ele>1833.0</ele><time>2026-03-29T18:00:16Z</time></trkpt><trkpt lat="36.898980653953906" lon="-108.1182791064763"><ele>1833.0</ele><time>2026-03-29T18:00:17Z</time></trkpt><trkpt lat="36.89904010933209" lon="-108.11820958052448"><ele>1833.0</ele><time>2026-03-29T18:00:18Z</time></trkpt><trkpt lat="36.89908944256297" lon="-108.11815878359761"><ele>1833.0</ele><time>2026-03-29T18:00:19Z</time></trkpt><trkpt lat="36.8991361431264" lon="-108.11808125208121"><ele>1833.0</ele><time>2026-03-29T18:00:20Z</time></trkpt><trkpt lat="36.89917838960477" lon="-108.11800221148864"><ele>1833.0</ele><time>2026-03-29T18:00:21Z</time></trkpt><trkpt lat="36.8992279415165" lon="-108.11792929982728"><ele>1833.0</ele><time>2026-03-29T18:00:22Z</time></trkpt><trkpt lat="36.89928277246754" lon="-108.11788028147518"><ele>1833.0</ele><time>2026-03-29T18:00:23Z</time></trkpt><trkpt lat="36.89941291622783" lon="-108.11780973681392"><ele>1833.0</ele><time>2026-03-29T18:00:25Z</time></trkpt><trkpt lat="36.89947796490933" lon="-108.11774273898837"><ele>1833.0</ele><time>2026-03-29T18:00:26Z</time></trkpt><trkpt lat="36.8995843246707" lon="-108.11768193246532"><ele>1832.75</ele><time>2026-03-29T18:00:27Z</time></trkpt><trkpt lat="36.89968637173671" lon="-108.11761399954956"><ele>1832.5</ele><time>2026-03-29T18:00:28Z</time></trkpt><trkpt lat="36.89974165288485" lon="-108.11751126624497"><ele>1832.25</ele><time>2026-03-29T18:00:29Z</time></trkpt><trkpt lat="36.89978535006014" lon="-108.11736993117654"><ele>1832.0</ele><time>2026-03-29T18:00:30Z</time></trkpt><trkpt lat="36.899871176117735" lon="-108.11726182863875"><ele>1832.3333333333333</ele><time>2026-03-29T18:00:31Z</time></trkpt><trkpt lat="36.899949626602364" lon="-108.11721031705164"><ele>1832.6666666666665</ele><time>2026-03-29T18:00:32Z</time></trkpt><trkpt lat="36.90002151754023" lon="-108.11714567516809"><ele>1833.0</ele><time>2026-03-29T18:00:33Z</time></trkpt><trkpt lat="36.90006904780695" lon="-108.11705079197291"><ele>1833.3333333333335</ele><time>2026-03-29T18:00:34Z</time></trkpt><trkpt lat="36.90012631653482" lon="-108.11696962323475"><ele>1833.6666666666667</ele><time>2026-03-29T18:00:35Z</time></trkpt><trkpt lat="36.90020544734491" lon="-108.11694519741859"><ele>1834.0</ele><time>2026-03-29T18:00:36Z</time></trkpt><trkpt lat="36.90029834453623" lon="-108.11691784547345"><ele>1834.0</ele><time>2026-03-29T18:00:37Z</time></trkpt><trkpt lat="36.90037156642552" lon="-108.11684414318329"><ele>1834.0</ele><time>2026-03-29T18:00:38Z</time></trkpt><trkpt lat="36.90041448676406" lon="-108.11672530695225"><ele>1834.0</ele><time>2026-03-29T18:00:39Z</time></trkpt><trkpt lat="36.90047046335993" lon="-108.11656556228895"><ele>1834.0</ele><time>2026-03-29T18:00:40Z</time></trkpt><trkpt lat="36.900528109072035" lon="-108.1164115044569"><ele>1834.75</ele><time>2026-03-29T18:00:41Z</time></trkpt><trkpt lat="36.90058279050869" lon="-108.11626230078812"><ele>1835.5</ele><time>2026-03-29T18:00:42Z</time></trkpt><trkpt lat="36.90062859559386" lon="-108.11612973086521"><ele>1836.25</ele><time>2026-03-29T18:00:43Z</time></trkpt><trkpt lat="36.900684042647356" lon="-108.11601613784536"><ele>1837.0</ele><time>2026-03-29T18:00:44Z</time></trkpt><trkpt lat="36.90073753765091" lon="-108.11588488176325"><ele>1837.0</ele><time>2026-03-29T18:00:45Z</time></trkpt><trkpt lat="36.90080134631409" lon="-108.1157585540205"><ele>1836.9999999999998</ele><time>2026-03-29T18:00:46Z</time></trkpt><trkpt lat="36.90084861108376" lon="-108.11562928875338"><ele>1836.9999999999998</ele><time>2026-03-29T18:00:47Z</time></trkpt><trkpt lat="36.90090771368553" lon="-108.11550518858444"><ele>1837.0</ele><time>2026-03-29T18:00:48Z</time></trkpt><trkpt lat="36.90093247854748" lon="-108.11538774713715"><ele>1837.0</ele><time>2026-03-29T18:00:49Z</time></trkpt><trkpt lat="36.90094064671265" lon="-108.11526480091564"><ele>1838.0000000000002</ele><time>2026-03-29T18:00:50Z</time></trkpt><trkpt lat="36.90096871186303" lon="-108.11518067958026"><ele>1839.0</ele><time>2026-03-29T18:00:51Z</time></trkpt><trkpt lat="36.90104261595585" lon="-108.11517546499812"><ele>1840.0</ele><time>2026-03-29T18:00:52Z</time></trkpt><trkpt lat="36.901113715620774" lon="-108.11519275848698"><ele>1841.0</ele><time>2026-03-29T18:00:53Z</time></trkpt><trkpt lat="36.901190180367834" lon="-108.1152289748656"><ele>1842.0000000000002</ele><time>2026-03-29T18:00:54Z</time></trkpt><trkpt lat="36.90128501545544" lon="-108.11525911864477"><ele>1843.0</ele><time>2026-03-29T18:00:55Z</time></trkpt><trkpt lat="36.90140749088839" lon="-108.11527410704555"><ele>1843.0</ele><time>2026-03-29T18:00:55.999Z</time></trkpt><trkpt lat="36.90153365984446" lon="-108.11529917344225"><ele>1843.0000000000002</ele><time>2026-03-29T18:00:56.999Z</time></trkpt><trkpt lat="36.90164980605399" lon="-108.11532742139211"><ele>1843.0000000000002</ele><time>2026-03-29T18:00:57.999Z</time></trkpt><trkpt lat="36.90175136983767" lon="-108.11534771897887"><ele>1843.0</ele><time>2026-03-29T18:00:58.999Z</time></trkpt><trkpt lat="36.901845128267745" lon="-108.11535262593867"><ele>1843.0</ele><time>2026-03-29T18:00:59.999Z</time></trkpt><trkpt lat="36.90192747644339" lon="-108.11536303623045"><ele>1843.3333333333335</ele><time>2026-03-29T18:01:00.999Z</time></trkpt><trkpt lat="36.90200492734915" lon="-108.1153842272352"><ele>1843.6666666666667</ele><time>2026-03-29T18:01:01.999Z</time></trkpt><trkpt lat="36.902089143167125" lon="-108.11540610904976"><ele>1844.0</ele><time>2026-03-29T18:01:02.999Z</time></trkpt><trkpt lat="36.90217795085921" lon="-108.11542601829895"><ele>1844.3333333333335</ele><time>2026-03-29T18:01:03.999Z</time></trkpt><trkpt lat="36.90227210703546" lon="-108.11543964283642"><ele>1844.6666666666667</ele><time>2026-03-29T18:01:04.999Z</time></trkpt><trkpt lat="36.90236993036357" lon="-108.11543688145697"><ele>1845.0</ele><time>2026-03-29T18:01:05.999Z</time></trkpt><trkpt lat="36.902455187165664" lon="-108.11542287755942"><ele>1845.0</ele><time>2026-03-29T18:01:06.999Z</time></trkpt><trkpt lat="36.902557963606895" lon="-108.11534573871036"><ele>1845.0</ele><time>2026-03-29T18:01:08.999Z</time></trkpt><trkpt lat="36.90265101325233" lon="-108.11524908110378"><ele>1845.0</ele><time>2026-03-29T18:01:10.999Z</time></trkpt><trkpt lat="36.902792854313795" lon="-108.11518988805435"><ele>1845.0</ele><time>2026-03-29T18:01:12.999Z</time></trkpt><trkpt lat="36.902877000242455" lon="-108.11512464149203"><ele>1844.75</ele><time>2026-03-29T18:01:13.999Z</time></trkpt><trkpt lat="36.90294454360651" lon="-108.11500600529284"><ele>1844.5</ele><time>2026-03-29T18:01:15Z</time></trkpt><trkpt lat="36.90302753771425" lon="-108.1148671017673"><ele>1844.25</ele><time>2026-03-29T18:01:16Z</time></trkpt><trkpt lat="36.90312613189095" lon="-108.1147502982184"><ele>1844.0</ele><time>2026-03-29T18:01:17Z</time></trkpt><trkpt lat="36.90320980117728" lon="-108.1146644744996"><ele>1844.1666666666665</ele><time>2026-03-29T18:01:18Z</time></trkpt><trkpt lat="36.90327276120286" lon="-108.11455802454215"><ele>1844.3333333333333</ele><time>2026-03-29T18:01:19Z</time></trkpt><trkpt lat="36.90332707189143" lon="-108.11449030289992"><ele>1844.5</ele><time>2026-03-29T18:01:20Z</time></trkpt><trkpt lat="36.90340089802535" lon="-108.1144829762917"><ele>1844.6666666666665</ele><time>2026-03-29T18:01:21Z</time></trkpt><trkpt lat="36.90348070415352" lon="-108.11451493805863"><ele>1844.8333333333333</ele><time>2026-03-29T18:01:22Z</time></trkpt><trkpt lat="36.903577276250516" lon="-108.11454173640044"><ele>1845.0</ele><time>2026-03-29T18:01:23Z</time></trkpt><trkpt lat="36.90366978272176" lon="-108.11453749959696"><ele>1845.0</ele><time>2026-03-29T18:01:24Z</time></trkpt><trkpt lat="36.903746467889114" lon="-108.1144468636855"><ele>1845.0</ele><time>2026-03-29T18:01:26Z</time></trkpt><trkpt lat="36.903734179107325" lon="-108.11434846846225"><ele>1845.0</ele><time>2026-03-29T18:01:27Z</time></trkpt><trkpt lat="36.903723920932485" lon="-108.11424000599416"><ele>1845.0</ele><time>2026-03-29T18:01:28Z</time></trkpt><trkpt lat="36.90374909172028" lon="-108.11413650977113"><ele>1845.0</ele><time>2026-03-29T18:01:29Z</time></trkpt><trkpt lat="36.90381532800875" lon="-108.11403891761458"><ele>1845.0</ele><time>2026-03-29T18:01:30Z</time></trkpt><trkpt lat="36.90389750939836" lon="-108.11392956156651"><ele>1845.0</ele><time>2026-03-29T18:01:31Z</time></trkpt><trkpt lat="36.90397166680212" lon="-108.11382181283294"><ele>1845.0</ele><time>2026-03-29T18:01:32Z</time></trkpt><trkpt lat="36.90403800811696" lon="-108.1137260935678"><ele>1845.0</ele><time>2026-03-29T18:01:33Z</time></trkpt><trkpt lat="36.90411524325178" lon="-108.1136286459412"><ele>1845.0</ele><time>2026-03-29T18:01:34Z</time></trkpt><trkpt lat="36.904202613576444" lon="-108.11353843182289"><ele>1844.75</ele><time>2026-03-29T18:01:35Z</time></trkpt><trkpt lat="36.90429863370137" lon="-108.11343158183963"><ele>1844.5</ele><time>2026-03-29T18:01:36Z</time></trkpt><trkpt lat="36.90437964789436" lon="-108.11329252887653"><ele>1844.25</ele><time>2026-03-29T18:01:37Z</time></trkpt><trkpt lat="36.9044855420199" lon="-108.11313661258644"><ele>1844.0</ele><time>2026-03-29T18:01:38Z</time></trkpt><trkpt lat="36.90461673240511" lon="-108.11302489264064"><ele>1844.6666666666665</ele><time>2026-03-29T18:01:39Z</time></trkpt><trkpt lat="36.90473720005335" lon="-108.11292328200575"><ele>1845.3333333333335</ele><time>2026-03-29T18:01:40Z</time></trkpt><trkpt lat="36.904861870912754" lon="-108.11280509107497"><ele>1846.0</ele><time>2026-03-29T18:01:41Z</time></trkpt><trkpt lat="36.90503062336795" lon="-108.11268164656002"><ele>1845.0</ele><time>2026-03-29T18:01:42Z</time></trkpt><trkpt lat="36.905241216356124" lon="-108.11258834928822"><ele>1844.0</ele><time>2026-03-29T18:01:43Z</time></trkpt><trkpt lat="36.90543992832097" lon="-108.11252415340797"><ele>1843.0</ele><time>2026-03-29T18:01:44Z</time></trkpt><trkpt lat="36.90560050981098" lon="-108.1124533902335"><ele>1843.0</ele><time>2026-03-29T18:01:45Z</time></trkpt><trkpt lat="36.90574548478494" lon="-108.11237568180215"><ele>1843.0</ele><time>2026-03-29T18:01:46Z</time></trkpt><trkpt lat="36.905869335169996" lon="-108.11227762855246"><ele>1843.0</ele><time>2026-03-29T18:01:47Z</time></trkpt><trkpt lat="36.90595096480314" lon="-108.11215017469915"><ele>1843.0</ele><time>2026-03-29T18:01:48Z</time></trkpt><trkpt lat="36.906040816158566" lon="-108.11199867439011"><ele>1843.0</ele><time>2026-03-29T18:01:49Z</time></trkpt><trkpt lat="36.90614355326404" lon="-108.11185924874476"><ele>1843.0</ele><time>2026-03-29T18:01:50Z</time></trkpt><trkpt lat="36.906231588888616" lon="-108.11173216165956"><ele>1843.0</ele><time>2026-03-29T18:01:51Z</time></trkpt><trkpt lat="36.906295429326384" lon="-108.11160461249398"><ele>1843.0</ele><time>2026-03-29T18:01:52Z</time></trkpt><trkpt lat="36.906335901347795" lon="-108.11145838486325"><ele>1843.25</ele><time>2026-03-29T18:01:53Z</time></trkpt><trkpt lat="36.9063563204141" lon="-108.11129552509412"><ele>1843.5</ele><time>2026-03-29T18:01:54Z</time></trkpt><trkpt lat="36.90637836816281" lon="-108.11110459591612"><ele>1843.75</ele><time>2026-03-29T18:01:55Z</time></trkpt><trkpt lat="36.9064020688185" lon="-108.11090973653234"><ele>1844.0</ele><time>2026-03-29T18:01:56Z</time></trkpt><trkpt lat="36.90641972421503" lon="-108.11071526124849"><ele>1845.3333333333333</ele><time>2026-03-29T18:01:57Z</time></trkpt><trkpt lat="36.90644456848184" lon="-108.11052672608584"><ele>1846.6666666666665</ele><time>2026-03-29T18:01:58Z</time></trkpt><trkpt lat="36.906468031483" lon="-108.11034049251695"><ele>1848.0</ele><time>2026-03-29T18:01:59Z</time></trkpt><trkpt lat="36.90648475384272" lon="-108.11014420193527"><ele>1848.0</ele><time>2026-03-29T18:02:00Z</time></trkpt><trkpt lat="36.906500653340075" lon="-108.10995596521471"><ele>1848.0</ele><time>2026-03-29T18:02:01Z</time></trkpt><trkpt lat="36.90651848558512" lon="-108.10978470675053"><ele>1848.0</ele><time>2026-03-29T18:02:02Z</time></trkpt><trkpt lat="36.90652489414261" lon="-108.10960905466257"><ele>1848.0</ele><time>2026-03-29T18:02:03Z</time></trkpt><trkpt lat="36.90650166642409" lon="-108.10943395119122"><ele>1848.75</ele><time>2026-03-29T18:02:04Z</time></trkpt><trkpt lat="36.90648696598849" lon="-108.10927086916024"><ele>1849.5</ele><time>2026-03-29T18:02:05Z</time></trkpt><trkpt lat="36.906487153344024" lon="-108.10909406366069"><ele>1850.25</ele><time>2026-03-29T18:02:06Z</time></trkpt><trkpt lat="36.90648490507066" lon="-108.10891739625723"><ele>1851.0</ele><time>2026-03-29T18:02:07Z</time></trkpt><trkpt lat="36.90649684975819" lon="-108.10875191022812"><ele>1851.5</ele><time>2026-03-29T18:02:08Z</time></trkpt><trkpt lat="36.90649714220355" lon="-108.10858334632256"><ele>1852.0</ele><time>2026-03-29T18:02:09Z</time></trkpt><trkpt lat="36.90648014932461" lon="-108.1084000690213"><ele>1852.5</ele><time>2026-03-29T18:02:10Z</time></trkpt><trkpt lat="36.90645908471273" lon="-108.10822166203553"><ele>1853.0</ele><time>2026-03-29T18:02:11Z</time></trkpt><trkpt lat="36.90644579353201" lon="-108.10805971590118"><ele>1854.2</ele><time>2026-03-29T18:02:12Z</time></trkpt><trkpt lat="36.906449453281134" lon="-108.10790535551308"><ele>1855.4</ele><time>2026-03-29T18:02:13Z</time></trkpt><trkpt lat="36.90643732844918" lon="-108.10777335689805"><ele>1856.6000000000001</ele><time>2026-03-29T18:02:14Z</time></trkpt><trkpt lat="36.90638165319394" lon="-108.10766360843881"><ele>1857.8000000000002</ele><time>2026-03-29T18:02:15Z</time></trkpt><trkpt lat="36.90634640504326" lon="-108.10755625880712"><ele>1859.0</ele><time>2026-03-29T18:02:16Z</time></trkpt><trkpt lat="36.90638063526502" lon="-108.10743452496996"><ele>1859.25</ele><time>2026-03-29T18:02:17Z</time></trkpt><trkpt lat="36.906396208710966" lon="-108.10727694036272"><ele>1859.5</ele><time>2026-03-29T18:02:18Z</time></trkpt><trkpt lat="36.90638800872268" lon="-108.10711056825194"><ele>1859.75</ele><time>2026-03-29T18:02:19Z</time></trkpt><trkpt lat="36.90638967167112" lon="-108.10694277121127"><ele>1860.0</ele><time>2026-03-29T18:02:20Z</time></trkpt><trkpt lat="36.90639107764512" lon="-108.10675314615119"><ele>1860.0</ele><time>2026-03-29T18:02:21Z</time></trkpt><trkpt lat="36.90637061354283" lon="-108.10658630747508"><ele>1860.0</ele><time>2026-03-29T18:02:22Z</time></trkpt><trkpt lat="36.90635624922785" lon="-108.10644772812749"><ele>1860.0</ele><time>2026-03-29T18:02:23Z</time></trkpt><trkpt lat="36.90635220981369" lon="-108.10629567321207"><ele>1860.0</ele><time>2026-03-29T18:02:24Z</time></trkpt><trkpt lat="36.906341699097" lon="-108.1061496028038"><ele>1860.0</ele><time>2026-03-29T18:02:25Z</time></trkpt><trkpt lat="36.90632974232052" lon="-108.1059876212906"><ele>1860.0</ele><time>2026-03-29T18:02:26Z</time></trkpt><trkpt lat="36.906315664467044" lon="-108.10582068437701"><ele>1860.0</ele><time>2026-03-29T18:02:27Z</time></trkpt><trkpt lat="36.90630698705211" lon="-108.10566728519527"><ele>1860.0</ele><time>2026-03-29T18:02:28Z</time></trkpt><trkpt lat="36.90629995929814" lon="-108.10549629391325"><ele>1860.25</ele><time>2026-03-29T18:02:29Z</time></trkpt><trkpt lat="36.90628781026515" lon="-108.1053274925277"><ele>1860.5</ele><time>2026-03-29T18:02:30Z</time></trkpt><trkpt lat="36.90627412044019" lon="-108.10514787032936"><ele>1860.75</ele><time>2026-03-29T18:02:31Z</time></trkpt><trkpt lat="36.906265903011274" lon="-108.10495888947236"><ele>1861.0</ele><time>2026-03-29T18:02:32Z</time></trkpt><trkpt lat="36.906280130917715" lon="-108.10476375522175"><ele>1862.3333333333335</ele><time>2026-03-29T18:02:33Z</time></trkpt><trkpt lat="36.9062884978418" lon="-108.10454696668772"><ele>1863.6666666666665</ele><time>2026-03-29T18:02:34Z</time></trkpt><trkpt lat="36.90628507641304" lon="-108.10432928585843"><ele>1865.0</ele><time>2026-03-29T18:02:35Z</time></trkpt><trkpt lat="36.90628884597171" lon="-108.10414855563867"><ele>1865.4</ele><time>2026-03-29T18:02:36Z</time></trkpt><trkpt lat="36.906289427770005" lon="-108.10399178870404"><ele>1865.8</ele><time>2026-03-29T18:02:37Z</time></trkpt><trkpt lat="36.90627199274455" lon="-108.1038608791051"><ele>1866.1999999999998</ele><time>2026-03-29T18:02:38Z</time></trkpt><trkpt lat="36.90626266993016" lon="-108.10375762800152"><ele>1866.6</ele><time>2026-03-29T18:02:39Z</time></trkpt><trkpt lat="36.90627908848455" lon="-108.10367809960314"><ele>1867.0</ele><time>2026-03-29T18:02:40Z</time></trkpt><trkpt lat="36.906277609784915" lon="-108.10349700301958"><ele>1867.0</ele><time>2026-03-29T18:02:42Z</time></trkpt><trkpt lat="36.906272234310066" lon="-108.10338062827756"><ele>1866.9999999999998</ele><time>2026-03-29T18:02:43Z</time></trkpt><trkpt lat="36.90626906012213" lon="-108.10328408482512"><ele>1866.9999999999998</ele><time>2026-03-29T18:02:44Z</time></trkpt><trkpt lat="36.90626890176164" lon="-108.10315916445863"><ele>1867.0</ele><time>2026-03-29T18:02:45Z</time></trkpt><trkpt lat="36.906258955866505" lon="-108.10301794211229"><ele>1867.0</ele><time>2026-03-29T18:02:46Z</time></trkpt><trkpt lat="36.90627372617384" lon="-108.10289487374054"><ele>1867.1666666666667</ele><time>2026-03-29T18:02:47Z</time></trkpt><trkpt lat="36.906278361246045" lon="-108.10280660712385"><ele>1867.3333333333335</ele><time>2026-03-29T18:02:48Z</time></trkpt><trkpt lat="36.906271453969765" lon="-108.10270922106898"><ele>1867.5</ele><time>2026-03-29T18:02:49Z</time></trkpt><trkpt lat="36.9062356078008" lon="-108.1026122554945"><ele>1867.6666666666665</ele><time>2026-03-29T18:02:50Z</time></trkpt><trkpt lat="36.90622339155583" lon="-108.1025038268323"><ele>1867.8333333333333</ele><time>2026-03-29T18:02:51Z</time></trkpt><trkpt lat="36.90620619489627" lon="-108.1024003184487"><ele>1868.0</ele><time>2026-03-29T18:02:52Z</time></trkpt><trkpt lat="36.90617252043062" lon="-108.10229482833464"><ele>1868.4999999999998</ele><time>2026-03-29T18:02:53Z</time></trkpt><trkpt lat="36.906127973351545" lon="-108.10219544693666"><ele>1869.0</ele><time>2026-03-29T18:02:54Z</time></trkpt><trkpt lat="36.9060702960681" lon="-108.10211379223544"><ele>1869.5</ele><time>2026-03-29T18:02:55Z</time></trkpt><trkpt lat="36.90601376821694" lon="-108.10204243257107"><ele>1870.0</ele><time>2026-03-29T18:02:56Z</time></trkpt><trkpt lat="36.90595098936138" lon="-108.10201969173495"><ele>1870.4999999999998</ele><time>2026-03-29T18:02:57Z</time></trkpt><trkpt lat="36.90583643361722" lon="-108.10207527274454"><ele>1871.0</ele><time>2026-03-29T18:02:59Z</time></trkpt><trkpt lat="36.90574751916446" lon="-108.10195749109272"><ele>1872.1999999999998</ele><time>2026-03-29T18:03:01Z</time></trkpt><trkpt lat="36.90568003841603" lon="-108.10190315558897"><ele>1873.3999999999999</ele><time>2026-03-29T18:03:02Z</time></trkpt><trkpt lat="36.90559426477735" lon="-108.1019100685016"><ele>1874.6</ele><time>2026-03-29T18:03:03Z</time></trkpt><trkpt lat="36.9054889874151" lon="-108.10194916957543"><ele>1875.8</ele><time>2026-03-29T18:03:04Z</time></trkpt><trkpt lat="36.905389462137684" lon="-108.10196055013587"><ele>1877.0</ele><time>2026-03-29T18:03:04.999Z</time></trkpt><trkpt lat="36.90528752800615" lon="-108.10196969134573"><ele>1876.9999999999998</ele><time>2026-03-29T18:03:05.999Z</time></trkpt><trkpt lat="36.9051851719331" lon="-108.10197815807369"><ele>1877.0</ele><time>2026-03-29T18:03:06.999Z</time></trkpt><trkpt lat="36.9051055518985" lon="-108.1019876961395"><ele>1877.0</ele><time>2026-03-29T18:03:07.999Z</time></trkpt><trkpt lat="36.90503068046401" lon="-108.10198411584494"><ele>1877.0</ele><time>2026-03-29T18:03:08.999Z</time></trkpt><trkpt lat="36.90493454684857" lon="-108.1019764074732"><ele>1876.9999999999998</ele><time>2026-03-29T18:03:09.999Z</time></trkpt><trkpt lat="36.904849876594646" lon="-108.10197381424264"><ele>1877.0</ele><time>2026-03-29T18:03:10.999Z</time></trkpt><trkpt lat="36.904761571851616" lon="-108.10201893042108"><ele>1877.6666666666665</ele><time>2026-03-29T18:03:11.999Z</time></trkpt><trkpt lat="36.90466318896303" lon="-108.102080114924"><ele>1878.3333333333333</ele><time>2026-03-29T18:03:12.999Z</time></trkpt><trkpt lat="36.904577941562835" lon="-108.10211398992672"><ele>1879.0</ele><time>2026-03-29T18:03:13.999Z</time></trkpt><trkpt lat="36.904514783010235" lon="-108.10210854039954"><ele>1879.6666666666665</ele><time>2026-03-29T18:03:14.999Z</time></trkpt><trkpt lat="36.90445549718431" lon="-108.10206270926953"><ele>1880.3333333333333</ele><time>2026-03-29T18:03:15.999Z</time></trkpt><trkpt lat="36.904407308509" lon="-108.10200243342788"><ele>1881.0</ele><time>2026-03-29T18:03:16.999Z</time></trkpt><trkpt lat="36.90434366471842" lon="-108.10193891926117"><ele>1881.0</ele><time>2026-03-29T18:03:17.999Z</time></trkpt><trkpt lat="36.90426904201267" lon="-108.10188888490325"><ele>1881.0</ele><time>2026-03-29T18:03:18.999Z</time></trkpt><trkpt lat="36.904189149547555" lon="-108.10185358584032"><ele>1881.0</ele><time>2026-03-29T18:03:19.999Z</time></trkpt><trkpt lat="36.90410173226799" lon="-108.1017751085849"><ele>1881.0</ele><time>2026-03-29T18:03:21Z</time></trkpt><trkpt lat="36.90399951516746" lon="-108.10170167256985"><ele>1881.0</ele><time>2026-03-29T18:03:22Z</time></trkpt><trkpt lat="36.90387426499" lon="-108.10165250059671"><ele>1880.75</ele><time>2026-03-29T18:03:23Z</time></trkpt><trkpt lat="36.9037389856942" lon="-108.10159027568706"><ele>1880.5</ele><time>2026-03-29T18:03:24Z</time></trkpt><trkpt lat="36.903622882951694" lon="-108.10155015791509"><ele>1880.25</ele><time>2026-03-29T18:03:25Z</time></trkpt><trkpt lat="36.90348561911742" lon="-108.10155290191818"><ele>1880.0</ele><time>2026-03-29T18:03:26Z</time></trkpt><trkpt lat="36.903320847920135" lon="-108.10161196371959"><ele>1880.0</ele><time>2026-03-29T18:03:27Z</time></trkpt><trkpt lat="36.90315094690439" lon="-108.10163263036418"><ele>1880.0</ele><time>2026-03-29T18:03:28Z</time></trkpt><trkpt lat="36.90302780529196" lon="-108.10162116424914"><ele>1880.0</ele><time>2026-03-29T18:03:29Z</time></trkpt><trkpt lat="36.90292974024105" lon="-108.10160306232794"><ele>1880.0</ele><time>2026-03-29T18:03:30Z</time></trkpt><trkpt lat="36.90286506590471" lon="-108.1015822571336"><ele>1881.6</ele><time>2026-03-29T18:03:31Z</time></trkpt><trkpt lat="36.90283380424814" lon="-108.10146999962294"><ele>1883.2</ele><time>2026-03-29T18:03:33Z</time></trkpt><trkpt lat="36.90284706090892" lon="-108.10136874971658"><ele>1884.8000000000002</ele><time>2026-03-29T18:03:34Z</time></trkpt><trkpt lat="36.902900084996745" lon="-108.10128534853837"><ele>1886.4</ele><time>2026-03-29T18:03:35Z</time></trkpt><trkpt lat="36.90298651441537" lon="-108.10122232771718"><ele>1888.0</ele><time>2026-03-29T18:03:36Z</time></trkpt><trkpt lat="36.90308996321484" lon="-108.10116626670005"><ele>1888.0000000000002</ele><time>2026-03-29T18:03:37Z</time></trkpt><trkpt lat="36.903187916964775" lon="-108.10107936956562"><ele>1888.0</ele><time>2026-03-29T18:03:38Z</time></trkpt><trkpt lat="36.903252608088025" lon="-108.10098511512876"><ele>1888.0</ele><time>2026-03-29T18:03:39Z</time></trkpt><trkpt lat="36.90330955828371" lon="-108.10093197157087"><ele>1888.0</ele><time>2026-03-29T18:03:40Z</time></trkpt><trkpt lat="36.90337427116354" lon="-108.10092690559084"><ele>1888.0000000000002</ele><time>2026-03-29T18:03:41Z</time></trkpt><trkpt lat="36.90345444833302" lon="-108.10094506840043"><ele>1888.0</ele><time>2026-03-29T18:03:42Z</time></trkpt><trkpt lat="36.90357484924153" lon="-108.10102442458482"><ele>1888.4</ele><time>2026-03-29T18:03:44Z</time></trkpt><trkpt lat="36.90365800068109" lon="-108.1010856774153"><ele>1888.8000000000002</ele><time>2026-03-29T18:03:45Z</time></trkpt><trkpt lat="36.90379479897029" lon="-108.10108457229958"><ele>1889.2</ele><time>2026-03-29T18:03:47Z</time></trkpt><trkpt lat="36.9038746745047" lon="-108.10109448723576"><ele>1889.6</ele><time>2026-03-29T18:03:48Z</time></trkpt><trkpt lat="36.903970118121656" lon="-108.10105452108796"><ele>1890.0</ele><time>2026-03-29T18:03:50Z</time></trkpt><trkpt lat="36.90404726104824" lon="-108.10095004787276"><ele>1890.0</ele><time>2026-03-29T18:03:52Z</time></trkpt><trkpt lat="36.904079521797726" lon="-108.10086746578094"><ele>1890.0</ele><time>2026-03-29T18:03:53Z</time></trkpt><trkpt lat="36.90412232273292" lon="-108.10079534743429"><ele>1890.0</ele><time>2026-03-29T18:03:54Z</time></trkpt><trkpt lat="36.9041775553945" lon="-108.10070733994475"><ele>1890.0</ele><time>2026-03-29T18:03:56Z</time></trkpt><trkpt lat="36.904159017663545" lon="-108.10061328676662"><ele>1890.0</ele><time>2026-03-29T18:03:57Z</time></trkpt><trkpt lat="36.90415219603229" lon="-108.10050757211938"><ele>1890.0</ele><time>2026-03-29T18:03:58Z</time></trkpt><trkpt lat="36.90416863373015" lon="-108.1004075192237"><ele>1890.3333333333333</ele><time>2026-03-29T18:03:59Z</time></trkpt><trkpt lat="36.90424280824335" lon="-108.10034824913059"><ele>1890.6666666666665</ele><time>2026-03-29T18:04:01Z</time></trkpt><trkpt lat="36.90431817782093" lon="-108.10029369644242"><ele>1891.0</ele><time>2026-03-29T18:04:02Z</time></trkpt><trkpt lat="36.90438984714085" lon="-108.1002824224819"><ele>1891.3333333333333</ele><time>2026-03-29T18:04:03Z</time></trkpt><trkpt lat="36.904420601098316" lon="-108.10020611737652"><ele>1891.6666666666665</ele><time>2026-03-29T18:04:04Z</time></trkpt><trkpt lat="36.904467188919746" lon="-108.10011458593644"><ele>1892.0</ele><time>2026-03-29T18:04:05Z</time></trkpt><trkpt lat="36.90451450394944" lon="-108.09998382741514"><ele>1892.4999999999998</ele><time>2026-03-29T18:04:07Z</time></trkpt><trkpt lat="36.90456939658779" lon="-108.09990635649515"><ele>1893.0</ele><time>2026-03-29T18:04:08Z</time></trkpt><trkpt lat="36.90457093742072" lon="-108.09981108285916"><ele>1893.5</ele><time>2026-03-29T18:04:09Z</time></trkpt><trkpt lat="36.90458728712363" lon="-108.0996939128726"><ele>1894.0</ele><time>2026-03-29T18:04:10Z</time></trkpt><trkpt lat="36.9046085303748" lon="-108.09959674071673"><ele>1894.4999999999998</ele><time>2026-03-29T18:04:11Z</time></trkpt><trkpt lat="36.90456883399195" lon="-108.09950385747871"><ele>1895.0</ele><time>2026-03-29T18:04:12Z</time></trkpt><trkpt lat="36.90454288057927" lon="-108.09941653118946"><ele>1895.0</ele><time>2026-03-29T18:04:13Z</time></trkpt><trkpt lat="36.904546494393095" lon="-108.09931717929287"><ele>1895.0</ele><time>2026-03-29T18:04:14Z</time></trkpt><trkpt lat="36.90452905033489" lon="-108.09915922505326"><ele>1895.0</ele><time>2026-03-29T18:04:16Z</time></trkpt><trkpt lat="36.904637212295334" lon="-108.09910489444297"><ele>1895.0</ele><time>2026-03-29T18:04:18Z</time></trkpt><trkpt lat="36.90471469733734" lon="-108.09909815879962"><ele>1895.0</ele><time>2026-03-29T18:04:19Z</time></trkpt><trkpt lat="36.904805751679504" lon="-108.09908968508046"><ele>1895.0</ele><time>2026-03-29T18:04:20Z</time></trkpt><trkpt lat="36.90489352196498" lon="-108.09903011042265"><ele>1895.0</ele><time>2026-03-29T18:04:21Z</time></trkpt><trkpt lat="36.904986850345466" lon="-108.09895516117773"><ele>1895.0</ele><time>2026-03-29T18:04:22Z</time></trkpt><trkpt lat="36.90507186374288" lon="-108.09888940410522"><ele>1895.0</ele><time>2026-03-29T18:04:23Z</time></trkpt><trkpt lat="36.90516777900863" lon="-108.0988774695943"><ele>1895.0</ele><time>2026-03-29T18:04:24Z</time></trkpt><trkpt lat="36.90527365916551" lon="-108.09888263153596"><ele>1894.5714285714284</ele><time>2026-03-29T18:04:25Z</time></trkpt><trkpt lat="36.90535040630528" lon="-108.09887547848587"><ele>1894.1428571428573</ele><time>2026-03-29T18:04:26Z</time></trkpt><trkpt lat="36.90539586881463" lon="-108.09882096117207"><ele>1893.7142857142858</ele><time>2026-03-29T18:04:27Z</time></trkpt><trkpt lat="36.90543264077053" lon="-108.09871757339657"><ele>1893.2857142857142</ele><time>2026-03-29T18:04:28Z</time></trkpt><trkpt lat="36.90546748259318" lon="-108.09862006811994"><ele>1892.8571428571427</ele><time>2026-03-29T18:04:29Z</time></trkpt><trkpt lat="36.90551792564923" lon="-108.09856703824994"><ele>1892.4285714285716</ele><time>2026-03-29T18:04:30Z</time></trkpt><trkpt lat="36.90557689666144" lon="-108.09852811886408"><ele>1892.0</ele><time>2026-03-29T18:04:31Z</time></trkpt><trkpt lat="36.905645781936364" lon="-108.09848873151851"><ele>1892.0</ele><time>2026-03-29T18:04:32Z</time></trkpt><trkpt lat="36.90571184557417" lon="-108.09844727264054"><ele>1892.0</ele><time>2026-03-29T18:04:33Z</time></trkpt><trkpt lat="36.905767833117515" lon="-108.09840849558273"><ele>1892.0</ele><time>2026-03-29T18:04:34Z</time></trkpt><trkpt lat="36.90583823637994" lon="-108.09837349580609"><ele>1892.0</ele><time>2026-03-29T18:04:35Z</time></trkpt><trkpt lat="36.90591012063315" lon="-108.09831827068845"><ele>1892.0</ele><time>2026-03-29T18:04:36Z</time></trkpt><trkpt lat="36.905961632766676" lon="-108.0982470151928"><ele>1892.0</ele><time>2026-03-29T18:04:37Z</time></trkpt><trkpt lat="36.90597388108683" lon="-108.09816687780194"><ele>1892.0</ele><time>2026-03-29T18:04:38Z</time></trkpt><trkpt lat="36.90595270649777" lon="-108.09805280330137"><ele>1892.0</ele><time>2026-03-29T18:04:39Z</time></trkpt><trkpt lat="36.90604974703208" lon="-108.09794180132747"><ele>1891.9999999999998</ele><time>2026-03-29T18:04:41Z</time></trkpt><trkpt lat="36.90613288021621" lon="-108.09787889835071"><ele>1891.9999999999998</ele><time>2026-03-29T18:04:42Z</time></trkpt><trkpt lat="36.906193024534936" lon="-108.0977824959843"><ele>1892.0</ele><time>2026-03-29T18:04:43Z</time></trkpt><trkpt lat="36.90626948028927" lon="-108.09774551675534"><ele>1892.0</ele><time>2026-03-29T18:04:44Z</time></trkpt><trkpt lat="36.90634093954117" lon="-108.09775104440688"><ele>1892.0</ele><time>2026-03-29T18:04:45Z</time></trkpt><trkpt lat="36.90640347507803" lon="-108.09773524188371"><ele>1891.9999999999998</ele><time>2026-03-29T18:04:46Z</time></trkpt><trkpt lat="36.90648551428428" lon="-108.0976808520063"><ele>1891.9999999999998</ele><time>2026-03-29T18:04:47Z</time></trkpt><trkpt lat="36.906579744226775" lon="-108.09761161577997"><ele>1892.0</ele><time>2026-03-29T18:04:48Z</time></trkpt><trkpt lat="36.906676618122496" lon="-108.0975429404285"><ele>1892.0</ele><time>2026-03-29T18:04:49Z</time></trkpt><trkpt lat="36.90677935262404" lon="-108.09749748304309"><ele>1892.0</ele><time>2026-03-29T18:04:50Z</time></trkpt><trkpt lat="36.90688878271428" lon="-108.0974803971657"><ele>1891.9999999999998</ele><time>2026-03-29T18:04:51Z</time></trkpt><trkpt lat="36.90699363254865" lon="-108.09743763127254"><ele>1891.9999999999998</ele><time>2026-03-29T18:04:52Z</time></trkpt><trkpt lat="36.90708699094045" lon="-108.09737699958814"><ele>1892.0</ele><time>2026-03-29T18:04:53Z</time></trkpt><trkpt lat="36.90716936373298" lon="-108.09731341453848"><ele>1892.0</ele><time>2026-03-29T18:04:54Z</time></trkpt><trkpt lat="36.90723384247691" lon="-108.09726999890302"><ele>1893.3999999999999</ele><time>2026-03-29T18:04:55Z</time></trkpt><trkpt lat="36.90733469542635" lon="-108.09729167443595"><ele>1894.7999999999997</ele><time>2026-03-29T18:04:57Z</time></trkpt><trkpt lat="36.90744253401169" lon="-108.09733052767886"><ele>1896.2</ele><time>2026-03-29T18:04:58Z</time></trkpt><trkpt lat="36.90754591809822" lon="-108.0973329505835"><ele>1897.6</ele><time>2026-03-29T18:04:59Z</time></trkpt><trkpt lat="36.90763488811903" lon="-108.09731248064656"><ele>1899.0</ele><time>2026-03-29T18:05:00Z</time></trkpt><trkpt lat="36.90775948441165" lon="-108.09718594001052"><ele>1899.75</ele><time>2026-03-29T18:05:02Z</time></trkpt><trkpt lat="36.90786006519423" lon="-108.09710553765146"><ele>1900.5</ele><time>2026-03-29T18:05:03Z</time></trkpt><trkpt lat="36.90798304235848" lon="-108.09703146748356"><ele>1901.25</ele><time>2026-03-29T18:05:04Z</time></trkpt><trkpt lat="36.90810164521996" lon="-108.09694773328086"><ele>1902.0</ele><time>2026-03-29T18:05:05Z</time></trkpt><trkpt lat="36.90819500087975" lon="-108.09683518278338"><ele>1902.0</ele><time>2026-03-29T18:05:06Z</time></trkpt><trkpt lat="36.90824989617035" lon="-108.0967692479044"><ele>1902.0</ele><time>2026-03-29T18:05:07Z</time></trkpt><trkpt lat="36.90832667534582" lon="-108.0967142048442"><ele>1902.0</ele><time>2026-03-29T18:05:08Z</time></trkpt><trkpt lat="36.90843342938732" lon="-108.09667445108023"><ele>1902.0</ele><time>2026-03-29T18:05:09Z</time></trkpt><trkpt lat="36.908511856717155" lon="-108.09662337913782"><ele>1902.0</ele><time>2026-03-29T18:05:10Z</time></trkpt><trkpt lat="36.90854201806527" lon="-108.0965373384925"><ele>1902.0</ele><time>2026-03-29T18:05:11Z</time></trkpt><trkpt lat="36.90859276607057" lon="-108.0964604852428"><ele>1904.3333333333333</ele><time>2026-03-29T18:05:12Z</time></trkpt><trkpt lat="36.9086761440192" lon="-108.0964142856325"><ele>1906.6666666666665</ele><time>2026-03-29T18:05:13Z</time></trkpt><trkpt lat="36.9087655691526" lon="-108.09637375832015"><ele>1909.0</ele><time>2026-03-29T18:05:14Z</time></trkpt><trkpt lat="36.90883074168635" lon="-108.09631328937694"><ele>1911.3333333333333</ele><time>2026-03-29T18:05:15Z</time></trkpt><trkpt lat="36.90890251532568" lon="-108.09626580839667"><ele>1913.6666666666665</ele><time>2026-03-29T18:05:16Z</time></trkpt><trkpt lat="36.90899771290167" lon="-108.09623411115686"><ele>1916.0</ele><time>2026-03-29T18:05:17Z</time></trkpt><trkpt lat="36.909088883199836" lon="-108.09618650745183"><ele>1916.0</ele><time>2026-03-29T18:05:18Z</time></trkpt><trkpt lat="36.90918895539263" lon="-108.09614153177596"><ele>1916.0</ele><time>2026-03-29T18:05:19Z</time></trkpt><trkpt lat="36.90927625150002" lon="-108.09608291004484"><ele>1916.0</ele><time>2026-03-29T18:05:20Z</time></trkpt><trkpt lat="36.90935700030826" lon="-108.09607936240045"><ele>1916.0</ele><time>2026-03-29T18:05:21Z</time></trkpt><trkpt lat="36.90944522963978" lon="-108.09608045272087"><ele>1916.0</ele><time>2026-03-29T18:05:22Z</time></trkpt><trkpt lat="36.90953019068205" lon="-108.0959603311177"><ele>1916.3333333333333</ele><time>2026-03-29T18:05:24Z</time></trkpt><trkpt lat="36.90959679334792" lon="-108.0958837343178"><ele>1916.6666666666665</ele><time>2026-03-29T18:05:25Z</time></trkpt><trkpt lat="36.90967510290317" lon="-108.09580750800939"><ele>1917.0</ele><time>2026-03-29T18:05:26Z</time></trkpt><trkpt lat="36.90973844586654" lon="-108.09571965723413"><ele>1917.3333333333335</ele><time>2026-03-29T18:05:27Z</time></trkpt><trkpt lat="36.90979148948938" lon="-108.09564112956588"><ele>1917.6666666666667</ele><time>2026-03-29T18:05:28Z</time></trkpt><trkpt lat="36.90985702328961" lon="-108.0955892075878"><ele>1918.0</ele><time>2026-03-29T18:05:29Z</time></trkpt><trkpt lat="36.909922607614824" lon="-108.0955413375558"><ele>1918.2857142857142</ele><time>2026-03-29T18:05:30Z</time></trkpt><trkpt lat="36.909990269314534" lon="-108.09551752945251"><ele>1918.5714285714284</ele><time>2026-03-29T18:05:31Z</time></trkpt><trkpt lat="36.91005938893598" lon="-108.09555147957796"><ele>1918.857142857143</ele><time>2026-03-29T18:05:32Z</time></trkpt><trkpt lat="36.910107343424336" lon="-108.09562618444855"><ele>1919.142857142857</ele><time>2026-03-29T18:05:33Z</time></trkpt><trkpt lat="36.91014183974875" lon="-108.09570593497392"><ele>1919.4285714285713</ele><time>2026-03-29T18:05:34Z</time></trkpt><trkpt lat="36.91019698427988" lon="-108.09574883679984"><ele>1919.7142857142858</ele><time>2026-03-29T18:05:35Z</time></trkpt><trkpt lat="36.91026136836732" lon="-108.09579039091997"><ele>1920.0</ele><time>2026-03-29T18:05:36Z</time></trkpt><trkpt lat="36.91036985921011" lon="-108.09588098969051"><ele>1920.2</ele><time>2026-03-29T18:05:38Z</time></trkpt><trkpt lat="36.91045160531814" lon="-108.09590878958798"><ele>1920.4</ele><time>2026-03-29T18:05:39Z</time></trkpt><trkpt lat="36.910539766242515" lon="-108.09592686806779"><ele>1920.6</ele><time>2026-03-29T18:05:40Z</time></trkpt><trkpt lat="36.91061463432083" lon="-108.09595046135347"><ele>1920.8</ele><time>2026-03-29T18:05:41Z</time></trkpt><trkpt lat="36.91069469884859" lon="-108.09599033036329"><ele>1921.0</ele><time>2026-03-29T18:05:42Z</time></trkpt><trkpt lat="36.91083043248419" lon="-108.09595488168138"><ele>1921.0000000000002</ele><time>2026-03-29T18:05:44Z</time></trkpt><trkpt lat="36.910898006006704" lon="-108.09589687554569"><ele>1921.0</ele><time>2026-03-29T18:05:45Z</time></trkpt><trkpt lat="36.91095892545941" lon="-108.09583132585911"><ele>1921.0</ele><time>2026-03-29T18:05:46Z</time></trkpt><trkpt lat="36.91098027333949" lon="-108.09572214883437"><ele>1921.0</ele><time>2026-03-29T18:05:47Z</time></trkpt><trkpt lat="36.911000863543606" lon="-108.09561684467168"><ele>1921.0000000000002</ele><time>2026-03-29T18:05:48Z</time></trkpt><trkpt lat="36.911037308111204" lon="-108.0955333830277"><ele>1921.0</ele><time>2026-03-29T18:05:49Z</time></trkpt><trkpt lat="36.91110250101704" lon="-108.09550003948999"><ele>1920.5000000000002</ele><time>2026-03-29T18:05:50Z</time></trkpt><trkpt lat="36.91113501969377" lon="-108.09542843903384"><ele>1920.0</ele><time>2026-03-29T18:05:51Z</time></trkpt><trkpt lat="36.91117296922403" lon="-108.09533085267016"><ele>1919.5</ele><time>2026-03-29T18:05:52Z</time></trkpt><trkpt lat="36.911231020928724" lon="-108.09526494616995"><ele>1919.0</ele><time>2026-03-29T18:05:53Z</time></trkpt><trkpt lat="36.911288759468" lon="-108.09517292280216"><ele>1918.5000000000002</ele><time>2026-03-29T18:05:54Z</time></trkpt><trkpt lat="36.911338612074246" lon="-108.09507340432276"><ele>1918.0</ele><time>2026-03-29T18:05:55Z</time></trkpt><trkpt lat="36.91137965263545" lon="-108.0949912364436"><ele>1918.4</ele><time>2026-03-29T18:05:56Z</time></trkpt><trkpt lat="36.91143050854569" lon="-108.09488941241045"><ele>1918.8000000000002</ele><time>2026-03-29T18:05:57Z</time></trkpt><trkpt lat="36.911496956286236" lon="-108.09478611418638"><ele>1919.2</ele><time>2026-03-29T18:05:58Z</time></trkpt><trkpt lat="36.91155348854062" lon="-108.09469895023902"><ele>1919.6</ele><time>2026-03-29T18:05:59Z</time></trkpt><trkpt lat="36.91164241512772" lon="-108.09464241386573"><ele>1920.0</ele><time>2026-03-29T18:06:00Z</time></trkpt><trkpt lat="36.91171708912437" lon="-108.09458684742633"><ele>1919.0</ele><time>2026-03-29T18:06:01Z</time></trkpt><trkpt lat="36.91178826155716" lon="-108.09453033837089"><ele>1918.0</ele><time>2026-03-29T18:06:02Z</time></trkpt><trkpt lat="36.91187893573334" lon="-108.0944663279082"><ele>1917.0</ele><time>2026-03-29T18:06:03Z</time></trkpt><trkpt lat="36.911939635639946" lon="-108.09439413017151"><ele>1916.0</ele><time>2026-03-29T18:06:04Z</time></trkpt><trkpt lat="36.91198379651116" lon="-108.0943150712797"><ele>1915.0</ele><time>2026-03-29T18:06:05Z</time></trkpt><trkpt lat="36.912059956148475" lon="-108.09427419829596"><ele>1914.0</ele><time>2026-03-29T18:06:06Z</time></trkpt><trkpt lat="36.9121641206841" lon="-108.09426686424388"><ele>1914.0</ele><time>2026-03-29T18:06:07Z</time></trkpt><trkpt lat="36.91221388410458" lon="-108.09421281479192"><ele>1914.0</ele><time>2026-03-29T18:06:08Z</time></trkpt><trkpt lat="36.9122376775087" lon="-108.09412735462897"><ele>1914.0</ele><time>2026-03-29T18:06:09Z</time></trkpt><trkpt lat="36.91224163415151" lon="-108.09404424770995"><ele>1914.0</ele><time>2026-03-29T18:06:10Z</time></trkpt><trkpt lat="36.912291158335655" lon="-108.09389217806016"><ele>1914.0</ele><time>2026-03-29T18:06:12Z</time></trkpt><trkpt lat="36.912315799325434" lon="-108.0937985541708"><ele>1914.0</ele><time>2026-03-29T18:06:13Z</time></trkpt><trkpt lat="36.912324436115526" lon="-108.09368956712596"><ele>1914.0</ele><time>2026-03-29T18:06:14Z</time></trkpt><trkpt lat="36.91232521850821" lon="-108.09357516263216"><ele>1914.0</ele><time>2026-03-29T18:06:15Z</time></trkpt><trkpt lat="36.9123376281752" lon="-108.09345956039218"><ele>1914.0</ele><time>2026-03-29T18:06:16Z</time></trkpt><trkpt lat="36.91233791804466" lon="-108.09335808793134"><ele>1914.0</ele><time>2026-03-29T18:06:17Z</time></trkpt><trkpt lat="36.912324320722014" lon="-108.09325923330178"><ele>1914.0</ele><time>2026-03-29T18:06:18Z</time></trkpt><trkpt lat="36.912318939874815" lon="-108.09316142766285"><ele>1914.0</ele><time>2026-03-29T18:06:19Z</time></trkpt><trkpt lat="36.91232014992181" lon="-108.09306383182513"><ele>1914.0</ele><time>2026-03-29T18:06:20Z</time></trkpt><trkpt lat="36.91231935801075" lon="-108.09294637307846"><ele>1914.0</ele><time>2026-03-29T18:06:21Z</time></trkpt><trkpt lat="36.91231010023992" lon="-108.09284084064429"><ele>1914.0</ele><time>2026-03-29T18:06:22Z</time></trkpt><trkpt lat="36.91230176620261" lon="-108.09276164994807"><ele>1914.0</ele><time>2026-03-29T18:06:23Z</time></trkpt><trkpt lat="36.91230614370297" lon="-108.09267588369752"><ele>1914.0</ele><time>2026-03-29T18:06:24Z</time></trkpt><trkpt lat="36.912314769478854" lon="-108.09258127875766"><ele>1914.0</ele><time>2026-03-29T18:06:25Z</time></trkpt><trkpt lat="36.91231762449937" lon="-108.09249263203037"><ele>1914.5</ele><time>2026-03-29T18:06:26Z</time></trkpt><trkpt lat="36.91233073993769" lon="-108.09239387981756"><ele>1915.0</ele><time>2026-03-29T18:06:27Z</time></trkpt><trkpt lat="36.91234505925703" lon="-108.09228426228209"><ele>1915.5</ele><time>2026-03-29T18:06:28Z</time></trkpt><trkpt lat="36.912392977400074" lon="-108.09220750203175"><ele>1916.0</ele><time>2026-03-29T18:06:29Z</time></trkpt><trkpt lat="36.91244440433111" lon="-108.09213818112858"><ele>1916.5</ele><time>2026-03-29T18:06:30Z</time></trkpt><trkpt lat="36.912466362518614" lon="-108.09203929937713"><ele>1917.0</ele><time>2026-03-29T18:06:31Z</time></trkpt><trkpt lat="36.91247938257371" lon="-108.09193271777582"><ele>1917.0</ele><time>2026-03-29T18:06:32Z</time></trkpt><trkpt lat="36.91249997117014" lon="-108.09179614675178"><ele>1916.9999999999998</ele><time>2026-03-29T18:06:33Z</time></trkpt><trkpt lat="36.912507183104985" lon="-108.0916659070756"><ele>1916.9999999999998</ele><time>2026-03-29T18:06:34Z</time></trkpt><trkpt lat="36.912511523807105" lon="-108.09154316099661"><ele>1917.0</ele><time>2026-03-29T18:06:35Z</time></trkpt><trkpt lat="36.91252538296854" lon="-108.09143785531954"><ele>1917.0</ele><time>2026-03-29T18:06:36Z</time></trkpt><trkpt lat="36.912552423103136" lon="-108.09133689826743"><ele>1916.8</ele><time>2026-03-29T18:06:37Z</time></trkpt><trkpt lat="36.912590855713766" lon="-108.0912325150525"><ele>1916.6</ele><time>2026-03-29T18:06:38Z</time></trkpt><trkpt lat="36.91262003873776" lon="-108.09110258787176"><ele>1916.3999999999999</ele><time>2026-03-29T18:06:39Z</time></trkpt><trkpt lat="36.912652398412234" lon="-108.09096997612028"><ele>1916.1999999999998</ele><time>2026-03-29T18:06:40Z</time></trkpt><trkpt lat="36.912703439075486" lon="-108.09085232069494"><ele>1916.0</ele><time>2026-03-29T18:06:41Z</time></trkpt><trkpt lat="36.912727417535194" lon="-108.0907552237889"><ele>1916.0</ele><time>2026-03-29T18:06:42Z</time></trkpt><trkpt lat="36.91271490244519" lon="-108.09062262868397"><ele>1916.0</ele><time>2026-03-29T18:06:43Z</time></trkpt><trkpt lat="36.91269219851835" lon="-108.09050912588168"><ele>1916.0</ele><time>2026-03-29T18:06:44Z</time></trkpt><trkpt lat="36.91270105719957" lon="-108.09041644921501"><ele>1916.0</ele><time>2026-03-29T18:06:45Z</time></trkpt><trkpt lat="36.91271379008581" lon="-108.0903059539434"><ele>1916.0</ele><time>2026-03-29T18:06:46Z</time></trkpt><trkpt lat="36.91267552489611" lon="-108.09019052647503"><ele>1915.9999999999998</ele><time>2026-03-29T18:06:48Z</time></trkpt><trkpt lat="36.912585017312395" lon="-108.09011067410705"><ele>1916.0</ele><time>2026-03-29T18:06:50Z</time></trkpt><trkpt lat="36.912520462798454" lon="-108.09005026403435"><ele>1916.0</ele><time>2026-03-29T18:06:51Z</time></trkpt><trkpt lat="36.912441820977335" lon="-108.08998198316517"><ele>1916.0</ele><time>2026-03-29T18:06:52Z</time></trkpt><trkpt lat="36.91238075126688" lon="-108.08992855548885"><ele>1915.9999999999998</ele><time>2026-03-29T18:06:53Z</time></trkpt><trkpt lat="36.91229859016766" lon="-108.08989107949674"><ele>1916.0</ele><time>2026-03-29T18:06:54Z</time></trkpt><trkpt lat="36.91221837953374" lon="-108.08981127627854"><ele>1916.4</ele><time>2026-03-29T18:06:55Z</time></trkpt><trkpt lat="36.91214304776178" lon="-108.08970184382272"><ele>1916.8</ele><time>2026-03-29T18:06:56Z</time></trkpt><trkpt lat="36.91206064363296" lon="-108.08962188301034"><ele>1917.2000000000003</ele><time>2026-03-29T18:06:57Z</time></trkpt><trkpt lat="36.91197281359127" lon="-108.08956772312114"><ele>1917.6000000000001</ele><time>2026-03-29T18:06:58Z</time></trkpt><trkpt lat="36.91188350847644" lon="-108.08952420467564"><ele>1918.0</ele><time>2026-03-29T18:06:59Z</time></trkpt><trkpt lat="36.911783087972175" lon="-108.08948562005597"><ele>1917.6666666666667</ele><time>2026-03-29T18:07:00Z</time></trkpt><trkpt lat="36.911701920721654" lon="-108.08944566916588"><ele>1917.3333333333335</ele><time>2026-03-29T18:07:01Z</time></trkpt><trkpt lat="36.91165247962863" lon="-108.08937578551428"><ele>1917.0</ele><time>2026-03-29T18:07:02Z</time></trkpt><trkpt lat="36.91160089518761" lon="-108.08928553418606"><ele>1916.6666666666665</ele><time>2026-03-29T18:07:03Z</time></trkpt><trkpt lat="36.91154487079785" lon="-108.08921304680364"><ele>1916.3333333333333</ele><time>2026-03-29T18:07:04Z</time></trkpt><trkpt lat="36.91147759153939" lon="-108.0891551494178"><ele>1916.0</ele><time>2026-03-29T18:07:05Z</time></trkpt><trkpt lat="36.9114017558053" lon="-108.08910631064033"><ele>1915.0</ele><time>2026-03-29T18:07:06Z</time></trkpt><trkpt lat="36.9113303093463" lon="-108.08907101361923"><ele>1914.0</ele><time>2026-03-29T18:07:07Z</time></trkpt><trkpt lat="36.91124967769542" lon="-108.08903565870649"><ele>1913.0</ele><time>2026-03-29T18:07:08Z</time></trkpt><trkpt lat="36.91116502461971" lon="-108.0889836089268"><ele>1912.0</ele><time>2026-03-29T18:07:09Z</time></trkpt><trkpt lat="36.91110604063783" lon="-108.08890704270345"><ele>1911.0</ele><time>2026-03-29T18:07:10Z</time></trkpt><trkpt lat="36.91109038958434" lon="-108.0887551672385"><ele>1911.0</ele><time>2026-03-29T18:07:12Z</time></trkpt><trkpt lat="36.91111158222934" lon="-108.08861857241553"><ele>1911.0</ele><time>2026-03-29T18:07:13Z</time></trkpt><trkpt lat="36.91110440257887" lon="-108.08847283395741"><ele>1911.0</ele><time>2026-03-29T18:07:14Z</time></trkpt><trkpt lat="36.91107338805657" lon="-108.08833598140795"><ele>1911.0</ele><time>2026-03-29T18:07:15Z</time></trkpt><trkpt lat="36.911028154374506" lon="-108.08822278734604"><ele>1911.0</ele><time>2026-03-29T18:07:16Z</time></trkpt><trkpt lat="36.91098841641912" lon="-108.08809383582155"><ele>1910.0</ele><time>2026-03-29T18:07:17Z</time></trkpt><trkpt lat="36.91094238115758" lon="-108.08799550644393"><ele>1909.0</ele><time>2026-03-29T18:07:18Z</time></trkpt><trkpt lat="36.91089890564755" lon="-108.08792933949718"><ele>1908.0</ele><time>2026-03-29T18:07:19Z</time></trkpt><trkpt lat="36.9107791113441" lon="-108.08786332290492"><ele>1907.0</ele><time>2026-03-29T18:07:21Z</time></trkpt><trkpt lat="36.91070810949347" lon="-108.08779949519666"><ele>1906.0</ele><time>2026-03-29T18:07:22Z</time></trkpt><trkpt lat="36.91064492266866" lon="-108.08772219599813"><ele>1905.6666666666667</ele><time>2026-03-29T18:07:23Z</time></trkpt><trkpt lat="36.910613733954" lon="-108.08762949114623"><ele>1905.3333333333335</ele><time>2026-03-29T18:07:24Z</time></trkpt><trkpt lat="36.9105712225309" lon="-108.08756576913262"><ele>1905.0</ele><time>2026-03-29T18:07:25Z</time></trkpt><trkpt lat="36.910524711191464" lon="-108.08751092696176"><ele>1904.6666666666665</ele><time>2026-03-29T18:07:26Z</time></trkpt><trkpt lat="36.910522943123674" lon="-108.08739992533698"><ele>1904.3333333333333</ele><time>2026-03-29T18:07:27Z</time></trkpt><trkpt lat="36.91049283356903" lon="-108.0872486686898"><ele>1904.0</ele><time>2026-03-29T18:07:28Z</time></trkpt><trkpt lat="36.91044776189145" lon="-108.08713197279839"><ele>1902.8000000000002</ele><time>2026-03-29T18:07:29Z</time></trkpt><trkpt lat="36.910405201632926" lon="-108.0870508062749"><ele>1901.6000000000001</ele><time>2026-03-29T18:07:30Z</time></trkpt><trkpt lat="36.910353342889934" lon="-108.08696100372745"><ele>1900.4</ele><time>2026-03-29T18:07:31Z</time></trkpt><trkpt lat="36.910280301254936" lon="-108.08689242182817"><ele>1899.2</ele><time>2026-03-29T18:07:32Z</time></trkpt><trkpt lat="36.910189311660254" lon="-108.086856086054"><ele>1898.0</ele><time>2026-03-29T18:07:33Z</time></trkpt><trkpt lat="36.91008284097924" lon="-108.08687566960067"><ele>1897.2</ele><time>2026-03-29T18:07:34Z</time></trkpt><trkpt lat="36.90998435734602" lon="-108.08690583008107"><ele>1896.4</ele><time>2026-03-29T18:07:35Z</time></trkpt><trkpt lat="36.90987814443999" lon="-108.08693419043708"><ele>1895.6000000000001</ele><time>2026-03-29T18:07:36Z</time></trkpt><trkpt lat="36.909768477679094" lon="-108.08691864136978"><ele>1894.8000000000002</ele><time>2026-03-29T18:07:37Z</time></trkpt><trkpt lat="36.9096756584019" lon="-108.08690903646968"><ele>1894.0</ele><time>2026-03-29T18:07:38Z</time></trkpt><trkpt lat="36.90960185057211" lon="-108.08690856537886"><ele>1894.0000000000002</ele><time>2026-03-29T18:07:39Z</time></trkpt><trkpt lat="36.909528480186566" lon="-108.08691009063926"><ele>1894.0</ele><time>2026-03-29T18:07:40Z</time></trkpt><trkpt lat="36.90944329915472" lon="-108.08689476736912"><ele>1894.0</ele><time>2026-03-29T18:07:41Z</time></trkpt><trkpt lat="36.90936774325255" lon="-108.08684745057204"><ele>1894.0</ele><time>2026-03-29T18:07:42Z</time></trkpt><trkpt lat="36.909280536623896" lon="-108.08679697159285"><ele>1894.0000000000002</ele><time>2026-03-29T18:07:43Z</time></trkpt><trkpt lat="36.90920247859416" lon="-108.0867497279617"><ele>1894.0</ele><time>2026-03-29T18:07:44Z</time></trkpt><trkpt lat="36.90911704911385" lon="-108.08674014711191"><ele>1892.4</ele><time>2026-03-29T18:07:45Z</time></trkpt><trkpt lat="36.90904119209064" lon="-108.08673641575041"><ele>1890.8000000000002</ele><time>2026-03-29T18:07:46Z</time></trkpt><trkpt lat="36.90897493492972" lon="-108.08668141812961"><ele>1889.1999999999998</ele><time>2026-03-29T18:07:47Z</time></trkpt><trkpt lat="36.90889623163618" lon="-108.086624517756"><ele>1887.6</ele><time>2026-03-29T18:07:48Z</time></trkpt><trkpt lat="36.9087802007916" lon="-108.08663552828072"><ele>1886.0</ele><time>2026-03-29T18:07:49Z</time></trkpt><trkpt lat="36.908669007667406" lon="-108.08662225862605"><ele>1885.9999999999998</ele><time>2026-03-29T18:07:50Z</time></trkpt><trkpt lat="36.90859933400542" lon="-108.0865968542711"><ele>1886.0</ele><time>2026-03-29T18:07:51Z</time></trkpt><trkpt lat="36.90854731622645" lon="-108.0865394708226"><ele>1886.0</ele><time>2026-03-29T18:07:52Z</time></trkpt><trkpt lat="36.90847877587948" lon="-108.08654148694322"><ele>1886.0</ele><time>2026-03-29T18:07:53Z</time></trkpt><trkpt lat="36.908367307605886" lon="-108.08660315305215"><ele>1885.9999999999998</ele><time>2026-03-29T18:07:55Z</time></trkpt><trkpt lat="36.908293172829396" lon="-108.08655248061288"><ele>1886.0</ele><time>2026-03-29T18:07:56Z</time></trkpt><trkpt lat="36.90826330652118" lon="-108.08647543998667"><ele>1884.8</ele><time>2026-03-29T18:07:57Z</time></trkpt><trkpt lat="36.90823628990491" lon="-108.08636107496095"><ele>1883.6</ele><time>2026-03-29T18:07:58Z</time></trkpt><trkpt lat="36.908187552472846" lon="-108.0862465072095"><ele>1882.4</ele><time>2026-03-29T18:07:59Z</time></trkpt><trkpt lat="36.90810746408873" lon="-108.08614364207978"><ele>1881.2</ele><time>2026-03-29T18:08:00Z</time></trkpt><trkpt lat="36.908018913390165" lon="-108.0860647784091"><ele>1880.0</ele><time>2026-03-29T18:08:01Z</time></trkpt><trkpt lat="36.90790417771586" lon="-108.08600371399814"><ele>1880.0</ele><time>2026-03-29T18:08:02Z</time></trkpt><trkpt lat="36.90780134658379" lon="-108.0859313999817"><ele>1880.0</ele><time>2026-03-29T18:08:03Z</time></trkpt><trkpt lat="36.907704259882344" lon="-108.08581772678366"><ele>1880.0</ele><time>2026-03-29T18:08:04Z</time></trkpt><trkpt lat="36.907611776874504" lon="-108.08570592074328"><ele>1880.0</ele><time>2026-03-29T18:08:05Z</time></trkpt><trkpt lat="36.90752177854847" lon="-108.08562699623177"><ele>1879.5</ele><time>2026-03-29T18:08:06Z</time></trkpt><trkpt lat="36.9074254149438" lon="-108.08556847084535"><ele>1879.0</ele><time>2026-03-29T18:08:07Z</time></trkpt><trkpt lat="36.907322015759256" lon="-108.08554884914152"><ele>1878.5</ele><time>2026-03-29T18:08:08Z</time></trkpt><trkpt lat="36.9072069177022" lon="-108.08557840427086"><ele>1878.0</ele><time>2026-03-29T18:08:09Z</time></trkpt><trkpt lat="36.90707461262863" lon="-108.08560553929179"><ele>1878.0</ele><time>2026-03-29T18:08:10Z</time></trkpt><trkpt lat="36.906946549978244" lon="-108.08561311233242"><ele>1878.0</ele><time>2026-03-29T18:08:11Z</time></trkpt><trkpt lat="36.906812688213435" lon="-108.08560532482201"><ele>1878.0</ele><time>2026-03-29T18:08:12Z</time></trkpt><trkpt lat="36.906683529217084" lon="-108.08559162561711"><ele>1878.0</ele><time>2026-03-29T18:08:13Z</time></trkpt><trkpt lat="36.90656768820781" lon="-108.08557452822727"><ele>1877.6000000000001</ele><time>2026-03-29T18:08:14Z</time></trkpt><trkpt lat="36.906480604467774" lon="-108.08552970744103"><ele>1877.2000000000003</ele><time>2026-03-29T18:08:15Z</time></trkpt><trkpt lat="36.90642796622277" lon="-108.08540775360181"><ele>1876.8</ele><time>2026-03-29T18:08:17Z</time></trkpt><trkpt lat="36.90634400290671" lon="-108.08536371315252"><ele>1876.4</ele><time>2026-03-29T18:08:19Z</time></trkpt><trkpt lat="36.90625414384789" lon="-108.08541945295363"><ele>1876.0</ele><time>2026-03-29T18:08:20Z</time></trkpt><trkpt lat="36.90616831253349" lon="-108.0854898619808"><ele>1876.0</ele><time>2026-03-29T18:08:21Z</time></trkpt><trkpt lat="36.906068839577685" lon="-108.08555010647443"><ele>1876.0</ele><time>2026-03-29T18:08:22Z</time></trkpt><trkpt lat="36.90597766516016" lon="-108.0856027670053"><ele>1876.0</ele><time>2026-03-29T18:08:23Z</time></trkpt><trkpt lat="36.90587688160414" lon="-108.08566774223893"><ele>1876.0</ele><time>2026-03-29T18:08:24Z</time></trkpt><trkpt lat="36.90579350331221" lon="-108.08575062834387"><ele>1876.0</ele><time>2026-03-29T18:08:25Z</time></trkpt><trkpt lat="36.90572616372384" lon="-108.08585576745747"><ele>1875.5</ele><time>2026-03-29T18:08:26Z</time></trkpt><trkpt lat="36.90566869937638" lon="-108.08600138068904"><ele>1875.0</ele><time>2026-03-29T18:08:27Z</time></trkpt><trkpt lat="36.90558200894047" lon="-108.08611383655867"><ele>1874.5</ele><time>2026-03-29T18:08:28Z</time></trkpt><trkpt lat="36.90546024865188" lon="-108.08619254957873"><ele>1874.0</ele><time>2026-03-29T18:08:29Z</time></trkpt><trkpt lat="36.9053290904979" lon="-108.08622604614361"><ele>1874.0</ele><time>2026-03-29T18:08:30Z</time></trkpt><trkpt lat="36.905204030027846" lon="-108.08625239077737"><ele>1874.0</ele><time>2026-03-29T18:08:31Z</time></trkpt><trkpt lat="36.90510212433432" lon="-108.08629836766788"><ele>1874.0</ele><time>2026-03-29T18:08:32Z</time></trkpt><trkpt lat="36.905023769775305" lon="-108.0863823252703"><ele>1874.0</ele><time>2026-03-29T18:08:33Z</time></trkpt><trkpt lat="36.904964820786645" lon="-108.08649292617307"><ele>1874.0</ele><time>2026-03-29T18:08:34Z</time></trkpt><trkpt lat="36.90493463173631" lon="-108.08663622050028"><ele>1874.0</ele><time>2026-03-29T18:08:35Z</time></trkpt><trkpt lat="36.90488088497514" lon="-108.08676756336352"><ele>1874.0</ele><time>2026-03-29T18:08:36Z</time></trkpt><trkpt lat="36.90479396545146" lon="-108.08686287092112"><ele>1874.0</ele><time>2026-03-29T18:08:37Z</time></trkpt><trkpt lat="36.90469789458049" lon="-108.08693795487045"><ele>1874.0</ele><time>2026-03-29T18:08:38Z</time></trkpt><trkpt lat="36.90460169080923" lon="-108.08703965684487"><ele>1874.0</ele><time>2026-03-29T18:08:39Z</time></trkpt><trkpt lat="36.90452226972203" lon="-108.08717782551567"><ele>1874.0</ele><time>2026-03-29T18:08:40Z</time></trkpt><trkpt lat="36.90445197842704" lon="-108.08732827592752"><ele>1874.0</ele><time>2026-03-29T18:08:41Z</time></trkpt><trkpt lat="36.90437877897981" lon="-108.08746259713139"><ele>1874.0</ele><time>2026-03-29T18:08:42Z</time></trkpt><trkpt lat="36.90429989024709" lon="-108.08761231284984"><ele>1874.0</ele><time>2026-03-29T18:08:43Z</time></trkpt><trkpt lat="36.90420775689689" lon="-108.08776545587513"><ele>1874.0</ele><time>2026-03-29T18:08:44Z</time></trkpt><trkpt lat="36.904108575380555" lon="-108.08790596844207"><ele>1874.0</ele><time>2026-03-29T18:08:45Z</time></trkpt><trkpt lat="36.903989803586434" lon="-108.08802134151883"><ele>1874.0</ele><time>2026-03-29T18:08:46Z</time></trkpt><trkpt lat="36.90385436778121" lon="-108.08815294451725"><ele>1874.0</ele><time>2026-03-29T18:08:47Z</time></trkpt><trkpt lat="36.90375038299312" lon="-108.08829646097178"><ele>1874.0</ele><time>2026-03-29T18:08:48Z</time></trkpt><trkpt lat="36.903682381479584" lon="-108.08842363461798"><ele>1874.0</ele><time>2026-03-29T18:08:49Z</time></trkpt><trkpt lat="36.90363760035255" lon="-108.08853332335916"><ele>1873.4</ele><time>2026-03-29T18:08:50Z</time></trkpt><trkpt lat="36.90358984449182" lon="-108.0886213494638"><ele>1872.8000000000002</ele><time>2026-03-29T18:08:51Z</time></trkpt><trkpt lat="36.90353836035175" lon="-108.08867335280881"><ele>1872.1999999999998</ele><time>2026-03-29T18:08:52Z</time></trkpt><trkpt lat="36.90337793157881" lon="-108.08871695417203"><ele>1871.6</ele><time>2026-03-29T18:08:54Z</time></trkpt><trkpt lat="36.90326543766828" lon="-108.0887129984547"><ele>1871.0</ele><time>2026-03-29T18:08:55Z</time></trkpt><trkpt lat="36.90316406630708" lon="-108.08874452827379"><ele>1870.75</ele><time>2026-03-29T18:08:56Z</time></trkpt><trkpt lat="36.90309994704752" lon="-108.08886502515573"><ele>1870.5</ele><time>2026-03-29T18:08:57Z</time></trkpt><trkpt lat="36.90302761569078" lon="-108.08902972879638"><ele>1870.25</ele><time>2026-03-29T18:08:58Z</time></trkpt><trkpt lat="36.90294936403112" lon="-108.08916335726087"><ele>1870.0</ele><time>2026-03-29T18:08:59Z</time></trkpt><trkpt lat="36.90286997689828" lon="-108.08924579834029"><ele>1869.6</ele><time>2026-03-29T18:09:00Z</time></trkpt><trkpt lat="36.90287239131551" lon="-108.08934667843474"><ele>1869.2</ele><time>2026-03-29T18:09:02Z</time></trkpt><trkpt lat="36.902951290559024" lon="-108.08937582769606"><ele>1868.8000000000002</ele><time>2026-03-29T18:09:03Z</time></trkpt><trkpt lat="36.903029240591025" lon="-108.08935434792983"><ele>1868.4</ele><time>2026-03-29T18:09:05Z</time></trkpt><trkpt lat="36.903142710288606" lon="-108.08927074378036"><ele>1868.0</ele><time>2026-03-29T18:09:07Z</time></trkpt><trkpt lat="36.90320850970075" lon="-108.08931804860673"><ele>1867.9999999999998</ele><time>2026-03-29T18:09:09Z</time></trkpt><trkpt lat="36.90317839482994" lon="-108.08941049182414"><ele>1868.0</ele><time>2026-03-29T18:09:11Z</time></trkpt><trkpt lat="36.90323990836198" lon="-108.0894415512132"><ele>1868.0</ele><time>2026-03-29T18:09:12Z</time></trkpt><trkpt lat="36.90322022164038" lon="-108.08952325024104"><ele>1868.0</ele><time>2026-03-29T18:09:13Z</time></trkpt><trkpt lat="36.903186606992456" lon="-108.0896077136145"><ele>1867.9999999999998</ele><time>2026-03-29T18:09:14Z</time></trkpt><trkpt lat="36.903090312818264" lon="-108.08972901135084"><ele>1868.0</ele><time>2026-03-29T18:09:15Z</time></trkpt><trkpt lat="36.90298659690241" lon="-108.08986582025078"><ele>1868.25</ele><time>2026-03-29T18:09:16Z</time></trkpt><trkpt lat="36.90286785562618" lon="-108.09000299686718"><ele>1868.5</ele><time>2026-03-29T18:09:17Z</time></trkpt><trkpt lat="36.90275473942305" lon="-108.09005716815632"><ele>1868.75</ele><time>2026-03-29T18:09:18Z</time></trkpt><trkpt lat="36.902636969733265" lon="-108.09009336292655"><ele>1869.0</ele><time>2026-03-29T18:09:19Z</time></trkpt><trkpt lat="36.90251658795063" lon="-108.090111816831"><ele>1868.5</ele><time>2026-03-29T18:09:20Z</time></trkpt><trkpt lat="36.9024090187187" lon="-108.09015786736833"><ele>1868.0</ele><time>2026-03-29T18:09:21Z</time></trkpt><trkpt lat="36.90231415863586" lon="-108.09024197624606"><ele>1867.5</ele><time>2026-03-29T18:09:22Z</time></trkpt><trkpt lat="36.902232446911434" lon="-108.09035665708328"><ele>1867.0</ele><time>2026-03-29T18:09:23Z</time></trkpt><trkpt lat="36.90214696270885" lon="-108.09046059834446"><ele>1867.0</ele><time>2026-03-29T18:09:24Z</time></trkpt><trkpt lat="36.90207648257323" lon="-108.09060826977705"><ele>1867.0</ele><time>2026-03-29T18:09:25Z</time></trkpt><trkpt lat="36.90202857190007" lon="-108.09079472040949"><ele>1867.0</ele><time>2026-03-29T18:09:26Z</time></trkpt><trkpt lat="36.90200643855105" lon="-108.09098972045528"><ele>1866.75</ele><time>2026-03-29T18:09:27Z</time></trkpt><trkpt lat="36.90197386748416" lon="-108.09116087500941"><ele>1866.5</ele><time>2026-03-29T18:09:28Z</time></trkpt><trkpt lat="36.9019262017295" lon="-108.09130392876855"><ele>1866.25</ele><time>2026-03-29T18:09:29Z</time></trkpt><trkpt lat="36.90187186932039" lon="-108.09142050173574"><ele>1866.0</ele><time>2026-03-29T18:09:30Z</time></trkpt><trkpt lat="36.90181182839442" lon="-108.09152024583763"><ele>1866.25</ele><time>2026-03-29T18:09:31Z</time></trkpt><trkpt lat="36.90165111932101" lon="-108.09141100139864"><ele>1866.5</ele><time>2026-03-29T18:09:32Z</time></trkpt><trkpt lat="36.9015334038009" lon="-108.09139203514367"><ele>1866.75</ele><time>2026-03-29T18:09:33Z</time></trkpt><trkpt lat="36.90145054263819" lon="-108.09144978233573"><ele>1867.0</ele><time>2026-03-29T18:09:34Z</time></trkpt><trkpt lat="36.90140833657038" lon="-108.09151935566562"><ele>1867.0</ele><time>2026-03-29T18:09:35Z</time></trkpt><trkpt lat="36.9014606540424" lon="-108.09166439418223"><ele>1866.9999999999998</ele><time>2026-03-29T18:09:37Z</time></trkpt><trkpt lat="36.901541394758695" lon="-108.09172269466085"><ele>1866.9999999999998</ele><time>2026-03-29T18:09:38Z</time></trkpt><trkpt lat="36.90164154928411" lon="-108.0917470348181"><ele>1867.0</ele><time>2026-03-29T18:09:39Z</time></trkpt><trkpt lat="36.90175782763658" lon="-108.09174899290402"><ele>1867.0</ele><time>2026-03-29T18:09:40Z</time></trkpt><trkpt lat="36.90182933525194" lon="-108.09173901403607"><ele>1867.0</ele><time>2026-03-29T18:09:41Z</time></trkpt><trkpt lat="36.90185781155346" lon="-108.09187993657451"><ele>1867.0</ele><time>2026-03-29T18:09:43Z</time></trkpt><trkpt lat="36.901781341836305" lon="-108.09196016489693"><ele>1867.0</ele><time>2026-03-29T18:09:45Z</time></trkpt><trkpt lat="36.90169042953394" lon="-108.09207357290853"><ele>1867.0</ele><time>2026-03-29T18:09:48Z</time></trkpt><trkpt lat="36.90159293676671" lon="-108.0921269346019"><ele>1867.0</ele><time>2026-03-29T18:09:49Z</time></trkpt><trkpt lat="36.90143918358693" lon="-108.0921357432061"><ele>1867.0</ele><time>2026-03-29T18:09:50Z</time></trkpt><trkpt lat="36.90135127015622" lon="-108.09217554255511"><ele>1867.0</ele><time>2026-03-29T18:09:51Z</time></trkpt><trkpt lat="36.901205825345585" lon="-108.09219577934631"><ele>1867.0</ele><time>2026-03-29T18:09:52Z</time></trkpt><trkpt lat="36.90107857355074" lon="-108.09221918462599"><ele>1867.0000000000002</ele><time>2026-03-29T18:09:53Z</time></trkpt><trkpt lat="36.90097210273635" lon="-108.09223649605461"><ele>1867.0</ele><time>2026-03-29T18:09:54Z</time></trkpt><trkpt lat="36.90088874100772" lon="-108.09224356378482"><ele>1867.0</ele><time>2026-03-29T18:09:55Z</time></trkpt><trkpt lat="36.900825168649405" lon="-108.09226769119711"><ele>1867.0</ele><time>2026-03-29T18:09:56Z</time></trkpt><trkpt lat="36.90075662668728" lon="-108.09235128649588"><ele>1867.0000000000002</ele><time>2026-03-29T18:09:58Z</time></trkpt><trkpt lat="36.900730007807944" lon="-108.092464627923"><ele>1867.0</ele><time>2026-03-29T18:10:00Z</time></trkpt><trkpt lat="36.90078460347138" lon="-108.09253267212196"><ele>1866.3999999999999</ele><time>2026-03-29T18:10:01Z</time></trkpt><trkpt lat="36.90091586004532" lon="-108.09266648265726"><ele>1865.7999999999997</ele><time>2026-03-29T18:10:02Z</time></trkpt><trkpt lat="36.90094223162233" lon="-108.09276728862295"><ele>1865.2</ele><time>2026-03-29T18:10:03Z</time></trkpt><trkpt lat="36.9009569876415" lon="-108.0928711496741"><ele>1864.6</ele><time>2026-03-29T18:10:04Z</time></trkpt><trkpt lat="36.90092902663402" lon="-108.0929660692054"><ele>1864.0</ele><time>2026-03-29T18:10:05Z</time></trkpt><trkpt lat="36.900783001210115" lon="-108.09305767398168"><ele>1863.75</ele><time>2026-03-29T18:10:06Z</time></trkpt><trkpt lat="36.900684152620904" lon="-108.09316344904099"><ele>1863.5</ele><time>2026-03-29T18:10:07Z</time></trkpt><trkpt lat="36.90058603401837" lon="-108.0932758449283"><ele>1863.25</ele><time>2026-03-29T18:10:08Z</time></trkpt><trkpt lat="36.90047483062408" lon="-108.09339073219618"><ele>1863.0</ele><time>2026-03-29T18:10:09Z</time></trkpt><trkpt lat="36.90035189493991" lon="-108.09347886338567"><ele>1862.8000000000002</ele><time>2026-03-29T18:10:10Z</time></trkpt><trkpt lat="36.90027844366719" lon="-108.09357290678672"><ele>1862.6000000000001</ele><time>2026-03-29T18:10:11Z</time></trkpt><trkpt lat="36.90024441907215" lon="-108.09364987796693"><ele>1862.3999999999999</ele><time>2026-03-29T18:10:12Z</time></trkpt><trkpt lat="36.90025749331331" lon="-108.09377211690051"><ele>1862.1999999999998</ele><time>2026-03-29T18:10:14Z</time></trkpt><trkpt lat="36.90038568883951" lon="-108.09387551658705"><ele>1862.0</ele><time>2026-03-29T18:10:16Z</time></trkpt><trkpt lat="36.90046164103933" lon="-108.09394602975493"><ele>1861.9999999999998</ele><time>2026-03-29T18:10:17Z</time></trkpt><trkpt lat="36.900506162158635" lon="-108.09403975413233"><ele>1862.0</ele><time>2026-03-29T18:10:18Z</time></trkpt><trkpt lat="36.900523056706824" lon="-108.09413014886965"><ele>1862.0</ele><time>2026-03-29T18:10:19Z</time></trkpt><trkpt lat="36.90044612057215" lon="-108.09423308000348"><ele>1862.0</ele><time>2026-03-29T18:10:21Z</time></trkpt><trkpt lat="36.90036999318016" lon="-108.0942735789563"><ele>1861.9999999999998</ele><time>2026-03-29T18:10:22Z</time></trkpt><trkpt lat="36.90028643772792" lon="-108.09429827838655"><ele>1862.0</ele><time>2026-03-29T18:10:23Z</time></trkpt><trkpt lat="36.90018752337725" lon="-108.09432584908205"><ele>1862.0</ele><time>2026-03-29T18:10:24Z</time></trkpt><trkpt lat="36.9000845426473" lon="-108.09436825817117"><ele>1861.9999999999998</ele><time>2026-03-29T18:10:25Z</time></trkpt><trkpt lat="36.899974796043985" lon="-108.09440018032582"><ele>1861.9999999999998</ele><time>2026-03-29T18:10:26Z</time></trkpt><trkpt lat="36.89986486937739" lon="-108.09439329982042"><ele>1862.0</ele><time>2026-03-29T18:10:27Z</time></trkpt><trkpt lat="36.89980380406378" lon="-108.09442765950763"><ele>1862.0</ele><time>2026-03-29T18:10:28Z</time></trkpt><trkpt lat="36.89977908926166" lon="-108.09457321223864"><ele>1862.0</ele><time>2026-03-29T18:10:30Z</time></trkpt><trkpt lat="36.89978751211566" lon="-108.0946808728434"><ele>1861.9999999999998</ele><time>2026-03-29T18:10:31Z</time></trkpt><trkpt lat="36.89975670972525" lon="-108.09477441670023"><ele>1861.9999999999998</ele><time>2026-03-29T18:10:32Z</time></trkpt><trkpt lat="36.8996378360397" lon="-108.09480991114421"><ele>1862.0</ele><time>2026-03-29T18:10:33Z</time></trkpt><trkpt lat="36.89954054205923" lon="-108.09485214737282"><ele>1862.0</ele><time>2026-03-29T18:10:34Z</time></trkpt><trkpt lat="36.89947486449406" lon="-108.09490802513969"><ele>1861.6666666666665</ele><time>2026-03-29T18:10:35Z</time></trkpt><trkpt lat="36.89947606792595" lon="-108.09499867835932"><ele>1861.3333333333333</ele><time>2026-03-29T18:10:36Z</time></trkpt><trkpt lat="36.89948690113895" lon="-108.0951022893287"><ele>1861.0</ele><time>2026-03-29T18:10:37Z</time></trkpt><trkpt lat="36.8994894627204" lon="-108.0951923649653"><ele>1860.6666666666665</ele><time>2026-03-29T18:10:38Z</time></trkpt><trkpt lat="36.89951285444606" lon="-108.09534432767646"><ele>1860.3333333333333</ele><time>2026-03-29T18:10:40Z</time></trkpt><trkpt lat="36.89950017410013" lon="-108.09544812353836"><ele>1860.0</ele><time>2026-03-29T18:10:41Z</time></trkpt><trkpt lat="36.89943699810924" lon="-108.09555971877396"><ele>1860.0</ele><time>2026-03-29T18:10:42Z</time></trkpt><trkpt lat="36.89936582405915" lon="-108.09565845590384"><ele>1860.0</ele><time>2026-03-29T18:10:43Z</time></trkpt><trkpt lat="36.899265044070795" lon="-108.09567609136629"><ele>1860.0</ele><time>2026-03-29T18:10:45Z</time></trkpt><trkpt lat="36.89916302431129" lon="-108.09565113135542"><ele>1860.0</ele><time>2026-03-29T18:10:48Z</time></trkpt><trkpt lat="36.89911553393666" lon="-108.09555678077862"><ele>1860.0</ele><time>2026-03-29T18:10:49Z</time></trkpt><trkpt lat="36.899075297810704" lon="-108.09548032651486"><ele>1860.2</ele><time>2026-03-29T18:10:50Z</time></trkpt><trkpt lat="36.8990487698218" lon="-108.09537106936351"><ele>1860.4</ele><time>2026-03-29T18:10:51Z</time></trkpt><trkpt lat="36.89900572540323" lon="-108.09527401415932"><ele>1860.6</ele><time>2026-03-29T18:10:52Z</time></trkpt><trkpt lat="36.898950097549296" lon="-108.09519443224023"><ele>1860.8</ele><time>2026-03-29T18:10:53Z</time></trkpt><trkpt lat="36.89883709524588" lon="-108.09522515002335"><ele>1861.0</ele><time>2026-03-29T18:10:55Z</time></trkpt><trkpt lat="36.89876196983297" lon="-108.09530787917662"><ele>1861.0</ele><time>2026-03-29T18:10:57Z</time></trkpt><trkpt lat="36.89875813682645" lon="-108.09544083028786"><ele>1861.0</ele><time>2026-03-29T18:10:59Z</time></trkpt><trkpt lat="36.89881632307769" lon="-108.09552847510896"><ele>1861.0</ele><time>2026-03-29T18:11:00Z</time></trkpt><trkpt lat="36.898888965091594" lon="-108.09559188010515"><ele>1861.0</ele><time>2026-03-29T18:11:01Z</time></trkpt><trkpt lat="36.89893327879705" lon="-108.09568920257719"><ele>1861.0</ele><time>2026-03-29T18:11:02Z</time></trkpt><trkpt lat="36.898908943711476" lon="-108.09583906945024"><ele>1861.1428571428569</ele><time>2026-03-29T18:11:04Z</time></trkpt><trkpt lat="36.89888018290991" lon="-108.09591769444779"><ele>1861.2857142857142</ele><time>2026-03-29T18:11:05Z</time></trkpt><trkpt lat="36.89884477592798" lon="-108.09598579132715"><ele>1861.4285714285713</ele><time>2026-03-29T18:11:06Z</time></trkpt><trkpt lat="36.89878623475693" lon="-108.09602285621077"><ele>1861.5714285714284</ele><time>2026-03-29T18:11:07Z</time></trkpt><trkpt lat="36.898711681843764" lon="-108.09601916737873"><ele>1861.7142857142858</ele><time>2026-03-29T18:11:08Z</time></trkpt><trkpt lat="36.898625347764735" lon="-108.09600622836602"><ele>1861.857142857143</ele><time>2026-03-29T18:11:09Z</time></trkpt><trkpt lat="36.89854392616298" lon="-108.09601785486953"><ele>1862.0</ele><time>2026-03-29T18:11:10Z</time></trkpt><trkpt lat="36.89844958627085" lon="-108.09604143806474"><ele>1861.5</ele><time>2026-03-29T18:11:11Z</time></trkpt><trkpt lat="36.89833903977326" lon="-108.09608298361339"><ele>1861.0</ele><time>2026-03-29T18:11:12Z</time></trkpt><trkpt lat="36.89823756340508" lon="-108.09615972402301"><ele>1860.5</ele><time>2026-03-29T18:11:13Z</time></trkpt><trkpt lat="36.89815995075817" lon="-108.09627642935138"><ele>1860.0</ele><time>2026-03-29T18:11:14Z</time></trkpt><trkpt lat="36.89809668580402" lon="-108.09640612745946"><ele>1860.0</ele><time>2026-03-29T18:11:15Z</time></trkpt><trkpt lat="36.89801398648693" lon="-108.09655128246774"><ele>1860.0</ele><time>2026-03-29T18:11:16Z</time></trkpt><trkpt lat="36.897900939430095" lon="-108.0966835606166"><ele>1860.0</ele><time>2026-03-29T18:11:17Z</time></trkpt><trkpt lat="36.89777227794481" lon="-108.09679736189489"><ele>1859.6666666666665</ele><time>2026-03-29T18:11:18Z</time></trkpt><trkpt lat="36.897634862000196" lon="-108.09690343074637"><ele>1859.3333333333333</ele><time>2026-03-29T18:11:19Z</time></trkpt><trkpt lat="36.89747701529297" lon="-108.09699510852217"><ele>1859.0</ele><time>2026-03-29T18:11:20Z</time></trkpt><trkpt lat="36.89733501345775" lon="-108.0970621532808"><ele>1859.0</ele><time>2026-03-29T18:11:21Z</time></trkpt><trkpt lat="36.89720512194178" lon="-108.09707221772352"><ele>1859.0</ele><time>2026-03-29T18:11:22Z</time></trkpt><trkpt lat="36.89707026178539" lon="-108.09703621190863"><ele>1859.0</ele><time>2026-03-29T18:11:23Z</time></trkpt><trkpt lat="36.89692606232837" lon="-108.09703396603479"><ele>1859.0</ele><time>2026-03-29T18:11:24Z</time></trkpt><trkpt lat="36.89677138569787" lon="-108.09709603955103"><ele>1859.0</ele><time>2026-03-29T18:11:25Z</time></trkpt><trkpt lat="36.89665354450218" lon="-108.09716777810927"><ele>1859.0</ele><time>2026-03-29T18:11:26Z</time></trkpt><trkpt lat="36.89653395103131" lon="-108.09724935075283"><ele>1859.0</ele><time>2026-03-29T18:11:27Z</time></trkpt><trkpt lat="36.89641105721508" lon="-108.097360808376"><ele>1859.0</ele><time>2026-03-29T18:11:28Z</time></trkpt><trkpt lat="36.89629996882154" lon="-108.09748090892708"><ele>1858.2</ele><time>2026-03-29T18:11:29Z</time></trkpt><trkpt lat="36.89620714972644" lon="-108.09757141645719"><ele>1857.4</ele><time>2026-03-29T18:11:30Z</time></trkpt><trkpt lat="36.89613224751599" lon="-108.0976440504106"><ele>1856.6</ele><time>2026-03-29T18:11:31Z</time></trkpt><trkpt lat="36.89609483640684" lon="-108.09774706336133"><ele>1855.8</ele><time>2026-03-29T18:11:32Z</time></trkpt><trkpt lat="36.89608994062911" lon="-108.09787632031647"><ele>1855.0</ele><time>2026-03-29T18:11:33Z</time></trkpt><trkpt lat="36.896061384001094" lon="-108.09796461307431"><ele>1855.0</ele><time>2026-03-29T18:11:34Z</time></trkpt><trkpt lat="36.89602433662318" lon="-108.09808115488217"><ele>1855.0</ele><time>2026-03-29T18:11:35Z</time></trkpt><trkpt lat="36.89605213632632" lon="-108.09823495630063"><ele>1855.0</ele><time>2026-03-29T18:11:36Z</time></trkpt><trkpt lat="36.896078504336764" lon="-108.09839231249464"><ele>1855.0</ele><time>2026-03-29T18:11:37Z</time></trkpt><trkpt lat="36.89609474681082" lon="-108.09854973498346"><ele>1855.25</ele><time>2026-03-29T18:11:38Z</time></trkpt><trkpt lat="36.89609565658239" lon="-108.09872158010005"><ele>1855.5</ele><time>2026-03-29T18:11:39Z</time></trkpt><trkpt lat="36.896088234717624" lon="-108.09888295727585"><ele>1855.75</ele><time>2026-03-29T18:11:40Z</time></trkpt><trkpt lat="36.89606509654382" lon="-108.09902817615318"><ele>1856.0</ele><time>2026-03-29T18:11:41Z</time></trkpt><trkpt lat="36.89602487777618" lon="-108.09917649163606"><ele>1856.0</ele><time>2026-03-29T18:11:42Z</time></trkpt><trkpt lat="36.895971326935644" lon="-108.09931577051212"><ele>1856.0</ele><time>2026-03-29T18:11:43Z</time></trkpt><trkpt lat="36.89586859678562" lon="-108.09943522827696"><ele>1856.0</ele><time>2026-03-29T18:11:44Z</time></trkpt><trkpt lat="36.89575907457817" lon="-108.09953573240523"><ele>1856.0</ele><time>2026-03-29T18:11:45Z</time></trkpt><trkpt lat="36.8956369897466" lon="-108.09960887603471"><ele>1855.75</ele><time>2026-03-29T18:11:46Z</time></trkpt><trkpt lat="36.89550857370784" lon="-108.09963628613777"><ele>1855.5</ele><time>2026-03-29T18:11:47Z</time></trkpt><trkpt lat="36.89536565626692" lon="-108.09964959166908"><ele>1855.25</ele><time>2026-03-29T18:11:48Z</time></trkpt><trkpt lat="36.89526229512219" lon="-108.0996711161085"><ele>1855.0</ele><time>2026-03-29T18:11:49Z</time></trkpt><trkpt lat="36.89519399058811" lon="-108.09970695465081"><ele>1855.0</ele><time>2026-03-29T18:11:50Z</time></trkpt><trkpt lat="36.895131307803034" lon="-108.09979536733161"><ele>1855.0</ele><time>2026-03-29T18:11:51Z</time></trkpt><trkpt lat="36.895070629350336" lon="-108.09991188118681"><ele>1855.0</ele><time>2026-03-29T18:11:52Z</time></trkpt><trkpt lat="36.89499995977829" lon="-108.1000305509186"><ele>1855.0</ele><time>2026-03-29T18:11:53Z</time></trkpt><trkpt lat="36.89489882942871" lon="-108.10013693382139"><ele>1854.5</ele><time>2026-03-29T18:11:54Z</time></trkpt><trkpt lat="36.89478159654108" lon="-108.10022533035402"><ele>1854.0</ele><time>2026-03-29T18:11:55Z</time></trkpt><trkpt lat="36.894685802589116" lon="-108.1002788367838"><ele>1853.5</ele><time>2026-03-29T18:11:56Z</time></trkpt><trkpt lat="36.894576958764475" lon="-108.10026388673104"><ele>1853.0</ele><time>2026-03-29T18:11:57Z</time></trkpt><trkpt lat="36.89447461591132" lon="-108.10023112654227"><ele>1853.0</ele><time>2026-03-29T18:11:58Z</time></trkpt><trkpt lat="36.89436880746902" lon="-108.10024105589704"><ele>1853.0000000000002</ele><time>2026-03-29T18:11:59Z</time></trkpt><trkpt lat="36.89430607926948" lon="-108.10031298058189"><ele>1853.0000000000002</ele><time>2026-03-29T18:12:00Z</time></trkpt><trkpt lat="36.89427489234577" lon="-108.10042731804735"><ele>1853.0</ele><time>2026-03-29T18:12:01Z</time></trkpt><trkpt lat="36.89428076681332" lon="-108.10054863032651"><ele>1853.0</ele><time>2026-03-29T18:12:02Z</time></trkpt><trkpt lat="36.89429062504118" lon="-108.10064843619175"><ele>1853.0</ele><time>2026-03-29T18:12:03Z</time></trkpt><trkpt lat="36.89426276332452" lon="-108.10074506087442"><ele>1853.0000000000002</ele><time>2026-03-29T18:12:04Z</time></trkpt><trkpt lat="36.894193631708056" lon="-108.10077321740965"><ele>1853.0000000000002</ele><time>2026-03-29T18:12:05Z</time></trkpt><trkpt lat="36.89409721266869" lon="-108.10065175871595"><ele>1853.0</ele><time>2026-03-29T18:12:07Z</time></trkpt><trkpt lat="36.89404013081657" lon="-108.10054381371471"><ele>1853.0</ele><time>2026-03-29T18:12:08Z</time></trkpt><trkpt lat="36.8939674571524" lon="-108.10045583384104"><ele>1853.0</ele><time>2026-03-29T18:12:09Z</time></trkpt><trkpt lat="36.893871671120586" lon="-108.10038198762729"><ele>1853.0000000000002</ele><time>2026-03-29T18:12:10Z</time></trkpt><trkpt lat="36.8937914180663" lon="-108.10034999472644"><ele>1853.0000000000002</ele><time>2026-03-29T18:12:11Z</time></trkpt><trkpt lat="36.89371269990283" lon="-108.10035453090347"><ele>1853.0</ele><time>2026-03-29T18:12:12Z</time></trkpt><trkpt lat="36.89361314287853" lon="-108.10039556813972"><ele>1853.0</ele><time>2026-03-29T18:12:14Z</time></trkpt><trkpt lat="36.893632298740044" lon="-108.10052870094925"><ele>1853.0</ele><time>2026-03-29T18:12:16Z</time></trkpt><trkpt lat="36.89366424191561" lon="-108.10062743396755"><ele>1853.0000000000002</ele><time>2026-03-29T18:12:17Z</time></trkpt><trkpt lat="36.89364081203843" lon="-108.1007380891122"><ele>1853.0000000000002</ele><time>2026-03-29T18:12:18Z</time></trkpt><trkpt lat="36.893578966497884" lon="-108.10082124310479"><ele>1853.0</ele><time>2026-03-29T18:12:19Z</time></trkpt><trkpt lat="36.89347433081026" lon="-108.10090429895453"><ele>1853.0</ele><time>2026-03-29T18:12:20Z</time></trkpt><trkpt lat="36.89338705423224" lon="-108.1010086991566"><ele>1853.0</ele><time>2026-03-29T18:12:21Z</time></trkpt><trkpt lat="36.89327636902834" lon="-108.10109426720676"><ele>1853.0</ele><time>2026-03-29T18:12:22Z</time></trkpt><trkpt lat="36.89315489412744" lon="-108.10117008073486"><ele>1853.0</ele><time>2026-03-29T18:12:23Z</time></trkpt><trkpt lat="36.89302920827412" lon="-108.10124052084568"><ele>1853.0</ele><time>2026-03-29T18:12:24Z</time></trkpt><trkpt lat="36.89291031071219" lon="-108.1013087102257"><ele>1853.0</ele><time>2026-03-29T18:12:25Z</time></trkpt><trkpt lat="36.89277441971052" lon="-108.10138367227576"><ele>1853.0</ele><time>2026-03-29T18:12:26Z</time></trkpt><trkpt lat="36.89262765163337" lon="-108.10147059316738"><ele>1853.0</ele><time>2026-03-29T18:12:27Z</time></trkpt><trkpt lat="36.892479786160315" lon="-108.10155686771832"><ele>1852.3333333333333</ele><time>2026-03-29T18:12:28Z</time></trkpt><trkpt lat="36.89233861498278" lon="-108.10163282031155"><ele>1851.6666666666665</ele><time>2026-03-29T18:12:29Z</time></trkpt><trkpt lat="36.892186983070985" lon="-108.10169117907196"><ele>1851.0</ele><time>2026-03-29T18:12:30Z</time></trkpt><trkpt lat="36.89205057426233" lon="-108.10172299890898"><ele>1851.0</ele><time>2026-03-29T18:12:31Z</time></trkpt><trkpt lat="36.89191018841125" lon="-108.10172798950744"><ele>1851.0</ele><time>2026-03-29T18:12:32Z</time></trkpt><trkpt lat="36.89175538028546" lon="-108.10169184729291"><ele>1851.0</ele><time>2026-03-29T18:12:33Z</time></trkpt><trkpt lat="36.89159908237944" lon="-108.10165485344815"><ele>1850.5</ele><time>2026-03-29T18:12:34Z</time></trkpt><trkpt lat="36.89144399313777" lon="-108.101665671539"><ele>1850.0</ele><time>2026-03-29T18:12:35Z</time></trkpt><trkpt lat="36.8913149235705" lon="-108.10170966898023"><ele>1849.5</ele><time>2026-03-29T18:12:36Z</time></trkpt><trkpt lat="36.891210449509366" lon="-108.10176522065044"><ele>1849.0</ele><time>2026-03-29T18:12:37Z</time></trkpt><trkpt lat="36.89112300805842" lon="-108.1018369960588"><ele>1849.0</ele><time>2026-03-29T18:12:38Z</time></trkpt><trkpt lat="36.89104203303255" lon="-108.10192594826924"><ele>1849.0</ele><time>2026-03-29T18:12:39Z</time></trkpt><trkpt lat="36.890969648531204" lon="-108.10197671412502"><ele>1849.0</ele><time>2026-03-29T18:12:40Z</time></trkpt><trkpt lat="36.890898991399645" lon="-108.10195661541584"><ele>1849.0</ele><time>2026-03-29T18:12:41Z</time></trkpt><trkpt lat="36.890789358378235" lon="-108.10190981608369"><ele>1849.0</ele><time>2026-03-29T18:12:42Z</time></trkpt><trkpt lat="36.89069139450005" lon="-108.10185516159305"><ele>1849.0</ele><time>2026-03-29T18:12:43Z</time></trkpt><trkpt lat="36.89060309686029" lon="-108.10183415459927"><ele>1849.0</ele><time>2026-03-29T18:12:44Z</time></trkpt><trkpt lat="36.890476095808836" lon="-108.10181957701215"><ele>1849.0</ele><time>2026-03-29T18:12:45Z</time></trkpt><trkpt lat="36.890350349377805" lon="-108.10181897236265"><ele>1849.0</ele><time>2026-03-29T18:12:46Z</time></trkpt><trkpt lat="36.89024212890712" lon="-108.10182282473195"><ele>1849.0000000000002</ele><time>2026-03-29T18:12:47Z</time></trkpt><trkpt lat="36.890155874790864" lon="-108.10184016584189"><ele>1849.0</ele><time>2026-03-29T18:12:48Z</time></trkpt><trkpt lat="36.89009629008831" lon="-108.10188091702562"><ele>1849.0</ele><time>2026-03-29T18:12:49Z</time></trkpt><trkpt lat="36.890056275661195" lon="-108.10194180251298"><ele>1849.0</ele><time>2026-03-29T18:12:50Z</time></trkpt><trkpt lat="36.89004525847696" lon="-108.10204160296962"><ele>1849.0000000000002</ele><time>2026-03-29T18:12:51Z</time></trkpt><trkpt lat="36.89005212272486" lon="-108.10216147617537"><ele>1849.0</ele><time>2026-03-29T18:12:52Z</time></trkpt><trkpt lat="36.88999966735453" lon="-108.10221729682013"><ele>1849.0</ele><time>2026-03-29T18:12:53Z</time></trkpt><trkpt lat="36.88994621398729" lon="-108.10226538984207"><ele>1849.0</ele><time>2026-03-29T18:12:54Z</time></trkpt><trkpt lat="36.88988359918006" lon="-108.10230798280743"><ele>1849.0</ele><time>2026-03-29T18:12:55Z</time></trkpt><trkpt lat="36.889797902381616" lon="-108.10233198521316"><ele>1849.0</ele><time>2026-03-29T18:12:56Z</time></trkpt><trkpt lat="36.88967149892537" lon="-108.1023192508685"><ele>1849.0</ele><time>2026-03-29T18:12:57Z</time></trkpt><trkpt lat="36.88954437638605" lon="-108.10235181095595"><ele>1848.75</ele><time>2026-03-29T18:12:58Z</time></trkpt><trkpt lat="36.889442175852466" lon="-108.10242539639835"><ele>1848.5</ele><time>2026-03-29T18:12:59Z</time></trkpt><trkpt lat="36.88934754619666" lon="-108.10252895980327"><ele>1848.25</ele><time>2026-03-29T18:13:00Z</time></trkpt><trkpt lat="36.88923204528171" lon="-108.10262204192287"><ele>1848.0</ele><time>2026-03-29T18:13:01Z</time></trkpt><trkpt lat="36.88909892787893" lon="-108.10269735135732"><ele>1848.0</ele><time>2026-03-29T18:13:02Z</time></trkpt><trkpt lat="36.88896975324888" lon="-108.10275919576566"><ele>1848.0</ele><time>2026-03-29T18:13:03Z</time></trkpt><trkpt lat="36.888837794005816" lon="-108.10281786855298"><ele>1848.0</ele><time>2026-03-29T18:13:04Z</time></trkpt><trkpt lat="36.88868927021755" lon="-108.10284695172992"><ele>1848.0</ele><time>2026-03-29T18:13:05Z</time></trkpt><trkpt lat="36.88854862305014" lon="-108.10284412494299"><ele>1847.75</ele><time>2026-03-29T18:13:06Z</time></trkpt><trkpt lat="36.88840983154906" lon="-108.10282096189974"><ele>1847.5</ele><time>2026-03-29T18:13:07Z</time></trkpt><trkpt lat="36.888263351260356" lon="-108.1028185408525"><ele>1847.25</ele><time>2026-03-29T18:13:08Z</time></trkpt><trkpt lat="36.88813270573855" lon="-108.10288440082918"><ele>1847.0</ele><time>2026-03-29T18:13:09Z</time></trkpt><trkpt lat="36.88803804179149" lon="-108.10297952162132"><ele>1847.0</ele><time>2026-03-29T18:13:10Z</time></trkpt><trkpt lat="36.887961741004624" lon="-108.10306890013442"><ele>1846.9999999999998</ele><time>2026-03-29T18:13:11Z</time></trkpt><trkpt lat="36.887869153137046" lon="-108.10314658446914"><ele>1846.9999999999998</ele><time>2026-03-29T18:13:12Z</time></trkpt><trkpt lat="36.887772412794746" lon="-108.10318454669435"><ele>1847.0</ele><time>2026-03-29T18:13:13Z</time></trkpt><trkpt lat="36.88769420402363" lon="-108.1031573716875"><ele>1847.0</ele><time>2026-03-29T18:13:14Z</time></trkpt><trkpt lat="36.887622152659574" lon="-108.10307893527181"><ele>1847.3999999999999</ele><time>2026-03-29T18:13:15Z</time></trkpt><trkpt lat="36.88755184159752" lon="-108.10303896545318"><ele>1847.7999999999997</ele><time>2026-03-29T18:13:16Z</time></trkpt><trkpt lat="36.887491123909044" lon="-108.1030898392858"><ele>1848.2</ele><time>2026-03-29T18:13:17Z</time></trkpt><trkpt lat="36.88740939190215" lon="-108.10319392390592"><ele>1848.6</ele><time>2026-03-29T18:13:18Z</time></trkpt><trkpt lat="36.88732653441759" lon="-108.1032998371232"><ele>1849.0</ele><time>2026-03-29T18:13:19Z</time></trkpt><trkpt lat="36.88724371736337" lon="-108.10340683530819"><ele>1848.25</ele><time>2026-03-29T18:13:20Z</time></trkpt><trkpt lat="36.88713421505168" lon="-108.10348558027219"><ele>1847.5</ele><time>2026-03-29T18:13:21Z</time></trkpt><trkpt lat="36.88701249674329" lon="-108.10350949252873"><ele>1846.75</ele><time>2026-03-29T18:13:22Z</time></trkpt><trkpt lat="36.88688403688759" lon="-108.10353301177827"><ele>1846.0</ele><time>2026-03-29T18:13:23Z</time></trkpt><trkpt lat="36.88674276588298" lon="-108.10360469524106"><ele>1846.0</ele><time>2026-03-29T18:13:24Z</time></trkpt><trkpt lat="36.88661280562588" lon="-108.10367041558196"><ele>1846.0</ele><time>2026-03-29T18:13:25Z</time></trkpt><trkpt lat="36.886497374581666" lon="-108.10374630206753"><ele>1846.0</ele><time>2026-03-29T18:13:26Z</time></trkpt><trkpt lat="36.88642865408632" lon="-108.10382218032032"><ele>1846.0</ele><time>2026-03-29T18:13:27Z</time></trkpt><trkpt lat="36.88641098826651" lon="-108.10393272146334"><ele>1846.0000000000002</ele><time>2026-03-29T18:13:29Z</time></trkpt><trkpt lat="36.886480608194276" lon="-108.10400071100926"><ele>1846.0</ele><time>2026-03-29T18:13:30Z</time></trkpt><trkpt lat="36.886551532264974" lon="-108.10405941615173"><ele>1846.0</ele><time>2026-03-29T18:13:31Z</time></trkpt><trkpt lat="36.88661840281315" lon="-108.10412995598156"><ele>1846.0</ele><time>2026-03-29T18:13:32Z</time></trkpt><trkpt lat="36.88666143481514" lon="-108.10419537315967"><ele>1846.0000000000002</ele><time>2026-03-29T18:13:33Z</time></trkpt><trkpt lat="36.88659257793007" lon="-108.10431339224384"><ele>1846.0</ele><time>2026-03-29T18:13:35Z</time></trkpt><trkpt lat="36.8864026981222" lon="-108.10434527590105"><ele>1845.75</ele><time>2026-03-29T18:13:37Z</time></trkpt><trkpt lat="36.886267461889986" lon="-108.10437559274709"><ele>1845.5</ele><time>2026-03-29T18:13:38Z</time></trkpt><trkpt lat="36.88615133718772" lon="-108.1044277843761"><ele>1845.25</ele><time>2026-03-29T18:13:39Z</time></trkpt><trkpt lat="36.88602839226331" lon="-108.1044808451475"><ele>1845.0</ele><time>2026-03-29T18:13:40Z</time></trkpt><trkpt lat="36.88590619786141" lon="-108.10454754824235"><ele>1845.0</ele><time>2026-03-29T18:13:41Z</time></trkpt><trkpt lat="36.885789700264375" lon="-108.10464917136568"><ele>1845.0</ele><time>2026-03-29T18:13:42Z</time></trkpt><trkpt lat="36.885677386243415" lon="-108.10478117839197"><ele>1845.0</ele><time>2026-03-29T18:13:43Z</time></trkpt><trkpt lat="36.88556830322467" lon="-108.10494242657846"><ele>1844.25</ele><time>2026-03-29T18:13:44Z</time></trkpt><trkpt lat="36.8854592773813" lon="-108.10510161079837"><ele>1843.5</ele><time>2026-03-29T18:13:45Z</time></trkpt><trkpt lat="36.88534631519051" lon="-108.10524131416649"><ele>1842.75</ele><time>2026-03-29T18:13:46Z</time></trkpt><trkpt lat="36.88527443647631" lon="-108.10534302358215"><ele>1842.0</ele><time>2026-03-29T18:13:47Z</time></trkpt><trkpt lat="36.885224948838726" lon="-108.10544010322432"><ele>1842.0</ele><time>2026-03-29T18:13:48Z</time></trkpt><trkpt lat="36.88520225828271" lon="-108.1055793139138"><ele>1842.0</ele><time>2026-03-29T18:13:49Z</time></trkpt><trkpt lat="36.88516348291551" lon="-108.1057201969908"><ele>1842.0</ele><time>2026-03-29T18:13:50Z</time></trkpt><trkpt lat="36.885076162057025" lon="-108.10579053584193"><ele>1842.0</ele><time>2026-03-29T18:13:51Z</time></trkpt><trkpt lat="36.884949019355375" lon="-108.10582765435045"><ele>1842.0</ele><time>2026-03-29T18:13:52Z</time></trkpt><trkpt lat="36.884808967544686" lon="-108.10583227593378"><ele>1842.0</ele><time>2026-03-29T18:13:53Z</time></trkpt><trkpt lat="36.88467606978341" lon="-108.10583704945228"><ele>1842.0</ele><time>2026-03-29T18:13:54Z</time></trkpt><trkpt lat="36.884548339176135" lon="-108.1058706383277"><ele>1842.0</ele><time>2026-03-29T18:13:55Z</time></trkpt><trkpt lat="36.8844313890725" lon="-108.10594603052539"><ele>1842.0</ele><time>2026-03-29T18:13:56Z</time></trkpt><trkpt lat="36.88432557177826" lon="-108.10603153888059"><ele>1841.9999999999998</ele><time>2026-03-29T18:13:57Z</time></trkpt><trkpt lat="36.8842709193898" lon="-108.10611346574292"><ele>1841.9999999999998</ele><time>2026-03-29T18:13:58Z</time></trkpt><trkpt lat="36.884251401803866" lon="-108.10620181502652"><ele>1842.0</ele><time>2026-03-29T18:13:59Z</time></trkpt><trkpt lat="36.88427566719475" lon="-108.10630202019489"><ele>1842.0</ele><time>2026-03-29T18:14:00Z</time></trkpt><trkpt lat="36.884303189012094" lon="-108.10640254475965"><ele>1842.0</ele><time>2026-03-29T18:14:01Z</time></trkpt><trkpt lat="36.88432690942563" lon="-108.10649112815092"><ele>1842.0</ele><time>2026-03-29T18:14:02Z</time></trkpt><trkpt lat="36.88434813479773" lon="-108.10657470636927"><ele>1842.0</ele><time>2026-03-29T18:14:03Z</time></trkpt><trkpt lat="36.884336696646216" lon="-108.10669192121262"><ele>1842.0</ele><time>2026-03-29T18:14:04Z</time></trkpt><trkpt lat="36.884298585563975" lon="-108.10679347471769"><ele>1842.0</ele><time>2026-03-29T18:14:05Z</time></trkpt><trkpt lat="36.88424089254796" lon="-108.10683967370106"><ele>1842.0</ele><time>2026-03-29T18:14:06Z</time></trkpt><trkpt lat="36.88416047191299" lon="-108.10691931326672"><ele>1841.5</ele><time>2026-03-29T18:14:07Z</time></trkpt><trkpt lat="36.88405425586176" lon="-108.10696749220065"><ele>1841.0</ele><time>2026-03-29T18:14:08Z</time></trkpt><trkpt lat="36.883949821691054" lon="-108.10700719401932"><ele>1840.5</ele><time>2026-03-29T18:14:09Z</time></trkpt><trkpt lat="36.883832035203206" lon="-108.10704176039452"><ele>1840.0</ele><time>2026-03-29T18:14:10Z</time></trkpt><trkpt lat="36.88370238634461" lon="-108.10707824585208"><ele>1840.0</ele><time>2026-03-29T18:14:11Z</time></trkpt><trkpt lat="36.883570121550854" lon="-108.10711109614235"><ele>1840.0</ele><time>2026-03-29T18:14:12Z</time></trkpt><trkpt lat="36.88343491947077" lon="-108.10714583043386"><ele>1840.0</ele><time>2026-03-29T18:14:13Z</time></trkpt><trkpt lat="36.88329378001153" lon="-108.10719327237999"><ele>1840.0</ele><time>2026-03-29T18:14:14Z</time></trkpt><trkpt lat="36.883154314241246" lon="-108.10726281257519"><ele>1840.0</ele><time>2026-03-29T18:14:15Z</time></trkpt><trkpt lat="36.88302582273132" lon="-108.10735395730875"><ele>1840.0</ele><time>2026-03-29T18:14:16Z</time></trkpt><trkpt lat="36.882911776953755" lon="-108.10745447047832"><ele>1840.0</ele><time>2026-03-29T18:14:17Z</time></trkpt><trkpt lat="36.88283865840117" lon="-108.10755054247281"><ele>1840.0</ele><time>2026-03-29T18:14:18Z</time></trkpt><trkpt lat="36.882803673515426" lon="-108.10764746242664"><ele>1840.0</ele><time>2026-03-29T18:14:19Z</time></trkpt><trkpt lat="36.88278685947792" lon="-108.10774059364213"><ele>1840.0</ele><time>2026-03-29T18:14:20Z</time></trkpt><trkpt lat="36.88279349841092" lon="-108.1078434022536"><ele>1840.0</ele><time>2026-03-29T18:14:21Z</time></trkpt><trkpt lat="36.882830433249744" lon="-108.10795702721167"><ele>1840.0</ele><time>2026-03-29T18:14:22Z</time></trkpt><trkpt lat="36.882880122172104" lon="-108.10806697833021"><ele>1840.0</ele><time>2026-03-29T18:14:23Z</time></trkpt><trkpt lat="36.882997416918734" lon="-108.10809124328713"><ele>1840.0000000000002</ele><time>2026-03-29T18:14:25Z</time></trkpt><trkpt lat="36.88308350975258" lon="-108.10805670419758"><ele>1840.0</ele><time>2026-03-29T18:14:26Z</time></trkpt><trkpt lat="36.883172194542425" lon="-108.1080505685393"><ele>1840.0</ele><time>2026-03-29T18:14:27Z</time></trkpt><trkpt lat="36.88323652668619" lon="-108.10807496859016"><ele>1840.0</ele><time>2026-03-29T18:14:28Z</time></trkpt><trkpt lat="36.8832714703436" lon="-108.10814439065518"><ele>1840.0000000000002</ele><time>2026-03-29T18:14:29Z</time></trkpt><trkpt lat="36.88330368829666" lon="-108.10824169943074"><ele>1840.0</ele><time>2026-03-29T18:14:30Z</time></trkpt><trkpt lat="36.88331741766295" lon="-108.10836478166324"><ele>1839.8333333333335</ele><time>2026-03-29T18:14:31Z</time></trkpt><trkpt lat="36.883290681440826" lon="-108.1084382601698"><ele>1839.6666666666667</ele><time>2026-03-29T18:14:32Z</time></trkpt><trkpt lat="36.8832227220322" lon="-108.10849960763163"><ele>1839.5</ele><time>2026-03-29T18:14:33Z</time></trkpt><trkpt lat="36.88314001636756" lon="-108.10851753683602"><ele>1839.3333333333335</ele><time>2026-03-29T18:14:34Z</time></trkpt><trkpt lat="36.88305462779124" lon="-108.10854833085865"><ele>1839.1666666666667</ele><time>2026-03-29T18:14:35Z</time></trkpt><trkpt lat="36.88296040084504" lon="-108.10863195333916"><ele>1839.0</ele><time>2026-03-29T18:14:36Z</time></trkpt><trkpt lat="36.88286882112991" lon="-108.1087090080645"><ele>1839.0</ele><time>2026-03-29T18:14:37Z</time></trkpt><trkpt lat="36.882798675181306" lon="-108.10878905564729"><ele>1839.0</ele><time>2026-03-29T18:14:38Z</time></trkpt><trkpt lat="36.88275524657744" lon="-108.1088925950973"><ele>1839.0</ele><time>2026-03-29T18:14:39Z</time></trkpt><trkpt lat="36.882731430174246" lon="-108.10903208071863"><ele>1839.0</ele><time>2026-03-29T18:14:40Z</time></trkpt><trkpt lat="36.882693842405224" lon="-108.10918063284544"><ele>1839.0</ele><time>2026-03-29T18:14:41Z</time></trkpt><trkpt lat="36.88262936664997" lon="-108.10931241351155"><ele>1838.8000000000002</ele><time>2026-03-29T18:14:42Z</time></trkpt><trkpt lat="36.88256830878643" lon="-108.10943034122486"><ele>1838.6000000000001</ele><time>2026-03-29T18:14:43Z</time></trkpt><trkpt lat="36.8824703042386" lon="-108.10948956014086"><ele>1838.4</ele><time>2026-03-29T18:14:44Z</time></trkpt><trkpt lat="36.88236104265721" lon="-108.10950647099824"><ele>1838.2</ele><time>2026-03-29T18:14:45Z</time></trkpt><trkpt lat="36.88228726660158" lon="-108.10959734021453"><ele>1838.0</ele><time>2026-03-29T18:14:46Z</time></trkpt><trkpt lat="36.88220718573231" lon="-108.1097462885422"><ele>1838.0</ele><time>2026-03-29T18:14:47Z</time></trkpt><trkpt lat="36.882137620341695" lon="-108.10988224589654"><ele>1838.0</ele><time>2026-03-29T18:14:48Z</time></trkpt><trkpt lat="36.882078418065404" lon="-108.11004244770558"><ele>1838.0</ele><time>2026-03-29T18:14:49Z</time></trkpt><trkpt lat="36.88204259911933" lon="-108.1102070867971"><ele>1838.0</ele><time>2026-03-29T18:14:50Z</time></trkpt><trkpt lat="36.88202227320322" lon="-108.11036276256975"><ele>1837.8000000000002</ele><time>2026-03-29T18:14:51Z</time></trkpt><trkpt lat="36.88199850087401" lon="-108.11046829184322"><ele>1837.6000000000001</ele><time>2026-03-29T18:14:52Z</time></trkpt><trkpt lat="36.88192925995329" lon="-108.11053029173426"><ele>1837.3999999999999</ele><time>2026-03-29T18:14:53Z</time></trkpt><trkpt lat="36.88181915441955" lon="-108.11058950830055"><ele>1837.1999999999998</ele><time>2026-03-29T18:14:54Z</time></trkpt><trkpt lat="36.88171939106143" lon="-108.11065388181882"><ele>1837.0</ele><time>2026-03-29T18:14:55Z</time></trkpt><trkpt lat="36.88164813283898" lon="-108.11075703794728"><ele>1837.0</ele><time>2026-03-29T18:14:56Z</time></trkpt><trkpt lat="36.88156190031433" lon="-108.11087898225759"><ele>1837.0</ele><time>2026-03-29T18:14:57Z</time></trkpt><trkpt lat="36.881460540676905" lon="-108.11097698304405"><ele>1837.0</ele><time>2026-03-29T18:14:58Z</time></trkpt><trkpt lat="36.88133759936454" lon="-108.11108079459036"><ele>1837.0</ele><time>2026-03-29T18:14:59Z</time></trkpt><trkpt lat="36.88122847544515" lon="-108.1112055566872"><ele>1837.0</ele><time>2026-03-29T18:15:00Z</time></trkpt><trkpt lat="36.88114753398801" lon="-108.1113176894764"><ele>1837.0</ele><time>2026-03-29T18:15:01Z</time></trkpt><trkpt lat="36.88108383791827" lon="-108.11142691532017"><ele>1837.0</ele><time>2026-03-29T18:15:02Z</time></trkpt><trkpt lat="36.88105086347355" lon="-108.11155194326173"><ele>1837.0</ele><time>2026-03-29T18:15:03Z</time></trkpt><trkpt lat="36.88100286093613" lon="-108.11168886783977"><ele>1837.0</ele><time>2026-03-29T18:15:04Z</time></trkpt><trkpt lat="36.880936188386585" lon="-108.11180095734794"><ele>1837.0</ele><time>2026-03-29T18:15:05Z</time></trkpt><trkpt lat="36.88084283167096" lon="-108.1118986871269"><ele>1837.0</ele><time>2026-03-29T18:15:06Z</time></trkpt><trkpt lat="36.88076714084905" lon="-108.1120327462816"><ele>1837.0</ele><time>2026-03-29T18:15:07Z</time></trkpt><trkpt lat="36.880723362124975" lon="-108.11217100702176"><ele>1836.6</ele><time>2026-03-29T18:15:08Z</time></trkpt><trkpt lat="36.8807115963291" lon="-108.112291494994"><ele>1836.1999999999998</ele><time>2026-03-29T18:15:09Z</time></trkpt><trkpt lat="36.88072050202638" lon="-108.11240556168008"><ele>1835.8</ele><time>2026-03-29T18:15:10Z</time></trkpt><trkpt lat="36.88073746458293" lon="-108.11251474030145"><ele>1835.4</ele><time>2026-03-29T18:15:11Z</time></trkpt><trkpt lat="36.88073259399443" lon="-108.1126011096648"><ele>1835.0</ele><time>2026-03-29T18:15:12Z</time></trkpt><trkpt lat="36.880621367619554" lon="-108.11269924528271"><ele>1835.0</ele><time>2026-03-29T18:15:14Z</time></trkpt><trkpt lat="36.880538405907075" lon="-108.11272394650281"><ele>1835.0</ele><time>2026-03-29T18:15:15Z</time></trkpt><trkpt lat="36.88043306984038" lon="-108.11275000700375"><ele>1835.0</ele><time>2026-03-29T18:15:16Z</time></trkpt><trkpt lat="36.880338058505544" lon="-108.11277675765973"><ele>1835.0</ele><time>2026-03-29T18:15:17Z</time></trkpt><trkpt lat="36.88025620921605" lon="-108.11277716150447"><ele>1835.0</ele><time>2026-03-29T18:15:18Z</time></trkpt><trkpt lat="36.88014981388304" lon="-108.11268613629997"><ele>1835.75</ele><time>2026-03-29T18:15:20Z</time></trkpt><trkpt lat="36.880037690003554" lon="-108.11261820343411"><ele>1836.5</ele><time>2026-03-29T18:15:22Z</time></trkpt><trkpt lat="36.87993127839812" lon="-108.1126763268569"><ele>1837.25</ele><time>2026-03-29T18:15:23Z</time></trkpt><trkpt lat="36.87981850948352" lon="-108.11272196440964"><ele>1838.0</ele><time>2026-03-29T18:15:24Z</time></trkpt><trkpt lat="36.8797202559662" lon="-108.11277311902944"><ele>1837.9999999999998</ele><time>2026-03-29T18:15:25Z</time></trkpt><trkpt lat="36.87967639674177" lon="-108.11283752175183"><ele>1838.0</ele><time>2026-03-29T18:15:26Z</time></trkpt><trkpt lat="36.87972059098225" lon="-108.11294401378716"><ele>1838.0</ele><time>2026-03-29T18:15:28Z</time></trkpt><trkpt lat="36.879795241266194" lon="-108.11293865640526"><ele>1838.0</ele><time>2026-03-29T18:15:29Z</time></trkpt><trkpt lat="36.87986652659567" lon="-108.11292851215146"><ele>1837.9999999999998</ele><time>2026-03-29T18:15:30Z</time></trkpt><trkpt lat="36.879951639027084" lon="-108.1129527690579"><ele>1838.0</ele><time>2026-03-29T18:15:31Z</time></trkpt><trkpt lat="36.879984726770466" lon="-108.11306526151992"><ele>1838.0</ele><time>2026-03-29T18:15:33Z</time></trkpt><trkpt lat="36.879932530841955" lon="-108.11313867731776"><ele>1838.0000000000002</ele><time>2026-03-29T18:15:34Z</time></trkpt><trkpt lat="36.87985473023651" lon="-108.1131910185749"><ele>1838.0000000000002</ele><time>2026-03-29T18:15:35Z</time></trkpt><trkpt lat="36.879782327229876" lon="-108.11325129331324"><ele>1838.0</ele><time>2026-03-29T18:15:36Z</time></trkpt><trkpt lat="36.87970768496306" lon="-108.11333366341411"><ele>1838.0</ele><time>2026-03-29T18:15:37Z</time></trkpt><trkpt lat="36.8796279535075" lon="-108.11342365791904"><ele>1837.25</ele><time>2026-03-29T18:15:38Z</time></trkpt><trkpt lat="36.879539930943345" lon="-108.11350178953938"><ele>1836.5</ele><time>2026-03-29T18:15:39Z</time></trkpt><trkpt lat="36.879419543075365" lon="-108.11355736942875"><ele>1835.75</ele><time>2026-03-29T18:15:40Z</time></trkpt><trkpt lat="36.87930736360808" lon="-108.11364063169913"><ele>1835.0</ele><time>2026-03-29T18:15:41Z</time></trkpt><trkpt lat="36.879195566773106" lon="-108.1137374034546"><ele>1835.0</ele><time>2026-03-29T18:15:42Z</time></trkpt><trkpt lat="36.87908611654436" lon="-108.11384097922085"><ele>1835.0</ele><time>2026-03-29T18:15:43Z</time></trkpt><trkpt lat="36.87899503584373" lon="-108.11398914619507"><ele>1835.0</ele><time>2026-03-29T18:15:44Z</time></trkpt><trkpt lat="36.87892274657972" lon="-108.11415148475555"><ele>1835.0</ele><time>2026-03-29T18:15:45Z</time></trkpt><trkpt lat="36.87887859880723" lon="-108.11431155202072"><ele>1834.1666666666665</ele><time>2026-03-29T18:15:46Z</time></trkpt><trkpt lat="36.87889658975141" lon="-108.11443298022826"><ele>1833.3333333333333</ele><time>2026-03-29T18:15:47Z</time></trkpt><trkpt lat="36.87893221646261" lon="-108.11452137290989"><ele>1832.5</ele><time>2026-03-29T18:15:48Z</time></trkpt><trkpt lat="36.879022846174536" lon="-108.11458397007813"><ele>1831.6666666666665</ele><time>2026-03-29T18:15:49Z</time></trkpt><trkpt lat="36.87908957625323" lon="-108.114606590908"><ele>1830.8333333333333</ele><time>2026-03-29T18:15:50Z</time></trkpt><trkpt lat="36.879111422226536" lon="-108.11469906575607"><ele>1830.0</ele><time>2026-03-29T18:15:52Z</time></trkpt><trkpt lat="36.879045074417185" lon="-108.11476293119226"><ele>1830.0</ele><time>2026-03-29T18:15:53Z</time></trkpt><trkpt lat="36.87896295162204" lon="-108.11475946609006"><ele>1830.0</ele><time>2026-03-29T18:15:54Z</time></trkpt><trkpt lat="36.878873396978655" lon="-108.11478988123214"><ele>1830.0</ele><time>2026-03-29T18:15:55Z</time></trkpt><trkpt lat="36.87877837778932" lon="-108.11485537888652"><ele>1830.0</ele><time>2026-03-29T18:15:56Z</time></trkpt><trkpt lat="36.878661750722735" lon="-108.11491864576611"><ele>1830.0</ele><time>2026-03-29T18:15:57Z</time></trkpt><trkpt lat="36.878568100732686" lon="-108.11496653768096"><ele>1830.4</ele><time>2026-03-29T18:15:58Z</time></trkpt><trkpt lat="36.878513734751095" lon="-108.11503693463398"><ele>1830.8</ele><time>2026-03-29T18:15:59Z</time></trkpt><trkpt lat="36.8784737743433" lon="-108.11510538618818"><ele>1831.1999999999998</ele><time>2026-03-29T18:16:00Z</time></trkpt><trkpt lat="36.87844073463194" lon="-108.11522542647997"><ele>1831.6</ele><time>2026-03-29T18:16:01Z</time></trkpt><trkpt lat="36.87838506352186" lon="-108.11534219267601"><ele>1832.0</ele><time>2026-03-29T18:16:02Z</time></trkpt><trkpt lat="36.878317403608335" lon="-108.11547010702097"><ele>1832.0</ele><time>2026-03-29T18:16:03Z</time></trkpt><trkpt lat="36.878236824696785" lon="-108.11561985495304"><ele>1832.0</ele><time>2026-03-29T18:16:04Z</time></trkpt><trkpt lat="36.87815424475238" lon="-108.11575439081723"><ele>1832.0</ele><time>2026-03-29T18:16:05Z</time></trkpt><trkpt lat="36.878063998783475" lon="-108.11587721391881"><ele>1832.0</ele><time>2026-03-29T18:16:06Z</time></trkpt><trkpt lat="36.87793936245599" lon="-108.11598820994148"><ele>1831.6666666666665</ele><time>2026-03-29T18:16:07Z</time></trkpt><trkpt lat="36.87780583742682" lon="-108.11610355742515"><ele>1831.3333333333335</ele><time>2026-03-29T18:16:08Z</time></trkpt><trkpt lat="36.87766724943932" lon="-108.11622585177075"><ele>1831.0</ele><time>2026-03-29T18:16:09Z</time></trkpt><trkpt lat="36.8775444771149" lon="-108.11635954722136"><ele>1831.0</ele><time>2026-03-29T18:16:10Z</time></trkpt><trkpt lat="36.877445864767004" lon="-108.11646371465238"><ele>1831.0</ele><time>2026-03-29T18:16:11Z</time></trkpt><trkpt lat="36.87734396203455" lon="-108.11652139697485"><ele>1831.0</ele><time>2026-03-29T18:16:12Z</time></trkpt><trkpt lat="36.87724703957719" lon="-108.11655924571654"><ele>1831.0</ele><time>2026-03-29T18:16:13Z</time></trkpt><trkpt lat="36.87717124008473" lon="-108.11659265146265"><ele>1831.0</ele><time>2026-03-29T18:16:14Z</time></trkpt><trkpt lat="36.877163484987705" lon="-108.11668327947014"><ele>1830.75</ele><time>2026-03-29T18:16:16Z</time></trkpt><trkpt lat="36.87727661919185" lon="-108.11675758130059"><ele>1830.5</ele><time>2026-03-29T18:16:18Z</time></trkpt><trkpt lat="36.8773826905699" lon="-108.11681829260647"><ele>1830.25</ele><time>2026-03-29T18:16:19Z</time></trkpt><trkpt lat="36.877481435179654" lon="-108.11688783978703"><ele>1830.0</ele><time>2026-03-29T18:16:20Z</time></trkpt><trkpt lat="36.877563136545625" lon="-108.11697623918768"><ele>1830.0</ele><time>2026-03-29T18:16:21Z</time></trkpt><trkpt lat="36.87767848341163" lon="-108.11704524199513"><ele>1830.0</ele><time>2026-03-29T18:16:22Z</time></trkpt><trkpt lat="36.87780611709456" lon="-108.11712037433242"><ele>1830.0</ele><time>2026-03-29T18:16:23Z</time></trkpt><trkpt lat="36.877931456252526" lon="-108.11721762819151"><ele>1830.0</ele><time>2026-03-29T18:16:24Z</time></trkpt><trkpt lat="36.878069873368446" lon="-108.11731509174086"><ele>1830.0</ele><time>2026-03-29T18:16:25Z</time></trkpt><trkpt lat="36.87818492567329" lon="-108.11739535554257"><ele>1830.0</ele><time>2026-03-29T18:16:26Z</time></trkpt><trkpt lat="36.87826975973155" lon="-108.1174729687576"><ele>1830.0</ele><time>2026-03-29T18:16:27Z</time></trkpt><trkpt lat="36.87834790804705" lon="-108.11752938447817"><ele>1830.0</ele><time>2026-03-29T18:16:28Z</time></trkpt><trkpt lat="36.878418423758134" lon="-108.11756624437184"><ele>1830.0</ele><time>2026-03-29T18:16:29Z</time></trkpt><trkpt lat="36.87848686903519" lon="-108.11758413600748"><ele>1831.1666666666667</ele><time>2026-03-29T18:16:30Z</time></trkpt><trkpt lat="36.87855403860813" lon="-108.11754399543527"><ele>1832.3333333333335</ele><time>2026-03-29T18:16:31Z</time></trkpt><trkpt lat="36.87864625884429" lon="-108.11749421938322"><ele>1833.5</ele><time>2026-03-29T18:16:32Z</time></trkpt><trkpt lat="36.878709707572746" lon="-108.11748621752443"><ele>1834.6666666666667</ele><time>2026-03-29T18:16:33Z</time></trkpt><trkpt lat="36.878782480305794" lon="-108.11751138562478"><ele>1835.8333333333335</ele><time>2026-03-29T18:16:34Z</time></trkpt><trkpt lat="36.878855630758956" lon="-108.11753706480698"><ele>1837.0</ele><time>2026-03-29T18:16:35Z</time></trkpt><trkpt lat="36.87893954737704" lon="-108.11760250059972"><ele>1837.0</ele><time>2026-03-29T18:16:36Z</time></trkpt><trkpt lat="36.879021264271316" lon="-108.1176637715021"><ele>1836.9999999999998</ele><time>2026-03-29T18:16:37Z</time></trkpt><trkpt lat="36.879098837766264" lon="-108.11770946789427"><ele>1836.9999999999998</ele><time>2026-03-29T18:16:38Z</time></trkpt><trkpt lat="36.87916839060364" lon="-108.11776428512914"><ele>1837.0</ele><time>2026-03-29T18:16:39Z</time></trkpt><trkpt lat="36.87921701551972" lon="-108.1178316288756"><ele>1837.0</ele><time>2026-03-29T18:16:40Z</time></trkpt><trkpt lat="36.879283212918004" lon="-108.11796085679939"><ele>1837.8</ele><time>2026-03-29T18:16:42Z</time></trkpt><trkpt lat="36.87937666306862" lon="-108.11807354461894"><ele>1838.6</ele><time>2026-03-29T18:16:44Z</time></trkpt><trkpt lat="36.87943814992282" lon="-108.11814475336381"><ele>1839.3999999999999</ele><time>2026-03-29T18:16:45Z</time></trkpt><trkpt lat="36.879489902144876" lon="-108.11820354132978"><ele>1840.1999999999998</ele><time>2026-03-29T18:16:46Z</time></trkpt><trkpt lat="36.879574964799325" lon="-108.1182487842556"><ele>1841.0</ele><time>2026-03-29T18:16:48Z</time></trkpt><trkpt lat="36.87964980634017" lon="-108.11828083548674"><ele>1842.1999999999998</ele><time>2026-03-29T18:16:49Z</time></trkpt><trkpt lat="36.8797234004726" lon="-108.11830522393312"><ele>1843.3999999999999</ele><time>2026-03-29T18:16:50Z</time></trkpt><trkpt lat="36.879827485864936" lon="-108.1183452207777"><ele>1844.6</ele><time>2026-03-29T18:16:51Z</time></trkpt><trkpt lat="36.879921415246834" lon="-108.11840138330295"><ele>1845.8</ele><time>2026-03-29T18:16:52Z</time></trkpt><trkpt lat="36.88004438880402" lon="-108.11844540104552"><ele>1847.0</ele><time>2026-03-29T18:16:53Z</time></trkpt><trkpt lat="36.880149437700695" lon="-108.11849277343131"><ele>1848.0</ele><time>2026-03-29T18:16:54Z</time></trkpt><trkpt lat="36.88022186483064" lon="-108.11852159622119"><ele>1848.9999999999998</ele><time>2026-03-29T18:16:55Z</time></trkpt><trkpt lat="36.880293288589854" lon="-108.1185736406165"><ele>1849.9999999999998</ele><time>2026-03-29T18:16:57Z</time></trkpt><trkpt lat="36.88037042162036" lon="-108.11864045522157"><ele>1851.0</ele><time>2026-03-29T18:16:59Z</time></trkpt><trkpt lat="36.880455591946564" lon="-108.11872557215183"><ele>1852.0</ele><time>2026-03-29T18:17:01Z</time></trkpt><trkpt lat="36.88052075750908" lon="-108.11883944788605"><ele>1852.0000000000002</ele><time>2026-03-29T18:17:03Z</time></trkpt><trkpt lat="36.88054650149877" lon="-108.11892717141293"><ele>1852.0</ele><time>2026-03-29T18:17:04Z</time></trkpt><trkpt lat="36.88062540615501" lon="-108.11903997136518"><ele>1852.0</ele><time>2026-03-29T18:17:06Z</time></trkpt><trkpt lat="36.880683290171056" lon="-108.11910816882916"><ele>1852.0</ele><time>2026-03-29T18:17:07Z</time></trkpt><trkpt lat="36.880741117612075" lon="-108.11916947806112"><ele>1852.0000000000002</ele><time>2026-03-29T18:17:08Z</time></trkpt><trkpt lat="36.880805622716295" lon="-108.11921172390774"><ele>1852.0</ele><time>2026-03-29T18:17:09Z</time></trkpt><trkpt lat="36.88085721599401" lon="-108.11927972392517"><ele>1852.8333333333335</ele><time>2026-03-29T18:17:10Z</time></trkpt><trkpt lat="36.88089365977527" lon="-108.11936981874418"><ele>1853.6666666666667</ele><time>2026-03-29T18:17:11Z</time></trkpt><trkpt lat="36.8809831176518" lon="-108.11943063143957"><ele>1854.5</ele><time>2026-03-29T18:17:13Z</time></trkpt><trkpt lat="36.88106374356935" lon="-108.11945102398893"><ele>1855.3333333333335</ele><time>2026-03-29T18:17:14Z</time></trkpt><trkpt lat="36.881141662144096" lon="-108.11946165909625"><ele>1856.1666666666667</ele><time>2026-03-29T18:17:15Z</time></trkpt><trkpt lat="36.881213823054644" lon="-108.1194372178121"><ele>1857.0</ele><time>2026-03-29T18:17:16Z</time></trkpt><trkpt lat="36.88130560308312" lon="-108.11941664535965"><ele>1857.6666666666667</ele><time>2026-03-29T18:17:17Z</time></trkpt><trkpt lat="36.88140522025591" lon="-108.11941344459359"><ele>1858.3333333333335</ele><time>2026-03-29T18:17:18Z</time></trkpt><trkpt lat="36.88147212425118" lon="-108.11941116365371"><ele>1859.0</ele><time>2026-03-29T18:17:19Z</time></trkpt><trkpt lat="36.8815487286543" lon="-108.11942336411346"><ele>1859.6666666666667</ele><time>2026-03-29T18:17:20Z</time></trkpt><trkpt lat="36.88162866709897" lon="-108.11942819527884"><ele>1860.3333333333335</ele><time>2026-03-29T18:17:21Z</time></trkpt><trkpt lat="36.88170178303687" lon="-108.11940465090964"><ele>1861.0</ele><time>2026-03-29T18:17:22Z</time></trkpt><trkpt lat="36.881770341371286" lon="-108.11939883838437"><ele>1861.6666666666667</ele><time>2026-03-29T18:17:23Z</time></trkpt><trkpt lat="36.88186109361369" lon="-108.11945765385309"><ele>1862.3333333333335</ele><time>2026-03-29T18:17:24Z</time></trkpt><trkpt lat="36.8819613677197" lon="-108.1194809628451"><ele>1863.0</ele><time>2026-03-29T18:17:25Z</time></trkpt><trkpt lat="36.88204696212593" lon="-108.11944725441275"><ele>1863.6666666666665</ele><time>2026-03-29T18:17:26Z</time></trkpt><trkpt lat="36.88211633741263" lon="-108.11939363039963"><ele>1864.3333333333333</ele><time>2026-03-29T18:17:27Z</time></trkpt><trkpt lat="36.88218178336906" lon="-108.11937097868307"><ele>1865.0</ele><time>2026-03-29T18:17:28Z</time></trkpt><trkpt lat="36.88224625342894" lon="-108.11938026385356"><ele>1865.0</ele><time>2026-03-29T18:17:29Z</time></trkpt><trkpt lat="36.88232453559032" lon="-108.11936789686062"><ele>1865.0</ele><time>2026-03-29T18:17:30Z</time></trkpt><trkpt lat="36.8824165059742" lon="-108.1193560463585"><ele>1865.0</ele><time>2026-03-29T18:17:31Z</time></trkpt><trkpt lat="36.88249084023226" lon="-108.11937660671346"><ele>1865.0</ele><time>2026-03-29T18:17:32Z</time></trkpt><trkpt lat="36.88256507839949" lon="-108.11947771365593"><ele>1865.0</ele><time>2026-03-29T18:17:34Z</time></trkpt><trkpt lat="36.88250582725326" lon="-108.11958629880127"><ele>1865.0</ele><time>2026-03-29T18:17:36Z</time></trkpt><trkpt lat="36.88245561804104" lon="-108.11969004201534"><ele>1865.0</ele><time>2026-03-29T18:17:37Z</time></trkpt><trkpt lat="36.88244135538823" lon="-108.11983691959324"><ele>1865.0</ele><time>2026-03-29T18:17:38Z</time></trkpt><trkpt lat="36.88244641566488" lon="-108.11995932049926"><ele>1865.0</ele><time>2026-03-29T18:17:39Z</time></trkpt><trkpt lat="36.882436996213656" lon="-108.12011374365285"><ele>1865.0</ele><time>2026-03-29T18:17:40Z</time></trkpt><trkpt lat="36.8824239854366" lon="-108.12027603059963"><ele>1865.0</ele><time>2026-03-29T18:17:41Z</time></trkpt><trkpt lat="36.882411866623656" lon="-108.12043301118139"><ele>1865.0</ele><time>2026-03-29T18:17:42Z</time></trkpt><trkpt lat="36.88240386459189" lon="-108.12058813007802"><ele>1865.0</ele><time>2026-03-29T18:17:43Z</time></trkpt><trkpt lat="36.88240926390674" lon="-108.12073010212431"><ele>1865.0</ele><time>2026-03-29T18:17:44Z</time></trkpt><trkpt lat="36.88242808243655" lon="-108.1208650217118"><ele>1865.75</ele><time>2026-03-29T18:17:45Z</time></trkpt><trkpt lat="36.88245989434593" lon="-108.12098572617636"><ele>1866.5</ele><time>2026-03-29T18:17:46Z</time></trkpt><trkpt lat="36.88249517388999" lon="-108.1211346590733"><ele>1867.25</ele><time>2026-03-29T18:17:47Z</time></trkpt><trkpt lat="36.88253095993912" lon="-108.12130140610114"><ele>1868.0</ele><time>2026-03-29T18:17:48Z</time></trkpt><trkpt lat="36.88255174159768" lon="-108.12146118427246"><ele>1868.0</ele><time>2026-03-29T18:17:49Z</time></trkpt><trkpt lat="36.88253990602785" lon="-108.12160074895475"><ele>1868.0</ele><time>2026-03-29T18:17:50Z</time></trkpt><trkpt lat="36.88251068152465" lon="-108.12175554613721"><ele>1868.0</ele><time>2026-03-29T18:17:51Z</time></trkpt><trkpt lat="36.88248576854807" lon="-108.12192713771593"><ele>1868.0</ele><time>2026-03-29T18:17:52Z</time></trkpt><trkpt lat="36.882459754254214" lon="-108.12207049064452"><ele>1868.0</ele><time>2026-03-29T18:17:53Z</time></trkpt><trkpt lat="36.882425914936675" lon="-108.12218712468395"><ele>1868.0</ele><time>2026-03-29T18:17:54Z</time></trkpt><trkpt lat="36.88236418114334" lon="-108.1222888043694"><ele>1868.0</ele><time>2026-03-29T18:17:55Z</time></trkpt><trkpt lat="36.88228488897431" lon="-108.12239163029366"><ele>1868.0</ele><time>2026-03-29T18:17:56Z</time></trkpt><trkpt lat="36.88217497489011" lon="-108.12250923178802"><ele>1868.0</ele><time>2026-03-29T18:17:57Z</time></trkpt><trkpt lat="36.88205943959218" lon="-108.12262805036875"><ele>1868.0000000000002</ele><time>2026-03-29T18:17:58Z</time></trkpt><trkpt lat="36.88196853264773" lon="-108.12271386938616"><ele>1868.0000000000002</ele><time>2026-03-29T18:17:59Z</time></trkpt><trkpt lat="36.88188896518885" lon="-108.12277217504982"><ele>1868.0</ele><time>2026-03-29T18:18:00Z</time></trkpt><trkpt lat="36.881806861508835" lon="-108.12279909822595"><ele>1868.0</ele><time>2026-03-29T18:18:01Z</time></trkpt><trkpt lat="36.881700775012746" lon="-108.12279408504041"><ele>1868.0</ele><time>2026-03-29T18:18:02Z</time></trkpt><trkpt lat="36.88159441765138" lon="-108.12272853329917"><ele>1868.0000000000002</ele><time>2026-03-29T18:18:03Z</time></trkpt><trkpt lat="36.88149848735966" lon="-108.1226652048446"><ele>1868.0000000000002</ele><time>2026-03-29T18:18:04Z</time></trkpt><trkpt lat="36.881425909403575" lon="-108.12270987926911"><ele>1868.0</ele><time>2026-03-29T18:18:05Z</time></trkpt><trkpt lat="36.88137908380956" lon="-108.12280536012713"><ele>1868.0</ele><time>2026-03-29T18:18:06Z</time></trkpt><trkpt lat="36.881344216059425" lon="-108.12289861789768"><ele>1868.0</ele><time>2026-03-29T18:18:07Z</time></trkpt><trkpt lat="36.881273801213105" lon="-108.12297097823013"><ele>1868.0000000000002</ele><time>2026-03-29T18:18:08Z</time></trkpt><trkpt lat="36.8811882814616" lon="-108.1230106836304"><ele>1868.0000000000002</ele><time>2026-03-29T18:18:09Z</time></trkpt><trkpt lat="36.88110764667923" lon="-108.12302067284611"><ele>1868.0</ele><time>2026-03-29T18:18:10Z</time></trkpt><trkpt lat="36.88101008988644" lon="-108.1230098212334"><ele>1868.0</ele><time>2026-03-29T18:18:11Z</time></trkpt><trkpt lat="36.88090862559738" lon="-108.12301065408366"><ele>1867.4999999999998</ele><time>2026-03-29T18:18:12Z</time></trkpt><trkpt lat="36.880839438379674" lon="-108.12307266459689"><ele>1867.0</ele><time>2026-03-29T18:18:13Z</time></trkpt><trkpt lat="36.88077343213349" lon="-108.12313992395536"><ele>1866.5</ele><time>2026-03-29T18:18:14Z</time></trkpt><trkpt lat="36.88069687767017" lon="-108.1231828030039"><ele>1866.0</ele><time>2026-03-29T18:18:15Z</time></trkpt><trkpt lat="36.88063202555671" lon="-108.12323301654465"><ele>1865.4999999999998</ele><time>2026-03-29T18:18:16Z</time></trkpt><trkpt lat="36.88058904863351" lon="-108.12332015430677"><ele>1865.0</ele><time>2026-03-29T18:18:17Z</time></trkpt><trkpt lat="36.880561016724535" lon="-108.1234214238986"><ele>1865.0</ele><time>2026-03-29T18:18:18Z</time></trkpt><trkpt lat="36.880522454864405" lon="-108.12351621252633"><ele>1865.0</ele><time>2026-03-29T18:18:19Z</time></trkpt><trkpt lat="36.88044338439645" lon="-108.1235856908819"><ele>1865.0</ele><time>2026-03-29T18:18:20Z</time></trkpt><trkpt lat="36.88034044315649" lon="-108.12363833783313"><ele>1865.0</ele><time>2026-03-29T18:18:21Z</time></trkpt><trkpt lat="36.88026574117697" lon="-108.12368843370301"><ele>1865.0</ele><time>2026-03-29T18:18:22Z</time></trkpt><trkpt lat="36.880191625137094" lon="-108.12375952000399"><ele>1864.6</ele><time>2026-03-29T18:18:23Z</time></trkpt><trkpt lat="36.88007947976641" lon="-108.12380660759229"><ele>1864.2</ele><time>2026-03-29T18:18:24Z</time></trkpt><trkpt lat="36.87995658012965" lon="-108.1238379296364"><ele>1863.8000000000002</ele><time>2026-03-29T18:18:25Z</time></trkpt><trkpt lat="36.879869743669175" lon="-108.12388282270437"><ele>1863.4</ele><time>2026-03-29T18:18:26Z</time></trkpt><trkpt lat="36.879779212110016" lon="-108.12391169792349"><ele>1863.0</ele><time>2026-03-29T18:18:27Z</time></trkpt><trkpt lat="36.879674900674935" lon="-108.12393034650292"><ele>1863.0</ele><time>2026-03-29T18:18:28Z</time></trkpt><trkpt lat="36.87958287124485" lon="-108.1239758328677"><ele>1863.0000000000002</ele><time>2026-03-29T18:18:29Z</time></trkpt><trkpt lat="36.879505078806254" lon="-108.12401306780939"><ele>1863.0000000000002</ele><time>2026-03-29T18:18:30Z</time></trkpt><trkpt lat="36.87940432167824" lon="-108.12399085270023"><ele>1863.0</ele><time>2026-03-29T18:18:31Z</time></trkpt><trkpt lat="36.87931038884109" lon="-108.12394497410419"><ele>1863.0</ele><time>2026-03-29T18:18:32Z</time></trkpt><trkpt lat="36.8792256183768" lon="-108.12397703717963"><ele>1863.0</ele><time>2026-03-29T18:18:33Z</time></trkpt><trkpt lat="36.87913363483631" lon="-108.12404058588847"><ele>1863.0000000000002</ele><time>2026-03-29T18:18:34Z</time></trkpt><trkpt lat="36.8790467952638" lon="-108.1241309637524"><ele>1863.0000000000002</ele><time>2026-03-29T18:18:35Z</time></trkpt><trkpt lat="36.878953638958684" lon="-108.12420519889486"><ele>1863.0</ele><time>2026-03-29T18:18:36Z</time></trkpt><trkpt lat="36.878869245853124" lon="-108.12427111636691"><ele>1863.0</ele><time>2026-03-29T18:18:37Z</time></trkpt><trkpt lat="36.87879911699474" lon="-108.1243492476199"><ele>1863.0</ele><time>2026-03-29T18:18:38Z</time></trkpt><trkpt lat="36.87873151343045" lon="-108.12443138000557"><ele>1863.0000000000002</ele><time>2026-03-29T18:18:39Z</time></trkpt><trkpt lat="36.878672484482294" lon="-108.12452046270984"><ele>1863.0000000000002</ele><time>2026-03-29T18:18:40Z</time></trkpt><trkpt lat="36.87861421313705" lon="-108.12462077004876"><ele>1863.0</ele><time>2026-03-29T18:18:41Z</time></trkpt><trkpt lat="36.878566744932186" lon="-108.12472330322407"><ele>1863.0</ele><time>2026-03-29T18:18:42Z</time></trkpt><trkpt lat="36.878499891402775" lon="-108.1247982692575"><ele>1862.6000000000001</ele><time>2026-03-29T18:18:43Z</time></trkpt><trkpt lat="36.8784257102775" lon="-108.12485129266146"><ele>1862.2000000000003</ele><time>2026-03-29T18:18:44Z</time></trkpt><trkpt lat="36.87836815692803" lon="-108.1249552163319"><ele>1861.8</ele><time>2026-03-29T18:18:46Z</time></trkpt><trkpt lat="36.878328547014846" lon="-108.12503369086699"><ele>1861.4</ele><time>2026-03-29T18:18:47Z</time></trkpt><trkpt lat="36.878296078683405" lon="-108.12512453553195"><ele>1861.0</ele><time>2026-03-29T18:18:48Z</time></trkpt><trkpt lat="36.87817656941606" lon="-108.12519154609195"><ele>1861.0000000000002</ele><time>2026-03-29T18:18:50Z</time></trkpt><trkpt lat="36.87810247243253" lon="-108.1251928501791"><ele>1861.0</ele><time>2026-03-29T18:18:51Z</time></trkpt><trkpt lat="36.87800651736735" lon="-108.12518581216507"><ele>1861.0</ele><time>2026-03-29T18:18:53Z</time></trkpt><trkpt lat="36.8779373599362" lon="-108.1251816111351"><ele>1861.0</ele><time>2026-03-29T18:18:54Z</time></trkpt><trkpt lat="36.87785262260958" lon="-108.12519197727948"><ele>1861.0000000000002</ele><time>2026-03-29T18:18:55Z</time></trkpt><trkpt lat="36.87776841843673" lon="-108.12520543080772"><ele>1861.0</ele><time>2026-03-29T18:18:56Z</time></trkpt><trkpt lat="36.877690680980336" lon="-108.1252390879796"><ele>1861.0000000000002</ele><time>2026-03-29T18:18:57Z</time></trkpt><trkpt lat="36.87761354188623" lon="-108.12531085609274"><ele>1861.0</ele><time>2026-03-29T18:18:58Z</time></trkpt><trkpt lat="36.87754862431957" lon="-108.12540315406486"><ele>1861.0</ele><time>2026-03-29T18:18:59Z</time></trkpt><trkpt lat="36.87749264938583" lon="-108.12548339252267"><ele>1861.0</ele><time>2026-03-29T18:19:00Z</time></trkpt><trkpt lat="36.877414620661256" lon="-108.1255541695378"><ele>1861.0000000000002</ele><time>2026-03-29T18:19:01Z</time></trkpt><trkpt lat="36.87735875495504" lon="-108.12560893886229"><ele>1861.0</ele><time>2026-03-29T18:19:02Z</time></trkpt><trkpt lat="36.877306874984335" lon="-108.12566321469994"><ele>1860.8571428571427</ele><time>2026-03-29T18:19:03Z</time></trkpt><trkpt lat="36.87728226625576" lon="-108.12575271131028"><ele>1860.7142857142858</ele><time>2026-03-29T18:19:04Z</time></trkpt><trkpt lat="36.87727098497133" lon="-108.1258359563828"><ele>1860.5714285714284</ele><time>2026-03-29T18:19:05Z</time></trkpt><trkpt lat="36.87724076366153" lon="-108.12591560804348"><ele>1860.4285714285713</ele><time>2026-03-29T18:19:06Z</time></trkpt><trkpt lat="36.87719358679806" lon="-108.12598726774283"><ele>1860.2857142857142</ele><time>2026-03-29T18:19:07Z</time></trkpt><trkpt lat="36.87713355599449" lon="-108.1260549624125"><ele>1860.142857142857</ele><time>2026-03-29T18:19:08Z</time></trkpt><trkpt lat="36.877087203465145" lon="-108.1261262673726"><ele>1860.0</ele><time>2026-03-29T18:19:09Z</time></trkpt><trkpt lat="36.87705056841338" lon="-108.12621147356776"><ele>1860.0</ele><time>2026-03-29T18:19:10Z</time></trkpt><trkpt lat="36.87701027264115" lon="-108.12629920807407"><ele>1860.0</ele><time>2026-03-29T18:19:11Z</time></trkpt><trkpt lat="36.8769730129831" lon="-108.12637591492073"><ele>1860.0</ele><time>2026-03-29T18:19:12Z</time></trkpt><trkpt lat="36.87692695415009" lon="-108.12644291397586"><ele>1860.0</ele><time>2026-03-29T18:19:13Z</time></trkpt><trkpt lat="36.87687000828263" lon="-108.12649343744692"><ele>1860.0</ele><time>2026-03-29T18:19:14Z</time></trkpt><trkpt lat="36.87680681574824" lon="-108.1265331249717"><ele>1860.0</ele><time>2026-03-29T18:19:15Z</time></trkpt><trkpt lat="36.87674900768729" lon="-108.12656487472145"><ele>1860.0</ele><time>2026-03-29T18:19:16Z</time></trkpt><trkpt lat="36.87668585126254" lon="-108.1265972162944"><ele>1860.1666666666667</ele><time>2026-03-29T18:19:17Z</time></trkpt><trkpt lat="36.876621640099714" lon="-108.12662748487644"><ele>1860.3333333333335</ele><time>2026-03-29T18:19:18Z</time></trkpt><trkpt lat="36.87656027660507" lon="-108.12666368469296"><ele>1860.5</ele><time>2026-03-29T18:19:19Z</time></trkpt><trkpt lat="36.87649091464366" lon="-108.1266855520664"><ele>1860.6666666666667</ele><time>2026-03-29T18:19:20Z</time></trkpt><trkpt lat="36.87637297164231" lon="-108.12671720779097"><ele>1860.8333333333335</ele><time>2026-03-29T18:19:22Z</time></trkpt><trkpt lat="36.876308295452056" lon="-108.12684426633307"><ele>1861.0</ele><time>2026-03-29T18:19:24Z</time></trkpt><trkpt lat="36.876243162852624" lon="-108.12689871052379"><ele>1861.0000000000002</ele><time>2026-03-29T18:19:25Z</time></trkpt><trkpt lat="36.87615662171738" lon="-108.12694116653093"><ele>1861.0</ele><time>2026-03-29T18:19:26Z</time></trkpt><trkpt lat="36.87607879604468" lon="-108.12698841296712"><ele>1861.0</ele><time>2026-03-29T18:19:27Z</time></trkpt><trkpt lat="36.87603218712274" lon="-108.12706973510066"><ele>1861.0</ele><time>2026-03-29T18:19:28Z</time></trkpt><trkpt lat="36.87605116119329" lon="-108.12719792336311"><ele>1861.0000000000002</ele><time>2026-03-29T18:19:30Z</time></trkpt><trkpt lat="36.876105293401686" lon="-108.12726303083193"><ele>1861.0</ele><time>2026-03-29T18:19:31Z</time></trkpt><trkpt lat="36.87616300713779" lon="-108.12735552813753"><ele>1861.0</ele><time>2026-03-29T18:19:32Z</time></trkpt><trkpt lat="36.87619336412497" lon="-108.12746267909148"><ele>1861.0</ele><time>2026-03-29T18:19:33Z</time></trkpt><trkpt lat="36.87618889605126" lon="-108.12756699637816"><ele>1861.0</ele><time>2026-03-29T18:19:34Z</time></trkpt><trkpt lat="36.87620695881961" lon="-108.12767934368675"><ele>1861.0</ele><time>2026-03-29T18:19:35Z</time></trkpt><trkpt lat="36.876225511059836" lon="-108.12778490456762"><ele>1861.0</ele><time>2026-03-29T18:19:36Z</time></trkpt><trkpt lat="36.87624993020091" lon="-108.12792515687592"><ele>1861.0000000000002</ele><time>2026-03-29T18:19:37Z</time></trkpt><trkpt lat="36.87627071092952" lon="-108.1280266678662"><ele>1861.0</ele><time>2026-03-29T18:19:38Z</time></trkpt><trkpt lat="36.87627544855213" lon="-108.12814889615149"><ele>1861.0</ele><time>2026-03-29T18:19:39Z</time></trkpt><trkpt lat="36.876263308726564" lon="-108.12825918546665"><ele>1861.0</ele><time>2026-03-29T18:19:40Z</time></trkpt><trkpt lat="36.87621656262139" lon="-108.12835370614364"><ele>1861.0000000000002</ele><time>2026-03-29T18:19:41Z</time></trkpt><trkpt lat="36.87617998060067" lon="-108.12843029225726"><ele>1861.0</ele><time>2026-03-29T18:19:42Z</time></trkpt><trkpt lat="36.87617426153804" lon="-108.12852049175751"><ele>1860.6666666666667</ele><time>2026-03-29T18:19:43Z</time></trkpt><trkpt lat="36.87617350390201" lon="-108.12861597184357"><ele>1860.3333333333335</ele><time>2026-03-29T18:19:44Z</time></trkpt><trkpt lat="36.87616580732609" lon="-108.12871320674046"><ele>1860.0</ele><time>2026-03-29T18:19:45Z</time></trkpt><trkpt lat="36.87615372019113" lon="-108.12880522527966"><ele>1859.6666666666665</ele><time>2026-03-29T18:19:46Z</time></trkpt><trkpt lat="36.876110009419484" lon="-108.12893579937621"><ele>1859.3333333333333</ele><time>2026-03-29T18:19:48Z</time></trkpt><trkpt lat="36.876087616510915" lon="-108.12902806137011"><ele>1859.0</ele><time>2026-03-29T18:19:49Z</time></trkpt><trkpt lat="36.8761118813273" lon="-108.12918159701371"><ele>1859.0</ele><time>2026-03-29T18:19:51Z</time></trkpt><trkpt lat="36.8760509948551" lon="-108.12932002567034"><ele>1859.0</ele><time>2026-03-29T18:19:53Z</time></trkpt><trkpt lat="36.87601243722825" lon="-108.1293862181151"><ele>1859.0</ele><time>2026-03-29T18:19:54Z</time></trkpt><trkpt lat="36.87591867425166" lon="-108.12942630544171"><ele>1859.0</ele><time>2026-03-29T18:19:56Z</time></trkpt><trkpt lat="36.87581702475273" lon="-108.12941846037398"><ele>1859.0</ele><time>2026-03-29T18:19:58Z</time></trkpt><trkpt lat="36.87575217594794" lon="-108.12944168706265"><ele>1859.0</ele><time>2026-03-29T18:19:59Z</time></trkpt><trkpt lat="36.87563501292364" lon="-108.12937485176678"><ele>1859.0</ele><time>2026-03-29T18:20:01Z</time></trkpt><trkpt lat="36.87558247930105" lon="-108.12932165760286"><ele>1859.0</ele><time>2026-03-29T18:20:02Z</time></trkpt><trkpt lat="36.87549680843722" lon="-108.12921477239252"><ele>1859.0</ele><time>2026-03-29T18:20:04Z</time></trkpt><trkpt lat="36.875410593147784" lon="-108.12921377048471"><ele>1859.0</ele><time>2026-03-29T18:20:05Z</time></trkpt><trkpt lat="36.87532253285778" lon="-108.12923237879036"><ele>1858.9999999999998</ele><time>2026-03-29T18:20:06Z</time></trkpt><trkpt lat="36.875241218542264" lon="-108.12923927926387"><ele>1859.0</ele><time>2026-03-29T18:20:07Z</time></trkpt><trkpt lat="36.87516877121254" lon="-108.12925227567985"><ele>1859.0</ele><time>2026-03-29T18:20:08Z</time></trkpt><trkpt lat="36.87508278292946" lon="-108.12928262110103"><ele>1859.0</ele><time>2026-03-29T18:20:09Z</time></trkpt><trkpt lat="36.87498854687505" lon="-108.12932391791709"><ele>1858.9999999999998</ele><time>2026-03-29T18:20:10Z</time></trkpt><trkpt lat="36.874908318771716" lon="-108.12936029339573"><ele>1859.0</ele><time>2026-03-29T18:20:11Z</time></trkpt><trkpt lat="36.87482413580458" lon="-108.12940481300197"><ele>1857.6666666666665</ele><time>2026-03-29T18:20:12Z</time></trkpt><trkpt lat="36.87474620899278" lon="-108.12945985076999"><ele>1856.3333333333333</ele><time>2026-03-29T18:20:13Z</time></trkpt><trkpt lat="36.874702621896425" lon="-108.12954965797867"><ele>1855.0</ele><time>2026-03-29T18:20:14Z</time></trkpt><trkpt lat="36.87468653405078" lon="-108.12966176593962"><ele>1853.6666666666665</ele><time>2026-03-29T18:20:15Z</time></trkpt><trkpt lat="36.87467124064727" lon="-108.12976768608716"><ele>1852.3333333333333</ele><time>2026-03-29T18:20:16Z</time></trkpt><trkpt lat="36.874618096357935" lon="-108.12986190185211"><ele>1851.0</ele><time>2026-03-29T18:20:17Z</time></trkpt><trkpt lat="36.874563391721374" lon="-108.12994305074592"><ele>1850.0</ele><time>2026-03-29T18:20:18Z</time></trkpt><trkpt lat="36.87454710329768" lon="-108.13005013935913"><ele>1849.0</ele><time>2026-03-29T18:20:19Z</time></trkpt><trkpt lat="36.87452669870844" lon="-108.13017462710323"><ele>1848.0</ele><time>2026-03-29T18:20:20Z</time></trkpt><trkpt lat="36.874512119411534" lon="-108.1302606970966"><ele>1847.0</ele><time>2026-03-29T18:20:21Z</time></trkpt><trkpt lat="36.874456464495175" lon="-108.13038566960405"><ele>1846.0</ele><time>2026-03-29T18:20:23Z</time></trkpt><trkpt lat="36.874461859213774" lon="-108.13050272270604"><ele>1846.0</ele><time>2026-03-29T18:20:24Z</time></trkpt><trkpt lat="36.87444769679691" lon="-108.13063914012942"><ele>1846.0</ele><time>2026-03-29T18:20:25Z</time></trkpt><trkpt lat="36.874424084231535" lon="-108.13072132581586"><ele>1846.0</ele><time>2026-03-29T18:20:26Z</time></trkpt><trkpt lat="36.87443709699698" lon="-108.13081907592552"><ele>1846.0</ele><time>2026-03-29T18:20:27Z</time></trkpt><trkpt lat="36.87446219633981" lon="-108.13095363525782"><ele>1846.0</ele><time>2026-03-29T18:20:28Z</time></trkpt><trkpt lat="36.874474210717075" lon="-108.13106574339685"><ele>1845.0</ele><time>2026-03-29T18:20:29Z</time></trkpt><trkpt lat="36.87445300325484" lon="-108.13119046992355"><ele>1844.0</ele><time>2026-03-29T18:20:30Z</time></trkpt><trkpt lat="36.87443206317669" lon="-108.13129996258226"><ele>1843.0</ele><time>2026-03-29T18:20:31Z</time></trkpt><trkpt lat="36.87445997662825" lon="-108.13141123368075"><ele>1842.0</ele><time>2026-03-29T18:20:32Z</time></trkpt><trkpt lat="36.874522602761" lon="-108.13154237095318"><ele>1841.0</ele><time>2026-03-29T18:20:33Z</time></trkpt><trkpt lat="36.87455911355433" lon="-108.13165805514704"><ele>1839.6666666666665</ele><time>2026-03-29T18:20:34Z</time></trkpt><trkpt lat="36.87459710404625" lon="-108.13175951356574"><ele>1838.3333333333333</ele><time>2026-03-29T18:20:35Z</time></trkpt><trkpt lat="36.8746215400713" lon="-108.13183949654989"><ele>1837.0</ele><time>2026-03-29T18:20:36Z</time></trkpt><trkpt lat="36.87459926309929" lon="-108.1319334963671"><ele>1835.6666666666665</ele><time>2026-03-29T18:20:37Z</time></trkpt><trkpt lat="36.87455160406304" lon="-108.13199567231692"><ele>1834.3333333333333</ele><time>2026-03-29T18:20:38Z</time></trkpt><trkpt lat="36.874492164009006" lon="-108.13208245424632"><ele>1833.0</ele><time>2026-03-29T18:20:39Z</time></trkpt><trkpt lat="36.874433953052986" lon="-108.13218048357415"><ele>1833.0</ele><time>2026-03-29T18:20:40Z</time></trkpt><trkpt lat="36.87440054740865" lon="-108.13229160585375"><ele>1833.0000000000002</ele><time>2026-03-29T18:20:41Z</time></trkpt><trkpt lat="36.87439018454561" lon="-108.13241905647749"><ele>1833.0000000000002</ele><time>2026-03-29T18:20:42Z</time></trkpt><trkpt lat="36.87436987669375" lon="-108.13251665572228"><ele>1833.0</ele><time>2026-03-29T18:20:43Z</time></trkpt><trkpt lat="36.874339036065145" lon="-108.13265397840608"><ele>1833.0</ele><time>2026-03-29T18:20:45Z</time></trkpt><trkpt lat="36.874237951736745" lon="-108.13271711444332"><ele>1831.6000000000001</ele><time>2026-03-29T18:20:46Z</time></trkpt><trkpt lat="36.87415560391468" lon="-108.13281165724881"><ele>1830.2000000000003</ele><time>2026-03-29T18:20:47Z</time></trkpt><trkpt lat="36.874128387036706" lon="-108.13292881457241"><ele>1828.8</ele><time>2026-03-29T18:20:48Z</time></trkpt><trkpt lat="36.87412552270477" lon="-108.13301548261917"><ele>1827.4</ele><time>2026-03-29T18:20:49Z</time></trkpt><trkpt lat="36.87410175050768" lon="-108.13316178724664"><ele>1826.0</ele><time>2026-03-29T18:20:51Z</time></trkpt><trkpt lat="36.874082194403286" lon="-108.13330202065316"><ele>1825.4</ele><time>2026-03-29T18:20:53Z</time></trkpt><trkpt lat="36.874068858354015" lon="-108.13343992063848"><ele>1824.8</ele><time>2026-03-29T18:20:55Z</time></trkpt><trkpt lat="36.87408460529232" lon="-108.1335758897517"><ele>1824.2000000000003</ele><time>2026-03-29T18:20:57Z</time></trkpt><trkpt lat="36.87408316951388" lon="-108.13366170819377"><ele>1823.6000000000001</ele><time>2026-03-29T18:20:58Z</time></trkpt><trkpt lat="36.87408496647182" lon="-108.13377657028144"><ele>1823.0</ele><time>2026-03-29T18:20:59Z</time></trkpt><trkpt lat="36.87408851359566" lon="-108.13388869508177"><ele>1823.0</ele><time>2026-03-29T18:21:00Z</time></trkpt><trkpt lat="36.87409437576305" lon="-108.13402670823261"><ele>1823.0</ele><time>2026-03-29T18:21:01Z</time></trkpt><trkpt lat="36.874084733482874" lon="-108.13418445116127"><ele>1823.0</ele><time>2026-03-29T18:21:02Z</time></trkpt><trkpt lat="36.87406386788313" lon="-108.13433500548278"><ele>1823.0</ele><time>2026-03-29T18:21:03Z</time></trkpt><trkpt lat="36.87403060080514" lon="-108.13445362404082"><ele>1822.25</ele><time>2026-03-29T18:21:04Z</time></trkpt><trkpt lat="36.87397554168852" lon="-108.13455950718327"><ele>1821.5</ele><time>2026-03-29T18:21:05Z</time></trkpt><trkpt lat="36.87388419801933" lon="-108.13465453745437"><ele>1820.75</ele><time>2026-03-29T18:21:06Z</time></trkpt><trkpt lat="36.873795723754874" lon="-108.13474542564677"><ele>1820.0</ele><time>2026-03-29T18:21:07Z</time></trkpt><trkpt lat="36.87373346169427" lon="-108.13486979733734"><ele>1819.6</ele><time>2026-03-29T18:21:08Z</time></trkpt><trkpt lat="36.873683456984466" lon="-108.1349750901501"><ele>1819.2</ele><time>2026-03-29T18:21:09Z</time></trkpt><trkpt lat="36.87359754491546" lon="-108.1350526919366"><ele>1818.8000000000002</ele><time>2026-03-29T18:21:10Z</time></trkpt><trkpt lat="36.87349737070052" lon="-108.13513242307553"><ele>1818.4</ele><time>2026-03-29T18:21:11Z</time></trkpt><trkpt lat="36.873425201525905" lon="-108.13522939360332"><ele>1818.0</ele><time>2026-03-29T18:21:12Z</time></trkpt><trkpt lat="36.87335990183588" lon="-108.1353602614177"><ele>1818.0</ele><time>2026-03-29T18:21:13Z</time></trkpt><trkpt lat="36.87325256798462" lon="-108.13548614790466"><ele>1818.0</ele><time>2026-03-29T18:21:14Z</time></trkpt><trkpt lat="36.87314396717487" lon="-108.13562499350333"><ele>1818.0</ele><time>2026-03-29T18:21:15Z</time></trkpt><trkpt lat="36.873059697701414" lon="-108.13576041039963"><ele>1818.0</ele><time>2026-03-29T18:21:16Z</time></trkpt><trkpt lat="36.87299176746251" lon="-108.13586747706428"><ele>1817.75</ele><time>2026-03-29T18:21:17Z</time></trkpt><trkpt lat="36.8729124952995" lon="-108.13594543815383"><ele>1817.5</ele><time>2026-03-29T18:21:18Z</time></trkpt><trkpt lat="36.87280795179248" lon="-108.13598007869167"><ele>1817.25</ele><time>2026-03-29T18:21:19Z</time></trkpt><trkpt lat="36.87268118834734" lon="-108.13595381317623"><ele>1817.0</ele><time>2026-03-29T18:21:20Z</time></trkpt><trkpt lat="36.872560737026426" lon="-108.13591649830518"><ele>1816.8</ele><time>2026-03-29T18:21:21Z</time></trkpt><trkpt lat="36.87245584918827" lon="-108.13588466695234"><ele>1816.6</ele><time>2026-03-29T18:21:22Z</time></trkpt><trkpt lat="36.87237783224757" lon="-108.13582779185414"><ele>1816.3999999999999</ele><time>2026-03-29T18:21:23Z</time></trkpt><trkpt lat="36.8722893886675" lon="-108.13581603876484"><ele>1816.1999999999998</ele><time>2026-03-29T18:21:24Z</time></trkpt><trkpt lat="36.87217906655279" lon="-108.13586837226713"><ele>1816.0</ele><time>2026-03-29T18:21:25Z</time></trkpt><trkpt lat="36.872089068749744" lon="-108.13594319097416"><ele>1816.0000000000002</ele><time>2026-03-29T18:21:26Z</time></trkpt><trkpt lat="36.87201861511234" lon="-108.13598269711594"><ele>1816.0</ele><time>2026-03-29T18:21:27Z</time></trkpt><trkpt lat="36.8719407825966" lon="-108.13598486150661"><ele>1816.0</ele><time>2026-03-29T18:21:28Z</time></trkpt><trkpt lat="36.87183620265251" lon="-108.13595993201879"><ele>1816.0</ele><time>2026-03-29T18:21:30Z</time></trkpt><trkpt lat="36.87177037687555" lon="-108.13596264950652"><ele>1816.0000000000002</ele><time>2026-03-29T18:21:31Z</time></trkpt><trkpt lat="36.87167499425125" lon="-108.13598393874756"><ele>1816.0</ele><time>2026-03-29T18:21:32Z</time></trkpt><trkpt lat="36.87156107821655" lon="-108.13601229938581"><ele>1815.5</ele><time>2026-03-29T18:21:33Z</time></trkpt><trkpt lat="36.871437166134456" lon="-108.13603172670373"><ele>1815.0</ele><time>2026-03-29T18:21:34Z</time></trkpt><trkpt lat="36.87129877117551" lon="-108.13604365358825"><ele>1814.5</ele><time>2026-03-29T18:21:35Z</time></trkpt><trkpt lat="36.871165489510304" lon="-108.13604833993688"><ele>1814.0</ele><time>2026-03-29T18:21:36Z</time></trkpt><trkpt lat="36.87104096079205" lon="-108.13603291646093"><ele>1813.0</ele><time>2026-03-29T18:21:37Z</time></trkpt><trkpt lat="36.87091697041148" lon="-108.13599940838006"><ele>1812.0</ele><time>2026-03-29T18:21:38Z</time></trkpt><trkpt lat="36.87079508402034" lon="-108.1359600920509"><ele>1811.0</ele><time>2026-03-29T18:21:39Z</time></trkpt><trkpt lat="36.87068560387467" lon="-108.13591477616626"><ele>1810.0</ele><time>2026-03-29T18:21:40Z</time></trkpt><trkpt lat="36.87058283264106" lon="-108.13588207215314"><ele>1810.0</ele><time>2026-03-29T18:21:41Z</time></trkpt><trkpt lat="36.87047982803424" lon="-108.13589239325974"><ele>1810.0</ele><time>2026-03-29T18:21:42Z</time></trkpt><trkpt lat="36.87036708425261" lon="-108.13591208603995"><ele>1810.0</ele><time>2026-03-29T18:21:43Z</time></trkpt><trkpt lat="36.87024815044432" lon="-108.1359135824607"><ele>1810.0</ele><time>2026-03-29T18:21:44Z</time></trkpt><trkpt lat="36.87014720502195" lon="-108.13593061002109"><ele>1810.0</ele><time>2026-03-29T18:21:45Z</time></trkpt><trkpt lat="36.87007931436548" lon="-108.13596827227666"><ele>1809.8</ele><time>2026-03-29T18:21:46Z</time></trkpt><trkpt lat="36.870019098316654" lon="-108.13594058445932"><ele>1809.6</ele><time>2026-03-29T18:21:47Z</time></trkpt><trkpt lat="36.86995000006282" lon="-108.13583724224898"><ele>1809.4</ele><time>2026-03-29T18:21:48Z</time></trkpt><trkpt lat="36.86984916090987" lon="-108.13576026230685"><ele>1809.2</ele><time>2026-03-29T18:21:49Z</time></trkpt><trkpt lat="36.86973953820705" lon="-108.13571660277155"><ele>1809.0</ele><time>2026-03-29T18:21:50Z</time></trkpt><trkpt lat="36.86966907105025" lon="-108.13573858887749"><ele>1810.0</ele><time>2026-03-29T18:21:51Z</time></trkpt><trkpt lat="36.86959894340067" lon="-108.13560102172993"><ele>1811.0</ele><time>2026-03-29T18:21:53Z</time></trkpt><trkpt lat="36.869608016408584" lon="-108.13545493931443"><ele>1812.0</ele><time>2026-03-29T18:21:54Z</time></trkpt><trkpt lat="36.869614143535216" lon="-108.13535005364201"><ele>1813.0</ele><time>2026-03-29T18:21:55Z</time></trkpt><trkpt lat="36.86960956765276" lon="-108.13525990778335"><ele>1814.0</ele><time>2026-03-29T18:21:56Z</time></trkpt><trkpt lat="36.86962141332654" lon="-108.13516287139512"><ele>1813.9999999999998</ele><time>2026-03-29T18:21:57Z</time></trkpt><trkpt lat="36.869654248419394" lon="-108.13506316549615"><ele>1814.0</ele><time>2026-03-29T18:21:58Z</time></trkpt><trkpt lat="36.86964957353429" lon="-108.13497370583389"><ele>1814.0</ele><time>2026-03-29T18:21:59Z</time></trkpt><trkpt lat="36.86960963698333" lon="-108.13489674296734"><ele>1814.0</ele><time>2026-03-29T18:22:00Z</time></trkpt><trkpt lat="36.8695496809505" lon="-108.13484973918018"><ele>1813.9999999999998</ele><time>2026-03-29T18:22:01Z</time></trkpt><trkpt lat="36.86947686165759" lon="-108.13481239349127"><ele>1814.0</ele><time>2026-03-29T18:22:02Z</time></trkpt><trkpt lat="36.86939034938047" lon="-108.13477434221961"><ele>1813.9999999999998</ele><time>2026-03-29T18:22:03Z</time></trkpt><trkpt lat="36.869310476194784" lon="-108.13472888253867"><ele>1814.0</ele><time>2026-03-29T18:22:04Z</time></trkpt><trkpt lat="36.86924535070891" lon="-108.13466005354451"><ele>1814.0</ele><time>2026-03-29T18:22:05Z</time></trkpt><trkpt lat="36.8691684126878" lon="-108.13461936172176"><ele>1814.0</ele><time>2026-03-29T18:22:06Z</time></trkpt><trkpt lat="36.86908319454642" lon="-108.13461116852916"><ele>1813.9999999999998</ele><time>2026-03-29T18:22:07Z</time></trkpt><trkpt lat="36.86898577946146" lon="-108.13462403143406"><ele>1814.0</ele><time>2026-03-29T18:22:08Z</time></trkpt><trkpt lat="36.86889243642696" lon="-108.13464300853116"><ele>1814.3333333333333</ele><time>2026-03-29T18:22:09Z</time></trkpt><trkpt lat="36.86879664753049" lon="-108.13467344364929"><ele>1814.6666666666665</ele><time>2026-03-29T18:22:10Z</time></trkpt><trkpt lat="36.86869874574071" lon="-108.13469191607805"><ele>1815.0</ele><time>2026-03-29T18:22:11Z</time></trkpt><trkpt lat="36.86861423689422" lon="-108.13470384968463"><ele>1815.3333333333335</ele><time>2026-03-29T18:22:12Z</time></trkpt><trkpt lat="36.8685496348118" lon="-108.13474301203584"><ele>1815.6666666666667</ele><time>2026-03-29T18:22:13Z</time></trkpt><trkpt lat="36.86852523962488" lon="-108.13482813952636"><ele>1816.0</ele><time>2026-03-29T18:22:14Z</time></trkpt><trkpt lat="36.86853806616302" lon="-108.13493078768717"><ele>1816.0000000000002</ele><time>2026-03-29T18:22:15Z</time></trkpt><trkpt lat="36.86852228229238" lon="-108.13506580361594"><ele>1816.0</ele><time>2026-03-29T18:22:16Z</time></trkpt><trkpt lat="36.86846178037346" lon="-108.13515513588213"><ele>1816.0</ele><time>2026-03-29T18:22:17Z</time></trkpt><trkpt lat="36.86838472702456" lon="-108.13520029616461"><ele>1816.0</ele><time>2026-03-29T18:22:18Z</time></trkpt><trkpt lat="36.868351378156" lon="-108.13527826787593"><ele>1816.0000000000002</ele><time>2026-03-29T18:22:19Z</time></trkpt><trkpt lat="36.86830321692847" lon="-108.13534563972449"><ele>1816.0</ele><time>2026-03-29T18:22:20Z</time></trkpt><trkpt lat="36.86825255731521" lon="-108.13539842058964"><ele>1816.5000000000002</ele><time>2026-03-29T18:22:21Z</time></trkpt><trkpt lat="36.86817502526467" lon="-108.13543401868169"><ele>1817.0</ele><time>2026-03-29T18:22:22Z</time></trkpt><trkpt lat="36.86808164112541" lon="-108.13545076075509"><ele>1817.5</ele><time>2026-03-29T18:22:23Z</time></trkpt><trkpt lat="36.86799762242098" lon="-108.13546379538178"><ele>1818.0</ele><time>2026-03-29T18:22:24Z</time></trkpt><trkpt lat="36.867920625258954" lon="-108.13547453805357"><ele>1818.5000000000002</ele><time>2026-03-29T18:22:25Z</time></trkpt><trkpt lat="36.86784119260683" lon="-108.13545758950465"><ele>1819.0</ele><time>2026-03-29T18:22:26Z</time></trkpt><trkpt lat="36.86774107475799" lon="-108.13542069513252"><ele>1819.0</ele><time>2026-03-29T18:22:27Z</time></trkpt><trkpt lat="36.86764509908158" lon="-108.13540806911665"><ele>1819.0</ele><time>2026-03-29T18:22:28Z</time></trkpt><trkpt lat="36.867553915469294" lon="-108.13541503182662"><ele>1819.0</ele><time>2026-03-29T18:22:29Z</time></trkpt><trkpt lat="36.867438603526864" lon="-108.13542407637408"><ele>1819.0</ele><time>2026-03-29T18:22:30Z</time></trkpt><trkpt lat="36.86733910443068" lon="-108.13544991947968"><ele>1819.0</ele><time>2026-03-29T18:22:31Z</time></trkpt><trkpt lat="36.867240824652555" lon="-108.13548774751341"><ele>1817.8000000000002</ele><time>2026-03-29T18:22:32Z</time></trkpt><trkpt lat="36.867147014145836" lon="-108.13547931062335"><ele>1816.6000000000001</ele><time>2026-03-29T18:22:33Z</time></trkpt><trkpt lat="36.8670531781232" lon="-108.13542352952008"><ele>1815.4</ele><time>2026-03-29T18:22:34Z</time></trkpt><trkpt lat="36.86698380451201" lon="-108.13540963796095"><ele>1814.2</ele><time>2026-03-29T18:22:35Z</time></trkpt><trkpt lat="36.866902106013384" lon="-108.1354387845333"><ele>1813.0</ele><time>2026-03-29T18:22:36Z</time></trkpt><trkpt lat="36.86680894988019" lon="-108.13549019839652"><ele>1813.0</ele><time>2026-03-29T18:22:37Z</time></trkpt><trkpt lat="36.86669689912587" lon="-108.13551869369732"><ele>1813.0000000000002</ele><time>2026-03-29T18:22:38Z</time></trkpt><trkpt lat="36.866577203442716" lon="-108.13551937760604"><ele>1813.0000000000002</ele><time>2026-03-29T18:22:39Z</time></trkpt><trkpt lat="36.86650785240298" lon="-108.13556572004417"><ele>1813.0</ele><time>2026-03-29T18:22:40Z</time></trkpt><trkpt lat="36.866439502935975" lon="-108.1356765116833"><ele>1813.0</ele><time>2026-03-29T18:22:41Z</time></trkpt><trkpt lat="36.86638424504682" lon="-108.13580816829342"><ele>1812.8000000000002</ele><time>2026-03-29T18:22:42Z</time></trkpt><trkpt lat="36.86633368521587" lon="-108.13592721924154"><ele>1812.6000000000001</ele><time>2026-03-29T18:22:43Z</time></trkpt><trkpt lat="36.86627580806669" lon="-108.13601857030274"><ele>1812.3999999999999</ele><time>2026-03-29T18:22:44Z</time></trkpt><trkpt lat="36.86619085836544" lon="-108.13609040567104"><ele>1812.1999999999998</ele><time>2026-03-29T18:22:45Z</time></trkpt><trkpt lat="36.866100589826274" lon="-108.13613748595427"><ele>1812.0</ele><time>2026-03-29T18:22:46Z</time></trkpt><trkpt lat="36.866022873147664" lon="-108.13621992780628"><ele>1812.0</ele><time>2026-03-29T18:22:47Z</time></trkpt><trkpt lat="36.86597233301275" lon="-108.13633035217559"><ele>1812.0</ele><time>2026-03-29T18:22:48Z</time></trkpt><trkpt lat="36.86589893513312" lon="-108.13643993755029"><ele>1812.0</ele><time>2026-03-29T18:22:49Z</time></trkpt><trkpt lat="36.86581273338948" lon="-108.13652618566634"><ele>1812.0</ele><time>2026-03-29T18:22:50Z</time></trkpt><trkpt lat="36.865688324821114" lon="-108.13662304152324"><ele>1812.75</ele><time>2026-03-29T18:22:51Z</time></trkpt><trkpt lat="36.865532977015015" lon="-108.13668509785833"><ele>1813.5</ele><time>2026-03-29T18:22:52Z</time></trkpt><trkpt lat="36.86541133596964" lon="-108.13673774187775"><ele>1814.25</ele><time>2026-03-29T18:22:53Z</time></trkpt><trkpt lat="36.86531283235278" lon="-108.13677801034409"><ele>1815.0</ele><time>2026-03-29T18:22:54Z</time></trkpt><trkpt lat="36.86520485644136" lon="-108.13680029863589"><ele>1816.0</ele><time>2026-03-29T18:22:55Z</time></trkpt><trkpt lat="36.86510948663854" lon="-108.13685951497973"><ele>1817.0</ele><time>2026-03-29T18:22:56Z</time></trkpt><trkpt lat="36.865024093954034" lon="-108.13693986387369"><ele>1818.0</ele><time>2026-03-29T18:22:57Z</time></trkpt><trkpt lat="36.86493959645023" lon="-108.1370323021892"><ele>1819.0</ele><time>2026-03-29T18:22:58Z</time></trkpt><trkpt lat="36.86485070487773" lon="-108.13712145445747"><ele>1820.0</ele><time>2026-03-29T18:22:59Z</time></trkpt><trkpt lat="36.86477141202774" lon="-108.13719137382448"><ele>1819.9999999999998</ele><time>2026-03-29T18:23:00Z</time></trkpt><trkpt lat="36.86469012368536" lon="-108.13725046965544"><ele>1820.0</ele><time>2026-03-29T18:23:01Z</time></trkpt><trkpt lat="36.86461502271139" lon="-108.13729691125954"><ele>1820.0</ele><time>2026-03-29T18:23:02Z</time></trkpt><trkpt lat="36.864533578510134" lon="-108.13734732434791"><ele>1820.0</ele><time>2026-03-29T18:23:03Z</time></trkpt><trkpt lat="36.864458852449154" lon="-108.13739442943209"><ele>1819.9999999999998</ele><time>2026-03-29T18:23:04Z</time></trkpt><trkpt lat="36.86437704125539" lon="-108.13742485696095"><ele>1820.0</ele><time>2026-03-29T18:23:05Z</time></trkpt><trkpt lat="36.86427923665829" lon="-108.13743874258242"><ele>1820.9999999999998</ele><time>2026-03-29T18:23:06Z</time></trkpt><trkpt lat="36.864179750921124" lon="-108.1374437284569"><ele>1822.0</ele><time>2026-03-29T18:23:07Z</time></trkpt><trkpt lat="36.86409462603971" lon="-108.13746218411175"><ele>1823.0</ele><time>2026-03-29T18:23:08Z</time></trkpt><trkpt lat="36.864030299501636" lon="-108.13749184693616"><ele>1824.0</ele><time>2026-03-29T18:23:09Z</time></trkpt><trkpt lat="36.8639420530083" lon="-108.13753455270503"><ele>1824.9999999999998</ele><time>2026-03-29T18:23:10Z</time></trkpt><trkpt lat="36.863865123475726" lon="-108.13757141040873"><ele>1826.0</ele><time>2026-03-29T18:23:11Z</time></trkpt><trkpt lat="36.86379702716882" lon="-108.13759120317634"><ele>1825.9999999999998</ele><time>2026-03-29T18:23:12Z</time></trkpt><trkpt lat="36.86371896560455" lon="-108.13761027396117"><ele>1826.0</ele><time>2026-03-29T18:23:13Z</time></trkpt><trkpt lat="36.863647168435605" lon="-108.13764955448293"><ele>1826.0</ele><time>2026-03-29T18:23:14Z</time></trkpt><trkpt lat="36.86356815089448" lon="-108.13769024571779"><ele>1826.0</ele><time>2026-03-29T18:23:15Z</time></trkpt><trkpt lat="36.86348194693769" lon="-108.13771050282072"><ele>1825.9999999999998</ele><time>2026-03-29T18:23:16Z</time></trkpt><trkpt lat="36.86340736855397" lon="-108.13774110693332"><ele>1826.0</ele><time>2026-03-29T18:23:17Z</time></trkpt><trkpt lat="36.86335994779652" lon="-108.13780125712339"><ele>1825.9999999999998</ele><time>2026-03-29T18:23:18Z</time></trkpt><trkpt lat="36.863334285610705" lon="-108.13788011799043"><ele>1826.0</ele><time>2026-03-29T18:23:19Z</time></trkpt><trkpt lat="36.86332568259887" lon="-108.13798622194305"><ele>1826.0</ele><time>2026-03-29T18:23:20Z</time></trkpt><trkpt lat="36.863321579443294" lon="-108.13806869813935"><ele>1826.0</ele><time>2026-03-29T18:23:21Z</time></trkpt><trkpt lat="36.86333950249899" lon="-108.13814615209844"><ele>1825.9999999999998</ele><time>2026-03-29T18:23:22Z</time></trkpt><trkpt lat="36.863372282027626" lon="-108.13825036873723"><ele>1826.0</ele><time>2026-03-29T18:23:23Z</time></trkpt><trkpt lat="36.86335856660128" lon="-108.13835071672074"><ele>1825.9999999999998</ele><time>2026-03-29T18:23:24Z</time></trkpt><trkpt lat="36.86332458899546" lon="-108.13845591573578"><ele>1826.0</ele><time>2026-03-29T18:23:25Z</time></trkpt><trkpt lat="36.86328013572998" lon="-108.1385402526538"><ele>1826.0</ele><time>2026-03-29T18:23:26Z</time></trkpt><trkpt lat="36.86324477455784" lon="-108.13863277428175"><ele>1826.0</ele><time>2026-03-29T18:23:27Z</time></trkpt><trkpt lat="36.86318805627198" lon="-108.13867049817388"><ele>1825.9999999999998</ele><time>2026-03-29T18:23:28Z</time></trkpt><trkpt lat="36.8630808487562" lon="-108.13866314265232"><ele>1826.0</ele><time>2026-03-29T18:23:29Z</time></trkpt><trkpt lat="36.862995051204514" lon="-108.13868542837528"><ele>1825.9999999999998</ele><time>2026-03-29T18:23:30Z</time></trkpt><trkpt lat="36.862941041272606" lon="-108.13874790049265"><ele>1826.0</ele><time>2026-03-29T18:23:31Z</time></trkpt><trkpt lat="36.862811341623285" lon="-108.1387155587852"><ele>1826.0</ele><time>2026-03-29T18:23:33Z</time></trkpt><trkpt lat="36.862741780082025" lon="-108.13868379493859"><ele>1826.0</ele><time>2026-03-29T18:23:34Z</time></trkpt><trkpt lat="36.86266633693812" lon="-108.13871292769979"><ele>1825.9999999999998</ele><time>2026-03-29T18:23:35Z</time></trkpt><trkpt lat="36.86260202580373" lon="-108.13879191635878"><ele>1826.0</ele><time>2026-03-29T18:23:36Z</time></trkpt><trkpt lat="36.862548096238754" lon="-108.13887071036473"><ele>1826.8</ele><time>2026-03-29T18:23:37Z</time></trkpt><trkpt lat="36.86245728633735" lon="-108.13892583000555"><ele>1827.6</ele><time>2026-03-29T18:23:38Z</time></trkpt><trkpt lat="36.86235838389785" lon="-108.13895287715705"><ele>1828.4</ele><time>2026-03-29T18:23:39Z</time></trkpt><trkpt lat="36.862283880038916" lon="-108.13901865629605"><ele>1829.2</ele><time>2026-03-29T18:23:40Z</time></trkpt><trkpt lat="36.8622257403726" lon="-108.13910440520979"><ele>1830.0</ele><time>2026-03-29T18:23:41Z</time></trkpt><trkpt lat="36.862163429514936" lon="-108.13913665769677"><ele>1830.0</ele><time>2026-03-29T18:23:42Z</time></trkpt><trkpt lat="36.862064404985034" lon="-108.1392006085831"><ele>1830.0</ele><time>2026-03-29T18:23:43Z</time></trkpt><trkpt lat="36.861974488894255" lon="-108.13925761329928"><ele>1830.0</ele><time>2026-03-29T18:23:44Z</time></trkpt><trkpt lat="36.86187907846271" lon="-108.1393268201599"><ele>1830.0</ele><time>2026-03-29T18:23:45Z</time></trkpt><trkpt lat="36.86182343736704" lon="-108.13940522555829"><ele>1830.0</ele><time>2026-03-29T18:23:46Z</time></trkpt><trkpt lat="36.86174952051553" lon="-108.13947872288892"><ele>1830.0</ele><time>2026-03-29T18:23:47Z</time></trkpt><trkpt lat="36.8616667967722" lon="-108.1395406569325"><ele>1830.0</ele><time>2026-03-29T18:23:48Z</time></trkpt><trkpt lat="36.86159149539686" lon="-108.13959415405091"><ele>1830.0</ele><time>2026-03-29T18:23:49Z</time></trkpt><trkpt lat="36.86151103589652" lon="-108.13965665081197"><ele>1830.0</ele><time>2026-03-29T18:23:50Z</time></trkpt><trkpt lat="36.86143541161164" lon="-108.1397367834417"><ele>1830.0</ele><time>2026-03-29T18:23:51Z</time></trkpt><trkpt lat="36.86136812205942" lon="-108.13983840258683"><ele>1829.5</ele><time>2026-03-29T18:23:52Z</time></trkpt><trkpt lat="36.861309586634896" lon="-108.13995876461422"><ele>1829.0</ele><time>2026-03-29T18:23:53Z</time></trkpt><trkpt lat="36.86124761488407" lon="-108.14007860583675"><ele>1828.5</ele><time>2026-03-29T18:23:54Z</time></trkpt><trkpt lat="36.861214171495085" lon="-108.14021898700628"><ele>1828.0</ele><time>2026-03-29T18:23:55Z</time></trkpt><trkpt lat="36.86122638851916" lon="-108.14035530251472"><ele>1828.0</ele><time>2026-03-29T18:23:56Z</time></trkpt><trkpt lat="36.8612378965254" lon="-108.14047724196138"><ele>1828.0000000000002</ele><time>2026-03-29T18:23:57Z</time></trkpt><trkpt lat="36.86124626381777" lon="-108.14060269397241"><ele>1828.0000000000002</ele><time>2026-03-29T18:23:58Z</time></trkpt><trkpt lat="36.86125419831306" lon="-108.14072284503666"><ele>1828.0</ele><time>2026-03-29T18:23:59Z</time></trkpt><trkpt lat="36.86126134939282" lon="-108.14085604312139"><ele>1828.0</ele><time>2026-03-29T18:24:00Z</time></trkpt><trkpt lat="36.86087192875992" lon="-108.14119719265248"><ele>1827.8000000000002</ele><time>2026-03-29T18:24:02Z</time></trkpt><trkpt lat="36.86086117662455" lon="-108.14132929771769"><ele>1827.6000000000001</ele><time>2026-03-29T18:24:03Z</time></trkpt><trkpt lat="36.860843837118296" lon="-108.14148061468212"><ele>1827.3999999999999</ele><time>2026-03-29T18:24:04Z</time></trkpt><trkpt lat="36.860805817385426" lon="-108.14160499414771"><ele>1827.1999999999998</ele><time>2026-03-29T18:24:05Z</time></trkpt><trkpt lat="36.860789819271595" lon="-108.14169784164888"><ele>1827.0</ele><time>2026-03-29T18:24:06Z</time></trkpt><trkpt lat="36.86088238758866" lon="-108.14183210442857"><ele>1827.0</ele><time>2026-03-29T18:24:08Z</time></trkpt><trkpt lat="36.86096052094317" lon="-108.14192822687846"><ele>1826.9999999999998</ele><time>2026-03-29T18:24:09Z</time></trkpt><trkpt lat="36.860994681437205" lon="-108.14206348282126"><ele>1826.9999999999998</ele><time>2026-03-29T18:24:10Z</time></trkpt><trkpt lat="36.86103304291231" lon="-108.1421751900328"><ele>1827.0</ele><time>2026-03-29T18:24:11Z</time></trkpt><trkpt lat="36.86104462372572" lon="-108.1422746488786"><ele>1827.0</ele><time>2026-03-29T18:24:12Z</time></trkpt><trkpt lat="36.86099097308413" lon="-108.14237139968938"><ele>1828.3999999999999</ele><time>2026-03-29T18:24:13Z</time></trkpt><trkpt lat="36.86091932177908" lon="-108.14245905295034"><ele>1829.7999999999997</ele><time>2026-03-29T18:24:14Z</time></trkpt><trkpt lat="36.86084679625787" lon="-108.14256137235253"><ele>1831.2</ele><time>2026-03-29T18:24:15Z</time></trkpt><trkpt lat="36.860789010404936" lon="-108.14264006283717"><ele>1832.6</ele><time>2026-03-29T18:24:16Z</time></trkpt><trkpt lat="36.8607143331761" lon="-108.14271053522032"><ele>1834.0</ele><time>2026-03-29T18:24:17Z</time></trkpt><trkpt lat="36.860620215929046" lon="-108.14279687242393"><ele>1834.0</ele><time>2026-03-29T18:24:18Z</time></trkpt><trkpt lat="36.8605465894814" lon="-108.14288232204788"><ele>1834.0</ele><time>2026-03-29T18:24:19Z</time></trkpt><trkpt lat="36.860480867827675" lon="-108.14294519534315"><ele>1834.0</ele><time>2026-03-29T18:24:20Z</time></trkpt><trkpt lat="36.86041388161018" lon="-108.14300085565814"><ele>1834.0</ele><time>2026-03-29T18:24:21Z</time></trkpt><trkpt lat="36.860314199761156" lon="-108.14305083050263"><ele>1834.0</ele><time>2026-03-29T18:24:22Z</time></trkpt><trkpt lat="36.860202988614944" lon="-108.14308603904942"><ele>1834.6</ele><time>2026-03-29T18:24:23Z</time></trkpt><trkpt lat="36.8600854450261" lon="-108.14312333658782"><ele>1835.2</ele><time>2026-03-29T18:24:24Z</time></trkpt><trkpt lat="36.85998922681674" lon="-108.1431912489649"><ele>1835.7999999999997</ele><time>2026-03-29T18:24:25Z</time></trkpt><trkpt lat="36.85990847410429" lon="-108.14325816900292"><ele>1836.3999999999999</ele><time>2026-03-29T18:24:26Z</time></trkpt><trkpt lat="36.85981646787959" lon="-108.14330354968205"><ele>1837.0</ele><time>2026-03-29T18:24:27Z</time></trkpt><trkpt lat="36.859732954714524" lon="-108.14333756137614"><ele>1837.5000000000002</ele><time>2026-03-29T18:24:28Z</time></trkpt><trkpt lat="36.85966572189839" lon="-108.14345862755212"><ele>1838.0</ele><time>2026-03-29T18:24:30Z</time></trkpt><trkpt lat="36.85965691429549" lon="-108.14355412875312"><ele>1838.5</ele><time>2026-03-29T18:24:31Z</time></trkpt><trkpt lat="36.859634154833245" lon="-108.14366904204218"><ele>1839.0</ele><time>2026-03-29T18:24:32Z</time></trkpt><trkpt lat="36.85962044296102" lon="-108.14376926510019"><ele>1839.5000000000002</ele><time>2026-03-29T18:24:33Z</time></trkpt><trkpt lat="36.85964776658632" lon="-108.1438596276719"><ele>1840.0</ele><time>2026-03-29T18:24:34Z</time></trkpt><trkpt lat="36.859666167041006" lon="-108.14397084542975"><ele>1839.5000000000002</ele><time>2026-03-29T18:24:35Z</time></trkpt><trkpt lat="36.85966653061796" lon="-108.14408384102546"><ele>1839.0</ele><time>2026-03-29T18:24:36Z</time></trkpt><trkpt lat="36.859684994934454" lon="-108.14419036322785"><ele>1838.5</ele><time>2026-03-29T18:24:37Z</time></trkpt><trkpt lat="36.859669414961004" lon="-108.14429133785029"><ele>1838.0</ele><time>2026-03-29T18:24:38Z</time></trkpt><trkpt lat="36.85961056385236" lon="-108.14438970629779"><ele>1837.5000000000002</ele><time>2026-03-29T18:24:39Z</time></trkpt><trkpt lat="36.85956017910353" lon="-108.14447113400378"><ele>1837.0</ele><time>2026-03-29T18:24:40Z</time></trkpt><trkpt lat="36.85951784950941" lon="-108.14454233237447"><ele>1837.0</ele><time>2026-03-29T18:24:41Z</time></trkpt><trkpt lat="36.859474858486216" lon="-108.14463524292734"><ele>1836.9999999999998</ele><time>2026-03-29T18:24:42Z</time></trkpt><trkpt lat="36.859452935470706" lon="-108.14474469765491"><ele>1836.9999999999998</ele><time>2026-03-29T18:24:43Z</time></trkpt><trkpt lat="36.85942466893743" lon="-108.14485453314332"><ele>1837.0</ele><time>2026-03-29T18:24:44Z</time></trkpt><trkpt lat="36.85938820719329" lon="-108.14494151108636"><ele>1837.0</ele><time>2026-03-29T18:24:45Z</time></trkpt><trkpt lat="36.8593048979116" lon="-108.1450364149278"><ele>1837.8333333333335</ele><time>2026-03-29T18:24:46Z</time></trkpt><trkpt lat="36.85926026726929" lon="-108.14513771670146"><ele>1838.6666666666667</ele><time>2026-03-29T18:24:47Z</time></trkpt><trkpt lat="36.859228768735655" lon="-108.14524852776461"><ele>1839.5</ele><time>2026-03-29T18:24:48Z</time></trkpt><trkpt lat="36.85918929496246" lon="-108.1453431909917"><ele>1840.3333333333335</ele><time>2026-03-29T18:24:49Z</time></trkpt><trkpt lat="36.85915513526501" lon="-108.14541604230457"><ele>1841.1666666666667</ele><time>2026-03-29T18:24:50Z</time></trkpt><trkpt lat="36.85912894910947" lon="-108.1455152923819"><ele>1842.0</ele><time>2026-03-29T18:24:51Z</time></trkpt><trkpt lat="36.85909586621149" lon="-108.14561745968075"><ele>1842.1666666666667</ele><time>2026-03-29T18:24:52Z</time></trkpt><trkpt lat="36.859067019504636" lon="-108.14571629144233"><ele>1842.3333333333335</ele><time>2026-03-29T18:24:53Z</time></trkpt><trkpt lat="36.859021363268084" lon="-108.14582363271272"><ele>1842.5</ele><time>2026-03-29T18:24:54Z</time></trkpt><trkpt lat="36.85896337779834" lon="-108.14587978252288"><ele>1842.6666666666667</ele><time>2026-03-29T18:24:55Z</time></trkpt><trkpt lat="36.85889172420176" lon="-108.14591225979909"><ele>1842.8333333333335</ele><time>2026-03-29T18:24:56Z</time></trkpt><trkpt lat="36.85882759443058" lon="-108.14596246789493"><ele>1843.0</ele><time>2026-03-29T18:24:57Z</time></trkpt><trkpt lat="36.858751682533956" lon="-108.14600849016493"><ele>1843.0000000000002</ele><time>2026-03-29T18:24:58Z</time></trkpt><trkpt lat="36.85867251330404" lon="-108.14604714006272"><ele>1843.0</ele><time>2026-03-29T18:24:59Z</time></trkpt><trkpt lat="36.858590943517626" lon="-108.14609074819707"><ele>1843.0</ele><time>2026-03-29T18:25:00Z</time></trkpt><trkpt lat="36.85850126463462" lon="-108.14612476742091"><ele>1843.0</ele><time>2026-03-29T18:25:01Z</time></trkpt><trkpt lat="36.85842020923343" lon="-108.14616594234745"><ele>1843.0000000000002</ele><time>2026-03-29T18:25:02Z</time></trkpt><trkpt lat="36.85839386254474" lon="-108.14627494055753"><ele>1843.0</ele><time>2026-03-29T18:25:04Z</time></trkpt><trkpt lat="36.85846411027406" lon="-108.14636704646718"><ele>1843.0</ele><time>2026-03-29T18:25:05Z</time></trkpt><trkpt lat="36.858488351638826" lon="-108.14647433588624"><ele>1843.0000000000002</ele><time>2026-03-29T18:25:06Z</time></trkpt><trkpt lat="36.858509465204015" lon="-108.1465728085021"><ele>1843.0000000000002</ele><time>2026-03-29T18:25:07Z</time></trkpt><trkpt lat="36.858530847556764" lon="-108.14664759045786"><ele>1843.0</ele><time>2026-03-29T18:25:08Z</time></trkpt><trkpt lat="36.858505438941634" lon="-108.14682763995025"><ele>1843.0</ele><time>2026-03-29T18:25:10Z</time></trkpt><trkpt lat="36.8585108076227" lon="-108.14702529608783"><ele>1843.0</ele><time>2026-03-29T18:25:12Z</time></trkpt><trkpt lat="36.85852462829488" lon="-108.14711195004998"><ele>1843.0</ele><time>2026-03-29T18:25:13Z</time></trkpt><trkpt lat="36.85850598520805" lon="-108.14719871958022"><ele>1843.0</ele><time>2026-03-29T18:25:14Z</time></trkpt><trkpt lat="36.858527734491766" lon="-108.14728201920617"><ele>1843.0</ele><time>2026-03-29T18:25:15Z</time></trkpt><trkpt lat="36.85857088257676" lon="-108.14734864707901"><ele>1843.0</ele><time>2026-03-29T18:25:16Z</time></trkpt><trkpt lat="36.858629678899305" lon="-108.14740875788935"><ele>1843.0</ele><time>2026-03-29T18:25:17Z</time></trkpt><trkpt lat="36.85867471859322" lon="-108.14748692310773"><ele>1843.0</ele><time>2026-03-29T18:25:18Z</time></trkpt><trkpt lat="36.858705965832335" lon="-108.14758190125988"><ele>1843.0000000000002</ele><time>2026-03-29T18:25:19Z</time></trkpt><trkpt lat="36.858705486775186" lon="-108.14767984516858"><ele>1843.0</ele><time>2026-03-29T18:25:20Z</time></trkpt><trkpt lat="36.85871197704966" lon="-108.14780309557761"><ele>1843.0</ele><time>2026-03-29T18:25:21Z</time></trkpt><trkpt lat="36.858710895567796" lon="-108.14790528216082"><ele>1843.0</ele><time>2026-03-29T18:25:22Z</time></trkpt><trkpt lat="36.85869397312303" lon="-108.14801317513576"><ele>1843.0000000000002</ele><time>2026-03-29T18:25:23Z</time></trkpt><trkpt lat="36.85865543854777" lon="-108.1480793489034"><ele>1843.0</ele><time>2026-03-29T18:25:24Z</time></trkpt><trkpt lat="36.858592591608485" lon="-108.14814966274817"><ele>1843.25</ele><time>2026-03-29T18:25:25Z</time></trkpt><trkpt lat="36.85860287165873" lon="-108.14830223887618"><ele>1843.5</ele><time>2026-03-29T18:25:27Z</time></trkpt><trkpt lat="36.858627292902014" lon="-108.14843580562928"><ele>1843.75</ele><time>2026-03-29T18:25:29Z</time></trkpt><trkpt lat="36.85866064155614" lon="-108.14856646793257"><ele>1844.0</ele><time>2026-03-29T18:25:31Z</time></trkpt><trkpt lat="36.85870022964122" lon="-108.14870923866582"><ele>1844.0</ele><time>2026-03-29T18:25:33Z</time></trkpt><trkpt lat="36.85871492964601" lon="-108.14886482680735"><ele>1844.0</ele><time>2026-03-29T18:25:35Z</time></trkpt><trkpt lat="36.85871191497448" lon="-108.14901089881751"><ele>1844.0</ele><time>2026-03-29T18:25:37Z</time></trkpt><trkpt lat="36.85873134642086" lon="-108.14908739642033"><ele>1844.0</ele><time>2026-03-29T18:25:38Z</time></trkpt><trkpt lat="36.85876258864418" lon="-108.14918493881285"><ele>1844.0</ele><time>2026-03-29T18:25:39Z</time></trkpt><trkpt lat="36.85876314971335" lon="-108.14928776145382"><ele>1844.8000000000002</ele><time>2026-03-29T18:25:40Z</time></trkpt><trkpt lat="36.85871306524959" lon="-108.14944865536675"><ele>1845.6000000000001</ele><time>2026-03-29T18:25:42Z</time></trkpt><trkpt lat="36.858667712747696" lon="-108.14953399795931"><ele>1846.4</ele><time>2026-03-29T18:25:43Z</time></trkpt><trkpt lat="36.858593787715364" lon="-108.14961635988975"><ele>1847.2</ele><time>2026-03-29T18:25:44Z</time></trkpt><trkpt lat="36.8584989318677" lon="-108.14969764670866"><ele>1848.0</ele><time>2026-03-29T18:25:45Z</time></trkpt><trkpt lat="36.85839799109751" lon="-108.14980789927442"><ele>1849.4</ele><time>2026-03-29T18:25:46Z</time></trkpt><trkpt lat="36.858326306865706" lon="-108.14989417521191"><ele>1850.8000000000002</ele><time>2026-03-29T18:25:47Z</time></trkpt><trkpt lat="36.85825116786557" lon="-108.14997563991773"><ele>1852.2</ele><time>2026-03-29T18:25:48Z</time></trkpt><trkpt lat="36.858187901952505" lon="-108.15003360946037"><ele>1853.6</ele><time>2026-03-29T18:25:49Z</time></trkpt><trkpt lat="36.85818969291687" lon="-108.15021565525275"><ele>1855.0</ele><time>2026-03-29T18:25:51Z</time></trkpt><trkpt lat="36.8581892928483" lon="-108.15030559693653"><ele>1855.0</ele><time>2026-03-29T18:25:52Z</time></trkpt><trkpt lat="36.85813163305176" lon="-108.15042801744202"><ele>1855.0</ele><time>2026-03-29T18:25:54Z</time></trkpt><trkpt lat="36.85804992736513" lon="-108.15054078432942"><ele>1855.0</ele><time>2026-03-29T18:25:56Z</time></trkpt><trkpt lat="36.85800667336127" lon="-108.1506247558901"><ele>1855.0</ele><time>2026-03-29T18:25:57Z</time></trkpt><trkpt lat="36.85796846083256" lon="-108.15072881754125"><ele>1855.0</ele><time>2026-03-29T18:25:58Z</time></trkpt><trkpt lat="36.85794450733705" lon="-108.15081214036296"><ele>1855.1666666666667</ele><time>2026-03-29T18:25:59Z</time></trkpt><trkpt lat="36.85789257289013" lon="-108.15089210797571"><ele>1855.3333333333335</ele><time>2026-03-29T18:26:00Z</time></trkpt><trkpt lat="36.857829833940464" lon="-108.15097169422933"><ele>1855.5</ele><time>2026-03-29T18:26:01Z</time></trkpt><trkpt lat="36.85779656836812" lon="-108.1510535788147"><ele>1855.6666666666665</ele><time>2026-03-29T18:26:02Z</time></trkpt><trkpt lat="36.8577997228341" lon="-108.15113786163867"><ele>1855.8333333333333</ele><time>2026-03-29T18:26:03Z</time></trkpt><trkpt lat="36.85783833737346" lon="-108.15123551675903"><ele>1856.0</ele><time>2026-03-29T18:26:04Z</time></trkpt><trkpt lat="36.857835614916716" lon="-108.15137974893021"><ele>1855.9999999999998</ele><time>2026-03-29T18:26:06Z</time></trkpt><trkpt lat="36.857787091573705" lon="-108.15147770083"><ele>1856.0</ele><time>2026-03-29T18:26:07Z</time></trkpt><trkpt lat="36.85781822138705" lon="-108.15162891269317"><ele>1856.0</ele><time>2026-03-29T18:26:09Z</time></trkpt><trkpt lat="36.857832812347965" lon="-108.15171123776581"><ele>1856.0</ele><time>2026-03-29T18:26:10Z</time></trkpt><trkpt lat="36.85785735452772" lon="-108.1517846876178"><ele>1855.9999999999998</ele><time>2026-03-29T18:26:11Z</time></trkpt><trkpt lat="36.85784016021669" lon="-108.15190134464066"><ele>1856.0</ele><time>2026-03-29T18:26:12Z</time></trkpt><trkpt lat="36.85784063720052" lon="-108.15198822492903"><ele>1855.1666666666665</ele><time>2026-03-29T18:26:13Z</time></trkpt><trkpt lat="36.85787476310784" lon="-108.15207986489138"><ele>1854.3333333333333</ele><time>2026-03-29T18:26:14Z</time></trkpt><trkpt lat="36.85788689106633" lon="-108.15217151762687"><ele>1853.5</ele><time>2026-03-29T18:26:15Z</time></trkpt><trkpt lat="36.857870571483154" lon="-108.15226650099403"><ele>1852.6666666666665</ele><time>2026-03-29T18:26:16Z</time></trkpt><trkpt lat="36.85786133505466" lon="-108.15241374262251"><ele>1851.8333333333333</ele><time>2026-03-29T18:26:18Z</time></trkpt><trkpt lat="36.857819777016196" lon="-108.15249269347791"><ele>1851.0</ele><time>2026-03-29T18:26:19Z</time></trkpt><trkpt lat="36.857784253214305" lon="-108.1525674703735"><ele>1850.8</ele><time>2026-03-29T18:26:20Z</time></trkpt><trkpt lat="36.85775493145612" lon="-108.15264700611601"><ele>1850.6</ele><time>2026-03-29T18:26:21Z</time></trkpt><trkpt lat="36.857729689934935" lon="-108.15273032296437"><ele>1850.4</ele><time>2026-03-29T18:26:22Z</time></trkpt><trkpt lat="36.85762008382925" lon="-108.15281479813972"><ele>1850.2</ele><time>2026-03-29T18:26:24Z</time></trkpt><trkpt lat="36.85756375019823" lon="-108.15290457768282"><ele>1850.0</ele><time>2026-03-29T18:26:25Z</time></trkpt><trkpt lat="36.85754197302375" lon="-108.15302153827395"><ele>1850.4999999999998</ele><time>2026-03-29T18:26:26Z</time></trkpt><trkpt lat="36.85753702750326" lon="-108.15312573772613"><ele>1851.0</ele><time>2026-03-29T18:26:27Z</time></trkpt><trkpt lat="36.8575310956761" lon="-108.15321872110688"><ele>1851.5</ele><time>2026-03-29T18:26:28Z</time></trkpt><trkpt lat="36.857466172671536" lon="-108.15329813100956"><ele>1852.0</ele><time>2026-03-29T18:26:29Z</time></trkpt><trkpt lat="36.857432858971166" lon="-108.1533774922602"><ele>1852.4999999999998</ele><time>2026-03-29T18:26:30Z</time></trkpt><trkpt lat="36.85743314310092" lon="-108.15347945662813"><ele>1853.0</ele><time>2026-03-29T18:26:31Z</time></trkpt><trkpt lat="36.85742358145561" lon="-108.15357470206523"><ele>1853.0</ele><time>2026-03-29T18:26:32Z</time></trkpt><trkpt lat="36.85744468123174" lon="-108.15366301958029"><ele>1853.0000000000002</ele><time>2026-03-29T18:26:33Z</time></trkpt><trkpt lat="36.857480089364415" lon="-108.15379173003788"><ele>1853.0000000000002</ele><time>2026-03-29T18:26:35Z</time></trkpt><trkpt lat="36.85747606684491" lon="-108.15387617255494"><ele>1853.0</ele><time>2026-03-29T18:26:36Z</time></trkpt><trkpt lat="36.857448094192456" lon="-108.15403691919646"><ele>1853.0</ele><time>2026-03-29T18:26:38Z</time></trkpt><trkpt lat="36.85742494024969" lon="-108.1541470785421"><ele>1853.1666666666665</ele><time>2026-03-29T18:26:39Z</time></trkpt><trkpt lat="36.85740395937441" lon="-108.15426857385586"><ele>1853.3333333333333</ele><time>2026-03-29T18:26:40Z</time></trkpt><trkpt lat="36.85738688466168" lon="-108.15434689303763"><ele>1853.5</ele><time>2026-03-29T18:26:41Z</time></trkpt><trkpt lat="36.85734651146736" lon="-108.15441489829527"><ele>1853.6666666666665</ele><time>2026-03-29T18:26:42Z</time></trkpt><trkpt lat="36.857299062989554" lon="-108.15449930720281"><ele>1853.8333333333333</ele><time>2026-03-29T18:26:43Z</time></trkpt><trkpt lat="36.85725602782918" lon="-108.15459288229185"><ele>1854.0</ele><time>2026-03-29T18:26:44Z</time></trkpt><trkpt lat="36.857222704822895" lon="-108.15467661874858"><ele>1854.0</ele><time>2026-03-29T18:26:45Z</time></trkpt><trkpt lat="36.85718203693997" lon="-108.15476377933754"><ele>1854.0</ele><time>2026-03-29T18:26:46Z</time></trkpt><trkpt lat="36.8571397387741" lon="-108.15487400317998"><ele>1854.0</ele><time>2026-03-29T18:26:47Z</time></trkpt><trkpt lat="36.85714171236109" lon="-108.15495822231648"><ele>1854.0</ele><time>2026-03-29T18:26:48Z</time></trkpt><trkpt lat="36.85715004787449" lon="-108.15506544595308"><ele>1854.0</ele><time>2026-03-29T18:26:49Z</time></trkpt><trkpt lat="36.85712744561799" lon="-108.15515421813016"><ele>1854.0</ele><time>2026-03-29T18:26:50Z</time></trkpt><trkpt lat="36.8570579043127" lon="-108.15518330843499"><ele>1854.1666666666667</ele><time>2026-03-29T18:26:51Z</time></trkpt><trkpt lat="36.85699688757692" lon="-108.15521056983064"><ele>1854.3333333333335</ele><time>2026-03-29T18:26:52Z</time></trkpt><trkpt lat="36.856938514235395" lon="-108.15524297617203"><ele>1854.5</ele><time>2026-03-29T18:26:53Z</time></trkpt><trkpt lat="36.85691381305344" lon="-108.1553354550119"><ele>1854.6666666666667</ele><time>2026-03-29T18:26:54Z</time></trkpt><trkpt lat="36.856871022446164" lon="-108.1554160749742"><ele>1854.8333333333335</ele><time>2026-03-29T18:26:55Z</time></trkpt><trkpt lat="36.85681637697121" lon="-108.15550748431593"><ele>1855.0</ele><time>2026-03-29T18:26:56Z</time></trkpt><trkpt lat="36.85674903800009" lon="-108.15555850606634"><ele>1855.1666666666667</ele><time>2026-03-29T18:26:57Z</time></trkpt><trkpt lat="36.8566514597802" lon="-108.15559326179849"><ele>1855.3333333333335</ele><time>2026-03-29T18:26:59Z</time></trkpt><trkpt lat="36.85664504152312" lon="-108.15568728927519"><ele>1855.5</ele><time>2026-03-29T18:27:01Z</time></trkpt><trkpt lat="36.85663678809385" lon="-108.1557676575684"><ele>1855.6666666666665</ele><time>2026-03-29T18:27:02Z</time></trkpt><trkpt lat="36.856613443178375" lon="-108.15584155883414"><ele>1855.8333333333333</ele><time>2026-03-29T18:27:03Z</time></trkpt><trkpt lat="36.85653664230646" lon="-108.15596315230127"><ele>1856.0</ele><time>2026-03-29T18:27:05Z</time></trkpt><trkpt lat="36.85650032371181" lon="-108.15605258329171"><ele>1856.1666666666665</ele><time>2026-03-29T18:27:06Z</time></trkpt><trkpt lat="36.85646626934459" lon="-108.1561278046241"><ele>1856.3333333333333</ele><time>2026-03-29T18:27:07Z</time></trkpt><trkpt lat="36.856429844914764" lon="-108.15619847968682"><ele>1856.5</ele><time>2026-03-29T18:27:08Z</time></trkpt><trkpt lat="36.85639776218236" lon="-108.156280653957"><ele>1856.6666666666665</ele><time>2026-03-29T18:27:09Z</time></trkpt><trkpt lat="36.856382410253275" lon="-108.15637010335908"><ele>1856.8333333333333</ele><time>2026-03-29T18:27:10Z</time></trkpt><trkpt lat="36.85637818100691" lon="-108.15645174125478"><ele>1857.0</ele><time>2026-03-29T18:27:11Z</time></trkpt><trkpt lat="36.8563061783757" lon="-108.15656721289818"><ele>1857.0</ele><time>2026-03-29T18:27:13Z</time></trkpt><trkpt lat="36.85622787562826" lon="-108.15655403351322"><ele>1857.0</ele><time>2026-03-29T18:27:14Z</time></trkpt><trkpt lat="36.85614862239333" lon="-108.15655570036681"><ele>1857.0</ele><time>2026-03-29T18:27:15Z</time></trkpt><trkpt lat="36.856086546783175" lon="-108.15660314794059"><ele>1857.0</ele><time>2026-03-29T18:27:16Z</time></trkpt><trkpt lat="36.85607403268323" lon="-108.15668554061189"><ele>1857.0</ele><time>2026-03-29T18:27:17Z</time></trkpt><trkpt lat="36.85605249437566" lon="-108.15677378964523"><ele>1857.0</ele><time>2026-03-29T18:27:18Z</time></trkpt><trkpt lat="36.85600494794257" lon="-108.15685379662477"><ele>1857.0</ele><time>2026-03-29T18:27:19Z</time></trkpt><trkpt lat="36.85594669904802" lon="-108.15693842805707"><ele>1857.0</ele><time>2026-03-29T18:27:20Z</time></trkpt><trkpt lat="36.855881930531375" lon="-108.15700706761591"><ele>1857.0</ele><time>2026-03-29T18:27:21Z</time></trkpt><trkpt lat="36.85583306119069" lon="-108.15705856690901"><ele>1857.0</ele><time>2026-03-29T18:27:22Z</time></trkpt><trkpt lat="36.855793597770976" lon="-108.15714058343251"><ele>1857.0</ele><time>2026-03-29T18:27:23Z</time></trkpt><trkpt lat="36.8557814452634" lon="-108.1572291417242"><ele>1857.0</ele><time>2026-03-29T18:27:24Z</time></trkpt><trkpt lat="36.85578217798517" lon="-108.15733253546692"><ele>1857.1999999999998</ele><time>2026-03-29T18:27:25Z</time></trkpt><trkpt lat="36.85578387923406" lon="-108.15746414214142"><ele>1857.3999999999999</ele><time>2026-03-29T18:27:26Z</time></trkpt><trkpt lat="36.85578763457513" lon="-108.15759374478814"><ele>1857.6000000000001</ele><time>2026-03-29T18:27:27Z</time></trkpt><trkpt lat="36.855762232953744" lon="-108.15770036036687"><ele>1857.8000000000002</ele><time>2026-03-29T18:27:28Z</time></trkpt><trkpt lat="36.855729582927445" lon="-108.15779967251325"><ele>1858.0</ele><time>2026-03-29T18:27:29Z</time></trkpt><trkpt lat="36.85572615238098" lon="-108.15790856324045"><ele>1858.0000000000002</ele><time>2026-03-29T18:27:30Z</time></trkpt><trkpt lat="36.85570500295222" lon="-108.15798989560946"><ele>1858.0</ele><time>2026-03-29T18:27:31Z</time></trkpt><trkpt lat="36.85565159539351" lon="-108.15804901250876"><ele>1858.0</ele><time>2026-03-29T18:27:32Z</time></trkpt><trkpt lat="36.85558372105181" lon="-108.15809863808572"><ele>1858.0</ele><time>2026-03-29T18:27:33Z</time></trkpt><trkpt lat="36.85552739987977" lon="-108.15816383337261"><ele>1858.0000000000002</ele><time>2026-03-29T18:27:34Z</time></trkpt><trkpt lat="36.855516061675935" lon="-108.15826029341052"><ele>1858.0</ele><time>2026-03-29T18:27:35Z</time></trkpt><trkpt lat="36.855491266096756" lon="-108.15835118574121"><ele>1859.0</ele><time>2026-03-29T18:27:36Z</time></trkpt><trkpt lat="36.855441044687716" lon="-108.15845020079935"><ele>1860.0000000000002</ele><time>2026-03-29T18:27:37Z</time></trkpt><trkpt lat="36.85538967708656" lon="-108.15853392839075"><ele>1861.0000000000002</ele><time>2026-03-29T18:27:38Z</time></trkpt><trkpt lat="36.85531485114503" lon="-108.15862115643881"><ele>1862.0</ele><time>2026-03-29T18:27:39Z</time></trkpt><trkpt lat="36.85523919377637" lon="-108.15871080524991"><ele>1863.0</ele><time>2026-03-29T18:27:40Z</time></trkpt><trkpt lat="36.85517110949727" lon="-108.15880880749982"><ele>1863.0</ele><time>2026-03-29T18:27:41Z</time></trkpt><trkpt lat="36.85512133707465" lon="-108.15890944316921"><ele>1863.0</ele><time>2026-03-29T18:27:42Z</time></trkpt><trkpt lat="36.855065782178414" lon="-108.15900343962018"><ele>1863.0</ele><time>2026-03-29T18:27:43Z</time></trkpt><trkpt lat="36.85499751822907" lon="-108.15906210635293"><ele>1863.0</ele><time>2026-03-29T18:27:44Z</time></trkpt><trkpt lat="36.85491088151578" lon="-108.15908787621582"><ele>1863.0</ele><time>2026-03-29T18:27:45Z</time></trkpt><trkpt lat="36.85482405486936" lon="-108.15908578040252"><ele>1863.0</ele><time>2026-03-29T18:27:46Z</time></trkpt><trkpt lat="36.854720022104225" lon="-108.15909307879257"><ele>1862.6000000000001</ele><time>2026-03-29T18:27:47Z</time></trkpt><trkpt lat="36.85460919289069" lon="-108.15906915993223"><ele>1862.2000000000003</ele><time>2026-03-29T18:27:48Z</time></trkpt><trkpt lat="36.854514202155514" lon="-108.15905600104364"><ele>1861.8</ele><time>2026-03-29T18:27:49Z</time></trkpt><trkpt lat="36.85442891358951" lon="-108.15910497788292"><ele>1861.4</ele><time>2026-03-29T18:27:50Z</time></trkpt><trkpt lat="36.854348055898285" lon="-108.15917785042276"><ele>1861.0</ele><time>2026-03-29T18:27:51Z</time></trkpt><trkpt lat="36.85425622935411" lon="-108.15921697730911"><ele>1859.8</ele><time>2026-03-29T18:27:52Z</time></trkpt><trkpt lat="36.854149726807975" lon="-108.15921476012302"><ele>1858.6</ele><time>2026-03-29T18:27:53Z</time></trkpt><trkpt lat="36.85404509246572" lon="-108.15922796060647"><ele>1857.4</ele><time>2026-03-29T18:27:54Z</time></trkpt><trkpt lat="36.85395497514467" lon="-108.15919748411392"><ele>1856.2</ele><time>2026-03-29T18:27:55Z</time></trkpt><trkpt lat="36.85386901240061" lon="-108.15917011137714"><ele>1855.0</ele><time>2026-03-29T18:27:56Z</time></trkpt><trkpt lat="36.853789548651555" lon="-108.15920087656876"><ele>1855.0</ele><time>2026-03-29T18:27:57Z</time></trkpt><trkpt lat="36.85368983618578" lon="-108.15925663586587"><ele>1855.0</ele><time>2026-03-29T18:27:58Z</time></trkpt><trkpt lat="36.85360616615667" lon="-108.15928878078894"><ele>1855.0</ele><time>2026-03-29T18:27:59Z</time></trkpt><trkpt lat="36.85353759834965" lon="-108.15930037077291"><ele>1855.0</ele><time>2026-03-29T18:28:00Z</time></trkpt><trkpt lat="36.85345386078997" lon="-108.15927231313123"><ele>1855.0</ele><time>2026-03-29T18:28:01Z</time></trkpt><trkpt lat="36.85334984555612" lon="-108.15923261104028"><ele>1854.0</ele><time>2026-03-29T18:28:02Z</time></trkpt><trkpt lat="36.8532486732102" lon="-108.15924365709623"><ele>1853.0</ele><time>2026-03-29T18:28:03Z</time></trkpt><trkpt lat="36.85314583086904" lon="-108.15929263733537"><ele>1852.0</ele><time>2026-03-29T18:28:04Z</time></trkpt><trkpt lat="36.85304253525562" lon="-108.15932192985485"><ele>1851.0</ele><time>2026-03-29T18:28:05Z</time></trkpt><trkpt lat="36.852966122615165" lon="-108.15937355815552"><ele>1850.0</ele><time>2026-03-29T18:28:06Z</time></trkpt><trkpt lat="36.852879536757726" lon="-108.15941927806502"><ele>1849.9999999999998</ele><time>2026-03-29T18:28:07Z</time></trkpt><trkpt lat="36.85279729097262" lon="-108.15946268950795"><ele>1850.0</ele><time>2026-03-29T18:28:08Z</time></trkpt><trkpt lat="36.85271684394257" lon="-108.1595082117671"><ele>1850.0</ele><time>2026-03-29T18:28:09Z</time></trkpt><trkpt lat="36.85264540006185" lon="-108.1595658285235"><ele>1850.0</ele><time>2026-03-29T18:28:10Z</time></trkpt><trkpt lat="36.85257181203766" lon="-108.15961795535188"><ele>1849.9999999999998</ele><time>2026-03-29T18:28:11Z</time></trkpt><trkpt lat="36.85248482309604" lon="-108.1596417282067"><ele>1850.0</ele><time>2026-03-29T18:28:12Z</time></trkpt><trkpt lat="36.852406176656714" lon="-108.15960846422558"><ele>1849.4</ele><time>2026-03-29T18:28:13Z</time></trkpt><trkpt lat="36.85233623483612" lon="-108.15956659887819"><ele>1848.8</ele><time>2026-03-29T18:28:14Z</time></trkpt><trkpt lat="36.85224526651817" lon="-108.15952622464788"><ele>1848.1999999999998</ele><time>2026-03-29T18:28:15Z</time></trkpt><trkpt lat="36.85215572029846" lon="-108.15948698146252"><ele>1847.6</ele><time>2026-03-29T18:28:16Z</time></trkpt><trkpt lat="36.852046621067224" lon="-108.1594335005294"><ele>1847.0</ele><time>2026-03-29T18:28:17Z</time></trkpt><trkpt lat="36.851938366083935" lon="-108.15936780415241"><ele>1847.0</ele><time>2026-03-29T18:28:18Z</time></trkpt><trkpt lat="36.85184100423848" lon="-108.1593185487852"><ele>1846.9999999999998</ele><time>2026-03-29T18:28:19Z</time></trkpt><trkpt lat="36.85173625053677" lon="-108.1592788094346"><ele>1846.9999999999998</ele><time>2026-03-29T18:28:20Z</time></trkpt><trkpt lat="36.851627537555075" lon="-108.15923755464195"><ele>1847.0</ele><time>2026-03-29T18:28:21Z</time></trkpt><trkpt lat="36.85152245164889" lon="-108.15920685864505"><ele>1847.0</ele><time>2026-03-29T18:28:22Z</time></trkpt><trkpt lat="36.85145305414569" lon="-108.159213310415"><ele>1846.4999999999998</ele><time>2026-03-29T18:28:23Z</time></trkpt><trkpt lat="36.85140372625195" lon="-108.1592998155549"><ele>1846.0</ele><time>2026-03-29T18:28:24Z</time></trkpt><trkpt lat="36.85134045650849" lon="-108.15936195595121"><ele>1845.5</ele><time>2026-03-29T18:28:25Z</time></trkpt><trkpt lat="36.851257672367616" lon="-108.1593499753996"><ele>1845.0</ele><time>2026-03-29T18:28:26Z</time></trkpt><trkpt lat="36.85115998599937" lon="-108.15930019230998"><ele>1844.4999999999998</ele><time>2026-03-29T18:28:27Z</time></trkpt><trkpt lat="36.85108395295261" lon="-108.15925927345177"><ele>1844.0</ele><time>2026-03-29T18:28:28Z</time></trkpt><trkpt lat="36.85101405223695" lon="-108.15918966780958"><ele>1843.6</ele><time>2026-03-29T18:28:29Z</time></trkpt><trkpt lat="36.85090777262273" lon="-108.15923433114105"><ele>1843.2</ele><time>2026-03-29T18:28:31.001Z</time></trkpt><trkpt lat="36.85088192612386" lon="-108.15932406867988"><ele>1842.7999999999997</ele><time>2026-03-29T18:28:33.001Z</time></trkpt><trkpt lat="36.85079307134163" lon="-108.15930777926064"><ele>1842.3999999999999</ele><time>2026-03-29T18:28:35.001Z</time></trkpt><trkpt lat="36.85074649763376" lon="-108.15923960576357"><ele>1842.0</ele><time>2026-03-29T18:28:36.001Z</time></trkpt><trkpt lat="36.85065776329811" lon="-108.15914112725794"><ele>1842.0</ele><time>2026-03-29T18:28:37.001Z</time></trkpt><trkpt lat="36.85060749010534" lon="-108.15904365628843"><ele>1841.9999999999998</ele><time>2026-03-29T18:28:38.001Z</time></trkpt><trkpt lat="36.8505785813584" lon="-108.15895692959232"><ele>1841.9999999999998</ele><time>2026-03-29T18:28:39.001Z</time></trkpt><trkpt lat="36.85055049098768" lon="-108.15888475195443"><ele>1842.0</ele><time>2026-03-29T18:28:40Z</time></trkpt><trkpt lat="36.850406050838885" lon="-108.15886946692852"><ele>1842.0</ele><time>2026-03-29T18:28:42.001Z</time></trkpt><trkpt lat="36.850302556029455" lon="-108.1588716610122"><ele>1841.5</ele><time>2026-03-29T18:28:43.001Z</time></trkpt><trkpt lat="36.850189459656974" lon="-108.15886147757043"><ele>1841.0</ele><time>2026-03-29T18:28:44.001Z</time></trkpt><trkpt lat="36.85009544555721" lon="-108.15885112992798"><ele>1840.5</ele><time>2026-03-29T18:28:45.001Z</time></trkpt><trkpt lat="36.85002135479542" lon="-108.15883522630874"><ele>1840.0</ele><time>2026-03-29T18:28:46.001Z</time></trkpt><trkpt lat="36.84993914472243" lon="-108.15880307217144"><ele>1839.5</ele><time>2026-03-29T18:28:47.001Z</time></trkpt><trkpt lat="36.84986838671748" lon="-108.1587800633544"><ele>1839.0</ele><time>2026-03-29T18:28:48.001Z</time></trkpt><trkpt lat="36.849789168985005" lon="-108.15875745469722"><ele>1838.3333333333333</ele><time>2026-03-29T18:28:49.001Z</time></trkpt><trkpt lat="36.84970402521244" lon="-108.15874899334206"><ele>1837.6666666666665</ele><time>2026-03-29T18:28:50Z</time></trkpt><trkpt lat="36.849609630732125" lon="-108.1587239118153"><ele>1837.0</ele><time>2026-03-29T18:28:51Z</time></trkpt><trkpt lat="36.84952824446686" lon="-108.15870436485369"><ele>1836.3333333333333</ele><time>2026-03-29T18:28:52Z</time></trkpt><trkpt lat="36.849440824676506" lon="-108.15868012101835"><ele>1835.6666666666665</ele><time>2026-03-29T18:28:53Z</time></trkpt><trkpt lat="36.849367794705614" lon="-108.15866767706096"><ele>1835.0</ele><time>2026-03-29T18:28:54Z</time></trkpt><trkpt lat="36.84927398593626" lon="-108.15865973701536"><ele>1833.8</ele><time>2026-03-29T18:28:55Z</time></trkpt><trkpt lat="36.84916839277391" lon="-108.1586368487453"><ele>1832.6</ele><time>2026-03-29T18:28:56Z</time></trkpt><trkpt lat="36.84908497894111" lon="-108.1586247698622"><ele>1831.4</ele><time>2026-03-29T18:28:57Z</time></trkpt><trkpt lat="36.84903371241544" lon="-108.15850714437595"><ele>1830.2</ele><time>2026-03-29T18:28:59Z</time></trkpt><trkpt lat="36.84905183074357" lon="-108.1583984476597"><ele>1829.0</ele><time>2026-03-29T18:29:00Z</time></trkpt><trkpt lat="36.849070369147164" lon="-108.15829408618008"><ele>1828.2</ele><time>2026-03-29T18:29:01Z</time></trkpt><trkpt lat="36.84909072014679" lon="-108.15819277687073"><ele>1827.4</ele><time>2026-03-29T18:29:02Z</time></trkpt><trkpt lat="36.84911436726337" lon="-108.15808765757578"><ele>1826.6</ele><time>2026-03-29T18:29:03Z</time></trkpt><trkpt lat="36.849134327373996" lon="-108.15795738989215"><ele>1825.8</ele><time>2026-03-29T18:29:04Z</time></trkpt><trkpt lat="36.84914474342808" lon="-108.15783085413933"><ele>1825.0</ele><time>2026-03-29T18:29:05Z</time></trkpt><trkpt lat="36.849151606319474" lon="-108.15771550448571"><ele>1825.0000000000002</ele><time>2026-03-29T18:29:06Z</time></trkpt><trkpt lat="36.849144621104145" lon="-108.1576026792919"><ele>1825.0</ele><time>2026-03-29T18:29:07Z</time></trkpt><trkpt lat="36.849127148463815" lon="-108.15751049280591"><ele>1825.0</ele><time>2026-03-29T18:29:08Z</time></trkpt><trkpt lat="36.84907823711491" lon="-108.1574505531697"><ele>1825.0</ele><time>2026-03-29T18:29:09Z</time></trkpt><trkpt lat="36.849016410842935" lon="-108.15741712032234"><ele>1825.0000000000002</ele><time>2026-03-29T18:29:11Z</time></trkpt><trkpt lat="36.84900980831266" lon="-108.15758805549443"><ele>1825.0</ele><time>2026-03-29T18:29:13Z</time></trkpt><trkpt lat="36.84902421267773" lon="-108.15769134530883"><ele>1825.0</ele><time>2026-03-29T18:29:14Z</time></trkpt><trkpt lat="36.84903808913315" lon="-108.1577773938789"><ele>1825.0</ele><time>2026-03-29T18:29:15Z</time></trkpt><trkpt lat="36.849013715628395" lon="-108.15786649333963"><ele>1825.0</ele><time>2026-03-29T18:29:16Z</time></trkpt><trkpt lat="36.848984948777925" lon="-108.15793864996505"><ele>1825.0</ele><time>2026-03-29T18:29:17Z</time></trkpt><trkpt lat="36.84896951008517" lon="-108.15803153977524"><ele>1825.0</ele><time>2026-03-29T18:29:18Z</time></trkpt><trkpt lat="36.84897886970547" lon="-108.1581378681541"><ele>1825.0</ele><time>2026-03-29T18:29:19Z</time></trkpt><trkpt lat="36.84898794785684" lon="-108.15822743043488"><ele>1825.0</ele><time>2026-03-29T18:29:20Z</time></trkpt><trkpt lat="36.84898868887515" lon="-108.15833292451468"><ele>1825.8</ele><time>2026-03-29T18:29:21Z</time></trkpt><trkpt lat="36.84899442592239" lon="-108.15844722372874"><ele>1826.6</ele><time>2026-03-29T18:29:22Z</time></trkpt><trkpt lat="36.849004152390485" lon="-108.15854363836722"><ele>1827.4</ele><time>2026-03-29T18:29:23Z</time></trkpt><trkpt lat="36.84900804236357" lon="-108.1586269418414"><ele>1828.2</ele><time>2026-03-29T18:29:24Z</time></trkpt><trkpt lat="36.84897641026654" lon="-108.1588098350034"><ele>1829.0</ele><time>2026-03-29T18:29:26Z</time></trkpt><trkpt lat="36.848970343690574" lon="-108.15892353046665"><ele>1828.9999999999998</ele><time>2026-03-29T18:29:27Z</time></trkpt><trkpt lat="36.84897276087857" lon="-108.15900492412408"><ele>1829.0</ele><time>2026-03-29T18:29:28Z</time></trkpt><trkpt lat="36.84897517348981" lon="-108.15917890914085"><ele>1829.0</ele><time>2026-03-29T18:29:30Z</time></trkpt><trkpt lat="36.84897223626851" lon="-108.15927802301741"><ele>1829.0</ele><time>2026-03-29T18:29:31Z</time></trkpt><trkpt lat="36.84897633564698" lon="-108.1593743804005"><ele>1828.9999999999998</ele><time>2026-03-29T18:29:32Z</time></trkpt><trkpt lat="36.8489722655989" lon="-108.15947326274642"><ele>1829.0</ele><time>2026-03-29T18:29:33Z</time></trkpt><trkpt lat="36.84896529305086" lon="-108.15957217034882"><ele>1829.4999999999998</ele><time>2026-03-29T18:29:34Z</time></trkpt><trkpt lat="36.84896958776734" lon="-108.15967726912031"><ele>1830.0</ele><time>2026-03-29T18:29:35Z</time></trkpt><trkpt lat="36.84897961328705" lon="-108.15978244579289"><ele>1830.5</ele><time>2026-03-29T18:29:36Z</time></trkpt><trkpt lat="36.84898107888099" lon="-108.1598793724861"><ele>1831.0</ele><time>2026-03-29T18:29:37Z</time></trkpt><trkpt lat="36.84899352896973" lon="-108.15998940540173"><ele>1831.4999999999998</ele><time>2026-03-29T18:29:38Z</time></trkpt><trkpt lat="36.84901155498066" lon="-108.16011027011605"><ele>1832.0</ele><time>2026-03-29T18:29:39Z</time></trkpt><trkpt lat="36.84900085881643" lon="-108.16019822000457"><ele>1832.1666666666665</ele><time>2026-03-29T18:29:40Z</time></trkpt><trkpt lat="36.8489696120141" lon="-108.16029030501518"><ele>1832.3333333333333</ele><time>2026-03-29T18:29:41Z</time></trkpt><trkpt lat="36.84896696205613" lon="-108.1604192165369"><ele>1832.5</ele><time>2026-03-29T18:29:42Z</time></trkpt><trkpt lat="36.84897683119268" lon="-108.16053052312249"><ele>1832.6666666666665</ele><time>2026-03-29T18:29:43Z</time></trkpt><trkpt lat="36.84899730520703" lon="-108.16063304746035"><ele>1832.8333333333333</ele><time>2026-03-29T18:29:44Z</time></trkpt><trkpt lat="36.849011577443264" lon="-108.16072682399168"><ele>1833.0</ele><time>2026-03-29T18:29:45Z</time></trkpt><trkpt lat="36.84898211439139" lon="-108.16083143944307"><ele>1834.25</ele><time>2026-03-29T18:29:47Z</time></trkpt><trkpt lat="36.8489115677019" lon="-108.16091115035177"><ele>1835.5</ele><time>2026-03-29T18:29:48Z</time></trkpt><trkpt lat="36.848835813880534" lon="-108.16100479462584"><ele>1836.75</ele><time>2026-03-29T18:29:49Z</time></trkpt><trkpt lat="36.8487447264211" lon="-108.16112018033544"><ele>1838.0</ele><time>2026-03-29T18:29:50Z</time></trkpt><trkpt lat="36.848630005723585" lon="-108.16119362920234"><ele>1838.0</ele><time>2026-03-29T18:29:51Z</time></trkpt><trkpt lat="36.8485181533272" lon="-108.16125350744709"><ele>1838.0000000000002</ele><time>2026-03-29T18:29:52Z</time></trkpt><trkpt lat="36.84843950951934" lon="-108.1613314512608"><ele>1838.0000000000002</ele><time>2026-03-29T18:29:53Z</time></trkpt><trkpt lat="36.84835137588114" lon="-108.16140943611654"><ele>1838.0</ele><time>2026-03-29T18:29:54Z</time></trkpt><trkpt lat="36.84829185208469" lon="-108.16150523179796"><ele>1838.0</ele><time>2026-03-29T18:29:55Z</time></trkpt><trkpt lat="36.84825102808142" lon="-108.1615993190913"><ele>1837.6000000000001</ele><time>2026-03-29T18:29:56Z</time></trkpt><trkpt lat="36.84818453244757" lon="-108.16168287731382"><ele>1837.2000000000003</ele><time>2026-03-29T18:29:57Z</time></trkpt><trkpt lat="36.848112377486366" lon="-108.16177900855008"><ele>1836.8</ele><time>2026-03-29T18:29:58Z</time></trkpt><trkpt lat="36.848052706301836" lon="-108.16187654421866"><ele>1836.4</ele><time>2026-03-29T18:29:59Z</time></trkpt><trkpt lat="36.84797990311901" lon="-108.16195746786188"><ele>1836.0</ele><time>2026-03-29T18:30:00Z</time></trkpt><trkpt lat="36.84791278130104" lon="-108.16203267282891"><ele>1836.0</ele><time>2026-03-29T18:30:01Z</time></trkpt><trkpt lat="36.84783911617001" lon="-108.16211875074013"><ele>1836.0</ele><time>2026-03-29T18:30:02Z</time></trkpt><trkpt lat="36.847744059727916" lon="-108.16218769145114"><ele>1836.0</ele><time>2026-03-29T18:30:03Z</time></trkpt><trkpt lat="36.847662896644266" lon="-108.16222281001804"><ele>1836.0</ele><time>2026-03-29T18:30:04Z</time></trkpt><trkpt lat="36.847583273463336" lon="-108.16225452468"><ele>1836.0</ele><time>2026-03-29T18:30:05Z</time></trkpt><trkpt lat="36.847474343659144" lon="-108.1622624850274"><ele>1835.6666666666667</ele><time>2026-03-29T18:30:06Z</time></trkpt><trkpt lat="36.84737708134956" lon="-108.16228113620907"><ele>1835.3333333333335</ele><time>2026-03-29T18:30:07Z</time></trkpt><trkpt lat="36.84729566358249" lon="-108.16231002235065"><ele>1835.0</ele><time>2026-03-29T18:30:08Z</time></trkpt><trkpt lat="36.847201154638796" lon="-108.162328446119"><ele>1834.6666666666667</ele><time>2026-03-29T18:30:09Z</time></trkpt><trkpt lat="36.84711131766558" lon="-108.162344878769"><ele>1834.3333333333335</ele><time>2026-03-29T18:30:10Z</time></trkpt><trkpt lat="36.84704436768513" lon="-108.16237643194596"><ele>1834.0</ele><time>2026-03-29T18:30:11Z</time></trkpt><trkpt lat="36.84697660039016" lon="-108.16247392056475"><ele>1834.0</ele><time>2026-03-29T18:30:12Z</time></trkpt><trkpt lat="36.84689545127563" lon="-108.16257939579623"><ele>1834.0</ele><time>2026-03-29T18:30:13Z</time></trkpt><trkpt lat="36.84682706622239" lon="-108.16262969891987"><ele>1834.0</ele><time>2026-03-29T18:30:14Z</time></trkpt><trkpt lat="36.84675626082123" lon="-108.16270409943024"><ele>1834.0</ele><time>2026-03-29T18:30:15Z</time></trkpt><trkpt lat="36.84669666200178" lon="-108.16280073334514"><ele>1834.0</ele><time>2026-03-29T18:30:16Z</time></trkpt><trkpt lat="36.84662176721331" lon="-108.16287642777043"><ele>1832.75</ele><time>2026-03-29T18:30:17Z</time></trkpt><trkpt lat="36.84652342998592" lon="-108.16293610996325"><ele>1831.5</ele><time>2026-03-29T18:30:18Z</time></trkpt><trkpt lat="36.84644538577938" lon="-108.16302625023496"><ele>1830.25</ele><time>2026-03-29T18:30:19Z</time></trkpt><trkpt lat="36.84636464797168" lon="-108.16312269022721"><ele>1829.0</ele><time>2026-03-29T18:30:20Z</time></trkpt><trkpt lat="36.84624476112574" lon="-108.1631867572842"><ele>1828.8000000000002</ele><time>2026-03-29T18:30:21Z</time></trkpt><trkpt lat="36.84614360701355" lon="-108.16324007259522"><ele>1828.6000000000001</ele><time>2026-03-29T18:30:22Z</time></trkpt><trkpt lat="36.8460444205022" lon="-108.16327207179724"><ele>1828.4</ele><time>2026-03-29T18:30:23Z</time></trkpt><trkpt lat="36.845961698318696" lon="-108.16329635514711"><ele>1828.2</ele><time>2026-03-29T18:30:24Z</time></trkpt><trkpt lat="36.84588396712411" lon="-108.16333728332171"><ele>1828.0</ele><time>2026-03-29T18:30:25Z</time></trkpt><trkpt lat="36.84580499636131" lon="-108.16340124219626"><ele>1827.8000000000002</ele><time>2026-03-29T18:30:26Z</time></trkpt><trkpt lat="36.84572742717243" lon="-108.1634734788881"><ele>1827.6000000000001</ele><time>2026-03-29T18:30:27Z</time></trkpt><trkpt lat="36.84564932643605" lon="-108.16352682899176"><ele>1827.3999999999999</ele><time>2026-03-29T18:30:28Z</time></trkpt><trkpt lat="36.8455703687576" lon="-108.16357052473967"><ele>1827.1999999999998</ele><time>2026-03-29T18:30:29Z</time></trkpt><trkpt lat="36.8455044710641" lon="-108.1636614756516"><ele>1827.0</ele><time>2026-03-29T18:30:30Z</time></trkpt><trkpt lat="36.8454504809438" lon="-108.16374550766636"><ele>1827.0</ele><time>2026-03-29T18:30:31Z</time></trkpt><trkpt lat="36.845400840343565" lon="-108.16381378991666"><ele>1827.0</ele><time>2026-03-29T18:30:32Z</time></trkpt><trkpt lat="36.84533683735525" lon="-108.16388390732774"><ele>1827.0</ele><time>2026-03-29T18:30:33Z</time></trkpt><trkpt lat="36.84525317486446" lon="-108.16396254251606"><ele>1827.0</ele><time>2026-03-29T18:30:34Z</time></trkpt><trkpt lat="36.845176228815454" lon="-108.16402331714454"><ele>1827.0</ele><time>2026-03-29T18:30:35Z</time></trkpt><trkpt lat="36.84509026677227" lon="-108.1640541830102"><ele>1827.0</ele><time>2026-03-29T18:30:36.001Z</time></trkpt><trkpt lat="36.845002889160035" lon="-108.16403988773388"><ele>1826.8</ele><time>2026-03-29T18:30:37.001Z</time></trkpt><trkpt lat="36.84490323851054" lon="-108.16402560596755"><ele>1826.6</ele><time>2026-03-29T18:30:38.001Z</time></trkpt><trkpt lat="36.84478496474411" lon="-108.16403042998746"><ele>1826.3999999999999</ele><time>2026-03-29T18:30:39.001Z</time></trkpt><trkpt lat="36.84468154756651" lon="-108.16404845853167"><ele>1826.1999999999998</ele><time>2026-03-29T18:30:40.001Z</time></trkpt><trkpt lat="36.84458560406405" lon="-108.16404912145856"><ele>1826.0</ele><time>2026-03-29T18:30:41.001Z</time></trkpt><trkpt lat="36.84449282719222" lon="-108.16403910629417"><ele>1825.9999999999998</ele><time>2026-03-29T18:30:42.001Z</time></trkpt><trkpt lat="36.84440212567342" lon="-108.16405456462253"><ele>1826.0</ele><time>2026-03-29T18:30:43.001Z</time></trkpt><trkpt lat="36.844321737987904" lon="-108.16407384018856"><ele>1826.0</ele><time>2026-03-29T18:30:44.001Z</time></trkpt><trkpt lat="36.84425015243911" lon="-108.16410017516895"><ele>1826.0</ele><time>2026-03-29T18:30:45Z</time></trkpt><trkpt lat="36.84418055961946" lon="-108.16415038887617"><ele>1825.9999999999998</ele><time>2026-03-29T18:30:46Z</time></trkpt><trkpt lat="36.844127751814405" lon="-108.16421148635978"><ele>1826.0</ele><time>2026-03-29T18:30:47Z</time></trkpt><trkpt lat="36.84406593324921" lon="-108.16422745687956"><ele>1825.1999999999998</ele><time>2026-03-29T18:30:48Z</time></trkpt><trkpt lat="36.844000020580836" lon="-108.16422262399463"><ele>1824.3999999999999</ele><time>2026-03-29T18:30:49Z</time></trkpt><trkpt lat="36.84392338604081" lon="-108.16422618805179"><ele>1823.6</ele><time>2026-03-29T18:30:50Z</time></trkpt><trkpt lat="36.843821257469536" lon="-108.16425341014177"><ele>1822.8</ele><time>2026-03-29T18:30:51Z</time></trkpt><trkpt lat="36.84370991757022" lon="-108.16429926390316"><ele>1822.0</ele><time>2026-03-29T18:30:52Z</time></trkpt><trkpt lat="36.843586039956634" lon="-108.16433616940431"><ele>1822.0</ele><time>2026-03-29T18:30:53Z</time></trkpt><trkpt lat="36.84348411561724" lon="-108.164390538874"><ele>1822.0</ele><time>2026-03-29T18:30:54Z</time></trkpt><trkpt lat="36.843389334497076" lon="-108.16444101554949"><ele>1822.0</ele><time>2026-03-29T18:30:55Z</time></trkpt><trkpt lat="36.8432711466167" lon="-108.1645085037426"><ele>1822.0</ele><time>2026-03-29T18:30:56Z</time></trkpt><trkpt lat="36.84315885916901" lon="-108.16458829475337"><ele>1821.3999999999999</ele><time>2026-03-29T18:30:57Z</time></trkpt><trkpt lat="36.84307382012849" lon="-108.16463912212981"><ele>1820.7999999999997</ele><time>2026-03-29T18:30:58Z</time></trkpt><trkpt lat="36.84299315847618" lon="-108.1646701060492"><ele>1820.2</ele><time>2026-03-29T18:30:59Z</time></trkpt><trkpt lat="36.84289171962413" lon="-108.16467460097155"><ele>1819.6</ele><time>2026-03-29T18:31:00Z</time></trkpt><trkpt lat="36.84278374788294" lon="-108.16470538833936"><ele>1819.0</ele><time>2026-03-29T18:31:01Z</time></trkpt><trkpt lat="36.84266456131427" lon="-108.16476158620054"><ele>1819.0</ele><time>2026-03-29T18:31:02Z</time></trkpt><trkpt lat="36.84252623796346" lon="-108.16480608239327"><ele>1819.0</ele><time>2026-03-29T18:31:03Z</time></trkpt><trkpt lat="36.84239687948766" lon="-108.16483954817171"><ele>1819.0</ele><time>2026-03-29T18:31:04Z</time></trkpt><trkpt lat="36.842260211049414" lon="-108.16486790150482"><ele>1819.0</ele><time>2026-03-29T18:31:05Z</time></trkpt><trkpt lat="36.84212985304816" lon="-108.16486603429273"><ele>1819.5</ele><time>2026-03-29T18:31:06Z</time></trkpt><trkpt lat="36.84199441777054" lon="-108.16485260421733"><ele>1820.0</ele><time>2026-03-29T18:31:07Z</time></trkpt><trkpt lat="36.8418608292755" lon="-108.16485729054659"><ele>1820.5</ele><time>2026-03-29T18:31:08Z</time></trkpt><trkpt lat="36.841725735120974" lon="-108.16487605930249"><ele>1821.0</ele><time>2026-03-29T18:31:09Z</time></trkpt><trkpt lat="36.841596812050575" lon="-108.1648905802633"><ele>1821.0</ele><time>2026-03-29T18:31:10Z</time></trkpt><trkpt lat="36.841456808709836" lon="-108.1649083551838"><ele>1821.0</ele><time>2026-03-29T18:31:11Z</time></trkpt><trkpt lat="36.84132014868315" lon="-108.16492564859243"><ele>1821.0</ele><time>2026-03-29T18:31:12Z</time></trkpt><trkpt lat="36.84118902923064" lon="-108.16495364183116"><ele>1821.0</ele><time>2026-03-29T18:31:13Z</time></trkpt><trkpt lat="36.84105413402686" lon="-108.16497283481728"><ele>1820.5</ele><time>2026-03-29T18:31:14Z</time></trkpt><trkpt lat="36.840912169951714" lon="-108.16497841835839"><ele>1820.0</ele><time>2026-03-29T18:31:15Z</time></trkpt><trkpt lat="36.84076200092843" lon="-108.16497795478077"><ele>1819.5</ele><time>2026-03-29T18:31:16Z</time></trkpt><trkpt lat="36.84063381602246" lon="-108.1649453015255"><ele>1819.0</ele><time>2026-03-29T18:31:17Z</time></trkpt><trkpt lat="36.84051549963733" lon="-108.16491226207339"><ele>1819.0</ele><time>2026-03-29T18:31:18Z</time></trkpt><trkpt lat="36.84039425810869" lon="-108.1649023453885"><ele>1819.0</ele><time>2026-03-29T18:31:19Z</time></trkpt><trkpt lat="36.840283186121006" lon="-108.16490996363898"><ele>1819.0</ele><time>2026-03-29T18:31:20Z</time></trkpt><trkpt lat="36.840170605195" lon="-108.16492151285647"><ele>1819.0</ele><time>2026-03-29T18:31:21Z</time></trkpt><trkpt lat="36.84007391272562" lon="-108.16492549783445"><ele>1819.0</ele><time>2026-03-29T18:31:22Z</time></trkpt><trkpt lat="36.83995806632562" lon="-108.16490060682739"><ele>1818.5</ele><time>2026-03-29T18:31:23Z</time></trkpt><trkpt lat="36.83983420092998" lon="-108.16488111524001"><ele>1818.0</ele><time>2026-03-29T18:31:24Z</time></trkpt><trkpt lat="36.83971469816512" lon="-108.16486975370387"><ele>1817.5</ele><time>2026-03-29T18:31:25Z</time></trkpt><trkpt lat="36.83960904027649" lon="-108.16485842311367"><ele>1817.0</ele><time>2026-03-29T18:31:26Z</time></trkpt><trkpt lat="36.83949413280591" lon="-108.16482675447838"><ele>1817.0</ele><time>2026-03-29T18:31:26.999Z</time></trkpt><trkpt lat="36.839400842593044" lon="-108.16481008988355"><ele>1816.9999999999998</ele><time>2026-03-29T18:31:27.999Z</time></trkpt><trkpt lat="36.839329608072354" lon="-108.16482325058266"><ele>1816.9999999999998</ele><time>2026-03-29T18:31:28.999Z</time></trkpt><trkpt lat="36.83924095338766" lon="-108.16486055427595"><ele>1817.0</ele><time>2026-03-29T18:31:29.999Z</time></trkpt><trkpt lat="36.83915642690256" lon="-108.16490201335505"><ele>1817.0</ele><time>2026-03-29T18:31:30.999Z</time></trkpt><trkpt lat="36.83907340033532" lon="-108.16497626321744"><ele>1817.0</ele><time>2026-03-29T18:31:31.999Z</time></trkpt><trkpt lat="36.838988587169965" lon="-108.16505980474238"><ele>1816.9999999999998</ele><time>2026-03-29T18:31:32.999Z</time></trkpt><trkpt lat="36.83890665452176" lon="-108.16513521109626"><ele>1816.9999999999998</ele><time>2026-03-29T18:31:33.999Z</time></trkpt><trkpt lat="36.83882320853404" lon="-108.1652169595543"><ele>1817.0</ele><time>2026-03-29T18:31:34.999Z</time></trkpt><trkpt lat="36.83872586167572" lon="-108.16530441260979"><ele>1817.0</ele><time>2026-03-29T18:31:35.999Z</time></trkpt><trkpt lat="36.83864099264828" lon="-108.16537188634787"><ele>1817.0</ele><time>2026-03-29T18:31:36.999Z</time></trkpt><trkpt lat="36.838575692555814" lon="-108.1654785794121"><ele>1816.9999999999998</ele><time>2026-03-29T18:31:37.999Z</time></trkpt><trkpt lat="36.83851582390416" lon="-108.16557664376239"><ele>1816.9999999999998</ele><time>2026-03-29T18:31:38.999Z</time></trkpt><trkpt lat="36.83844023079644" lon="-108.1656805693449"><ele>1817.0</ele><time>2026-03-29T18:31:39.999Z</time></trkpt><trkpt lat="36.83838272558737" lon="-108.16578531317879"><ele>1817.0</ele><time>2026-03-29T18:31:40.999Z</time></trkpt><trkpt lat="36.83831766631357" lon="-108.16586266823987"><ele>1816.1999999999998</ele><time>2026-03-29T18:31:41.999Z</time></trkpt><trkpt lat="36.83822769184195" lon="-108.16593693336907"><ele>1815.3999999999999</ele><time>2026-03-29T18:31:42.999Z</time></trkpt><trkpt lat="36.83812868370178" lon="-108.16602199523624"><ele>1814.6000000000001</ele><time>2026-03-29T18:31:43.999Z</time></trkpt><trkpt lat="36.838037707286624" lon="-108.16609005593443"><ele>1813.8000000000002</ele><time>2026-03-29T18:31:44.999Z</time></trkpt><trkpt lat="36.83794642601106" lon="-108.16614118104161"><ele>1813.0</ele><time>2026-03-29T18:31:45.999Z</time></trkpt><trkpt lat="36.837856488134676" lon="-108.16617951409276"><ele>1813.0</ele><time>2026-03-29T18:31:46.999Z</time></trkpt><trkpt lat="36.83778240979354" lon="-108.16623977628451"><ele>1813.0000000000002</ele><time>2026-03-29T18:31:47.999Z</time></trkpt><trkpt lat="36.83772119530975" lon="-108.16631996722103"><ele>1813.0000000000002</ele><time>2026-03-29T18:31:48.999Z</time></trkpt><trkpt lat="36.83764978948149" lon="-108.16640107121661"><ele>1813.0</ele><time>2026-03-29T18:31:49.999Z</time></trkpt><trkpt lat="36.83754935643999" lon="-108.1664725481361"><ele>1813.0</ele><time>2026-03-29T18:31:50.999Z</time></trkpt><trkpt lat="36.83748369139004" lon="-108.16654747182443"><ele>1812.75</ele><time>2026-03-29T18:31:51.999Z</time></trkpt><trkpt lat="36.837445472490685" lon="-108.16667903601761"><ele>1812.5</ele><time>2026-03-29T18:31:52.999Z</time></trkpt><trkpt lat="36.837417753068245" lon="-108.16683039748457"><ele>1812.25</ele><time>2026-03-29T18:31:53.999Z</time></trkpt><trkpt lat="36.837376625304486" lon="-108.16696619652042"><ele>1812.0</ele><time>2026-03-29T18:31:54.999Z</time></trkpt><trkpt lat="36.837335861628404" lon="-108.16709334877204"><ele>1812.0</ele><time>2026-03-29T18:31:55.999Z</time></trkpt><trkpt lat="36.83730112700347" lon="-108.16718206712824"><ele>1812.0</ele><time>2026-03-29T18:31:56.999Z</time></trkpt><trkpt lat="36.83726310411491" lon="-108.16727139227469"><ele>1812.0</ele><time>2026-03-29T18:31:57.999Z</time></trkpt><trkpt lat="36.83721136086023" lon="-108.167366860853"><ele>1812.0</ele><time>2026-03-29T18:31:58.999Z</time></trkpt><trkpt lat="36.837155232937185" lon="-108.16745060031775"><ele>1812.0</ele><time>2026-03-29T18:31:59.999Z</time></trkpt><trkpt lat="36.83709902214307" lon="-108.16754108302146"><ele>1812.0</ele><time>2026-03-29T18:32:00.999Z</time></trkpt><trkpt lat="36.83702709492679" lon="-108.1676350205612"><ele>1812.3999999999999</ele><time>2026-03-29T18:32:01.999Z</time></trkpt><trkpt lat="36.836913326877166" lon="-108.16771804220305"><ele>1812.7999999999997</ele><time>2026-03-29T18:32:02.999Z</time></trkpt><trkpt lat="36.83681467310897" lon="-108.16778161618238"><ele>1813.2</ele><time>2026-03-29T18:32:03.999Z</time></trkpt><trkpt lat="36.836732729158804" lon="-108.16784352491743"><ele>1813.6</ele><time>2026-03-29T18:32:04.999Z</time></trkpt><trkpt lat="36.836660345235934" lon="-108.1679105791714"><ele>1814.0</ele><time>2026-03-29T18:32:05.999Z</time></trkpt><trkpt lat="36.83659641978605" lon="-108.16798928501287"><ele>1814.0</ele><time>2026-03-29T18:32:06.999Z</time></trkpt><trkpt lat="36.836508106844086" lon="-108.16803986673497"><ele>1814.0</ele><time>2026-03-29T18:32:07.999Z</time></trkpt><trkpt lat="36.836403373903984" lon="-108.1680889713584"><ele>1814.0</ele><time>2026-03-29T18:32:08.999Z</time></trkpt><trkpt lat="36.83630820881703" lon="-108.16815742282964"><ele>1814.0</ele><time>2026-03-29T18:32:09.999Z</time></trkpt><trkpt lat="36.83621852848934" lon="-108.16822566583988"><ele>1814.0</ele><time>2026-03-29T18:32:10.999Z</time></trkpt><trkpt lat="36.83614552553309" lon="-108.16830151338861"><ele>1814.2</ele><time>2026-03-29T18:32:11.999Z</time></trkpt><trkpt lat="36.83606578536756" lon="-108.16837536905162"><ele>1814.4</ele><time>2026-03-29T18:32:12.999Z</time></trkpt><trkpt lat="36.835994628374316" lon="-108.1684762043907"><ele>1814.6</ele><time>2026-03-29T18:32:13.999Z</time></trkpt><trkpt lat="36.83593805595068" lon="-108.16857046128223"><ele>1814.8</ele><time>2026-03-29T18:32:14.999Z</time></trkpt><trkpt lat="36.83589423321043" lon="-108.16868103389379"><ele>1815.0</ele><time>2026-03-29T18:32:15.999Z</time></trkpt><trkpt lat="36.83587812490086" lon="-108.16880261214042"><ele>1814.4</ele><time>2026-03-29T18:32:16.999Z</time></trkpt><trkpt lat="36.83586150423437" lon="-108.16893619928445"><ele>1813.8</ele><time>2026-03-29T18:32:17.999Z</time></trkpt><trkpt lat="36.835849051651884" lon="-108.16906661295641"><ele>1813.1999999999998</ele><time>2026-03-29T18:32:18.999Z</time></trkpt><trkpt lat="36.83584411282069" lon="-108.16919147067377"><ele>1812.6</ele><time>2026-03-29T18:32:19.999Z</time></trkpt><trkpt lat="36.83584302000131" lon="-108.16932431087615"><ele>1812.0</ele><time>2026-03-29T18:32:20.999Z</time></trkpt><trkpt lat="36.8358446105671" lon="-108.16945298113896"><ele>1812.0</ele><time>2026-03-29T18:32:21.999Z</time></trkpt><trkpt lat="36.835845826276795" lon="-108.16958162817336"><ele>1811.9999999999998</ele><time>2026-03-29T18:32:22.999Z</time></trkpt><trkpt lat="36.83582809208332" lon="-108.16971582549806"><ele>1811.9999999999998</ele><time>2026-03-29T18:32:23.999Z</time></trkpt><trkpt lat="36.8357841447537" lon="-108.16986052477571"><ele>1812.0</ele><time>2026-03-29T18:32:24.999Z</time></trkpt><trkpt lat="36.83573864175295" lon="-108.16995129208811"><ele>1812.0</ele><time>2026-03-29T18:32:25.999Z</time></trkpt><trkpt lat="36.83558908532314" lon="-108.16991924590593"><ele>1811.3999999999999</ele><time>2026-03-29T18:32:27.999Z</time></trkpt><trkpt lat="36.835466371011194" lon="-108.16991516972817"><ele>1810.7999999999997</ele><time>2026-03-29T18:32:28.999Z</time></trkpt><trkpt lat="36.83536713779172" lon="-108.16997939865395"><ele>1810.2</ele><time>2026-03-29T18:32:29.999Z</time></trkpt><trkpt lat="36.835291632646914" lon="-108.17002089080462"><ele>1809.6</ele><time>2026-03-29T18:32:30.999Z</time></trkpt><trkpt lat="36.83519883473443" lon="-108.17004038732868"><ele>1809.0</ele><time>2026-03-29T18:32:31.999Z</time></trkpt><trkpt lat="36.83509407211175" lon="-108.1700598607675"><ele>1809.0</ele><time>2026-03-29T18:32:32.999Z</time></trkpt><trkpt lat="36.83498860334976" lon="-108.17007684753709"><ele>1809.0</ele><time>2026-03-29T18:32:33.999Z</time></trkpt><trkpt lat="36.834913296694126" lon="-108.17012540397707"><ele>1809.0</ele><time>2026-03-29T18:32:34.999Z</time></trkpt><trkpt lat="36.83482686760446" lon="-108.1701697822143"><ele>1809.0</ele><time>2026-03-29T18:32:35.999Z</time></trkpt><trkpt lat="36.83473786589833" lon="-108.17019469328807"><ele>1809.0</ele><time>2026-03-29T18:32:36.999Z</time></trkpt><trkpt lat="36.83464351603706" lon="-108.1701994763149"><ele>1809.0</ele><time>2026-03-29T18:32:37.999Z</time></trkpt><trkpt lat="36.83453455581711" lon="-108.1701977979486"><ele>1809.0</ele><time>2026-03-29T18:32:38.999Z</time></trkpt><trkpt lat="36.834410371015345" lon="-108.17012922214585"><ele>1809.0</ele><time>2026-03-29T18:32:39.999Z</time></trkpt><trkpt lat="36.83428507060554" lon="-108.17009814314054"><ele>1809.0</ele><time>2026-03-29T18:32:40.999Z</time></trkpt><trkpt lat="36.834184532675174" lon="-108.17006738223886"><ele>1808.3333333333335</ele><time>2026-03-29T18:32:42Z</time></trkpt><trkpt lat="36.834092754633595" lon="-108.17004866499718"><ele>1807.6666666666667</ele><time>2026-03-29T18:32:44Z</time></trkpt><trkpt lat="36.83391672728437" lon="-108.1703998705179"><ele>1807.0</ele><time>2026-03-29T18:32:46Z</time></trkpt><trkpt lat="36.83386193363137" lon="-108.1704937063573"><ele>1807.0000000000002</ele><time>2026-03-29T18:32:47Z</time></trkpt><trkpt lat="36.83381938512396" lon="-108.17058305781438"><ele>1807.0</ele><time>2026-03-29T18:32:48Z</time></trkpt><trkpt lat="36.833773287485194" lon="-108.1706838627556"><ele>1807.0</ele><time>2026-03-29T18:32:49Z</time></trkpt><trkpt lat="36.83372167190615" lon="-108.17076285605168"><ele>1807.0</ele><time>2026-03-29T18:32:50Z</time></trkpt><trkpt lat="36.833656113759446" lon="-108.17082780295061"><ele>1807.0000000000002</ele><time>2026-03-29T18:32:51Z</time></trkpt><trkpt lat="36.833572862705424" lon="-108.17088378851462"><ele>1807.0</ele><time>2026-03-29T18:32:52Z</time></trkpt><trkpt lat="36.83347523216852" lon="-108.1709404952953"><ele>1806.8</ele><time>2026-03-29T18:32:53Z</time></trkpt><trkpt lat="36.83338963318937" lon="-108.1710259720172"><ele>1806.6</ele><time>2026-03-29T18:32:54Z</time></trkpt><trkpt lat="36.83333416721732" lon="-108.17110864908398"><ele>1806.3999999999999</ele><time>2026-03-29T18:32:55Z</time></trkpt><trkpt lat="36.83329217096698" lon="-108.17120982324647"><ele>1806.1999999999998</ele><time>2026-03-29T18:32:56Z</time></trkpt><trkpt lat="36.83326885240284" lon="-108.17132213784727"><ele>1806.0</ele><time>2026-03-29T18:32:57Z</time></trkpt><trkpt lat="36.83323426638715" lon="-108.17145047560658"><ele>1806.0</ele><time>2026-03-29T18:32:58Z</time></trkpt><trkpt lat="36.833178302267015" lon="-108.17155415283135"><ele>1806.0</ele><time>2026-03-29T18:32:59Z</time></trkpt><trkpt lat="36.83310012079856" lon="-108.17164826598949"><ele>1806.0</ele><time>2026-03-29T18:33:00Z</time></trkpt><trkpt lat="36.83302982196172" lon="-108.17175029813764"><ele>1806.0</ele><time>2026-03-29T18:33:01Z</time></trkpt><trkpt lat="36.832963936524216" lon="-108.17185124813012"><ele>1806.0</ele><time>2026-03-29T18:33:02Z</time></trkpt><trkpt lat="36.832882151884085" lon="-108.17195148539797"><ele>1806.0</ele><time>2026-03-29T18:33:03Z</time></trkpt><trkpt lat="36.83279210489033" lon="-108.17205734760644"><ele>1806.0</ele><time>2026-03-29T18:33:04Z</time></trkpt><trkpt lat="36.832712417115" lon="-108.1721668379398"><ele>1806.0</ele><time>2026-03-29T18:33:05Z</time></trkpt><trkpt lat="36.832651836335096" lon="-108.172277017975"><ele>1806.0</ele><time>2026-03-29T18:33:06Z</time></trkpt><trkpt lat="36.83258992389156" lon="-108.1723845333741"><ele>1805.25</ele><time>2026-03-29T18:33:07Z</time></trkpt><trkpt lat="36.83250984383494" lon="-108.17246560087479"><ele>1804.5</ele><time>2026-03-29T18:33:08Z</time></trkpt><trkpt lat="36.83240151892482" lon="-108.1725066313769"><ele>1803.75</ele><time>2026-03-29T18:33:09Z</time></trkpt><trkpt lat="36.83227217856133" lon="-108.17253325039124"><ele>1803.0</ele><time>2026-03-29T18:33:10Z</time></trkpt><trkpt lat="36.832141831735" lon="-108.17255383828369"><ele>1803.0</ele><time>2026-03-29T18:33:11Z</time></trkpt><trkpt lat="36.8320372136283" lon="-108.17257300249068"><ele>1803.0000000000002</ele><time>2026-03-29T18:33:12Z</time></trkpt><trkpt lat="36.83193783167984" lon="-108.172591413378"><ele>1803.0000000000002</ele><time>2026-03-29T18:33:13Z</time></trkpt><trkpt lat="36.831837177951606" lon="-108.17264593135289"><ele>1803.0</ele><time>2026-03-29T18:33:14Z</time></trkpt><trkpt lat="36.83174482173152" lon="-108.17271999708579"><ele>1803.0</ele><time>2026-03-29T18:33:15Z</time></trkpt><trkpt lat="36.831645133923686" lon="-108.17277069220712"><ele>1802.25</ele><time>2026-03-29T18:33:16Z</time></trkpt><trkpt lat="36.83153343104984" lon="-108.17279794597908"><ele>1801.5</ele><time>2026-03-29T18:33:17Z</time></trkpt><trkpt lat="36.83141212533586" lon="-108.17284111989702"><ele>1800.75</ele><time>2026-03-29T18:33:18Z</time></trkpt><trkpt lat="36.83129034182897" lon="-108.17290736395582"><ele>1800.0</ele><time>2026-03-29T18:33:19Z</time></trkpt><trkpt lat="36.831191026912826" lon="-108.17299516765978"><ele>1800.0</ele><time>2026-03-29T18:33:20Z</time></trkpt><trkpt lat="36.83109262024123" lon="-108.1731093808074"><ele>1800.0</ele><time>2026-03-29T18:33:21Z</time></trkpt><trkpt lat="36.83098445342111" lon="-108.17322559805125"><ele>1800.0</ele><time>2026-03-29T18:33:22Z</time></trkpt><trkpt lat="36.83088775773623" lon="-108.1733366836793"><ele>1800.0</ele><time>2026-03-29T18:33:23Z</time></trkpt><trkpt lat="36.83081948456063" lon="-108.17345512398022"><ele>1800.2</ele><time>2026-03-29T18:33:24Z</time></trkpt><trkpt lat="36.830776542008486" lon="-108.17357551575878"><ele>1800.4</ele><time>2026-03-29T18:33:25Z</time></trkpt><trkpt lat="36.83072340342501" lon="-108.17369214467794"><ele>1800.6</ele><time>2026-03-29T18:33:26Z</time></trkpt><trkpt lat="36.830657477924404" lon="-108.1738118976263"><ele>1800.8</ele><time>2026-03-29T18:33:27Z</time></trkpt><trkpt lat="36.830597387071805" lon="-108.17394061699257"><ele>1801.0</ele><time>2026-03-29T18:33:28Z</time></trkpt><trkpt lat="36.830546018084625" lon="-108.1740923818464"><ele>1801.25</ele><time>2026-03-29T18:33:29Z</time></trkpt><trkpt lat="36.83049336460483" lon="-108.17423485169735"><ele>1801.5</ele><time>2026-03-29T18:33:30Z</time></trkpt><trkpt lat="36.83041046553258" lon="-108.17433804299372"><ele>1801.75</ele><time>2026-03-29T18:33:31Z</time></trkpt><trkpt lat="36.83031493344944" lon="-108.17442284799262"><ele>1802.0</ele><time>2026-03-29T18:33:32Z</time></trkpt><trkpt lat="36.83021611467628" lon="-108.17450217124225"><ele>1802.0</ele><time>2026-03-29T18:33:32.999Z</time></trkpt><trkpt lat="36.83011254206422" lon="-108.17460504513129"><ele>1802.0</ele><time>2026-03-29T18:33:33.999Z</time></trkpt><trkpt lat="36.82997415623413" lon="-108.17468691456102"><ele>1802.0</ele><time>2026-03-29T18:33:34.999Z</time></trkpt><trkpt lat="36.829832650790834" lon="-108.17475382819454"><ele>1802.0</ele><time>2026-03-29T18:33:35.999Z</time></trkpt><trkpt lat="36.829707643280756" lon="-108.17480491397167"><ele>1802.0</ele><time>2026-03-29T18:33:36.999Z</time></trkpt><trkpt lat="36.8295984984391" lon="-108.17484940212512"><ele>1802.0</ele><time>2026-03-29T18:33:37.999Z</time></trkpt><trkpt lat="36.829493712242524" lon="-108.17487364824875"><ele>1802.0</ele><time>2026-03-29T18:33:38.999Z</time></trkpt><trkpt lat="36.82938408543856" lon="-108.17487470871242"><ele>1802.0</ele><time>2026-03-29T18:33:39.999Z</time></trkpt><trkpt lat="36.82925865605141" lon="-108.17486398539076"><ele>1801.5</ele><time>2026-03-29T18:33:40.999Z</time></trkpt><trkpt lat="36.82914415309213" lon="-108.1748845896922"><ele>1801.0</ele><time>2026-03-29T18:33:41.999Z</time></trkpt><trkpt lat="36.8290246991288" lon="-108.17492934428626"><ele>1800.5</ele><time>2026-03-29T18:33:42.999Z</time></trkpt><trkpt lat="36.82886372776854" lon="-108.17500696236945"><ele>1800.0</ele><time>2026-03-29T18:33:43.999Z</time></trkpt><trkpt lat="36.828710967172526" lon="-108.17506417576476"><ele>1800.0</ele><time>2026-03-29T18:33:44.999Z</time></trkpt><trkpt lat="36.828585866652155" lon="-108.1751143474239"><ele>1800.0</ele><time>2026-03-29T18:33:45.999Z</time></trkpt><trkpt lat="36.82846096783808" lon="-108.17514030408239"><ele>1800.0</ele><time>2026-03-29T18:33:46.999Z</time></trkpt><trkpt lat="36.82835836520867" lon="-108.17517372083474"><ele>1800.0</ele><time>2026-03-29T18:33:47.999Z</time></trkpt><trkpt lat="36.828253877752644" lon="-108.17524995667625"><ele>1799.25</ele><time>2026-03-29T18:33:48.999Z</time></trkpt><trkpt lat="36.82813220226878" lon="-108.1753595389986"><ele>1798.5</ele><time>2026-03-29T18:33:49.999Z</time></trkpt><trkpt lat="36.82799071685879" lon="-108.17544106776926"><ele>1797.75</ele><time>2026-03-29T18:33:50.999Z</time></trkpt><trkpt lat="36.82788800978981" lon="-108.17553048642719"><ele>1797.0</ele><time>2026-03-29T18:33:51.999Z</time></trkpt><trkpt lat="36.8278390211954" lon="-108.17566254127492"><ele>1797.0</ele><time>2026-03-29T18:33:52.999Z</time></trkpt><trkpt lat="36.82778997183361" lon="-108.17581629109337"><ele>1797.0</ele><time>2026-03-29T18:33:53.999Z</time></trkpt><trkpt lat="36.82773502591791" lon="-108.17593051733567"><ele>1797.0</ele><time>2026-03-29T18:33:54.999Z</time></trkpt><trkpt lat="36.82766215336686" lon="-108.17602455421775"><ele>1797.0</ele><time>2026-03-29T18:33:55.999Z</time></trkpt><trkpt lat="36.827591835581586" lon="-108.17615364218369"><ele>1796.75</ele><time>2026-03-29T18:33:56.999Z</time></trkpt><trkpt lat="36.82756373537178" lon="-108.17630505650206"><ele>1796.5</ele><time>2026-03-29T18:33:57.999Z</time></trkpt><trkpt lat="36.827540369343986" lon="-108.1764492949828"><ele>1796.25</ele><time>2026-03-29T18:33:58.999Z</time></trkpt><trkpt lat="36.82748787206236" lon="-108.17656466696207"><ele>1796.0</ele><time>2026-03-29T18:33:59.999Z</time></trkpt><trkpt lat="36.82737921567694" lon="-108.17669979092135"><ele>1796.0</ele><time>2026-03-29T18:34:00.999Z</time></trkpt><trkpt lat="36.82726242281518" lon="-108.17683238885115"><ele>1796.0</ele><time>2026-03-29T18:34:01.999Z</time></trkpt><trkpt lat="36.82715803306804" lon="-108.17694321299014"><ele>1796.0</ele><time>2026-03-29T18:34:02.999Z</time></trkpt><trkpt lat="36.827048784899766" lon="-108.1770253038413"><ele>1796.0</ele><time>2026-03-29T18:34:03.999Z</time></trkpt><trkpt lat="36.8269357287133" lon="-108.17708377093393"><ele>1796.0</ele><time>2026-03-29T18:34:04.999Z</time></trkpt><trkpt lat="36.826819132149566" lon="-108.17714162812688"><ele>1796.0</ele><time>2026-03-29T18:34:05.999Z</time></trkpt><trkpt lat="36.82669767775528" lon="-108.17722043950235"><ele>1796.0</ele><time>2026-03-29T18:34:06.999Z</time></trkpt><trkpt lat="36.826567681091795" lon="-108.1772737345103"><ele>1796.0</ele><time>2026-03-29T18:34:07.999Z</time></trkpt><trkpt lat="36.82643946630367" lon="-108.17726981143483"><ele>1796.0</ele><time>2026-03-29T18:34:08.999Z</time></trkpt><trkpt lat="36.82630273812462" lon="-108.17724842627513"><ele>1796.0</ele><time>2026-03-29T18:34:09.999Z</time></trkpt><trkpt lat="36.82616741401388" lon="-108.1772688966142"><ele>1796.0</ele><time>2026-03-29T18:34:10.999Z</time></trkpt><trkpt lat="36.82604857237739" lon="-108.17734793767227"><ele>1796.0</ele><time>2026-03-29T18:34:11.999Z</time></trkpt><trkpt lat="36.825950696648064" lon="-108.17743023275224"><ele>1796.0</ele><time>2026-03-29T18:34:12.999Z</time></trkpt><trkpt lat="36.82585282220498" lon="-108.17754937693194"><ele>1796.0</ele><time>2026-03-29T18:34:13.999Z</time></trkpt><trkpt lat="36.825741702747514" lon="-108.17763106795138"><ele>1796.0</ele><time>2026-03-29T18:34:14.999Z</time></trkpt><trkpt lat="36.82563128660014" lon="-108.17765605839087"><ele>1796.0</ele><time>2026-03-29T18:34:15.999Z</time></trkpt><trkpt lat="36.82550830112015" lon="-108.17768866940177"><ele>1796.0</ele><time>2026-03-29T18:34:16.999Z</time></trkpt><trkpt lat="36.82537116626215" lon="-108.17773871226026"><ele>1796.0</ele><time>2026-03-29T18:34:17.999Z</time></trkpt><trkpt lat="36.825245886722534" lon="-108.17778979068198"><ele>1796.0</ele><time>2026-03-29T18:34:18.999Z</time></trkpt><trkpt lat="36.82512983889805" lon="-108.17784453117467"><ele>1796.0</ele><time>2026-03-29T18:34:19.999Z</time></trkpt><trkpt lat="36.82501093361854" lon="-108.17789589251397"><ele>1795.75</ele><time>2026-03-29T18:34:20.999Z</time></trkpt><trkpt lat="36.82488729678125" lon="-108.17793235158516"><ele>1795.5</ele><time>2026-03-29T18:34:21.999Z</time></trkpt><trkpt lat="36.824775242402225" lon="-108.17796359770425"><ele>1795.25</ele><time>2026-03-29T18:34:22.999Z</time></trkpt><trkpt lat="36.824661694509075" lon="-108.17798918288851"><ele>1795.0</ele><time>2026-03-29T18:34:23.999Z</time></trkpt><trkpt lat="36.82453967125343" lon="-108.17801112055025"><ele>1795.0</ele><time>2026-03-29T18:34:24.999Z</time></trkpt><trkpt lat="36.82441202495106" lon="-108.17802745083515"><ele>1795.0</ele><time>2026-03-29T18:34:25.999Z</time></trkpt><trkpt lat="36.82426810344638" lon="-108.17806139832356"><ele>1795.0</ele><time>2026-03-29T18:34:26.999Z</time></trkpt><trkpt lat="36.82413364987546" lon="-108.17809912406517"><ele>1795.0</ele><time>2026-03-29T18:34:27.999Z</time></trkpt><trkpt lat="36.82403403522679" lon="-108.17815023988277"><ele>1795.0</ele><time>2026-03-29T18:34:28.999Z</time></trkpt><trkpt lat="36.82393642809296" lon="-108.17821772040733"><ele>1795.0</ele><time>2026-03-29T18:34:29.999Z</time></trkpt><trkpt lat="36.823841607101116" lon="-108.17830528475676"><ele>1795.0</ele><time>2026-03-29T18:34:30.999Z</time></trkpt><trkpt lat="36.82374140547014" lon="-108.17836136203748"><ele>1795.0</ele><time>2026-03-29T18:34:31.999Z</time></trkpt><trkpt lat="36.823596373121426" lon="-108.17833795677852"><ele>1794.75</ele><time>2026-03-29T18:34:32.999Z</time></trkpt><trkpt lat="36.82345646951646" lon="-108.1783054494147"><ele>1794.5</ele><time>2026-03-29T18:34:33.999Z</time></trkpt><trkpt lat="36.823329978289614" lon="-108.17826085583049"><ele>1794.25</ele><time>2026-03-29T18:34:34.999Z</time></trkpt><trkpt lat="36.823205182169964" lon="-108.17820943478154"><ele>1794.0</ele><time>2026-03-29T18:34:35.999Z</time></trkpt><trkpt lat="36.823074178524315" lon="-108.17817188143584"><ele>1794.0</ele><time>2026-03-29T18:34:36.999Z</time></trkpt><trkpt lat="36.822965567744944" lon="-108.17819103936777"><ele>1794.0</ele><time>2026-03-29T18:34:37.999Z</time></trkpt><trkpt lat="36.822849185144456" lon="-108.17822379986097"><ele>1794.0</ele><time>2026-03-29T18:34:38.999Z</time></trkpt><trkpt lat="36.822718682036005" lon="-108.1782745260799"><ele>1794.0</ele><time>2026-03-29T18:34:39.999Z</time></trkpt><trkpt lat="36.822552555309514" lon="-108.17834243092268"><ele>1794.25</ele><time>2026-03-29T18:34:40.999Z</time></trkpt><trkpt lat="36.82240237322229" lon="-108.17839853507985"><ele>1794.5</ele><time>2026-03-29T18:34:41.999Z</time></trkpt><trkpt lat="36.82230563119232" lon="-108.1784974079173"><ele>1794.75</ele><time>2026-03-29T18:34:42.999Z</time></trkpt><trkpt lat="36.82220107838886" lon="-108.17860480745395"><ele>1795.0</ele><time>2026-03-29T18:34:43.999Z</time></trkpt><trkpt lat="36.82207816215689" lon="-108.17866823789834"><ele>1795.0</ele><time>2026-03-29T18:34:44.999Z</time></trkpt><trkpt lat="36.821942010719766" lon="-108.17868477420521"><ele>1795.0</ele><time>2026-03-29T18:34:45.999Z</time></trkpt><trkpt lat="36.821803892680784" lon="-108.17874827468057"><ele>1795.0</ele><time>2026-03-29T18:34:46.999Z</time></trkpt><trkpt lat="36.82170704818526" lon="-108.17879645652705"><ele>1795.0</ele><time>2026-03-29T18:34:48Z</time></trkpt><trkpt lat="36.82159557631955" lon="-108.17884595490092"><ele>1794.5</ele><time>2026-03-29T18:34:49Z</time></trkpt><trkpt lat="36.82147413332665" lon="-108.17893520056748"><ele>1794.0</ele><time>2026-03-29T18:34:50Z</time></trkpt><trkpt lat="36.82135062859537" lon="-108.17900947080533"><ele>1793.5</ele><time>2026-03-29T18:34:51Z</time></trkpt><trkpt lat="36.821230456399185" lon="-108.17906914500428"><ele>1793.0</ele><time>2026-03-29T18:34:52Z</time></trkpt><trkpt lat="36.821104211401625" lon="-108.1791369424241"><ele>1792.75</ele><time>2026-03-29T18:34:53Z</time></trkpt><trkpt lat="36.82098386331091" lon="-108.17921171152996"><ele>1792.5</ele><time>2026-03-29T18:34:54Z</time></trkpt><trkpt lat="36.82086721721416" lon="-108.17930860524883"><ele>1792.25</ele><time>2026-03-29T18:34:55Z</time></trkpt><trkpt lat="36.8207469717322" lon="-108.1794080921247"><ele>1792.0</ele><time>2026-03-29T18:34:56Z</time></trkpt><trkpt lat="36.82063543101411" lon="-108.17949475367308"><ele>1791.5</ele><time>2026-03-29T18:34:57Z</time></trkpt><trkpt lat="36.820522531751664" lon="-108.17957864125475"><ele>1791.0</ele><time>2026-03-29T18:34:58Z</time></trkpt><trkpt lat="36.820400476185" lon="-108.17965979342755"><ele>1790.5</ele><time>2026-03-29T18:34:59Z</time></trkpt><trkpt lat="36.82028506767511" lon="-108.17973070428205"><ele>1790.0</ele><time>2026-03-29T18:35:00Z</time></trkpt><trkpt lat="36.820193158295695" lon="-108.17981569554856"><ele>1789.5</ele><time>2026-03-29T18:35:01Z</time></trkpt><trkpt lat="36.820121158546826" lon="-108.17993171175387"><ele>1789.0</ele><time>2026-03-29T18:35:02Z</time></trkpt><trkpt lat="36.82005502339746" lon="-108.18006584049996"><ele>1788.5</ele><time>2026-03-29T18:35:03Z</time></trkpt><trkpt lat="36.81998512858914" lon="-108.18018787167306"><ele>1788.0</ele><time>2026-03-29T18:35:04Z</time></trkpt><trkpt lat="36.81993914257096" lon="-108.18032170363912"><ele>1788.0</ele><time>2026-03-29T18:35:05Z</time></trkpt><trkpt lat="36.81991924374674" lon="-108.18047147141384"><ele>1788.0</ele><time>2026-03-29T18:35:06Z</time></trkpt><trkpt lat="36.81989444615849" lon="-108.18060009657495"><ele>1788.0</ele><time>2026-03-29T18:35:07Z</time></trkpt><trkpt lat="36.81982084449431" lon="-108.18069433712017"><ele>1788.0</ele><time>2026-03-29T18:35:08Z</time></trkpt><trkpt lat="36.8196991713213" lon="-108.18074405696058"><ele>1788.0</ele><time>2026-03-29T18:35:09Z</time></trkpt><trkpt lat="36.819561806617365" lon="-108.18073133181302"><ele>1788.0</ele><time>2026-03-29T18:35:10Z</time></trkpt><trkpt lat="36.81944814214182" lon="-108.18069555555216"><ele>1788.0</ele><time>2026-03-29T18:35:11Z</time></trkpt><trkpt lat="36.819359061495526" lon="-108.18063828255727"><ele>1788.0</ele><time>2026-03-29T18:35:12Z</time></trkpt><trkpt lat="36.81927188980481" lon="-108.180562703803"><ele>1787.4</ele><time>2026-03-29T18:35:13Z</time></trkpt><trkpt lat="36.81918271379968" lon="-108.18052898867933"><ele>1786.8000000000002</ele><time>2026-03-29T18:35:14Z</time></trkpt><trkpt lat="36.81907823197166" lon="-108.1805374868517"><ele>1786.2</ele><time>2026-03-29T18:35:15Z</time></trkpt><trkpt lat="36.81896409696711" lon="-108.18054463466792"><ele>1785.6</ele><time>2026-03-29T18:35:16Z</time></trkpt><trkpt lat="36.818849115754624" lon="-108.18053093867226"><ele>1785.0</ele><time>2026-03-29T18:35:17Z</time></trkpt><trkpt lat="36.8187271497644" lon="-108.18051061203363"><ele>1785.0</ele><time>2026-03-29T18:35:18Z</time></trkpt><trkpt lat="36.818585503535836" lon="-108.1805043341245"><ele>1785.0</ele><time>2026-03-29T18:35:19Z</time></trkpt><trkpt lat="36.8184640172573" lon="-108.18049505749433"><ele>1785.0</ele><time>2026-03-29T18:35:20Z</time></trkpt><trkpt lat="36.81835934584507" lon="-108.18047422503155"><ele>1785.0</ele><time>2026-03-29T18:35:21Z</time></trkpt><trkpt lat="36.81827441906384" lon="-108.18046224454139"><ele>1785.0</ele><time>2026-03-29T18:35:22Z</time></trkpt><trkpt lat="36.81819016576597" lon="-108.18045796436583"><ele>1785.0</ele><time>2026-03-29T18:35:23Z</time></trkpt><trkpt lat="36.818100954624136" lon="-108.18046712808774"><ele>1785.0</ele><time>2026-03-29T18:35:24Z</time></trkpt><trkpt lat="36.81800121828375" lon="-108.18045789326678"><ele>1785.0</ele><time>2026-03-29T18:35:25Z</time></trkpt><trkpt lat="36.8178889744081" lon="-108.18045171294533"><ele>1785.0</ele><time>2026-03-29T18:35:26Z</time></trkpt><trkpt lat="36.817776496921944" lon="-108.18046258950002"><ele>1784.3333333333335</ele><time>2026-03-29T18:35:27Z</time></trkpt><trkpt lat="36.817633715991" lon="-108.18046750243712"><ele>1783.6666666666667</ele><time>2026-03-29T18:35:28Z</time></trkpt><trkpt lat="36.81746696434838" lon="-108.18046850739431"><ele>1783.0</ele><time>2026-03-29T18:35:29Z</time></trkpt><trkpt lat="36.81731783200612" lon="-108.18046837437815"><ele>1783.0</ele><time>2026-03-29T18:35:30Z</time></trkpt><trkpt lat="36.817225712775155" lon="-108.18048767175567"><ele>1783.0000000000002</ele><time>2026-03-29T18:35:31Z</time></trkpt><trkpt lat="36.817137817491385" lon="-108.18049697054961"><ele>1783.0000000000002</ele><time>2026-03-29T18:35:32Z</time></trkpt><trkpt lat="36.817030556994695" lon="-108.18052005201184"><ele>1783.0</ele><time>2026-03-29T18:35:33Z</time></trkpt><trkpt lat="36.816908077827925" lon="-108.1805626691352"><ele>1783.0</ele><time>2026-03-29T18:35:34Z</time></trkpt><trkpt lat="36.81679682622229" lon="-108.18057492779913"><ele>1782.8000000000002</ele><time>2026-03-29T18:35:35Z</time></trkpt><trkpt lat="36.816683546850136" lon="-108.18060413855324"><ele>1782.6000000000001</ele><time>2026-03-29T18:35:36Z</time></trkpt><trkpt lat="36.816571818815" lon="-108.1806539792453"><ele>1782.3999999999999</ele><time>2026-03-29T18:35:37Z</time></trkpt><trkpt lat="36.816473459045845" lon="-108.1806465010942"><ele>1782.1999999999998</ele><time>2026-03-29T18:35:38Z</time></trkpt><trkpt lat="36.816374767213524" lon="-108.1806673975792"><ele>1782.0</ele><time>2026-03-29T18:35:39Z</time></trkpt><trkpt lat="36.81629672676628" lon="-108.18075848628257"><ele>1782.0</ele><time>2026-03-29T18:35:40Z</time></trkpt><trkpt lat="36.81621549789842" lon="-108.18082429556654"><ele>1781.9999999999998</ele><time>2026-03-29T18:35:41Z</time></trkpt><trkpt lat="36.81611949016659" lon="-108.18083272310973"><ele>1781.9999999999998</ele><time>2026-03-29T18:35:42Z</time></trkpt><trkpt lat="36.81601870428518" lon="-108.18080202713584"><ele>1782.0</ele><time>2026-03-29T18:35:43Z</time></trkpt><trkpt lat="36.81593535863708" lon="-108.18081420795905"><ele>1782.0</ele><time>2026-03-29T18:35:44Z</time></trkpt><trkpt lat="36.815835093004104" lon="-108.18080741289677"><ele>1781.8</ele><time>2026-03-29T18:35:45Z</time></trkpt><trkpt lat="36.81571984662304" lon="-108.18078987650095"><ele>1781.6</ele><time>2026-03-29T18:35:46Z</time></trkpt><trkpt lat="36.8156191693115" lon="-108.18080142566845"><ele>1781.3999999999999</ele><time>2026-03-29T18:35:47Z</time></trkpt><trkpt lat="36.815539458084785" lon="-108.18085421400409"><ele>1781.1999999999998</ele><time>2026-03-29T18:35:48Z</time></trkpt><trkpt lat="36.81545664869306" lon="-108.1809274362577"><ele>1781.0</ele><time>2026-03-29T18:35:49Z</time></trkpt><trkpt lat="36.81538598020851" lon="-108.1810261887155"><ele>1781.0</ele><time>2026-03-29T18:35:50Z</time></trkpt><trkpt lat="36.81531235751917" lon="-108.18109334005655"><ele>1781.0</ele><time>2026-03-29T18:35:51Z</time></trkpt><trkpt lat="36.81524251014348" lon="-108.18114664770076"><ele>1781.0</ele><time>2026-03-29T18:35:52Z</time></trkpt><trkpt lat="36.81517069634484" lon="-108.18116982865531"><ele>1781.0</ele><time>2026-03-29T18:35:53Z</time></trkpt><trkpt lat="36.81506683736167" lon="-108.18117969975529"><ele>1781.0</ele><time>2026-03-29T18:35:54Z</time></trkpt><trkpt lat="36.81494057066716" lon="-108.18122092111867"><ele>1781.0</ele><time>2026-03-29T18:35:55Z</time></trkpt><trkpt lat="36.814840675988435" lon="-108.18127287309234"><ele>1781.0</ele><time>2026-03-29T18:35:56Z</time></trkpt><trkpt lat="36.81474605662782" lon="-108.18132773817328"><ele>1781.0</ele><time>2026-03-29T18:35:57Z</time></trkpt><trkpt lat="36.814675476400694" lon="-108.18138328127918"><ele>1781.0</ele><time>2026-03-29T18:35:58Z</time></trkpt><trkpt lat="36.81460762419693" lon="-108.18141819463833"><ele>1781.0</ele><time>2026-03-29T18:35:58.999Z</time></trkpt><trkpt lat="36.814514492746675" lon="-108.18142999516034"><ele>1780.9999999999998</ele><time>2026-03-29T18:35:59.999Z</time></trkpt><trkpt lat="36.814430635715794" lon="-108.18143346434175"><ele>1781.0</ele><time>2026-03-29T18:36:00.999Z</time></trkpt><trkpt lat="36.81435654417842" lon="-108.18142938661"><ele>1781.0</ele><time>2026-03-29T18:36:01.999Z</time></trkpt><trkpt lat="36.814263063798094" lon="-108.18139729701493"><ele>1781.0</ele><time>2026-03-29T18:36:03.999Z</time></trkpt><trkpt lat="36.81421048215982" lon="-108.18132942889763"><ele>1780.9999999999998</ele><time>2026-03-29T18:36:04.999Z</time></trkpt><trkpt lat="36.814153205375675" lon="-108.18122842367347"><ele>1781.0</ele><time>2026-03-29T18:36:05.999Z</time></trkpt><trkpt lat="36.81408741971607" lon="-108.18111838248136"><ele>1780.25</ele><time>2026-03-29T18:36:06.999Z</time></trkpt><trkpt lat="36.81400049074791" lon="-108.18101000368954"><ele>1779.5</ele><time>2026-03-29T18:36:07.999Z</time></trkpt><trkpt lat="36.81389218013041" lon="-108.18090308291038"><ele>1778.75</ele><time>2026-03-29T18:36:08.999Z</time></trkpt><trkpt lat="36.81376533362002" lon="-108.18079452981503"><ele>1778.0</ele><time>2026-03-29T18:36:09.999Z</time></trkpt><trkpt lat="36.81363751270856" lon="-108.18066977189405"><ele>1776.6666666666665</ele><time>2026-03-29T18:36:10.999Z</time></trkpt><trkpt lat="36.81351262702769" lon="-108.18053297439563"><ele>1775.3333333333335</ele><time>2026-03-29T18:36:11.999Z</time></trkpt><trkpt lat="36.813400148006075" lon="-108.18041359981288"><ele>1774.0</ele><time>2026-03-29T18:36:12.999Z</time></trkpt><trkpt lat="36.813293798767184" lon="-108.18030417192048"><ele>1773.75</ele><time>2026-03-29T18:36:13.999Z</time></trkpt><trkpt lat="36.813188429742645" lon="-108.180195818825"><ele>1773.5</ele><time>2026-03-29T18:36:14.999Z</time></trkpt><trkpt lat="36.8130865326159" lon="-108.18007965325569"><ele>1773.25</ele><time>2026-03-29T18:36:15.999Z</time></trkpt><trkpt lat="36.81298414662783" lon="-108.17997832592005"><ele>1773.0</ele><time>2026-03-29T18:36:16.999Z</time></trkpt><trkpt lat="36.81289238715633" lon="-108.17987194259548"><ele>1771.25</ele><time>2026-03-29T18:36:17.999Z</time></trkpt><trkpt lat="36.81281092350258" lon="-108.17975246331424"><ele>1769.5</ele><time>2026-03-29T18:36:18.999Z</time></trkpt><trkpt lat="36.81274988657188" lon="-108.17962552855985"><ele>1767.75</ele><time>2026-03-29T18:36:19.999Z</time></trkpt><trkpt lat="36.81271487640674" lon="-108.17948123642483"><ele>1766.0</ele><time>2026-03-29T18:36:20.999Z</time></trkpt><trkpt lat="36.81270532657433" lon="-108.17931997342386"><ele>1766.0</ele><time>2026-03-29T18:36:21.999Z</time></trkpt><trkpt lat="36.81271621196888" lon="-108.17913650191454"><ele>1766.0</ele><time>2026-03-29T18:36:22.999Z</time></trkpt><trkpt lat="36.81271858283588" lon="-108.17896161612728"><ele>1766.0</ele><time>2026-03-29T18:36:23.999Z</time></trkpt><trkpt lat="36.81271794932042" lon="-108.17879371504002"><ele>1766.0</ele><time>2026-03-29T18:36:24.999Z</time></trkpt><trkpt lat="36.81272154989723" lon="-108.17862829998344"><ele>1765.25</ele><time>2026-03-29T18:36:25.999Z</time></trkpt><trkpt lat="36.81272978446496" lon="-108.17845284275813"><ele>1764.5</ele><time>2026-03-29T18:36:26.999Z</time></trkpt><trkpt lat="36.8127383221754" lon="-108.17828729302339"><ele>1763.75</ele><time>2026-03-29T18:36:27.999Z</time></trkpt><trkpt lat="36.812736458537216" lon="-108.17812114379475"><ele>1763.0</ele><time>2026-03-29T18:36:28.999Z</time></trkpt><trkpt lat="36.81273142752888" lon="-108.17795632907178"><ele>1760.75</ele><time>2026-03-29T18:36:29.999Z</time></trkpt><trkpt lat="36.812738571520455" lon="-108.17778488112359"><ele>1758.5</ele><time>2026-03-29T18:36:30.999Z</time></trkpt><trkpt lat="36.81274185013119" lon="-108.17762654620512"><ele>1756.25</ele><time>2026-03-29T18:36:31.999Z</time></trkpt><trkpt lat="36.8127329587283" lon="-108.1774746340892"><ele>1754.0</ele><time>2026-03-29T18:36:32.999Z</time></trkpt><trkpt lat="36.81273237238781" lon="-108.17732557124916"><ele>1753.4</ele><time>2026-03-29T18:36:33.999Z</time></trkpt><trkpt lat="36.81274609117081" lon="-108.17718266194568"><ele>1752.8000000000002</ele><time>2026-03-29T18:36:34.999Z</time></trkpt><trkpt lat="36.812737588705424" lon="-108.17704433178737"><ele>1752.1999999999998</ele><time>2026-03-29T18:36:35.999Z</time></trkpt><trkpt lat="36.81273229864053" lon="-108.17691586310266"><ele>1751.6</ele><time>2026-03-29T18:36:36.999Z</time></trkpt><trkpt lat="36.81273226207043" lon="-108.17679703108618"><ele>1751.0</ele><time>2026-03-29T18:36:37.999Z</time></trkpt><trkpt lat="36.81273964374833" lon="-108.1767014919607"><ele>1750.9999999999998</ele><time>2026-03-29T18:36:38.999Z</time></trkpt><trkpt lat="36.81273196320851" lon="-108.17660896985927"><ele>1751.0</ele><time>2026-03-29T18:36:39.999Z</time></trkpt><trkpt lat="36.81272384358076" lon="-108.17652066510199"><ele>1751.0</ele><time>2026-03-29T18:36:40.999Z</time></trkpt><trkpt lat="36.81271021487148" lon="-108.17644185063624"><ele>1751.0</ele><time>2026-03-29T18:36:41.999Z</time></trkpt><trkpt lat="36.81269700520206" lon="-108.17636492580921"><ele>1750.9999999999998</ele><time>2026-03-29T18:36:42.999Z</time></trkpt><trkpt lat="36.81271061024447" lon="-108.17625389247864"><ele>1751.0</ele><time>2026-03-29T18:36:44.999Z</time></trkpt><trkpt lat="36.8124404629652" lon="-108.17630467642576"><ele>1749.8</ele><time>2026-03-29T18:36:46.999Z</time></trkpt><trkpt lat="36.81236239417608" lon="-108.1763471998965"><ele>1748.6</ele><time>2026-03-29T18:36:47.999Z</time></trkpt><trkpt lat="36.812275744998836" lon="-108.1763618725813"><ele>1747.4</ele><time>2026-03-29T18:36:48.999Z</time></trkpt><trkpt lat="36.81216527029" lon="-108.17638577026263"><ele>1746.2</ele><time>2026-03-29T18:36:49.999Z</time></trkpt><trkpt lat="36.81205556453235" lon="-108.17642463820407"><ele>1745.0</ele><time>2026-03-29T18:36:50.999Z</time></trkpt><trkpt lat="36.811950874274196" lon="-108.17645953668291"><ele>1745.0</ele><time>2026-03-29T18:36:51.999Z</time></trkpt><trkpt lat="36.81184517562319" lon="-108.17649540352932"><ele>1745.0</ele><time>2026-03-29T18:36:52.999Z</time></trkpt><trkpt lat="36.81173746956582" lon="-108.17652943177235"><ele>1745.0</ele><time>2026-03-29T18:36:54Z</time></trkpt><trkpt lat="36.8116379269651" lon="-108.17655294160225"><ele>1745.0</ele><time>2026-03-29T18:36:55Z</time></trkpt><trkpt lat="36.81153748895273" lon="-108.17657854693853"><ele>1745.0</ele><time>2026-03-29T18:36:56Z</time></trkpt><trkpt lat="36.81142541723542" lon="-108.17660632507994"><ele>1745.0</ele><time>2026-03-29T18:36:57Z</time></trkpt><trkpt lat="36.81133126784233" lon="-108.17663713545275"><ele>1745.0</ele><time>2026-03-29T18:36:58Z</time></trkpt><trkpt lat="36.811218400946686" lon="-108.17666150454065"><ele>1745.0</ele><time>2026-03-29T18:36:59Z</time></trkpt><trkpt lat="36.81110475606586" lon="-108.17667613652063"><ele>1745.0</ele><time>2026-03-29T18:37:00Z</time></trkpt><trkpt lat="36.81098422262386" lon="-108.1766974939991"><ele>1745.0</ele><time>2026-03-29T18:37:01Z</time></trkpt><trkpt lat="36.81087075598185" lon="-108.17673246070012"><ele>1744.5</ele><time>2026-03-29T18:37:02Z</time></trkpt><trkpt lat="36.81074969004674" lon="-108.17675940507601"><ele>1744.0</ele><time>2026-03-29T18:37:03Z</time></trkpt><trkpt lat="36.81061991311769" lon="-108.1767810775506"><ele>1743.5</ele><time>2026-03-29T18:37:04Z</time></trkpt><trkpt lat="36.8105128111575" lon="-108.17680477482723"><ele>1743.0</ele><time>2026-03-29T18:37:05Z</time></trkpt><trkpt lat="36.810407015629465" lon="-108.17682130611573"><ele>1743.0</ele><time>2026-03-29T18:37:06Z</time></trkpt><trkpt lat="36.81030835075004" lon="-108.1768363587238"><ele>1743.0</ele><time>2026-03-29T18:37:07Z</time></trkpt><trkpt lat="36.810208239919554" lon="-108.17684567157418"><ele>1743.0</ele><time>2026-03-29T18:37:08Z</time></trkpt><trkpt lat="36.810083097430194" lon="-108.17685391433491"><ele>1743.0</ele><time>2026-03-29T18:37:09Z</time></trkpt><trkpt lat="36.80994799630542" lon="-108.17687369008867"><ele>1742.75</ele><time>2026-03-29T18:37:10Z</time></trkpt><trkpt lat="36.8098151506941" lon="-108.17690146836432"><ele>1742.5</ele><time>2026-03-29T18:37:11Z</time></trkpt><trkpt lat="36.809707798375825" lon="-108.17692609281747"><ele>1742.25</ele><time>2026-03-29T18:37:12Z</time></trkpt><trkpt lat="36.80958463936063" lon="-108.17695709482533"><ele>1742.0</ele><time>2026-03-29T18:37:13Z</time></trkpt><trkpt lat="36.80946087400481" lon="-108.17697285756337"><ele>1742.0</ele><time>2026-03-29T18:37:14Z</time></trkpt><trkpt lat="36.80934884230392" lon="-108.17698191917799"><ele>1741.9999999999998</ele><time>2026-03-29T18:37:15Z</time></trkpt><trkpt lat="36.809248783422504" lon="-108.17699448031945"><ele>1741.9999999999998</ele><time>2026-03-29T18:37:16Z</time></trkpt><trkpt lat="36.809144352769344" lon="-108.17703688166975"><ele>1742.0</ele><time>2026-03-29T18:37:17Z</time></trkpt><trkpt lat="36.80906363653527" lon="-108.17709969118337"><ele>1742.0</ele><time>2026-03-29T18:37:18Z</time></trkpt><trkpt lat="36.80897972168698" lon="-108.17715858634548"><ele>1741.8</ele><time>2026-03-29T18:37:19Z</time></trkpt><trkpt lat="36.80889652868148" lon="-108.17718497570507"><ele>1741.6</ele><time>2026-03-29T18:37:20Z</time></trkpt><trkpt lat="36.80880194330563" lon="-108.17717188656589"><ele>1741.3999999999999</ele><time>2026-03-29T18:37:21Z</time></trkpt><trkpt lat="36.80870350501695" lon="-108.17712548402649"><ele>1741.1999999999998</ele><time>2026-03-29T18:37:22Z</time></trkpt><trkpt lat="36.80860541352311" lon="-108.17706191474069"><ele>1741.0</ele><time>2026-03-29T18:37:23Z</time></trkpt><trkpt lat="36.80852352654747" lon="-108.1770286701823"><ele>1740.0</ele><time>2026-03-29T18:37:24Z</time></trkpt><trkpt lat="36.80845458953867" lon="-108.17697692106509"><ele>1739.0</ele><time>2026-03-29T18:37:25Z</time></trkpt><trkpt lat="36.8084031359833" lon="-108.17687789289533"><ele>1738.0</ele><time>2026-03-29T18:37:26Z</time></trkpt><trkpt lat="36.808375066009546" lon="-108.17673054032491"><ele>1737.0</ele><time>2026-03-29T18:37:27Z</time></trkpt><trkpt lat="36.80833691003969" lon="-108.1765819009664"><ele>1736.0</ele><time>2026-03-29T18:37:28Z</time></trkpt><trkpt lat="36.808273023910495" lon="-108.17645900665882"><ele>1736.0</ele><time>2026-03-29T18:37:29Z</time></trkpt><trkpt lat="36.808188005189045" lon="-108.17641557300887"><ele>1736.0</ele><time>2026-03-29T18:37:30Z</time></trkpt><trkpt lat="36.80808762979542" lon="-108.176420058882"><ele>1736.0</ele><time>2026-03-29T18:37:31Z</time></trkpt><trkpt lat="36.80799348028229" lon="-108.17645546508504"><ele>1736.0</ele><time>2026-03-29T18:37:32Z</time></trkpt><trkpt lat="36.80789331128887" lon="-108.17649692708572"><ele>1736.0</ele><time>2026-03-29T18:37:33Z</time></trkpt><trkpt lat="36.80777207723883" lon="-108.17651221920553"><ele>1735.75</ele><time>2026-03-29T18:37:34Z</time></trkpt><trkpt lat="36.80764600146958" lon="-108.17653522116315"><ele>1735.5</ele><time>2026-03-29T18:37:35Z</time></trkpt><trkpt lat="36.807555183514104" lon="-108.17654409815886"><ele>1735.25</ele><time>2026-03-29T18:37:36Z</time></trkpt><trkpt lat="36.807443947250974" lon="-108.17649565213529"><ele>1735.0</ele><time>2026-03-29T18:37:38Z</time></trkpt><trkpt lat="36.80737007256271" lon="-108.17638550145111"><ele>1735.0</ele><time>2026-03-29T18:37:40Z</time></trkpt><trkpt lat="36.8072985361009" lon="-108.1763492911063"><ele>1735.0</ele><time>2026-03-29T18:37:41Z</time></trkpt><trkpt lat="36.8071993858256" lon="-108.17634158525925"><ele>1735.0</ele><time>2026-03-29T18:37:42Z</time></trkpt><trkpt lat="36.80707976029297" lon="-108.17635739151672"><ele>1735.0</ele><time>2026-03-29T18:37:43Z</time></trkpt><trkpt lat="36.80694227290812" lon="-108.17635729742095"><ele>1735.0</ele><time>2026-03-29T18:37:44Z</time></trkpt><trkpt lat="36.8068085566383" lon="-108.1763442309845"><ele>1734.75</ele><time>2026-03-29T18:37:45Z</time></trkpt><trkpt lat="36.80668515409578" lon="-108.17632044125997"><ele>1734.5</ele><time>2026-03-29T18:37:46Z</time></trkpt><trkpt lat="36.80657185936581" lon="-108.17629540345548"><ele>1734.25</ele><time>2026-03-29T18:37:47Z</time></trkpt><trkpt lat="36.80643828609709" lon="-108.17630830784955"><ele>1734.0</ele><time>2026-03-29T18:37:48Z</time></trkpt><trkpt lat="36.80628789752511" lon="-108.17635530174383"><ele>1734.0</ele><time>2026-03-29T18:37:49Z</time></trkpt><trkpt lat="36.80613987572491" lon="-108.17640948432076"><ele>1734.0</ele><time>2026-03-29T18:37:50Z</time></trkpt><trkpt lat="36.80601368663442" lon="-108.1764649458538"><ele>1734.0</ele><time>2026-03-29T18:37:51Z</time></trkpt><trkpt lat="36.80588363865673" lon="-108.17651009158455"><ele>1734.0</ele><time>2026-03-29T18:37:52Z</time></trkpt><trkpt lat="36.80573283140264" lon="-108.17661340544784"><ele>1733.3333333333335</ele><time>2026-03-29T18:37:53Z</time></trkpt><trkpt lat="36.805573159377516" lon="-108.1767117762661"><ele>1732.6666666666667</ele><time>2026-03-29T18:37:54Z</time></trkpt><trkpt lat="36.80542180357673" lon="-108.17679538918154"><ele>1732.0</ele><time>2026-03-29T18:37:55Z</time></trkpt><trkpt lat="36.80524592228871" lon="-108.17686524769506"><ele>1732.3333333333335</ele><time>2026-03-29T18:37:56Z</time></trkpt><trkpt lat="36.80508515596603" lon="-108.17692330937469"><ele>1732.6666666666665</ele><time>2026-03-29T18:37:57Z</time></trkpt><trkpt lat="36.804953279503124" lon="-108.1769691438938"><ele>1733.0</ele><time>2026-03-29T18:37:58Z</time></trkpt><trkpt lat="36.8047950177472" lon="-108.17704289163098"><ele>1733.0</ele><time>2026-03-29T18:37:59Z</time></trkpt><trkpt lat="36.804606983001435" lon="-108.17709513206549"><ele>1733.0</ele><time>2026-03-29T18:38:00Z</time></trkpt><trkpt lat="36.80445527889952" lon="-108.17711306233882"><ele>1733.0</ele><time>2026-03-29T18:38:01Z</time></trkpt><trkpt lat="36.80428213835371" lon="-108.17710694084963"><ele>1732.6666666666665</ele><time>2026-03-29T18:38:02Z</time></trkpt><trkpt lat="36.80410876783143" lon="-108.17709063200394"><ele>1732.3333333333335</ele><time>2026-03-29T18:38:03Z</time></trkpt><trkpt lat="36.80394921693452" lon="-108.17707966514456"><ele>1732.0</ele><time>2026-03-29T18:38:04Z</time></trkpt><trkpt lat="36.80382253706491" lon="-108.17708935418383"><ele>1732.0</ele><time>2026-03-29T18:38:05Z</time></trkpt><trkpt lat="36.80367751681451" lon="-108.17712731200456"><ele>1732.0</ele><time>2026-03-29T18:38:06Z</time></trkpt><trkpt lat="36.80353269305443" lon="-108.17719896198943"><ele>1732.0</ele><time>2026-03-29T18:38:07Z</time></trkpt><trkpt lat="36.80340935029922" lon="-108.17729879593783"><ele>1731.3333333333335</ele><time>2026-03-29T18:38:08Z</time></trkpt><trkpt lat="36.80330696691496" lon="-108.17743762928066"><ele>1730.6666666666665</ele><time>2026-03-29T18:38:09Z</time></trkpt><trkpt lat="36.803209217344666" lon="-108.17760257298372"><ele>1730.0</ele><time>2026-03-29T18:38:10Z</time></trkpt><trkpt lat="36.80311197426415" lon="-108.17777273226822"><ele>1730.0</ele><time>2026-03-29T18:38:11Z</time></trkpt><trkpt lat="36.80300916100866" lon="-108.17794796058506"><ele>1730.0</ele><time>2026-03-29T18:38:12Z</time></trkpt><trkpt lat="36.80290675601001" lon="-108.17813634494425"><ele>1730.0</ele><time>2026-03-29T18:38:13Z</time></trkpt><trkpt lat="36.80280619074049" lon="-108.17833739005414"><ele>1730.0</ele><time>2026-03-29T18:38:14Z</time></trkpt><trkpt lat="36.802720169898016" lon="-108.17850904826301"><ele>1730.0</ele><time>2026-03-29T18:38:15Z</time></trkpt><trkpt lat="36.80262191686005" lon="-108.17868918403238"><ele>1730.0</ele><time>2026-03-29T18:38:16Z</time></trkpt><trkpt lat="36.80251122701837" lon="-108.17887557567323"><ele>1729.3333333333333</ele><time>2026-03-29T18:38:17Z</time></trkpt><trkpt lat="36.802382378340766" lon="-108.17905640082816"><ele>1728.6666666666665</ele><time>2026-03-29T18:38:18Z</time></trkpt><trkpt lat="36.802236068354546" lon="-108.1792333659253"><ele>1728.0</ele><time>2026-03-29T18:38:19Z</time></trkpt><trkpt lat="36.80210937297993" lon="-108.17939213257333"><ele>1728.0</ele><time>2026-03-29T18:38:20Z</time></trkpt><trkpt lat="36.80203466619961" lon="-108.17953976960625"><ele>1728.0</ele><time>2026-03-29T18:38:21Z</time></trkpt><trkpt lat="36.80199936250264" lon="-108.17970053455004"><ele>1728.0</ele><time>2026-03-29T18:38:22Z</time></trkpt><trkpt lat="36.80196949614463" lon="-108.17989380268945"><ele>1728.0</ele><time>2026-03-29T18:38:23Z</time></trkpt><trkpt lat="36.801911860793005" lon="-108.18008100534287"><ele>1728.3333333333335</ele><time>2026-03-29T18:38:24Z</time></trkpt><trkpt lat="36.80184601347821" lon="-108.1802873437896"><ele>1728.6666666666667</ele><time>2026-03-29T18:38:25Z</time></trkpt><trkpt lat="36.80177116722403" lon="-108.18049320786258"><ele>1729.0</ele><time>2026-03-29T18:38:26Z</time></trkpt><trkpt lat="36.80167804984951" lon="-108.18070681005031"><ele>1729.0</ele><time>2026-03-29T18:38:27Z</time></trkpt><trkpt lat="36.80157715757687" lon="-108.18093495571961"><ele>1729.0</ele><time>2026-03-29T18:38:28Z</time></trkpt><trkpt lat="36.80148241480775" lon="-108.18117761893076"><ele>1729.0</ele><time>2026-03-29T18:38:29Z</time></trkpt><trkpt lat="36.80138666827587" lon="-108.18142496570519"><ele>1727.0</ele><time>2026-03-29T18:38:30Z</time></trkpt><trkpt lat="36.801286982322615" lon="-108.18167754823871"><ele>1725.0</ele><time>2026-03-29T18:38:31Z</time></trkpt><trkpt lat="36.8011961731055" lon="-108.18194789256576"><ele>1725.0</ele><time>2026-03-29T18:38:32Z</time></trkpt><trkpt lat="36.801116395407746" lon="-108.18222440307521"><ele>1725.0</ele><time>2026-03-29T18:38:33Z</time></trkpt><trkpt lat="36.801061842738115" lon="-108.18244230345515"><ele>1725.0</ele><time>2026-03-29T18:38:34Z</time></trkpt><trkpt lat="36.801026375343874" lon="-108.1825832242572"><ele>1725.6</ele><time>2026-03-29T18:38:35Z</time></trkpt><trkpt lat="36.80098558237909" lon="-108.18270617680255"><ele>1726.2</ele><time>2026-03-29T18:38:36Z</time></trkpt><trkpt lat="36.800937051272456" lon="-108.18281837572108"><ele>1726.8000000000002</ele><time>2026-03-29T18:38:37Z</time></trkpt><trkpt lat="36.80089762626696" lon="-108.18293680913628"><ele>1727.4</ele><time>2026-03-29T18:38:38Z</time></trkpt><trkpt lat="36.800835019371334" lon="-108.1830483285543"><ele>1728.0</ele><time>2026-03-29T18:38:39Z</time></trkpt><trkpt lat="36.80075115194881" lon="-108.18314105739258"><ele>1727.4</ele><time>2026-03-29T18:38:39.999Z</time></trkpt><trkpt lat="36.800689677084115" lon="-108.18325575439502"><ele>1726.8000000000002</ele><time>2026-03-29T18:38:40.999Z</time></trkpt><trkpt lat="36.80066121508373" lon="-108.1834009953728"><ele>1726.2</ele><time>2026-03-29T18:38:41.999Z</time></trkpt><trkpt lat="36.80063621687226" lon="-108.1835548575946"><ele>1725.6</ele><time>2026-03-29T18:38:43.999Z</time></trkpt><trkpt lat="36.800625741955294" lon="-108.18363995772259"><ele>1725.0</ele><time>2026-03-29T18:38:44.999Z</time></trkpt><trkpt lat="36.80061406019578" lon="-108.18372839587926"><ele>1725.0</ele><time>2026-03-29T18:38:45.999Z</time></trkpt><trkpt lat="36.80059471182302" lon="-108.18382559378382"><ele>1725.0</ele><time>2026-03-29T18:38:46.999Z</time></trkpt><trkpt lat="36.800573357527945" lon="-108.18392945822171"><ele>1725.0</ele><time>2026-03-29T18:38:47.999Z</time></trkpt><trkpt lat="36.80056041297749" lon="-108.18401968751982"><ele>1725.0</ele><time>2026-03-29T18:38:48.999Z</time></trkpt><trkpt lat="36.80054559899297" lon="-108.1841039979226"><ele>1725.0</ele><time>2026-03-29T18:38:49.999Z</time></trkpt><trkpt lat="36.8005246027065" lon="-108.18419588103389"><ele>1725.0</ele><time>2026-03-29T18:38:50.999Z</time></trkpt><trkpt lat="36.80049860603853" lon="-108.18429563667021"><ele>1724.8571428571427</ele><time>2026-03-29T18:38:51.999Z</time></trkpt><trkpt lat="36.800478905364805" lon="-108.18437677403303"><ele>1724.7142857142858</ele><time>2026-03-29T18:38:52.999Z</time></trkpt><trkpt lat="36.8004590120542" lon="-108.18445510460602"><ele>1724.5714285714284</ele><time>2026-03-29T18:38:53.999Z</time></trkpt><trkpt lat="36.80043703513415" lon="-108.18453414052827"><ele>1724.4285714285713</ele><time>2026-03-29T18:38:54.999Z</time></trkpt><trkpt lat="36.80041059234947" lon="-108.18461545309405"><ele>1724.2857142857142</ele><time>2026-03-29T18:38:55.999Z</time></trkpt><trkpt lat="36.80038667542297" lon="-108.18469453676883"><ele>1724.142857142857</ele><time>2026-03-29T18:38:56.999Z</time></trkpt><trkpt lat="36.800359912527014" lon="-108.18477133369687"><ele>1724.0</ele><time>2026-03-29T18:38:57.999Z</time></trkpt><trkpt lat="36.80033305011751" lon="-108.18484803252069"><ele>1724.0</ele><time>2026-03-29T18:38:58.999Z</time></trkpt><trkpt lat="36.800284616784" lon="-108.1849753869703"><ele>1724.0</ele><time>2026-03-29T18:39:01Z</time></trkpt><trkpt lat="36.80021279589115" lon="-108.1851004196626"><ele>1724.0</ele><time>2026-03-29T18:39:03Z</time></trkpt><trkpt lat="36.80017079670826" lon="-108.18516727911638"><ele>1724.0</ele><time>2026-03-29T18:39:04Z</time></trkpt><trkpt lat="36.80007819302907" lon="-108.18528692563204"><ele>1724.0</ele><time>2026-03-29T18:39:06Z</time></trkpt><trkpt lat="36.800031250843816" lon="-108.18535384302177"><ele>1723.8000000000002</ele><time>2026-03-29T18:39:07Z</time></trkpt><trkpt lat="36.79995880528921" lon="-108.18545014858361"><ele>1723.6000000000001</ele><time>2026-03-29T18:39:09Z</time></trkpt><trkpt lat="36.79988635407437" lon="-108.185564726665"><ele>1723.4</ele><time>2026-03-29T18:39:11Z</time></trkpt><trkpt lat="36.79984785246236" lon="-108.18562903004589"><ele>1723.2</ele><time>2026-03-29T18:39:12Z</time></trkpt><trkpt lat="36.799805363309325" lon="-108.18569047227534"><ele>1723.0</ele><time>2026-03-29T18:39:13Z</time></trkpt><trkpt lat="36.79972205337604" lon="-108.18580319636091"><ele>1723.0</ele><time>2026-03-29T18:39:15Z</time></trkpt><trkpt lat="36.79966706499159" lon="-108.18586705304806"><ele>1723.0000000000002</ele><time>2026-03-29T18:39:17Z</time></trkpt><trkpt lat="36.79958429980904" lon="-108.18581108637058"><ele>1723.0000000000002</ele><time>2026-03-29T18:39:27Z</time></trkpt><trkpt lat="36.799580017384244" lon="-108.18572353611337"><ele>1723.0</ele><time>2026-03-29T18:39:28Z</time></trkpt><trkpt lat="36.7995807172081" lon="-108.18558278008565"><ele>1723.0</ele><time>2026-03-29T18:39:30Z</time></trkpt><trkpt lat="36.79956068203693" lon="-108.1854630992103"><ele>1723.0</ele><time>2026-03-29T18:39:32Z</time></trkpt><trkpt lat="36.79957040267493" lon="-108.18536686443221"><ele>1723.0</ele><time>2026-03-29T18:39:34Z</time></trkpt><trkpt lat="36.799616305310096" lon="-108.18526973897636"><ele>1723.0</ele><time>2026-03-29T18:39:36Z</time></trkpt><trkpt lat="36.799699248321616" lon="-108.18527398809351"><ele>1723.0</ele><time>2026-03-29T18:39:38Z</time></trkpt><trkpt lat="36.79974374504073" lon="-108.18533053142535"><ele>1723.0</ele><time>2026-03-29T18:40:44Z</time></trkpt></trkseg></trk></gpx>